<?xml version="1.0" encoding="UTF-8" standalone="no" ?>
<gpx xmlns="http://www.topografix.com/GPX/1/1" xmlns:xsi="http://www.w3.org/2001/XMLSchema-instance" xsi:schemaLocation="http://www.topografix.com/GPX/1/1 http://www.topografix.com/GPX/1/1/gpx.xsd" version="1.1" creator="VisuGPX - https://www.visugpx.com">
  <metadata>
    <name>HRP2023-J07</name>
  </metadata>
  <trk>
    <name><![CDATA[HRP2023-J07]]></name>
    <extensions>
      <line xmlns="http://www.topografix.com/GPX/gpx_style/0/2">
        <color>0000FF</color>
        <width>4</width>
      </line>
    </extensions>
    <trkseg>
      <trkpt lat="42.50323" lon="2.07753">
        <ele>1617.4000244141</ele>
        <time>2023-07-19T03:50:12.000Z</time>
      </trkpt>
      <trkpt lat="42.50326" lon="2.07755">
        <ele>1617.1999511719</ele>
        <time>2023-07-19T03:50:20.000Z</time>
      </trkpt>
      <trkpt lat="42.50338" lon="2.07748">
        <ele>1615.8000488281</ele>
        <time>2023-07-19T03:50:34.000Z</time>
      </trkpt>
      <trkpt lat="42.50341" lon="2.07746">
        <ele>1615.1999511719</ele>
        <time>2023-07-19T03:50:39.000Z</time>
      </trkpt>
      <trkpt lat="42.50343" lon="2.07745">
        <ele>1615.1999511719</ele>
        <time>2023-07-19T03:50:41.000Z</time>
      </trkpt>
      <trkpt lat="42.50349" lon="2.07742">
        <ele>1614.5999755859</ele>
        <time>2023-07-19T03:50:49.000Z</time>
      </trkpt>
      <trkpt lat="42.50348" lon="2.07749">
        <ele>1614.5999755859</ele>
        <time>2023-07-19T03:50:53.000Z</time>
      </trkpt>
      <trkpt lat="42.50363" lon="2.07759">
        <ele>1614.4000244141</ele>
        <time>2023-07-19T03:51:02.000Z</time>
      </trkpt>
      <trkpt lat="42.5037" lon="2.07757">
        <ele>1614.1999511719</ele>
        <time>2023-07-19T03:51:10.000Z</time>
      </trkpt>
      <trkpt lat="42.50379" lon="2.07759">
        <ele>1614</ele>
        <time>2023-07-19T03:51:17.000Z</time>
      </trkpt>
      <trkpt lat="42.50393" lon="2.07768">
        <ele>1614</ele>
        <time>2023-07-19T03:51:28.000Z</time>
      </trkpt>
      <trkpt lat="42.50407" lon="2.07777">
        <ele>1614.4000244141</ele>
        <time>2023-07-19T03:51:40.000Z</time>
      </trkpt>
      <trkpt lat="42.50418" lon="2.07782">
        <ele>1614.5999755859</ele>
        <time>2023-07-19T03:51:48.000Z</time>
      </trkpt>
      <trkpt lat="42.50432" lon="2.07789">
        <ele>1615</ele>
        <time>2023-07-19T03:51:56.000Z</time>
      </trkpt>
      <trkpt lat="42.50438" lon="2.0779">
        <ele>1615.1999511719</ele>
        <time>2023-07-19T03:52:00.000Z</time>
      </trkpt>
      <trkpt lat="42.50447" lon="2.07795">
        <ele>1615.5999755859</ele>
        <time>2023-07-19T03:52:08.000Z</time>
      </trkpt>
      <trkpt lat="42.50446" lon="2.07803">
        <ele>1615.4000244141</ele>
        <time>2023-07-19T03:52:14.000Z</time>
      </trkpt>
      <trkpt lat="42.5045" lon="2.07817">
        <ele>1615.4000244141</ele>
        <time>2023-07-19T03:52:22.000Z</time>
      </trkpt>
      <trkpt lat="42.50453" lon="2.0782">
        <ele>1615.1999511719</ele>
        <time>2023-07-19T03:52:29.000Z</time>
      </trkpt>
      <trkpt lat="42.5046" lon="2.07828">
        <ele>1615.4000244141</ele>
        <time>2023-07-19T03:52:36.000Z</time>
      </trkpt>
      <trkpt lat="42.50468" lon="2.07832">
        <ele>1615.8000488281</ele>
        <time>2023-07-19T03:52:43.000Z</time>
      </trkpt>
      <trkpt lat="42.50482" lon="2.07846">
        <ele>1616</ele>
        <time>2023-07-19T03:52:55.000Z</time>
      </trkpt>
      <trkpt lat="42.50486" lon="2.07851">
        <ele>1616.1999511719</ele>
        <time>2023-07-19T03:52:59.000Z</time>
      </trkpt>
      <trkpt lat="42.50488" lon="2.07854">
        <ele>1616.4000244141</ele>
        <time>2023-07-19T03:53:01.000Z</time>
      </trkpt>
      <trkpt lat="42.50494" lon="2.07863">
        <ele>1616.8000488281</ele>
        <time>2023-07-19T03:53:08.000Z</time>
      </trkpt>
      <trkpt lat="42.50499" lon="2.07873">
        <ele>1617.4000244141</ele>
        <time>2023-07-19T03:53:15.000Z</time>
      </trkpt>
      <trkpt lat="42.505" lon="2.07875">
        <ele>1617.4000244141</ele>
        <time>2023-07-19T03:53:16.000Z</time>
      </trkpt>
      <trkpt lat="42.50507" lon="2.07889">
        <ele>1618.1999511719</ele>
        <time>2023-07-19T03:53:25.000Z</time>
      </trkpt>
      <trkpt lat="42.50511" lon="2.07895">
        <ele>1618.4000244141</ele>
        <time>2023-07-19T03:53:29.000Z</time>
      </trkpt>
      <trkpt lat="42.50516" lon="2.07905">
        <ele>1618.8000488281</ele>
        <time>2023-07-19T03:53:35.000Z</time>
      </trkpt>
      <trkpt lat="42.50522" lon="2.07916">
        <ele>1619.1999511719</ele>
        <time>2023-07-19T03:53:43.000Z</time>
      </trkpt>
      <trkpt lat="42.50525" lon="2.07923">
        <ele>1619.4000244141</ele>
        <time>2023-07-19T03:53:47.000Z</time>
      </trkpt>
      <trkpt lat="42.50527" lon="2.07927">
        <ele>1619.5999755859</ele>
        <time>2023-07-19T03:53:50.000Z</time>
      </trkpt>
      <trkpt lat="42.50536" lon="2.07935">
        <ele>1620</ele>
        <time>2023-07-19T03:53:58.000Z</time>
      </trkpt>
      <trkpt lat="42.50547" lon="2.07943">
        <ele>1620.4000244141</ele>
        <time>2023-07-19T03:54:06.000Z</time>
      </trkpt>
      <trkpt lat="42.50548" lon="2.07944">
        <ele>1620.5999755859</ele>
        <time>2023-07-19T03:54:07.000Z</time>
      </trkpt>
      <trkpt lat="42.50551" lon="2.07951">
        <ele>1621</ele>
        <time>2023-07-19T03:54:13.000Z</time>
      </trkpt>
      <trkpt lat="42.50559" lon="2.0796">
        <ele>1621.5999755859</ele>
        <time>2023-07-19T03:54:20.000Z</time>
      </trkpt>
      <trkpt lat="42.5056" lon="2.07961">
        <ele>1621.5999755859</ele>
        <time>2023-07-19T03:54:21.000Z</time>
      </trkpt>
      <trkpt lat="42.50566" lon="2.07967">
        <ele>1622</ele>
        <time>2023-07-19T03:54:28.000Z</time>
      </trkpt>
      <trkpt lat="42.50575" lon="2.07972">
        <ele>1622.5999755859</ele>
        <time>2023-07-19T03:54:36.000Z</time>
      </trkpt>
      <trkpt lat="42.50576" lon="2.07972">
        <ele>1622.8000488281</ele>
        <time>2023-07-19T03:54:37.000Z</time>
      </trkpt>
      <trkpt lat="42.50586" lon="2.07973">
        <ele>1623.4000244141</ele>
        <time>2023-07-19T03:54:44.000Z</time>
      </trkpt>
      <trkpt lat="42.50588" lon="2.07974">
        <ele>1623.8000488281</ele>
        <time>2023-07-19T03:54:46.000Z</time>
      </trkpt>
      <trkpt lat="42.506" lon="2.07975">
        <ele>1624.1999511719</ele>
        <time>2023-07-19T03:54:53.000Z</time>
      </trkpt>
      <trkpt lat="42.50609" lon="2.07974">
        <ele>1624.8000488281</ele>
        <time>2023-07-19T03:54:58.000Z</time>
      </trkpt>
      <trkpt lat="42.50612" lon="2.07974">
        <ele>1625</ele>
        <time>2023-07-19T03:55:00.000Z</time>
      </trkpt>
      <trkpt lat="42.50618" lon="2.07973">
        <ele>1625.1999511719</ele>
        <time>2023-07-19T03:55:06.000Z</time>
      </trkpt>
      <trkpt lat="42.50627" lon="2.07975">
        <ele>1625.8000488281</ele>
        <time>2023-07-19T03:55:13.000Z</time>
      </trkpt>
      <trkpt lat="42.50629" lon="2.07975">
        <ele>1625.8000488281</ele>
        <time>2023-07-19T03:55:14.000Z</time>
      </trkpt>
      <trkpt lat="42.50641" lon="2.07974">
        <ele>1626.4000244141</ele>
        <time>2023-07-19T03:55:23.000Z</time>
      </trkpt>
      <trkpt lat="42.50644" lon="2.07974">
        <ele>1626.8000488281</ele>
        <time>2023-07-19T03:55:26.000Z</time>
      </trkpt>
      <trkpt lat="42.50649" lon="2.07975">
        <ele>1627.1999511719</ele>
        <time>2023-07-19T03:55:30.000Z</time>
      </trkpt>
      <trkpt lat="42.50654" lon="2.07976">
        <ele>1627.5999755859</ele>
        <time>2023-07-19T03:55:37.000Z</time>
      </trkpt>
      <trkpt lat="42.50662" lon="2.07976">
        <ele>1627.8000488281</ele>
        <time>2023-07-19T03:55:44.000Z</time>
      </trkpt>
      <trkpt lat="42.50664" lon="2.07977">
        <ele>1627.8000488281</ele>
        <time>2023-07-19T03:55:45.000Z</time>
      </trkpt>
      <trkpt lat="42.50673" lon="2.07979">
        <ele>1628.5999755859</ele>
        <time>2023-07-19T03:55:52.000Z</time>
      </trkpt>
      <trkpt lat="42.50681" lon="2.07979">
        <ele>1629</ele>
        <time>2023-07-19T03:55:57.000Z</time>
      </trkpt>
      <trkpt lat="42.50684" lon="2.07978">
        <ele>1629.1999511719</ele>
        <time>2023-07-19T03:55:59.000Z</time>
      </trkpt>
      <trkpt lat="42.50693" lon="2.07978">
        <ele>1629.8000488281</ele>
        <time>2023-07-19T03:56:06.000Z</time>
      </trkpt>
      <trkpt lat="42.50696" lon="2.07978">
        <ele>1630</ele>
        <time>2023-07-19T03:56:10.000Z</time>
      </trkpt>
      <trkpt lat="42.507" lon="2.0798">
        <ele>1630.5999755859</ele>
        <time>2023-07-19T03:56:15.000Z</time>
      </trkpt>
      <trkpt lat="42.50708" lon="2.07983">
        <ele>1631</ele>
        <time>2023-07-19T03:56:21.000Z</time>
      </trkpt>
      <trkpt lat="42.50715" lon="2.07984">
        <ele>1631.4000244141</ele>
        <time>2023-07-19T03:56:25.000Z</time>
      </trkpt>
      <trkpt lat="42.50723" lon="2.07985">
        <ele>1632</ele>
        <time>2023-07-19T03:56:32.000Z</time>
      </trkpt>
      <trkpt lat="42.50725" lon="2.07985">
        <ele>1632.1999511719</ele>
        <time>2023-07-19T03:56:33.000Z</time>
      </trkpt>
      <trkpt lat="42.50735" lon="2.07982">
        <ele>1633</ele>
        <time>2023-07-19T03:56:41.000Z</time>
      </trkpt>
      <trkpt lat="42.50736" lon="2.07982">
        <ele>1633.1999511719</ele>
        <time>2023-07-19T03:56:42.000Z</time>
      </trkpt>
      <trkpt lat="42.50743" lon="2.07976">
        <ele>1634.1999511719</ele>
        <time>2023-07-19T03:56:50.000Z</time>
      </trkpt>
      <trkpt lat="42.5075" lon="2.07969">
        <ele>1635</ele>
        <time>2023-07-19T03:56:58.000Z</time>
      </trkpt>
      <trkpt lat="42.50752" lon="2.07967">
        <ele>1635.1999511719</ele>
        <time>2023-07-19T03:57:00.000Z</time>
      </trkpt>
      <trkpt lat="42.5075" lon="2.07963">
        <ele>1636</ele>
        <time>2023-07-19T03:57:06.000Z</time>
      </trkpt>
      <trkpt lat="42.5075" lon="2.07959">
        <ele>1636.1999511719</ele>
        <time>2023-07-19T03:57:13.000Z</time>
      </trkpt>
      <trkpt lat="42.50751" lon="2.07958">
        <ele>1636.4000244141</ele>
        <time>2023-07-19T03:57:19.000Z</time>
      </trkpt>
      <trkpt lat="42.50752" lon="2.07957">
        <ele>1636.4000244141</ele>
        <time>2023-07-19T03:57:21.000Z</time>
      </trkpt>
      <trkpt lat="42.5076" lon="2.07954">
        <ele>1637.1999511719</ele>
        <time>2023-07-19T03:57:28.000Z</time>
      </trkpt>
      <trkpt lat="42.50762" lon="2.07954">
        <ele>1637.4000244141</ele>
        <time>2023-07-19T03:57:30.000Z</time>
      </trkpt>
      <trkpt lat="42.50765" lon="2.07954">
        <ele>1637.8000488281</ele>
        <time>2023-07-19T03:57:33.000Z</time>
      </trkpt>
      <trkpt lat="42.50771" lon="2.07955">
        <ele>1638.5999755859</ele>
        <time>2023-07-19T03:57:38.000Z</time>
      </trkpt>
      <trkpt lat="42.50773" lon="2.07956">
        <ele>1638.8000488281</ele>
        <time>2023-07-19T03:57:40.000Z</time>
      </trkpt>
      <trkpt lat="42.50781" lon="2.07959">
        <ele>1639.4000244141</ele>
        <time>2023-07-19T03:57:50.000Z</time>
      </trkpt>
      <trkpt lat="42.50784" lon="2.07959">
        <ele>1639.5999755859</ele>
        <time>2023-07-19T03:57:53.000Z</time>
      </trkpt>
      <trkpt lat="42.50786" lon="2.0796">
        <ele>1640</ele>
        <time>2023-07-19T03:57:56.000Z</time>
      </trkpt>
      <trkpt lat="42.5079" lon="2.07962">
        <ele>1640.8000488281</ele>
        <time>2023-07-19T03:58:02.000Z</time>
      </trkpt>
      <trkpt lat="42.50793" lon="2.07962">
        <ele>1641.4000244141</ele>
        <time>2023-07-19T03:58:06.000Z</time>
      </trkpt>
      <trkpt lat="42.50797" lon="2.07961">
        <ele>1641.8000488281</ele>
        <time>2023-07-19T03:58:10.000Z</time>
      </trkpt>
      <trkpt lat="42.508" lon="2.0796">
        <ele>1642.1999511719</ele>
        <time>2023-07-19T03:58:12.000Z</time>
      </trkpt>
      <trkpt lat="42.50804" lon="2.07956">
        <ele>1643</ele>
        <time>2023-07-19T03:58:17.000Z</time>
      </trkpt>
      <trkpt lat="42.50803" lon="2.07953">
        <ele>1643.4000244141</ele>
        <time>2023-07-19T03:58:21.000Z</time>
      </trkpt>
      <trkpt lat="42.50802" lon="2.07951">
        <ele>1643.5999755859</ele>
        <time>2023-07-19T03:58:25.000Z</time>
      </trkpt>
      <trkpt lat="42.50802" lon="2.07951">
        <ele>1643.5999755859</ele>
        <time>2023-07-19T03:58:28.000Z</time>
      </trkpt>
      <trkpt lat="42.50806" lon="2.07954">
        <ele>1643.5999755859</ele>
        <time>2023-07-19T03:58:34.000Z</time>
      </trkpt>
      <trkpt lat="42.5081" lon="2.07953">
        <ele>1644</ele>
        <time>2023-07-19T03:58:40.000Z</time>
      </trkpt>
      <trkpt lat="42.50811" lon="2.07953">
        <ele>1644.1999511719</ele>
        <time>2023-07-19T03:58:41.000Z</time>
      </trkpt>
      <trkpt lat="42.50815" lon="2.07949">
        <ele>1645</ele>
        <time>2023-07-19T03:58:49.000Z</time>
      </trkpt>
      <trkpt lat="42.50816" lon="2.07949">
        <ele>1645</ele>
        <time>2023-07-19T03:58:50.000Z</time>
      </trkpt>
      <trkpt lat="42.5082" lon="2.07946">
        <ele>1645.8000488281</ele>
        <time>2023-07-19T03:58:55.000Z</time>
      </trkpt>
      <trkpt lat="42.50822" lon="2.07946">
        <ele>1646.1999511719</ele>
        <time>2023-07-19T03:58:57.000Z</time>
      </trkpt>
      <trkpt lat="42.50826" lon="2.07947">
        <ele>1646.8000488281</ele>
        <time>2023-07-19T03:59:02.000Z</time>
      </trkpt>
      <trkpt lat="42.50828" lon="2.07947">
        <ele>1647.1999511719</ele>
        <time>2023-07-19T03:59:04.000Z</time>
      </trkpt>
      <trkpt lat="42.50829" lon="2.07947">
        <ele>1648.1999511719</ele>
        <time>2023-07-19T03:59:10.000Z</time>
      </trkpt>
      <trkpt lat="42.5083" lon="2.07946">
        <ele>1648.4000244141</ele>
        <time>2023-07-19T03:59:11.000Z</time>
      </trkpt>
      <trkpt lat="42.50838" lon="2.07946">
        <ele>1649.1999511719</ele>
        <time>2023-07-19T03:59:18.000Z</time>
      </trkpt>
      <trkpt lat="42.50839" lon="2.07945">
        <ele>1649.5999755859</ele>
        <time>2023-07-19T03:59:19.000Z</time>
      </trkpt>
      <trkpt lat="42.50844" lon="2.07945">
        <ele>1650.5999755859</ele>
        <time>2023-07-19T03:59:26.000Z</time>
      </trkpt>
      <trkpt lat="42.50847" lon="2.07945">
        <ele>1651.5999755859</ele>
        <time>2023-07-19T03:59:34.000Z</time>
      </trkpt>
      <trkpt lat="42.50848" lon="2.07945">
        <ele>1651.8000488281</ele>
        <time>2023-07-19T03:59:35.000Z</time>
      </trkpt>
      <trkpt lat="42.50853" lon="2.07945">
        <ele>1652.8000488281</ele>
        <time>2023-07-19T03:59:41.000Z</time>
      </trkpt>
      <trkpt lat="42.50855" lon="2.07945">
        <ele>1653.1999511719</ele>
        <time>2023-07-19T03:59:44.000Z</time>
      </trkpt>
      <trkpt lat="42.50857" lon="2.07944">
        <ele>1653.8000488281</ele>
        <time>2023-07-19T03:59:48.000Z</time>
      </trkpt>
      <trkpt lat="42.50859" lon="2.07945">
        <ele>1654.4000244141</ele>
        <time>2023-07-19T03:59:52.000Z</time>
      </trkpt>
      <trkpt lat="42.50861" lon="2.07945">
        <ele>1655</ele>
        <time>2023-07-19T03:59:55.000Z</time>
      </trkpt>
      <trkpt lat="42.50866" lon="2.07945">
        <ele>1656</ele>
        <time>2023-07-19T04:00:02.000Z</time>
      </trkpt>
      <trkpt lat="42.50866" lon="2.07945">
        <ele>1656</ele>
        <time>2023-07-19T04:00:03.000Z</time>
      </trkpt>
      <trkpt lat="42.50868" lon="2.07944">
        <ele>1657</ele>
        <time>2023-07-19T04:00:09.000Z</time>
      </trkpt>
      <trkpt lat="42.50868" lon="2.07944">
        <ele>1657.4000244141</ele>
        <time>2023-07-19T04:00:11.000Z</time>
      </trkpt>
      <trkpt lat="42.50872" lon="2.07943">
        <ele>1658</ele>
        <time>2023-07-19T04:00:17.000Z</time>
      </trkpt>
      <trkpt lat="42.50873" lon="2.07943">
        <ele>1658.4000244141</ele>
        <time>2023-07-19T04:00:18.000Z</time>
      </trkpt>
      <trkpt lat="42.50876" lon="2.07941">
        <ele>1659.1999511719</ele>
        <time>2023-07-19T04:00:22.000Z</time>
      </trkpt>
      <trkpt lat="42.50877" lon="2.07939">
        <ele>1659.4000244141</ele>
        <time>2023-07-19T04:00:26.000Z</time>
      </trkpt>
      <trkpt lat="42.50881" lon="2.07935">
        <ele>1659.4000244141</ele>
        <time>2023-07-19T04:00:33.000Z</time>
      </trkpt>
      <trkpt lat="42.5088" lon="2.07937">
        <ele>1659.5999755859</ele>
        <time>2023-07-19T04:00:43.000Z</time>
      </trkpt>
      <trkpt lat="42.5088" lon="2.07948">
        <ele>1659.5999755859</ele>
        <time>2023-07-19T04:00:51.000Z</time>
      </trkpt>
      <trkpt lat="42.50881" lon="2.07958">
        <ele>1660.1999511719</ele>
        <time>2023-07-19T04:01:00.000Z</time>
      </trkpt>
      <trkpt lat="42.50882" lon="2.07958">
        <ele>1660.1999511719</ele>
        <time>2023-07-19T04:01:01.000Z</time>
      </trkpt>
      <trkpt lat="42.50883" lon="2.07959">
        <ele>1660.1999511719</ele>
        <time>2023-07-19T04:01:08.000Z</time>
      </trkpt>
      <trkpt lat="42.50885" lon="2.07954">
        <ele>1660.4000244141</ele>
        <time>2023-07-19T04:01:17.000Z</time>
      </trkpt>
      <trkpt lat="42.50886" lon="2.07957">
        <ele>1661</ele>
        <time>2023-07-19T04:01:25.000Z</time>
      </trkpt>
      <trkpt lat="42.50886" lon="2.07957">
        <ele>1661.4000244141</ele>
        <time>2023-07-19T04:01:27.000Z</time>
      </trkpt>
      <trkpt lat="42.50889" lon="2.07958">
        <ele>1661.8000488281</ele>
        <time>2023-07-19T04:01:33.000Z</time>
      </trkpt>
      <trkpt lat="42.50894" lon="2.07957">
        <ele>1662</ele>
        <time>2023-07-19T04:01:39.000Z</time>
      </trkpt>
      <trkpt lat="42.50896" lon="2.07956">
        <ele>1662.4000244141</ele>
        <time>2023-07-19T04:01:41.000Z</time>
      </trkpt>
      <trkpt lat="42.509" lon="2.07954">
        <ele>1663</ele>
        <time>2023-07-19T04:01:47.000Z</time>
      </trkpt>
      <trkpt lat="42.50903" lon="2.07953">
        <ele>1663.5999755859</ele>
        <time>2023-07-19T04:01:50.000Z</time>
      </trkpt>
      <trkpt lat="42.50905" lon="2.07951">
        <ele>1663.8000488281</ele>
        <time>2023-07-19T04:01:53.000Z</time>
      </trkpt>
      <trkpt lat="42.5091" lon="2.07947">
        <ele>1664.5999755859</ele>
        <time>2023-07-19T04:01:59.000Z</time>
      </trkpt>
      <trkpt lat="42.50911" lon="2.07945">
        <ele>1664.8000488281</ele>
        <time>2023-07-19T04:02:01.000Z</time>
      </trkpt>
      <trkpt lat="42.50916" lon="2.07939">
        <ele>1665.5999755859</ele>
        <time>2023-07-19T04:02:07.000Z</time>
      </trkpt>
      <trkpt lat="42.50917" lon="2.07937">
        <ele>1666.1999511719</ele>
        <time>2023-07-19T04:02:12.000Z</time>
      </trkpt>
      <trkpt lat="42.50921" lon="2.07933">
        <ele>1666.8000488281</ele>
        <time>2023-07-19T04:02:17.000Z</time>
      </trkpt>
      <trkpt lat="42.50923" lon="2.0793">
        <ele>1667</ele>
        <time>2023-07-19T04:02:19.000Z</time>
      </trkpt>
      <trkpt lat="42.50925" lon="2.07924">
        <ele>1667.5999755859</ele>
        <time>2023-07-19T04:02:25.000Z</time>
      </trkpt>
      <trkpt lat="42.50925" lon="2.07923">
        <ele>1667.8000488281</ele>
        <time>2023-07-19T04:02:26.000Z</time>
      </trkpt>
      <trkpt lat="42.50928" lon="2.07915">
        <ele>1668.5999755859</ele>
        <time>2023-07-19T04:02:33.000Z</time>
      </trkpt>
      <trkpt lat="42.50929" lon="2.07913">
        <ele>1668.8000488281</ele>
        <time>2023-07-19T04:02:35.000Z</time>
      </trkpt>
      <trkpt lat="42.50933" lon="2.07908">
        <ele>1669.8000488281</ele>
        <time>2023-07-19T04:02:41.000Z</time>
      </trkpt>
      <trkpt lat="42.50934" lon="2.07908">
        <ele>1670</ele>
        <time>2023-07-19T04:02:43.000Z</time>
      </trkpt>
      <trkpt lat="42.50937" lon="2.07903">
        <ele>1670.5999755859</ele>
        <time>2023-07-19T04:02:49.000Z</time>
      </trkpt>
      <trkpt lat="42.50938" lon="2.07902">
        <ele>1671</ele>
        <time>2023-07-19T04:02:51.000Z</time>
      </trkpt>
      <trkpt lat="42.50941" lon="2.07898">
        <ele>1671.5999755859</ele>
        <time>2023-07-19T04:02:55.000Z</time>
      </trkpt>
      <trkpt lat="42.50942" lon="2.07897">
        <ele>1672</ele>
        <time>2023-07-19T04:02:58.000Z</time>
      </trkpt>
      <trkpt lat="42.50943" lon="2.07897">
        <ele>1672.4000244141</ele>
        <time>2023-07-19T04:03:02.000Z</time>
      </trkpt>
      <trkpt lat="42.50942" lon="2.07897">
        <ele>1672.5999755859</ele>
        <time>2023-07-19T04:03:13.000Z</time>
      </trkpt>
      <trkpt lat="42.50943" lon="2.07889">
        <ele>1673</ele>
        <time>2023-07-19T04:03:20.000Z</time>
      </trkpt>
      <trkpt lat="42.50943" lon="2.07887">
        <ele>1673</ele>
        <time>2023-07-19T04:03:21.000Z</time>
      </trkpt>
      <trkpt lat="42.50943" lon="2.07877">
        <ele>1673.8000488281</ele>
        <time>2023-07-19T04:03:28.000Z</time>
      </trkpt>
      <trkpt lat="42.50943" lon="2.07865">
        <ele>1674</ele>
        <time>2023-07-19T04:03:35.000Z</time>
      </trkpt>
      <trkpt lat="42.50943" lon="2.07865">
        <ele>1674.1999511719</ele>
        <time>2023-07-19T04:03:36.000Z</time>
      </trkpt>
      <trkpt lat="42.50946" lon="2.07858">
        <ele>1675</ele>
        <time>2023-07-19T04:03:43.000Z</time>
      </trkpt>
      <trkpt lat="42.50947" lon="2.07857">
        <ele>1675.1999511719</ele>
        <time>2023-07-19T04:03:45.000Z</time>
      </trkpt>
      <trkpt lat="42.50949" lon="2.07855">
        <ele>1675.8000488281</ele>
        <time>2023-07-19T04:03:49.000Z</time>
      </trkpt>
      <trkpt lat="42.50949" lon="2.07853">
        <ele>1676.1999511719</ele>
        <time>2023-07-19T04:03:52.000Z</time>
      </trkpt>
      <trkpt lat="42.50951" lon="2.0785">
        <ele>1677</ele>
        <time>2023-07-19T04:03:56.000Z</time>
      </trkpt>
      <trkpt lat="42.50951" lon="2.07848">
        <ele>1677.4000244141</ele>
        <time>2023-07-19T04:03:59.000Z</time>
      </trkpt>
      <trkpt lat="42.50953" lon="2.07844">
        <ele>1678.1999511719</ele>
        <time>2023-07-19T04:04:05.000Z</time>
      </trkpt>
      <trkpt lat="42.50954" lon="2.07844">
        <ele>1678.4000244141</ele>
        <time>2023-07-19T04:04:06.000Z</time>
      </trkpt>
      <trkpt lat="42.5096" lon="2.07841">
        <ele>1679.4000244141</ele>
        <time>2023-07-19T04:04:12.000Z</time>
      </trkpt>
      <trkpt lat="42.50961" lon="2.0784">
        <ele>1679.5999755859</ele>
        <time>2023-07-19T04:04:14.000Z</time>
      </trkpt>
      <trkpt lat="42.50963" lon="2.07837">
        <ele>1680.4000244141</ele>
        <time>2023-07-19T04:04:19.000Z</time>
      </trkpt>
      <trkpt lat="42.50964" lon="2.07837">
        <ele>1680.5999755859</ele>
        <time>2023-07-19T04:04:20.000Z</time>
      </trkpt>
      <trkpt lat="42.5097" lon="2.07835">
        <ele>1681.5999755859</ele>
        <time>2023-07-19T04:04:27.000Z</time>
      </trkpt>
      <trkpt lat="42.50972" lon="2.0783">
        <ele>1682.5999755859</ele>
        <time>2023-07-19T04:04:35.000Z</time>
      </trkpt>
      <trkpt lat="42.50975" lon="2.07828">
        <ele>1682.8000488281</ele>
        <time>2023-07-19T04:04:39.000Z</time>
      </trkpt>
      <trkpt lat="42.50979" lon="2.07827">
        <ele>1683</ele>
        <time>2023-07-19T04:04:42.000Z</time>
      </trkpt>
      <trkpt lat="42.50982" lon="2.07822">
        <ele>1683.8000488281</ele>
        <time>2023-07-19T04:04:49.000Z</time>
      </trkpt>
      <trkpt lat="42.50983" lon="2.07822">
        <ele>1684</ele>
        <time>2023-07-19T04:04:50.000Z</time>
      </trkpt>
      <trkpt lat="42.50985" lon="2.07815">
        <ele>1684.8000488281</ele>
        <time>2023-07-19T04:04:57.000Z</time>
      </trkpt>
      <trkpt lat="42.50988" lon="2.07814">
        <ele>1685.1999511719</ele>
        <time>2023-07-19T04:05:00.000Z</time>
      </trkpt>
      <trkpt lat="42.50992" lon="2.07805">
        <ele>1685.8000488281</ele>
        <time>2023-07-19T04:05:07.000Z</time>
      </trkpt>
      <trkpt lat="42.50994" lon="2.07803">
        <ele>1686</ele>
        <time>2023-07-19T04:05:09.000Z</time>
      </trkpt>
      <trkpt lat="42.51" lon="2.07803">
        <ele>1686.4000244141</ele>
        <time>2023-07-19T04:05:16.000Z</time>
      </trkpt>
      <trkpt lat="42.51005" lon="2.07802">
        <ele>1687</ele>
        <time>2023-07-19T04:05:24.000Z</time>
      </trkpt>
      <trkpt lat="42.51006" lon="2.07802">
        <ele>1687.1999511719</ele>
        <time>2023-07-19T04:05:25.000Z</time>
      </trkpt>
      <trkpt lat="42.5101" lon="2.07807">
        <ele>1687.8000488281</ele>
        <time>2023-07-19T04:05:34.000Z</time>
      </trkpt>
      <trkpt lat="42.51012" lon="2.07807">
        <ele>1688</ele>
        <time>2023-07-19T04:05:36.000Z</time>
      </trkpt>
      <trkpt lat="42.51015" lon="2.07808">
        <ele>1689</ele>
        <time>2023-07-19T04:05:41.000Z</time>
      </trkpt>
      <trkpt lat="42.51019" lon="2.07809">
        <ele>1690.1999511719</ele>
        <time>2023-07-19T04:05:48.000Z</time>
      </trkpt>
      <trkpt lat="42.51025" lon="2.07807">
        <ele>1690.8000488281</ele>
        <time>2023-07-19T04:05:51.000Z</time>
      </trkpt>
      <trkpt lat="42.51028" lon="2.07806">
        <ele>1691.1999511719</ele>
        <time>2023-07-19T04:05:56.000Z</time>
      </trkpt>
      <trkpt lat="42.51028" lon="2.07806">
        <ele>1691.4000244141</ele>
        <time>2023-07-19T04:05:57.000Z</time>
      </trkpt>
      <trkpt lat="42.5103" lon="2.07801">
        <ele>1691.5999755859</ele>
        <time>2023-07-19T04:06:05.000Z</time>
      </trkpt>
      <trkpt lat="42.51031" lon="2.07796">
        <ele>1692.1999511719</ele>
        <time>2023-07-19T04:06:12.000Z</time>
      </trkpt>
      <trkpt lat="42.51034" lon="2.07791">
        <ele>1692.5999755859</ele>
        <time>2023-07-19T04:06:20.000Z</time>
      </trkpt>
      <trkpt lat="42.51039" lon="2.07785">
        <ele>1693.1999511719</ele>
        <time>2023-07-19T04:06:26.000Z</time>
      </trkpt>
      <trkpt lat="42.51047" lon="2.07776">
        <ele>1694</ele>
        <time>2023-07-19T04:06:34.000Z</time>
      </trkpt>
      <trkpt lat="42.51051" lon="2.07774">
        <ele>1694.4000244141</ele>
        <time>2023-07-19T04:06:38.000Z</time>
      </trkpt>
      <trkpt lat="42.51054" lon="2.07774">
        <ele>1694.5999755859</ele>
        <time>2023-07-19T04:06:41.000Z</time>
      </trkpt>
      <trkpt lat="42.51065" lon="2.07774">
        <ele>1695.1999511719</ele>
        <time>2023-07-19T04:06:49.000Z</time>
      </trkpt>
      <trkpt lat="42.51066" lon="2.07774">
        <ele>1695.4000244141</ele>
        <time>2023-07-19T04:06:50.000Z</time>
      </trkpt>
      <trkpt lat="42.51073" lon="2.07775">
        <ele>1696</ele>
        <time>2023-07-19T04:06:56.000Z</time>
      </trkpt>
      <trkpt lat="42.51079" lon="2.07775">
        <ele>1696.4000244141</ele>
        <time>2023-07-19T04:07:01.000Z</time>
      </trkpt>
      <trkpt lat="42.51082" lon="2.07774">
        <ele>1696.5999755859</ele>
        <time>2023-07-19T04:07:03.000Z</time>
      </trkpt>
      <trkpt lat="42.51093" lon="2.07769">
        <ele>1697.5999755859</ele>
        <time>2023-07-19T04:07:11.000Z</time>
      </trkpt>
      <trkpt lat="42.51098" lon="2.07759">
        <ele>1698.4000244141</ele>
        <time>2023-07-19T04:07:17.000Z</time>
      </trkpt>
      <trkpt lat="42.51098" lon="2.07757">
        <ele>1698.5999755859</ele>
        <time>2023-07-19T04:07:18.000Z</time>
      </trkpt>
      <trkpt lat="42.51099" lon="2.07751">
        <ele>1699</ele>
        <time>2023-07-19T04:07:22.000Z</time>
      </trkpt>
      <trkpt lat="42.51098" lon="2.07739">
        <ele>1699.8000488281</ele>
        <time>2023-07-19T04:07:28.000Z</time>
      </trkpt>
      <trkpt lat="42.51098" lon="2.07737">
        <ele>1700</ele>
        <time>2023-07-19T04:07:29.000Z</time>
      </trkpt>
      <trkpt lat="42.511" lon="2.07721">
        <ele>1700.8000488281</ele>
        <time>2023-07-19T04:07:38.000Z</time>
      </trkpt>
      <trkpt lat="42.51104" lon="2.07706">
        <ele>1701.4000244141</ele>
        <time>2023-07-19T04:07:46.000Z</time>
      </trkpt>
      <trkpt lat="42.51103" lon="2.0769">
        <ele>1701.5999755859</ele>
        <time>2023-07-19T04:07:55.000Z</time>
      </trkpt>
      <trkpt lat="42.51103" lon="2.07686">
        <ele>1702</ele>
        <time>2023-07-19T04:07:57.000Z</time>
      </trkpt>
      <trkpt lat="42.511" lon="2.07673">
        <ele>1702.5999755859</ele>
        <time>2023-07-19T04:08:04.000Z</time>
      </trkpt>
      <trkpt lat="42.511" lon="2.07667">
        <ele>1703</ele>
        <time>2023-07-19T04:08:07.000Z</time>
      </trkpt>
      <trkpt lat="42.51097" lon="2.07655">
        <ele>1703.5999755859</ele>
        <time>2023-07-19T04:08:16.000Z</time>
      </trkpt>
      <trkpt lat="42.51095" lon="2.07647">
        <ele>1704</ele>
        <time>2023-07-19T04:08:20.000Z</time>
      </trkpt>
      <trkpt lat="42.51094" lon="2.07638">
        <ele>1704.4000244141</ele>
        <time>2023-07-19T04:08:24.000Z</time>
      </trkpt>
      <trkpt lat="42.51093" lon="2.0763">
        <ele>1705.1999511719</ele>
        <time>2023-07-19T04:08:29.000Z</time>
      </trkpt>
      <trkpt lat="42.51093" lon="2.07627">
        <ele>1705.1999511719</ele>
        <time>2023-07-19T04:08:31.000Z</time>
      </trkpt>
      <trkpt lat="42.5109" lon="2.07613">
        <ele>1706</ele>
        <time>2023-07-19T04:08:39.000Z</time>
      </trkpt>
      <trkpt lat="42.5109" lon="2.07611">
        <ele>1706.1999511719</ele>
        <time>2023-07-19T04:08:40.000Z</time>
      </trkpt>
      <trkpt lat="42.51088" lon="2.07599">
        <ele>1707.1999511719</ele>
        <time>2023-07-19T04:08:48.000Z</time>
      </trkpt>
      <trkpt lat="42.51089" lon="2.07595">
        <ele>1707.1999511719</ele>
        <time>2023-07-19T04:08:50.000Z</time>
      </trkpt>
      <trkpt lat="42.51088" lon="2.07585">
        <ele>1707.8000488281</ele>
        <time>2023-07-19T04:08:56.000Z</time>
      </trkpt>
      <trkpt lat="42.51086" lon="2.07582">
        <ele>1708.1999511719</ele>
        <time>2023-07-19T04:09:02.000Z</time>
      </trkpt>
      <trkpt lat="42.51086" lon="2.07581">
        <ele>1708.1999511719</ele>
        <time>2023-07-19T04:09:03.000Z</time>
      </trkpt>
      <trkpt lat="42.5109" lon="2.07571">
        <ele>1708.8000488281</ele>
        <time>2023-07-19T04:09:09.000Z</time>
      </trkpt>
      <trkpt lat="42.51088" lon="2.07564">
        <ele>1709.4000244141</ele>
        <time>2023-07-19T04:09:14.000Z</time>
      </trkpt>
      <trkpt lat="42.51089" lon="2.07563">
        <ele>1709.5999755859</ele>
        <time>2023-07-19T04:09:15.000Z</time>
      </trkpt>
      <trkpt lat="42.51093" lon="2.07553">
        <ele>1710.1999511719</ele>
        <time>2023-07-19T04:09:22.000Z</time>
      </trkpt>
      <trkpt lat="42.51091" lon="2.0755">
        <ele>1710.4000244141</ele>
        <time>2023-07-19T04:09:25.000Z</time>
      </trkpt>
      <trkpt lat="42.51091" lon="2.07546">
        <ele>1710.8000488281</ele>
        <time>2023-07-19T04:09:27.000Z</time>
      </trkpt>
      <trkpt lat="42.51095" lon="2.07531">
        <ele>1711.4000244141</ele>
        <time>2023-07-19T04:09:36.000Z</time>
      </trkpt>
      <trkpt lat="42.51094" lon="2.0752">
        <ele>1712.1999511719</ele>
        <time>2023-07-19T04:09:43.000Z</time>
      </trkpt>
      <trkpt lat="42.51096" lon="2.0751">
        <ele>1712.5999755859</ele>
        <time>2023-07-19T04:09:48.000Z</time>
      </trkpt>
      <trkpt lat="42.511" lon="2.07501">
        <ele>1713</ele>
        <time>2023-07-19T04:09:55.000Z</time>
      </trkpt>
      <trkpt lat="42.511" lon="2.07486">
        <ele>1713.5999755859</ele>
        <time>2023-07-19T04:10:07.000Z</time>
      </trkpt>
      <trkpt lat="42.511" lon="2.07484">
        <ele>1713.5999755859</ele>
        <time>2023-07-19T04:10:08.000Z</time>
      </trkpt>
      <trkpt lat="42.51108" lon="2.0747">
        <ele>1714.4000244141</ele>
        <time>2023-07-19T04:10:18.000Z</time>
      </trkpt>
      <trkpt lat="42.51109" lon="2.07468">
        <ele>1714.5999755859</ele>
        <time>2023-07-19T04:10:20.000Z</time>
      </trkpt>
      <trkpt lat="42.51109" lon="2.07455">
        <ele>1715.4000244141</ele>
        <time>2023-07-19T04:10:27.000Z</time>
      </trkpt>
      <trkpt lat="42.51109" lon="2.07448">
        <ele>1715.4000244141</ele>
        <time>2023-07-19T04:10:28.000Z</time>
      </trkpt>
      <trkpt lat="42.51109" lon="2.07439">
        <ele>1715.5999755859</ele>
        <time>2023-07-19T04:10:30.000Z</time>
      </trkpt>
      <trkpt lat="42.51109" lon="2.07436">
        <ele>1715.8000488281</ele>
        <time>2023-07-19T04:10:31.000Z</time>
      </trkpt>
      <trkpt lat="42.51114" lon="2.0742">
        <ele>1716.5999755859</ele>
        <time>2023-07-19T04:10:38.000Z</time>
      </trkpt>
      <trkpt lat="42.51114" lon="2.07418">
        <ele>1716.8000488281</ele>
        <time>2023-07-19T04:10:39.000Z</time>
      </trkpt>
      <trkpt lat="42.51116" lon="2.07404">
        <ele>1718</ele>
        <time>2023-07-19T04:10:47.000Z</time>
      </trkpt>
      <trkpt lat="42.51119" lon="2.07394">
        <ele>1718.5999755859</ele>
        <time>2023-07-19T04:10:53.000Z</time>
      </trkpt>
      <trkpt lat="42.51121" lon="2.07389">
        <ele>1719</ele>
        <time>2023-07-19T04:10:56.000Z</time>
      </trkpt>
      <trkpt lat="42.51126" lon="2.07379">
        <ele>1719.8000488281</ele>
        <time>2023-07-19T04:11:04.000Z</time>
      </trkpt>
      <trkpt lat="42.51127" lon="2.07377">
        <ele>1720</ele>
        <time>2023-07-19T04:11:05.000Z</time>
      </trkpt>
      <trkpt lat="42.51137" lon="2.0737">
        <ele>1720.8000488281</ele>
        <time>2023-07-19T04:11:16.000Z</time>
      </trkpt>
      <trkpt lat="42.5114" lon="2.07369">
        <ele>1721</ele>
        <time>2023-07-19T04:11:18.000Z</time>
      </trkpt>
      <trkpt lat="42.5115" lon="2.07364">
        <ele>1721.5999755859</ele>
        <time>2023-07-19T04:11:28.000Z</time>
      </trkpt>
      <trkpt lat="42.51161" lon="2.07361">
        <ele>1722</ele>
        <time>2023-07-19T04:11:35.000Z</time>
      </trkpt>
      <trkpt lat="42.51171" lon="2.07358">
        <ele>1722.4000244141</ele>
        <time>2023-07-19T04:11:41.000Z</time>
      </trkpt>
      <trkpt lat="42.51181" lon="2.07358">
        <ele>1723</ele>
        <time>2023-07-19T04:11:48.000Z</time>
      </trkpt>
      <trkpt lat="42.51188" lon="2.07354">
        <ele>1723.5999755859</ele>
        <time>2023-07-19T04:11:54.000Z</time>
      </trkpt>
      <trkpt lat="42.51192" lon="2.07353">
        <ele>1724</ele>
        <time>2023-07-19T04:11:58.000Z</time>
      </trkpt>
      <trkpt lat="42.51202" lon="2.07344">
        <ele>1724.8000488281</ele>
        <time>2023-07-19T04:12:06.000Z</time>
      </trkpt>
      <trkpt lat="42.51217" lon="2.07314">
        <ele>1726</ele>
        <time>2023-07-19T04:12:29.000Z</time>
      </trkpt>
      <trkpt lat="42.51229" lon="2.07303">
        <ele>1726.1999511719</ele>
        <time>2023-07-19T04:12:39.000Z</time>
      </trkpt>
      <trkpt lat="42.51236" lon="2.07296">
        <ele>1726.1999511719</ele>
        <time>2023-07-19T04:12:45.000Z</time>
      </trkpt>
      <trkpt lat="42.51245" lon="2.07287">
        <ele>1726.1999511719</ele>
        <time>2023-07-19T04:12:52.000Z</time>
      </trkpt>
      <trkpt lat="42.51253" lon="2.07273">
        <ele>1726.1999511719</ele>
        <time>2023-07-19T04:13:01.000Z</time>
      </trkpt>
      <trkpt lat="42.51254" lon="2.07257">
        <ele>1726.4000244141</ele>
        <time>2023-07-19T04:13:09.000Z</time>
      </trkpt>
      <trkpt lat="42.51254" lon="2.07254">
        <ele>1726.4000244141</ele>
        <time>2023-07-19T04:13:10.000Z</time>
      </trkpt>
      <trkpt lat="42.5126" lon="2.0724">
        <ele>1726.4000244141</ele>
        <time>2023-07-19T04:13:17.000Z</time>
      </trkpt>
      <trkpt lat="42.51268" lon="2.07232">
        <ele>1726.4000244141</ele>
        <time>2023-07-19T04:13:24.000Z</time>
      </trkpt>
      <trkpt lat="42.51281" lon="2.07211">
        <ele>1727</ele>
        <time>2023-07-19T04:13:39.000Z</time>
      </trkpt>
      <trkpt lat="42.51291" lon="2.07195">
        <ele>1727.1999511719</ele>
        <time>2023-07-19T04:13:48.000Z</time>
      </trkpt>
      <trkpt lat="42.51298" lon="2.07186">
        <ele>1727.4000244141</ele>
        <time>2023-07-19T04:13:54.000Z</time>
      </trkpt>
      <trkpt lat="42.51311" lon="2.07157">
        <ele>1728.1999511719</ele>
        <time>2023-07-19T04:14:12.000Z</time>
      </trkpt>
      <trkpt lat="42.51312" lon="2.07155">
        <ele>1728.1999511719</ele>
        <time>2023-07-19T04:14:13.000Z</time>
      </trkpt>
      <trkpt lat="42.51321" lon="2.07138">
        <ele>1729.1999511719</ele>
        <time>2023-07-19T04:14:25.000Z</time>
      </trkpt>
      <trkpt lat="42.51323" lon="2.07134">
        <ele>1729.5999755859</ele>
        <time>2023-07-19T04:14:28.000Z</time>
      </trkpt>
      <trkpt lat="42.51336" lon="2.07122">
        <ele>1730.4000244141</ele>
        <time>2023-07-19T04:14:40.000Z</time>
      </trkpt>
      <trkpt lat="42.5134" lon="2.07121">
        <ele>1730.4000244141</ele>
        <time>2023-07-19T04:14:42.000Z</time>
      </trkpt>
      <trkpt lat="42.51349" lon="2.07116">
        <ele>1731.1999511719</ele>
        <time>2023-07-19T04:14:53.000Z</time>
      </trkpt>
      <trkpt lat="42.51356" lon="2.07114">
        <ele>1731.4000244141</ele>
        <time>2023-07-19T04:14:58.000Z</time>
      </trkpt>
      <trkpt lat="42.51358" lon="2.07114">
        <ele>1731.4000244141</ele>
        <time>2023-07-19T04:14:59.000Z</time>
      </trkpt>
      <trkpt lat="42.51374" lon="2.07112">
        <ele>1731.5999755859</ele>
        <time>2023-07-19T04:15:07.000Z</time>
      </trkpt>
      <trkpt lat="42.51394" lon="2.07114">
        <ele>1732</ele>
        <time>2023-07-19T04:15:18.000Z</time>
      </trkpt>
      <trkpt lat="42.51397" lon="2.07114">
        <ele>1732</ele>
        <time>2023-07-19T04:15:20.000Z</time>
      </trkpt>
      <trkpt lat="42.51416" lon="2.07111">
        <ele>1732.1999511719</ele>
        <time>2023-07-19T04:15:33.000Z</time>
      </trkpt>
      <trkpt lat="42.51417" lon="2.07111">
        <ele>1732.4000244141</ele>
        <time>2023-07-19T04:15:34.000Z</time>
      </trkpt>
      <trkpt lat="42.5143" lon="2.07105">
        <ele>1733.4000244141</ele>
        <time>2023-07-19T04:15:46.000Z</time>
      </trkpt>
      <trkpt lat="42.51431" lon="2.07094">
        <ele>1734</ele>
        <time>2023-07-19T04:15:54.000Z</time>
      </trkpt>
      <trkpt lat="42.51432" lon="2.07086">
        <ele>1734.1999511719</ele>
        <time>2023-07-19T04:15:56.000Z</time>
      </trkpt>
      <trkpt lat="42.51439" lon="2.07081">
        <ele>1734.4000244141</ele>
        <time>2023-07-19T04:15:59.000Z</time>
      </trkpt>
      <trkpt lat="42.51441" lon="2.0708">
        <ele>1734.5999755859</ele>
        <time>2023-07-19T04:16:00.000Z</time>
      </trkpt>
      <trkpt lat="42.51451" lon="2.07074">
        <ele>1735.1999511719</ele>
        <time>2023-07-19T04:16:06.000Z</time>
      </trkpt>
      <trkpt lat="42.51455" lon="2.07067">
        <ele>1735.5999755859</ele>
        <time>2023-07-19T04:16:10.000Z</time>
      </trkpt>
      <trkpt lat="42.51459" lon="2.0706">
        <ele>1736.1999511719</ele>
        <time>2023-07-19T04:16:14.000Z</time>
      </trkpt>
      <trkpt lat="42.51462" lon="2.07052">
        <ele>1736.8000488281</ele>
        <time>2023-07-19T04:16:19.000Z</time>
      </trkpt>
      <trkpt lat="42.51464" lon="2.07048">
        <ele>1737.1999511719</ele>
        <time>2023-07-19T04:16:22.000Z</time>
      </trkpt>
      <trkpt lat="42.5147" lon="2.07038">
        <ele>1737.8000488281</ele>
        <time>2023-07-19T04:16:30.000Z</time>
      </trkpt>
      <trkpt lat="42.51478" lon="2.07031">
        <ele>1738.4000244141</ele>
        <time>2023-07-19T04:16:37.000Z</time>
      </trkpt>
      <trkpt lat="42.51489" lon="2.07027">
        <ele>1738.5999755859</ele>
        <time>2023-07-19T04:16:45.000Z</time>
      </trkpt>
      <trkpt lat="42.51501" lon="2.07027">
        <ele>1738.4000244141</ele>
        <time>2023-07-19T04:16:52.000Z</time>
      </trkpt>
      <trkpt lat="42.51513" lon="2.07027">
        <ele>1738.1999511719</ele>
        <time>2023-07-19T04:16:59.000Z</time>
      </trkpt>
      <trkpt lat="42.51526" lon="2.07026">
        <ele>1738.4000244141</ele>
        <time>2023-07-19T04:17:08.000Z</time>
      </trkpt>
      <trkpt lat="42.51537" lon="2.07024">
        <ele>1739</ele>
        <time>2023-07-19T04:17:16.000Z</time>
      </trkpt>
      <trkpt lat="42.51539" lon="2.07023">
        <ele>1739.1999511719</ele>
        <time>2023-07-19T04:17:18.000Z</time>
      </trkpt>
      <trkpt lat="42.51546" lon="2.0702">
        <ele>1739.8000488281</ele>
        <time>2023-07-19T04:17:25.000Z</time>
      </trkpt>
      <trkpt lat="42.51548" lon="2.07018">
        <ele>1740</ele>
        <time>2023-07-19T04:17:27.000Z</time>
      </trkpt>
      <trkpt lat="42.51557" lon="2.07011">
        <ele>1740</ele>
        <time>2023-07-19T04:17:33.000Z</time>
      </trkpt>
      <trkpt lat="42.51563" lon="2.07005">
        <ele>1740.4000244141</ele>
        <time>2023-07-19T04:17:40.000Z</time>
      </trkpt>
      <trkpt lat="42.51567" lon="2.07002">
        <ele>1741</ele>
        <time>2023-07-19T04:17:45.000Z</time>
      </trkpt>
      <trkpt lat="42.51569" lon="2.07">
        <ele>1741.1999511719</ele>
        <time>2023-07-19T04:17:49.000Z</time>
      </trkpt>
      <trkpt lat="42.51572" lon="2.06998">
        <ele>1741.4000244141</ele>
        <time>2023-07-19T04:17:56.000Z</time>
      </trkpt>
      <trkpt lat="42.51577" lon="2.06993">
        <ele>1742</ele>
        <time>2023-07-19T04:18:01.000Z</time>
      </trkpt>
      <trkpt lat="42.51578" lon="2.06992">
        <ele>1742.1999511719</ele>
        <time>2023-07-19T04:18:02.000Z</time>
      </trkpt>
      <trkpt lat="42.51583" lon="2.06987">
        <ele>1743</ele>
        <time>2023-07-19T04:18:08.000Z</time>
      </trkpt>
      <trkpt lat="42.51586" lon="2.06984">
        <ele>1743.1999511719</ele>
        <time>2023-07-19T04:18:10.000Z</time>
      </trkpt>
      <trkpt lat="42.51589" lon="2.06981">
        <ele>1743.5999755859</ele>
        <time>2023-07-19T04:18:13.000Z</time>
      </trkpt>
      <trkpt lat="42.51593" lon="2.06975">
        <ele>1744.1999511719</ele>
        <time>2023-07-19T04:18:19.000Z</time>
      </trkpt>
      <trkpt lat="42.51599" lon="2.06966">
        <ele>1744.8000488281</ele>
        <time>2023-07-19T04:18:26.000Z</time>
      </trkpt>
      <trkpt lat="42.51601" lon="2.06964">
        <ele>1745.1999511719</ele>
        <time>2023-07-19T04:18:29.000Z</time>
      </trkpt>
      <trkpt lat="42.51604" lon="2.06962">
        <ele>1745.5999755859</ele>
        <time>2023-07-19T04:18:31.000Z</time>
      </trkpt>
      <trkpt lat="42.51612" lon="2.06954">
        <ele>1746.1999511719</ele>
        <time>2023-07-19T04:18:37.000Z</time>
      </trkpt>
      <trkpt lat="42.51612" lon="2.06953">
        <ele>1746.4000244141</ele>
        <time>2023-07-19T04:18:38.000Z</time>
      </trkpt>
      <trkpt lat="42.51617" lon="2.06947">
        <ele>1747</ele>
        <time>2023-07-19T04:18:43.000Z</time>
      </trkpt>
      <trkpt lat="42.5162" lon="2.06944">
        <ele>1747.5999755859</ele>
        <time>2023-07-19T04:18:48.000Z</time>
      </trkpt>
      <trkpt lat="42.51621" lon="2.06943">
        <ele>1747.5999755859</ele>
        <time>2023-07-19T04:18:49.000Z</time>
      </trkpt>
      <trkpt lat="42.51629" lon="2.06938">
        <ele>1748.1999511719</ele>
        <time>2023-07-19T04:18:55.000Z</time>
      </trkpt>
      <trkpt lat="42.51636" lon="2.06935">
        <ele>1748.5999755859</ele>
        <time>2023-07-19T04:19:00.000Z</time>
      </trkpt>
      <trkpt lat="42.51638" lon="2.06932">
        <ele>1748.5999755859</ele>
        <time>2023-07-19T04:19:02.000Z</time>
      </trkpt>
      <trkpt lat="42.51642" lon="2.06927">
        <ele>1749</ele>
        <time>2023-07-19T04:19:07.000Z</time>
      </trkpt>
      <trkpt lat="42.51651" lon="2.06916">
        <ele>1749.1999511719</ele>
        <time>2023-07-19T04:19:15.000Z</time>
      </trkpt>
      <trkpt lat="42.51657" lon="2.06906">
        <ele>1749.5999755859</ele>
        <time>2023-07-19T04:19:22.000Z</time>
      </trkpt>
      <trkpt lat="42.51661" lon="2.06901">
        <ele>1749.5999755859</ele>
        <time>2023-07-19T04:19:26.000Z</time>
      </trkpt>
      <trkpt lat="42.51664" lon="2.06895">
        <ele>1749.8000488281</ele>
        <time>2023-07-19T04:19:30.000Z</time>
      </trkpt>
      <trkpt lat="42.51672" lon="2.06887">
        <ele>1750</ele>
        <time>2023-07-19T04:19:37.000Z</time>
      </trkpt>
      <trkpt lat="42.5168" lon="2.06878">
        <ele>1750.1999511719</ele>
        <time>2023-07-19T04:19:46.000Z</time>
      </trkpt>
      <trkpt lat="42.51686" lon="2.06868">
        <ele>1750.5999755859</ele>
        <time>2023-07-19T04:19:53.000Z</time>
      </trkpt>
      <trkpt lat="42.5169" lon="2.06864">
        <ele>1750.8000488281</ele>
        <time>2023-07-19T04:19:56.000Z</time>
      </trkpt>
      <trkpt lat="42.51694" lon="2.06861">
        <ele>1751.1999511719</ele>
        <time>2023-07-19T04:20:00.000Z</time>
      </trkpt>
      <trkpt lat="42.51699" lon="2.06856">
        <ele>1751.8000488281</ele>
        <time>2023-07-19T04:20:06.000Z</time>
      </trkpt>
      <trkpt lat="42.517" lon="2.06856">
        <ele>1751.8000488281</ele>
        <time>2023-07-19T04:20:07.000Z</time>
      </trkpt>
      <trkpt lat="42.51701" lon="2.06858">
        <ele>1751.8000488281</ele>
        <time>2023-07-19T04:20:15.000Z</time>
      </trkpt>
      <trkpt lat="42.51703" lon="2.06859">
        <ele>1751.8000488281</ele>
        <time>2023-07-19T04:20:17.000Z</time>
      </trkpt>
      <trkpt lat="42.517" lon="2.06864">
        <ele>1751.8000488281</ele>
        <time>2023-07-19T04:20:25.000Z</time>
      </trkpt>
      <trkpt lat="42.51695" lon="2.06871">
        <ele>1751.1999511719</ele>
        <time>2023-07-19T04:20:31.000Z</time>
      </trkpt>
      <trkpt lat="42.51687" lon="2.06879">
        <ele>1750.5999755859</ele>
        <time>2023-07-19T04:20:38.000Z</time>
      </trkpt>
      <trkpt lat="42.51684" lon="2.06881">
        <ele>1750.4000244141</ele>
        <time>2023-07-19T04:20:40.000Z</time>
      </trkpt>
      <trkpt lat="42.51675" lon="2.06891">
        <ele>1749.8000488281</ele>
        <time>2023-07-19T04:20:48.000Z</time>
      </trkpt>
      <trkpt lat="42.51667" lon="2.069">
        <ele>1749.5999755859</ele>
        <time>2023-07-19T04:20:55.000Z</time>
      </trkpt>
      <trkpt lat="42.51664" lon="2.06904">
        <ele>1749.5999755859</ele>
        <time>2023-07-19T04:20:58.000Z</time>
      </trkpt>
      <trkpt lat="42.51662" lon="2.06908">
        <ele>1749.1999511719</ele>
        <time>2023-07-19T04:21:05.000Z</time>
      </trkpt>
      <trkpt lat="42.51661" lon="2.06915">
        <ele>1749.1999511719</ele>
        <time>2023-07-19T04:21:12.000Z</time>
      </trkpt>
      <trkpt lat="42.51659" lon="2.06934">
        <ele>1749</ele>
        <time>2023-07-19T04:21:22.000Z</time>
      </trkpt>
      <trkpt lat="42.51656" lon="2.06942">
        <ele>1748.8000488281</ele>
        <time>2023-07-19T04:21:28.000Z</time>
      </trkpt>
      <trkpt lat="42.51652" lon="2.06953">
        <ele>1748.5999755859</ele>
        <time>2023-07-19T04:21:34.000Z</time>
      </trkpt>
      <trkpt lat="42.5165" lon="2.06958">
        <ele>1748.5999755859</ele>
        <time>2023-07-19T04:21:36.000Z</time>
      </trkpt>
      <trkpt lat="42.51644" lon="2.06971">
        <ele>1748</ele>
        <time>2023-07-19T04:21:43.000Z</time>
      </trkpt>
      <trkpt lat="42.51643" lon="2.06979">
        <ele>1747.8000488281</ele>
        <time>2023-07-19T04:21:49.000Z</time>
      </trkpt>
      <trkpt lat="42.51643" lon="2.06993">
        <ele>1747.5999755859</ele>
        <time>2023-07-19T04:21:56.000Z</time>
      </trkpt>
      <trkpt lat="42.51642" lon="2.07005">
        <ele>1747.8000488281</ele>
        <time>2023-07-19T04:22:03.000Z</time>
      </trkpt>
      <trkpt lat="42.51641" lon="2.07009">
        <ele>1747.5999755859</ele>
        <time>2023-07-19T04:22:05.000Z</time>
      </trkpt>
      <trkpt lat="42.51642" lon="2.07017">
        <ele>1747.4000244141</ele>
        <time>2023-07-19T04:22:10.000Z</time>
      </trkpt>
      <trkpt lat="42.51643" lon="2.07021">
        <ele>1747.1999511719</ele>
        <time>2023-07-19T04:22:17.000Z</time>
      </trkpt>
      <trkpt lat="42.51645" lon="2.07014">
        <ele>1747.1999511719</ele>
        <time>2023-07-19T04:22:23.000Z</time>
      </trkpt>
      <trkpt lat="42.51647" lon="2.07007">
        <ele>1747.5999755859</ele>
        <time>2023-07-19T04:22:30.000Z</time>
      </trkpt>
      <trkpt lat="42.51653" lon="2.06994">
        <ele>1748.1999511719</ele>
        <time>2023-07-19T04:22:41.000Z</time>
      </trkpt>
      <trkpt lat="42.51657" lon="2.0699">
        <ele>1748.8000488281</ele>
        <time>2023-07-19T04:22:46.000Z</time>
      </trkpt>
      <trkpt lat="42.51659" lon="2.06988">
        <ele>1749</ele>
        <time>2023-07-19T04:22:49.000Z</time>
      </trkpt>
      <trkpt lat="42.5166" lon="2.06988">
        <ele>1749.1999511719</ele>
        <time>2023-07-19T04:22:53.000Z</time>
      </trkpt>
      <trkpt lat="42.51663" lon="2.06987">
        <ele>1749.4000244141</ele>
        <time>2023-07-19T04:22:55.000Z</time>
      </trkpt>
      <trkpt lat="42.51663" lon="2.06987">
        <ele>1749.4000244141</ele>
        <time>2023-07-19T04:22:56.000Z</time>
      </trkpt>
      <trkpt lat="42.51676" lon="2.06988">
        <ele>1750.8000488281</ele>
        <time>2023-07-19T04:23:11.000Z</time>
      </trkpt>
      <trkpt lat="42.51677" lon="2.06988">
        <ele>1750.8000488281</ele>
        <time>2023-07-19T04:23:12.000Z</time>
      </trkpt>
      <trkpt lat="42.51697" lon="2.06985">
        <ele>1752.5999755859</ele>
        <time>2023-07-19T04:23:40.000Z</time>
      </trkpt>
      <trkpt lat="42.51697" lon="2.06985">
        <ele>1752.5999755859</ele>
        <time>2023-07-19T04:23:42.000Z</time>
      </trkpt>
      <trkpt lat="42.51699" lon="2.06981">
        <ele>1753.1999511719</ele>
        <time>2023-07-19T04:23:47.000Z</time>
      </trkpt>
      <trkpt lat="42.51701" lon="2.06976">
        <ele>1753.8000488281</ele>
        <time>2023-07-19T04:23:52.000Z</time>
      </trkpt>
      <trkpt lat="42.51703" lon="2.06973">
        <ele>1754.1999511719</ele>
        <time>2023-07-19T04:23:56.000Z</time>
      </trkpt>
      <trkpt lat="42.51704" lon="2.06971">
        <ele>1754.5999755859</ele>
        <time>2023-07-19T04:24:00.000Z</time>
      </trkpt>
      <trkpt lat="42.51707" lon="2.06969">
        <ele>1755.1999511719</ele>
        <time>2023-07-19T04:24:06.000Z</time>
      </trkpt>
      <trkpt lat="42.51708" lon="2.06968">
        <ele>1755.5999755859</ele>
        <time>2023-07-19T04:24:09.000Z</time>
      </trkpt>
      <trkpt lat="42.51709" lon="2.06966">
        <ele>1756.1999511719</ele>
        <time>2023-07-19T04:24:13.000Z</time>
      </trkpt>
      <trkpt lat="42.51714" lon="2.0696">
        <ele>1757.1999511719</ele>
        <time>2023-07-19T04:24:19.000Z</time>
      </trkpt>
      <trkpt lat="42.51716" lon="2.06958">
        <ele>1757.1999511719</ele>
        <time>2023-07-19T04:24:21.000Z</time>
      </trkpt>
      <trkpt lat="42.51719" lon="2.06954">
        <ele>1758</ele>
        <time>2023-07-19T04:24:26.000Z</time>
      </trkpt>
      <trkpt lat="42.51721" lon="2.06952">
        <ele>1758.4000244141</ele>
        <time>2023-07-19T04:24:30.000Z</time>
      </trkpt>
      <trkpt lat="42.51724" lon="2.06949">
        <ele>1759.1999511719</ele>
        <time>2023-07-19T04:24:36.000Z</time>
      </trkpt>
      <trkpt lat="42.51728" lon="2.06946">
        <ele>1759.5999755859</ele>
        <time>2023-07-19T04:24:40.000Z</time>
      </trkpt>
      <trkpt lat="42.51729" lon="2.06946">
        <ele>1760</ele>
        <time>2023-07-19T04:24:44.000Z</time>
      </trkpt>
      <trkpt lat="42.51743" lon="2.06941">
        <ele>1761.4000244141</ele>
        <time>2023-07-19T04:25:00.000Z</time>
      </trkpt>
      <trkpt lat="42.51751" lon="2.06934">
        <ele>1762.8000488281</ele>
        <time>2023-07-19T04:25:12.000Z</time>
      </trkpt>
      <trkpt lat="42.51752" lon="2.06934">
        <ele>1763.1999511719</ele>
        <time>2023-07-19T04:25:16.000Z</time>
      </trkpt>
      <trkpt lat="42.51759" lon="2.06936">
        <ele>1763.8000488281</ele>
        <time>2023-07-19T04:25:33.000Z</time>
      </trkpt>
      <trkpt lat="42.51765" lon="2.06933">
        <ele>1764.8000488281</ele>
        <time>2023-07-19T04:25:43.000Z</time>
      </trkpt>
      <trkpt lat="42.5177" lon="2.06927">
        <ele>1765.8000488281</ele>
        <time>2023-07-19T04:25:49.000Z</time>
      </trkpt>
      <trkpt lat="42.51771" lon="2.06927">
        <ele>1766</ele>
        <time>2023-07-19T04:25:50.000Z</time>
      </trkpt>
      <trkpt lat="42.51771" lon="2.06928">
        <ele>1766.4000244141</ele>
        <time>2023-07-19T04:25:54.000Z</time>
      </trkpt>
      <trkpt lat="42.51787" lon="2.0693">
        <ele>1768.4000244141</ele>
        <time>2023-07-19T04:26:15.000Z</time>
      </trkpt>
      <trkpt lat="42.51807" lon="2.06932">
        <ele>1772.1999511719</ele>
        <time>2023-07-19T04:26:45.000Z</time>
      </trkpt>
      <trkpt lat="42.51815" lon="2.06938">
        <ele>1773.8000488281</ele>
        <time>2023-07-19T04:26:57.000Z</time>
      </trkpt>
      <trkpt lat="42.51816" lon="2.06938">
        <ele>1773.8000488281</ele>
        <time>2023-07-19T04:26:58.000Z</time>
      </trkpt>
      <trkpt lat="42.51858" lon="2.06946">
        <ele>1776.5999755859</ele>
        <time>2023-07-19T04:27:38.000Z</time>
      </trkpt>
      <trkpt lat="42.51862" lon="2.06946">
        <ele>1776.8000488281</ele>
        <time>2023-07-19T04:27:41.000Z</time>
      </trkpt>
      <trkpt lat="42.51875" lon="2.06937">
        <ele>1778.4000244141</ele>
        <time>2023-07-19T04:27:58.000Z</time>
      </trkpt>
      <trkpt lat="42.51876" lon="2.06937">
        <ele>1778.5999755859</ele>
        <time>2023-07-19T04:27:59.000Z</time>
      </trkpt>
      <trkpt lat="42.51877" lon="2.06937">
        <ele>1778.5999755859</ele>
        <time>2023-07-19T04:28:00.000Z</time>
      </trkpt>
      <trkpt lat="42.51894" lon="2.0694">
        <ele>1781.4000244141</ele>
        <time>2023-07-19T04:28:27.000Z</time>
      </trkpt>
      <trkpt lat="42.51908" lon="2.06949">
        <ele>1782.8000488281</ele>
        <time>2023-07-19T04:28:58.000Z</time>
      </trkpt>
      <trkpt lat="42.51912" lon="2.06956">
        <ele>1783.1999511719</ele>
        <time>2023-07-19T04:29:06.000Z</time>
      </trkpt>
      <trkpt lat="42.51917" lon="2.06961">
        <ele>1783.8000488281</ele>
        <time>2023-07-19T04:29:12.000Z</time>
      </trkpt>
      <trkpt lat="42.51917" lon="2.06962">
        <ele>1784.4000244141</ele>
        <time>2023-07-19T04:29:16.000Z</time>
      </trkpt>
      <trkpt lat="42.51922" lon="2.06969">
        <ele>1785.4000244141</ele>
        <time>2023-07-19T04:29:26.000Z</time>
      </trkpt>
      <trkpt lat="42.51927" lon="2.06973">
        <ele>1786</ele>
        <time>2023-07-19T04:29:32.000Z</time>
      </trkpt>
      <trkpt lat="42.51929" lon="2.06975">
        <ele>1786.5999755859</ele>
        <time>2023-07-19T04:29:36.000Z</time>
      </trkpt>
      <trkpt lat="42.51933" lon="2.06978">
        <ele>1787</ele>
        <time>2023-07-19T04:29:40.000Z</time>
      </trkpt>
      <trkpt lat="42.51935" lon="2.06982">
        <ele>1787.8000488281</ele>
        <time>2023-07-19T04:29:45.000Z</time>
      </trkpt>
      <trkpt lat="42.51936" lon="2.06982">
        <ele>1788.1999511719</ele>
        <time>2023-07-19T04:29:48.000Z</time>
      </trkpt>
      <trkpt lat="42.51937" lon="2.06985">
        <ele>1788.5999755859</ele>
        <time>2023-07-19T04:29:53.000Z</time>
      </trkpt>
      <trkpt lat="42.5194" lon="2.06989">
        <ele>1789.1999511719</ele>
        <time>2023-07-19T04:29:57.000Z</time>
      </trkpt>
      <trkpt lat="42.51944" lon="2.06996">
        <ele>1789.8000488281</ele>
        <time>2023-07-19T04:30:01.000Z</time>
      </trkpt>
      <trkpt lat="42.51951" lon="2.07004">
        <ele>1790.4000244141</ele>
        <time>2023-07-19T04:30:09.000Z</time>
      </trkpt>
      <trkpt lat="42.51951" lon="2.07005">
        <ele>1790.4000244141</ele>
        <time>2023-07-19T04:30:10.000Z</time>
      </trkpt>
      <trkpt lat="42.5196" lon="2.07009">
        <ele>1792.5999755859</ele>
        <time>2023-07-19T04:30:25.000Z</time>
      </trkpt>
      <trkpt lat="42.5196" lon="2.07009">
        <ele>1792.5999755859</ele>
        <time>2023-07-19T04:30:26.000Z</time>
      </trkpt>
      <trkpt lat="42.51983" lon="2.07018">
        <ele>1794.5999755859</ele>
        <time>2023-07-19T04:30:45.000Z</time>
      </trkpt>
      <trkpt lat="42.51989" lon="2.07027">
        <ele>1794.8000488281</ele>
        <time>2023-07-19T04:30:52.000Z</time>
      </trkpt>
      <trkpt lat="42.51997" lon="2.07038">
        <ele>1795</ele>
        <time>2023-07-19T04:31:01.000Z</time>
      </trkpt>
      <trkpt lat="42.52002" lon="2.07049">
        <ele>1795.5999755859</ele>
        <time>2023-07-19T04:31:11.000Z</time>
      </trkpt>
      <trkpt lat="42.52002" lon="2.07052">
        <ele>1795.5999755859</ele>
        <time>2023-07-19T04:31:13.000Z</time>
      </trkpt>
      <trkpt lat="42.52003" lon="2.07064">
        <ele>1796</ele>
        <time>2023-07-19T04:31:19.000Z</time>
      </trkpt>
      <trkpt lat="42.52004" lon="2.07076">
        <ele>1796.8000488281</ele>
        <time>2023-07-19T04:31:26.000Z</time>
      </trkpt>
      <trkpt lat="42.52004" lon="2.07077">
        <ele>1797.1999511719</ele>
        <time>2023-07-19T04:31:29.000Z</time>
      </trkpt>
      <trkpt lat="42.52005" lon="2.0708">
        <ele>1797.5999755859</ele>
        <time>2023-07-19T04:31:36.000Z</time>
      </trkpt>
      <trkpt lat="42.52008" lon="2.07081">
        <ele>1797.8000488281</ele>
        <time>2023-07-19T04:31:42.000Z</time>
      </trkpt>
      <trkpt lat="42.52012" lon="2.07083">
        <ele>1798</ele>
        <time>2023-07-19T04:31:46.000Z</time>
      </trkpt>
      <trkpt lat="42.52022" lon="2.07083">
        <ele>1798.4000244141</ele>
        <time>2023-07-19T04:31:56.000Z</time>
      </trkpt>
      <trkpt lat="42.52032" lon="2.07081">
        <ele>1798.8000488281</ele>
        <time>2023-07-19T04:32:02.000Z</time>
      </trkpt>
      <trkpt lat="42.52033" lon="2.0708">
        <ele>1799</ele>
        <time>2023-07-19T04:32:03.000Z</time>
      </trkpt>
      <trkpt lat="42.52041" lon="2.07078">
        <ele>1799.8000488281</ele>
        <time>2023-07-19T04:32:09.000Z</time>
      </trkpt>
      <trkpt lat="42.52043" lon="2.07078">
        <ele>1800</ele>
        <time>2023-07-19T04:32:11.000Z</time>
      </trkpt>
      <trkpt lat="42.5205" lon="2.07076">
        <ele>1800.5999755859</ele>
        <time>2023-07-19T04:32:17.000Z</time>
      </trkpt>
      <trkpt lat="42.52062" lon="2.07074">
        <ele>1801.8000488281</ele>
        <time>2023-07-19T04:32:27.000Z</time>
      </trkpt>
      <trkpt lat="42.52064" lon="2.07072">
        <ele>1802</ele>
        <time>2023-07-19T04:32:29.000Z</time>
      </trkpt>
      <trkpt lat="42.52067" lon="2.07069">
        <ele>1802.8000488281</ele>
        <time>2023-07-19T04:32:34.000Z</time>
      </trkpt>
      <trkpt lat="42.5207" lon="2.07067">
        <ele>1803.1999511719</ele>
        <time>2023-07-19T04:32:36.000Z</time>
      </trkpt>
      <trkpt lat="42.5208" lon="2.07058">
        <ele>1804</ele>
        <time>2023-07-19T04:32:44.000Z</time>
      </trkpt>
      <trkpt lat="42.52084" lon="2.07057">
        <ele>1804.1999511719</ele>
        <time>2023-07-19T04:32:50.000Z</time>
      </trkpt>
      <trkpt lat="42.52087" lon="2.07057">
        <ele>1804.4000244141</ele>
        <time>2023-07-19T04:32:53.000Z</time>
      </trkpt>
      <trkpt lat="42.52097" lon="2.07054">
        <ele>1805</ele>
        <time>2023-07-19T04:33:00.000Z</time>
      </trkpt>
      <trkpt lat="42.52099" lon="2.07053">
        <ele>1805.1999511719</ele>
        <time>2023-07-19T04:33:02.000Z</time>
      </trkpt>
      <trkpt lat="42.52106" lon="2.07047">
        <ele>1805.5999755859</ele>
        <time>2023-07-19T04:33:08.000Z</time>
      </trkpt>
      <trkpt lat="42.52111" lon="2.07043">
        <ele>1806.1999511719</ele>
        <time>2023-07-19T04:33:14.000Z</time>
      </trkpt>
      <trkpt lat="42.52112" lon="2.07042">
        <ele>1806.4000244141</ele>
        <time>2023-07-19T04:33:15.000Z</time>
      </trkpt>
      <trkpt lat="42.52117" lon="2.07033">
        <ele>1806.8000488281</ele>
        <time>2023-07-19T04:33:22.000Z</time>
      </trkpt>
      <trkpt lat="42.5212" lon="2.07024">
        <ele>1807.1999511719</ele>
        <time>2023-07-19T04:33:28.000Z</time>
      </trkpt>
      <trkpt lat="42.52122" lon="2.07022">
        <ele>1807.4000244141</ele>
        <time>2023-07-19T04:33:31.000Z</time>
      </trkpt>
      <trkpt lat="42.52131" lon="2.07014">
        <ele>1808.1999511719</ele>
        <time>2023-07-19T04:33:39.000Z</time>
      </trkpt>
      <trkpt lat="42.52131" lon="2.07013">
        <ele>1808.4000244141</ele>
        <time>2023-07-19T04:33:40.000Z</time>
      </trkpt>
      <trkpt lat="42.52134" lon="2.07007">
        <ele>1809</ele>
        <time>2023-07-19T04:33:46.000Z</time>
      </trkpt>
      <trkpt lat="42.52136" lon="2.07004">
        <ele>1809.4000244141</ele>
        <time>2023-07-19T04:33:49.000Z</time>
      </trkpt>
      <trkpt lat="42.52142" lon="2.06993">
        <ele>1809.8000488281</ele>
        <time>2023-07-19T04:33:57.000Z</time>
      </trkpt>
      <trkpt lat="42.52148" lon="2.06977">
        <ele>1809.8000488281</ele>
        <time>2023-07-19T04:34:06.000Z</time>
      </trkpt>
      <trkpt lat="42.52154" lon="2.06961">
        <ele>1810.1999511719</ele>
        <time>2023-07-19T04:34:15.000Z</time>
      </trkpt>
      <trkpt lat="42.52159" lon="2.06954">
        <ele>1810.4000244141</ele>
        <time>2023-07-19T04:34:20.000Z</time>
      </trkpt>
      <trkpt lat="42.52162" lon="2.06952">
        <ele>1810.5999755859</ele>
        <time>2023-07-19T04:34:23.000Z</time>
      </trkpt>
      <trkpt lat="42.52172" lon="2.06948">
        <ele>1810.8000488281</ele>
        <time>2023-07-19T04:34:33.000Z</time>
      </trkpt>
      <trkpt lat="42.52182" lon="2.06941">
        <ele>1811</ele>
        <time>2023-07-19T04:34:41.000Z</time>
      </trkpt>
      <trkpt lat="42.52191" lon="2.06929">
        <ele>1811.1999511719</ele>
        <time>2023-07-19T04:34:49.000Z</time>
      </trkpt>
      <trkpt lat="42.52194" lon="2.06922">
        <ele>1811.4000244141</ele>
        <time>2023-07-19T04:34:54.000Z</time>
      </trkpt>
      <trkpt lat="42.52197" lon="2.06917">
        <ele>1811.5999755859</ele>
        <time>2023-07-19T04:34:57.000Z</time>
      </trkpt>
      <trkpt lat="42.52206" lon="2.06901">
        <ele>1812</ele>
        <time>2023-07-19T04:35:07.000Z</time>
      </trkpt>
      <trkpt lat="42.52212" lon="2.06897">
        <ele>1812.4000244141</ele>
        <time>2023-07-19T04:35:12.000Z</time>
      </trkpt>
      <trkpt lat="42.52216" lon="2.06892">
        <ele>1813</ele>
        <time>2023-07-19T04:35:16.000Z</time>
      </trkpt>
      <trkpt lat="42.52218" lon="2.06889">
        <ele>1813.5999755859</ele>
        <time>2023-07-19T04:35:19.000Z</time>
      </trkpt>
      <trkpt lat="42.5222" lon="2.06884">
        <ele>1814</ele>
        <time>2023-07-19T04:35:23.000Z</time>
      </trkpt>
      <trkpt lat="42.52222" lon="2.06882">
        <ele>1814.8000488281</ele>
        <time>2023-07-19T04:35:27.000Z</time>
      </trkpt>
      <trkpt lat="42.52224" lon="2.06879">
        <ele>1815.1999511719</ele>
        <time>2023-07-19T04:35:31.000Z</time>
      </trkpt>
      <trkpt lat="42.52231" lon="2.06875">
        <ele>1815.8000488281</ele>
        <time>2023-07-19T04:35:38.000Z</time>
      </trkpt>
      <trkpt lat="42.52233" lon="2.06874">
        <ele>1816</ele>
        <time>2023-07-19T04:35:39.000Z</time>
      </trkpt>
      <trkpt lat="42.52242" lon="2.06866">
        <ele>1816.1999511719</ele>
        <time>2023-07-19T04:35:46.000Z</time>
      </trkpt>
      <trkpt lat="42.52247" lon="2.06859">
        <ele>1816.4000244141</ele>
        <time>2023-07-19T04:35:52.000Z</time>
      </trkpt>
      <trkpt lat="42.52256" lon="2.0685">
        <ele>1816.5999755859</ele>
        <time>2023-07-19T04:35:58.000Z</time>
      </trkpt>
      <trkpt lat="42.52264" lon="2.06842">
        <ele>1816.8000488281</ele>
        <time>2023-07-19T04:36:05.000Z</time>
      </trkpt>
      <trkpt lat="42.52265" lon="2.06842">
        <ele>1816.8000488281</ele>
        <time>2023-07-19T04:36:06.000Z</time>
      </trkpt>
      <trkpt lat="42.52273" lon="2.06837">
        <ele>1817.1999511719</ele>
        <time>2023-07-19T04:36:13.000Z</time>
      </trkpt>
      <trkpt lat="42.52283" lon="2.06833">
        <ele>1817.1999511719</ele>
        <time>2023-07-19T04:36:20.000Z</time>
      </trkpt>
      <trkpt lat="42.52298" lon="2.06829">
        <ele>1817.4000244141</ele>
        <time>2023-07-19T04:36:31.000Z</time>
      </trkpt>
      <trkpt lat="42.52315" lon="2.06825">
        <ele>1816.8000488281</ele>
        <time>2023-07-19T04:36:45.000Z</time>
      </trkpt>
      <trkpt lat="42.52318" lon="2.06822">
        <ele>1816.5999755859</ele>
        <time>2023-07-19T04:36:52.000Z</time>
      </trkpt>
      <trkpt lat="42.52328" lon="2.06817">
        <ele>1816.1999511719</ele>
        <time>2023-07-19T04:37:01.000Z</time>
      </trkpt>
      <trkpt lat="42.52336" lon="2.06813">
        <ele>1815.8000488281</ele>
        <time>2023-07-19T04:37:05.000Z</time>
      </trkpt>
      <trkpt lat="42.52348" lon="2.06811">
        <ele>1815.1999511719</ele>
        <time>2023-07-19T04:37:14.000Z</time>
      </trkpt>
      <trkpt lat="42.52357" lon="2.06795">
        <ele>1814.8000488281</ele>
        <time>2023-07-19T04:37:26.000Z</time>
      </trkpt>
      <trkpt lat="42.52364" lon="2.06784">
        <ele>1814.8000488281</ele>
        <time>2023-07-19T04:37:35.000Z</time>
      </trkpt>
      <trkpt lat="42.52372" lon="2.06775">
        <ele>1814.4000244141</ele>
        <time>2023-07-19T04:37:42.000Z</time>
      </trkpt>
      <trkpt lat="42.52383" lon="2.06769">
        <ele>1814</ele>
        <time>2023-07-19T04:37:51.000Z</time>
      </trkpt>
      <trkpt lat="42.52387" lon="2.06761">
        <ele>1813.8000488281</ele>
        <time>2023-07-19T04:37:56.000Z</time>
      </trkpt>
      <trkpt lat="42.52402" lon="2.06746">
        <ele>1813.1999511719</ele>
        <time>2023-07-19T04:38:06.000Z</time>
      </trkpt>
      <trkpt lat="42.52406" lon="2.06738">
        <ele>1812.8000488281</ele>
        <time>2023-07-19T04:38:12.000Z</time>
      </trkpt>
      <trkpt lat="42.52408" lon="2.06737">
        <ele>1812.5999755859</ele>
        <time>2023-07-19T04:38:13.000Z</time>
      </trkpt>
      <trkpt lat="42.52415" lon="2.0673">
        <ele>1812.4000244141</ele>
        <time>2023-07-19T04:38:19.000Z</time>
      </trkpt>
      <trkpt lat="42.52425" lon="2.06723">
        <ele>1812.4000244141</ele>
        <time>2023-07-19T04:38:27.000Z</time>
      </trkpt>
      <trkpt lat="42.52432" lon="2.06717">
        <ele>1812</ele>
        <time>2023-07-19T04:38:33.000Z</time>
      </trkpt>
      <trkpt lat="42.52438" lon="2.06711">
        <ele>1811.5999755859</ele>
        <time>2023-07-19T04:38:38.000Z</time>
      </trkpt>
      <trkpt lat="42.52441" lon="2.06702">
        <ele>1811</ele>
        <time>2023-07-19T04:38:43.000Z</time>
      </trkpt>
      <trkpt lat="42.5245" lon="2.06689">
        <ele>1810.5999755859</ele>
        <time>2023-07-19T04:38:52.000Z</time>
      </trkpt>
      <trkpt lat="42.52451" lon="2.06688">
        <ele>1810.4000244141</ele>
        <time>2023-07-19T04:38:53.000Z</time>
      </trkpt>
      <trkpt lat="42.52454" lon="2.0668">
        <ele>1809.8000488281</ele>
        <time>2023-07-19T04:38:57.000Z</time>
      </trkpt>
      <trkpt lat="42.52462" lon="2.06674">
        <ele>1809.4000244141</ele>
        <time>2023-07-19T04:39:03.000Z</time>
      </trkpt>
      <trkpt lat="42.52463" lon="2.06673">
        <ele>1809.4000244141</ele>
        <time>2023-07-19T04:39:04.000Z</time>
      </trkpt>
      <trkpt lat="42.52471" lon="2.0666">
        <ele>1809</ele>
        <time>2023-07-19T04:39:15.000Z</time>
      </trkpt>
      <trkpt lat="42.5248" lon="2.06651">
        <ele>1808.8000488281</ele>
        <time>2023-07-19T04:39:21.000Z</time>
      </trkpt>
      <trkpt lat="42.52489" lon="2.06641">
        <ele>1808.8000488281</ele>
        <time>2023-07-19T04:39:31.000Z</time>
      </trkpt>
      <trkpt lat="42.52498" lon="2.06627">
        <ele>1809.1999511719</ele>
        <time>2023-07-19T04:39:42.000Z</time>
      </trkpt>
      <trkpt lat="42.52509" lon="2.06617">
        <ele>1809.4000244141</ele>
        <time>2023-07-19T04:39:51.000Z</time>
      </trkpt>
      <trkpt lat="42.52515" lon="2.06606">
        <ele>1809.5999755859</ele>
        <time>2023-07-19T04:39:59.000Z</time>
      </trkpt>
      <trkpt lat="42.52523" lon="2.06596">
        <ele>1809.5999755859</ele>
        <time>2023-07-19T04:40:06.000Z</time>
      </trkpt>
      <trkpt lat="42.52528" lon="2.06592">
        <ele>1809.8000488281</ele>
        <time>2023-07-19T04:40:14.000Z</time>
      </trkpt>
      <trkpt lat="42.52525" lon="2.06587">
        <ele>1810</ele>
        <time>2023-07-19T04:40:15.000Z</time>
      </trkpt>
      <trkpt lat="42.52525" lon="2.06581">
        <ele>1809.8000488281</ele>
        <time>2023-07-19T04:40:18.000Z</time>
      </trkpt>
      <trkpt lat="42.52532" lon="2.06572">
        <ele>1810</ele>
        <time>2023-07-19T04:40:26.000Z</time>
      </trkpt>
      <trkpt lat="42.52541" lon="2.06565">
        <ele>1810.4000244141</ele>
        <time>2023-07-19T04:40:34.000Z</time>
      </trkpt>
      <trkpt lat="42.52549" lon="2.06557">
        <ele>1810</ele>
        <time>2023-07-19T04:40:43.000Z</time>
      </trkpt>
      <trkpt lat="42.52555" lon="2.06548">
        <ele>1809.1999511719</ele>
        <time>2023-07-19T04:40:51.000Z</time>
      </trkpt>
      <trkpt lat="42.52556" lon="2.06548">
        <ele>1809.1999511719</ele>
        <time>2023-07-19T04:40:52.000Z</time>
      </trkpt>
      <trkpt lat="42.52565" lon="2.06523">
        <ele>1807.5999755859</ele>
        <time>2023-07-19T04:41:08.000Z</time>
      </trkpt>
      <trkpt lat="42.52567" lon="2.06519">
        <ele>1807.4000244141</ele>
        <time>2023-07-19T04:41:12.000Z</time>
      </trkpt>
      <trkpt lat="42.52567" lon="2.06514">
        <ele>1807.4000244141</ele>
        <time>2023-07-19T04:41:13.000Z</time>
      </trkpt>
      <trkpt lat="42.52567" lon="2.06513">
        <ele>1807.4000244141</ele>
        <time>2023-07-19T04:41:14.000Z</time>
      </trkpt>
      <trkpt lat="42.52567" lon="2.06512">
        <ele>1807.4000244141</ele>
        <time>2023-07-19T04:41:17.000Z</time>
      </trkpt>
      <trkpt lat="42.52566" lon="2.06512">
        <ele>1807.4000244141</ele>
        <time>2023-07-19T04:41:19.000Z</time>
      </trkpt>
      <trkpt lat="42.52566" lon="2.06504">
        <ele>1807.5999755859</ele>
        <time>2023-07-19T04:41:28.000Z</time>
      </trkpt>
      <trkpt lat="42.52565" lon="2.06492">
        <ele>1807.1999511719</ele>
        <time>2023-07-19T04:41:34.000Z</time>
      </trkpt>
      <trkpt lat="42.52566" lon="2.06489">
        <ele>1807.1999511719</ele>
        <time>2023-07-19T04:41:35.000Z</time>
      </trkpt>
      <trkpt lat="42.52568" lon="2.06482">
        <ele>1806.8000488281</ele>
        <time>2023-07-19T04:41:41.000Z</time>
      </trkpt>
      <trkpt lat="42.52572" lon="2.06475">
        <ele>1806.8000488281</ele>
        <time>2023-07-19T04:41:45.000Z</time>
      </trkpt>
      <trkpt lat="42.52577" lon="2.06462">
        <ele>1806.8000488281</ele>
        <time>2023-07-19T04:41:54.000Z</time>
      </trkpt>
      <trkpt lat="42.52585" lon="2.06446">
        <ele>1807</ele>
        <time>2023-07-19T04:42:05.000Z</time>
      </trkpt>
      <trkpt lat="42.52589" lon="2.06439">
        <ele>1806.8000488281</ele>
        <time>2023-07-19T04:42:11.000Z</time>
      </trkpt>
      <trkpt lat="42.526" lon="2.06427">
        <ele>1807</ele>
        <time>2023-07-19T04:42:22.000Z</time>
      </trkpt>
      <trkpt lat="42.52608" lon="2.06415">
        <ele>1806.1999511719</ele>
        <time>2023-07-19T04:42:32.000Z</time>
      </trkpt>
      <trkpt lat="42.52609" lon="2.06415">
        <ele>1806.1999511719</ele>
        <time>2023-07-19T04:42:33.000Z</time>
      </trkpt>
      <trkpt lat="42.52614" lon="2.06408">
        <ele>1805.5999755859</ele>
        <time>2023-07-19T04:42:38.000Z</time>
      </trkpt>
      <trkpt lat="42.52618" lon="2.06402">
        <ele>1805</ele>
        <time>2023-07-19T04:42:42.000Z</time>
      </trkpt>
      <trkpt lat="42.52622" lon="2.06394">
        <ele>1804.5999755859</ele>
        <time>2023-07-19T04:42:47.000Z</time>
      </trkpt>
      <trkpt lat="42.52628" lon="2.06383">
        <ele>1804</ele>
        <time>2023-07-19T04:42:55.000Z</time>
      </trkpt>
      <trkpt lat="42.52628" lon="2.06381">
        <ele>1803.8000488281</ele>
        <time>2023-07-19T04:42:56.000Z</time>
      </trkpt>
      <trkpt lat="42.52639" lon="2.06371">
        <ele>1803.1999511719</ele>
        <time>2023-07-19T04:43:05.000Z</time>
      </trkpt>
      <trkpt lat="42.52641" lon="2.06363">
        <ele>1803</ele>
        <time>2023-07-19T04:43:09.000Z</time>
      </trkpt>
      <trkpt lat="42.52643" lon="2.06361">
        <ele>1803</ele>
        <time>2023-07-19T04:43:11.000Z</time>
      </trkpt>
      <trkpt lat="42.52666" lon="2.06342">
        <ele>1802.8000488281</ele>
        <time>2023-07-19T04:43:27.000Z</time>
      </trkpt>
      <trkpt lat="42.52678" lon="2.06335">
        <ele>1802.5999755859</ele>
        <time>2023-07-19T04:43:37.000Z</time>
      </trkpt>
      <trkpt lat="42.52691" lon="2.0633">
        <ele>1802.1999511719</ele>
        <time>2023-07-19T04:43:45.000Z</time>
      </trkpt>
      <trkpt lat="42.52697" lon="2.06327">
        <ele>1802</ele>
        <time>2023-07-19T04:43:50.000Z</time>
      </trkpt>
      <trkpt lat="42.52704" lon="2.06322">
        <ele>1801.5999755859</ele>
        <time>2023-07-19T04:43:56.000Z</time>
      </trkpt>
      <trkpt lat="42.52719" lon="2.06312">
        <ele>1801.4000244141</ele>
        <time>2023-07-19T04:44:07.000Z</time>
      </trkpt>
      <trkpt lat="42.52736" lon="2.063">
        <ele>1801.4000244141</ele>
        <time>2023-07-19T04:44:20.000Z</time>
      </trkpt>
      <trkpt lat="42.52741" lon="2.06294">
        <ele>1801.8000488281</ele>
        <time>2023-07-19T04:44:26.000Z</time>
      </trkpt>
      <trkpt lat="42.52751" lon="2.06288">
        <ele>1802.1999511719</ele>
        <time>2023-07-19T04:44:33.000Z</time>
      </trkpt>
      <trkpt lat="42.52763" lon="2.06282">
        <ele>1802.1999511719</ele>
        <time>2023-07-19T04:44:43.000Z</time>
      </trkpt>
      <trkpt lat="42.52767" lon="2.06274">
        <ele>1802</ele>
        <time>2023-07-19T04:44:51.000Z</time>
      </trkpt>
      <trkpt lat="42.52777" lon="2.06265">
        <ele>1801.5999755859</ele>
        <time>2023-07-19T04:44:59.000Z</time>
      </trkpt>
      <trkpt lat="42.52785" lon="2.06255">
        <ele>1801</ele>
        <time>2023-07-19T04:45:06.000Z</time>
      </trkpt>
      <trkpt lat="42.52796" lon="2.06247">
        <ele>1800.5999755859</ele>
        <time>2023-07-19T04:45:12.000Z</time>
      </trkpt>
      <trkpt lat="42.52805" lon="2.06239">
        <ele>1800.5999755859</ele>
        <time>2023-07-19T04:45:19.000Z</time>
      </trkpt>
      <trkpt lat="42.52812" lon="2.0623">
        <ele>1800.4000244141</ele>
        <time>2023-07-19T04:45:27.000Z</time>
      </trkpt>
      <trkpt lat="42.5282" lon="2.06224">
        <ele>1799.8000488281</ele>
        <time>2023-07-19T04:45:35.000Z</time>
      </trkpt>
      <trkpt lat="42.5282" lon="2.06222">
        <ele>1799.8000488281</ele>
        <time>2023-07-19T04:45:36.000Z</time>
      </trkpt>
      <trkpt lat="42.52825" lon="2.06212">
        <ele>1799.4000244141</ele>
        <time>2023-07-19T04:45:42.000Z</time>
      </trkpt>
      <trkpt lat="42.52828" lon="2.06206">
        <ele>1798.8000488281</ele>
        <time>2023-07-19T04:45:48.000Z</time>
      </trkpt>
      <trkpt lat="42.52838" lon="2.06194">
        <ele>1798.4000244141</ele>
        <time>2023-07-19T04:45:55.000Z</time>
      </trkpt>
      <trkpt lat="42.52847" lon="2.06188">
        <ele>1797.8000488281</ele>
        <time>2023-07-19T04:46:02.000Z</time>
      </trkpt>
      <trkpt lat="42.52849" lon="2.06185">
        <ele>1797.5999755859</ele>
        <time>2023-07-19T04:46:04.000Z</time>
      </trkpt>
      <trkpt lat="42.52861" lon="2.0618">
        <ele>1796.8000488281</ele>
        <time>2023-07-19T04:46:13.000Z</time>
      </trkpt>
      <trkpt lat="42.52865" lon="2.06178">
        <ele>1796.4000244141</ele>
        <time>2023-07-19T04:46:16.000Z</time>
      </trkpt>
      <trkpt lat="42.52876" lon="2.06183">
        <ele>1796</ele>
        <time>2023-07-19T04:46:27.000Z</time>
      </trkpt>
      <trkpt lat="42.52883" lon="2.06187">
        <ele>1796.1999511719</ele>
        <time>2023-07-19T04:46:35.000Z</time>
      </trkpt>
      <trkpt lat="42.52888" lon="2.06189">
        <ele>1796</ele>
        <time>2023-07-19T04:46:43.000Z</time>
      </trkpt>
      <trkpt lat="42.52893" lon="2.06189">
        <ele>1795.8000488281</ele>
        <time>2023-07-19T04:46:47.000Z</time>
      </trkpt>
      <trkpt lat="42.52896" lon="2.06189">
        <ele>1795.8000488281</ele>
        <time>2023-07-19T04:46:49.000Z</time>
      </trkpt>
      <trkpt lat="42.52901" lon="2.06189">
        <ele>1795.5999755859</ele>
        <time>2023-07-19T04:46:51.000Z</time>
      </trkpt>
      <trkpt lat="42.52907" lon="2.06188">
        <ele>1795.4000244141</ele>
        <time>2023-07-19T04:46:54.000Z</time>
      </trkpt>
      <trkpt lat="42.52919" lon="2.06184">
        <ele>1794.5999755859</ele>
        <time>2023-07-19T04:47:01.000Z</time>
      </trkpt>
      <trkpt lat="42.52925" lon="2.06182">
        <ele>1794.4000244141</ele>
        <time>2023-07-19T04:47:08.000Z</time>
      </trkpt>
      <trkpt lat="42.52931" lon="2.06175">
        <ele>1794</ele>
        <time>2023-07-19T04:47:15.000Z</time>
      </trkpt>
      <trkpt lat="42.5294" lon="2.06169">
        <ele>1793</ele>
        <time>2023-07-19T04:47:24.000Z</time>
      </trkpt>
      <trkpt lat="42.52941" lon="2.06166">
        <ele>1792.4000244141</ele>
        <time>2023-07-19T04:47:27.000Z</time>
      </trkpt>
      <trkpt lat="42.52942" lon="2.0616">
        <ele>1792</ele>
        <time>2023-07-19T04:47:31.000Z</time>
      </trkpt>
      <trkpt lat="42.52946" lon="2.06154">
        <ele>1791.4000244141</ele>
        <time>2023-07-19T04:47:35.000Z</time>
      </trkpt>
      <trkpt lat="42.52952" lon="2.06149">
        <ele>1790.5999755859</ele>
        <time>2023-07-19T04:47:39.000Z</time>
      </trkpt>
      <trkpt lat="42.52955" lon="2.06147">
        <ele>1790.1999511719</ele>
        <time>2023-07-19T04:47:41.000Z</time>
      </trkpt>
      <trkpt lat="42.5296" lon="2.06142">
        <ele>1789.1999511719</ele>
        <time>2023-07-19T04:47:46.000Z</time>
      </trkpt>
      <trkpt lat="42.5296" lon="2.06141">
        <ele>1789.1999511719</ele>
        <time>2023-07-19T04:47:47.000Z</time>
      </trkpt>
      <trkpt lat="42.52966" lon="2.06136">
        <ele>1788.1999511719</ele>
        <time>2023-07-19T04:47:53.000Z</time>
      </trkpt>
      <trkpt lat="42.52969" lon="2.06131">
        <ele>1787.4000244141</ele>
        <time>2023-07-19T04:47:57.000Z</time>
      </trkpt>
      <trkpt lat="42.5297" lon="2.06127">
        <ele>1787.1999511719</ele>
        <time>2023-07-19T04:48:00.000Z</time>
      </trkpt>
      <trkpt lat="42.52973" lon="2.06118">
        <ele>1786.5999755859</ele>
        <time>2023-07-19T04:48:06.000Z</time>
      </trkpt>
      <trkpt lat="42.52979" lon="2.06109">
        <ele>1786.1999511719</ele>
        <time>2023-07-19T04:48:12.000Z</time>
      </trkpt>
      <trkpt lat="42.52981" lon="2.06107">
        <ele>1785.8000488281</ele>
        <time>2023-07-19T04:48:14.000Z</time>
      </trkpt>
      <trkpt lat="42.52983" lon="2.06098">
        <ele>1785.8000488281</ele>
        <time>2023-07-19T04:48:19.000Z</time>
      </trkpt>
      <trkpt lat="42.52985" lon="2.06093">
        <ele>1785.8000488281</ele>
        <time>2023-07-19T04:48:21.000Z</time>
      </trkpt>
      <trkpt lat="42.52992" lon="2.06084">
        <ele>1785.5999755859</ele>
        <time>2023-07-19T04:48:27.000Z</time>
      </trkpt>
      <trkpt lat="42.53" lon="2.06073">
        <ele>1785.5999755859</ele>
        <time>2023-07-19T04:48:35.000Z</time>
      </trkpt>
      <trkpt lat="42.53006" lon="2.06067">
        <ele>1785.8000488281</ele>
        <time>2023-07-19T04:48:42.000Z</time>
      </trkpt>
      <trkpt lat="42.53009" lon="2.06058">
        <ele>1786</ele>
        <time>2023-07-19T04:48:49.000Z</time>
      </trkpt>
      <trkpt lat="42.53009" lon="2.0605">
        <ele>1786.1999511719</ele>
        <time>2023-07-19T04:48:54.000Z</time>
      </trkpt>
      <trkpt lat="42.5301" lon="2.06044">
        <ele>1786.4000244141</ele>
        <time>2023-07-19T04:49:03.000Z</time>
      </trkpt>
      <trkpt lat="42.53015" lon="2.06036">
        <ele>1786.5999755859</ele>
        <time>2023-07-19T04:49:12.000Z</time>
      </trkpt>
      <trkpt lat="42.53021" lon="2.06027">
        <ele>1787</ele>
        <time>2023-07-19T04:49:21.000Z</time>
      </trkpt>
      <trkpt lat="42.53023" lon="2.06024">
        <ele>1787.1999511719</ele>
        <time>2023-07-19T04:49:24.000Z</time>
      </trkpt>
      <trkpt lat="42.53025" lon="2.06021">
        <ele>1787.1999511719</ele>
        <time>2023-07-19T04:49:27.000Z</time>
      </trkpt>
      <trkpt lat="42.53032" lon="2.06011">
        <ele>1787</ele>
        <time>2023-07-19T04:49:35.000Z</time>
      </trkpt>
      <trkpt lat="42.53032" lon="2.05994">
        <ele>1787</ele>
        <time>2023-07-19T04:49:39.000Z</time>
      </trkpt>
      <trkpt lat="42.5303" lon="2.05982">
        <ele>1787.5999755859</ele>
        <time>2023-07-19T04:49:45.000Z</time>
      </trkpt>
      <trkpt lat="42.53034" lon="2.05978">
        <ele>1787.5999755859</ele>
        <time>2023-07-19T04:49:51.000Z</time>
      </trkpt>
      <trkpt lat="42.5304" lon="2.05971">
        <ele>1788</ele>
        <time>2023-07-19T04:49:58.000Z</time>
      </trkpt>
      <trkpt lat="42.53044" lon="2.05969">
        <ele>1788.1999511719</ele>
        <time>2023-07-19T04:50:01.000Z</time>
      </trkpt>
      <trkpt lat="42.53048" lon="2.05966">
        <ele>1788.8000488281</ele>
        <time>2023-07-19T04:50:05.000Z</time>
      </trkpt>
      <trkpt lat="42.53051" lon="2.05964">
        <ele>1789.1999511719</ele>
        <time>2023-07-19T04:50:08.000Z</time>
      </trkpt>
      <trkpt lat="42.53055" lon="2.05962">
        <ele>1789.8000488281</ele>
        <time>2023-07-19T04:50:12.000Z</time>
      </trkpt>
      <trkpt lat="42.53059" lon="2.05961">
        <ele>1790.1999511719</ele>
        <time>2023-07-19T04:50:15.000Z</time>
      </trkpt>
      <trkpt lat="42.53062" lon="2.05959">
        <ele>1790.5999755859</ele>
        <time>2023-07-19T04:50:18.000Z</time>
      </trkpt>
      <trkpt lat="42.53066" lon="2.05956">
        <ele>1791.1999511719</ele>
        <time>2023-07-19T04:50:22.000Z</time>
      </trkpt>
      <trkpt lat="42.53069" lon="2.05953">
        <ele>1791.8000488281</ele>
        <time>2023-07-19T04:50:26.000Z</time>
      </trkpt>
      <trkpt lat="42.53071" lon="2.0595">
        <ele>1792.1999511719</ele>
        <time>2023-07-19T04:50:29.000Z</time>
      </trkpt>
      <trkpt lat="42.53074" lon="2.05945">
        <ele>1793.1999511719</ele>
        <time>2023-07-19T04:50:35.000Z</time>
      </trkpt>
      <trkpt lat="42.53075" lon="2.05945">
        <ele>1793.4000244141</ele>
        <time>2023-07-19T04:50:36.000Z</time>
      </trkpt>
      <trkpt lat="42.53077" lon="2.0594">
        <ele>1794.5999755859</ele>
        <time>2023-07-19T04:50:42.000Z</time>
      </trkpt>
      <trkpt lat="42.53079" lon="2.05937">
        <ele>1795</ele>
        <time>2023-07-19T04:50:45.000Z</time>
      </trkpt>
      <trkpt lat="42.53081" lon="2.05931">
        <ele>1795.5999755859</ele>
        <time>2023-07-19T04:50:49.000Z</time>
      </trkpt>
      <trkpt lat="42.53085" lon="2.05926">
        <ele>1796</ele>
        <time>2023-07-19T04:50:53.000Z</time>
      </trkpt>
      <trkpt lat="42.5309" lon="2.05922">
        <ele>1796.4000244141</ele>
        <time>2023-07-19T04:50:58.000Z</time>
      </trkpt>
      <trkpt lat="42.53092" lon="2.05921">
        <ele>1796.5999755859</ele>
        <time>2023-07-19T04:51:00.000Z</time>
      </trkpt>
      <trkpt lat="42.53095" lon="2.05918">
        <ele>1796.8000488281</ele>
        <time>2023-07-19T04:51:03.000Z</time>
      </trkpt>
      <trkpt lat="42.53104" lon="2.05911">
        <ele>1797.5999755859</ele>
        <time>2023-07-19T04:51:10.000Z</time>
      </trkpt>
      <trkpt lat="42.53105" lon="2.0591">
        <ele>1797.5999755859</ele>
        <time>2023-07-19T04:51:11.000Z</time>
      </trkpt>
      <trkpt lat="42.53111" lon="2.05903">
        <ele>1797.5999755859</ele>
        <time>2023-07-19T04:51:17.000Z</time>
      </trkpt>
      <trkpt lat="42.53122" lon="2.05898">
        <ele>1797.4000244141</ele>
        <time>2023-07-19T04:51:25.000Z</time>
      </trkpt>
      <trkpt lat="42.53137" lon="2.05894">
        <ele>1797.4000244141</ele>
        <time>2023-07-19T04:51:35.000Z</time>
      </trkpt>
      <trkpt lat="42.53148" lon="2.0589">
        <ele>1797.1999511719</ele>
        <time>2023-07-19T04:51:43.000Z</time>
      </trkpt>
      <trkpt lat="42.53159" lon="2.05884">
        <ele>1797.4000244141</ele>
        <time>2023-07-19T04:51:51.000Z</time>
      </trkpt>
      <trkpt lat="42.53168" lon="2.0588">
        <ele>1798</ele>
        <time>2023-07-19T04:51:59.000Z</time>
      </trkpt>
      <trkpt lat="42.53175" lon="2.0588">
        <ele>1798.4000244141</ele>
        <time>2023-07-19T04:52:07.000Z</time>
      </trkpt>
      <trkpt lat="42.53183" lon="2.05878">
        <ele>1798.8000488281</ele>
        <time>2023-07-19T04:52:14.000Z</time>
      </trkpt>
      <trkpt lat="42.53185" lon="2.05877">
        <ele>1799</ele>
        <time>2023-07-19T04:52:16.000Z</time>
      </trkpt>
      <trkpt lat="42.53194" lon="2.0587">
        <ele>1799.4000244141</ele>
        <time>2023-07-19T04:52:22.000Z</time>
      </trkpt>
      <trkpt lat="42.53201" lon="2.05868">
        <ele>1799.1999511719</ele>
        <time>2023-07-19T04:52:29.000Z</time>
      </trkpt>
      <trkpt lat="42.53212" lon="2.05872">
        <ele>1799.1999511719</ele>
        <time>2023-07-19T04:52:36.000Z</time>
      </trkpt>
      <trkpt lat="42.53224" lon="2.05868">
        <ele>1799</ele>
        <time>2023-07-19T04:52:45.000Z</time>
      </trkpt>
      <trkpt lat="42.53232" lon="2.05864">
        <ele>1799</ele>
        <time>2023-07-19T04:52:53.000Z</time>
      </trkpt>
      <trkpt lat="42.53244" lon="2.05861">
        <ele>1798.1999511719</ele>
        <time>2023-07-19T04:53:01.000Z</time>
      </trkpt>
      <trkpt lat="42.53255" lon="2.05859">
        <ele>1798</ele>
        <time>2023-07-19T04:53:08.000Z</time>
      </trkpt>
      <trkpt lat="42.53257" lon="2.05857">
        <ele>1797.8000488281</ele>
        <time>2023-07-19T04:53:10.000Z</time>
      </trkpt>
      <trkpt lat="42.53262" lon="2.05852">
        <ele>1797.4000244141</ele>
        <time>2023-07-19T04:53:15.000Z</time>
      </trkpt>
      <trkpt lat="42.53273" lon="2.05844">
        <ele>1796.8000488281</ele>
        <time>2023-07-19T04:53:23.000Z</time>
      </trkpt>
      <trkpt lat="42.53276" lon="2.05841">
        <ele>1796.5999755859</ele>
        <time>2023-07-19T04:53:25.000Z</time>
      </trkpt>
      <trkpt lat="42.53284" lon="2.05833">
        <ele>1795.5999755859</ele>
        <time>2023-07-19T04:53:33.000Z</time>
      </trkpt>
      <trkpt lat="42.53289" lon="2.05826">
        <ele>1795.4000244141</ele>
        <time>2023-07-19T04:53:39.000Z</time>
      </trkpt>
      <trkpt lat="42.53297" lon="2.05819">
        <ele>1794.8000488281</ele>
        <time>2023-07-19T04:53:45.000Z</time>
      </trkpt>
      <trkpt lat="42.53298" lon="2.05816">
        <ele>1794.4000244141</ele>
        <time>2023-07-19T04:53:48.000Z</time>
      </trkpt>
      <trkpt lat="42.53303" lon="2.05812">
        <ele>1794.1999511719</ele>
        <time>2023-07-19T04:53:52.000Z</time>
      </trkpt>
      <trkpt lat="42.53311" lon="2.05805">
        <ele>1793.8000488281</ele>
        <time>2023-07-19T04:53:59.000Z</time>
      </trkpt>
      <trkpt lat="42.5332" lon="2.05797">
        <ele>1793.4000244141</ele>
        <time>2023-07-19T04:54:08.000Z</time>
      </trkpt>
      <trkpt lat="42.53321" lon="2.05795">
        <ele>1793.4000244141</ele>
        <time>2023-07-19T04:54:09.000Z</time>
      </trkpt>
      <trkpt lat="42.53326" lon="2.0579">
        <ele>1793.1999511719</ele>
        <time>2023-07-19T04:54:14.000Z</time>
      </trkpt>
      <trkpt lat="42.53333" lon="2.05784">
        <ele>1792.5999755859</ele>
        <time>2023-07-19T04:54:20.000Z</time>
      </trkpt>
      <trkpt lat="42.53342" lon="2.05779">
        <ele>1792.4000244141</ele>
        <time>2023-07-19T04:54:27.000Z</time>
      </trkpt>
      <trkpt lat="42.53356" lon="2.0577">
        <ele>1792.4000244141</ele>
        <time>2023-07-19T04:54:38.000Z</time>
      </trkpt>
      <trkpt lat="42.53377" lon="2.05764">
        <ele>1792.1999511719</ele>
        <time>2023-07-19T04:54:53.000Z</time>
      </trkpt>
      <trkpt lat="42.53387" lon="2.0576">
        <ele>1792</ele>
        <time>2023-07-19T04:55:00.000Z</time>
      </trkpt>
      <trkpt lat="42.53404" lon="2.05756">
        <ele>1791.4000244141</ele>
        <time>2023-07-19T04:55:13.000Z</time>
      </trkpt>
      <trkpt lat="42.53404" lon="2.05754">
        <ele>1791.4000244141</ele>
        <time>2023-07-19T04:55:14.000Z</time>
      </trkpt>
      <trkpt lat="42.53417" lon="2.05748">
        <ele>1790.5999755859</ele>
        <time>2023-07-19T04:55:25.000Z</time>
      </trkpt>
      <trkpt lat="42.53427" lon="2.05742">
        <ele>1790.4000244141</ele>
        <time>2023-07-19T04:55:33.000Z</time>
      </trkpt>
      <trkpt lat="42.53431" lon="2.05739">
        <ele>1790.1999511719</ele>
        <time>2023-07-19T04:55:37.000Z</time>
      </trkpt>
      <trkpt lat="42.53438" lon="2.05734">
        <ele>1789.1999511719</ele>
        <time>2023-07-19T04:55:42.000Z</time>
      </trkpt>
      <trkpt lat="42.53443" lon="2.05726">
        <ele>1788</ele>
        <time>2023-07-19T04:55:49.000Z</time>
      </trkpt>
      <trkpt lat="42.53451" lon="2.0572">
        <ele>1787</ele>
        <time>2023-07-19T04:55:55.000Z</time>
      </trkpt>
      <trkpt lat="42.53452" lon="2.05719">
        <ele>1786.8000488281</ele>
        <time>2023-07-19T04:55:56.000Z</time>
      </trkpt>
      <trkpt lat="42.53461" lon="2.05715">
        <ele>1785.8000488281</ele>
        <time>2023-07-19T04:56:03.000Z</time>
      </trkpt>
      <trkpt lat="42.53465" lon="2.05712">
        <ele>1785.4000244141</ele>
        <time>2023-07-19T04:56:06.000Z</time>
      </trkpt>
      <trkpt lat="42.53469" lon="2.0571">
        <ele>1784.8000488281</ele>
        <time>2023-07-19T04:56:09.000Z</time>
      </trkpt>
      <trkpt lat="42.53472" lon="2.05704">
        <ele>1783.8000488281</ele>
        <time>2023-07-19T04:56:15.000Z</time>
      </trkpt>
      <trkpt lat="42.53476" lon="2.05697">
        <ele>1782.5999755859</ele>
        <time>2023-07-19T04:56:21.000Z</time>
      </trkpt>
      <trkpt lat="42.53477" lon="2.05697">
        <ele>1782.4000244141</ele>
        <time>2023-07-19T04:56:22.000Z</time>
      </trkpt>
      <trkpt lat="42.5348" lon="2.05693">
        <ele>1781.4000244141</ele>
        <time>2023-07-19T04:56:26.000Z</time>
      </trkpt>
      <trkpt lat="42.53483" lon="2.0569">
        <ele>1780.1999511719</ele>
        <time>2023-07-19T04:56:30.000Z</time>
      </trkpt>
      <trkpt lat="42.53484" lon="2.05689">
        <ele>1780</ele>
        <time>2023-07-19T04:56:31.000Z</time>
      </trkpt>
      <trkpt lat="42.53488" lon="2.05685">
        <ele>1779.1999511719</ele>
        <time>2023-07-19T04:56:35.000Z</time>
      </trkpt>
      <trkpt lat="42.53489" lon="2.05682">
        <ele>1778.5999755859</ele>
        <time>2023-07-19T04:56:37.000Z</time>
      </trkpt>
      <trkpt lat="42.53489" lon="2.05679">
        <ele>1778.5999755859</ele>
        <time>2023-07-19T04:56:38.000Z</time>
      </trkpt>
      <trkpt lat="42.53493" lon="2.05671">
        <ele>1778.1999511719</ele>
        <time>2023-07-19T04:56:42.000Z</time>
      </trkpt>
      <trkpt lat="42.53494" lon="2.05666">
        <ele>1778</ele>
        <time>2023-07-19T04:56:44.000Z</time>
      </trkpt>
      <trkpt lat="42.53495" lon="2.05659">
        <ele>1777.5999755859</ele>
        <time>2023-07-19T04:56:51.000Z</time>
      </trkpt>
      <trkpt lat="42.53497" lon="2.05654">
        <ele>1777</ele>
        <time>2023-07-19T04:56:55.000Z</time>
      </trkpt>
      <trkpt lat="42.53498" lon="2.05646">
        <ele>1776.4000244141</ele>
        <time>2023-07-19T04:57:00.000Z</time>
      </trkpt>
      <trkpt lat="42.53494" lon="2.05639">
        <ele>1776</ele>
        <time>2023-07-19T04:57:03.000Z</time>
      </trkpt>
      <trkpt lat="42.53493" lon="2.05637">
        <ele>1775.8000488281</ele>
        <time>2023-07-19T04:57:04.000Z</time>
      </trkpt>
      <trkpt lat="42.53494" lon="2.0563">
        <ele>1775.5999755859</ele>
        <time>2023-07-19T04:57:07.000Z</time>
      </trkpt>
      <trkpt lat="42.53495" lon="2.05618">
        <ele>1775</ele>
        <time>2023-07-19T04:57:14.000Z</time>
      </trkpt>
      <trkpt lat="42.535" lon="2.056">
        <ele>1773.8000488281</ele>
        <time>2023-07-19T04:57:22.000Z</time>
      </trkpt>
      <trkpt lat="42.53504" lon="2.05588">
        <ele>1773</ele>
        <time>2023-07-19T04:57:30.000Z</time>
      </trkpt>
      <trkpt lat="42.53509" lon="2.05579">
        <ele>1772.8000488281</ele>
        <time>2023-07-19T04:57:36.000Z</time>
      </trkpt>
      <trkpt lat="42.53512" lon="2.05573">
        <ele>1771.8000488281</ele>
        <time>2023-07-19T04:57:41.000Z</time>
      </trkpt>
      <trkpt lat="42.53518" lon="2.05567">
        <ele>1771.1999511719</ele>
        <time>2023-07-19T04:57:46.000Z</time>
      </trkpt>
      <trkpt lat="42.5352" lon="2.05565">
        <ele>1770.8000488281</ele>
        <time>2023-07-19T04:57:48.000Z</time>
      </trkpt>
      <trkpt lat="42.5352" lon="2.05563">
        <ele>1770</ele>
        <time>2023-07-19T04:57:52.000Z</time>
      </trkpt>
      <trkpt lat="42.53522" lon="2.0556">
        <ele>1769.5999755859</ele>
        <time>2023-07-19T04:57:55.000Z</time>
      </trkpt>
      <trkpt lat="42.53527" lon="2.05558">
        <ele>1769</ele>
        <time>2023-07-19T04:57:58.000Z</time>
      </trkpt>
      <trkpt lat="42.53532" lon="2.05555">
        <ele>1768.5999755859</ele>
        <time>2023-07-19T04:58:02.000Z</time>
      </trkpt>
      <trkpt lat="42.53544" lon="2.05547">
        <ele>1767.5999755859</ele>
        <time>2023-07-19T04:58:11.000Z</time>
      </trkpt>
      <trkpt lat="42.53545" lon="2.05546">
        <ele>1767.5999755859</ele>
        <time>2023-07-19T04:58:12.000Z</time>
      </trkpt>
      <trkpt lat="42.53559" lon="2.05536">
        <ele>1766.8000488281</ele>
        <time>2023-07-19T04:58:24.000Z</time>
      </trkpt>
      <trkpt lat="42.53574" lon="2.05518">
        <ele>1766.8000488281</ele>
        <time>2023-07-19T04:58:37.000Z</time>
      </trkpt>
      <trkpt lat="42.53583" lon="2.05503">
        <ele>1766.5999755859</ele>
        <time>2023-07-19T04:58:47.000Z</time>
      </trkpt>
      <trkpt lat="42.53584" lon="2.05493">
        <ele>1766.5999755859</ele>
        <time>2023-07-19T04:58:51.000Z</time>
      </trkpt>
      <trkpt lat="42.53592" lon="2.05472">
        <ele>1766.1999511719</ele>
        <time>2023-07-19T04:59:05.000Z</time>
      </trkpt>
      <trkpt lat="42.53596" lon="2.05456">
        <ele>1766</ele>
        <time>2023-07-19T04:59:11.000Z</time>
      </trkpt>
      <trkpt lat="42.536" lon="2.05442">
        <ele>1765.5999755859</ele>
        <time>2023-07-19T04:59:20.000Z</time>
      </trkpt>
      <trkpt lat="42.53599" lon="2.05437">
        <ele>1765.4000244141</ele>
        <time>2023-07-19T04:59:22.000Z</time>
      </trkpt>
      <trkpt lat="42.53597" lon="2.05425">
        <ele>1765.1999511719</ele>
        <time>2023-07-19T04:59:28.000Z</time>
      </trkpt>
      <trkpt lat="42.53602" lon="2.05409">
        <ele>1764.8000488281</ele>
        <time>2023-07-19T04:59:36.000Z</time>
      </trkpt>
      <trkpt lat="42.53607" lon="2.05395">
        <ele>1764.5999755859</ele>
        <time>2023-07-19T04:59:45.000Z</time>
      </trkpt>
      <trkpt lat="42.53607" lon="2.05394">
        <ele>1764.4000244141</ele>
        <time>2023-07-19T04:59:46.000Z</time>
      </trkpt>
      <trkpt lat="42.53608" lon="2.05382">
        <ele>1764.4000244141</ele>
        <time>2023-07-19T04:59:54.000Z</time>
      </trkpt>
      <trkpt lat="42.53608" lon="2.05368">
        <ele>1763.8000488281</ele>
        <time>2023-07-19T05:00:01.000Z</time>
      </trkpt>
      <trkpt lat="42.5361" lon="2.05361">
        <ele>1763.8000488281</ele>
        <time>2023-07-19T05:00:03.000Z</time>
      </trkpt>
      <trkpt lat="42.53616" lon="2.05349">
        <ele>1763.5999755859</ele>
        <time>2023-07-19T05:00:09.000Z</time>
      </trkpt>
      <trkpt lat="42.53616" lon="2.05348">
        <ele>1763.4000244141</ele>
        <time>2023-07-19T05:00:10.000Z</time>
      </trkpt>
      <trkpt lat="42.53618" lon="2.05338">
        <ele>1762.5999755859</ele>
        <time>2023-07-19T05:00:17.000Z</time>
      </trkpt>
      <trkpt lat="42.53619" lon="2.05333">
        <ele>1762.4000244141</ele>
        <time>2023-07-19T05:00:20.000Z</time>
      </trkpt>
      <trkpt lat="42.53631" lon="2.05313">
        <ele>1762</ele>
        <time>2023-07-19T05:00:32.000Z</time>
      </trkpt>
      <trkpt lat="42.53642" lon="2.05297">
        <ele>1762</ele>
        <time>2023-07-19T05:00:46.000Z</time>
      </trkpt>
      <trkpt lat="42.53644" lon="2.05288">
        <ele>1762</ele>
        <time>2023-07-19T05:00:50.000Z</time>
      </trkpt>
      <trkpt lat="42.53649" lon="2.05274">
        <ele>1761.5999755859</ele>
        <time>2023-07-19T05:00:57.000Z</time>
      </trkpt>
      <trkpt lat="42.53653" lon="2.05267">
        <ele>1761.4000244141</ele>
        <time>2023-07-19T05:01:01.000Z</time>
      </trkpt>
      <trkpt lat="42.53655" lon="2.05263">
        <ele>1761.1999511719</ele>
        <time>2023-07-19T05:01:04.000Z</time>
      </trkpt>
      <trkpt lat="42.53662" lon="2.05255">
        <ele>1760.5999755859</ele>
        <time>2023-07-19T05:01:11.000Z</time>
      </trkpt>
      <trkpt lat="42.53666" lon="2.0525">
        <ele>1760.1999511719</ele>
        <time>2023-07-19T05:01:16.000Z</time>
      </trkpt>
      <trkpt lat="42.53667" lon="2.0524">
        <ele>1759.1999511719</ele>
        <time>2023-07-19T05:01:21.000Z</time>
      </trkpt>
      <trkpt lat="42.53668" lon="2.05239">
        <ele>1759.1999511719</ele>
        <time>2023-07-19T05:01:22.000Z</time>
      </trkpt>
      <trkpt lat="42.5367" lon="2.05228">
        <ele>1758.1999511719</ele>
        <time>2023-07-19T05:01:28.000Z</time>
      </trkpt>
      <trkpt lat="42.53671" lon="2.05227">
        <ele>1758</ele>
        <time>2023-07-19T05:01:29.000Z</time>
      </trkpt>
      <trkpt lat="42.53676" lon="2.05224">
        <ele>1757</ele>
        <time>2023-07-19T05:01:33.000Z</time>
      </trkpt>
      <trkpt lat="42.53677" lon="2.05221">
        <ele>1756.5999755859</ele>
        <time>2023-07-19T05:01:35.000Z</time>
      </trkpt>
      <trkpt lat="42.53679" lon="2.05217">
        <ele>1755.8000488281</ele>
        <time>2023-07-19T05:01:38.000Z</time>
      </trkpt>
      <trkpt lat="42.53683" lon="2.05206">
        <ele>1754.8000488281</ele>
        <time>2023-07-19T05:01:43.000Z</time>
      </trkpt>
      <trkpt lat="42.53684" lon="2.05204">
        <ele>1754.5999755859</ele>
        <time>2023-07-19T05:01:44.000Z</time>
      </trkpt>
      <trkpt lat="42.53687" lon="2.0519">
        <ele>1754.1999511719</ele>
        <time>2023-07-19T05:01:49.000Z</time>
      </trkpt>
      <trkpt lat="42.53688" lon="2.05178">
        <ele>1753.5999755859</ele>
        <time>2023-07-19T05:01:53.000Z</time>
      </trkpt>
      <trkpt lat="42.53691" lon="2.05168">
        <ele>1753</ele>
        <time>2023-07-19T05:01:57.000Z</time>
      </trkpt>
      <trkpt lat="42.537" lon="2.05151">
        <ele>1752.5999755859</ele>
        <time>2023-07-19T05:02:07.000Z</time>
      </trkpt>
      <trkpt lat="42.53704" lon="2.05148">
        <ele>1752.5999755859</ele>
        <time>2023-07-19T05:02:10.000Z</time>
      </trkpt>
      <trkpt lat="42.53706" lon="2.05145">
        <ele>1752.4000244141</ele>
        <time>2023-07-19T05:02:13.000Z</time>
      </trkpt>
      <trkpt lat="42.53715" lon="2.05138">
        <ele>1751.8000488281</ele>
        <time>2023-07-19T05:02:22.000Z</time>
      </trkpt>
      <trkpt lat="42.53718" lon="2.05135">
        <ele>1751.1999511719</ele>
        <time>2023-07-19T05:02:24.000Z</time>
      </trkpt>
      <trkpt lat="42.53726" lon="2.05129">
        <ele>1750.1999511719</ele>
        <time>2023-07-19T05:02:32.000Z</time>
      </trkpt>
      <trkpt lat="42.53728" lon="2.05128">
        <ele>1750.1999511719</ele>
        <time>2023-07-19T05:02:33.000Z</time>
      </trkpt>
      <trkpt lat="42.53735" lon="2.05119">
        <ele>1749</ele>
        <time>2023-07-19T05:02:39.000Z</time>
      </trkpt>
      <trkpt lat="42.53738" lon="2.05116">
        <ele>1748.8000488281</ele>
        <time>2023-07-19T05:02:41.000Z</time>
      </trkpt>
      <trkpt lat="42.5374" lon="2.05111">
        <ele>1748</ele>
        <time>2023-07-19T05:02:45.000Z</time>
      </trkpt>
      <trkpt lat="42.53743" lon="2.05106">
        <ele>1747</ele>
        <time>2023-07-19T05:02:49.000Z</time>
      </trkpt>
      <trkpt lat="42.53744" lon="2.05105">
        <ele>1746.8000488281</ele>
        <time>2023-07-19T05:02:50.000Z</time>
      </trkpt>
      <trkpt lat="42.53748" lon="2.05097">
        <ele>1745.8000488281</ele>
        <time>2023-07-19T05:02:56.000Z</time>
      </trkpt>
      <trkpt lat="42.53751" lon="2.05093">
        <ele>1745.1999511719</ele>
        <time>2023-07-19T05:02:59.000Z</time>
      </trkpt>
      <trkpt lat="42.53754" lon="2.05089">
        <ele>1744.8000488281</ele>
        <time>2023-07-19T05:03:02.000Z</time>
      </trkpt>
      <trkpt lat="42.53761" lon="2.05079">
        <ele>1743.8000488281</ele>
        <time>2023-07-19T05:03:08.000Z</time>
      </trkpt>
      <trkpt lat="42.53763" lon="2.05078">
        <ele>1743.5999755859</ele>
        <time>2023-07-19T05:03:09.000Z</time>
      </trkpt>
      <trkpt lat="42.53771" lon="2.05068">
        <ele>1743</ele>
        <time>2023-07-19T05:03:16.000Z</time>
      </trkpt>
      <trkpt lat="42.53776" lon="2.05065">
        <ele>1742.5999755859</ele>
        <time>2023-07-19T05:03:21.000Z</time>
      </trkpt>
      <trkpt lat="42.53779" lon="2.05063">
        <ele>1742.1999511719</ele>
        <time>2023-07-19T05:03:25.000Z</time>
      </trkpt>
      <trkpt lat="42.53788" lon="2.05055">
        <ele>1742</ele>
        <time>2023-07-19T05:03:33.000Z</time>
      </trkpt>
      <trkpt lat="42.53797" lon="2.05041">
        <ele>1742</ele>
        <time>2023-07-19T05:03:41.000Z</time>
      </trkpt>
      <trkpt lat="42.53806" lon="2.0503">
        <ele>1742.1999511719</ele>
        <time>2023-07-19T05:03:50.000Z</time>
      </trkpt>
      <trkpt lat="42.53813" lon="2.05025">
        <ele>1742.5999755859</ele>
        <time>2023-07-19T05:03:59.000Z</time>
      </trkpt>
      <trkpt lat="42.53822" lon="2.05017">
        <ele>1742.5999755859</ele>
        <time>2023-07-19T05:04:07.000Z</time>
      </trkpt>
      <trkpt lat="42.53831" lon="2.05011">
        <ele>1742.5999755859</ele>
        <time>2023-07-19T05:04:15.000Z</time>
      </trkpt>
      <trkpt lat="42.53837" lon="2.05008">
        <ele>1742.8000488281</ele>
        <time>2023-07-19T05:04:22.000Z</time>
      </trkpt>
      <trkpt lat="42.53845" lon="2.05001">
        <ele>1743</ele>
        <time>2023-07-19T05:04:29.000Z</time>
      </trkpt>
      <trkpt lat="42.53852" lon="2.04991">
        <ele>1742.4000244141</ele>
        <time>2023-07-19T05:04:36.000Z</time>
      </trkpt>
      <trkpt lat="42.53856" lon="2.04981">
        <ele>1741.8000488281</ele>
        <time>2023-07-19T05:04:43.000Z</time>
      </trkpt>
      <trkpt lat="42.53858" lon="2.04978">
        <ele>1741.4000244141</ele>
        <time>2023-07-19T05:04:46.000Z</time>
      </trkpt>
      <trkpt lat="42.53857" lon="2.04978">
        <ele>1741.1999511719</ele>
        <time>2023-07-19T05:04:49.000Z</time>
      </trkpt>
      <trkpt lat="42.53857" lon="2.04979">
        <ele>1741.1999511719</ele>
        <time>2023-07-19T05:04:50.000Z</time>
      </trkpt>
      <trkpt lat="42.53857" lon="2.0498">
        <ele>1741.1999511719</ele>
        <time>2023-07-19T05:04:55.000Z</time>
      </trkpt>
      <trkpt lat="42.5386" lon="2.04979">
        <ele>1741</ele>
        <time>2023-07-19T05:04:59.000Z</time>
      </trkpt>
      <trkpt lat="42.53866" lon="2.04968">
        <ele>1740.5999755859</ele>
        <time>2023-07-19T05:05:06.000Z</time>
      </trkpt>
      <trkpt lat="42.53867" lon="2.04966">
        <ele>1740.4000244141</ele>
        <time>2023-07-19T05:05:07.000Z</time>
      </trkpt>
      <trkpt lat="42.5387" lon="2.04955">
        <ele>1739.5999755859</ele>
        <time>2023-07-19T05:05:13.000Z</time>
      </trkpt>
      <trkpt lat="42.5387" lon="2.0495">
        <ele>1739.1999511719</ele>
        <time>2023-07-19T05:05:15.000Z</time>
      </trkpt>
      <trkpt lat="42.53872" lon="2.04931">
        <ele>1738.8000488281</ele>
        <time>2023-07-19T05:05:23.000Z</time>
      </trkpt>
      <trkpt lat="42.53877" lon="2.04916">
        <ele>1738.4000244141</ele>
        <time>2023-07-19T05:05:31.000Z</time>
      </trkpt>
      <trkpt lat="42.53881" lon="2.04901">
        <ele>1738.1999511719</ele>
        <time>2023-07-19T05:05:38.000Z</time>
      </trkpt>
      <trkpt lat="42.53882" lon="2.04899">
        <ele>1738.1999511719</ele>
        <time>2023-07-19T05:05:39.000Z</time>
      </trkpt>
      <trkpt lat="42.53887" lon="2.04882">
        <ele>1738.1999511719</ele>
        <time>2023-07-19T05:05:49.000Z</time>
      </trkpt>
      <trkpt lat="42.53892" lon="2.04867">
        <ele>1738.1999511719</ele>
        <time>2023-07-19T05:05:57.000Z</time>
      </trkpt>
      <trkpt lat="42.53898" lon="2.04852">
        <ele>1738.1999511719</ele>
        <time>2023-07-19T05:06:06.000Z</time>
      </trkpt>
      <trkpt lat="42.53907" lon="2.04842">
        <ele>1738.1999511719</ele>
        <time>2023-07-19T05:06:15.000Z</time>
      </trkpt>
      <trkpt lat="42.53916" lon="2.04836">
        <ele>1738.4000244141</ele>
        <time>2023-07-19T05:06:23.000Z</time>
      </trkpt>
      <trkpt lat="42.53925" lon="2.0483">
        <ele>1738.4000244141</ele>
        <time>2023-07-19T05:06:30.000Z</time>
      </trkpt>
      <trkpt lat="42.53934" lon="2.04818">
        <ele>1738.8000488281</ele>
        <time>2023-07-19T05:06:39.000Z</time>
      </trkpt>
      <trkpt lat="42.5394" lon="2.04809">
        <ele>1739</ele>
        <time>2023-07-19T05:06:46.000Z</time>
      </trkpt>
      <trkpt lat="42.53948" lon="2.04801">
        <ele>1739</ele>
        <time>2023-07-19T05:06:53.000Z</time>
      </trkpt>
      <trkpt lat="42.53957" lon="2.04791">
        <ele>1739</ele>
        <time>2023-07-19T05:07:02.000Z</time>
      </trkpt>
      <trkpt lat="42.53967" lon="2.04785">
        <ele>1739.1999511719</ele>
        <time>2023-07-19T05:07:09.000Z</time>
      </trkpt>
      <trkpt lat="42.53973" lon="2.0478">
        <ele>1739.1999511719</ele>
        <time>2023-07-19T05:07:15.000Z</time>
      </trkpt>
      <trkpt lat="42.53982" lon="2.04772">
        <ele>1739.1999511719</ele>
        <time>2023-07-19T05:07:24.000Z</time>
      </trkpt>
      <trkpt lat="42.53989" lon="2.04763">
        <ele>1739.1999511719</ele>
        <time>2023-07-19T05:07:31.000Z</time>
      </trkpt>
      <trkpt lat="42.54003" lon="2.04748">
        <ele>1738.1999511719</ele>
        <time>2023-07-19T05:07:44.000Z</time>
      </trkpt>
      <trkpt lat="42.54003" lon="2.04747">
        <ele>1738</ele>
        <time>2023-07-19T05:07:45.000Z</time>
      </trkpt>
      <trkpt lat="42.54007" lon="2.04735">
        <ele>1737.4000244141</ele>
        <time>2023-07-19T05:07:51.000Z</time>
      </trkpt>
      <trkpt lat="42.54009" lon="2.04731">
        <ele>1737</ele>
        <time>2023-07-19T05:07:53.000Z</time>
      </trkpt>
      <trkpt lat="42.54015" lon="2.04722">
        <ele>1736.4000244141</ele>
        <time>2023-07-19T05:08:00.000Z</time>
      </trkpt>
      <trkpt lat="42.54019" lon="2.04712">
        <ele>1736</ele>
        <time>2023-07-19T05:08:06.000Z</time>
      </trkpt>
      <trkpt lat="42.5402" lon="2.04706">
        <ele>1736</ele>
        <time>2023-07-19T05:08:10.000Z</time>
      </trkpt>
      <trkpt lat="42.54027" lon="2.04689">
        <ele>1735.8000488281</ele>
        <time>2023-07-19T05:08:21.000Z</time>
      </trkpt>
      <trkpt lat="42.54029" lon="2.04671">
        <ele>1736.1999511719</ele>
        <time>2023-07-19T05:08:30.000Z</time>
      </trkpt>
      <trkpt lat="42.54037" lon="2.04658">
        <ele>1736.1999511719</ele>
        <time>2023-07-19T05:08:36.000Z</time>
      </trkpt>
      <trkpt lat="42.54048" lon="2.04643">
        <ele>1736.4000244141</ele>
        <time>2023-07-19T05:08:46.000Z</time>
      </trkpt>
      <trkpt lat="42.5405" lon="2.04624">
        <ele>1736.4000244141</ele>
        <time>2023-07-19T05:08:57.000Z</time>
      </trkpt>
      <trkpt lat="42.54059" lon="2.04612">
        <ele>1736.4000244141</ele>
        <time>2023-07-19T05:09:04.000Z</time>
      </trkpt>
      <trkpt lat="42.54066" lon="2.04596">
        <ele>1736.1999511719</ele>
        <time>2023-07-19T05:09:15.000Z</time>
      </trkpt>
      <trkpt lat="42.54079" lon="2.04571">
        <ele>1736</ele>
        <time>2023-07-19T05:09:31.000Z</time>
      </trkpt>
      <trkpt lat="42.54088" lon="2.0455">
        <ele>1736</ele>
        <time>2023-07-19T05:09:44.000Z</time>
      </trkpt>
      <trkpt lat="42.54095" lon="2.04541">
        <ele>1736</ele>
        <time>2023-07-19T05:09:50.000Z</time>
      </trkpt>
      <trkpt lat="42.54102" lon="2.04531">
        <ele>1736</ele>
        <time>2023-07-19T05:09:56.000Z</time>
      </trkpt>
      <trkpt lat="42.54107" lon="2.04521">
        <ele>1735.8000488281</ele>
        <time>2023-07-19T05:10:05.000Z</time>
      </trkpt>
      <trkpt lat="42.54112" lon="2.0451">
        <ele>1735.8000488281</ele>
        <time>2023-07-19T05:10:11.000Z</time>
      </trkpt>
      <trkpt lat="42.54121" lon="2.04497">
        <ele>1736</ele>
        <time>2023-07-19T05:10:19.000Z</time>
      </trkpt>
      <trkpt lat="42.5413" lon="2.04487">
        <ele>1736.1999511719</ele>
        <time>2023-07-19T05:10:27.000Z</time>
      </trkpt>
      <trkpt lat="42.54137" lon="2.04477">
        <ele>1736.1999511719</ele>
        <time>2023-07-19T05:10:35.000Z</time>
      </trkpt>
      <trkpt lat="42.54145" lon="2.04469">
        <ele>1736.1999511719</ele>
        <time>2023-07-19T05:10:42.000Z</time>
      </trkpt>
      <trkpt lat="42.5415" lon="2.04463">
        <ele>1735.8000488281</ele>
        <time>2023-07-19T05:10:49.000Z</time>
      </trkpt>
      <trkpt lat="42.54161" lon="2.04456">
        <ele>1735</ele>
        <time>2023-07-19T05:10:57.000Z</time>
      </trkpt>
      <trkpt lat="42.54163" lon="2.04456">
        <ele>1735</ele>
        <time>2023-07-19T05:10:58.000Z</time>
      </trkpt>
      <trkpt lat="42.5417" lon="2.04449">
        <ele>1734.4000244141</ele>
        <time>2023-07-19T05:11:04.000Z</time>
      </trkpt>
      <trkpt lat="42.54176" lon="2.04442">
        <ele>1734</ele>
        <time>2023-07-19T05:11:10.000Z</time>
      </trkpt>
      <trkpt lat="42.54179" lon="2.0444">
        <ele>1733.8000488281</ele>
        <time>2023-07-19T05:11:12.000Z</time>
      </trkpt>
      <trkpt lat="42.5419" lon="2.04429">
        <ele>1733</ele>
        <time>2023-07-19T05:11:20.000Z</time>
      </trkpt>
      <trkpt lat="42.5419" lon="2.04428">
        <ele>1733</ele>
        <time>2023-07-19T05:11:21.000Z</time>
      </trkpt>
      <trkpt lat="42.54192" lon="2.04418">
        <ele>1732.4000244141</ele>
        <time>2023-07-19T05:11:28.000Z</time>
      </trkpt>
      <trkpt lat="42.54196" lon="2.04414">
        <ele>1732</ele>
        <time>2023-07-19T05:11:31.000Z</time>
      </trkpt>
      <trkpt lat="42.54199" lon="2.04401">
        <ele>1731.5999755859</ele>
        <time>2023-07-19T05:11:36.000Z</time>
      </trkpt>
      <trkpt lat="42.54204" lon="2.04393">
        <ele>1730.8000488281</ele>
        <time>2023-07-19T05:11:42.000Z</time>
      </trkpt>
      <trkpt lat="42.54206" lon="2.04392">
        <ele>1730.8000488281</ele>
        <time>2023-07-19T05:11:43.000Z</time>
      </trkpt>
      <trkpt lat="42.54212" lon="2.04382">
        <ele>1729.8000488281</ele>
        <time>2023-07-19T05:11:52.000Z</time>
      </trkpt>
      <trkpt lat="42.54214" lon="2.04381">
        <ele>1729.5999755859</ele>
        <time>2023-07-19T05:11:53.000Z</time>
      </trkpt>
      <trkpt lat="42.54221" lon="2.04369">
        <ele>1729.1999511719</ele>
        <time>2023-07-19T05:12:01.000Z</time>
      </trkpt>
      <trkpt lat="42.5422" lon="2.04358">
        <ele>1729</ele>
        <time>2023-07-19T05:12:07.000Z</time>
      </trkpt>
      <trkpt lat="42.54223" lon="2.04351">
        <ele>1728.8000488281</ele>
        <time>2023-07-19T05:12:11.000Z</time>
      </trkpt>
      <trkpt lat="42.54228" lon="2.04344">
        <ele>1728.5999755859</ele>
        <time>2023-07-19T05:12:16.000Z</time>
      </trkpt>
      <trkpt lat="42.5423" lon="2.04339">
        <ele>1728.1999511719</ele>
        <time>2023-07-19T05:12:22.000Z</time>
      </trkpt>
      <trkpt lat="42.54229" lon="2.04338">
        <ele>1728</ele>
        <time>2023-07-19T05:12:23.000Z</time>
      </trkpt>
      <trkpt lat="42.54227" lon="2.04334">
        <ele>1728</ele>
        <time>2023-07-19T05:12:26.000Z</time>
      </trkpt>
      <trkpt lat="42.54226" lon="2.04332">
        <ele>1728</ele>
        <time>2023-07-19T05:12:27.000Z</time>
      </trkpt>
      <trkpt lat="42.54224" lon="2.04326">
        <ele>1727.8000488281</ele>
        <time>2023-07-19T05:12:35.000Z</time>
      </trkpt>
      <trkpt lat="42.54224" lon="2.04326">
        <ele>1727.8000488281</ele>
        <time>2023-07-19T05:12:37.000Z</time>
      </trkpt>
      <trkpt lat="42.54223" lon="2.04324">
        <ele>1727.8000488281</ele>
        <time>2023-07-19T05:12:45.000Z</time>
      </trkpt>
      <trkpt lat="42.54224" lon="2.04322">
        <ele>1727.5999755859</ele>
        <time>2023-07-19T05:12:55.000Z</time>
      </trkpt>
      <trkpt lat="42.54227" lon="2.04325">
        <ele>1727.5999755859</ele>
        <time>2023-07-19T05:13:04.000Z</time>
      </trkpt>
      <trkpt lat="42.54224" lon="2.04324">
        <ele>1727.4000244141</ele>
        <time>2023-07-19T05:13:13.000Z</time>
      </trkpt>
      <trkpt lat="42.54225" lon="2.04312">
        <ele>1726.8000488281</ele>
        <time>2023-07-19T05:13:21.000Z</time>
      </trkpt>
      <trkpt lat="42.54225" lon="2.04311">
        <ele>1726.5999755859</ele>
        <time>2023-07-19T05:13:22.000Z</time>
      </trkpt>
      <trkpt lat="42.54226" lon="2.04297">
        <ele>1725.8000488281</ele>
        <time>2023-07-19T05:13:30.000Z</time>
      </trkpt>
      <trkpt lat="42.54227" lon="2.04294">
        <ele>1725.5999755859</ele>
        <time>2023-07-19T05:13:32.000Z</time>
      </trkpt>
      <trkpt lat="42.54231" lon="2.04282">
        <ele>1725</ele>
        <time>2023-07-19T05:13:40.000Z</time>
      </trkpt>
      <trkpt lat="42.54233" lon="2.04277">
        <ele>1724.5999755859</ele>
        <time>2023-07-19T05:13:44.000Z</time>
      </trkpt>
      <trkpt lat="42.54236" lon="2.04268">
        <ele>1724.1999511719</ele>
        <time>2023-07-19T05:13:49.000Z</time>
      </trkpt>
      <trkpt lat="42.54238" lon="2.04261">
        <ele>1723.5999755859</ele>
        <time>2023-07-19T05:13:55.000Z</time>
      </trkpt>
      <trkpt lat="42.54239" lon="2.04261">
        <ele>1723.4000244141</ele>
        <time>2023-07-19T05:13:56.000Z</time>
      </trkpt>
      <trkpt lat="42.54241" lon="2.04256">
        <ele>1723.1999511719</ele>
        <time>2023-07-19T05:14:03.000Z</time>
      </trkpt>
      <trkpt lat="42.5424" lon="2.04254">
        <ele>1723.1999511719</ele>
        <time>2023-07-19T05:14:11.000Z</time>
      </trkpt>
      <trkpt lat="42.54241" lon="2.0425">
        <ele>1723.1999511719</ele>
        <time>2023-07-19T05:14:18.000Z</time>
      </trkpt>
      <trkpt lat="42.54244" lon="2.04236">
        <ele>1722.5999755859</ele>
        <time>2023-07-19T05:14:28.000Z</time>
      </trkpt>
      <trkpt lat="42.54243" lon="2.0422">
        <ele>1721.8000488281</ele>
        <time>2023-07-19T05:14:37.000Z</time>
      </trkpt>
      <trkpt lat="42.54243" lon="2.04212">
        <ele>1721.4000244141</ele>
        <time>2023-07-19T05:14:41.000Z</time>
      </trkpt>
      <trkpt lat="42.54246" lon="2.04195">
        <ele>1721</ele>
        <time>2023-07-19T05:14:50.000Z</time>
      </trkpt>
      <trkpt lat="42.54249" lon="2.04176">
        <ele>1720.8000488281</ele>
        <time>2023-07-19T05:14:59.000Z</time>
      </trkpt>
      <trkpt lat="42.54252" lon="2.04163">
        <ele>1720.5999755859</ele>
        <time>2023-07-19T05:15:08.000Z</time>
      </trkpt>
      <trkpt lat="42.54253" lon="2.04157">
        <ele>1720.4000244141</ele>
        <time>2023-07-19T05:15:10.000Z</time>
      </trkpt>
      <trkpt lat="42.54255" lon="2.04144">
        <ele>1720</ele>
        <time>2023-07-19T05:15:16.000Z</time>
      </trkpt>
      <trkpt lat="42.54261" lon="2.04125">
        <ele>1719.8000488281</ele>
        <time>2023-07-19T05:15:24.000Z</time>
      </trkpt>
      <trkpt lat="42.54267" lon="2.04118">
        <ele>1719.4000244141</ele>
        <time>2023-07-19T05:15:30.000Z</time>
      </trkpt>
      <trkpt lat="42.54268" lon="2.04118">
        <ele>1719.4000244141</ele>
        <time>2023-07-19T05:15:31.000Z</time>
      </trkpt>
      <trkpt lat="42.54279" lon="2.04112">
        <ele>1719</ele>
        <time>2023-07-19T05:15:40.000Z</time>
      </trkpt>
      <trkpt lat="42.54288" lon="2.04111">
        <ele>1719</ele>
        <time>2023-07-19T05:15:46.000Z</time>
      </trkpt>
      <trkpt lat="42.54288" lon="2.04113">
        <ele>1719</ele>
        <time>2023-07-19T05:15:48.000Z</time>
      </trkpt>
      <trkpt lat="42.54288" lon="2.04113">
        <ele>1719</ele>
        <time>2023-07-19T05:15:53.000Z</time>
      </trkpt>
      <trkpt lat="42.54292" lon="2.04116">
        <ele>1719</ele>
        <time>2023-07-19T05:15:59.000Z</time>
      </trkpt>
      <trkpt lat="42.54299" lon="2.04116">
        <ele>1719.1999511719</ele>
        <time>2023-07-19T05:16:05.000Z</time>
      </trkpt>
      <trkpt lat="42.54314" lon="2.04116">
        <ele>1719.1999511719</ele>
        <time>2023-07-19T05:16:15.000Z</time>
      </trkpt>
      <trkpt lat="42.54322" lon="2.04115">
        <ele>1719.4000244141</ele>
        <time>2023-07-19T05:16:22.000Z</time>
      </trkpt>
      <trkpt lat="42.54337" lon="2.04117">
        <ele>1719.5999755859</ele>
        <time>2023-07-19T05:16:31.000Z</time>
      </trkpt>
      <trkpt lat="42.54346" lon="2.04119">
        <ele>1719.5999755859</ele>
        <time>2023-07-19T05:16:38.000Z</time>
      </trkpt>
      <trkpt lat="42.54358" lon="2.04121">
        <ele>1719.8000488281</ele>
        <time>2023-07-19T05:16:47.000Z</time>
      </trkpt>
      <trkpt lat="42.54366" lon="2.04122">
        <ele>1720</ele>
        <time>2023-07-19T05:16:54.000Z</time>
      </trkpt>
      <trkpt lat="42.54381" lon="2.04121">
        <ele>1720</ele>
        <time>2023-07-19T05:17:05.000Z</time>
      </trkpt>
      <trkpt lat="42.54397" lon="2.04124">
        <ele>1720.1999511719</ele>
        <time>2023-07-19T05:17:14.000Z</time>
      </trkpt>
      <trkpt lat="42.5441" lon="2.04128">
        <ele>1720.4000244141</ele>
        <time>2023-07-19T05:17:24.000Z</time>
      </trkpt>
      <trkpt lat="42.5442" lon="2.04127">
        <ele>1720.4000244141</ele>
        <time>2023-07-19T05:17:31.000Z</time>
      </trkpt>
      <trkpt lat="42.54421" lon="2.04126">
        <ele>1720.4000244141</ele>
        <time>2023-07-19T05:17:32.000Z</time>
      </trkpt>
      <trkpt lat="42.54423" lon="2.04125">
        <ele>1720.5999755859</ele>
        <time>2023-07-19T05:17:39.000Z</time>
      </trkpt>
      <trkpt lat="42.54423" lon="2.04126">
        <ele>1720.5999755859</ele>
        <time>2023-07-19T05:17:49.000Z</time>
      </trkpt>
      <trkpt lat="42.54427" lon="2.04128">
        <ele>1720.5999755859</ele>
        <time>2023-07-19T05:17:54.000Z</time>
      </trkpt>
      <trkpt lat="42.54438" lon="2.04126">
        <ele>1720.5999755859</ele>
        <time>2023-07-19T05:18:03.000Z</time>
      </trkpt>
      <trkpt lat="42.54438" lon="2.04126">
        <ele>1720.5999755859</ele>
        <time>2023-07-19T05:18:11.000Z</time>
      </trkpt>
      <trkpt lat="42.54434" lon="2.04124">
        <ele>1720.5999755859</ele>
        <time>2023-07-19T05:18:16.000Z</time>
      </trkpt>
      <trkpt lat="42.54432" lon="2.04122">
        <ele>1720.5999755859</ele>
        <time>2023-07-19T05:18:24.000Z</time>
      </trkpt>
      <trkpt lat="42.54426" lon="2.04124">
        <ele>1720.4000244141</ele>
        <time>2023-07-19T05:18:30.000Z</time>
      </trkpt>
      <trkpt lat="42.54415" lon="2.04125">
        <ele>1720.4000244141</ele>
        <time>2023-07-19T05:18:39.000Z</time>
      </trkpt>
      <trkpt lat="42.54408" lon="2.04123">
        <ele>1720.1999511719</ele>
        <time>2023-07-19T05:18:47.000Z</time>
      </trkpt>
      <trkpt lat="42.54403" lon="2.04124">
        <ele>1720.1999511719</ele>
        <time>2023-07-19T05:18:54.000Z</time>
      </trkpt>
      <trkpt lat="42.544" lon="2.04124">
        <ele>1720</ele>
        <time>2023-07-19T05:19:02.000Z</time>
      </trkpt>
      <trkpt lat="42.54388" lon="2.04122">
        <ele>1719.8000488281</ele>
        <time>2023-07-19T05:19:10.000Z</time>
      </trkpt>
      <trkpt lat="42.54377" lon="2.04123">
        <ele>1719.5999755859</ele>
        <time>2023-07-19T05:19:18.000Z</time>
      </trkpt>
      <trkpt lat="42.54367" lon="2.04121">
        <ele>1719.5999755859</ele>
        <time>2023-07-19T05:19:24.000Z</time>
      </trkpt>
      <trkpt lat="42.5436" lon="2.0412">
        <ele>1719.4000244141</ele>
        <time>2023-07-19T05:19:29.000Z</time>
      </trkpt>
      <trkpt lat="42.54357" lon="2.0412">
        <ele>1719.4000244141</ele>
        <time>2023-07-19T05:19:31.000Z</time>
      </trkpt>
      <trkpt lat="42.54348" lon="2.0412">
        <ele>1719</ele>
        <time>2023-07-19T05:19:38.000Z</time>
      </trkpt>
      <trkpt lat="42.54337" lon="2.04119">
        <ele>1718.5999755859</ele>
        <time>2023-07-19T05:19:45.000Z</time>
      </trkpt>
      <trkpt lat="42.54331" lon="2.04117">
        <ele>1718.5999755859</ele>
        <time>2023-07-19T05:19:52.000Z</time>
      </trkpt>
      <trkpt lat="42.5433" lon="2.04116">
        <ele>1718.4000244141</ele>
        <time>2023-07-19T05:19:58.000Z</time>
      </trkpt>
      <trkpt lat="42.54332" lon="2.04116">
        <ele>1718.4000244141</ele>
        <time>2023-07-19T05:20:01.000Z</time>
      </trkpt>
      <trkpt lat="42.54344" lon="2.04114">
        <ele>1718.1999511719</ele>
        <time>2023-07-19T05:20:09.000Z</time>
      </trkpt>
      <trkpt lat="42.54352" lon="2.04103">
        <ele>1718.8000488281</ele>
        <time>2023-07-19T05:20:18.000Z</time>
      </trkpt>
      <trkpt lat="42.54363" lon="2.0409">
        <ele>1718.5999755859</ele>
        <time>2023-07-19T05:20:28.000Z</time>
      </trkpt>
      <trkpt lat="42.54374" lon="2.04075">
        <ele>1719.1999511719</ele>
        <time>2023-07-19T05:20:38.000Z</time>
      </trkpt>
      <trkpt lat="42.54383" lon="2.04064">
        <ele>1719.1999511719</ele>
        <time>2023-07-19T05:20:48.000Z</time>
      </trkpt>
      <trkpt lat="42.54389" lon="2.04056">
        <ele>1719.4000244141</ele>
        <time>2023-07-19T05:20:54.000Z</time>
      </trkpt>
      <trkpt lat="42.54391" lon="2.04052">
        <ele>1719.5999755859</ele>
        <time>2023-07-19T05:20:57.000Z</time>
      </trkpt>
      <trkpt lat="42.54396" lon="2.04035">
        <ele>1720.1999511719</ele>
        <time>2023-07-19T05:21:07.000Z</time>
      </trkpt>
      <trkpt lat="42.544" lon="2.04018">
        <ele>1720</ele>
        <time>2023-07-19T05:21:17.000Z</time>
      </trkpt>
      <trkpt lat="42.54402" lon="2.04012">
        <ele>1720</ele>
        <time>2023-07-19T05:21:24.000Z</time>
      </trkpt>
      <trkpt lat="42.54401" lon="2.04012">
        <ele>1720</ele>
        <time>2023-07-19T05:21:25.000Z</time>
      </trkpt>
      <trkpt lat="42.54398" lon="2.04011">
        <ele>1719.8000488281</ele>
        <time>2023-07-19T05:21:30.000Z</time>
      </trkpt>
      <trkpt lat="42.544" lon="2.04011">
        <ele>1719.8000488281</ele>
        <time>2023-07-19T05:21:33.000Z</time>
      </trkpt>
      <trkpt lat="42.54404" lon="2.04013">
        <ele>1719.8000488281</ele>
        <time>2023-07-19T05:21:35.000Z</time>
      </trkpt>
      <trkpt lat="42.5441" lon="2.04012">
        <ele>1720</ele>
        <time>2023-07-19T05:21:41.000Z</time>
      </trkpt>
      <trkpt lat="42.54418" lon="2.04014">
        <ele>1720.1999511719</ele>
        <time>2023-07-19T05:21:47.000Z</time>
      </trkpt>
      <trkpt lat="42.54424" lon="2.04004">
        <ele>1720.1999511719</ele>
        <time>2023-07-19T05:21:54.000Z</time>
      </trkpt>
      <trkpt lat="42.54425" lon="2.03991">
        <ele>1720</ele>
        <time>2023-07-19T05:22:01.000Z</time>
      </trkpt>
      <trkpt lat="42.54423" lon="2.03984">
        <ele>1719.8000488281</ele>
        <time>2023-07-19T05:22:07.000Z</time>
      </trkpt>
      <trkpt lat="42.54422" lon="2.03983">
        <ele>1719.8000488281</ele>
        <time>2023-07-19T05:22:08.000Z</time>
      </trkpt>
      <trkpt lat="42.54421" lon="2.03984">
        <ele>1719.8000488281</ele>
        <time>2023-07-19T05:22:14.000Z</time>
      </trkpt>
      <trkpt lat="42.54421" lon="2.03974">
        <ele>1719.8000488281</ele>
        <time>2023-07-19T05:22:21.000Z</time>
      </trkpt>
      <trkpt lat="42.54424" lon="2.03974">
        <ele>1720</ele>
        <time>2023-07-19T05:22:24.000Z</time>
      </trkpt>
      <trkpt lat="42.54425" lon="2.03975">
        <ele>1720</ele>
        <time>2023-07-19T05:22:25.000Z</time>
      </trkpt>
      <trkpt lat="42.5443" lon="2.03981">
        <ele>1720</ele>
        <time>2023-07-19T05:22:30.000Z</time>
      </trkpt>
      <trkpt lat="42.54436" lon="2.03987">
        <ele>1720.4000244141</ele>
        <time>2023-07-19T05:22:36.000Z</time>
      </trkpt>
      <trkpt lat="42.54442" lon="2.03992">
        <ele>1720.4000244141</ele>
        <time>2023-07-19T05:22:41.000Z</time>
      </trkpt>
      <trkpt lat="42.54443" lon="2.03992">
        <ele>1720.5999755859</ele>
        <time>2023-07-19T05:22:42.000Z</time>
      </trkpt>
      <trkpt lat="42.5445" lon="2.03995">
        <ele>1720.5999755859</ele>
        <time>2023-07-19T05:22:48.000Z</time>
      </trkpt>
      <trkpt lat="42.54459" lon="2.03997">
        <ele>1720.8000488281</ele>
        <time>2023-07-19T05:22:55.000Z</time>
      </trkpt>
      <trkpt lat="42.54467" lon="2.04">
        <ele>1720.8000488281</ele>
        <time>2023-07-19T05:23:01.000Z</time>
      </trkpt>
      <trkpt lat="42.54472" lon="2.04001">
        <ele>1721</ele>
        <time>2023-07-19T05:23:09.000Z</time>
      </trkpt>
      <trkpt lat="42.54472" lon="2.04002">
        <ele>1721</ele>
        <time>2023-07-19T05:23:16.000Z</time>
      </trkpt>
      <trkpt lat="42.54463" lon="2.04003">
        <ele>1720.8000488281</ele>
        <time>2023-07-19T05:23:23.000Z</time>
      </trkpt>
      <trkpt lat="42.54455" lon="2.03999">
        <ele>1720.5999755859</ele>
        <time>2023-07-19T05:23:30.000Z</time>
      </trkpt>
      <trkpt lat="42.54449" lon="2.03994">
        <ele>1720.5999755859</ele>
        <time>2023-07-19T05:23:37.000Z</time>
      </trkpt>
      <trkpt lat="42.54442" lon="2.03989">
        <ele>1720.1999511719</ele>
        <time>2023-07-19T05:23:43.000Z</time>
      </trkpt>
      <trkpt lat="42.54433" lon="2.03982">
        <ele>1720</ele>
        <time>2023-07-19T05:23:51.000Z</time>
      </trkpt>
      <trkpt lat="42.54427" lon="2.03971">
        <ele>1719.5999755859</ele>
        <time>2023-07-19T05:23:59.000Z</time>
      </trkpt>
      <trkpt lat="42.54424" lon="2.03961">
        <ele>1719.4000244141</ele>
        <time>2023-07-19T05:24:05.000Z</time>
      </trkpt>
      <trkpt lat="42.54416" lon="2.03954">
        <ele>1719.5999755859</ele>
        <time>2023-07-19T05:24:12.000Z</time>
      </trkpt>
      <trkpt lat="42.54408" lon="2.03949">
        <ele>1719.8000488281</ele>
        <time>2023-07-19T05:24:18.000Z</time>
      </trkpt>
      <trkpt lat="42.54404" lon="2.03936">
        <ele>1720</ele>
        <time>2023-07-19T05:24:26.000Z</time>
      </trkpt>
      <trkpt lat="42.54404" lon="2.03928">
        <ele>1721</ele>
        <time>2023-07-19T05:24:32.000Z</time>
      </trkpt>
      <trkpt lat="42.54404" lon="2.03925">
        <ele>1721.5999755859</ele>
        <time>2023-07-19T05:24:35.000Z</time>
      </trkpt>
      <trkpt lat="42.54404" lon="2.03924">
        <ele>1722.1999511719</ele>
        <time>2023-07-19T05:24:38.000Z</time>
      </trkpt>
      <trkpt lat="42.54403" lon="2.03921">
        <ele>1722.5999755859</ele>
        <time>2023-07-19T05:24:50.000Z</time>
      </trkpt>
      <trkpt lat="42.54404" lon="2.03918">
        <ele>1722.5999755859</ele>
        <time>2023-07-19T05:24:56.000Z</time>
      </trkpt>
      <trkpt lat="42.54404" lon="2.03915">
        <ele>1722.8000488281</ele>
        <time>2023-07-19T05:24:59.000Z</time>
      </trkpt>
      <trkpt lat="42.54407" lon="2.0391">
        <ele>1723.8000488281</ele>
        <time>2023-07-19T05:25:04.000Z</time>
      </trkpt>
      <trkpt lat="42.54407" lon="2.0391">
        <ele>1724</ele>
        <time>2023-07-19T05:25:06.000Z</time>
      </trkpt>
      <trkpt lat="42.54407" lon="2.03913">
        <ele>1724</ele>
        <time>2023-07-19T05:25:15.000Z</time>
      </trkpt>
      <trkpt lat="42.54405" lon="2.03926">
        <ele>1723</ele>
        <time>2023-07-19T05:25:23.000Z</time>
      </trkpt>
      <trkpt lat="42.54405" lon="2.0393">
        <ele>1722.5999755859</ele>
        <time>2023-07-19T05:25:26.000Z</time>
      </trkpt>
      <trkpt lat="42.54405" lon="2.03933">
        <ele>1722</ele>
        <time>2023-07-19T05:25:29.000Z</time>
      </trkpt>
      <trkpt lat="42.54404" lon="2.03937">
        <ele>1721.4000244141</ele>
        <time>2023-07-19T05:25:32.000Z</time>
      </trkpt>
      <trkpt lat="42.54405" lon="2.03945">
        <ele>1720.5999755859</ele>
        <time>2023-07-19T05:25:37.000Z</time>
      </trkpt>
      <trkpt lat="42.54406" lon="2.03947">
        <ele>1720.4000244141</ele>
        <time>2023-07-19T05:25:38.000Z</time>
      </trkpt>
      <trkpt lat="42.54413" lon="2.03954">
        <ele>1720.1999511719</ele>
        <time>2023-07-19T05:25:45.000Z</time>
      </trkpt>
      <trkpt lat="42.54414" lon="2.03958">
        <ele>1720.4000244141</ele>
        <time>2023-07-19T05:25:51.000Z</time>
      </trkpt>
      <trkpt lat="42.54414" lon="2.03959">
        <ele>1720.4000244141</ele>
        <time>2023-07-19T05:26:01.000Z</time>
      </trkpt>
      <trkpt lat="42.54419" lon="2.03961">
        <ele>1720.4000244141</ele>
        <time>2023-07-19T05:26:09.000Z</time>
      </trkpt>
      <trkpt lat="42.54425" lon="2.03968">
        <ele>1720.1999511719</ele>
        <time>2023-07-19T05:26:15.000Z</time>
      </trkpt>
      <trkpt lat="42.54426" lon="2.03978">
        <ele>1720.1999511719</ele>
        <time>2023-07-19T05:26:21.000Z</time>
      </trkpt>
      <trkpt lat="42.54426" lon="2.03992">
        <ele>1720.1999511719</ele>
        <time>2023-07-19T05:26:28.000Z</time>
      </trkpt>
      <trkpt lat="42.54423" lon="2.04006">
        <ele>1720.1999511719</ele>
        <time>2023-07-19T05:26:36.000Z</time>
      </trkpt>
      <trkpt lat="42.54419" lon="2.04015">
        <ele>1720.1999511719</ele>
        <time>2023-07-19T05:26:42.000Z</time>
      </trkpt>
      <trkpt lat="42.54417" lon="2.04026">
        <ele>1720.1999511719</ele>
        <time>2023-07-19T05:26:50.000Z</time>
      </trkpt>
      <trkpt lat="42.54415" lon="2.04037">
        <ele>1720</ele>
        <time>2023-07-19T05:26:57.000Z</time>
      </trkpt>
      <trkpt lat="42.54414" lon="2.04048">
        <ele>1719.8000488281</ele>
        <time>2023-07-19T05:27:02.000Z</time>
      </trkpt>
      <trkpt lat="42.54414" lon="2.04064">
        <ele>1719.5999755859</ele>
        <time>2023-07-19T05:27:11.000Z</time>
      </trkpt>
      <trkpt lat="42.54415" lon="2.04068">
        <ele>1719.4000244141</ele>
        <time>2023-07-19T05:27:13.000Z</time>
      </trkpt>
      <trkpt lat="42.54416" lon="2.04074">
        <ele>1719</ele>
        <time>2023-07-19T05:27:17.000Z</time>
      </trkpt>
      <trkpt lat="42.54414" lon="2.04081">
        <ele>1718.5999755859</ele>
        <time>2023-07-19T05:27:22.000Z</time>
      </trkpt>
      <trkpt lat="42.54414" lon="2.04084">
        <ele>1718.1999511719</ele>
        <time>2023-07-19T05:27:24.000Z</time>
      </trkpt>
      <trkpt lat="42.54414" lon="2.04096">
        <ele>1718</ele>
        <time>2023-07-19T05:27:30.000Z</time>
      </trkpt>
      <trkpt lat="42.54414" lon="2.04107">
        <ele>1718.1999511719</ele>
        <time>2023-07-19T05:27:37.000Z</time>
      </trkpt>
      <trkpt lat="42.54411" lon="2.04118">
        <ele>1717.8000488281</ele>
        <time>2023-07-19T05:27:43.000Z</time>
      </trkpt>
      <trkpt lat="42.54405" lon="2.04121">
        <ele>1717.8000488281</ele>
        <time>2023-07-19T05:27:50.000Z</time>
      </trkpt>
      <trkpt lat="42.54398" lon="2.0412">
        <ele>1717.5999755859</ele>
        <time>2023-07-19T05:27:56.000Z</time>
      </trkpt>
      <trkpt lat="42.54386" lon="2.04118">
        <ele>1717.1999511719</ele>
        <time>2023-07-19T05:28:04.000Z</time>
      </trkpt>
      <trkpt lat="42.54385" lon="2.04118">
        <ele>1717.1999511719</ele>
        <time>2023-07-19T05:28:05.000Z</time>
      </trkpt>
      <trkpt lat="42.54384" lon="2.0412">
        <ele>1717</ele>
        <time>2023-07-19T05:28:10.000Z</time>
      </trkpt>
      <trkpt lat="42.54377" lon="2.0412">
        <ele>1716.5999755859</ele>
        <time>2023-07-19T05:28:16.000Z</time>
      </trkpt>
      <trkpt lat="42.54367" lon="2.0412">
        <ele>1716.8000488281</ele>
        <time>2023-07-19T05:28:23.000Z</time>
      </trkpt>
      <trkpt lat="42.54356" lon="2.04117">
        <ele>1716.5999755859</ele>
        <time>2023-07-19T05:28:32.000Z</time>
      </trkpt>
      <trkpt lat="42.54344" lon="2.04118">
        <ele>1716.4000244141</ele>
        <time>2023-07-19T05:28:39.000Z</time>
      </trkpt>
      <trkpt lat="42.54343" lon="2.04118">
        <ele>1716.1999511719</ele>
        <time>2023-07-19T05:28:42.000Z</time>
      </trkpt>
      <trkpt lat="42.54343" lon="2.04118">
        <ele>1716.1999511719</ele>
        <time>2023-07-19T05:28:44.000Z</time>
      </trkpt>
      <trkpt lat="42.54343" lon="2.04114">
        <ele>1716.1999511719</ele>
        <time>2023-07-19T05:28:54.000Z</time>
      </trkpt>
      <trkpt lat="42.54341" lon="2.04115">
        <ele>1716.1999511719</ele>
        <time>2023-07-19T05:28:59.000Z</time>
      </trkpt>
      <trkpt lat="42.54329" lon="2.04115">
        <ele>1716.1999511719</ele>
        <time>2023-07-19T05:29:07.000Z</time>
      </trkpt>
      <trkpt lat="42.54317" lon="2.04114">
        <ele>1715.8000488281</ele>
        <time>2023-07-19T05:29:15.000Z</time>
      </trkpt>
      <trkpt lat="42.54304" lon="2.04113">
        <ele>1715.5999755859</ele>
        <time>2023-07-19T05:29:23.000Z</time>
      </trkpt>
      <trkpt lat="42.54293" lon="2.04112">
        <ele>1715.4000244141</ele>
        <time>2023-07-19T05:29:31.000Z</time>
      </trkpt>
      <trkpt lat="42.54293" lon="2.04111">
        <ele>1715.1999511719</ele>
        <time>2023-07-19T05:29:35.000Z</time>
      </trkpt>
      <trkpt lat="42.54293" lon="2.0411">
        <ele>1714.8000488281</ele>
        <time>2023-07-19T05:29:38.000Z</time>
      </trkpt>
      <trkpt lat="42.5429" lon="2.04101">
        <ele>1714.8000488281</ele>
        <time>2023-07-19T05:29:43.000Z</time>
      </trkpt>
      <trkpt lat="42.54287" lon="2.04086">
        <ele>1715</ele>
        <time>2023-07-19T05:29:50.000Z</time>
      </trkpt>
      <trkpt lat="42.54287" lon="2.04071">
        <ele>1715.4000244141</ele>
        <time>2023-07-19T05:29:58.000Z</time>
      </trkpt>
      <trkpt lat="42.5429" lon="2.04063">
        <ele>1715.5999755859</ele>
        <time>2023-07-19T05:30:04.000Z</time>
      </trkpt>
      <trkpt lat="42.54291" lon="2.04052">
        <ele>1715.8000488281</ele>
        <time>2023-07-19T05:30:11.000Z</time>
      </trkpt>
      <trkpt lat="42.54292" lon="2.04048">
        <ele>1716</ele>
        <time>2023-07-19T05:30:16.000Z</time>
      </trkpt>
      <trkpt lat="42.54291" lon="2.04048">
        <ele>1716</ele>
        <time>2023-07-19T05:30:21.000Z</time>
      </trkpt>
      <trkpt lat="42.54291" lon="2.04049">
        <ele>1716</ele>
        <time>2023-07-19T05:30:23.000Z</time>
      </trkpt>
      <trkpt lat="42.54289" lon="2.04047">
        <ele>1716.1999511719</ele>
        <time>2023-07-19T05:30:31.000Z</time>
      </trkpt>
      <trkpt lat="42.54288" lon="2.04046">
        <ele>1716.1999511719</ele>
        <time>2023-07-19T05:30:33.000Z</time>
      </trkpt>
      <trkpt lat="42.54289" lon="2.04041">
        <ele>1716.1999511719</ele>
        <time>2023-07-19T05:30:41.000Z</time>
      </trkpt>
      <trkpt lat="42.54295" lon="2.04029">
        <ele>1716.5999755859</ele>
        <time>2023-07-19T05:30:50.000Z</time>
      </trkpt>
      <trkpt lat="42.54297" lon="2.04031">
        <ele>1716.8000488281</ele>
        <time>2023-07-19T05:30:53.000Z</time>
      </trkpt>
      <trkpt lat="42.54298" lon="2.0403">
        <ele>1716.8000488281</ele>
        <time>2023-07-19T05:30:56.000Z</time>
      </trkpt>
      <trkpt lat="42.54296" lon="2.04036">
        <ele>1716.8000488281</ele>
        <time>2023-07-19T05:31:02.000Z</time>
      </trkpt>
      <trkpt lat="42.54295" lon="2.04041">
        <ele>1716.5999755859</ele>
        <time>2023-07-19T05:31:09.000Z</time>
      </trkpt>
      <trkpt lat="42.54294" lon="2.04046">
        <ele>1716.5999755859</ele>
        <time>2023-07-19T05:31:18.000Z</time>
      </trkpt>
      <trkpt lat="42.54292" lon="2.04057">
        <ele>1716.5999755859</ele>
        <time>2023-07-19T05:31:25.000Z</time>
      </trkpt>
      <trkpt lat="42.5429" lon="2.04069">
        <ele>1716.8000488281</ele>
        <time>2023-07-19T05:31:32.000Z</time>
      </trkpt>
      <trkpt lat="42.54291" lon="2.04087">
        <ele>1716.4000244141</ele>
        <time>2023-07-19T05:31:42.000Z</time>
      </trkpt>
      <trkpt lat="42.54297" lon="2.04097">
        <ele>1716.5999755859</ele>
        <time>2023-07-19T05:31:49.000Z</time>
      </trkpt>
      <trkpt lat="42.54306" lon="2.04106">
        <ele>1717</ele>
        <time>2023-07-19T05:31:57.000Z</time>
      </trkpt>
      <trkpt lat="42.54318" lon="2.04114">
        <ele>1717</ele>
        <time>2023-07-19T05:32:05.000Z</time>
      </trkpt>
      <trkpt lat="42.54319" lon="2.04115">
        <ele>1717</ele>
        <time>2023-07-19T05:32:12.000Z</time>
      </trkpt>
      <trkpt lat="42.54328" lon="2.04117">
        <ele>1717.1999511719</ele>
        <time>2023-07-19T05:32:20.000Z</time>
      </trkpt>
      <trkpt lat="42.54331" lon="2.04118">
        <ele>1717.1999511719</ele>
        <time>2023-07-19T05:32:23.000Z</time>
      </trkpt>
      <trkpt lat="42.54335" lon="2.04119">
        <ele>1717.1999511719</ele>
        <time>2023-07-19T05:32:26.000Z</time>
      </trkpt>
      <trkpt lat="42.54347" lon="2.04121">
        <ele>1717.5999755859</ele>
        <time>2023-07-19T05:32:33.000Z</time>
      </trkpt>
      <trkpt lat="42.54362" lon="2.04123">
        <ele>1717.8000488281</ele>
        <time>2023-07-19T05:32:42.000Z</time>
      </trkpt>
      <trkpt lat="42.54373" lon="2.04121">
        <ele>1718</ele>
        <time>2023-07-19T05:32:50.000Z</time>
      </trkpt>
      <trkpt lat="42.54378" lon="2.04122">
        <ele>1718.1999511719</ele>
        <time>2023-07-19T05:32:53.000Z</time>
      </trkpt>
      <trkpt lat="42.54386" lon="2.04122">
        <ele>1718.1999511719</ele>
        <time>2023-07-19T05:32:59.000Z</time>
      </trkpt>
      <trkpt lat="42.54401" lon="2.04122">
        <ele>1718.4000244141</ele>
        <time>2023-07-19T05:33:08.000Z</time>
      </trkpt>
      <trkpt lat="42.54413" lon="2.04124">
        <ele>1718.5999755859</ele>
        <time>2023-07-19T05:33:16.000Z</time>
      </trkpt>
      <trkpt lat="42.54424" lon="2.04125">
        <ele>1718.8000488281</ele>
        <time>2023-07-19T05:33:24.000Z</time>
      </trkpt>
      <trkpt lat="42.54437" lon="2.04126">
        <ele>1718.5999755859</ele>
        <time>2023-07-19T05:33:34.000Z</time>
      </trkpt>
      <trkpt lat="42.54451" lon="2.04127">
        <ele>1719</ele>
        <time>2023-07-19T05:33:45.000Z</time>
      </trkpt>
      <trkpt lat="42.54458" lon="2.04127">
        <ele>1719.1999511719</ele>
        <time>2023-07-19T05:33:51.000Z</time>
      </trkpt>
      <trkpt lat="42.54461" lon="2.04128">
        <ele>1719.1999511719</ele>
        <time>2023-07-19T05:33:54.000Z</time>
      </trkpt>
      <trkpt lat="42.54465" lon="2.04128">
        <ele>1719.4000244141</ele>
        <time>2023-07-19T05:33:57.000Z</time>
      </trkpt>
      <trkpt lat="42.54471" lon="2.04128">
        <ele>1719.5999755859</ele>
        <time>2023-07-19T05:34:03.000Z</time>
      </trkpt>
      <trkpt lat="42.54472" lon="2.04126">
        <ele>1719.5999755859</ele>
        <time>2023-07-19T05:34:09.000Z</time>
      </trkpt>
      <trkpt lat="42.54471" lon="2.04127">
        <ele>1719.4000244141</ele>
        <time>2023-07-19T05:34:12.000Z</time>
      </trkpt>
      <trkpt lat="42.5447" lon="2.04128">
        <ele>1719.4000244141</ele>
        <time>2023-07-19T05:34:21.000Z</time>
      </trkpt>
      <trkpt lat="42.54469" lon="2.04115">
        <ele>1719.4000244141</ele>
        <time>2023-07-19T05:34:29.000Z</time>
      </trkpt>
      <trkpt lat="42.54467" lon="2.04108">
        <ele>1719.1999511719</ele>
        <time>2023-07-19T05:34:37.000Z</time>
      </trkpt>
      <trkpt lat="42.54469" lon="2.04102">
        <ele>1719.1999511719</ele>
        <time>2023-07-19T05:34:43.000Z</time>
      </trkpt>
      <trkpt lat="42.54471" lon="2.0409">
        <ele>1719.1999511719</ele>
        <time>2023-07-19T05:34:51.000Z</time>
      </trkpt>
      <trkpt lat="42.54474" lon="2.04078">
        <ele>1719.5999755859</ele>
        <time>2023-07-19T05:34:58.000Z</time>
      </trkpt>
      <trkpt lat="42.54476" lon="2.04071">
        <ele>1719.8000488281</ele>
        <time>2023-07-19T05:35:03.000Z</time>
      </trkpt>
      <trkpt lat="42.54476" lon="2.0406">
        <ele>1719.8000488281</ele>
        <time>2023-07-19T05:35:11.000Z</time>
      </trkpt>
      <trkpt lat="42.54475" lon="2.04054">
        <ele>1720.1999511719</ele>
        <time>2023-07-19T05:35:16.000Z</time>
      </trkpt>
      <trkpt lat="42.54474" lon="2.04052">
        <ele>1720.1999511719</ele>
        <time>2023-07-19T05:35:18.000Z</time>
      </trkpt>
      <trkpt lat="42.54474" lon="2.04044">
        <ele>1720.4000244141</ele>
        <time>2023-07-19T05:35:25.000Z</time>
      </trkpt>
      <trkpt lat="42.54475" lon="2.04041">
        <ele>1720.5999755859</ele>
        <time>2023-07-19T05:35:33.000Z</time>
      </trkpt>
      <trkpt lat="42.54479" lon="2.04035">
        <ele>1720.8000488281</ele>
        <time>2023-07-19T05:35:39.000Z</time>
      </trkpt>
      <trkpt lat="42.54481" lon="2.04026">
        <ele>1721</ele>
        <time>2023-07-19T05:35:45.000Z</time>
      </trkpt>
      <trkpt lat="42.5448" lon="2.04015">
        <ele>1720.5999755859</ele>
        <time>2023-07-19T05:35:54.000Z</time>
      </trkpt>
      <trkpt lat="42.5448" lon="2.04009">
        <ele>1721.1999511719</ele>
        <time>2023-07-19T05:36:01.000Z</time>
      </trkpt>
      <trkpt lat="42.5448" lon="2.04008">
        <ele>1721.4000244141</ele>
        <time>2023-07-19T05:36:02.000Z</time>
      </trkpt>
      <trkpt lat="42.54484" lon="2.04">
        <ele>1721.5999755859</ele>
        <time>2023-07-19T05:36:08.000Z</time>
      </trkpt>
      <trkpt lat="42.54488" lon="2.03993">
        <ele>1722</ele>
        <time>2023-07-19T05:36:15.000Z</time>
      </trkpt>
      <trkpt lat="42.54486" lon="2.03994">
        <ele>1722</ele>
        <time>2023-07-19T05:36:16.000Z</time>
      </trkpt>
      <trkpt lat="42.5448" lon="2.04001">
        <ele>1721.8000488281</ele>
        <time>2023-07-19T05:36:22.000Z</time>
      </trkpt>
      <trkpt lat="42.54476" lon="2.04014">
        <ele>1721.4000244141</ele>
        <time>2023-07-19T05:36:30.000Z</time>
      </trkpt>
      <trkpt lat="42.54479" lon="2.04023">
        <ele>1721</ele>
        <time>2023-07-19T05:36:38.000Z</time>
      </trkpt>
      <trkpt lat="42.54475" lon="2.04037">
        <ele>1721.1999511719</ele>
        <time>2023-07-19T05:36:47.000Z</time>
      </trkpt>
      <trkpt lat="42.54472" lon="2.04046">
        <ele>1721</ele>
        <time>2023-07-19T05:36:53.000Z</time>
      </trkpt>
      <trkpt lat="42.54473" lon="2.04057">
        <ele>1720.5999755859</ele>
        <time>2023-07-19T05:37:00.000Z</time>
      </trkpt>
      <trkpt lat="42.54476" lon="2.04067">
        <ele>1720.1999511719</ele>
        <time>2023-07-19T05:37:06.000Z</time>
      </trkpt>
      <trkpt lat="42.54476" lon="2.04074">
        <ele>1720</ele>
        <time>2023-07-19T05:37:10.000Z</time>
      </trkpt>
      <trkpt lat="42.54471" lon="2.0409">
        <ele>1719.5999755859</ele>
        <time>2023-07-19T05:37:21.000Z</time>
      </trkpt>
      <trkpt lat="42.54469" lon="2.04096">
        <ele>1719.1999511719</ele>
        <time>2023-07-19T05:37:25.000Z</time>
      </trkpt>
      <trkpt lat="42.54467" lon="2.04105">
        <ele>1719.1999511719</ele>
        <time>2023-07-19T05:37:31.000Z</time>
      </trkpt>
      <trkpt lat="42.54469" lon="2.04116">
        <ele>1719.1999511719</ele>
        <time>2023-07-19T05:37:39.000Z</time>
      </trkpt>
      <trkpt lat="42.54472" lon="2.04126">
        <ele>1719.4000244141</ele>
        <time>2023-07-19T05:37:47.000Z</time>
      </trkpt>
      <trkpt lat="42.5448" lon="2.04131">
        <ele>1719.8000488281</ele>
        <time>2023-07-19T05:37:53.000Z</time>
      </trkpt>
      <trkpt lat="42.54488" lon="2.04137">
        <ele>1719.4000244141</ele>
        <time>2023-07-19T05:38:00.000Z</time>
      </trkpt>
      <trkpt lat="42.54493" lon="2.0414">
        <ele>1719.4000244141</ele>
        <time>2023-07-19T05:38:07.000Z</time>
      </trkpt>
      <trkpt lat="42.54493" lon="2.04144">
        <ele>1719.5999755859</ele>
        <time>2023-07-19T05:38:15.000Z</time>
      </trkpt>
      <trkpt lat="42.54493" lon="2.04145">
        <ele>1719.5999755859</ele>
        <time>2023-07-19T05:38:17.000Z</time>
      </trkpt>
      <trkpt lat="42.545" lon="2.04147">
        <ele>1719.1999511719</ele>
        <time>2023-07-19T05:38:25.000Z</time>
      </trkpt>
      <trkpt lat="42.54509" lon="2.04151">
        <ele>1718.1999511719</ele>
        <time>2023-07-19T05:38:32.000Z</time>
      </trkpt>
      <trkpt lat="42.54521" lon="2.04151">
        <ele>1717.4000244141</ele>
        <time>2023-07-19T05:38:40.000Z</time>
      </trkpt>
      <trkpt lat="42.54525" lon="2.04149">
        <ele>1717.1999511719</ele>
        <time>2023-07-19T05:38:43.000Z</time>
      </trkpt>
      <trkpt lat="42.54533" lon="2.04147">
        <ele>1717</ele>
        <time>2023-07-19T05:38:48.000Z</time>
      </trkpt>
      <trkpt lat="42.54547" lon="2.04142">
        <ele>1716.8000488281</ele>
        <time>2023-07-19T05:38:57.000Z</time>
      </trkpt>
      <trkpt lat="42.54557" lon="2.04131">
        <ele>1717</ele>
        <time>2023-07-19T05:39:05.000Z</time>
      </trkpt>
      <trkpt lat="42.54559" lon="2.04129">
        <ele>1717.4000244141</ele>
        <time>2023-07-19T05:39:10.000Z</time>
      </trkpt>
      <trkpt lat="42.54569" lon="2.04121">
        <ele>1717.8000488281</ele>
        <time>2023-07-19T05:39:19.000Z</time>
      </trkpt>
      <trkpt lat="42.54576" lon="2.04112">
        <ele>1718.1999511719</ele>
        <time>2023-07-19T05:39:26.000Z</time>
      </trkpt>
      <trkpt lat="42.54584" lon="2.04101">
        <ele>1718.8000488281</ele>
        <time>2023-07-19T05:39:34.000Z</time>
      </trkpt>
      <trkpt lat="42.54588" lon="2.04098">
        <ele>1719.1999511719</ele>
        <time>2023-07-19T05:39:37.000Z</time>
      </trkpt>
      <trkpt lat="42.54592" lon="2.04093">
        <ele>1719.5999755859</ele>
        <time>2023-07-19T05:39:42.000Z</time>
      </trkpt>
      <trkpt lat="42.54595" lon="2.04088">
        <ele>1720.1999511719</ele>
        <time>2023-07-19T05:39:47.000Z</time>
      </trkpt>
      <trkpt lat="42.54597" lon="2.04083">
        <ele>1720.5999755859</ele>
        <time>2023-07-19T05:39:51.000Z</time>
      </trkpt>
      <trkpt lat="42.54606" lon="2.0407">
        <ele>1721.1999511719</ele>
        <time>2023-07-19T05:39:59.000Z</time>
      </trkpt>
      <trkpt lat="42.5461" lon="2.04066">
        <ele>1721.1999511719</ele>
        <time>2023-07-19T05:40:03.000Z</time>
      </trkpt>
      <trkpt lat="42.54613" lon="2.04063">
        <ele>1721.5999755859</ele>
        <time>2023-07-19T05:40:06.000Z</time>
      </trkpt>
      <trkpt lat="42.54621" lon="2.04049">
        <ele>1722.1999511719</ele>
        <time>2023-07-19T05:40:13.000Z</time>
      </trkpt>
      <trkpt lat="42.54626" lon="2.04041">
        <ele>1723.1999511719</ele>
        <time>2023-07-19T05:40:19.000Z</time>
      </trkpt>
      <trkpt lat="42.54627" lon="2.04038">
        <ele>1723.4000244141</ele>
        <time>2023-07-19T05:40:21.000Z</time>
      </trkpt>
      <trkpt lat="42.54632" lon="2.04033">
        <ele>1724.1999511719</ele>
        <time>2023-07-19T05:40:28.000Z</time>
      </trkpt>
      <trkpt lat="42.54635" lon="2.04033">
        <ele>1724.4000244141</ele>
        <time>2023-07-19T05:40:31.000Z</time>
      </trkpt>
      <trkpt lat="42.54635" lon="2.04034">
        <ele>1724.5999755859</ele>
        <time>2023-07-19T05:40:32.000Z</time>
      </trkpt>
      <trkpt lat="42.54636" lon="2.04038">
        <ele>1724.5999755859</ele>
        <time>2023-07-19T05:40:35.000Z</time>
      </trkpt>
      <trkpt lat="42.54637" lon="2.04042">
        <ele>1724.5999755859</ele>
        <time>2023-07-19T05:40:43.000Z</time>
      </trkpt>
      <trkpt lat="42.54638" lon="2.04045">
        <ele>1724.5999755859</ele>
        <time>2023-07-19T05:40:51.000Z</time>
      </trkpt>
      <trkpt lat="42.54637" lon="2.0404">
        <ele>1724.4000244141</ele>
        <time>2023-07-19T05:41:01.000Z</time>
      </trkpt>
      <trkpt lat="42.54639" lon="2.04032">
        <ele>1724.8000488281</ele>
        <time>2023-07-19T05:41:08.000Z</time>
      </trkpt>
      <trkpt lat="42.54642" lon="2.04027">
        <ele>1725</ele>
        <time>2023-07-19T05:41:17.000Z</time>
      </trkpt>
      <trkpt lat="42.54647" lon="2.04031">
        <ele>1725</ele>
        <time>2023-07-19T05:41:24.000Z</time>
      </trkpt>
      <trkpt lat="42.54653" lon="2.04029">
        <ele>1724.8000488281</ele>
        <time>2023-07-19T05:41:31.000Z</time>
      </trkpt>
      <trkpt lat="42.54653" lon="2.0402">
        <ele>1724.8000488281</ele>
        <time>2023-07-19T05:41:37.000Z</time>
      </trkpt>
      <trkpt lat="42.54655" lon="2.04011">
        <ele>1725.4000244141</ele>
        <time>2023-07-19T05:41:44.000Z</time>
      </trkpt>
      <trkpt lat="42.54657" lon="2.04007">
        <ele>1725.4000244141</ele>
        <time>2023-07-19T05:41:46.000Z</time>
      </trkpt>
      <trkpt lat="42.54662" lon="2.03995">
        <ele>1725.8000488281</ele>
        <time>2023-07-19T05:41:53.000Z</time>
      </trkpt>
      <trkpt lat="42.54664" lon="2.0399">
        <ele>1726.4000244141</ele>
        <time>2023-07-19T05:41:57.000Z</time>
      </trkpt>
      <trkpt lat="42.54669" lon="2.03979">
        <ele>1726.5999755859</ele>
        <time>2023-07-19T05:42:03.000Z</time>
      </trkpt>
      <trkpt lat="42.54677" lon="2.03967">
        <ele>1727.1999511719</ele>
        <time>2023-07-19T05:42:11.000Z</time>
      </trkpt>
      <trkpt lat="42.54685" lon="2.03957">
        <ele>1727.5999755859</ele>
        <time>2023-07-19T05:42:18.000Z</time>
      </trkpt>
      <trkpt lat="42.54688" lon="2.03953">
        <ele>1727.5999755859</ele>
        <time>2023-07-19T05:42:20.000Z</time>
      </trkpt>
      <trkpt lat="42.54697" lon="2.0395">
        <ele>1728.1999511719</ele>
        <time>2023-07-19T05:42:27.000Z</time>
      </trkpt>
      <trkpt lat="42.54707" lon="2.03944">
        <ele>1728.5999755859</ele>
        <time>2023-07-19T05:42:34.000Z</time>
      </trkpt>
      <trkpt lat="42.54708" lon="2.03943">
        <ele>1728.5999755859</ele>
        <time>2023-07-19T05:42:35.000Z</time>
      </trkpt>
      <trkpt lat="42.54724" lon="2.03933">
        <ele>1729.1999511719</ele>
        <time>2023-07-19T05:42:45.000Z</time>
      </trkpt>
      <trkpt lat="42.54725" lon="2.03932">
        <ele>1729.1999511719</ele>
        <time>2023-07-19T05:42:46.000Z</time>
      </trkpt>
      <trkpt lat="42.54733" lon="2.03924">
        <ele>1729.5999755859</ele>
        <time>2023-07-19T05:42:52.000Z</time>
      </trkpt>
      <trkpt lat="42.54736" lon="2.0392">
        <ele>1729.8000488281</ele>
        <time>2023-07-19T05:42:54.000Z</time>
      </trkpt>
      <trkpt lat="42.54745" lon="2.03909">
        <ele>1730.4000244141</ele>
        <time>2023-07-19T05:43:01.000Z</time>
      </trkpt>
      <trkpt lat="42.54749" lon="2.03906">
        <ele>1730.5999755859</ele>
        <time>2023-07-19T05:43:05.000Z</time>
      </trkpt>
      <trkpt lat="42.54752" lon="2.03903">
        <ele>1731</ele>
        <time>2023-07-19T05:43:08.000Z</time>
      </trkpt>
      <trkpt lat="42.5476" lon="2.03893">
        <ele>1731.8000488281</ele>
        <time>2023-07-19T05:43:16.000Z</time>
      </trkpt>
      <trkpt lat="42.54767" lon="2.03881">
        <ele>1732.8000488281</ele>
        <time>2023-07-19T05:43:24.000Z</time>
      </trkpt>
      <trkpt lat="42.54771" lon="2.03869">
        <ele>1733.5999755859</ele>
        <time>2023-07-19T05:43:31.000Z</time>
      </trkpt>
      <trkpt lat="42.54773" lon="2.03862">
        <ele>1734</ele>
        <time>2023-07-19T05:43:34.000Z</time>
      </trkpt>
      <trkpt lat="42.54775" lon="2.03853">
        <ele>1734.4000244141</ele>
        <time>2023-07-19T05:43:38.000Z</time>
      </trkpt>
      <trkpt lat="42.54776" lon="2.03848">
        <ele>1735</ele>
        <time>2023-07-19T05:43:41.000Z</time>
      </trkpt>
      <trkpt lat="42.54776" lon="2.0384">
        <ele>1735.1999511719</ele>
        <time>2023-07-19T05:43:45.000Z</time>
      </trkpt>
      <trkpt lat="42.54781" lon="2.03828">
        <ele>1736</ele>
        <time>2023-07-19T05:43:53.000Z</time>
      </trkpt>
      <trkpt lat="42.54782" lon="2.03827">
        <ele>1736.1999511719</ele>
        <time>2023-07-19T05:43:54.000Z</time>
      </trkpt>
      <trkpt lat="42.54786" lon="2.03812">
        <ele>1737.1999511719</ele>
        <time>2023-07-19T05:44:02.000Z</time>
      </trkpt>
      <trkpt lat="42.54793" lon="2.03796">
        <ele>1738.4000244141</ele>
        <time>2023-07-19T05:44:11.000Z</time>
      </trkpt>
      <trkpt lat="42.548" lon="2.03788">
        <ele>1739.4000244141</ele>
        <time>2023-07-19T05:44:18.000Z</time>
      </trkpt>
      <trkpt lat="42.54801" lon="2.03788">
        <ele>1739.5999755859</ele>
        <time>2023-07-19T05:44:19.000Z</time>
      </trkpt>
      <trkpt lat="42.54803" lon="2.03786">
        <ele>1740.1999511719</ele>
        <time>2023-07-19T05:44:27.000Z</time>
      </trkpt>
      <trkpt lat="42.54801" lon="2.03787">
        <ele>1740.1999511719</ele>
        <time>2023-07-19T05:44:29.000Z</time>
      </trkpt>
      <trkpt lat="42.54801" lon="2.03785">
        <ele>1740</ele>
        <time>2023-07-19T05:44:35.000Z</time>
      </trkpt>
      <trkpt lat="42.54814" lon="2.0378">
        <ele>1740.4000244141</ele>
        <time>2023-07-19T05:44:43.000Z</time>
      </trkpt>
      <trkpt lat="42.54814" lon="2.03779">
        <ele>1740.5999755859</ele>
        <time>2023-07-19T05:44:44.000Z</time>
      </trkpt>
      <trkpt lat="42.5482" lon="2.03776">
        <ele>1741.4000244141</ele>
        <time>2023-07-19T05:44:49.000Z</time>
      </trkpt>
      <trkpt lat="42.54824" lon="2.03774">
        <ele>1742</ele>
        <time>2023-07-19T05:44:53.000Z</time>
      </trkpt>
      <trkpt lat="42.54827" lon="2.03772">
        <ele>1742.5999755859</ele>
        <time>2023-07-19T05:44:57.000Z</time>
      </trkpt>
      <trkpt lat="42.54834" lon="2.03764">
        <ele>1743.1999511719</ele>
        <time>2023-07-19T05:45:03.000Z</time>
      </trkpt>
      <trkpt lat="42.54836" lon="2.03763">
        <ele>1743.5999755859</ele>
        <time>2023-07-19T05:45:05.000Z</time>
      </trkpt>
      <trkpt lat="42.54844" lon="2.03757">
        <ele>1744.5999755859</ele>
        <time>2023-07-19T05:45:13.000Z</time>
      </trkpt>
      <trkpt lat="42.54853" lon="2.03749">
        <ele>1745.5999755859</ele>
        <time>2023-07-19T05:45:22.000Z</time>
      </trkpt>
      <trkpt lat="42.54854" lon="2.03748">
        <ele>1745.8000488281</ele>
        <time>2023-07-19T05:45:23.000Z</time>
      </trkpt>
      <trkpt lat="42.54861" lon="2.03745">
        <ele>1746.8000488281</ele>
        <time>2023-07-19T05:45:30.000Z</time>
      </trkpt>
      <trkpt lat="42.54861" lon="2.03746">
        <ele>1747</ele>
        <time>2023-07-19T05:45:31.000Z</time>
      </trkpt>
      <trkpt lat="42.54861" lon="2.03749">
        <ele>1747.1999511719</ele>
        <time>2023-07-19T05:45:39.000Z</time>
      </trkpt>
      <trkpt lat="42.54862" lon="2.03742">
        <ele>1747</ele>
        <time>2023-07-19T05:45:48.000Z</time>
      </trkpt>
      <trkpt lat="42.54864" lon="2.03743">
        <ele>1747</ele>
        <time>2023-07-19T05:45:55.000Z</time>
      </trkpt>
      <trkpt lat="42.54868" lon="2.0374">
        <ele>1747</ele>
        <time>2023-07-19T05:46:03.000Z</time>
      </trkpt>
      <trkpt lat="42.54877" lon="2.03733">
        <ele>1747.8000488281</ele>
        <time>2023-07-19T05:46:11.000Z</time>
      </trkpt>
      <trkpt lat="42.54877" lon="2.03733">
        <ele>1747.8000488281</ele>
        <time>2023-07-19T05:46:12.000Z</time>
      </trkpt>
      <trkpt lat="42.54885" lon="2.03731">
        <ele>1748.8000488281</ele>
        <time>2023-07-19T05:46:20.000Z</time>
      </trkpt>
      <trkpt lat="42.54892" lon="2.03728">
        <ele>1750</ele>
        <time>2023-07-19T05:46:27.000Z</time>
      </trkpt>
      <trkpt lat="42.54901" lon="2.03722">
        <ele>1751</ele>
        <time>2023-07-19T05:46:34.000Z</time>
      </trkpt>
      <trkpt lat="42.54903" lon="2.0372">
        <ele>1751.1999511719</ele>
        <time>2023-07-19T05:46:35.000Z</time>
      </trkpt>
      <trkpt lat="42.54909" lon="2.0371">
        <ele>1752.1999511719</ele>
        <time>2023-07-19T05:46:40.000Z</time>
      </trkpt>
      <trkpt lat="42.54909" lon="2.03705">
        <ele>1752.8000488281</ele>
        <time>2023-07-19T05:46:43.000Z</time>
      </trkpt>
      <trkpt lat="42.54908" lon="2.037">
        <ele>1753.4000244141</ele>
        <time>2023-07-19T05:46:47.000Z</time>
      </trkpt>
      <trkpt lat="42.54907" lon="2.03694">
        <ele>1753.8000488281</ele>
        <time>2023-07-19T05:46:50.000Z</time>
      </trkpt>
      <trkpt lat="42.54903" lon="2.03686">
        <ele>1754.4000244141</ele>
        <time>2023-07-19T05:46:54.000Z</time>
      </trkpt>
      <trkpt lat="42.54898" lon="2.0368">
        <ele>1755</ele>
        <time>2023-07-19T05:46:58.000Z</time>
      </trkpt>
      <trkpt lat="42.54896" lon="2.03677">
        <ele>1755.4000244141</ele>
        <time>2023-07-19T05:47:01.000Z</time>
      </trkpt>
      <trkpt lat="42.54893" lon="2.03671">
        <ele>1755.8000488281</ele>
        <time>2023-07-19T05:47:05.000Z</time>
      </trkpt>
      <trkpt lat="42.54889" lon="2.03661">
        <ele>1756.5999755859</ele>
        <time>2023-07-19T05:47:10.000Z</time>
      </trkpt>
      <trkpt lat="42.54889" lon="2.03657">
        <ele>1757</ele>
        <time>2023-07-19T05:47:12.000Z</time>
      </trkpt>
      <trkpt lat="42.54889" lon="2.03644">
        <ele>1757.5999755859</ele>
        <time>2023-07-19T05:47:19.000Z</time>
      </trkpt>
      <trkpt lat="42.54889" lon="2.03642">
        <ele>1757.8000488281</ele>
        <time>2023-07-19T05:47:20.000Z</time>
      </trkpt>
      <trkpt lat="42.5489" lon="2.03626">
        <ele>1758.8000488281</ele>
        <time>2023-07-19T05:47:28.000Z</time>
      </trkpt>
      <trkpt lat="42.5489" lon="2.03614">
        <ele>1760</ele>
        <time>2023-07-19T05:47:36.000Z</time>
      </trkpt>
      <trkpt lat="42.5489" lon="2.03613">
        <ele>1760</ele>
        <time>2023-07-19T05:47:37.000Z</time>
      </trkpt>
      <trkpt lat="42.54889" lon="2.03613">
        <ele>1760.4000244141</ele>
        <time>2023-07-19T05:47:45.000Z</time>
      </trkpt>
      <trkpt lat="42.54889" lon="2.03612">
        <ele>1760.4000244141</ele>
        <time>2023-07-19T05:47:55.000Z</time>
      </trkpt>
      <trkpt lat="42.54887" lon="2.03602">
        <ele>1760.4000244141</ele>
        <time>2023-07-19T05:48:02.000Z</time>
      </trkpt>
      <trkpt lat="42.54887" lon="2.03592">
        <ele>1761</ele>
        <time>2023-07-19T05:48:07.000Z</time>
      </trkpt>
      <trkpt lat="42.54889" lon="2.03587">
        <ele>1761.1999511719</ele>
        <time>2023-07-19T05:48:10.000Z</time>
      </trkpt>
      <trkpt lat="42.54893" lon="2.03575">
        <ele>1761.8000488281</ele>
        <time>2023-07-19T05:48:18.000Z</time>
      </trkpt>
      <trkpt lat="42.54893" lon="2.03573">
        <ele>1762</ele>
        <time>2023-07-19T05:48:19.000Z</time>
      </trkpt>
      <trkpt lat="42.54901" lon="2.03557">
        <ele>1763</ele>
        <time>2023-07-19T05:48:28.000Z</time>
      </trkpt>
      <trkpt lat="42.54905" lon="2.03547">
        <ele>1763.8000488281</ele>
        <time>2023-07-19T05:48:35.000Z</time>
      </trkpt>
      <trkpt lat="42.54906" lon="2.03544">
        <ele>1764.1999511719</ele>
        <time>2023-07-19T05:48:37.000Z</time>
      </trkpt>
      <trkpt lat="42.54911" lon="2.03531">
        <ele>1765</ele>
        <time>2023-07-19T05:48:44.000Z</time>
      </trkpt>
      <trkpt lat="42.54912" lon="2.03528">
        <ele>1765.4000244141</ele>
        <time>2023-07-19T05:48:46.000Z</time>
      </trkpt>
      <trkpt lat="42.54915" lon="2.0352">
        <ele>1766</ele>
        <time>2023-07-19T05:48:52.000Z</time>
      </trkpt>
      <trkpt lat="42.54918" lon="2.03515">
        <ele>1766.4000244141</ele>
        <time>2023-07-19T05:48:55.000Z</time>
      </trkpt>
      <trkpt lat="42.54926" lon="2.03499">
        <ele>1767.4000244141</ele>
        <time>2023-07-19T05:49:03.000Z</time>
      </trkpt>
      <trkpt lat="42.54927" lon="2.03497">
        <ele>1767.5999755859</ele>
        <time>2023-07-19T05:49:04.000Z</time>
      </trkpt>
      <trkpt lat="42.54931" lon="2.03487">
        <ele>1768.4000244141</ele>
        <time>2023-07-19T05:49:11.000Z</time>
      </trkpt>
      <trkpt lat="42.54932" lon="2.03486">
        <ele>1768.5999755859</ele>
        <time>2023-07-19T05:49:13.000Z</time>
      </trkpt>
      <trkpt lat="42.54937" lon="2.0348">
        <ele>1769.4000244141</ele>
        <time>2023-07-19T05:49:18.000Z</time>
      </trkpt>
      <trkpt lat="42.54944" lon="2.03477">
        <ele>1769.8000488281</ele>
        <time>2023-07-19T05:49:21.000Z</time>
      </trkpt>
      <trkpt lat="42.54953" lon="2.03477">
        <ele>1770.4000244141</ele>
        <time>2023-07-19T05:49:26.000Z</time>
      </trkpt>
      <trkpt lat="42.54962" lon="2.03485">
        <ele>1770.8000488281</ele>
        <time>2023-07-19T05:49:32.000Z</time>
      </trkpt>
      <trkpt lat="42.54967" lon="2.03493">
        <ele>1771.5999755859</ele>
        <time>2023-07-19T05:49:38.000Z</time>
      </trkpt>
      <trkpt lat="42.54967" lon="2.03496">
        <ele>1771.8000488281</ele>
        <time>2023-07-19T05:49:40.000Z</time>
      </trkpt>
      <trkpt lat="42.54969" lon="2.03503">
        <ele>1772.5999755859</ele>
        <time>2023-07-19T05:49:46.000Z</time>
      </trkpt>
      <trkpt lat="42.54969" lon="2.0351">
        <ele>1773</ele>
        <time>2023-07-19T05:49:49.000Z</time>
      </trkpt>
      <trkpt lat="42.54969" lon="2.03518">
        <ele>1773.4000244141</ele>
        <time>2023-07-19T05:49:53.000Z</time>
      </trkpt>
      <trkpt lat="42.54969" lon="2.03531">
        <ele>1774</ele>
        <time>2023-07-19T05:49:58.000Z</time>
      </trkpt>
      <trkpt lat="42.5497" lon="2.03539">
        <ele>1774.8000488281</ele>
        <time>2023-07-19T05:50:03.000Z</time>
      </trkpt>
      <trkpt lat="42.54971" lon="2.03542">
        <ele>1775.1999511719</ele>
        <time>2023-07-19T05:50:05.000Z</time>
      </trkpt>
      <trkpt lat="42.54976" lon="2.03549">
        <ele>1776.4000244141</ele>
        <time>2023-07-19T05:50:11.000Z</time>
      </trkpt>
      <trkpt lat="42.54982" lon="2.03559">
        <ele>1777.4000244141</ele>
        <time>2023-07-19T05:50:18.000Z</time>
      </trkpt>
      <trkpt lat="42.54983" lon="2.03561">
        <ele>1777.5999755859</ele>
        <time>2023-07-19T05:50:19.000Z</time>
      </trkpt>
      <trkpt lat="42.54987" lon="2.03568">
        <ele>1778.5999755859</ele>
        <time>2023-07-19T05:50:26.000Z</time>
      </trkpt>
      <trkpt lat="42.54988" lon="2.03569">
        <ele>1778.5999755859</ele>
        <time>2023-07-19T05:50:27.000Z</time>
      </trkpt>
      <trkpt lat="42.54998" lon="2.03572">
        <ele>1779.1999511719</ele>
        <time>2023-07-19T05:50:34.000Z</time>
      </trkpt>
      <trkpt lat="42.55001" lon="2.0357">
        <ele>1779.5999755859</ele>
        <time>2023-07-19T05:50:36.000Z</time>
      </trkpt>
      <trkpt lat="42.55007" lon="2.03558">
        <ele>1780.4000244141</ele>
        <time>2023-07-19T05:50:41.000Z</time>
      </trkpt>
      <trkpt lat="42.55007" lon="2.03556">
        <ele>1780.5999755859</ele>
        <time>2023-07-19T05:50:42.000Z</time>
      </trkpt>
      <trkpt lat="42.55008" lon="2.0355">
        <ele>1781.5999755859</ele>
        <time>2023-07-19T05:50:46.000Z</time>
      </trkpt>
      <trkpt lat="42.55007" lon="2.03548">
        <ele>1781.8000488281</ele>
        <time>2023-07-19T05:50:47.000Z</time>
      </trkpt>
      <trkpt lat="42.55007" lon="2.0354">
        <ele>1782.8000488281</ele>
        <time>2023-07-19T05:50:53.000Z</time>
      </trkpt>
      <trkpt lat="42.55007" lon="2.03539">
        <ele>1782.8000488281</ele>
        <time>2023-07-19T05:50:54.000Z</time>
      </trkpt>
      <trkpt lat="42.55011" lon="2.03527">
        <ele>1784</ele>
        <time>2023-07-19T05:51:00.000Z</time>
      </trkpt>
      <trkpt lat="42.55014" lon="2.03523">
        <ele>1784.1999511719</ele>
        <time>2023-07-19T05:51:03.000Z</time>
      </trkpt>
      <trkpt lat="42.55018" lon="2.0352">
        <ele>1785</ele>
        <time>2023-07-19T05:51:07.000Z</time>
      </trkpt>
      <trkpt lat="42.5502" lon="2.0352">
        <ele>1785.4000244141</ele>
        <time>2023-07-19T05:51:10.000Z</time>
      </trkpt>
      <trkpt lat="42.55028" lon="2.03523">
        <ele>1786</ele>
        <time>2023-07-19T05:51:15.000Z</time>
      </trkpt>
      <trkpt lat="42.55029" lon="2.03523">
        <ele>1786.1999511719</ele>
        <time>2023-07-19T05:51:16.000Z</time>
      </trkpt>
      <trkpt lat="42.55034" lon="2.0353">
        <ele>1787</ele>
        <time>2023-07-19T05:51:22.000Z</time>
      </trkpt>
      <trkpt lat="42.55036" lon="2.03532">
        <ele>1787.1999511719</ele>
        <time>2023-07-19T05:51:23.000Z</time>
      </trkpt>
      <trkpt lat="42.55041" lon="2.03543">
        <ele>1788.1999511719</ele>
        <time>2023-07-19T05:51:30.000Z</time>
      </trkpt>
      <trkpt lat="42.55046" lon="2.03555">
        <ele>1789.4000244141</ele>
        <time>2023-07-19T05:51:37.000Z</time>
      </trkpt>
      <trkpt lat="42.55046" lon="2.03557">
        <ele>1789.5999755859</ele>
        <time>2023-07-19T05:51:38.000Z</time>
      </trkpt>
      <trkpt lat="42.55048" lon="2.03562">
        <ele>1790.4000244141</ele>
        <time>2023-07-19T05:51:42.000Z</time>
      </trkpt>
      <trkpt lat="42.55049" lon="2.03566">
        <ele>1790.8000488281</ele>
        <time>2023-07-19T05:51:45.000Z</time>
      </trkpt>
      <trkpt lat="42.55054" lon="2.03581">
        <ele>1791.5999755859</ele>
        <time>2023-07-19T05:51:52.000Z</time>
      </trkpt>
      <trkpt lat="42.55058" lon="2.03588">
        <ele>1792.5999755859</ele>
        <time>2023-07-19T05:52:00.000Z</time>
      </trkpt>
      <trkpt lat="42.55058" lon="2.03588">
        <ele>1792.8000488281</ele>
        <time>2023-07-19T05:52:01.000Z</time>
      </trkpt>
      <trkpt lat="42.55059" lon="2.03589">
        <ele>1793</ele>
        <time>2023-07-19T05:52:09.000Z</time>
      </trkpt>
      <trkpt lat="42.55063" lon="2.03597">
        <ele>1793.1999511719</ele>
        <time>2023-07-19T05:52:16.000Z</time>
      </trkpt>
      <trkpt lat="42.55064" lon="2.03601">
        <ele>1793.8000488281</ele>
        <time>2023-07-19T05:52:23.000Z</time>
      </trkpt>
      <trkpt lat="42.55067" lon="2.03603">
        <ele>1794.1999511719</ele>
        <time>2023-07-19T05:52:26.000Z</time>
      </trkpt>
      <trkpt lat="42.5507" lon="2.03604">
        <ele>1795</ele>
        <time>2023-07-19T05:52:29.000Z</time>
      </trkpt>
      <trkpt lat="42.55077" lon="2.03602">
        <ele>1795.5999755859</ele>
        <time>2023-07-19T05:52:33.000Z</time>
      </trkpt>
      <trkpt lat="42.55081" lon="2.03599">
        <ele>1796.1999511719</ele>
        <time>2023-07-19T05:52:36.000Z</time>
      </trkpt>
      <trkpt lat="42.55086" lon="2.03594">
        <ele>1797.4000244141</ele>
        <time>2023-07-19T05:52:40.000Z</time>
      </trkpt>
      <trkpt lat="42.55087" lon="2.03594">
        <ele>1797.5999755859</ele>
        <time>2023-07-19T05:52:41.000Z</time>
      </trkpt>
      <trkpt lat="42.55091" lon="2.0359">
        <ele>1798.4000244141</ele>
        <time>2023-07-19T05:52:45.000Z</time>
      </trkpt>
      <trkpt lat="42.55094" lon="2.03584">
        <ele>1799.5999755859</ele>
        <time>2023-07-19T05:52:51.000Z</time>
      </trkpt>
      <trkpt lat="42.551" lon="2.03575">
        <ele>1800.5999755859</ele>
        <time>2023-07-19T05:52:58.000Z</time>
      </trkpt>
      <trkpt lat="42.55102" lon="2.03572">
        <ele>1801</ele>
        <time>2023-07-19T05:53:00.000Z</time>
      </trkpt>
      <trkpt lat="42.55107" lon="2.03564">
        <ele>1801.8000488281</ele>
        <time>2023-07-19T05:53:06.000Z</time>
      </trkpt>
      <trkpt lat="42.55109" lon="2.03562">
        <ele>1802</ele>
        <time>2023-07-19T05:53:08.000Z</time>
      </trkpt>
      <trkpt lat="42.55116" lon="2.03554">
        <ele>1803</ele>
        <time>2023-07-19T05:53:14.000Z</time>
      </trkpt>
      <trkpt lat="42.55119" lon="2.0355">
        <ele>1803.4000244141</ele>
        <time>2023-07-19T05:53:17.000Z</time>
      </trkpt>
      <trkpt lat="42.55121" lon="2.03544">
        <ele>1804</ele>
        <time>2023-07-19T05:53:21.000Z</time>
      </trkpt>
      <trkpt lat="42.55125" lon="2.03537">
        <ele>1804.8000488281</ele>
        <time>2023-07-19T05:53:26.000Z</time>
      </trkpt>
      <trkpt lat="42.55127" lon="2.03533">
        <ele>1805.1999511719</ele>
        <time>2023-07-19T05:53:29.000Z</time>
      </trkpt>
      <trkpt lat="42.55131" lon="2.03524">
        <ele>1806.1999511719</ele>
        <time>2023-07-19T05:53:35.000Z</time>
      </trkpt>
      <trkpt lat="42.55131" lon="2.03522">
        <ele>1806.1999511719</ele>
        <time>2023-07-19T05:53:36.000Z</time>
      </trkpt>
      <trkpt lat="42.55136" lon="2.03515">
        <ele>1807.1999511719</ele>
        <time>2023-07-19T05:53:41.000Z</time>
      </trkpt>
      <trkpt lat="42.55141" lon="2.03506">
        <ele>1808.4000244141</ele>
        <time>2023-07-19T05:53:47.000Z</time>
      </trkpt>
      <trkpt lat="42.55143" lon="2.03503">
        <ele>1808.8000488281</ele>
        <time>2023-07-19T05:53:50.000Z</time>
      </trkpt>
      <trkpt lat="42.55147" lon="2.035">
        <ele>1809.5999755859</ele>
        <time>2023-07-19T05:53:54.000Z</time>
      </trkpt>
      <trkpt lat="42.55154" lon="2.03496">
        <ele>1810.4000244141</ele>
        <time>2023-07-19T05:53:59.000Z</time>
      </trkpt>
      <trkpt lat="42.55159" lon="2.03495">
        <ele>1810.8000488281</ele>
        <time>2023-07-19T05:54:02.000Z</time>
      </trkpt>
      <trkpt lat="42.55165" lon="2.03491">
        <ele>1811.5999755859</ele>
        <time>2023-07-19T05:54:08.000Z</time>
      </trkpt>
      <trkpt lat="42.55168" lon="2.0349">
        <ele>1811.8000488281</ele>
        <time>2023-07-19T05:54:10.000Z</time>
      </trkpt>
      <trkpt lat="42.55173" lon="2.03484">
        <ele>1812.8000488281</ele>
        <time>2023-07-19T05:54:17.000Z</time>
      </trkpt>
      <trkpt lat="42.55175" lon="2.03482">
        <ele>1813.1999511719</ele>
        <time>2023-07-19T05:54:19.000Z</time>
      </trkpt>
      <trkpt lat="42.55185" lon="2.03476">
        <ele>1814</ele>
        <time>2023-07-19T05:54:25.000Z</time>
      </trkpt>
      <trkpt lat="42.55187" lon="2.03475">
        <ele>1814.1999511719</ele>
        <time>2023-07-19T05:54:27.000Z</time>
      </trkpt>
      <trkpt lat="42.55195" lon="2.03469">
        <ele>1815</ele>
        <time>2023-07-19T05:54:34.000Z</time>
      </trkpt>
      <trkpt lat="42.55196" lon="2.03467">
        <ele>1815.1999511719</ele>
        <time>2023-07-19T05:54:36.000Z</time>
      </trkpt>
      <trkpt lat="42.552" lon="2.03457">
        <ele>1816</ele>
        <time>2023-07-19T05:54:43.000Z</time>
      </trkpt>
      <trkpt lat="42.55201" lon="2.03455">
        <ele>1816.1999511719</ele>
        <time>2023-07-19T05:54:44.000Z</time>
      </trkpt>
      <trkpt lat="42.55199" lon="2.03443">
        <ele>1817</ele>
        <time>2023-07-19T05:54:52.000Z</time>
      </trkpt>
      <trkpt lat="42.55198" lon="2.0344">
        <ele>1817.1999511719</ele>
        <time>2023-07-19T05:54:54.000Z</time>
      </trkpt>
      <trkpt lat="42.55198" lon="2.0343">
        <ele>1817.8000488281</ele>
        <time>2023-07-19T05:55:01.000Z</time>
      </trkpt>
      <trkpt lat="42.55199" lon="2.03426">
        <ele>1818.1999511719</ele>
        <time>2023-07-19T05:55:04.000Z</time>
      </trkpt>
      <trkpt lat="42.55202" lon="2.03414">
        <ele>1819</ele>
        <time>2023-07-19T05:55:11.000Z</time>
      </trkpt>
      <trkpt lat="42.55203" lon="2.03412">
        <ele>1819.1999511719</ele>
        <time>2023-07-19T05:55:13.000Z</time>
      </trkpt>
      <trkpt lat="42.55206" lon="2.03398">
        <ele>1820.1999511719</ele>
        <time>2023-07-19T05:55:20.000Z</time>
      </trkpt>
      <trkpt lat="42.55207" lon="2.03394">
        <ele>1820.4000244141</ele>
        <time>2023-07-19T05:55:22.000Z</time>
      </trkpt>
      <trkpt lat="42.55207" lon="2.03383">
        <ele>1821</ele>
        <time>2023-07-19T05:55:28.000Z</time>
      </trkpt>
      <trkpt lat="42.55206" lon="2.03377">
        <ele>1821.4000244141</ele>
        <time>2023-07-19T05:55:31.000Z</time>
      </trkpt>
      <trkpt lat="42.55206" lon="2.0337">
        <ele>1822.1999511719</ele>
        <time>2023-07-19T05:55:35.000Z</time>
      </trkpt>
      <trkpt lat="42.55206" lon="2.03365">
        <ele>1822.5999755859</ele>
        <time>2023-07-19T05:55:38.000Z</time>
      </trkpt>
      <trkpt lat="42.55205" lon="2.03358">
        <ele>1823.1999511719</ele>
        <time>2023-07-19T05:55:42.000Z</time>
      </trkpt>
      <trkpt lat="42.55204" lon="2.03353">
        <ele>1823.5999755859</ele>
        <time>2023-07-19T05:55:45.000Z</time>
      </trkpt>
      <trkpt lat="42.55204" lon="2.03346">
        <ele>1824.4000244141</ele>
        <time>2023-07-19T05:55:50.000Z</time>
      </trkpt>
      <trkpt lat="42.55204" lon="2.03343">
        <ele>1824.5999755859</ele>
        <time>2023-07-19T05:55:52.000Z</time>
      </trkpt>
      <trkpt lat="42.55206" lon="2.03334">
        <ele>1825.8000488281</ele>
        <time>2023-07-19T05:55:59.000Z</time>
      </trkpt>
      <trkpt lat="42.55207" lon="2.03332">
        <ele>1825.8000488281</ele>
        <time>2023-07-19T05:56:00.000Z</time>
      </trkpt>
      <trkpt lat="42.5521" lon="2.03325">
        <ele>1826.8000488281</ele>
        <time>2023-07-19T05:56:05.000Z</time>
      </trkpt>
      <trkpt lat="42.55212" lon="2.03319">
        <ele>1827.5999755859</ele>
        <time>2023-07-19T05:56:09.000Z</time>
      </trkpt>
      <trkpt lat="42.55213" lon="2.03316">
        <ele>1828</ele>
        <time>2023-07-19T05:56:11.000Z</time>
      </trkpt>
      <trkpt lat="42.55213" lon="2.03309">
        <ele>1829</ele>
        <time>2023-07-19T05:56:16.000Z</time>
      </trkpt>
      <trkpt lat="42.55214" lon="2.03308">
        <ele>1829.1999511719</ele>
        <time>2023-07-19T05:56:18.000Z</time>
      </trkpt>
      <trkpt lat="42.55216" lon="2.03302">
        <ele>1829.8000488281</ele>
        <time>2023-07-19T05:56:27.000Z</time>
      </trkpt>
      <trkpt lat="42.55219" lon="2.03296">
        <ele>1830</ele>
        <time>2023-07-19T05:56:34.000Z</time>
      </trkpt>
      <trkpt lat="42.55219" lon="2.03295">
        <ele>1830.1999511719</ele>
        <time>2023-07-19T05:56:36.000Z</time>
      </trkpt>
      <trkpt lat="42.55219" lon="2.03286">
        <ele>1831.1999511719</ele>
        <time>2023-07-19T05:56:42.000Z</time>
      </trkpt>
      <trkpt lat="42.55219" lon="2.03282">
        <ele>1831.8000488281</ele>
        <time>2023-07-19T05:56:45.000Z</time>
      </trkpt>
      <trkpt lat="42.55219" lon="2.03277">
        <ele>1832.1999511719</ele>
        <time>2023-07-19T05:56:48.000Z</time>
      </trkpt>
      <trkpt lat="42.55217" lon="2.03267">
        <ele>1833</ele>
        <time>2023-07-19T05:56:53.000Z</time>
      </trkpt>
      <trkpt lat="42.55217" lon="2.03263">
        <ele>1833.1999511719</ele>
        <time>2023-07-19T05:56:55.000Z</time>
      </trkpt>
      <trkpt lat="42.55219" lon="2.03254">
        <ele>1834.4000244141</ele>
        <time>2023-07-19T05:57:02.000Z</time>
      </trkpt>
      <trkpt lat="42.55221" lon="2.03244">
        <ele>1835.4000244141</ele>
        <time>2023-07-19T05:57:08.000Z</time>
      </trkpt>
      <trkpt lat="42.55223" lon="2.0324">
        <ele>1835.8000488281</ele>
        <time>2023-07-19T05:57:11.000Z</time>
      </trkpt>
      <trkpt lat="42.55227" lon="2.03229">
        <ele>1836.5999755859</ele>
        <time>2023-07-19T05:57:16.000Z</time>
      </trkpt>
      <trkpt lat="42.55228" lon="2.03227">
        <ele>1836.5999755859</ele>
        <time>2023-07-19T05:57:17.000Z</time>
      </trkpt>
      <trkpt lat="42.55232" lon="2.03218">
        <ele>1837.5999755859</ele>
        <time>2023-07-19T05:57:23.000Z</time>
      </trkpt>
      <trkpt lat="42.55236" lon="2.0321">
        <ele>1838.5999755859</ele>
        <time>2023-07-19T05:57:30.000Z</time>
      </trkpt>
      <trkpt lat="42.55242" lon="2.03201">
        <ele>1839.8000488281</ele>
        <time>2023-07-19T05:57:37.000Z</time>
      </trkpt>
      <trkpt lat="42.55243" lon="2.03199">
        <ele>1839.8000488281</ele>
        <time>2023-07-19T05:57:38.000Z</time>
      </trkpt>
      <trkpt lat="42.5525" lon="2.03189">
        <ele>1841</ele>
        <time>2023-07-19T05:57:45.000Z</time>
      </trkpt>
      <trkpt lat="42.55252" lon="2.03188">
        <ele>1841.1999511719</ele>
        <time>2023-07-19T05:57:46.000Z</time>
      </trkpt>
      <trkpt lat="42.55259" lon="2.03182">
        <ele>1841.8000488281</ele>
        <time>2023-07-19T05:57:53.000Z</time>
      </trkpt>
      <trkpt lat="42.55261" lon="2.0318">
        <ele>1842</ele>
        <time>2023-07-19T05:57:54.000Z</time>
      </trkpt>
      <trkpt lat="42.55267" lon="2.03173">
        <ele>1843</ele>
        <time>2023-07-19T05:58:00.000Z</time>
      </trkpt>
      <trkpt lat="42.55273" lon="2.03165">
        <ele>1844</ele>
        <time>2023-07-19T05:58:07.000Z</time>
      </trkpt>
      <trkpt lat="42.55274" lon="2.03162">
        <ele>1844.4000244141</ele>
        <time>2023-07-19T05:58:09.000Z</time>
      </trkpt>
      <trkpt lat="42.55277" lon="2.03149">
        <ele>1845.1999511719</ele>
        <time>2023-07-19T05:58:16.000Z</time>
      </trkpt>
      <trkpt lat="42.55278" lon="2.03146">
        <ele>1845.4000244141</ele>
        <time>2023-07-19T05:58:17.000Z</time>
      </trkpt>
      <trkpt lat="42.55281" lon="2.03138">
        <ele>1846.1999511719</ele>
        <time>2023-07-19T05:58:24.000Z</time>
      </trkpt>
      <trkpt lat="42.55282" lon="2.03137">
        <ele>1846.4000244141</ele>
        <time>2023-07-19T05:58:25.000Z</time>
      </trkpt>
      <trkpt lat="42.55288" lon="2.03127">
        <ele>1847.1999511719</ele>
        <time>2023-07-19T05:58:31.000Z</time>
      </trkpt>
      <trkpt lat="42.5529" lon="2.03122">
        <ele>1847.8000488281</ele>
        <time>2023-07-19T05:58:35.000Z</time>
      </trkpt>
      <trkpt lat="42.55292" lon="2.03112">
        <ele>1848.4000244141</ele>
        <time>2023-07-19T05:58:39.000Z</time>
      </trkpt>
      <trkpt lat="42.55294" lon="2.03102">
        <ele>1849</ele>
        <time>2023-07-19T05:58:43.000Z</time>
      </trkpt>
      <trkpt lat="42.55295" lon="2.03099">
        <ele>1849.5999755859</ele>
        <time>2023-07-19T05:58:45.000Z</time>
      </trkpt>
      <trkpt lat="42.55298" lon="2.03092">
        <ele>1850.1999511719</ele>
        <time>2023-07-19T05:58:51.000Z</time>
      </trkpt>
      <trkpt lat="42.55299" lon="2.0309">
        <ele>1850.5999755859</ele>
        <time>2023-07-19T05:58:53.000Z</time>
      </trkpt>
      <trkpt lat="42.55302" lon="2.03081">
        <ele>1851.4000244141</ele>
        <time>2023-07-19T05:58:59.000Z</time>
      </trkpt>
      <trkpt lat="42.55303" lon="2.03079">
        <ele>1851.5999755859</ele>
        <time>2023-07-19T05:59:00.000Z</time>
      </trkpt>
      <trkpt lat="42.55307" lon="2.0307">
        <ele>1852.8000488281</ele>
        <time>2023-07-19T05:59:07.000Z</time>
      </trkpt>
      <trkpt lat="42.55312" lon="2.03057">
        <ele>1853.8000488281</ele>
        <time>2023-07-19T05:59:15.000Z</time>
      </trkpt>
      <trkpt lat="42.55313" lon="2.03056">
        <ele>1854</ele>
        <time>2023-07-19T05:59:16.000Z</time>
      </trkpt>
      <trkpt lat="42.5532" lon="2.03045">
        <ele>1855</ele>
        <time>2023-07-19T05:59:24.000Z</time>
      </trkpt>
      <trkpt lat="42.55321" lon="2.03043">
        <ele>1855</ele>
        <time>2023-07-19T05:59:25.000Z</time>
      </trkpt>
      <trkpt lat="42.55329" lon="2.03032">
        <ele>1856</ele>
        <time>2023-07-19T05:59:33.000Z</time>
      </trkpt>
      <trkpt lat="42.5533" lon="2.03031">
        <ele>1856.1999511719</ele>
        <time>2023-07-19T05:59:34.000Z</time>
      </trkpt>
      <trkpt lat="42.55337" lon="2.03023">
        <ele>1857.1999511719</ele>
        <time>2023-07-19T05:59:42.000Z</time>
      </trkpt>
      <trkpt lat="42.55338" lon="2.03022">
        <ele>1857.4000244141</ele>
        <time>2023-07-19T05:59:43.000Z</time>
      </trkpt>
      <trkpt lat="42.55347" lon="2.03015">
        <ele>1858.4000244141</ele>
        <time>2023-07-19T05:59:50.000Z</time>
      </trkpt>
      <trkpt lat="42.55348" lon="2.03015">
        <ele>1858.4000244141</ele>
        <time>2023-07-19T05:59:51.000Z</time>
      </trkpt>
      <trkpt lat="42.55359" lon="2.03007">
        <ele>1859.1999511719</ele>
        <time>2023-07-19T06:00:00.000Z</time>
      </trkpt>
      <trkpt lat="42.5536" lon="2.03006">
        <ele>1859.4000244141</ele>
        <time>2023-07-19T06:00:01.000Z</time>
      </trkpt>
      <trkpt lat="42.55368" lon="2.02998">
        <ele>1860.4000244141</ele>
        <time>2023-07-19T06:00:08.000Z</time>
      </trkpt>
      <trkpt lat="42.5537" lon="2.02996">
        <ele>1860.4000244141</ele>
        <time>2023-07-19T06:00:09.000Z</time>
      </trkpt>
      <trkpt lat="42.55378" lon="2.02981">
        <ele>1861.4000244141</ele>
        <time>2023-07-19T06:00:18.000Z</time>
      </trkpt>
      <trkpt lat="42.55381" lon="2.02978">
        <ele>1861.5999755859</ele>
        <time>2023-07-19T06:00:20.000Z</time>
      </trkpt>
      <trkpt lat="42.55385" lon="2.02973">
        <ele>1862</ele>
        <time>2023-07-19T06:00:25.000Z</time>
      </trkpt>
      <trkpt lat="42.55392" lon="2.02967">
        <ele>1862.4000244141</ele>
        <time>2023-07-19T06:00:32.000Z</time>
      </trkpt>
      <trkpt lat="42.55394" lon="2.02966">
        <ele>1862.5999755859</ele>
        <time>2023-07-19T06:00:33.000Z</time>
      </trkpt>
      <trkpt lat="42.55401" lon="2.02962">
        <ele>1863</ele>
        <time>2023-07-19T06:00:39.000Z</time>
      </trkpt>
      <trkpt lat="42.55411" lon="2.02958">
        <ele>1863.8000488281</ele>
        <time>2023-07-19T06:00:47.000Z</time>
      </trkpt>
      <trkpt lat="42.55423" lon="2.0295">
        <ele>1864.5999755859</ele>
        <time>2023-07-19T06:00:56.000Z</time>
      </trkpt>
      <trkpt lat="42.55425" lon="2.02948">
        <ele>1864.8000488281</ele>
        <time>2023-07-19T06:01:00.000Z</time>
      </trkpt>
      <trkpt lat="42.55428" lon="2.02946">
        <ele>1865</ele>
        <time>2023-07-19T06:01:02.000Z</time>
      </trkpt>
      <trkpt lat="42.55443" lon="2.02939">
        <ele>1865.4000244141</ele>
        <time>2023-07-19T06:01:11.000Z</time>
      </trkpt>
      <trkpt lat="42.55454" lon="2.02936">
        <ele>1865.8000488281</ele>
        <time>2023-07-19T06:01:19.000Z</time>
      </trkpt>
      <trkpt lat="42.55456" lon="2.02936">
        <ele>1865.8000488281</ele>
        <time>2023-07-19T06:01:20.000Z</time>
      </trkpt>
      <trkpt lat="42.55465" lon="2.02926">
        <ele>1866.4000244141</ele>
        <time>2023-07-19T06:01:28.000Z</time>
      </trkpt>
      <trkpt lat="42.55469" lon="2.02917">
        <ele>1866.8000488281</ele>
        <time>2023-07-19T06:01:32.000Z</time>
      </trkpt>
      <trkpt lat="42.55471" lon="2.02911">
        <ele>1867.1999511719</ele>
        <time>2023-07-19T06:01:35.000Z</time>
      </trkpt>
      <trkpt lat="42.55477" lon="2.029">
        <ele>1868</ele>
        <time>2023-07-19T06:01:40.000Z</time>
      </trkpt>
      <trkpt lat="42.55478" lon="2.02896">
        <ele>1868.1999511719</ele>
        <time>2023-07-19T06:01:43.000Z</time>
      </trkpt>
      <trkpt lat="42.55479" lon="2.02888">
        <ele>1869</ele>
        <time>2023-07-19T06:01:50.000Z</time>
      </trkpt>
      <trkpt lat="42.5548" lon="2.02883">
        <ele>1869.4000244141</ele>
        <time>2023-07-19T06:01:53.000Z</time>
      </trkpt>
      <trkpt lat="42.55485" lon="2.02872">
        <ele>1870</ele>
        <time>2023-07-19T06:01:59.000Z</time>
      </trkpt>
      <trkpt lat="42.55485" lon="2.0287">
        <ele>1870</ele>
        <time>2023-07-19T06:02:00.000Z</time>
      </trkpt>
      <trkpt lat="42.55492" lon="2.02856">
        <ele>1871.1999511719</ele>
        <time>2023-07-19T06:02:08.000Z</time>
      </trkpt>
      <trkpt lat="42.55494" lon="2.02852">
        <ele>1871.4000244141</ele>
        <time>2023-07-19T06:02:10.000Z</time>
      </trkpt>
      <trkpt lat="42.55499" lon="2.02841">
        <ele>1872.1999511719</ele>
        <time>2023-07-19T06:02:17.000Z</time>
      </trkpt>
      <trkpt lat="42.555" lon="2.02839">
        <ele>1872.4000244141</ele>
        <time>2023-07-19T06:02:18.000Z</time>
      </trkpt>
      <trkpt lat="42.55506" lon="2.02826">
        <ele>1873</ele>
        <time>2023-07-19T06:02:26.000Z</time>
      </trkpt>
      <trkpt lat="42.55506" lon="2.02825">
        <ele>1873.1999511719</ele>
        <time>2023-07-19T06:02:27.000Z</time>
      </trkpt>
      <trkpt lat="42.5551" lon="2.02819">
        <ele>1873.5999755859</ele>
        <time>2023-07-19T06:02:32.000Z</time>
      </trkpt>
      <trkpt lat="42.55519" lon="2.02806">
        <ele>1874.1999511719</ele>
        <time>2023-07-19T06:02:40.000Z</time>
      </trkpt>
      <trkpt lat="42.55525" lon="2.02797">
        <ele>1874.4000244141</ele>
        <time>2023-07-19T06:02:47.000Z</time>
      </trkpt>
      <trkpt lat="42.55533" lon="2.02785">
        <ele>1875.1999511719</ele>
        <time>2023-07-19T06:02:55.000Z</time>
      </trkpt>
      <trkpt lat="42.55535" lon="2.02779">
        <ele>1875.1999511719</ele>
        <time>2023-07-19T06:02:58.000Z</time>
      </trkpt>
      <trkpt lat="42.55536" lon="2.02776">
        <ele>1875.4000244141</ele>
        <time>2023-07-19T06:03:00.000Z</time>
      </trkpt>
      <trkpt lat="42.55541" lon="2.0276">
        <ele>1875.8000488281</ele>
        <time>2023-07-19T06:03:09.000Z</time>
      </trkpt>
      <trkpt lat="42.55548" lon="2.02747">
        <ele>1876.4000244141</ele>
        <time>2023-07-19T06:03:18.000Z</time>
      </trkpt>
      <trkpt lat="42.55551" lon="2.02729">
        <ele>1877</ele>
        <time>2023-07-19T06:03:27.000Z</time>
      </trkpt>
      <trkpt lat="42.55553" lon="2.02724">
        <ele>1877.5999755859</ele>
        <time>2023-07-19T06:03:30.000Z</time>
      </trkpt>
      <trkpt lat="42.55556" lon="2.02716">
        <ele>1877.5999755859</ele>
        <time>2023-07-19T06:03:35.000Z</time>
      </trkpt>
      <trkpt lat="42.55562" lon="2.02705">
        <ele>1878</ele>
        <time>2023-07-19T06:03:44.000Z</time>
      </trkpt>
      <trkpt lat="42.55567" lon="2.02685">
        <ele>1878</ele>
        <time>2023-07-19T06:03:53.000Z</time>
      </trkpt>
      <trkpt lat="42.55573" lon="2.02671">
        <ele>1877.5999755859</ele>
        <time>2023-07-19T06:04:01.000Z</time>
      </trkpt>
      <trkpt lat="42.55573" lon="2.02672">
        <ele>1877.8000488281</ele>
        <time>2023-07-19T06:04:09.000Z</time>
      </trkpt>
      <trkpt lat="42.55574" lon="2.02665">
        <ele>1878</ele>
        <time>2023-07-19T06:04:17.000Z</time>
      </trkpt>
      <trkpt lat="42.55573" lon="2.02656">
        <ele>1878.1999511719</ele>
        <time>2023-07-19T06:04:25.000Z</time>
      </trkpt>
      <trkpt lat="42.55575" lon="2.02648">
        <ele>1878.5999755859</ele>
        <time>2023-07-19T06:04:31.000Z</time>
      </trkpt>
      <trkpt lat="42.55575" lon="2.02647">
        <ele>1878.5999755859</ele>
        <time>2023-07-19T06:04:32.000Z</time>
      </trkpt>
      <trkpt lat="42.55578" lon="2.02637">
        <ele>1878.8000488281</ele>
        <time>2023-07-19T06:04:37.000Z</time>
      </trkpt>
      <trkpt lat="42.55583" lon="2.02622">
        <ele>1879</ele>
        <time>2023-07-19T06:04:45.000Z</time>
      </trkpt>
      <trkpt lat="42.55588" lon="2.02607">
        <ele>1879.4000244141</ele>
        <time>2023-07-19T06:04:53.000Z</time>
      </trkpt>
      <trkpt lat="42.55593" lon="2.02595">
        <ele>1879.4000244141</ele>
        <time>2023-07-19T06:05:00.000Z</time>
      </trkpt>
      <trkpt lat="42.55594" lon="2.02592">
        <ele>1879.5999755859</ele>
        <time>2023-07-19T06:05:02.000Z</time>
      </trkpt>
      <trkpt lat="42.55598" lon="2.02579">
        <ele>1879.5999755859</ele>
        <time>2023-07-19T06:05:09.000Z</time>
      </trkpt>
      <trkpt lat="42.55602" lon="2.02566">
        <ele>1879.8000488281</ele>
        <time>2023-07-19T06:05:16.000Z</time>
      </trkpt>
      <trkpt lat="42.55609" lon="2.02552">
        <ele>1880.1999511719</ele>
        <time>2023-07-19T06:05:24.000Z</time>
      </trkpt>
      <trkpt lat="42.55617" lon="2.02538">
        <ele>1880.4000244141</ele>
        <time>2023-07-19T06:05:32.000Z</time>
      </trkpt>
      <trkpt lat="42.55618" lon="2.02536">
        <ele>1880.5999755859</ele>
        <time>2023-07-19T06:05:33.000Z</time>
      </trkpt>
      <trkpt lat="42.55621" lon="2.02524">
        <ele>1881</ele>
        <time>2023-07-19T06:05:40.000Z</time>
      </trkpt>
      <trkpt lat="42.55625" lon="2.02514">
        <ele>1881.5999755859</ele>
        <time>2023-07-19T06:05:46.000Z</time>
      </trkpt>
      <trkpt lat="42.55627" lon="2.02509">
        <ele>1881.5999755859</ele>
        <time>2023-07-19T06:05:49.000Z</time>
      </trkpt>
      <trkpt lat="42.55634" lon="2.02494">
        <ele>1882.1999511719</ele>
        <time>2023-07-19T06:05:56.000Z</time>
      </trkpt>
      <trkpt lat="42.55636" lon="2.02486">
        <ele>1882.5999755859</ele>
        <time>2023-07-19T06:06:02.000Z</time>
      </trkpt>
      <trkpt lat="42.55637" lon="2.02484">
        <ele>1882.8000488281</ele>
        <time>2023-07-19T06:06:03.000Z</time>
      </trkpt>
      <trkpt lat="42.55642" lon="2.02469">
        <ele>1883</ele>
        <time>2023-07-19T06:06:11.000Z</time>
      </trkpt>
      <trkpt lat="42.55649" lon="2.02453">
        <ele>1883.4000244141</ele>
        <time>2023-07-19T06:06:20.000Z</time>
      </trkpt>
      <trkpt lat="42.55653" lon="2.02439">
        <ele>1883.4000244141</ele>
        <time>2023-07-19T06:06:27.000Z</time>
      </trkpt>
      <trkpt lat="42.55656" lon="2.02429">
        <ele>1883.5999755859</ele>
        <time>2023-07-19T06:06:32.000Z</time>
      </trkpt>
      <trkpt lat="42.5566" lon="2.0242">
        <ele>1884</ele>
        <time>2023-07-19T06:06:37.000Z</time>
      </trkpt>
      <trkpt lat="42.55664" lon="2.02409">
        <ele>1884.8000488281</ele>
        <time>2023-07-19T06:06:43.000Z</time>
      </trkpt>
      <trkpt lat="42.55671" lon="2.02394">
        <ele>1885.5999755859</ele>
        <time>2023-07-19T06:06:53.000Z</time>
      </trkpt>
      <trkpt lat="42.55673" lon="2.0239">
        <ele>1886</ele>
        <time>2023-07-19T06:06:55.000Z</time>
      </trkpt>
      <trkpt lat="42.55676" lon="2.02381">
        <ele>1886.5999755859</ele>
        <time>2023-07-19T06:07:01.000Z</time>
      </trkpt>
      <trkpt lat="42.55678" lon="2.02376">
        <ele>1887</ele>
        <time>2023-07-19T06:07:04.000Z</time>
      </trkpt>
      <trkpt lat="42.55682" lon="2.02367">
        <ele>1887.5999755859</ele>
        <time>2023-07-19T06:07:09.000Z</time>
      </trkpt>
      <trkpt lat="42.55684" lon="2.02362">
        <ele>1888.1999511719</ele>
        <time>2023-07-19T06:07:12.000Z</time>
      </trkpt>
      <trkpt lat="42.55685" lon="2.02359">
        <ele>1888.5999755859</ele>
        <time>2023-07-19T06:07:15.000Z</time>
      </trkpt>
      <trkpt lat="42.55689" lon="2.02351">
        <ele>1889.1999511719</ele>
        <time>2023-07-19T06:07:20.000Z</time>
      </trkpt>
      <trkpt lat="42.55692" lon="2.02346">
        <ele>1889.5999755859</ele>
        <time>2023-07-19T06:07:23.000Z</time>
      </trkpt>
      <trkpt lat="42.55697" lon="2.02336">
        <ele>1890.1999511719</ele>
        <time>2023-07-19T06:07:29.000Z</time>
      </trkpt>
      <trkpt lat="42.55698" lon="2.02335">
        <ele>1890.1999511719</ele>
        <time>2023-07-19T06:07:30.000Z</time>
      </trkpt>
      <trkpt lat="42.55703" lon="2.02328">
        <ele>1891.1999511719</ele>
        <time>2023-07-19T06:07:36.000Z</time>
      </trkpt>
      <trkpt lat="42.55704" lon="2.02326">
        <ele>1891.1999511719</ele>
        <time>2023-07-19T06:07:37.000Z</time>
      </trkpt>
      <trkpt lat="42.55709" lon="2.02319">
        <ele>1892</ele>
        <time>2023-07-19T06:07:42.000Z</time>
      </trkpt>
      <trkpt lat="42.55713" lon="2.02313">
        <ele>1892.4000244141</ele>
        <time>2023-07-19T06:07:45.000Z</time>
      </trkpt>
      <trkpt lat="42.55714" lon="2.0231">
        <ele>1892.5999755859</ele>
        <time>2023-07-19T06:07:47.000Z</time>
      </trkpt>
      <trkpt lat="42.55718" lon="2.023">
        <ele>1893.1999511719</ele>
        <time>2023-07-19T06:07:54.000Z</time>
      </trkpt>
      <trkpt lat="42.5572" lon="2.02297">
        <ele>1893.4000244141</ele>
        <time>2023-07-19T06:07:56.000Z</time>
      </trkpt>
      <trkpt lat="42.55725" lon="2.02289">
        <ele>1894</ele>
        <time>2023-07-19T06:08:02.000Z</time>
      </trkpt>
      <trkpt lat="42.5573" lon="2.02283">
        <ele>1894.5999755859</ele>
        <time>2023-07-19T06:08:07.000Z</time>
      </trkpt>
      <trkpt lat="42.55734" lon="2.0228">
        <ele>1894.5999755859</ele>
        <time>2023-07-19T06:08:09.000Z</time>
      </trkpt>
      <trkpt lat="42.5574" lon="2.02272">
        <ele>1895.4000244141</ele>
        <time>2023-07-19T06:08:15.000Z</time>
      </trkpt>
      <trkpt lat="42.55742" lon="2.02269">
        <ele>1895.5999755859</ele>
        <time>2023-07-19T06:08:17.000Z</time>
      </trkpt>
      <trkpt lat="42.55746" lon="2.02263">
        <ele>1895.8000488281</ele>
        <time>2023-07-19T06:08:22.000Z</time>
      </trkpt>
      <trkpt lat="42.55752" lon="2.02248">
        <ele>1896.5999755859</ele>
        <time>2023-07-19T06:08:30.000Z</time>
      </trkpt>
      <trkpt lat="42.55757" lon="2.02238">
        <ele>1897.1999511719</ele>
        <time>2023-07-19T06:08:37.000Z</time>
      </trkpt>
      <trkpt lat="42.55761" lon="2.0223">
        <ele>1897.8000488281</ele>
        <time>2023-07-19T06:08:42.000Z</time>
      </trkpt>
      <trkpt lat="42.55764" lon="2.02225">
        <ele>1898.1999511719</ele>
        <time>2023-07-19T06:08:46.000Z</time>
      </trkpt>
      <trkpt lat="42.55769" lon="2.02218">
        <ele>1898.8000488281</ele>
        <time>2023-07-19T06:08:51.000Z</time>
      </trkpt>
      <trkpt lat="42.5577" lon="2.02216">
        <ele>1899</ele>
        <time>2023-07-19T06:08:52.000Z</time>
      </trkpt>
      <trkpt lat="42.55776" lon="2.02204">
        <ele>1899.5999755859</ele>
        <time>2023-07-19T06:08:58.000Z</time>
      </trkpt>
      <trkpt lat="42.55781" lon="2.02196">
        <ele>1899.8000488281</ele>
        <time>2023-07-19T06:09:04.000Z</time>
      </trkpt>
      <trkpt lat="42.55782" lon="2.02193">
        <ele>1899.8000488281</ele>
        <time>2023-07-19T06:09:06.000Z</time>
      </trkpt>
      <trkpt lat="42.55787" lon="2.02184">
        <ele>1900</ele>
        <time>2023-07-19T06:09:12.000Z</time>
      </trkpt>
      <trkpt lat="42.55796" lon="2.02173">
        <ele>1900.1999511719</ele>
        <time>2023-07-19T06:09:20.000Z</time>
      </trkpt>
      <trkpt lat="42.55804" lon="2.02159">
        <ele>1900.1999511719</ele>
        <time>2023-07-19T06:09:29.000Z</time>
      </trkpt>
      <trkpt lat="42.55813" lon="2.02144">
        <ele>1900.1999511719</ele>
        <time>2023-07-19T06:09:37.000Z</time>
      </trkpt>
      <trkpt lat="42.5582" lon="2.02129">
        <ele>1900.5999755859</ele>
        <time>2023-07-19T06:09:47.000Z</time>
      </trkpt>
      <trkpt lat="42.55827" lon="2.02113">
        <ele>1900.8000488281</ele>
        <time>2023-07-19T06:09:55.000Z</time>
      </trkpt>
      <trkpt lat="42.55828" lon="2.0211">
        <ele>1901.1999511719</ele>
        <time>2023-07-19T06:09:57.000Z</time>
      </trkpt>
      <trkpt lat="42.55833" lon="2.02103">
        <ele>1901.8000488281</ele>
        <time>2023-07-19T06:10:02.000Z</time>
      </trkpt>
      <trkpt lat="42.55837" lon="2.02097">
        <ele>1902</ele>
        <time>2023-07-19T06:10:05.000Z</time>
      </trkpt>
      <trkpt lat="42.5584" lon="2.02094">
        <ele>1902</ele>
        <time>2023-07-19T06:10:08.000Z</time>
      </trkpt>
      <trkpt lat="42.55846" lon="2.02082">
        <ele>1902.8000488281</ele>
        <time>2023-07-19T06:10:16.000Z</time>
      </trkpt>
      <trkpt lat="42.55848" lon="2.0208">
        <ele>1903</ele>
        <time>2023-07-19T06:10:18.000Z</time>
      </trkpt>
      <trkpt lat="42.55852" lon="2.0207">
        <ele>1903.5999755859</ele>
        <time>2023-07-19T06:10:25.000Z</time>
      </trkpt>
      <trkpt lat="42.55855" lon="2.02064">
        <ele>1904</ele>
        <time>2023-07-19T06:10:28.000Z</time>
      </trkpt>
      <trkpt lat="42.55858" lon="2.02057">
        <ele>1904.1999511719</ele>
        <time>2023-07-19T06:10:32.000Z</time>
      </trkpt>
      <trkpt lat="42.55862" lon="2.02049">
        <ele>1905.1999511719</ele>
        <time>2023-07-19T06:10:38.000Z</time>
      </trkpt>
      <trkpt lat="42.55863" lon="2.02046">
        <ele>1905.4000244141</ele>
        <time>2023-07-19T06:10:40.000Z</time>
      </trkpt>
      <trkpt lat="42.55867" lon="2.02035">
        <ele>1905.8000488281</ele>
        <time>2023-07-19T06:10:46.000Z</time>
      </trkpt>
      <trkpt lat="42.55869" lon="2.02027">
        <ele>1906.4000244141</ele>
        <time>2023-07-19T06:10:49.000Z</time>
      </trkpt>
      <trkpt lat="42.55871" lon="2.02022">
        <ele>1906.8000488281</ele>
        <time>2023-07-19T06:10:52.000Z</time>
      </trkpt>
      <trkpt lat="42.55876" lon="2.02013">
        <ele>1907.1999511719</ele>
        <time>2023-07-19T06:11:00.000Z</time>
      </trkpt>
      <trkpt lat="42.55878" lon="2.02009">
        <ele>1907.4000244141</ele>
        <time>2023-07-19T06:11:02.000Z</time>
      </trkpt>
      <trkpt lat="42.55882" lon="2.01997">
        <ele>1908.4000244141</ele>
        <time>2023-07-19T06:11:08.000Z</time>
      </trkpt>
      <trkpt lat="42.55883" lon="2.01994">
        <ele>1908.5999755859</ele>
        <time>2023-07-19T06:11:10.000Z</time>
      </trkpt>
      <trkpt lat="42.55886" lon="2.0199">
        <ele>1909.4000244141</ele>
        <time>2023-07-19T06:11:14.000Z</time>
      </trkpt>
      <trkpt lat="42.55888" lon="2.01986">
        <ele>1909.8000488281</ele>
        <time>2023-07-19T06:11:16.000Z</time>
      </trkpt>
      <trkpt lat="42.55889" lon="2.01981">
        <ele>1910.1999511719</ele>
        <time>2023-07-19T06:11:19.000Z</time>
      </trkpt>
      <trkpt lat="42.5589" lon="2.01973">
        <ele>1910.8000488281</ele>
        <time>2023-07-19T06:11:23.000Z</time>
      </trkpt>
      <trkpt lat="42.55891" lon="2.01968">
        <ele>1911.1999511719</ele>
        <time>2023-07-19T06:11:26.000Z</time>
      </trkpt>
      <trkpt lat="42.55893" lon="2.01963">
        <ele>1911.8000488281</ele>
        <time>2023-07-19T06:11:29.000Z</time>
      </trkpt>
      <trkpt lat="42.55897" lon="2.01956">
        <ele>1912.1999511719</ele>
        <time>2023-07-19T06:11:34.000Z</time>
      </trkpt>
      <trkpt lat="42.559" lon="2.01946">
        <ele>1913</ele>
        <time>2023-07-19T06:11:39.000Z</time>
      </trkpt>
      <trkpt lat="42.559" lon="2.01944">
        <ele>1913</ele>
        <time>2023-07-19T06:11:40.000Z</time>
      </trkpt>
      <trkpt lat="42.55902" lon="2.0193">
        <ele>1913.8000488281</ele>
        <time>2023-07-19T06:11:47.000Z</time>
      </trkpt>
      <trkpt lat="42.55902" lon="2.01929">
        <ele>1914</ele>
        <time>2023-07-19T06:11:48.000Z</time>
      </trkpt>
      <trkpt lat="42.55902" lon="2.01914">
        <ele>1915</ele>
        <time>2023-07-19T06:11:55.000Z</time>
      </trkpt>
      <trkpt lat="42.55902" lon="2.01904">
        <ele>1916.1999511719</ele>
        <time>2023-07-19T06:12:01.000Z</time>
      </trkpt>
      <trkpt lat="42.55902" lon="2.01902">
        <ele>1916.1999511719</ele>
        <time>2023-07-19T06:12:02.000Z</time>
      </trkpt>
      <trkpt lat="42.55903" lon="2.0189">
        <ele>1917.1999511719</ele>
        <time>2023-07-19T06:12:09.000Z</time>
      </trkpt>
      <trkpt lat="42.55903" lon="2.01889">
        <ele>1917.4000244141</ele>
        <time>2023-07-19T06:12:10.000Z</time>
      </trkpt>
      <trkpt lat="42.55905" lon="2.01879">
        <ele>1917.8000488281</ele>
        <time>2023-07-19T06:12:15.000Z</time>
      </trkpt>
      <trkpt lat="42.55905" lon="2.01874">
        <ele>1918.4000244141</ele>
        <time>2023-07-19T06:12:18.000Z</time>
      </trkpt>
      <trkpt lat="42.55905" lon="2.0187">
        <ele>1919</ele>
        <time>2023-07-19T06:12:22.000Z</time>
      </trkpt>
      <trkpt lat="42.55905" lon="2.01864">
        <ele>1919.4000244141</ele>
        <time>2023-07-19T06:12:26.000Z</time>
      </trkpt>
      <trkpt lat="42.55908" lon="2.01857">
        <ele>1920.1999511719</ele>
        <time>2023-07-19T06:12:30.000Z</time>
      </trkpt>
      <trkpt lat="42.5591" lon="2.01854">
        <ele>1920.5999755859</ele>
        <time>2023-07-19T06:12:33.000Z</time>
      </trkpt>
      <trkpt lat="42.55913" lon="2.01848">
        <ele>1921</ele>
        <time>2023-07-19T06:12:37.000Z</time>
      </trkpt>
      <trkpt lat="42.55915" lon="2.01841">
        <ele>1921.5999755859</ele>
        <time>2023-07-19T06:12:41.000Z</time>
      </trkpt>
      <trkpt lat="42.55919" lon="2.01834">
        <ele>1922.4000244141</ele>
        <time>2023-07-19T06:12:46.000Z</time>
      </trkpt>
      <trkpt lat="42.5592" lon="2.01832">
        <ele>1922.5999755859</ele>
        <time>2023-07-19T06:12:48.000Z</time>
      </trkpt>
      <trkpt lat="42.55926" lon="2.0182">
        <ele>1923.4000244141</ele>
        <time>2023-07-19T06:12:55.000Z</time>
      </trkpt>
      <trkpt lat="42.55928" lon="2.01815">
        <ele>1923.5999755859</ele>
        <time>2023-07-19T06:12:57.000Z</time>
      </trkpt>
      <trkpt lat="42.55934" lon="2.01804">
        <ele>1924.5999755859</ele>
        <time>2023-07-19T06:13:04.000Z</time>
      </trkpt>
      <trkpt lat="42.55935" lon="2.01802">
        <ele>1924.8000488281</ele>
        <time>2023-07-19T06:13:05.000Z</time>
      </trkpt>
      <trkpt lat="42.55938" lon="2.0179">
        <ele>1925.4000244141</ele>
        <time>2023-07-19T06:13:11.000Z</time>
      </trkpt>
      <trkpt lat="42.55938" lon="2.01788">
        <ele>1925.8000488281</ele>
        <time>2023-07-19T06:13:14.000Z</time>
      </trkpt>
      <trkpt lat="42.55939" lon="2.01786">
        <ele>1926</ele>
        <time>2023-07-19T06:13:16.000Z</time>
      </trkpt>
      <trkpt lat="42.55943" lon="2.01775">
        <ele>1926.8000488281</ele>
        <time>2023-07-19T06:13:23.000Z</time>
      </trkpt>
      <trkpt lat="42.55944" lon="2.01773">
        <ele>1926.8000488281</ele>
        <time>2023-07-19T06:13:24.000Z</time>
      </trkpt>
      <trkpt lat="42.55947" lon="2.01766">
        <ele>1927.1999511719</ele>
        <time>2023-07-19T06:13:29.000Z</time>
      </trkpt>
      <trkpt lat="42.5595" lon="2.01757">
        <ele>1927.8000488281</ele>
        <time>2023-07-19T06:13:35.000Z</time>
      </trkpt>
      <trkpt lat="42.55951" lon="2.01756">
        <ele>1928</ele>
        <time>2023-07-19T06:13:36.000Z</time>
      </trkpt>
      <trkpt lat="42.55954" lon="2.01745">
        <ele>1928.4000244141</ele>
        <time>2023-07-19T06:13:42.000Z</time>
      </trkpt>
      <trkpt lat="42.55958" lon="2.0174">
        <ele>1929</ele>
        <time>2023-07-19T06:13:48.000Z</time>
      </trkpt>
      <trkpt lat="42.55959" lon="2.01737">
        <ele>1929.1999511719</ele>
        <time>2023-07-19T06:13:52.000Z</time>
      </trkpt>
      <trkpt lat="42.5596" lon="2.01734">
        <ele>1929.1999511719</ele>
        <time>2023-07-19T06:13:54.000Z</time>
      </trkpt>
      <trkpt lat="42.55959" lon="2.01733">
        <ele>1929.4000244141</ele>
        <time>2023-07-19T06:13:55.000Z</time>
      </trkpt>
      <trkpt lat="42.55958" lon="2.01724">
        <ele>1929.5999755859</ele>
        <time>2023-07-19T06:14:00.000Z</time>
      </trkpt>
      <trkpt lat="42.55958" lon="2.0172">
        <ele>1930</ele>
        <time>2023-07-19T06:14:02.000Z</time>
      </trkpt>
      <trkpt lat="42.55957" lon="2.01704">
        <ele>1930.8000488281</ele>
        <time>2023-07-19T06:14:08.000Z</time>
      </trkpt>
      <trkpt lat="42.55957" lon="2.01698">
        <ele>1931</ele>
        <time>2023-07-19T06:14:11.000Z</time>
      </trkpt>
      <trkpt lat="42.55957" lon="2.01691">
        <ele>1931.4000244141</ele>
        <time>2023-07-19T06:14:16.000Z</time>
      </trkpt>
      <trkpt lat="42.55957" lon="2.01677">
        <ele>1932.1999511719</ele>
        <time>2023-07-19T06:14:23.000Z</time>
      </trkpt>
      <trkpt lat="42.55956" lon="2.01676">
        <ele>1932.1999511719</ele>
        <time>2023-07-19T06:14:24.000Z</time>
      </trkpt>
      <trkpt lat="42.55946" lon="2.01662">
        <ele>1933.1999511719</ele>
        <time>2023-07-19T06:14:32.000Z</time>
      </trkpt>
      <trkpt lat="42.55946" lon="2.0166">
        <ele>1933.4000244141</ele>
        <time>2023-07-19T06:14:33.000Z</time>
      </trkpt>
      <trkpt lat="42.55939" lon="2.01654">
        <ele>1934.1999511719</ele>
        <time>2023-07-19T06:14:40.000Z</time>
      </trkpt>
      <trkpt lat="42.55937" lon="2.01653">
        <ele>1934.4000244141</ele>
        <time>2023-07-19T06:14:41.000Z</time>
      </trkpt>
      <trkpt lat="42.55932" lon="2.01645">
        <ele>1935.4000244141</ele>
        <time>2023-07-19T06:14:47.000Z</time>
      </trkpt>
      <trkpt lat="42.55929" lon="2.01642">
        <ele>1935.5999755859</ele>
        <time>2023-07-19T06:14:49.000Z</time>
      </trkpt>
      <trkpt lat="42.55923" lon="2.01636">
        <ele>1936.1999511719</ele>
        <time>2023-07-19T06:14:55.000Z</time>
      </trkpt>
      <trkpt lat="42.55922" lon="2.01634">
        <ele>1936.4000244141</ele>
        <time>2023-07-19T06:14:56.000Z</time>
      </trkpt>
      <trkpt lat="42.55916" lon="2.01625">
        <ele>1936.5999755859</ele>
        <time>2023-07-19T06:15:02.000Z</time>
      </trkpt>
      <trkpt lat="42.55909" lon="2.01617">
        <ele>1936.8000488281</ele>
        <time>2023-07-19T06:15:10.000Z</time>
      </trkpt>
      <trkpt lat="42.55897" lon="2.01611">
        <ele>1937.1999511719</ele>
        <time>2023-07-19T06:15:18.000Z</time>
      </trkpt>
      <trkpt lat="42.55883" lon="2.01615">
        <ele>1937.1999511719</ele>
        <time>2023-07-19T06:15:28.000Z</time>
      </trkpt>
      <trkpt lat="42.55873" lon="2.01621">
        <ele>1937.4000244141</ele>
        <time>2023-07-19T06:15:35.000Z</time>
      </trkpt>
      <trkpt lat="42.55871" lon="2.01622">
        <ele>1937.5999755859</ele>
        <time>2023-07-19T06:15:37.000Z</time>
      </trkpt>
      <trkpt lat="42.5586" lon="2.01629">
        <ele>1937.5999755859</ele>
        <time>2023-07-19T06:15:45.000Z</time>
      </trkpt>
      <trkpt lat="42.5585" lon="2.01635">
        <ele>1937.8000488281</ele>
        <time>2023-07-19T06:15:53.000Z</time>
      </trkpt>
      <trkpt lat="42.5584" lon="2.01642">
        <ele>1937.8000488281</ele>
        <time>2023-07-19T06:16:01.000Z</time>
      </trkpt>
      <trkpt lat="42.5583" lon="2.01645">
        <ele>1938</ele>
        <time>2023-07-19T06:16:08.000Z</time>
      </trkpt>
      <trkpt lat="42.55817" lon="2.01645">
        <ele>1938.1999511719</ele>
        <time>2023-07-19T06:16:16.000Z</time>
      </trkpt>
      <trkpt lat="42.55811" lon="2.01643">
        <ele>1938.4000244141</ele>
        <time>2023-07-19T06:16:20.000Z</time>
      </trkpt>
      <trkpt lat="42.55807" lon="2.01642">
        <ele>1938.5999755859</ele>
        <time>2023-07-19T06:16:22.000Z</time>
      </trkpt>
      <trkpt lat="42.558" lon="2.01639">
        <ele>1939.4000244141</ele>
        <time>2023-07-19T06:16:28.000Z</time>
      </trkpt>
      <trkpt lat="42.55797" lon="2.01637">
        <ele>1939.5999755859</ele>
        <time>2023-07-19T06:16:30.000Z</time>
      </trkpt>
      <trkpt lat="42.55789" lon="2.01635">
        <ele>1940.1999511719</ele>
        <time>2023-07-19T06:16:35.000Z</time>
      </trkpt>
      <trkpt lat="42.55787" lon="2.01635">
        <ele>1940.5999755859</ele>
        <time>2023-07-19T06:16:37.000Z</time>
      </trkpt>
      <trkpt lat="42.55782" lon="2.01634">
        <ele>1941.1999511719</ele>
        <time>2023-07-19T06:16:42.000Z</time>
      </trkpt>
      <trkpt lat="42.55778" lon="2.01632">
        <ele>1941.5999755859</ele>
        <time>2023-07-19T06:16:45.000Z</time>
      </trkpt>
      <trkpt lat="42.55773" lon="2.01631">
        <ele>1942.4000244141</ele>
        <time>2023-07-19T06:16:49.000Z</time>
      </trkpt>
      <trkpt lat="42.55772" lon="2.01632">
        <ele>1942.5999755859</ele>
        <time>2023-07-19T06:16:51.000Z</time>
      </trkpt>
      <trkpt lat="42.55765" lon="2.01633">
        <ele>1943.8000488281</ele>
        <time>2023-07-19T06:16:57.000Z</time>
      </trkpt>
      <trkpt lat="42.55755" lon="2.01634">
        <ele>1944.8000488281</ele>
        <time>2023-07-19T06:17:03.000Z</time>
      </trkpt>
      <trkpt lat="42.55753" lon="2.01634">
        <ele>1945.1999511719</ele>
        <time>2023-07-19T06:17:05.000Z</time>
      </trkpt>
      <trkpt lat="42.55747" lon="2.01633">
        <ele>1946</ele>
        <time>2023-07-19T06:17:10.000Z</time>
      </trkpt>
      <trkpt lat="42.55746" lon="2.01633">
        <ele>1946.1999511719</ele>
        <time>2023-07-19T06:17:11.000Z</time>
      </trkpt>
      <trkpt lat="42.55738" lon="2.01628">
        <ele>1947</ele>
        <time>2023-07-19T06:17:17.000Z</time>
      </trkpt>
      <trkpt lat="42.55732" lon="2.01622">
        <ele>1948</ele>
        <time>2023-07-19T06:17:23.000Z</time>
      </trkpt>
      <trkpt lat="42.55732" lon="2.01621">
        <ele>1948.1999511719</ele>
        <time>2023-07-19T06:17:24.000Z</time>
      </trkpt>
      <trkpt lat="42.55728" lon="2.01612">
        <ele>1948.8000488281</ele>
        <time>2023-07-19T06:17:29.000Z</time>
      </trkpt>
      <trkpt lat="42.55726" lon="2.01608">
        <ele>1949.1999511719</ele>
        <time>2023-07-19T06:17:32.000Z</time>
      </trkpt>
      <trkpt lat="42.55725" lon="2.01602">
        <ele>1949.5999755859</ele>
        <time>2023-07-19T06:17:35.000Z</time>
      </trkpt>
      <trkpt lat="42.55722" lon="2.01595">
        <ele>1950.4000244141</ele>
        <time>2023-07-19T06:17:39.000Z</time>
      </trkpt>
      <trkpt lat="42.5572" lon="2.01592">
        <ele>1950.8000488281</ele>
        <time>2023-07-19T06:17:42.000Z</time>
      </trkpt>
      <trkpt lat="42.55718" lon="2.01587">
        <ele>1951.4000244141</ele>
        <time>2023-07-19T06:17:45.000Z</time>
      </trkpt>
      <trkpt lat="42.55714" lon="2.01583">
        <ele>1952.1999511719</ele>
        <time>2023-07-19T06:17:49.000Z</time>
      </trkpt>
      <trkpt lat="42.55712" lon="2.01582">
        <ele>1952.4000244141</ele>
        <time>2023-07-19T06:17:51.000Z</time>
      </trkpt>
      <trkpt lat="42.55708" lon="2.01578">
        <ele>1953.1999511719</ele>
        <time>2023-07-19T06:17:56.000Z</time>
      </trkpt>
      <trkpt lat="42.55704" lon="2.01574">
        <ele>1953.5999755859</ele>
        <time>2023-07-19T06:17:59.000Z</time>
      </trkpt>
      <trkpt lat="42.55701" lon="2.01569">
        <ele>1954.1999511719</ele>
        <time>2023-07-19T06:18:03.000Z</time>
      </trkpt>
      <trkpt lat="42.55695" lon="2.01565">
        <ele>1954.8000488281</ele>
        <time>2023-07-19T06:18:07.000Z</time>
      </trkpt>
      <trkpt lat="42.55691" lon="2.01563">
        <ele>1955.4000244141</ele>
        <time>2023-07-19T06:18:10.000Z</time>
      </trkpt>
      <trkpt lat="42.55686" lon="2.01561">
        <ele>1955.8000488281</ele>
        <time>2023-07-19T06:18:15.000Z</time>
      </trkpt>
      <trkpt lat="42.55685" lon="2.0156">
        <ele>1956</ele>
        <time>2023-07-19T06:18:16.000Z</time>
      </trkpt>
      <trkpt lat="42.55678" lon="2.01553">
        <ele>1956.8000488281</ele>
        <time>2023-07-19T06:18:22.000Z</time>
      </trkpt>
      <trkpt lat="42.55674" lon="2.0155">
        <ele>1956.8000488281</ele>
        <time>2023-07-19T06:18:25.000Z</time>
      </trkpt>
      <trkpt lat="42.5567" lon="2.01548">
        <ele>1957.1999511719</ele>
        <time>2023-07-19T06:18:28.000Z</time>
      </trkpt>
      <trkpt lat="42.55663" lon="2.0154">
        <ele>1957.8000488281</ele>
        <time>2023-07-19T06:18:35.000Z</time>
      </trkpt>
      <trkpt lat="42.55662" lon="2.01538">
        <ele>1958</ele>
        <time>2023-07-19T06:18:36.000Z</time>
      </trkpt>
      <trkpt lat="42.55659" lon="2.01529">
        <ele>1958.5999755859</ele>
        <time>2023-07-19T06:18:41.000Z</time>
      </trkpt>
      <trkpt lat="42.55657" lon="2.01525">
        <ele>1959.1999511719</ele>
        <time>2023-07-19T06:18:43.000Z</time>
      </trkpt>
      <trkpt lat="42.55653" lon="2.01516">
        <ele>1960</ele>
        <time>2023-07-19T06:18:49.000Z</time>
      </trkpt>
      <trkpt lat="42.55652" lon="2.01513">
        <ele>1960.1999511719</ele>
        <time>2023-07-19T06:18:51.000Z</time>
      </trkpt>
      <trkpt lat="42.5565" lon="2.01503">
        <ele>1960.8000488281</ele>
        <time>2023-07-19T06:18:57.000Z</time>
      </trkpt>
      <trkpt lat="42.55648" lon="2.01494">
        <ele>1961.1999511719</ele>
        <time>2023-07-19T06:19:02.000Z</time>
      </trkpt>
      <trkpt lat="42.55647" lon="2.01487">
        <ele>1961.8000488281</ele>
        <time>2023-07-19T06:19:05.000Z</time>
      </trkpt>
      <trkpt lat="42.55646" lon="2.01484">
        <ele>1962.1999511719</ele>
        <time>2023-07-19T06:19:07.000Z</time>
      </trkpt>
      <trkpt lat="42.55644" lon="2.01473">
        <ele>1962.5999755859</ele>
        <time>2023-07-19T06:19:12.000Z</time>
      </trkpt>
      <trkpt lat="42.55643" lon="2.01465">
        <ele>1963.1999511719</ele>
        <time>2023-07-19T06:19:17.000Z</time>
      </trkpt>
      <trkpt lat="42.55643" lon="2.01463">
        <ele>1963.4000244141</ele>
        <time>2023-07-19T06:19:18.000Z</time>
      </trkpt>
      <trkpt lat="42.55644" lon="2.01449">
        <ele>1964.4000244141</ele>
        <time>2023-07-19T06:19:26.000Z</time>
      </trkpt>
      <trkpt lat="42.55644" lon="2.01448">
        <ele>1964.5999755859</ele>
        <time>2023-07-19T06:19:27.000Z</time>
      </trkpt>
      <trkpt lat="42.55644" lon="2.01434">
        <ele>1965.4000244141</ele>
        <time>2023-07-19T06:19:35.000Z</time>
      </trkpt>
      <trkpt lat="42.55644" lon="2.0143">
        <ele>1965.5999755859</ele>
        <time>2023-07-19T06:19:37.000Z</time>
      </trkpt>
      <trkpt lat="42.55648" lon="2.01413">
        <ele>1966.4000244141</ele>
        <time>2023-07-19T06:19:45.000Z</time>
      </trkpt>
      <trkpt lat="42.55648" lon="2.01409">
        <ele>1966.4000244141</ele>
        <time>2023-07-19T06:19:47.000Z</time>
      </trkpt>
      <trkpt lat="42.55649" lon="2.01392">
        <ele>1967</ele>
        <time>2023-07-19T06:19:55.000Z</time>
      </trkpt>
      <trkpt lat="42.55651" lon="2.0137">
        <ele>1967.4000244141</ele>
        <time>2023-07-19T06:20:05.000Z</time>
      </trkpt>
      <trkpt lat="42.55658" lon="2.01353">
        <ele>1967.4000244141</ele>
        <time>2023-07-19T06:20:14.000Z</time>
      </trkpt>
      <trkpt lat="42.55659" lon="2.01348">
        <ele>1967.4000244141</ele>
        <time>2023-07-19T06:20:17.000Z</time>
      </trkpt>
      <trkpt lat="42.55663" lon="2.01335">
        <ele>1967.5999755859</ele>
        <time>2023-07-19T06:20:23.000Z</time>
      </trkpt>
      <trkpt lat="42.55667" lon="2.01317">
        <ele>1968</ele>
        <time>2023-07-19T06:20:32.000Z</time>
      </trkpt>
      <trkpt lat="42.55669" lon="2.01305">
        <ele>1967.8000488281</ele>
        <time>2023-07-19T06:20:39.000Z</time>
      </trkpt>
      <trkpt lat="42.55672" lon="2.01292">
        <ele>1968.1999511719</ele>
        <time>2023-07-19T06:20:47.000Z</time>
      </trkpt>
      <trkpt lat="42.55672" lon="2.01284">
        <ele>1968.5999755859</ele>
        <time>2023-07-19T06:20:52.000Z</time>
      </trkpt>
      <trkpt lat="42.55673" lon="2.01275">
        <ele>1968.8000488281</ele>
        <time>2023-07-19T06:20:56.000Z</time>
      </trkpt>
      <trkpt lat="42.55675" lon="2.01262">
        <ele>1969.1999511719</ele>
        <time>2023-07-19T06:21:03.000Z</time>
      </trkpt>
      <trkpt lat="42.55678" lon="2.01251">
        <ele>1969.4000244141</ele>
        <time>2023-07-19T06:21:10.000Z</time>
      </trkpt>
      <trkpt lat="42.55679" lon="2.01249">
        <ele>1969.5999755859</ele>
        <time>2023-07-19T06:21:12.000Z</time>
      </trkpt>
      <trkpt lat="42.55682" lon="2.01235">
        <ele>1970.1999511719</ele>
        <time>2023-07-19T06:21:18.000Z</time>
      </trkpt>
      <trkpt lat="42.55685" lon="2.01225">
        <ele>1970.5999755859</ele>
        <time>2023-07-19T06:21:23.000Z</time>
      </trkpt>
      <trkpt lat="42.55687" lon="2.01217">
        <ele>1971</ele>
        <time>2023-07-19T06:21:27.000Z</time>
      </trkpt>
      <trkpt lat="42.55688" lon="2.01198">
        <ele>1971.4000244141</ele>
        <time>2023-07-19T06:21:35.000Z</time>
      </trkpt>
      <trkpt lat="42.55689" lon="2.01185">
        <ele>1971.4000244141</ele>
        <time>2023-07-19T06:21:43.000Z</time>
      </trkpt>
      <trkpt lat="42.55688" lon="2.01177">
        <ele>1971.5999755859</ele>
        <time>2023-07-19T06:21:48.000Z</time>
      </trkpt>
      <trkpt lat="42.55686" lon="2.01165">
        <ele>1971.8000488281</ele>
        <time>2023-07-19T06:21:53.000Z</time>
      </trkpt>
      <trkpt lat="42.55684" lon="2.01148">
        <ele>1972.8000488281</ele>
        <time>2023-07-19T06:22:01.000Z</time>
      </trkpt>
      <trkpt lat="42.55684" lon="2.01144">
        <ele>1972.8000488281</ele>
        <time>2023-07-19T06:22:03.000Z</time>
      </trkpt>
      <trkpt lat="42.55681" lon="2.01126">
        <ele>1973.5999755859</ele>
        <time>2023-07-19T06:22:12.000Z</time>
      </trkpt>
      <trkpt lat="42.55681" lon="2.01118">
        <ele>1973.8000488281</ele>
        <time>2023-07-19T06:22:16.000Z</time>
      </trkpt>
      <trkpt lat="42.55681" lon="2.0111">
        <ele>1974</ele>
        <time>2023-07-19T06:22:21.000Z</time>
      </trkpt>
      <trkpt lat="42.55682" lon="2.01097">
        <ele>1974.4000244141</ele>
        <time>2023-07-19T06:22:27.000Z</time>
      </trkpt>
      <trkpt lat="42.55684" lon="2.01086">
        <ele>1974.8000488281</ele>
        <time>2023-07-19T06:22:32.000Z</time>
      </trkpt>
      <trkpt lat="42.55685" lon="2.01079">
        <ele>1975.1999511719</ele>
        <time>2023-07-19T06:22:35.000Z</time>
      </trkpt>
      <trkpt lat="42.55688" lon="2.01061">
        <ele>1975.8000488281</ele>
        <time>2023-07-19T06:22:43.000Z</time>
      </trkpt>
      <trkpt lat="42.55689" lon="2.01057">
        <ele>1976</ele>
        <time>2023-07-19T06:22:45.000Z</time>
      </trkpt>
      <trkpt lat="42.5569" lon="2.01045">
        <ele>1977</ele>
        <time>2023-07-19T06:22:52.000Z</time>
      </trkpt>
      <trkpt lat="42.55692" lon="2.0104">
        <ele>1977.1999511719</ele>
        <time>2023-07-19T06:22:55.000Z</time>
      </trkpt>
      <trkpt lat="42.55696" lon="2.01029">
        <ele>1978</ele>
        <time>2023-07-19T06:23:02.000Z</time>
      </trkpt>
      <trkpt lat="42.55697" lon="2.01024">
        <ele>1978.4000244141</ele>
        <time>2023-07-19T06:23:05.000Z</time>
      </trkpt>
      <trkpt lat="42.55701" lon="2.01011">
        <ele>1979.1999511719</ele>
        <time>2023-07-19T06:23:12.000Z</time>
      </trkpt>
      <trkpt lat="42.55702" lon="2.01009">
        <ele>1979.1999511719</ele>
        <time>2023-07-19T06:23:13.000Z</time>
      </trkpt>
      <trkpt lat="42.5571" lon="2.00999">
        <ele>1979.8000488281</ele>
        <time>2023-07-19T06:23:20.000Z</time>
      </trkpt>
      <trkpt lat="42.55712" lon="2.00997">
        <ele>1980.1999511719</ele>
        <time>2023-07-19T06:23:22.000Z</time>
      </trkpt>
      <trkpt lat="42.55718" lon="2.00989">
        <ele>1980.5999755859</ele>
        <time>2023-07-19T06:23:27.000Z</time>
      </trkpt>
      <trkpt lat="42.55728" lon="2.00985">
        <ele>1981</ele>
        <time>2023-07-19T06:23:35.000Z</time>
      </trkpt>
      <trkpt lat="42.5573" lon="2.00983">
        <ele>1981.1999511719</ele>
        <time>2023-07-19T06:23:38.000Z</time>
      </trkpt>
      <trkpt lat="42.55734" lon="2.00979">
        <ele>1981.4000244141</ele>
        <time>2023-07-19T06:23:43.000Z</time>
      </trkpt>
      <trkpt lat="42.55739" lon="2.00971">
        <ele>1981.5999755859</ele>
        <time>2023-07-19T06:23:50.000Z</time>
      </trkpt>
      <trkpt lat="42.55741" lon="2.00967">
        <ele>1982</ele>
        <time>2023-07-19T06:23:58.000Z</time>
      </trkpt>
      <trkpt lat="42.55742" lon="2.00965">
        <ele>1982</ele>
        <time>2023-07-19T06:24:07.000Z</time>
      </trkpt>
      <trkpt lat="42.55742" lon="2.00962">
        <ele>1982.1999511719</ele>
        <time>2023-07-19T06:24:18.000Z</time>
      </trkpt>
      <trkpt lat="42.5574" lon="2.00964">
        <ele>1982.1999511719</ele>
        <time>2023-07-19T06:24:27.000Z</time>
      </trkpt>
      <trkpt lat="42.55735" lon="2.00964">
        <ele>1982.1999511719</ele>
        <time>2023-07-19T06:24:32.000Z</time>
      </trkpt>
      <trkpt lat="42.55732" lon="2.00957">
        <ele>1982.1999511719</ele>
        <time>2023-07-19T06:24:36.000Z</time>
      </trkpt>
      <trkpt lat="42.5573" lon="2.00952">
        <ele>1982.4000244141</ele>
        <time>2023-07-19T06:24:38.000Z</time>
      </trkpt>
      <trkpt lat="42.55725" lon="2.0094">
        <ele>1982.8000488281</ele>
        <time>2023-07-19T06:24:46.000Z</time>
      </trkpt>
      <trkpt lat="42.5572" lon="2.0093">
        <ele>1983.4000244141</ele>
        <time>2023-07-19T06:24:51.000Z</time>
      </trkpt>
      <trkpt lat="42.55717" lon="2.00924">
        <ele>1983.8000488281</ele>
        <time>2023-07-19T06:24:54.000Z</time>
      </trkpt>
      <trkpt lat="42.5571" lon="2.00911">
        <ele>1984.4000244141</ele>
        <time>2023-07-19T06:25:02.000Z</time>
      </trkpt>
      <trkpt lat="42.55706" lon="2.00897">
        <ele>1985</ele>
        <time>2023-07-19T06:25:10.000Z</time>
      </trkpt>
      <trkpt lat="42.55703" lon="2.00892">
        <ele>1985.4000244141</ele>
        <time>2023-07-19T06:25:14.000Z</time>
      </trkpt>
      <trkpt lat="42.55698" lon="2.00882">
        <ele>1985.8000488281</ele>
        <time>2023-07-19T06:25:20.000Z</time>
      </trkpt>
      <trkpt lat="42.55691" lon="2.0087">
        <ele>1986.4000244141</ele>
        <time>2023-07-19T06:25:28.000Z</time>
      </trkpt>
      <trkpt lat="42.55689" lon="2.00867">
        <ele>1986.5999755859</ele>
        <time>2023-07-19T06:25:30.000Z</time>
      </trkpt>
      <trkpt lat="42.55684" lon="2.00849">
        <ele>1987.4000244141</ele>
        <time>2023-07-19T06:25:39.000Z</time>
      </trkpt>
      <trkpt lat="42.55683" lon="2.00842">
        <ele>1987.5999755859</ele>
        <time>2023-07-19T06:25:42.000Z</time>
      </trkpt>
      <trkpt lat="42.55682" lon="2.00834">
        <ele>1988</ele>
        <time>2023-07-19T06:25:47.000Z</time>
      </trkpt>
      <trkpt lat="42.55683" lon="2.00822">
        <ele>1988.5999755859</ele>
        <time>2023-07-19T06:25:53.000Z</time>
      </trkpt>
      <trkpt lat="42.55683" lon="2.00818">
        <ele>1988.5999755859</ele>
        <time>2023-07-19T06:25:55.000Z</time>
      </trkpt>
      <trkpt lat="42.55684" lon="2.00802">
        <ele>1989.4000244141</ele>
        <time>2023-07-19T06:26:02.000Z</time>
      </trkpt>
      <trkpt lat="42.55686" lon="2.00794">
        <ele>1989.5999755859</ele>
        <time>2023-07-19T06:26:06.000Z</time>
      </trkpt>
      <trkpt lat="42.55687" lon="2.00786">
        <ele>1990</ele>
        <time>2023-07-19T06:26:10.000Z</time>
      </trkpt>
      <trkpt lat="42.55689" lon="2.00772">
        <ele>1990.4000244141</ele>
        <time>2023-07-19T06:26:17.000Z</time>
      </trkpt>
      <trkpt lat="42.55697" lon="2.00761">
        <ele>1990.5999755859</ele>
        <time>2023-07-19T06:26:25.000Z</time>
      </trkpt>
      <trkpt lat="42.55707" lon="2.00743">
        <ele>1990.4000244141</ele>
        <time>2023-07-19T06:26:34.000Z</time>
      </trkpt>
      <trkpt lat="42.55707" lon="2.00732">
        <ele>1990.4000244141</ele>
        <time>2023-07-19T06:26:40.000Z</time>
      </trkpt>
      <trkpt lat="42.55707" lon="2.00713">
        <ele>1990.8000488281</ele>
        <time>2023-07-19T06:26:49.000Z</time>
      </trkpt>
      <trkpt lat="42.55706" lon="2.00711">
        <ele>1990.8000488281</ele>
        <time>2023-07-19T06:26:50.000Z</time>
      </trkpt>
      <trkpt lat="42.55705" lon="2.00705">
        <ele>1991</ele>
        <time>2023-07-19T06:26:55.000Z</time>
      </trkpt>
      <trkpt lat="42.55701" lon="2.00688">
        <ele>1991.4000244141</ele>
        <time>2023-07-19T06:27:03.000Z</time>
      </trkpt>
      <trkpt lat="42.55701" lon="2.00669">
        <ele>1991.5999755859</ele>
        <time>2023-07-19T06:27:12.000Z</time>
      </trkpt>
      <trkpt lat="42.55708" lon="2.00659">
        <ele>1991.5999755859</ele>
        <time>2023-07-19T06:27:20.000Z</time>
      </trkpt>
      <trkpt lat="42.55713" lon="2.00649">
        <ele>1991.8000488281</ele>
        <time>2023-07-19T06:27:28.000Z</time>
      </trkpt>
      <trkpt lat="42.55718" lon="2.00632">
        <ele>1992.4000244141</ele>
        <time>2023-07-19T06:27:38.000Z</time>
      </trkpt>
      <trkpt lat="42.5572" lon="2.00621">
        <ele>1992.5999755859</ele>
        <time>2023-07-19T06:27:44.000Z</time>
      </trkpt>
      <trkpt lat="42.55722" lon="2.00617">
        <ele>1992.8000488281</ele>
        <time>2023-07-19T06:27:46.000Z</time>
      </trkpt>
      <trkpt lat="42.55724" lon="2.0061">
        <ele>1993.1999511719</ele>
        <time>2023-07-19T06:27:50.000Z</time>
      </trkpt>
      <trkpt lat="42.55726" lon="2.00602">
        <ele>1993.8000488281</ele>
        <time>2023-07-19T06:27:55.000Z</time>
      </trkpt>
      <trkpt lat="42.55726" lon="2.00601">
        <ele>1994.1999511719</ele>
        <time>2023-07-19T06:27:57.000Z</time>
      </trkpt>
      <trkpt lat="42.5573" lon="2.00591">
        <ele>1994.4000244141</ele>
        <time>2023-07-19T06:28:03.000Z</time>
      </trkpt>
      <trkpt lat="42.55737" lon="2.0058">
        <ele>1995</ele>
        <time>2023-07-19T06:28:10.000Z</time>
      </trkpt>
      <trkpt lat="42.55742" lon="2.00572">
        <ele>1995.1999511719</ele>
        <time>2023-07-19T06:28:16.000Z</time>
      </trkpt>
      <trkpt lat="42.55747" lon="2.00562">
        <ele>1996</ele>
        <time>2023-07-19T06:28:22.000Z</time>
      </trkpt>
      <trkpt lat="42.5575" lon="2.00557">
        <ele>1996</ele>
        <time>2023-07-19T06:28:25.000Z</time>
      </trkpt>
      <trkpt lat="42.55759" lon="2.00548">
        <ele>1996.8000488281</ele>
        <time>2023-07-19T06:28:33.000Z</time>
      </trkpt>
      <trkpt lat="42.55761" lon="2.00545">
        <ele>1997.1999511719</ele>
        <time>2023-07-19T06:28:35.000Z</time>
      </trkpt>
      <trkpt lat="42.55766" lon="2.00537">
        <ele>1997.4000244141</ele>
        <time>2023-07-19T06:28:40.000Z</time>
      </trkpt>
      <trkpt lat="42.5577" lon="2.00526">
        <ele>1998</ele>
        <time>2023-07-19T06:28:47.000Z</time>
      </trkpt>
      <trkpt lat="42.55771" lon="2.00523">
        <ele>1998.1999511719</ele>
        <time>2023-07-19T06:28:49.000Z</time>
      </trkpt>
      <trkpt lat="42.55772" lon="2.00514">
        <ele>1998.5999755859</ele>
        <time>2023-07-19T06:28:54.000Z</time>
      </trkpt>
      <trkpt lat="42.55773" lon="2.00507">
        <ele>1999.1999511719</ele>
        <time>2023-07-19T06:28:59.000Z</time>
      </trkpt>
      <trkpt lat="42.55774" lon="2.00505">
        <ele>1999.4000244141</ele>
        <time>2023-07-19T06:29:00.000Z</time>
      </trkpt>
      <trkpt lat="42.55778" lon="2.00496">
        <ele>1999.8000488281</ele>
        <time>2023-07-19T06:29:07.000Z</time>
      </trkpt>
      <trkpt lat="42.55783" lon="2.00488">
        <ele>2000.4000244141</ele>
        <time>2023-07-19T06:29:13.000Z</time>
      </trkpt>
      <trkpt lat="42.55786" lon="2.00485">
        <ele>2000.5999755859</ele>
        <time>2023-07-19T06:29:15.000Z</time>
      </trkpt>
      <trkpt lat="42.55793" lon="2.00476">
        <ele>2001.4000244141</ele>
        <time>2023-07-19T06:29:21.000Z</time>
      </trkpt>
      <trkpt lat="42.55794" lon="2.00474">
        <ele>2001.4000244141</ele>
        <time>2023-07-19T06:29:22.000Z</time>
      </trkpt>
      <trkpt lat="42.55799" lon="2.00468">
        <ele>2001.8000488281</ele>
        <time>2023-07-19T06:29:27.000Z</time>
      </trkpt>
      <trkpt lat="42.55806" lon="2.0046">
        <ele>2002.4000244141</ele>
        <time>2023-07-19T06:29:33.000Z</time>
      </trkpt>
      <trkpt lat="42.55814" lon="2.0045">
        <ele>2002.8000488281</ele>
        <time>2023-07-19T06:29:40.000Z</time>
      </trkpt>
      <trkpt lat="42.5582" lon="2.00444">
        <ele>2003.4000244141</ele>
        <time>2023-07-19T06:29:46.000Z</time>
      </trkpt>
      <trkpt lat="42.55828" lon="2.00434">
        <ele>2004.1999511719</ele>
        <time>2023-07-19T06:29:55.000Z</time>
      </trkpt>
      <trkpt lat="42.55831" lon="2.00432">
        <ele>2004.4000244141</ele>
        <time>2023-07-19T06:29:58.000Z</time>
      </trkpt>
      <trkpt lat="42.55837" lon="2.00428">
        <ele>2004.8000488281</ele>
        <time>2023-07-19T06:30:03.000Z</time>
      </trkpt>
      <trkpt lat="42.55843" lon="2.00421">
        <ele>2005.1999511719</ele>
        <time>2023-07-19T06:30:08.000Z</time>
      </trkpt>
      <trkpt lat="42.55842" lon="2.00423">
        <ele>2005.4000244141</ele>
        <time>2023-07-19T06:30:13.000Z</time>
      </trkpt>
      <trkpt lat="42.55841" lon="2.00424">
        <ele>2005.4000244141</ele>
        <time>2023-07-19T06:30:15.000Z</time>
      </trkpt>
      <trkpt lat="42.55841" lon="2.00423">
        <ele>2005.4000244141</ele>
        <time>2023-07-19T06:30:17.000Z</time>
      </trkpt>
      <trkpt lat="42.55845" lon="2.00418">
        <ele>2005.4000244141</ele>
        <time>2023-07-19T06:30:21.000Z</time>
      </trkpt>
      <trkpt lat="42.55847" lon="2.00412">
        <ele>2005.5999755859</ele>
        <time>2023-07-19T06:30:25.000Z</time>
      </trkpt>
      <trkpt lat="42.55849" lon="2.00407">
        <ele>2006.1999511719</ele>
        <time>2023-07-19T06:30:28.000Z</time>
      </trkpt>
      <trkpt lat="42.55855" lon="2.00394">
        <ele>2006.5999755859</ele>
        <time>2023-07-19T06:30:35.000Z</time>
      </trkpt>
      <trkpt lat="42.55857" lon="2.00388">
        <ele>2006.8000488281</ele>
        <time>2023-07-19T06:30:38.000Z</time>
      </trkpt>
      <trkpt lat="42.55865" lon="2.00378">
        <ele>2007.1999511719</ele>
        <time>2023-07-19T06:30:45.000Z</time>
      </trkpt>
      <trkpt lat="42.55872" lon="2.00368">
        <ele>2007.1999511719</ele>
        <time>2023-07-19T06:30:53.000Z</time>
      </trkpt>
      <trkpt lat="42.55876" lon="2.00357">
        <ele>2007.8000488281</ele>
        <time>2023-07-19T06:30:59.000Z</time>
      </trkpt>
      <trkpt lat="42.55877" lon="2.00347">
        <ele>2008.5999755859</ele>
        <time>2023-07-19T06:31:06.000Z</time>
      </trkpt>
      <trkpt lat="42.55878" lon="2.00343">
        <ele>2008.8000488281</ele>
        <time>2023-07-19T06:31:08.000Z</time>
      </trkpt>
      <trkpt lat="42.55879" lon="2.00327">
        <ele>2009.8000488281</ele>
        <time>2023-07-19T06:31:17.000Z</time>
      </trkpt>
      <trkpt lat="42.5588" lon="2.00326">
        <ele>2010</ele>
        <time>2023-07-19T06:31:18.000Z</time>
      </trkpt>
      <trkpt lat="42.55883" lon="2.00317">
        <ele>2010.1999511719</ele>
        <time>2023-07-19T06:31:25.000Z</time>
      </trkpt>
      <trkpt lat="42.55883" lon="2.00315">
        <ele>2010.1999511719</ele>
        <time>2023-07-19T06:31:33.000Z</time>
      </trkpt>
      <trkpt lat="42.55886" lon="2.00314">
        <ele>2010.1999511719</ele>
        <time>2023-07-19T06:31:43.000Z</time>
      </trkpt>
      <trkpt lat="42.55888" lon="2.00324">
        <ele>2010.1999511719</ele>
        <time>2023-07-19T06:31:52.000Z</time>
      </trkpt>
      <trkpt lat="42.5589" lon="2.00333">
        <ele>2010.8000488281</ele>
        <time>2023-07-19T06:31:58.000Z</time>
      </trkpt>
      <trkpt lat="42.5589" lon="2.00334">
        <ele>2011</ele>
        <time>2023-07-19T06:31:59.000Z</time>
      </trkpt>
      <trkpt lat="42.55891" lon="2.00339">
        <ele>2011.4000244141</ele>
        <time>2023-07-19T06:32:03.000Z</time>
      </trkpt>
      <trkpt lat="42.55892" lon="2.00342">
        <ele>2012</ele>
        <time>2023-07-19T06:32:07.000Z</time>
      </trkpt>
      <trkpt lat="42.55893" lon="2.00343">
        <ele>2012.4000244141</ele>
        <time>2023-07-19T06:32:09.000Z</time>
      </trkpt>
      <trkpt lat="42.55893" lon="2.00338">
        <ele>2012.8000488281</ele>
        <time>2023-07-19T06:33:22.000Z</time>
      </trkpt>
      <trkpt lat="42.55892" lon="2.00334">
        <ele>2011.8000488281</ele>
        <time>2023-07-19T06:33:26.000Z</time>
      </trkpt>
      <trkpt lat="42.55891" lon="2.00331">
        <ele>2011.5999755859</ele>
        <time>2023-07-19T06:33:28.000Z</time>
      </trkpt>
      <trkpt lat="42.55889" lon="2.00317">
        <ele>2011</ele>
        <time>2023-07-19T06:33:35.000Z</time>
      </trkpt>
      <trkpt lat="42.55895" lon="2.00313">
        <ele>2011</ele>
        <time>2023-07-19T06:33:41.000Z</time>
      </trkpt>
      <trkpt lat="42.55903" lon="2.0031">
        <ele>2011.5999755859</ele>
        <time>2023-07-19T06:33:46.000Z</time>
      </trkpt>
      <trkpt lat="42.55909" lon="2.00312">
        <ele>2012.4000244141</ele>
        <time>2023-07-19T06:33:52.000Z</time>
      </trkpt>
      <trkpt lat="42.55915" lon="2.00314">
        <ele>2012.8000488281</ele>
        <time>2023-07-19T06:33:57.000Z</time>
      </trkpt>
      <trkpt lat="42.55921" lon="2.00315">
        <ele>2013.1999511719</ele>
        <time>2023-07-19T06:34:01.000Z</time>
      </trkpt>
      <trkpt lat="42.55937" lon="2.00325">
        <ele>2013.5999755859</ele>
        <time>2023-07-19T06:34:10.000Z</time>
      </trkpt>
      <trkpt lat="42.55938" lon="2.00326">
        <ele>2013.8000488281</ele>
        <time>2023-07-19T06:34:11.000Z</time>
      </trkpt>
      <trkpt lat="42.55944" lon="2.00335">
        <ele>2014</ele>
        <time>2023-07-19T06:34:16.000Z</time>
      </trkpt>
      <trkpt lat="42.55946" lon="2.00341">
        <ele>2014.1999511719</ele>
        <time>2023-07-19T06:34:19.000Z</time>
      </trkpt>
      <trkpt lat="42.5595" lon="2.00351">
        <ele>2014.4000244141</ele>
        <time>2023-07-19T06:34:25.000Z</time>
      </trkpt>
      <trkpt lat="42.55958" lon="2.00361">
        <ele>2015</ele>
        <time>2023-07-19T06:34:32.000Z</time>
      </trkpt>
      <trkpt lat="42.55959" lon="2.00362">
        <ele>2015</ele>
        <time>2023-07-19T06:34:33.000Z</time>
      </trkpt>
      <trkpt lat="42.55966" lon="2.0037">
        <ele>2015.8000488281</ele>
        <time>2023-07-19T06:34:41.000Z</time>
      </trkpt>
      <trkpt lat="42.55968" lon="2.00373">
        <ele>2016</ele>
        <time>2023-07-19T06:34:43.000Z</time>
      </trkpt>
      <trkpt lat="42.55973" lon="2.00378">
        <ele>2016.1999511719</ele>
        <time>2023-07-19T06:34:48.000Z</time>
      </trkpt>
      <trkpt lat="42.55982" lon="2.00376">
        <ele>2017</ele>
        <time>2023-07-19T06:34:56.000Z</time>
      </trkpt>
      <trkpt lat="42.55983" lon="2.00377">
        <ele>2017</ele>
        <time>2023-07-19T06:34:57.000Z</time>
      </trkpt>
      <trkpt lat="42.55989" lon="2.00385">
        <ele>2018</ele>
        <time>2023-07-19T06:35:04.000Z</time>
      </trkpt>
      <trkpt lat="42.55989" lon="2.00385">
        <ele>2018.1999511719</ele>
        <time>2023-07-19T06:35:05.000Z</time>
      </trkpt>
      <trkpt lat="42.55991" lon="2.00392">
        <ele>2019.1999511719</ele>
        <time>2023-07-19T06:35:10.000Z</time>
      </trkpt>
      <trkpt lat="42.55991" lon="2.00392">
        <ele>2019.4000244141</ele>
        <time>2023-07-19T06:35:11.000Z</time>
      </trkpt>
      <trkpt lat="42.55992" lon="2.00392">
        <ele>2019.4000244141</ele>
        <time>2023-07-19T06:35:15.000Z</time>
      </trkpt>
      <trkpt lat="42.56021" lon="2.00386">
        <ele>2019</ele>
        <time>2023-07-19T06:36:01.000Z</time>
      </trkpt>
      <trkpt lat="42.56" lon="2.00396">
        <ele>2018.5999755859</ele>
        <time>2023-07-19T06:37:07.000Z</time>
      </trkpt>
      <trkpt lat="42.55999" lon="2.00395">
        <ele>2018.5999755859</ele>
        <time>2023-07-19T06:37:13.000Z</time>
      </trkpt>
      <trkpt lat="42.55996" lon="2.00395">
        <ele>2018.8000488281</ele>
        <time>2023-07-19T06:37:25.000Z</time>
      </trkpt>
      <trkpt lat="42.55996" lon="2.00392">
        <ele>2018.5999755859</ele>
        <time>2023-07-19T06:37:32.000Z</time>
      </trkpt>
      <trkpt lat="42.55996" lon="2.00392">
        <ele>2018.4000244141</ele>
        <time>2023-07-19T06:37:37.000Z</time>
      </trkpt>
      <trkpt lat="42.55999" lon="2.00393">
        <ele>2018.1999511719</ele>
        <time>2023-07-19T06:37:41.000Z</time>
      </trkpt>
      <trkpt lat="42.56002" lon="2.00393">
        <ele>2018</ele>
        <time>2023-07-19T06:37:46.000Z</time>
      </trkpt>
      <trkpt lat="42.56003" lon="2.00393">
        <ele>2018</ele>
        <time>2023-07-19T06:37:54.000Z</time>
      </trkpt>
      <trkpt lat="42.56008" lon="2.00394">
        <ele>2018.1999511719</ele>
        <time>2023-07-19T06:38:02.000Z</time>
      </trkpt>
      <trkpt lat="42.56009" lon="2.00393">
        <ele>2018.1999511719</ele>
        <time>2023-07-19T06:38:10.000Z</time>
      </trkpt>
      <trkpt lat="42.56006" lon="2.00394">
        <ele>2018.1999511719</ele>
        <time>2023-07-19T06:38:17.000Z</time>
      </trkpt>
      <trkpt lat="42.56007" lon="2.00395">
        <ele>2018.1999511719</ele>
        <time>2023-07-19T06:38:23.000Z</time>
      </trkpt>
      <trkpt lat="42.56008" lon="2.00394">
        <ele>2018</ele>
        <time>2023-07-19T06:38:29.000Z</time>
      </trkpt>
      <trkpt lat="42.56007" lon="2.00394">
        <ele>2017.8000488281</ele>
        <time>2023-07-19T06:38:36.000Z</time>
      </trkpt>
      <trkpt lat="42.56008" lon="2.00393">
        <ele>2017.8000488281</ele>
        <time>2023-07-19T06:38:44.000Z</time>
      </trkpt>
      <trkpt lat="42.56007" lon="2.00393">
        <ele>2017.5999755859</ele>
        <time>2023-07-19T06:38:53.000Z</time>
      </trkpt>
      <trkpt lat="42.56006" lon="2.00392">
        <ele>2017.8000488281</ele>
        <time>2023-07-19T06:39:00.000Z</time>
      </trkpt>
      <trkpt lat="42.56005" lon="2.00395">
        <ele>2017.8000488281</ele>
        <time>2023-07-19T06:39:08.000Z</time>
      </trkpt>
      <trkpt lat="42.56003" lon="2.00395">
        <ele>2017.8000488281</ele>
        <time>2023-07-19T06:39:17.000Z</time>
      </trkpt>
      <trkpt lat="42.56004" lon="2.00394">
        <ele>2017.8000488281</ele>
        <time>2023-07-19T06:39:29.000Z</time>
      </trkpt>
      <trkpt lat="42.56002" lon="2.00392">
        <ele>2017.5999755859</ele>
        <time>2023-07-19T06:39:38.000Z</time>
      </trkpt>
      <trkpt lat="42.56001" lon="2.00392">
        <ele>2017.8000488281</ele>
        <time>2023-07-19T06:39:46.000Z</time>
      </trkpt>
      <trkpt lat="42.56001" lon="2.00392">
        <ele>2017.5999755859</ele>
        <time>2023-07-19T06:39:57.000Z</time>
      </trkpt>
      <trkpt lat="42.56003" lon="2.00392">
        <ele>2017.4000244141</ele>
        <time>2023-07-19T06:40:05.000Z</time>
      </trkpt>
      <trkpt lat="42.56004" lon="2.00393">
        <ele>2017.4000244141</ele>
        <time>2023-07-19T06:40:13.000Z</time>
      </trkpt>
      <trkpt lat="42.56005" lon="2.00393">
        <ele>2017.1999511719</ele>
        <time>2023-07-19T06:40:19.000Z</time>
      </trkpt>
      <trkpt lat="42.56006" lon="2.00393">
        <ele>2017.1999511719</ele>
        <time>2023-07-19T06:40:22.000Z</time>
      </trkpt>
      <trkpt lat="42.56006" lon="2.00395">
        <ele>2017.1999511719</ele>
        <time>2023-07-19T06:40:29.000Z</time>
      </trkpt>
      <trkpt lat="42.56003" lon="2.00394">
        <ele>2017.1999511719</ele>
        <time>2023-07-19T06:40:41.000Z</time>
      </trkpt>
      <trkpt lat="42.56001" lon="2.00395">
        <ele>2017.1999511719</ele>
        <time>2023-07-19T06:40:50.000Z</time>
      </trkpt>
      <trkpt lat="42.56002" lon="2.00391">
        <ele>2017.1999511719</ele>
        <time>2023-07-19T06:40:58.000Z</time>
      </trkpt>
      <trkpt lat="42.56002" lon="2.00395">
        <ele>2017.4000244141</ele>
        <time>2023-07-19T06:41:08.000Z</time>
      </trkpt>
      <trkpt lat="42.56003" lon="2.00392">
        <ele>2017.4000244141</ele>
        <time>2023-07-19T06:41:20.000Z</time>
      </trkpt>
      <trkpt lat="42.56" lon="2.0039">
        <ele>2017.1999511719</ele>
        <time>2023-07-19T06:41:28.000Z</time>
      </trkpt>
      <trkpt lat="42.56" lon="2.00391">
        <ele>2017.4000244141</ele>
        <time>2023-07-19T06:41:36.000Z</time>
      </trkpt>
      <trkpt lat="42.55999" lon="2.00393">
        <ele>2017.4000244141</ele>
        <time>2023-07-19T06:41:45.000Z</time>
      </trkpt>
      <trkpt lat="42.56" lon="2.00392">
        <ele>2017.1999511719</ele>
        <time>2023-07-19T06:41:54.000Z</time>
      </trkpt>
      <trkpt lat="42.56001" lon="2.00392">
        <ele>2017</ele>
        <time>2023-07-19T06:42:03.000Z</time>
      </trkpt>
      <trkpt lat="42.56001" lon="2.0039">
        <ele>2017</ele>
        <time>2023-07-19T06:42:11.000Z</time>
      </trkpt>
      <trkpt lat="42.56004" lon="2.00392">
        <ele>2016.8000488281</ele>
        <time>2023-07-19T06:42:22.000Z</time>
      </trkpt>
      <trkpt lat="42.56003" lon="2.00393">
        <ele>2016.8000488281</ele>
        <time>2023-07-19T06:42:30.000Z</time>
      </trkpt>
      <trkpt lat="42.56005" lon="2.00394">
        <ele>2016.5999755859</ele>
        <time>2023-07-19T06:42:40.000Z</time>
      </trkpt>
      <trkpt lat="42.56002" lon="2.00394">
        <ele>2016.1999511719</ele>
        <time>2023-07-19T06:42:48.000Z</time>
      </trkpt>
      <trkpt lat="42.56002" lon="2.00394">
        <ele>2016.1999511719</ele>
        <time>2023-07-19T06:42:49.000Z</time>
      </trkpt>
      <trkpt lat="42.56" lon="2.00391">
        <ele>2016.1999511719</ele>
        <time>2023-07-19T06:42:59.000Z</time>
      </trkpt>
      <trkpt lat="42.55999" lon="2.00393">
        <ele>2016.4000244141</ele>
        <time>2023-07-19T06:43:07.000Z</time>
      </trkpt>
      <trkpt lat="42.56" lon="2.00398">
        <ele>2016.4000244141</ele>
        <time>2023-07-19T06:43:17.000Z</time>
      </trkpt>
      <trkpt lat="42.55998" lon="2.00399">
        <ele>2016.8000488281</ele>
        <time>2023-07-19T06:43:27.000Z</time>
      </trkpt>
      <trkpt lat="42.55997" lon="2.00393">
        <ele>2016.8000488281</ele>
        <time>2023-07-19T06:43:36.000Z</time>
      </trkpt>
      <trkpt lat="42.55997" lon="2.00393">
        <ele>2016.8000488281</ele>
        <time>2023-07-19T06:43:44.000Z</time>
      </trkpt>
      <trkpt lat="42.55998" lon="2.00395">
        <ele>2016.8000488281</ele>
        <time>2023-07-19T06:43:52.000Z</time>
      </trkpt>
      <trkpt lat="42.56" lon="2.00395">
        <ele>2016.8000488281</ele>
        <time>2023-07-19T06:44:00.000Z</time>
      </trkpt>
      <trkpt lat="42.56001" lon="2.00397">
        <ele>2016.8000488281</ele>
        <time>2023-07-19T06:44:07.000Z</time>
      </trkpt>
      <trkpt lat="42.56001" lon="2.00396">
        <ele>2016.8000488281</ele>
        <time>2023-07-19T06:44:13.000Z</time>
      </trkpt>
      <trkpt lat="42.56002" lon="2.004">
        <ele>2016.8000488281</ele>
        <time>2023-07-19T06:44:21.000Z</time>
      </trkpt>
      <trkpt lat="42.56002" lon="2.00399">
        <ele>2017.8000488281</ele>
        <time>2023-07-19T06:44:33.000Z</time>
      </trkpt>
      <trkpt lat="42.56001" lon="2.00396">
        <ele>2017.4000244141</ele>
        <time>2023-07-19T06:44:39.000Z</time>
      </trkpt>
      <trkpt lat="42.56001" lon="2.00394">
        <ele>2017.8000488281</ele>
        <time>2023-07-19T06:44:47.000Z</time>
      </trkpt>
      <trkpt lat="42.56" lon="2.00394">
        <ele>2018</ele>
        <time>2023-07-19T06:44:55.000Z</time>
      </trkpt>
      <trkpt lat="42.55999" lon="2.0039">
        <ele>2018.1999511719</ele>
        <time>2023-07-19T06:45:02.000Z</time>
      </trkpt>
      <trkpt lat="42.55996" lon="2.00383">
        <ele>2017</ele>
        <time>2023-07-19T06:45:09.000Z</time>
      </trkpt>
      <trkpt lat="42.55995" lon="2.0038">
        <ele>2016.1999511719</ele>
        <time>2023-07-19T06:45:11.000Z</time>
      </trkpt>
      <trkpt lat="42.55991" lon="2.0038">
        <ele>2015.8000488281</ele>
        <time>2023-07-19T06:45:15.000Z</time>
      </trkpt>
      <trkpt lat="42.55984" lon="2.00377">
        <ele>2015.1999511719</ele>
        <time>2023-07-19T06:45:22.000Z</time>
      </trkpt>
      <trkpt lat="42.55983" lon="2.00377">
        <ele>2015</ele>
        <time>2023-07-19T06:45:23.000Z</time>
      </trkpt>
      <trkpt lat="42.55978" lon="2.00377">
        <ele>2014.5999755859</ele>
        <time>2023-07-19T06:45:30.000Z</time>
      </trkpt>
      <trkpt lat="42.5598" lon="2.00378">
        <ele>2014.5999755859</ele>
        <time>2023-07-19T06:45:31.000Z</time>
      </trkpt>
      <trkpt lat="42.55985" lon="2.00378">
        <ele>2014.8000488281</ele>
        <time>2023-07-19T06:45:35.000Z</time>
      </trkpt>
      <trkpt lat="42.55992" lon="2.00379">
        <ele>2015.4000244141</ele>
        <time>2023-07-19T06:45:42.000Z</time>
      </trkpt>
      <trkpt lat="42.55995" lon="2.00384">
        <ele>2016.1999511719</ele>
        <time>2023-07-19T06:45:47.000Z</time>
      </trkpt>
      <trkpt lat="42.55995" lon="2.0039">
        <ele>2016.8000488281</ele>
        <time>2023-07-19T06:45:50.000Z</time>
      </trkpt>
      <trkpt lat="42.55996" lon="2.00392">
        <ele>2017.1999511719</ele>
        <time>2023-07-19T06:45:52.000Z</time>
      </trkpt>
      <trkpt lat="42.55996" lon="2.00393">
        <ele>2017.5999755859</ele>
        <time>2023-07-19T06:45:57.000Z</time>
      </trkpt>
      <trkpt lat="42.55996" lon="2.00392">
        <ele>2017.5999755859</ele>
        <time>2023-07-19T06:45:58.000Z</time>
      </trkpt>
      <trkpt lat="42.55996" lon="2.00385">
        <ele>2017.5999755859</ele>
        <time>2023-07-19T06:46:03.000Z</time>
      </trkpt>
      <trkpt lat="42.55993" lon="2.00378">
        <ele>2016</ele>
        <time>2023-07-19T06:46:08.000Z</time>
      </trkpt>
      <trkpt lat="42.5599" lon="2.00377">
        <ele>2015.4000244141</ele>
        <time>2023-07-19T06:46:10.000Z</time>
      </trkpt>
      <trkpt lat="42.55985" lon="2.00376">
        <ele>2015</ele>
        <time>2023-07-19T06:46:14.000Z</time>
      </trkpt>
      <trkpt lat="42.55983" lon="2.00377">
        <ele>2014.8000488281</ele>
        <time>2023-07-19T06:46:16.000Z</time>
      </trkpt>
      <trkpt lat="42.55972" lon="2.00378">
        <ele>2014.1999511719</ele>
        <time>2023-07-19T06:46:24.000Z</time>
      </trkpt>
      <trkpt lat="42.55971" lon="2.00377">
        <ele>2013.8000488281</ele>
        <time>2023-07-19T06:46:26.000Z</time>
      </trkpt>
      <trkpt lat="42.55971" lon="2.00377">
        <ele>2013.8000488281</ele>
        <time>2023-07-19T06:46:29.000Z</time>
      </trkpt>
      <trkpt lat="42.55972" lon="2.00377">
        <ele>2013.8000488281</ele>
        <time>2023-07-19T06:46:31.000Z</time>
      </trkpt>
      <trkpt lat="42.55979" lon="2.00377">
        <ele>2013.8000488281</ele>
        <time>2023-07-19T06:46:36.000Z</time>
      </trkpt>
      <trkpt lat="42.55987" lon="2.00378">
        <ele>2014.4000244141</ele>
        <time>2023-07-19T06:46:44.000Z</time>
      </trkpt>
      <trkpt lat="42.55993" lon="2.00378">
        <ele>2014.8000488281</ele>
        <time>2023-07-19T06:46:49.000Z</time>
      </trkpt>
      <trkpt lat="42.55994" lon="2.00377">
        <ele>2015</ele>
        <time>2023-07-19T06:46:50.000Z</time>
      </trkpt>
      <trkpt lat="42.56001" lon="2.00375">
        <ele>2015.5999755859</ele>
        <time>2023-07-19T06:46:55.000Z</time>
      </trkpt>
      <trkpt lat="42.56006" lon="2.00368">
        <ele>2016</ele>
        <time>2023-07-19T06:47:01.000Z</time>
      </trkpt>
      <trkpt lat="42.56007" lon="2.00367">
        <ele>2016</ele>
        <time>2023-07-19T06:47:02.000Z</time>
      </trkpt>
      <trkpt lat="42.56015" lon="2.00365">
        <ele>2016.1999511719</ele>
        <time>2023-07-19T06:47:09.000Z</time>
      </trkpt>
      <trkpt lat="42.56023" lon="2.00359">
        <ele>2016.8000488281</ele>
        <time>2023-07-19T06:47:15.000Z</time>
      </trkpt>
      <trkpt lat="42.56024" lon="2.00357">
        <ele>2017</ele>
        <time>2023-07-19T06:47:17.000Z</time>
      </trkpt>
      <trkpt lat="42.56023" lon="2.00358">
        <ele>2017</ele>
        <time>2023-07-19T06:47:18.000Z</time>
      </trkpt>
      <trkpt lat="42.56022" lon="2.00358">
        <ele>2017</ele>
        <time>2023-07-19T06:47:19.000Z</time>
      </trkpt>
      <trkpt lat="42.56011" lon="2.00356">
        <ele>2016.4000244141</ele>
        <time>2023-07-19T06:47:25.000Z</time>
      </trkpt>
      <trkpt lat="42.56012" lon="2.00354">
        <ele>2016.1999511719</ele>
        <time>2023-07-19T06:47:26.000Z</time>
      </trkpt>
      <trkpt lat="42.56013" lon="2.00349">
        <ele>2016</ele>
        <time>2023-07-19T06:47:29.000Z</time>
      </trkpt>
      <trkpt lat="42.56013" lon="2.00347">
        <ele>2016</ele>
        <time>2023-07-19T06:47:30.000Z</time>
      </trkpt>
      <trkpt lat="42.56022" lon="2.0034">
        <ele>2015.8000488281</ele>
        <time>2023-07-19T06:47:37.000Z</time>
      </trkpt>
      <trkpt lat="42.5603" lon="2.00338">
        <ele>2016</ele>
        <time>2023-07-19T06:47:44.000Z</time>
      </trkpt>
      <trkpt lat="42.5604" lon="2.00334">
        <ele>2016.1999511719</ele>
        <time>2023-07-19T06:47:51.000Z</time>
      </trkpt>
      <trkpt lat="42.56046" lon="2.00327">
        <ele>2016.5999755859</ele>
        <time>2023-07-19T06:47:57.000Z</time>
      </trkpt>
      <trkpt lat="42.56047" lon="2.00322">
        <ele>2017</ele>
        <time>2023-07-19T06:48:00.000Z</time>
      </trkpt>
      <trkpt lat="42.56045" lon="2.00314">
        <ele>2018</ele>
        <time>2023-07-19T06:48:05.000Z</time>
      </trkpt>
      <trkpt lat="42.56045" lon="2.00312">
        <ele>2018.1999511719</ele>
        <time>2023-07-19T06:48:06.000Z</time>
      </trkpt>
      <trkpt lat="42.56042" lon="2.00299">
        <ele>2018</ele>
        <time>2023-07-19T06:48:16.000Z</time>
      </trkpt>
      <trkpt lat="42.56043" lon="2.00294">
        <ele>2018.1999511719</ele>
        <time>2023-07-19T06:48:22.000Z</time>
      </trkpt>
      <trkpt lat="42.56042" lon="2.00296">
        <ele>2017.8000488281</ele>
        <time>2023-07-19T06:48:30.000Z</time>
      </trkpt>
      <trkpt lat="42.56041" lon="2.00291">
        <ele>2017.8000488281</ele>
        <time>2023-07-19T06:48:35.000Z</time>
      </trkpt>
      <trkpt lat="42.56039" lon="2.00279">
        <ele>2017.8000488281</ele>
        <time>2023-07-19T06:48:43.000Z</time>
      </trkpt>
      <trkpt lat="42.56035" lon="2.00266">
        <ele>2017.8000488281</ele>
        <time>2023-07-19T06:48:49.000Z</time>
      </trkpt>
      <trkpt lat="42.56032" lon="2.00254">
        <ele>2018</ele>
        <time>2023-07-19T06:48:56.000Z</time>
      </trkpt>
      <trkpt lat="42.5603" lon="2.00236">
        <ele>2018.5999755859</ele>
        <time>2023-07-19T06:49:05.000Z</time>
      </trkpt>
      <trkpt lat="42.56025" lon="2.00213">
        <ele>2018.8000488281</ele>
        <time>2023-07-19T06:49:16.000Z</time>
      </trkpt>
      <trkpt lat="42.56025" lon="2.00211">
        <ele>2018.8000488281</ele>
        <time>2023-07-19T06:49:17.000Z</time>
      </trkpt>
      <trkpt lat="42.56022" lon="2.00194">
        <ele>2019</ele>
        <time>2023-07-19T06:49:26.000Z</time>
      </trkpt>
      <trkpt lat="42.56021" lon="2.0018">
        <ele>2019</ele>
        <time>2023-07-19T06:49:34.000Z</time>
      </trkpt>
      <trkpt lat="42.56018" lon="2.00164">
        <ele>2019</ele>
        <time>2023-07-19T06:49:43.000Z</time>
      </trkpt>
      <trkpt lat="42.56016" lon="2.00157">
        <ele>2018.8000488281</ele>
        <time>2023-07-19T06:49:49.000Z</time>
      </trkpt>
      <trkpt lat="42.56017" lon="2.00158">
        <ele>2018.8000488281</ele>
        <time>2023-07-19T06:49:57.000Z</time>
      </trkpt>
      <trkpt lat="42.56018" lon="2.00152">
        <ele>2018.5999755859</ele>
        <time>2023-07-19T06:50:03.000Z</time>
      </trkpt>
      <trkpt lat="42.56014" lon="2.00136">
        <ele>2018</ele>
        <time>2023-07-19T06:50:10.000Z</time>
      </trkpt>
      <trkpt lat="42.56011" lon="2.00115">
        <ele>2017.8000488281</ele>
        <time>2023-07-19T06:50:20.000Z</time>
      </trkpt>
      <trkpt lat="42.56007" lon="2.00095">
        <ele>2017.5999755859</ele>
        <time>2023-07-19T06:50:30.000Z</time>
      </trkpt>
      <trkpt lat="42.56003" lon="2.00076">
        <ele>2017.1999511719</ele>
        <time>2023-07-19T06:50:40.000Z</time>
      </trkpt>
      <trkpt lat="42.56001" lon="2.0006">
        <ele>2017</ele>
        <time>2023-07-19T06:50:48.000Z</time>
      </trkpt>
      <trkpt lat="42.56" lon="2.00054">
        <ele>2017.1999511719</ele>
        <time>2023-07-19T06:50:51.000Z</time>
      </trkpt>
      <trkpt lat="42.55997" lon="2.00036">
        <ele>2017.1999511719</ele>
        <time>2023-07-19T06:51:00.000Z</time>
      </trkpt>
      <trkpt lat="42.55994" lon="2.00021">
        <ele>2017.1999511719</ele>
        <time>2023-07-19T06:51:07.000Z</time>
      </trkpt>
      <trkpt lat="42.55991" lon="2.00006">
        <ele>2016.8000488281</ele>
        <time>2023-07-19T06:51:15.000Z</time>
      </trkpt>
      <trkpt lat="42.55988" lon="1.99987">
        <ele>2016.5999755859</ele>
        <time>2023-07-19T06:51:24.000Z</time>
      </trkpt>
      <trkpt lat="42.55984" lon="1.99967">
        <ele>2016.4000244141</ele>
        <time>2023-07-19T06:51:34.000Z</time>
      </trkpt>
      <trkpt lat="42.55981" lon="1.99951">
        <ele>2016.4000244141</ele>
        <time>2023-07-19T06:51:42.000Z</time>
      </trkpt>
      <trkpt lat="42.55978" lon="1.9993">
        <ele>2016</ele>
        <time>2023-07-19T06:51:52.000Z</time>
      </trkpt>
      <trkpt lat="42.55975" lon="1.99911">
        <ele>2016</ele>
        <time>2023-07-19T06:52:01.000Z</time>
      </trkpt>
      <trkpt lat="42.5597" lon="1.99901">
        <ele>2016</ele>
        <time>2023-07-19T06:52:08.000Z</time>
      </trkpt>
      <trkpt lat="42.55969" lon="1.99903">
        <ele>2016</ele>
        <time>2023-07-19T06:52:09.000Z</time>
      </trkpt>
      <trkpt lat="42.5597" lon="1.99913">
        <ele>2015.4000244141</ele>
        <time>2023-07-19T06:52:14.000Z</time>
      </trkpt>
      <trkpt lat="42.5597" lon="1.99917">
        <ele>2014.8000488281</ele>
        <time>2023-07-19T06:52:16.000Z</time>
      </trkpt>
      <trkpt lat="42.55971" lon="1.99925">
        <ele>2014.1999511719</ele>
        <time>2023-07-19T06:52:21.000Z</time>
      </trkpt>
      <trkpt lat="42.5597" lon="1.99931">
        <ele>2013.5999755859</ele>
        <time>2023-07-19T06:52:24.000Z</time>
      </trkpt>
      <trkpt lat="42.55969" lon="1.99935">
        <ele>2013.4000244141</ele>
        <time>2023-07-19T06:52:26.000Z</time>
      </trkpt>
      <trkpt lat="42.55965" lon="1.99941">
        <ele>2012.5999755859</ele>
        <time>2023-07-19T06:52:30.000Z</time>
      </trkpt>
      <trkpt lat="42.55961" lon="1.99945">
        <ele>2012.1999511719</ele>
        <time>2023-07-19T06:52:33.000Z</time>
      </trkpt>
      <trkpt lat="42.55953" lon="1.99948">
        <ele>2012.1999511719</ele>
        <time>2023-07-19T06:52:39.000Z</time>
      </trkpt>
      <trkpt lat="42.55967" lon="1.99937">
        <ele>2014.1999511719</ele>
        <time>2023-07-19T07:00:52.000Z</time>
      </trkpt>
      <trkpt lat="42.55969" lon="1.99932">
        <ele>2014</ele>
        <time>2023-07-19T07:00:57.000Z</time>
      </trkpt>
      <trkpt lat="42.55971" lon="1.99926">
        <ele>2014.8000488281</ele>
        <time>2023-07-19T07:01:03.000Z</time>
      </trkpt>
      <trkpt lat="42.5597" lon="1.99919">
        <ele>2015.8000488281</ele>
        <time>2023-07-19T07:01:08.000Z</time>
      </trkpt>
      <trkpt lat="42.55969" lon="1.99909">
        <ele>2016.5999755859</ele>
        <time>2023-07-19T07:01:14.000Z</time>
      </trkpt>
      <trkpt lat="42.5597" lon="1.99906">
        <ele>2016.8000488281</ele>
        <time>2023-07-19T07:01:16.000Z</time>
      </trkpt>
      <trkpt lat="42.5597" lon="1.99901">
        <ele>2017.4000244141</ele>
        <time>2023-07-19T07:01:19.000Z</time>
      </trkpt>
      <trkpt lat="42.55971" lon="1.99894">
        <ele>2017.8000488281</ele>
        <time>2023-07-19T07:01:23.000Z</time>
      </trkpt>
      <trkpt lat="42.55971" lon="1.99891">
        <ele>2018</ele>
        <time>2023-07-19T07:01:25.000Z</time>
      </trkpt>
      <trkpt lat="42.55967" lon="1.99884">
        <ele>2019</ele>
        <time>2023-07-19T07:01:31.000Z</time>
      </trkpt>
      <trkpt lat="42.55966" lon="1.99877">
        <ele>2019.5999755859</ele>
        <time>2023-07-19T07:01:38.000Z</time>
      </trkpt>
      <trkpt lat="42.55966" lon="1.99877">
        <ele>2019.5999755859</ele>
        <time>2023-07-19T07:01:39.000Z</time>
      </trkpt>
      <trkpt lat="42.55969" lon="1.99876">
        <ele>2019.5999755859</ele>
        <time>2023-07-19T07:01:47.000Z</time>
      </trkpt>
      <trkpt lat="42.55968" lon="1.99876">
        <ele>2019.5999755859</ele>
        <time>2023-07-19T07:01:49.000Z</time>
      </trkpt>
      <trkpt lat="42.55968" lon="1.99876">
        <ele>2019.5999755859</ele>
        <time>2023-07-19T07:01:56.000Z</time>
      </trkpt>
      <trkpt lat="42.55968" lon="1.99875">
        <ele>2019.8000488281</ele>
        <time>2023-07-19T07:02:02.000Z</time>
      </trkpt>
      <trkpt lat="42.55972" lon="1.99871">
        <ele>2019.8000488281</ele>
        <time>2023-07-19T07:02:08.000Z</time>
      </trkpt>
      <trkpt lat="42.55973" lon="1.99869">
        <ele>2019.8000488281</ele>
        <time>2023-07-19T07:02:13.000Z</time>
      </trkpt>
      <trkpt lat="42.55979" lon="1.99863">
        <ele>2019.8000488281</ele>
        <time>2023-07-19T07:02:20.000Z</time>
      </trkpt>
      <trkpt lat="42.5598" lon="1.99863">
        <ele>2020</ele>
        <time>2023-07-19T07:02:21.000Z</time>
      </trkpt>
      <trkpt lat="42.5599" lon="1.99859">
        <ele>2019.5999755859</ele>
        <time>2023-07-19T07:02:28.000Z</time>
      </trkpt>
      <trkpt lat="42.55997" lon="1.99855">
        <ele>2019.4000244141</ele>
        <time>2023-07-19T07:02:35.000Z</time>
      </trkpt>
      <trkpt lat="42.56009" lon="1.99854">
        <ele>2019.4000244141</ele>
        <time>2023-07-19T07:02:46.000Z</time>
      </trkpt>
      <trkpt lat="42.56011" lon="1.99851">
        <ele>2019.4000244141</ele>
        <time>2023-07-19T07:02:53.000Z</time>
      </trkpt>
      <trkpt lat="42.5601" lon="1.99843">
        <ele>2019.5999755859</ele>
        <time>2023-07-19T07:02:59.000Z</time>
      </trkpt>
      <trkpt lat="42.56015" lon="1.99832">
        <ele>2019.8000488281</ele>
        <time>2023-07-19T07:03:06.000Z</time>
      </trkpt>
      <trkpt lat="42.56024" lon="1.99825">
        <ele>2020.1999511719</ele>
        <time>2023-07-19T07:03:14.000Z</time>
      </trkpt>
      <trkpt lat="42.56032" lon="1.99817">
        <ele>2019</ele>
        <time>2023-07-19T07:03:22.000Z</time>
      </trkpt>
      <trkpt lat="42.56043" lon="1.99806">
        <ele>2019.5999755859</ele>
        <time>2023-07-19T07:03:31.000Z</time>
      </trkpt>
      <trkpt lat="42.5605" lon="1.99802">
        <ele>2020</ele>
        <time>2023-07-19T07:03:38.000Z</time>
      </trkpt>
      <trkpt lat="42.56058" lon="1.99798">
        <ele>2019.5999755859</ele>
        <time>2023-07-19T07:03:45.000Z</time>
      </trkpt>
      <trkpt lat="42.56066" lon="1.99793">
        <ele>2019.8000488281</ele>
        <time>2023-07-19T07:03:55.000Z</time>
      </trkpt>
      <trkpt lat="42.56077" lon="1.99789">
        <ele>2018.8000488281</ele>
        <time>2023-07-19T07:04:01.000Z</time>
      </trkpt>
      <trkpt lat="42.56078" lon="1.99788">
        <ele>2018.8000488281</ele>
        <time>2023-07-19T07:04:02.000Z</time>
      </trkpt>
      <trkpt lat="42.56083" lon="1.99777">
        <ele>2019</ele>
        <time>2023-07-19T07:04:10.000Z</time>
      </trkpt>
      <trkpt lat="42.56082" lon="1.9977">
        <ele>2020</ele>
        <time>2023-07-19T07:04:14.000Z</time>
      </trkpt>
      <trkpt lat="42.56082" lon="1.99766">
        <ele>2020.5999755859</ele>
        <time>2023-07-19T07:04:17.000Z</time>
      </trkpt>
      <trkpt lat="42.56084" lon="1.99763">
        <ele>2021</ele>
        <time>2023-07-19T07:04:21.000Z</time>
      </trkpt>
      <trkpt lat="42.56088" lon="1.9976">
        <ele>2021.4000244141</ele>
        <time>2023-07-19T07:04:25.000Z</time>
      </trkpt>
      <trkpt lat="42.5609" lon="1.99757">
        <ele>2022</ele>
        <time>2023-07-19T07:04:31.000Z</time>
      </trkpt>
      <trkpt lat="42.5609" lon="1.99757">
        <ele>2022.1999511719</ele>
        <time>2023-07-19T07:04:33.000Z</time>
      </trkpt>
      <trkpt lat="42.56092" lon="1.99759">
        <ele>2023.1999511719</ele>
        <time>2023-07-19T07:04:37.000Z</time>
      </trkpt>
      <trkpt lat="42.56093" lon="1.99759">
        <ele>2023.1999511719</ele>
        <time>2023-07-19T07:04:38.000Z</time>
      </trkpt>
      <trkpt lat="42.56095" lon="1.9976">
        <ele>2023.5999755859</ele>
        <time>2023-07-19T07:04:40.000Z</time>
      </trkpt>
      <trkpt lat="42.56107" lon="1.99759">
        <ele>2023.5999755859</ele>
        <time>2023-07-19T07:04:48.000Z</time>
      </trkpt>
      <trkpt lat="42.56113" lon="1.99758">
        <ele>2023.8000488281</ele>
        <time>2023-07-19T07:04:55.000Z</time>
      </trkpt>
      <trkpt lat="42.56114" lon="1.99758">
        <ele>2023</ele>
        <time>2023-07-19T07:05:02.000Z</time>
      </trkpt>
      <trkpt lat="42.56115" lon="1.99758">
        <ele>2022.8000488281</ele>
        <time>2023-07-19T07:05:03.000Z</time>
      </trkpt>
      <trkpt lat="42.56115" lon="1.99758">
        <ele>2022.8000488281</ele>
        <time>2023-07-19T07:05:04.000Z</time>
      </trkpt>
      <trkpt lat="42.5612" lon="1.99757">
        <ele>2022.1999511719</ele>
        <time>2023-07-19T07:05:09.000Z</time>
      </trkpt>
      <trkpt lat="42.56124" lon="1.99755">
        <ele>2021.4000244141</ele>
        <time>2023-07-19T07:05:13.000Z</time>
      </trkpt>
      <trkpt lat="42.56127" lon="1.99753">
        <ele>2020.8000488281</ele>
        <time>2023-07-19T07:05:15.000Z</time>
      </trkpt>
      <trkpt lat="42.56131" lon="1.99751">
        <ele>2020</ele>
        <time>2023-07-19T07:05:22.000Z</time>
      </trkpt>
      <trkpt lat="42.5613" lon="1.99749">
        <ele>2020</ele>
        <time>2023-07-19T07:05:25.000Z</time>
      </trkpt>
      <trkpt lat="42.56141" lon="1.99744">
        <ele>2020.4000244141</ele>
        <time>2023-07-19T07:05:35.000Z</time>
      </trkpt>
      <trkpt lat="42.56146" lon="1.99736">
        <ele>2021.4000244141</ele>
        <time>2023-07-19T07:05:41.000Z</time>
      </trkpt>
      <trkpt lat="42.56149" lon="1.99733">
        <ele>2021.8000488281</ele>
        <time>2023-07-19T07:05:46.000Z</time>
      </trkpt>
      <trkpt lat="42.56152" lon="1.99732">
        <ele>2022.1999511719</ele>
        <time>2023-07-19T07:05:50.000Z</time>
      </trkpt>
      <trkpt lat="42.56155" lon="1.99732">
        <ele>2022.4000244141</ele>
        <time>2023-07-19T07:05:57.000Z</time>
      </trkpt>
      <trkpt lat="42.5617" lon="1.9972">
        <ele>2021.1999511719</ele>
        <time>2023-07-19T07:06:16.000Z</time>
      </trkpt>
      <trkpt lat="42.5618" lon="1.99712">
        <ele>2021.8000488281</ele>
        <time>2023-07-19T07:06:24.000Z</time>
      </trkpt>
      <trkpt lat="42.56186" lon="1.99711">
        <ele>2022.1999511719</ele>
        <time>2023-07-19T07:06:30.000Z</time>
      </trkpt>
      <trkpt lat="42.56193" lon="1.99711">
        <ele>2022.8000488281</ele>
        <time>2023-07-19T07:06:36.000Z</time>
      </trkpt>
      <trkpt lat="42.56194" lon="1.9971">
        <ele>2023</ele>
        <time>2023-07-19T07:06:37.000Z</time>
      </trkpt>
      <trkpt lat="42.56195" lon="1.99708">
        <ele>2023</ele>
        <time>2023-07-19T07:06:39.000Z</time>
      </trkpt>
      <trkpt lat="42.56194" lon="1.99705">
        <ele>2023</ele>
        <time>2023-07-19T07:06:44.000Z</time>
      </trkpt>
      <trkpt lat="42.56196" lon="1.99705">
        <ele>2024</ele>
        <time>2023-07-19T07:06:49.000Z</time>
      </trkpt>
      <trkpt lat="42.56197" lon="1.99705">
        <ele>2024.5999755859</ele>
        <time>2023-07-19T07:06:51.000Z</time>
      </trkpt>
      <trkpt lat="42.56197" lon="1.99704">
        <ele>2025</ele>
        <time>2023-07-19T07:06:53.000Z</time>
      </trkpt>
      <trkpt lat="42.56202" lon="1.99701">
        <ele>2025</ele>
        <time>2023-07-19T07:07:02.000Z</time>
      </trkpt>
      <trkpt lat="42.56205" lon="1.99698">
        <ele>2025</ele>
        <time>2023-07-19T07:07:10.000Z</time>
      </trkpt>
      <trkpt lat="42.56206" lon="1.99706">
        <ele>2024.8000488281</ele>
        <time>2023-07-19T07:07:20.000Z</time>
      </trkpt>
      <trkpt lat="42.56204" lon="1.997">
        <ele>2024.8000488281</ele>
        <time>2023-07-19T07:07:33.000Z</time>
      </trkpt>
      <trkpt lat="42.56209" lon="1.99693">
        <ele>2025.1999511719</ele>
        <time>2023-07-19T07:07:40.000Z</time>
      </trkpt>
      <trkpt lat="42.5621" lon="1.99688">
        <ele>2025.4000244141</ele>
        <time>2023-07-19T07:07:47.000Z</time>
      </trkpt>
      <trkpt lat="42.56214" lon="1.99683">
        <ele>2024.5999755859</ele>
        <time>2023-07-19T07:07:55.000Z</time>
      </trkpt>
      <trkpt lat="42.56215" lon="1.99682">
        <ele>2024</ele>
        <time>2023-07-19T07:07:59.000Z</time>
      </trkpt>
      <trkpt lat="42.56216" lon="1.99682">
        <ele>2023.8000488281</ele>
        <time>2023-07-19T07:08:00.000Z</time>
      </trkpt>
      <trkpt lat="42.56221" lon="1.99678">
        <ele>2022.8000488281</ele>
        <time>2023-07-19T07:08:07.000Z</time>
      </trkpt>
      <trkpt lat="42.56223" lon="1.99681">
        <ele>2022.8000488281</ele>
        <time>2023-07-19T07:08:12.000Z</time>
      </trkpt>
      <trkpt lat="42.56225" lon="1.99684">
        <ele>2022.8000488281</ele>
        <time>2023-07-19T07:08:14.000Z</time>
      </trkpt>
      <trkpt lat="42.56227" lon="1.99685">
        <ele>2021.8000488281</ele>
        <time>2023-07-19T07:08:21.000Z</time>
      </trkpt>
      <trkpt lat="42.5624" lon="1.99684">
        <ele>2019.8000488281</ele>
        <time>2023-07-19T07:08:38.000Z</time>
      </trkpt>
      <trkpt lat="42.56246" lon="1.9968">
        <ele>2018</ele>
        <time>2023-07-19T07:08:49.000Z</time>
      </trkpt>
      <trkpt lat="42.56255" lon="1.99674">
        <ele>2018</ele>
        <time>2023-07-19T07:08:58.000Z</time>
      </trkpt>
      <trkpt lat="42.56262" lon="1.99673">
        <ele>2018.1999511719</ele>
        <time>2023-07-19T07:09:05.000Z</time>
      </trkpt>
      <trkpt lat="42.56273" lon="1.99671">
        <ele>2019</ele>
        <time>2023-07-19T07:09:20.000Z</time>
      </trkpt>
      <trkpt lat="42.56275" lon="1.99669">
        <ele>2019.8000488281</ele>
        <time>2023-07-19T07:09:24.000Z</time>
      </trkpt>
      <trkpt lat="42.56278" lon="1.99667">
        <ele>2020.4000244141</ele>
        <time>2023-07-19T07:09:29.000Z</time>
      </trkpt>
      <trkpt lat="42.5628" lon="1.99666">
        <ele>2020.8000488281</ele>
        <time>2023-07-19T07:09:31.000Z</time>
      </trkpt>
      <trkpt lat="42.56285" lon="1.99663">
        <ele>2021.1999511719</ele>
        <time>2023-07-19T07:09:37.000Z</time>
      </trkpt>
      <trkpt lat="42.56294" lon="1.99658">
        <ele>2021.5999755859</ele>
        <time>2023-07-19T07:09:44.000Z</time>
      </trkpt>
      <trkpt lat="42.56296" lon="1.99656">
        <ele>2021.8000488281</ele>
        <time>2023-07-19T07:09:47.000Z</time>
      </trkpt>
      <trkpt lat="42.56307" lon="1.99652">
        <ele>2022.4000244141</ele>
        <time>2023-07-19T07:09:59.000Z</time>
      </trkpt>
      <trkpt lat="42.56316" lon="1.99649">
        <ele>2022.5999755859</ele>
        <time>2023-07-19T07:10:06.000Z</time>
      </trkpt>
      <trkpt lat="42.56322" lon="1.99645">
        <ele>2022.5999755859</ele>
        <time>2023-07-19T07:10:14.000Z</time>
      </trkpt>
      <trkpt lat="42.56327" lon="1.99639">
        <ele>2022.5999755859</ele>
        <time>2023-07-19T07:10:21.000Z</time>
      </trkpt>
      <trkpt lat="42.5633" lon="1.99638">
        <ele>2022.5999755859</ele>
        <time>2023-07-19T07:10:28.000Z</time>
      </trkpt>
      <trkpt lat="42.56335" lon="1.99636">
        <ele>2022.4000244141</ele>
        <time>2023-07-19T07:10:36.000Z</time>
      </trkpt>
      <trkpt lat="42.56343" lon="1.99636">
        <ele>2022.8000488281</ele>
        <time>2023-07-19T07:10:43.000Z</time>
      </trkpt>
      <trkpt lat="42.56346" lon="1.99636">
        <ele>2023</ele>
        <time>2023-07-19T07:10:48.000Z</time>
      </trkpt>
      <trkpt lat="42.56353" lon="1.99634">
        <ele>2023</ele>
        <time>2023-07-19T07:10:55.000Z</time>
      </trkpt>
      <trkpt lat="42.56362" lon="1.99629">
        <ele>2023.1999511719</ele>
        <time>2023-07-19T07:11:02.000Z</time>
      </trkpt>
      <trkpt lat="42.56365" lon="1.99627">
        <ele>2024</ele>
        <time>2023-07-19T07:11:06.000Z</time>
      </trkpt>
      <trkpt lat="42.56367" lon="1.99625">
        <ele>2024.1999511719</ele>
        <time>2023-07-19T07:11:08.000Z</time>
      </trkpt>
      <trkpt lat="42.56376" lon="1.99618">
        <ele>2025.1999511719</ele>
        <time>2023-07-19T07:11:16.000Z</time>
      </trkpt>
      <trkpt lat="42.56377" lon="1.99616">
        <ele>2025.5999755859</ele>
        <time>2023-07-19T07:11:19.000Z</time>
      </trkpt>
      <trkpt lat="42.56377" lon="1.99612">
        <ele>2026.1999511719</ele>
        <time>2023-07-19T07:11:23.000Z</time>
      </trkpt>
      <trkpt lat="42.56378" lon="1.99611">
        <ele>2026.8000488281</ele>
        <time>2023-07-19T07:11:26.000Z</time>
      </trkpt>
      <trkpt lat="42.56378" lon="1.99611">
        <ele>2027.4000244141</ele>
        <time>2023-07-19T07:11:28.000Z</time>
      </trkpt>
      <trkpt lat="42.5638" lon="1.99607">
        <ele>2028</ele>
        <time>2023-07-19T07:11:33.000Z</time>
      </trkpt>
      <trkpt lat="42.56383" lon="1.99601">
        <ele>2028.4000244141</ele>
        <time>2023-07-19T07:11:41.000Z</time>
      </trkpt>
      <trkpt lat="42.56383" lon="1.996">
        <ele>2028.5999755859</ele>
        <time>2023-07-19T07:11:42.000Z</time>
      </trkpt>
      <trkpt lat="42.56385" lon="1.99596">
        <ele>2029.5999755859</ele>
        <time>2023-07-19T07:11:47.000Z</time>
      </trkpt>
      <trkpt lat="42.56387" lon="1.99594">
        <ele>2029.8000488281</ele>
        <time>2023-07-19T07:11:49.000Z</time>
      </trkpt>
      <trkpt lat="42.56396" lon="1.9959">
        <ele>2030.4000244141</ele>
        <time>2023-07-19T07:11:59.000Z</time>
      </trkpt>
      <trkpt lat="42.564" lon="1.99585">
        <ele>2031.1999511719</ele>
        <time>2023-07-19T07:12:10.000Z</time>
      </trkpt>
      <trkpt lat="42.56401" lon="1.99581">
        <ele>2031.1999511719</ele>
        <time>2023-07-19T07:12:12.000Z</time>
      </trkpt>
      <trkpt lat="42.56405" lon="1.99572">
        <ele>2031.4000244141</ele>
        <time>2023-07-19T07:12:19.000Z</time>
      </trkpt>
      <trkpt lat="42.56407" lon="1.99568">
        <ele>2031.8000488281</ele>
        <time>2023-07-19T07:12:22.000Z</time>
      </trkpt>
      <trkpt lat="42.56409" lon="1.99558">
        <ele>2032.5999755859</ele>
        <time>2023-07-19T07:12:28.000Z</time>
      </trkpt>
      <trkpt lat="42.56412" lon="1.99547">
        <ele>2032.4000244141</ele>
        <time>2023-07-19T07:12:37.000Z</time>
      </trkpt>
      <trkpt lat="42.56414" lon="1.99543">
        <ele>2031.5999755859</ele>
        <time>2023-07-19T07:12:46.000Z</time>
      </trkpt>
      <trkpt lat="42.56417" lon="1.99539">
        <ele>2030.8000488281</ele>
        <time>2023-07-19T07:12:55.000Z</time>
      </trkpt>
      <trkpt lat="42.56418" lon="1.99538">
        <ele>2030.5999755859</ele>
        <time>2023-07-19T07:12:57.000Z</time>
      </trkpt>
      <trkpt lat="42.56423" lon="1.99537">
        <ele>2029.8000488281</ele>
        <time>2023-07-19T07:13:03.000Z</time>
      </trkpt>
      <trkpt lat="42.56424" lon="1.99537">
        <ele>2029.5999755859</ele>
        <time>2023-07-19T07:13:04.000Z</time>
      </trkpt>
      <trkpt lat="42.56425" lon="1.99533">
        <ele>2028.8000488281</ele>
        <time>2023-07-19T07:13:12.000Z</time>
      </trkpt>
      <trkpt lat="42.56428" lon="1.99526">
        <ele>2028</ele>
        <time>2023-07-19T07:13:20.000Z</time>
      </trkpt>
      <trkpt lat="42.56429" lon="1.99527">
        <ele>2027.5999755859</ele>
        <time>2023-07-19T07:13:23.000Z</time>
      </trkpt>
      <trkpt lat="42.56445" lon="1.99527">
        <ele>2024.5999755859</ele>
        <time>2023-07-19T07:13:43.000Z</time>
      </trkpt>
      <trkpt lat="42.56446" lon="1.99528">
        <ele>2024.4000244141</ele>
        <time>2023-07-19T07:13:44.000Z</time>
      </trkpt>
      <trkpt lat="42.56446" lon="1.99529">
        <ele>2023.4000244141</ele>
        <time>2023-07-19T07:13:48.000Z</time>
      </trkpt>
      <trkpt lat="42.56446" lon="1.9953">
        <ele>2022.8000488281</ele>
        <time>2023-07-19T07:13:54.000Z</time>
      </trkpt>
      <trkpt lat="42.56449" lon="1.99535">
        <ele>2022.5999755859</ele>
        <time>2023-07-19T07:14:00.000Z</time>
      </trkpt>
      <trkpt lat="42.56453" lon="1.99538">
        <ele>2022.4000244141</ele>
        <time>2023-07-19T07:14:04.000Z</time>
      </trkpt>
      <trkpt lat="42.56455" lon="1.9954">
        <ele>2022.1999511719</ele>
        <time>2023-07-19T07:14:08.000Z</time>
      </trkpt>
      <trkpt lat="42.56462" lon="1.9955">
        <ele>2022</ele>
        <time>2023-07-19T07:14:15.000Z</time>
      </trkpt>
      <trkpt lat="42.56468" lon="1.99554">
        <ele>2022.1999511719</ele>
        <time>2023-07-19T07:14:22.000Z</time>
      </trkpt>
      <trkpt lat="42.56471" lon="1.99553">
        <ele>2023.1999511719</ele>
        <time>2023-07-19T07:14:29.000Z</time>
      </trkpt>
      <trkpt lat="42.56472" lon="1.99553">
        <ele>2023.4000244141</ele>
        <time>2023-07-19T07:14:30.000Z</time>
      </trkpt>
      <trkpt lat="42.56494" lon="1.99558">
        <ele>2024</ele>
        <time>2023-07-19T07:14:49.000Z</time>
      </trkpt>
      <trkpt lat="42.56499" lon="1.9956">
        <ele>2023.5999755859</ele>
        <time>2023-07-19T07:14:52.000Z</time>
      </trkpt>
      <trkpt lat="42.56508" lon="1.99561">
        <ele>2022.4000244141</ele>
        <time>2023-07-19T07:15:03.000Z</time>
      </trkpt>
      <trkpt lat="42.56516" lon="1.99558">
        <ele>2021.4000244141</ele>
        <time>2023-07-19T07:15:11.000Z</time>
      </trkpt>
      <trkpt lat="42.56516" lon="1.99559">
        <ele>2021.1999511719</ele>
        <time>2023-07-19T07:15:12.000Z</time>
      </trkpt>
      <trkpt lat="42.56518" lon="1.99555">
        <ele>2020.8000488281</ele>
        <time>2023-07-19T07:15:16.000Z</time>
      </trkpt>
      <trkpt lat="42.56522" lon="1.99554">
        <ele>2020.1999511719</ele>
        <time>2023-07-19T07:15:19.000Z</time>
      </trkpt>
      <trkpt lat="42.56524" lon="1.99554">
        <ele>2020.1999511719</ele>
        <time>2023-07-19T07:15:22.000Z</time>
      </trkpt>
      <trkpt lat="42.56528" lon="1.99556">
        <ele>2019.8000488281</ele>
        <time>2023-07-19T07:15:26.000Z</time>
      </trkpt>
      <trkpt lat="42.56531" lon="1.99559">
        <ele>2019.8000488281</ele>
        <time>2023-07-19T07:15:31.000Z</time>
      </trkpt>
      <trkpt lat="42.56539" lon="1.99565">
        <ele>2020</ele>
        <time>2023-07-19T07:15:38.000Z</time>
      </trkpt>
      <trkpt lat="42.56553" lon="1.99565">
        <ele>2020.8000488281</ele>
        <time>2023-07-19T07:15:54.000Z</time>
      </trkpt>
      <trkpt lat="42.56556" lon="1.99567">
        <ele>2021.1999511719</ele>
        <time>2023-07-19T07:16:00.000Z</time>
      </trkpt>
      <trkpt lat="42.56561" lon="1.99561">
        <ele>2022</ele>
        <time>2023-07-19T07:16:06.000Z</time>
      </trkpt>
      <trkpt lat="42.56563" lon="1.99559">
        <ele>2022.4000244141</ele>
        <time>2023-07-19T07:16:08.000Z</time>
      </trkpt>
      <trkpt lat="42.56567" lon="1.99553">
        <ele>2022.8000488281</ele>
        <time>2023-07-19T07:16:13.000Z</time>
      </trkpt>
      <trkpt lat="42.56573" lon="1.99551">
        <ele>2023.1999511719</ele>
        <time>2023-07-19T07:16:20.000Z</time>
      </trkpt>
      <trkpt lat="42.56574" lon="1.99551">
        <ele>2023.4000244141</ele>
        <time>2023-07-19T07:16:21.000Z</time>
      </trkpt>
      <trkpt lat="42.5658" lon="1.99554">
        <ele>2024.5999755859</ele>
        <time>2023-07-19T07:16:27.000Z</time>
      </trkpt>
      <trkpt lat="42.56584" lon="1.99555">
        <ele>2024.8000488281</ele>
        <time>2023-07-19T07:16:30.000Z</time>
      </trkpt>
      <trkpt lat="42.56595" lon="1.99553">
        <ele>2024.8000488281</ele>
        <time>2023-07-19T07:16:41.000Z</time>
      </trkpt>
      <trkpt lat="42.56609" lon="1.99552">
        <ele>2023.8000488281</ele>
        <time>2023-07-19T07:16:56.000Z</time>
      </trkpt>
      <trkpt lat="42.56627" lon="1.99549">
        <ele>2024.4000244141</ele>
        <time>2023-07-19T07:17:12.000Z</time>
      </trkpt>
      <trkpt lat="42.56637" lon="1.99545">
        <ele>2023.5999755859</ele>
        <time>2023-07-19T07:17:20.000Z</time>
      </trkpt>
      <trkpt lat="42.56638" lon="1.99545">
        <ele>2023.4000244141</ele>
        <time>2023-07-19T07:17:21.000Z</time>
      </trkpt>
      <trkpt lat="42.56645" lon="1.9954">
        <ele>2022.1999511719</ele>
        <time>2023-07-19T07:17:27.000Z</time>
      </trkpt>
      <trkpt lat="42.56646" lon="1.99538">
        <ele>2022.1999511719</ele>
        <time>2023-07-19T07:17:28.000Z</time>
      </trkpt>
      <trkpt lat="42.56654" lon="1.9953">
        <ele>2021.1999511719</ele>
        <time>2023-07-19T07:17:36.000Z</time>
      </trkpt>
      <trkpt lat="42.56655" lon="1.99528">
        <ele>2021.1999511719</ele>
        <time>2023-07-19T07:17:37.000Z</time>
      </trkpt>
      <trkpt lat="42.5666" lon="1.9952">
        <ele>2021</ele>
        <time>2023-07-19T07:17:43.000Z</time>
      </trkpt>
      <trkpt lat="42.56663" lon="1.9951">
        <ele>2021.4000244141</ele>
        <time>2023-07-19T07:17:50.000Z</time>
      </trkpt>
      <trkpt lat="42.56666" lon="1.99504">
        <ele>2022.4000244141</ele>
        <time>2023-07-19T07:17:56.000Z</time>
      </trkpt>
      <trkpt lat="42.56667" lon="1.99502">
        <ele>2022.5999755859</ele>
        <time>2023-07-19T07:17:58.000Z</time>
      </trkpt>
      <trkpt lat="42.56669" lon="1.99492">
        <ele>2023.1999511719</ele>
        <time>2023-07-19T07:18:07.000Z</time>
      </trkpt>
      <trkpt lat="42.56668" lon="1.9949">
        <ele>2023.4000244141</ele>
        <time>2023-07-19T07:18:09.000Z</time>
      </trkpt>
      <trkpt lat="42.5667" lon="1.99485">
        <ele>2023.8000488281</ele>
        <time>2023-07-19T07:18:15.000Z</time>
      </trkpt>
      <trkpt lat="42.56674" lon="1.99476">
        <ele>2024.1999511719</ele>
        <time>2023-07-19T07:18:23.000Z</time>
      </trkpt>
      <trkpt lat="42.56682" lon="1.99472">
        <ele>2023.8000488281</ele>
        <time>2023-07-19T07:18:32.000Z</time>
      </trkpt>
      <trkpt lat="42.56687" lon="1.99465">
        <ele>2023.1999511719</ele>
        <time>2023-07-19T07:18:39.000Z</time>
      </trkpt>
      <trkpt lat="42.56692" lon="1.99459">
        <ele>2023</ele>
        <time>2023-07-19T07:18:47.000Z</time>
      </trkpt>
      <trkpt lat="42.56699" lon="1.99455">
        <ele>2022.4000244141</ele>
        <time>2023-07-19T07:18:56.000Z</time>
      </trkpt>
      <trkpt lat="42.56702" lon="1.99459">
        <ele>2022.4000244141</ele>
        <time>2023-07-19T07:19:04.000Z</time>
      </trkpt>
      <trkpt lat="42.56705" lon="1.99462">
        <ele>2022.5999755859</ele>
        <time>2023-07-19T07:19:12.000Z</time>
      </trkpt>
      <trkpt lat="42.56711" lon="1.9947">
        <ele>2022.4000244141</ele>
        <time>2023-07-19T07:19:19.000Z</time>
      </trkpt>
      <trkpt lat="42.56712" lon="1.99472">
        <ele>2022.4000244141</ele>
        <time>2023-07-19T07:19:20.000Z</time>
      </trkpt>
      <trkpt lat="42.56716" lon="1.99474">
        <ele>2022.5999755859</ele>
        <time>2023-07-19T07:19:26.000Z</time>
      </trkpt>
      <trkpt lat="42.56717" lon="1.99473">
        <ele>2022.5999755859</ele>
        <time>2023-07-19T07:19:27.000Z</time>
      </trkpt>
      <trkpt lat="42.56722" lon="1.9947">
        <ele>2023.1999511719</ele>
        <time>2023-07-19T07:19:35.000Z</time>
      </trkpt>
      <trkpt lat="42.56726" lon="1.99469">
        <ele>2023</ele>
        <time>2023-07-19T07:19:42.000Z</time>
      </trkpt>
      <trkpt lat="42.56731" lon="1.99468">
        <ele>2022.1999511719</ele>
        <time>2023-07-19T07:19:49.000Z</time>
      </trkpt>
      <trkpt lat="42.56736" lon="1.99465">
        <ele>2021.5999755859</ele>
        <time>2023-07-19T07:19:54.000Z</time>
      </trkpt>
      <trkpt lat="42.56738" lon="1.99462">
        <ele>2021.4000244141</ele>
        <time>2023-07-19T07:19:56.000Z</time>
      </trkpt>
      <trkpt lat="42.56746" lon="1.99454">
        <ele>2021</ele>
        <time>2023-07-19T07:20:03.000Z</time>
      </trkpt>
      <trkpt lat="42.56755" lon="1.99444">
        <ele>2020.5999755859</ele>
        <time>2023-07-19T07:20:13.000Z</time>
      </trkpt>
      <trkpt lat="42.56757" lon="1.99435">
        <ele>2021.1999511719</ele>
        <time>2023-07-19T07:20:20.000Z</time>
      </trkpt>
      <trkpt lat="42.56763" lon="1.99427">
        <ele>2022</ele>
        <time>2023-07-19T07:20:30.000Z</time>
      </trkpt>
      <trkpt lat="42.56769" lon="1.99425">
        <ele>2022.4000244141</ele>
        <time>2023-07-19T07:20:37.000Z</time>
      </trkpt>
      <trkpt lat="42.56771" lon="1.99426">
        <ele>2022.4000244141</ele>
        <time>2023-07-19T07:20:39.000Z</time>
      </trkpt>
      <trkpt lat="42.5679" lon="1.99426">
        <ele>2022.4000244141</ele>
        <time>2023-07-19T07:20:51.000Z</time>
      </trkpt>
      <trkpt lat="42.56791" lon="1.99426">
        <ele>2022.4000244141</ele>
        <time>2023-07-19T07:20:52.000Z</time>
      </trkpt>
      <trkpt lat="42.56806" lon="1.9943">
        <ele>2022.1999511719</ele>
        <time>2023-07-19T07:21:06.000Z</time>
      </trkpt>
      <trkpt lat="42.56812" lon="1.99434">
        <ele>2022.5999755859</ele>
        <time>2023-07-19T07:21:12.000Z</time>
      </trkpt>
      <trkpt lat="42.56816" lon="1.99434">
        <ele>2023.5999755859</ele>
        <time>2023-07-19T07:21:21.000Z</time>
      </trkpt>
      <trkpt lat="42.56823" lon="1.99439">
        <ele>2024.1999511719</ele>
        <time>2023-07-19T07:21:25.000Z</time>
      </trkpt>
      <trkpt lat="42.56825" lon="1.99441">
        <ele>2024.5999755859</ele>
        <time>2023-07-19T07:21:27.000Z</time>
      </trkpt>
      <trkpt lat="42.56825" lon="1.99442">
        <ele>2024.8000488281</ele>
        <time>2023-07-19T07:21:28.000Z</time>
      </trkpt>
      <trkpt lat="42.56825" lon="1.99443">
        <ele>2025.5999755859</ele>
        <time>2023-07-19T07:21:32.000Z</time>
      </trkpt>
      <trkpt lat="42.56825" lon="1.99441">
        <ele>2025.8000488281</ele>
        <time>2023-07-19T07:21:33.000Z</time>
      </trkpt>
      <trkpt lat="42.56826" lon="1.9944">
        <ele>2026</ele>
        <time>2023-07-19T07:21:35.000Z</time>
      </trkpt>
      <trkpt lat="42.56828" lon="1.9944">
        <ele>2026.5999755859</ele>
        <time>2023-07-19T07:21:39.000Z</time>
      </trkpt>
      <trkpt lat="42.56833" lon="1.99442">
        <ele>2027.5999755859</ele>
        <time>2023-07-19T07:21:44.000Z</time>
      </trkpt>
      <trkpt lat="42.56835" lon="1.99443">
        <ele>2027.8000488281</ele>
        <time>2023-07-19T07:21:45.000Z</time>
      </trkpt>
      <trkpt lat="42.56842" lon="1.99449">
        <ele>2028.4000244141</ele>
        <time>2023-07-19T07:21:52.000Z</time>
      </trkpt>
      <trkpt lat="42.56852" lon="1.99454">
        <ele>2028.5999755859</ele>
        <time>2023-07-19T07:21:59.000Z</time>
      </trkpt>
      <trkpt lat="42.56856" lon="1.99453">
        <ele>2028.8000488281</ele>
        <time>2023-07-19T07:22:04.000Z</time>
      </trkpt>
      <trkpt lat="42.56858" lon="1.99452">
        <ele>2029.1999511719</ele>
        <time>2023-07-19T07:22:07.000Z</time>
      </trkpt>
      <trkpt lat="42.56863" lon="1.9945">
        <ele>2029.8000488281</ele>
        <time>2023-07-19T07:22:14.000Z</time>
      </trkpt>
      <trkpt lat="42.56864" lon="1.99449">
        <ele>2030.1999511719</ele>
        <time>2023-07-19T07:22:16.000Z</time>
      </trkpt>
      <trkpt lat="42.56873" lon="1.99444">
        <ele>2030.5999755859</ele>
        <time>2023-07-19T07:22:23.000Z</time>
      </trkpt>
      <trkpt lat="42.56882" lon="1.99442">
        <ele>2029.8000488281</ele>
        <time>2023-07-19T07:22:33.000Z</time>
      </trkpt>
      <trkpt lat="42.56889" lon="1.99438">
        <ele>2029</ele>
        <time>2023-07-19T07:22:40.000Z</time>
      </trkpt>
      <trkpt lat="42.56897" lon="1.99431">
        <ele>2029.5999755859</ele>
        <time>2023-07-19T07:22:48.000Z</time>
      </trkpt>
      <trkpt lat="42.56901" lon="1.99426">
        <ele>2029.1999511719</ele>
        <time>2023-07-19T07:22:55.000Z</time>
      </trkpt>
      <trkpt lat="42.56902" lon="1.99423">
        <ele>2028.8000488281</ele>
        <time>2023-07-19T07:22:57.000Z</time>
      </trkpt>
      <trkpt lat="42.56904" lon="1.99419">
        <ele>2027.8000488281</ele>
        <time>2023-07-19T07:23:02.000Z</time>
      </trkpt>
      <trkpt lat="42.56905" lon="1.99419">
        <ele>2027.5999755859</ele>
        <time>2023-07-19T07:23:03.000Z</time>
      </trkpt>
      <trkpt lat="42.5691" lon="1.99414">
        <ele>2026.1999511719</ele>
        <time>2023-07-19T07:23:08.000Z</time>
      </trkpt>
      <trkpt lat="42.5691" lon="1.99413">
        <ele>2026</ele>
        <time>2023-07-19T07:23:09.000Z</time>
      </trkpt>
      <trkpt lat="42.56912" lon="1.9941">
        <ele>2025.1999511719</ele>
        <time>2023-07-19T07:23:13.000Z</time>
      </trkpt>
      <trkpt lat="42.56914" lon="1.99408">
        <ele>2024.5999755859</ele>
        <time>2023-07-19T07:23:17.000Z</time>
      </trkpt>
      <trkpt lat="42.56921" lon="1.99404">
        <ele>2024.1999511719</ele>
        <time>2023-07-19T07:23:24.000Z</time>
      </trkpt>
      <trkpt lat="42.56922" lon="1.99403">
        <ele>2024.1999511719</ele>
        <time>2023-07-19T07:23:26.000Z</time>
      </trkpt>
      <trkpt lat="42.56929" lon="1.99399">
        <ele>2023.8000488281</ele>
        <time>2023-07-19T07:23:35.000Z</time>
      </trkpt>
      <trkpt lat="42.56943" lon="1.99404">
        <ele>2024.4000244141</ele>
        <time>2023-07-19T07:23:47.000Z</time>
      </trkpt>
      <trkpt lat="42.56954" lon="1.99399">
        <ele>2024.8000488281</ele>
        <time>2023-07-19T07:23:55.000Z</time>
      </trkpt>
      <trkpt lat="42.56958" lon="1.99395">
        <ele>2025.4000244141</ele>
        <time>2023-07-19T07:24:00.000Z</time>
      </trkpt>
      <trkpt lat="42.56958" lon="1.99393">
        <ele>2025.8000488281</ele>
        <time>2023-07-19T07:24:02.000Z</time>
      </trkpt>
      <trkpt lat="42.5696" lon="1.99392">
        <ele>2026.4000244141</ele>
        <time>2023-07-19T07:24:06.000Z</time>
      </trkpt>
      <trkpt lat="42.56961" lon="1.99391">
        <ele>2026.8000488281</ele>
        <time>2023-07-19T07:24:08.000Z</time>
      </trkpt>
      <trkpt lat="42.56962" lon="1.99386">
        <ele>2027.5999755859</ele>
        <time>2023-07-19T07:24:14.000Z</time>
      </trkpt>
      <trkpt lat="42.56964" lon="1.99385">
        <ele>2028</ele>
        <time>2023-07-19T07:24:17.000Z</time>
      </trkpt>
      <trkpt lat="42.56967" lon="1.99385">
        <ele>2028.5999755859</ele>
        <time>2023-07-19T07:24:21.000Z</time>
      </trkpt>
      <trkpt lat="42.56972" lon="1.99381">
        <ele>2028.8000488281</ele>
        <time>2023-07-19T07:24:25.000Z</time>
      </trkpt>
      <trkpt lat="42.56976" lon="1.99377">
        <ele>2029</ele>
        <time>2023-07-19T07:24:31.000Z</time>
      </trkpt>
      <trkpt lat="42.56977" lon="1.99369">
        <ele>2028.5999755859</ele>
        <time>2023-07-19T07:24:38.000Z</time>
      </trkpt>
      <trkpt lat="42.56982" lon="1.99365">
        <ele>2027.5999755859</ele>
        <time>2023-07-19T07:24:46.000Z</time>
      </trkpt>
      <trkpt lat="42.56985" lon="1.99364">
        <ele>2027.1999511719</ele>
        <time>2023-07-19T07:24:48.000Z</time>
      </trkpt>
      <trkpt lat="42.56986" lon="1.99358">
        <ele>2026.5999755859</ele>
        <time>2023-07-19T07:25:00.000Z</time>
      </trkpt>
      <trkpt lat="42.56987" lon="1.99354">
        <ele>2026.4000244141</ele>
        <time>2023-07-19T07:25:10.000Z</time>
      </trkpt>
      <trkpt lat="42.56992" lon="1.9935">
        <ele>2026</ele>
        <time>2023-07-19T07:25:19.000Z</time>
      </trkpt>
      <trkpt lat="42.57006" lon="1.99347">
        <ele>2025.5999755859</ele>
        <time>2023-07-19T07:25:27.000Z</time>
      </trkpt>
      <trkpt lat="42.57014" lon="1.99345">
        <ele>2025.4000244141</ele>
        <time>2023-07-19T07:25:32.000Z</time>
      </trkpt>
      <trkpt lat="42.57018" lon="1.99344">
        <ele>2025.4000244141</ele>
        <time>2023-07-19T07:25:35.000Z</time>
      </trkpt>
      <trkpt lat="42.57027" lon="1.99337">
        <ele>2025</ele>
        <time>2023-07-19T07:25:45.000Z</time>
      </trkpt>
      <trkpt lat="42.5703" lon="1.99326">
        <ele>2025</ele>
        <time>2023-07-19T07:25:52.000Z</time>
      </trkpt>
      <trkpt lat="42.57036" lon="1.99318">
        <ele>2025</ele>
        <time>2023-07-19T07:25:58.000Z</time>
      </trkpt>
      <trkpt lat="42.57042" lon="1.99306">
        <ele>2025</ele>
        <time>2023-07-19T07:26:05.000Z</time>
      </trkpt>
      <trkpt lat="42.57052" lon="1.99298">
        <ele>2024.5999755859</ele>
        <time>2023-07-19T07:26:14.000Z</time>
      </trkpt>
      <trkpt lat="42.57056" lon="1.99297">
        <ele>2024.4000244141</ele>
        <time>2023-07-19T07:26:17.000Z</time>
      </trkpt>
      <trkpt lat="42.57062" lon="1.99294">
        <ele>2024</ele>
        <time>2023-07-19T07:26:22.000Z</time>
      </trkpt>
      <trkpt lat="42.57069" lon="1.99287">
        <ele>2024</ele>
        <time>2023-07-19T07:26:30.000Z</time>
      </trkpt>
      <trkpt lat="42.57075" lon="1.99281">
        <ele>2024.1999511719</ele>
        <time>2023-07-19T07:26:38.000Z</time>
      </trkpt>
      <trkpt lat="42.57085" lon="1.99274">
        <ele>2024.8000488281</ele>
        <time>2023-07-19T07:26:46.000Z</time>
      </trkpt>
      <trkpt lat="42.57091" lon="1.99269">
        <ele>2025.4000244141</ele>
        <time>2023-07-19T07:26:52.000Z</time>
      </trkpt>
      <trkpt lat="42.57092" lon="1.99268">
        <ele>2025.4000244141</ele>
        <time>2023-07-19T07:26:53.000Z</time>
      </trkpt>
      <trkpt lat="42.57101" lon="1.99261">
        <ele>2026.4000244141</ele>
        <time>2023-07-19T07:27:00.000Z</time>
      </trkpt>
      <trkpt lat="42.57102" lon="1.9926">
        <ele>2026.4000244141</ele>
        <time>2023-07-19T07:27:01.000Z</time>
      </trkpt>
      <trkpt lat="42.57106" lon="1.99253">
        <ele>2027.1999511719</ele>
        <time>2023-07-19T07:27:08.000Z</time>
      </trkpt>
      <trkpt lat="42.57107" lon="1.99251">
        <ele>2027.4000244141</ele>
        <time>2023-07-19T07:27:10.000Z</time>
      </trkpt>
      <trkpt lat="42.57111" lon="1.99249">
        <ele>2028</ele>
        <time>2023-07-19T07:27:15.000Z</time>
      </trkpt>
      <trkpt lat="42.57115" lon="1.99246">
        <ele>2028.4000244141</ele>
        <time>2023-07-19T07:27:20.000Z</time>
      </trkpt>
      <trkpt lat="42.57116" lon="1.99245">
        <ele>2028.8000488281</ele>
        <time>2023-07-19T07:27:23.000Z</time>
      </trkpt>
      <trkpt lat="42.57119" lon="1.99245">
        <ele>2029.4000244141</ele>
        <time>2023-07-19T07:27:27.000Z</time>
      </trkpt>
      <trkpt lat="42.57121" lon="1.99246">
        <ele>2029.4000244141</ele>
        <time>2023-07-19T07:27:28.000Z</time>
      </trkpt>
      <trkpt lat="42.57123" lon="1.99247">
        <ele>2029.8000488281</ele>
        <time>2023-07-19T07:27:30.000Z</time>
      </trkpt>
      <trkpt lat="42.57128" lon="1.99253">
        <ele>2030.5999755859</ele>
        <time>2023-07-19T07:27:37.000Z</time>
      </trkpt>
      <trkpt lat="42.57129" lon="1.99253">
        <ele>2030.5999755859</ele>
        <time>2023-07-19T07:27:38.000Z</time>
      </trkpt>
      <trkpt lat="42.57134" lon="1.99255">
        <ele>2031.5999755859</ele>
        <time>2023-07-19T07:27:46.000Z</time>
      </trkpt>
      <trkpt lat="42.5714" lon="1.99259">
        <ele>2032.5999755859</ele>
        <time>2023-07-19T07:27:55.000Z</time>
      </trkpt>
      <trkpt lat="42.57142" lon="1.99261">
        <ele>2033</ele>
        <time>2023-07-19T07:27:57.000Z</time>
      </trkpt>
      <trkpt lat="42.57149" lon="1.99266">
        <ele>2033.5999755859</ele>
        <time>2023-07-19T07:28:05.000Z</time>
      </trkpt>
      <trkpt lat="42.57149" lon="1.99266">
        <ele>2033.5999755859</ele>
        <time>2023-07-19T07:28:06.000Z</time>
      </trkpt>
      <trkpt lat="42.57153" lon="1.99268">
        <ele>2034.5999755859</ele>
        <time>2023-07-19T07:28:14.000Z</time>
      </trkpt>
      <trkpt lat="42.57154" lon="1.99268">
        <ele>2034.8000488281</ele>
        <time>2023-07-19T07:28:15.000Z</time>
      </trkpt>
      <trkpt lat="42.57159" lon="1.99273">
        <ele>2035.5999755859</ele>
        <time>2023-07-19T07:28:22.000Z</time>
      </trkpt>
      <trkpt lat="42.57161" lon="1.99274">
        <ele>2035.8000488281</ele>
        <time>2023-07-19T07:28:23.000Z</time>
      </trkpt>
      <trkpt lat="42.5717" lon="1.99279">
        <ele>2036.4000244141</ele>
        <time>2023-07-19T07:28:32.000Z</time>
      </trkpt>
      <trkpt lat="42.57173" lon="1.99283">
        <ele>2036.8000488281</ele>
        <time>2023-07-19T07:28:37.000Z</time>
      </trkpt>
      <trkpt lat="42.57175" lon="1.99285">
        <ele>2037</ele>
        <time>2023-07-19T07:28:40.000Z</time>
      </trkpt>
      <trkpt lat="42.57179" lon="1.99293">
        <ele>2038</ele>
        <time>2023-07-19T07:28:49.000Z</time>
      </trkpt>
      <trkpt lat="42.57183" lon="1.99299">
        <ele>2038.1999511719</ele>
        <time>2023-07-19T07:28:56.000Z</time>
      </trkpt>
      <trkpt lat="42.57188" lon="1.99303">
        <ele>2039</ele>
        <time>2023-07-19T07:29:03.000Z</time>
      </trkpt>
      <trkpt lat="42.57191" lon="1.99311">
        <ele>2038.5999755859</ele>
        <time>2023-07-19T07:29:11.000Z</time>
      </trkpt>
      <trkpt lat="42.57194" lon="1.99317">
        <ele>2037.8000488281</ele>
        <time>2023-07-19T07:29:17.000Z</time>
      </trkpt>
      <trkpt lat="42.57194" lon="1.99318">
        <ele>2037.5999755859</ele>
        <time>2023-07-19T07:29:18.000Z</time>
      </trkpt>
      <trkpt lat="42.57196" lon="1.99318">
        <ele>2036.5999755859</ele>
        <time>2023-07-19T07:29:23.000Z</time>
      </trkpt>
      <trkpt lat="42.57197" lon="1.99319">
        <ele>2036.4000244141</ele>
        <time>2023-07-19T07:29:24.000Z</time>
      </trkpt>
      <trkpt lat="42.57204" lon="1.99326">
        <ele>2035.5999755859</ele>
        <time>2023-07-19T07:29:30.000Z</time>
      </trkpt>
      <trkpt lat="42.57213" lon="1.99327">
        <ele>2035.1999511719</ele>
        <time>2023-07-19T07:29:40.000Z</time>
      </trkpt>
      <trkpt lat="42.57221" lon="1.99329">
        <ele>2035.4000244141</ele>
        <time>2023-07-19T07:29:48.000Z</time>
      </trkpt>
      <trkpt lat="42.57229" lon="1.99328">
        <ele>2036.4000244141</ele>
        <time>2023-07-19T07:29:55.000Z</time>
      </trkpt>
      <trkpt lat="42.5723" lon="1.99328">
        <ele>2036.8000488281</ele>
        <time>2023-07-19T07:29:58.000Z</time>
      </trkpt>
      <trkpt lat="42.57231" lon="1.99324">
        <ele>2037.4000244141</ele>
        <time>2023-07-19T07:30:03.000Z</time>
      </trkpt>
      <trkpt lat="42.57231" lon="1.99323">
        <ele>2038</ele>
        <time>2023-07-19T07:30:05.000Z</time>
      </trkpt>
      <trkpt lat="42.57235" lon="1.99321">
        <ele>2038.4000244141</ele>
        <time>2023-07-19T07:30:10.000Z</time>
      </trkpt>
      <trkpt lat="42.57241" lon="1.99318">
        <ele>2039</ele>
        <time>2023-07-19T07:30:17.000Z</time>
      </trkpt>
      <trkpt lat="42.57241" lon="1.99312">
        <ele>2039.4000244141</ele>
        <time>2023-07-19T07:30:23.000Z</time>
      </trkpt>
      <trkpt lat="42.57246" lon="1.99303">
        <ele>2039.5999755859</ele>
        <time>2023-07-19T07:30:31.000Z</time>
      </trkpt>
      <trkpt lat="42.57249" lon="1.99294">
        <ele>2039</ele>
        <time>2023-07-19T07:30:38.000Z</time>
      </trkpt>
      <trkpt lat="42.57254" lon="1.99281">
        <ele>2039.4000244141</ele>
        <time>2023-07-19T07:30:47.000Z</time>
      </trkpt>
      <trkpt lat="42.57259" lon="1.99278">
        <ele>2040</ele>
        <time>2023-07-19T07:30:52.000Z</time>
      </trkpt>
      <trkpt lat="42.57261" lon="1.9928">
        <ele>2040.4000244141</ele>
        <time>2023-07-19T07:30:55.000Z</time>
      </trkpt>
      <trkpt lat="42.57261" lon="1.99281">
        <ele>2040.4000244141</ele>
        <time>2023-07-19T07:30:56.000Z</time>
      </trkpt>
      <trkpt lat="42.57269" lon="1.99284">
        <ele>2039.5999755859</ele>
        <time>2023-07-19T07:31:03.000Z</time>
      </trkpt>
      <trkpt lat="42.57269" lon="1.99281">
        <ele>2038.8000488281</ele>
        <time>2023-07-19T07:31:08.000Z</time>
      </trkpt>
      <trkpt lat="42.57268" lon="1.99279">
        <ele>2039</ele>
        <time>2023-07-19T07:31:11.000Z</time>
      </trkpt>
      <trkpt lat="42.57269" lon="1.99279">
        <ele>2039.1999511719</ele>
        <time>2023-07-19T07:31:12.000Z</time>
      </trkpt>
      <trkpt lat="42.57271" lon="1.99278">
        <ele>2039.5999755859</ele>
        <time>2023-07-19T07:31:17.000Z</time>
      </trkpt>
      <trkpt lat="42.57277" lon="1.99278">
        <ele>2039.8000488281</ele>
        <time>2023-07-19T07:31:24.000Z</time>
      </trkpt>
      <trkpt lat="42.57278" lon="1.99278">
        <ele>2040</ele>
        <time>2023-07-19T07:31:26.000Z</time>
      </trkpt>
      <trkpt lat="42.5728" lon="1.99276">
        <ele>2040</ele>
        <time>2023-07-19T07:31:31.000Z</time>
      </trkpt>
      <trkpt lat="42.57289" lon="1.99276">
        <ele>2040</ele>
        <time>2023-07-19T07:31:38.000Z</time>
      </trkpt>
      <trkpt lat="42.57293" lon="1.99273">
        <ele>2039.4000244141</ele>
        <time>2023-07-19T07:31:44.000Z</time>
      </trkpt>
      <trkpt lat="42.57304" lon="1.9927">
        <ele>2038.8000488281</ele>
        <time>2023-07-19T07:31:51.000Z</time>
      </trkpt>
      <trkpt lat="42.57313" lon="1.99267">
        <ele>2038.4000244141</ele>
        <time>2023-07-19T07:31:58.000Z</time>
      </trkpt>
      <trkpt lat="42.57318" lon="1.99269">
        <ele>2038.1999511719</ele>
        <time>2023-07-19T07:32:06.000Z</time>
      </trkpt>
      <trkpt lat="42.57336" lon="1.99273">
        <ele>2040</ele>
        <time>2023-07-19T07:32:23.000Z</time>
      </trkpt>
      <trkpt lat="42.57337" lon="1.99273">
        <ele>2040</ele>
        <time>2023-07-19T07:32:27.000Z</time>
      </trkpt>
      <trkpt lat="42.57338" lon="1.99273">
        <ele>2039.8000488281</ele>
        <time>2023-07-19T07:32:28.000Z</time>
      </trkpt>
      <trkpt lat="42.57347" lon="1.9928">
        <ele>2039</ele>
        <time>2023-07-19T07:32:41.000Z</time>
      </trkpt>
      <trkpt lat="42.57354" lon="1.99286">
        <ele>2038</ele>
        <time>2023-07-19T07:32:48.000Z</time>
      </trkpt>
      <trkpt lat="42.57356" lon="1.99286">
        <ele>2037.8000488281</ele>
        <time>2023-07-19T07:32:49.000Z</time>
      </trkpt>
      <trkpt lat="42.57362" lon="1.99287">
        <ele>2036.5999755859</ele>
        <time>2023-07-19T07:32:55.000Z</time>
      </trkpt>
      <trkpt lat="42.57363" lon="1.99288">
        <ele>2036.5999755859</ele>
        <time>2023-07-19T07:32:56.000Z</time>
      </trkpt>
      <trkpt lat="42.5737" lon="1.99288">
        <ele>2035.5999755859</ele>
        <time>2023-07-19T07:33:03.000Z</time>
      </trkpt>
      <trkpt lat="42.57372" lon="1.99287">
        <ele>2035.4000244141</ele>
        <time>2023-07-19T07:33:05.000Z</time>
      </trkpt>
      <trkpt lat="42.57382" lon="1.99286">
        <ele>2035.1999511719</ele>
        <time>2023-07-19T07:33:11.000Z</time>
      </trkpt>
      <trkpt lat="42.57397" lon="1.99289">
        <ele>2035.1999511719</ele>
        <time>2023-07-19T07:33:22.000Z</time>
      </trkpt>
      <trkpt lat="42.57404" lon="1.99291">
        <ele>2035</ele>
        <time>2023-07-19T07:33:29.000Z</time>
      </trkpt>
      <trkpt lat="42.57409" lon="1.99292">
        <ele>2034.8000488281</ele>
        <time>2023-07-19T07:33:35.000Z</time>
      </trkpt>
      <trkpt lat="42.57412" lon="1.99292">
        <ele>2034.5999755859</ele>
        <time>2023-07-19T07:33:37.000Z</time>
      </trkpt>
      <trkpt lat="42.57416" lon="1.99293">
        <ele>2034</ele>
        <time>2023-07-19T07:33:41.000Z</time>
      </trkpt>
      <trkpt lat="42.57416" lon="1.99295">
        <ele>2033.4000244141</ele>
        <time>2023-07-19T07:33:46.000Z</time>
      </trkpt>
      <trkpt lat="42.57418" lon="1.99299">
        <ele>2032.8000488281</ele>
        <time>2023-07-19T07:33:50.000Z</time>
      </trkpt>
      <trkpt lat="42.57419" lon="1.99305">
        <ele>2032.4000244141</ele>
        <time>2023-07-19T07:33:54.000Z</time>
      </trkpt>
      <trkpt lat="42.57421" lon="1.99313">
        <ele>2032</ele>
        <time>2023-07-19T07:33:59.000Z</time>
      </trkpt>
      <trkpt lat="42.57427" lon="1.99318">
        <ele>2031.4000244141</ele>
        <time>2023-07-19T07:34:05.000Z</time>
      </trkpt>
      <trkpt lat="42.57427" lon="1.99318">
        <ele>2031.1999511719</ele>
        <time>2023-07-19T07:34:06.000Z</time>
      </trkpt>
      <trkpt lat="42.57428" lon="1.99318">
        <ele>2031</ele>
        <time>2023-07-19T07:34:07.000Z</time>
      </trkpt>
      <trkpt lat="42.57438" lon="1.99319">
        <ele>2029.8000488281</ele>
        <time>2023-07-19T07:34:17.000Z</time>
      </trkpt>
      <trkpt lat="42.57443" lon="1.99323">
        <ele>2030.1999511719</ele>
        <time>2023-07-19T07:34:24.000Z</time>
      </trkpt>
      <trkpt lat="42.57448" lon="1.99331">
        <ele>2030.5999755859</ele>
        <time>2023-07-19T07:34:31.000Z</time>
      </trkpt>
      <trkpt lat="42.57457" lon="1.99339">
        <ele>2029.8000488281</ele>
        <time>2023-07-19T07:34:41.000Z</time>
      </trkpt>
      <trkpt lat="42.57463" lon="1.99346">
        <ele>2029.1999511719</ele>
        <time>2023-07-19T07:34:47.000Z</time>
      </trkpt>
      <trkpt lat="42.57463" lon="1.99347">
        <ele>2029</ele>
        <time>2023-07-19T07:34:48.000Z</time>
      </trkpt>
      <trkpt lat="42.57472" lon="1.99354">
        <ele>2028</ele>
        <time>2023-07-19T07:34:56.000Z</time>
      </trkpt>
      <trkpt lat="42.57478" lon="1.99359">
        <ele>2028.1999511719</ele>
        <time>2023-07-19T07:35:03.000Z</time>
      </trkpt>
      <trkpt lat="42.57487" lon="1.99365">
        <ele>2028</ele>
        <time>2023-07-19T07:35:10.000Z</time>
      </trkpt>
      <trkpt lat="42.575" lon="1.99364">
        <ele>2027.8000488281</ele>
        <time>2023-07-19T07:35:19.000Z</time>
      </trkpt>
      <trkpt lat="42.57505" lon="1.99361">
        <ele>2027.5999755859</ele>
        <time>2023-07-19T07:35:25.000Z</time>
      </trkpt>
      <trkpt lat="42.57509" lon="1.99363">
        <ele>2027.5999755859</ele>
        <time>2023-07-19T07:35:31.000Z</time>
      </trkpt>
      <trkpt lat="42.57511" lon="1.99366">
        <ele>2027.8000488281</ele>
        <time>2023-07-19T07:35:33.000Z</time>
      </trkpt>
      <trkpt lat="42.57521" lon="1.99374">
        <ele>2028.4000244141</ele>
        <time>2023-07-19T07:35:41.000Z</time>
      </trkpt>
      <trkpt lat="42.57531" lon="1.99376">
        <ele>2028.1999511719</ele>
        <time>2023-07-19T07:35:50.000Z</time>
      </trkpt>
      <trkpt lat="42.57539" lon="1.99381">
        <ele>2028.5999755859</ele>
        <time>2023-07-19T07:35:57.000Z</time>
      </trkpt>
      <trkpt lat="42.57541" lon="1.99383">
        <ele>2029</ele>
        <time>2023-07-19T07:36:00.000Z</time>
      </trkpt>
      <trkpt lat="42.57546" lon="1.99387">
        <ele>2029.4000244141</ele>
        <time>2023-07-19T07:36:05.000Z</time>
      </trkpt>
      <trkpt lat="42.57556" lon="1.99392">
        <ele>2029.4000244141</ele>
        <time>2023-07-19T07:36:13.000Z</time>
      </trkpt>
      <trkpt lat="42.57564" lon="1.99396">
        <ele>2029</ele>
        <time>2023-07-19T07:36:20.000Z</time>
      </trkpt>
      <trkpt lat="42.57574" lon="1.994">
        <ele>2028.4000244141</ele>
        <time>2023-07-19T07:36:28.000Z</time>
      </trkpt>
      <trkpt lat="42.5758" lon="1.99404">
        <ele>2028.4000244141</ele>
        <time>2023-07-19T07:36:36.000Z</time>
      </trkpt>
      <trkpt lat="42.57587" lon="1.99407">
        <ele>2028.4000244141</ele>
        <time>2023-07-19T07:36:41.000Z</time>
      </trkpt>
      <trkpt lat="42.5759" lon="1.99408">
        <ele>2027.8000488281</ele>
        <time>2023-07-19T07:36:44.000Z</time>
      </trkpt>
      <trkpt lat="42.57595" lon="1.99409">
        <ele>2027.4000244141</ele>
        <time>2023-07-19T07:36:47.000Z</time>
      </trkpt>
      <trkpt lat="42.57605" lon="1.99409">
        <ele>2027.1999511719</ele>
        <time>2023-07-19T07:36:54.000Z</time>
      </trkpt>
      <trkpt lat="42.57613" lon="1.99409">
        <ele>2027.4000244141</ele>
        <time>2023-07-19T07:37:01.000Z</time>
      </trkpt>
      <trkpt lat="42.57619" lon="1.99407">
        <ele>2027.5999755859</ele>
        <time>2023-07-19T07:37:07.000Z</time>
      </trkpt>
      <trkpt lat="42.57623" lon="1.99407">
        <ele>2026.5999755859</ele>
        <time>2023-07-19T07:37:12.000Z</time>
      </trkpt>
      <trkpt lat="42.57627" lon="1.99406">
        <ele>2026.1999511719</ele>
        <time>2023-07-19T07:37:15.000Z</time>
      </trkpt>
      <trkpt lat="42.57634" lon="1.99405">
        <ele>2026.1999511719</ele>
        <time>2023-07-19T07:37:22.000Z</time>
      </trkpt>
      <trkpt lat="42.57639" lon="1.9941">
        <ele>2026.8000488281</ele>
        <time>2023-07-19T07:37:29.000Z</time>
      </trkpt>
      <trkpt lat="42.57642" lon="1.99414">
        <ele>2027.8000488281</ele>
        <time>2023-07-19T07:37:33.000Z</time>
      </trkpt>
      <trkpt lat="42.57644" lon="1.99419">
        <ele>2028.4000244141</ele>
        <time>2023-07-19T07:37:37.000Z</time>
      </trkpt>
      <trkpt lat="42.57648" lon="1.99422">
        <ele>2028.4000244141</ele>
        <time>2023-07-19T07:37:42.000Z</time>
      </trkpt>
      <trkpt lat="42.57659" lon="1.99426">
        <ele>2028.4000244141</ele>
        <time>2023-07-19T07:37:49.000Z</time>
      </trkpt>
      <trkpt lat="42.5767" lon="1.99424">
        <ele>2028.8000488281</ele>
        <time>2023-07-19T07:37:56.000Z</time>
      </trkpt>
      <trkpt lat="42.57673" lon="1.99418">
        <ele>2028.4000244141</ele>
        <time>2023-07-19T07:38:03.000Z</time>
      </trkpt>
      <trkpt lat="42.57676" lon="1.99408">
        <ele>2028.4000244141</ele>
        <time>2023-07-19T07:38:10.000Z</time>
      </trkpt>
      <trkpt lat="42.57683" lon="1.99397">
        <ele>2027.8000488281</ele>
        <time>2023-07-19T07:38:18.000Z</time>
      </trkpt>
      <trkpt lat="42.57691" lon="1.99392">
        <ele>2027.5999755859</ele>
        <time>2023-07-19T07:38:26.000Z</time>
      </trkpt>
      <trkpt lat="42.57696" lon="1.99392">
        <ele>2028.1999511719</ele>
        <time>2023-07-19T07:38:33.000Z</time>
      </trkpt>
      <trkpt lat="42.57704" lon="1.99393">
        <ele>2028</ele>
        <time>2023-07-19T07:38:39.000Z</time>
      </trkpt>
      <trkpt lat="42.57714" lon="1.99391">
        <ele>2028</ele>
        <time>2023-07-19T07:38:46.000Z</time>
      </trkpt>
      <trkpt lat="42.57721" lon="1.99388">
        <ele>2028.4000244141</ele>
        <time>2023-07-19T07:38:54.000Z</time>
      </trkpt>
      <trkpt lat="42.5773" lon="1.99386">
        <ele>2028.4000244141</ele>
        <time>2023-07-19T07:39:01.000Z</time>
      </trkpt>
      <trkpt lat="42.57735" lon="1.99385">
        <ele>2028.8000488281</ele>
        <time>2023-07-19T07:39:08.000Z</time>
      </trkpt>
      <trkpt lat="42.57736" lon="1.99385">
        <ele>2028.8000488281</ele>
        <time>2023-07-19T07:39:09.000Z</time>
      </trkpt>
      <trkpt lat="42.57744" lon="1.99385">
        <ele>2029.4000244141</ele>
        <time>2023-07-19T07:39:16.000Z</time>
      </trkpt>
      <trkpt lat="42.57753" lon="1.99385">
        <ele>2029.8000488281</ele>
        <time>2023-07-19T07:39:25.000Z</time>
      </trkpt>
      <trkpt lat="42.57757" lon="1.99384">
        <ele>2029.8000488281</ele>
        <time>2023-07-19T07:39:28.000Z</time>
      </trkpt>
      <trkpt lat="42.57761" lon="1.99385">
        <ele>2030.1999511719</ele>
        <time>2023-07-19T07:39:33.000Z</time>
      </trkpt>
      <trkpt lat="42.57766" lon="1.99386">
        <ele>2030.5999755859</ele>
        <time>2023-07-19T07:39:39.000Z</time>
      </trkpt>
      <trkpt lat="42.57769" lon="1.99386">
        <ele>2031</ele>
        <time>2023-07-19T07:39:43.000Z</time>
      </trkpt>
      <trkpt lat="42.57775" lon="1.99385">
        <ele>2031.4000244141</ele>
        <time>2023-07-19T07:39:49.000Z</time>
      </trkpt>
      <trkpt lat="42.57784" lon="1.99389">
        <ele>2031.5999755859</ele>
        <time>2023-07-19T07:39:57.000Z</time>
      </trkpt>
      <trkpt lat="42.57795" lon="1.99394">
        <ele>2032</ele>
        <time>2023-07-19T07:40:06.000Z</time>
      </trkpt>
      <trkpt lat="42.57797" lon="1.99394">
        <ele>2032</ele>
        <time>2023-07-19T07:40:07.000Z</time>
      </trkpt>
      <trkpt lat="42.57806" lon="1.99397">
        <ele>2032.1999511719</ele>
        <time>2023-07-19T07:40:14.000Z</time>
      </trkpt>
      <trkpt lat="42.57815" lon="1.99401">
        <ele>2032.1999511719</ele>
        <time>2023-07-19T07:40:24.000Z</time>
      </trkpt>
      <trkpt lat="42.57824" lon="1.99403">
        <ele>2032</ele>
        <time>2023-07-19T07:40:31.000Z</time>
      </trkpt>
      <trkpt lat="42.57826" lon="1.99401">
        <ele>2031.4000244141</ele>
        <time>2023-07-19T07:40:38.000Z</time>
      </trkpt>
      <trkpt lat="42.57827" lon="1.99396">
        <ele>2031.8000488281</ele>
        <time>2023-07-19T07:40:46.000Z</time>
      </trkpt>
      <trkpt lat="42.57828" lon="1.99394">
        <ele>2032</ele>
        <time>2023-07-19T07:40:54.000Z</time>
      </trkpt>
      <trkpt lat="42.57828" lon="1.99396">
        <ele>2031.8000488281</ele>
        <time>2023-07-19T07:41:02.000Z</time>
      </trkpt>
      <trkpt lat="42.57829" lon="1.99396">
        <ele>2031.5999755859</ele>
        <time>2023-07-19T07:41:11.000Z</time>
      </trkpt>
      <trkpt lat="42.57825" lon="1.99396">
        <ele>2031.8000488281</ele>
        <time>2023-07-19T07:41:21.000Z</time>
      </trkpt>
      <trkpt lat="42.57824" lon="1.99394">
        <ele>2031.5999755859</ele>
        <time>2023-07-19T07:41:29.000Z</time>
      </trkpt>
      <trkpt lat="42.57832" lon="1.99401">
        <ele>2031.4000244141</ele>
        <time>2023-07-19T07:41:35.000Z</time>
      </trkpt>
      <trkpt lat="42.57838" lon="1.99406">
        <ele>2032.1999511719</ele>
        <time>2023-07-19T07:41:43.000Z</time>
      </trkpt>
      <trkpt lat="42.57843" lon="1.99411">
        <ele>2033</ele>
        <time>2023-07-19T07:41:50.000Z</time>
      </trkpt>
      <trkpt lat="42.57848" lon="1.99413">
        <ele>2034</ele>
        <time>2023-07-19T07:41:57.000Z</time>
      </trkpt>
      <trkpt lat="42.57849" lon="1.99413">
        <ele>2034</ele>
        <time>2023-07-19T07:41:58.000Z</time>
      </trkpt>
      <trkpt lat="42.57852" lon="1.9941">
        <ele>2035.1999511719</ele>
        <time>2023-07-19T07:42:03.000Z</time>
      </trkpt>
      <trkpt lat="42.57853" lon="1.9941">
        <ele>2035.4000244141</ele>
        <time>2023-07-19T07:42:04.000Z</time>
      </trkpt>
      <trkpt lat="42.57857" lon="1.99413">
        <ele>2036</ele>
        <time>2023-07-19T07:42:12.000Z</time>
      </trkpt>
      <trkpt lat="42.5786" lon="1.9942">
        <ele>2036</ele>
        <time>2023-07-19T07:42:18.000Z</time>
      </trkpt>
      <trkpt lat="42.57863" lon="1.99426">
        <ele>2036.4000244141</ele>
        <time>2023-07-19T07:42:23.000Z</time>
      </trkpt>
      <trkpt lat="42.57865" lon="1.99427">
        <ele>2036.4000244141</ele>
        <time>2023-07-19T07:42:25.000Z</time>
      </trkpt>
      <trkpt lat="42.57872" lon="1.99436">
        <ele>2037</ele>
        <time>2023-07-19T07:42:33.000Z</time>
      </trkpt>
      <trkpt lat="42.57874" lon="1.99447">
        <ele>2037.4000244141</ele>
        <time>2023-07-19T07:42:40.000Z</time>
      </trkpt>
      <trkpt lat="42.57876" lon="1.99451">
        <ele>2037.4000244141</ele>
        <time>2023-07-19T07:42:43.000Z</time>
      </trkpt>
      <trkpt lat="42.57884" lon="1.99458">
        <ele>2037.4000244141</ele>
        <time>2023-07-19T07:42:52.000Z</time>
      </trkpt>
      <trkpt lat="42.57896" lon="1.99463">
        <ele>2037.8000488281</ele>
        <time>2023-07-19T07:43:00.000Z</time>
      </trkpt>
      <trkpt lat="42.57905" lon="1.99468">
        <ele>2038.1999511719</ele>
        <time>2023-07-19T07:43:08.000Z</time>
      </trkpt>
      <trkpt lat="42.5791" lon="1.99471">
        <ele>2038.5999755859</ele>
        <time>2023-07-19T07:43:13.000Z</time>
      </trkpt>
      <trkpt lat="42.57913" lon="1.99472">
        <ele>2038.8000488281</ele>
        <time>2023-07-19T07:43:16.000Z</time>
      </trkpt>
      <trkpt lat="42.57918" lon="1.99475">
        <ele>2039.5999755859</ele>
        <time>2023-07-19T07:43:21.000Z</time>
      </trkpt>
      <trkpt lat="42.57919" lon="1.99477">
        <ele>2040</ele>
        <time>2023-07-19T07:43:23.000Z</time>
      </trkpt>
      <trkpt lat="42.57922" lon="1.9948">
        <ele>2040.8000488281</ele>
        <time>2023-07-19T07:43:27.000Z</time>
      </trkpt>
      <trkpt lat="42.57923" lon="1.99483">
        <ele>2041.5999755859</ele>
        <time>2023-07-19T07:43:31.000Z</time>
      </trkpt>
      <trkpt lat="42.57923" lon="1.99485">
        <ele>2042</ele>
        <time>2023-07-19T07:43:33.000Z</time>
      </trkpt>
      <trkpt lat="42.57924" lon="1.99488">
        <ele>2042.8000488281</ele>
        <time>2023-07-19T07:43:39.000Z</time>
      </trkpt>
      <trkpt lat="42.57925" lon="1.99488">
        <ele>2043</ele>
        <time>2023-07-19T07:43:41.000Z</time>
      </trkpt>
      <trkpt lat="42.57925" lon="1.99494">
        <ele>2043.8000488281</ele>
        <time>2023-07-19T07:43:46.000Z</time>
      </trkpt>
      <trkpt lat="42.57926" lon="1.99495">
        <ele>2044.1999511719</ele>
        <time>2023-07-19T07:43:48.000Z</time>
      </trkpt>
      <trkpt lat="42.57926" lon="1.99498">
        <ele>2045</ele>
        <time>2023-07-19T07:43:53.000Z</time>
      </trkpt>
      <trkpt lat="42.57927" lon="1.99499">
        <ele>2045.1999511719</ele>
        <time>2023-07-19T07:43:54.000Z</time>
      </trkpt>
      <trkpt lat="42.57929" lon="1.99506">
        <ele>2046</ele>
        <time>2023-07-19T07:43:59.000Z</time>
      </trkpt>
      <trkpt lat="42.57931" lon="1.99504">
        <ele>2046</ele>
        <time>2023-07-19T07:44:01.000Z</time>
      </trkpt>
      <trkpt lat="42.57931" lon="1.99504">
        <ele>2046.1999511719</ele>
        <time>2023-07-19T07:44:02.000Z</time>
      </trkpt>
      <trkpt lat="42.57938" lon="1.99506">
        <ele>2047.1999511719</ele>
        <time>2023-07-19T07:44:10.000Z</time>
      </trkpt>
      <trkpt lat="42.57938" lon="1.99506">
        <ele>2047.4000244141</ele>
        <time>2023-07-19T07:44:11.000Z</time>
      </trkpt>
      <trkpt lat="42.57939" lon="1.99508">
        <ele>2048.3999023438</ele>
        <time>2023-07-19T07:44:14.000Z</time>
      </trkpt>
      <trkpt lat="42.57942" lon="1.99512">
        <ele>2048.3999023438</ele>
        <time>2023-07-19T07:44:18.000Z</time>
      </trkpt>
      <trkpt lat="42.57951" lon="1.99515">
        <ele>2048.1999511719</ele>
        <time>2023-07-19T07:44:25.000Z</time>
      </trkpt>
      <trkpt lat="42.57956" lon="1.99517">
        <ele>2047.8000488281</ele>
        <time>2023-07-19T07:44:32.000Z</time>
      </trkpt>
      <trkpt lat="42.57964" lon="1.99525">
        <ele>2047.4000244141</ele>
        <time>2023-07-19T07:44:39.000Z</time>
      </trkpt>
      <trkpt lat="42.57966" lon="1.99526">
        <ele>2047.1999511719</ele>
        <time>2023-07-19T07:44:40.000Z</time>
      </trkpt>
      <trkpt lat="42.57977" lon="1.99533">
        <ele>2047.4000244141</ele>
        <time>2023-07-19T07:44:48.000Z</time>
      </trkpt>
      <trkpt lat="42.57987" lon="1.99535">
        <ele>2047.8000488281</ele>
        <time>2023-07-19T07:44:56.000Z</time>
      </trkpt>
      <trkpt lat="42.57992" lon="1.99539">
        <ele>2048</ele>
        <time>2023-07-19T07:45:02.000Z</time>
      </trkpt>
      <trkpt lat="42.57993" lon="1.99542">
        <ele>2048.3999023438</ele>
        <time>2023-07-19T07:45:04.000Z</time>
      </trkpt>
      <trkpt lat="42.57997" lon="1.99548">
        <ele>2048.6000976562</ele>
        <time>2023-07-19T07:45:09.000Z</time>
      </trkpt>
      <trkpt lat="42.58" lon="1.9955">
        <ele>2049.3999023438</ele>
        <time>2023-07-19T07:45:15.000Z</time>
      </trkpt>
      <trkpt lat="42.58001" lon="1.9955">
        <ele>2049.6000976562</ele>
        <time>2023-07-19T07:45:16.000Z</time>
      </trkpt>
      <trkpt lat="42.5801" lon="1.99553">
        <ele>2050.1999511719</ele>
        <time>2023-07-19T07:45:25.000Z</time>
      </trkpt>
      <trkpt lat="42.58014" lon="1.99553">
        <ele>2050.3999023438</ele>
        <time>2023-07-19T07:45:32.000Z</time>
      </trkpt>
      <trkpt lat="42.58013" lon="1.99552">
        <ele>2050.3999023438</ele>
        <time>2023-07-19T07:45:35.000Z</time>
      </trkpt>
      <trkpt lat="42.58017" lon="1.99556">
        <ele>2051</ele>
        <time>2023-07-19T07:45:43.000Z</time>
      </trkpt>
      <trkpt lat="42.58023" lon="1.99559">
        <ele>2050.1999511719</ele>
        <time>2023-07-19T07:45:50.000Z</time>
      </trkpt>
      <trkpt lat="42.58032" lon="1.99558">
        <ele>2049.8000488281</ele>
        <time>2023-07-19T07:45:56.000Z</time>
      </trkpt>
      <trkpt lat="42.58044" lon="1.99557">
        <ele>2049.6000976562</ele>
        <time>2023-07-19T07:46:05.000Z</time>
      </trkpt>
      <trkpt lat="42.5805" lon="1.99554">
        <ele>2049.6000976562</ele>
        <time>2023-07-19T07:46:13.000Z</time>
      </trkpt>
      <trkpt lat="42.58052" lon="1.99553">
        <ele>2049.1999511719</ele>
        <time>2023-07-19T07:46:15.000Z</time>
      </trkpt>
      <trkpt lat="42.58054" lon="1.99554">
        <ele>2048.1999511719</ele>
        <time>2023-07-19T07:46:20.000Z</time>
      </trkpt>
      <trkpt lat="42.58059" lon="1.99553">
        <ele>2047.4000244141</ele>
        <time>2023-07-19T07:46:27.000Z</time>
      </trkpt>
      <trkpt lat="42.58061" lon="1.99554">
        <ele>2047</ele>
        <time>2023-07-19T07:46:29.000Z</time>
      </trkpt>
      <trkpt lat="42.58064" lon="1.99555">
        <ele>2046.1999511719</ele>
        <time>2023-07-19T07:46:34.000Z</time>
      </trkpt>
      <trkpt lat="42.58065" lon="1.99555">
        <ele>2045.8000488281</ele>
        <time>2023-07-19T07:46:35.000Z</time>
      </trkpt>
      <trkpt lat="42.58066" lon="1.99556">
        <ele>2045.4000244141</ele>
        <time>2023-07-19T07:46:40.000Z</time>
      </trkpt>
      <trkpt lat="42.58071" lon="1.99557">
        <ele>2044.8000488281</ele>
        <time>2023-07-19T07:46:45.000Z</time>
      </trkpt>
      <trkpt lat="42.58074" lon="1.99558">
        <ele>2044.5999755859</ele>
        <time>2023-07-19T07:46:47.000Z</time>
      </trkpt>
      <trkpt lat="42.58082" lon="1.99553">
        <ele>2044.4000244141</ele>
        <time>2023-07-19T07:46:54.000Z</time>
      </trkpt>
      <trkpt lat="42.58085" lon="1.99548">
        <ele>2045</ele>
        <time>2023-07-19T07:47:01.000Z</time>
      </trkpt>
      <trkpt lat="42.58088" lon="1.99542">
        <ele>2045.5999755859</ele>
        <time>2023-07-19T07:47:07.000Z</time>
      </trkpt>
      <trkpt lat="42.58088" lon="1.99541">
        <ele>2046</ele>
        <time>2023-07-19T07:47:08.000Z</time>
      </trkpt>
      <trkpt lat="42.58089" lon="1.99537">
        <ele>2046.8000488281</ele>
        <time>2023-07-19T07:47:14.000Z</time>
      </trkpt>
      <trkpt lat="42.5809" lon="1.99535">
        <ele>2047</ele>
        <time>2023-07-19T07:47:16.000Z</time>
      </trkpt>
      <trkpt lat="42.58091" lon="1.99536">
        <ele>2047.5999755859</ele>
        <time>2023-07-19T07:47:20.000Z</time>
      </trkpt>
      <trkpt lat="42.58091" lon="1.99536">
        <ele>2048</ele>
        <time>2023-07-19T07:47:23.000Z</time>
      </trkpt>
      <trkpt lat="42.58094" lon="1.99532">
        <ele>2049</ele>
        <time>2023-07-19T07:47:29.000Z</time>
      </trkpt>
      <trkpt lat="42.58095" lon="1.99531">
        <ele>2049</ele>
        <time>2023-07-19T07:47:30.000Z</time>
      </trkpt>
      <trkpt lat="42.58098" lon="1.99525">
        <ele>2049.3999023438</ele>
        <time>2023-07-19T07:47:37.000Z</time>
      </trkpt>
      <trkpt lat="42.58102" lon="1.9952">
        <ele>2050.1999511719</ele>
        <time>2023-07-19T07:47:42.000Z</time>
      </trkpt>
      <trkpt lat="42.58103" lon="1.99519">
        <ele>2050.6000976562</ele>
        <time>2023-07-19T07:47:44.000Z</time>
      </trkpt>
      <trkpt lat="42.58105" lon="1.99517">
        <ele>2051.3999023438</ele>
        <time>2023-07-19T07:47:48.000Z</time>
      </trkpt>
      <trkpt lat="42.58106" lon="1.99517">
        <ele>2051.8000488281</ele>
        <time>2023-07-19T07:47:51.000Z</time>
      </trkpt>
      <trkpt lat="42.58114" lon="1.99518">
        <ele>2052.1999511719</ele>
        <time>2023-07-19T07:48:00.000Z</time>
      </trkpt>
      <trkpt lat="42.58115" lon="1.99519">
        <ele>2052.3999023438</ele>
        <time>2023-07-19T07:48:02.000Z</time>
      </trkpt>
      <trkpt lat="42.58124" lon="1.99524">
        <ele>2052.6000976562</ele>
        <time>2023-07-19T07:48:09.000Z</time>
      </trkpt>
      <trkpt lat="42.58128" lon="1.99521">
        <ele>2052.6000976562</ele>
        <time>2023-07-19T07:48:15.000Z</time>
      </trkpt>
      <trkpt lat="42.58132" lon="1.99517">
        <ele>2052.6000976562</ele>
        <time>2023-07-19T07:48:23.000Z</time>
      </trkpt>
      <trkpt lat="42.5813" lon="1.99516">
        <ele>2052.1999511719</ele>
        <time>2023-07-19T07:48:31.000Z</time>
      </trkpt>
      <trkpt lat="42.5813" lon="1.99512">
        <ele>2052.3999023438</ele>
        <time>2023-07-19T07:48:38.000Z</time>
      </trkpt>
      <trkpt lat="42.58136" lon="1.99511">
        <ele>2052.3999023438</ele>
        <time>2023-07-19T07:48:43.000Z</time>
      </trkpt>
      <trkpt lat="42.58137" lon="1.9951">
        <ele>2052.3999023438</ele>
        <time>2023-07-19T07:48:48.000Z</time>
      </trkpt>
      <trkpt lat="42.58141" lon="1.99507">
        <ele>2052.3999023438</ele>
        <time>2023-07-19T07:48:53.000Z</time>
      </trkpt>
      <trkpt lat="42.58147" lon="1.99505">
        <ele>2052</ele>
        <time>2023-07-19T07:49:01.000Z</time>
      </trkpt>
      <trkpt lat="42.58153" lon="1.99504">
        <ele>2051.1999511719</ele>
        <time>2023-07-19T07:49:06.000Z</time>
      </trkpt>
      <trkpt lat="42.58154" lon="1.99504">
        <ele>2051.1999511719</ele>
        <time>2023-07-19T07:49:07.000Z</time>
      </trkpt>
      <trkpt lat="42.58162" lon="1.99502">
        <ele>2050.3999023438</ele>
        <time>2023-07-19T07:49:15.000Z</time>
      </trkpt>
      <trkpt lat="42.58165" lon="1.99502">
        <ele>2050.1999511719</ele>
        <time>2023-07-19T07:49:17.000Z</time>
      </trkpt>
      <trkpt lat="42.58169" lon="1.995">
        <ele>2049.8000488281</ele>
        <time>2023-07-19T07:49:22.000Z</time>
      </trkpt>
      <trkpt lat="42.58169" lon="1.99498">
        <ele>2049.8000488281</ele>
        <time>2023-07-19T07:49:24.000Z</time>
      </trkpt>
      <trkpt lat="42.58167" lon="1.99498">
        <ele>2049.6000976562</ele>
        <time>2023-07-19T07:49:31.000Z</time>
      </trkpt>
      <trkpt lat="42.5817" lon="1.99495">
        <ele>2049.6000976562</ele>
        <time>2023-07-19T07:49:39.000Z</time>
      </trkpt>
      <trkpt lat="42.58176" lon="1.99488">
        <ele>2049.6000976562</ele>
        <time>2023-07-19T07:49:47.000Z</time>
      </trkpt>
      <trkpt lat="42.58179" lon="1.99484">
        <ele>2049.1999511719</ele>
        <time>2023-07-19T07:49:51.000Z</time>
      </trkpt>
      <trkpt lat="42.58184" lon="1.99479">
        <ele>2048.8000488281</ele>
        <time>2023-07-19T07:49:57.000Z</time>
      </trkpt>
      <trkpt lat="42.5819" lon="1.99471">
        <ele>2048.3999023438</ele>
        <time>2023-07-19T07:50:04.000Z</time>
      </trkpt>
      <trkpt lat="42.58193" lon="1.99466">
        <ele>2048.1999511719</ele>
        <time>2023-07-19T07:50:08.000Z</time>
      </trkpt>
      <trkpt lat="42.58194" lon="1.99465">
        <ele>2048.1999511719</ele>
        <time>2023-07-19T07:50:10.000Z</time>
      </trkpt>
      <trkpt lat="42.58199" lon="1.99456">
        <ele>2047.5999755859</ele>
        <time>2023-07-19T07:50:18.000Z</time>
      </trkpt>
      <trkpt lat="42.58204" lon="1.99444">
        <ele>2047.8000488281</ele>
        <time>2023-07-19T07:50:26.000Z</time>
      </trkpt>
      <trkpt lat="42.58206" lon="1.99435">
        <ele>2048.1999511719</ele>
        <time>2023-07-19T07:50:31.000Z</time>
      </trkpt>
      <trkpt lat="42.58209" lon="1.99425">
        <ele>2048.3999023438</ele>
        <time>2023-07-19T07:50:38.000Z</time>
      </trkpt>
      <trkpt lat="42.58215" lon="1.99418">
        <ele>2048.3999023438</ele>
        <time>2023-07-19T07:50:46.000Z</time>
      </trkpt>
      <trkpt lat="42.58224" lon="1.99408">
        <ele>2048.8000488281</ele>
        <time>2023-07-19T07:50:55.000Z</time>
      </trkpt>
      <trkpt lat="42.58231" lon="1.99396">
        <ele>2048.8000488281</ele>
        <time>2023-07-19T07:51:05.000Z</time>
      </trkpt>
      <trkpt lat="42.58235" lon="1.99388">
        <ele>2049</ele>
        <time>2023-07-19T07:51:12.000Z</time>
      </trkpt>
      <trkpt lat="42.58238" lon="1.99377">
        <ele>2048.6000976562</ele>
        <time>2023-07-19T07:51:20.000Z</time>
      </trkpt>
      <trkpt lat="42.5824" lon="1.99365">
        <ele>2048.6000976562</ele>
        <time>2023-07-19T07:51:28.000Z</time>
      </trkpt>
      <trkpt lat="42.58241" lon="1.99356">
        <ele>2048.8000488281</ele>
        <time>2023-07-19T07:51:35.000Z</time>
      </trkpt>
      <trkpt lat="42.58246" lon="1.99347">
        <ele>2048.8000488281</ele>
        <time>2023-07-19T07:51:42.000Z</time>
      </trkpt>
      <trkpt lat="42.58251" lon="1.99342">
        <ele>2049</ele>
        <time>2023-07-19T07:51:51.000Z</time>
      </trkpt>
      <trkpt lat="42.58256" lon="1.99336">
        <ele>2048.8000488281</ele>
        <time>2023-07-19T07:51:59.000Z</time>
      </trkpt>
      <trkpt lat="42.58258" lon="1.99333">
        <ele>2049.3999023438</ele>
        <time>2023-07-19T07:52:03.000Z</time>
      </trkpt>
      <trkpt lat="42.58261" lon="1.99329">
        <ele>2049.8000488281</ele>
        <time>2023-07-19T07:52:08.000Z</time>
      </trkpt>
      <trkpt lat="42.58265" lon="1.99322">
        <ele>2050.3999023438</ele>
        <time>2023-07-19T07:52:13.000Z</time>
      </trkpt>
      <trkpt lat="42.58268" lon="1.99319">
        <ele>2050.8000488281</ele>
        <time>2023-07-19T07:52:16.000Z</time>
      </trkpt>
      <trkpt lat="42.58276" lon="1.99311">
        <ele>2051</ele>
        <time>2023-07-19T07:52:25.000Z</time>
      </trkpt>
      <trkpt lat="42.58283" lon="1.99307">
        <ele>2051</ele>
        <time>2023-07-19T07:52:33.000Z</time>
      </trkpt>
      <trkpt lat="42.58288" lon="1.99301">
        <ele>2051</ele>
        <time>2023-07-19T07:52:41.000Z</time>
      </trkpt>
      <trkpt lat="42.58293" lon="1.99288">
        <ele>2051.1999511719</ele>
        <time>2023-07-19T07:52:50.000Z</time>
      </trkpt>
      <trkpt lat="42.58295" lon="1.99276">
        <ele>2051.3999023438</ele>
        <time>2023-07-19T07:52:58.000Z</time>
      </trkpt>
      <trkpt lat="42.58301" lon="1.99269">
        <ele>2051</ele>
        <time>2023-07-19T07:53:06.000Z</time>
      </trkpt>
      <trkpt lat="42.58309" lon="1.99258">
        <ele>2050.6000976562</ele>
        <time>2023-07-19T07:53:14.000Z</time>
      </trkpt>
      <trkpt lat="42.5831" lon="1.99252">
        <ele>2050.3999023438</ele>
        <time>2023-07-19T07:53:21.000Z</time>
      </trkpt>
      <trkpt lat="42.58311" lon="1.99238">
        <ele>2050.8000488281</ele>
        <time>2023-07-19T07:53:29.000Z</time>
      </trkpt>
      <trkpt lat="42.58313" lon="1.9923">
        <ele>2050.6000976562</ele>
        <time>2023-07-19T07:53:36.000Z</time>
      </trkpt>
      <trkpt lat="42.58321" lon="1.99224">
        <ele>2050.3999023438</ele>
        <time>2023-07-19T07:53:44.000Z</time>
      </trkpt>
      <trkpt lat="42.58328" lon="1.99219">
        <ele>2050.3999023438</ele>
        <time>2023-07-19T07:53:52.000Z</time>
      </trkpt>
      <trkpt lat="42.5834" lon="1.99211">
        <ele>2050.8000488281</ele>
        <time>2023-07-19T07:54:01.000Z</time>
      </trkpt>
      <trkpt lat="42.58346" lon="1.99209">
        <ele>2051</ele>
        <time>2023-07-19T07:54:08.000Z</time>
      </trkpt>
      <trkpt lat="42.58352" lon="1.99207">
        <ele>2051</ele>
        <time>2023-07-19T07:54:14.000Z</time>
      </trkpt>
      <trkpt lat="42.5836" lon="1.992">
        <ele>2050.3999023438</ele>
        <time>2023-07-19T07:54:23.000Z</time>
      </trkpt>
      <trkpt lat="42.58367" lon="1.99196">
        <ele>2049.8000488281</ele>
        <time>2023-07-19T07:54:30.000Z</time>
      </trkpt>
      <trkpt lat="42.58375" lon="1.99185">
        <ele>2049.8000488281</ele>
        <time>2023-07-19T07:54:39.000Z</time>
      </trkpt>
      <trkpt lat="42.58381" lon="1.9918">
        <ele>2049.8000488281</ele>
        <time>2023-07-19T07:54:48.000Z</time>
      </trkpt>
      <trkpt lat="42.5838" lon="1.99171">
        <ele>2050.1999511719</ele>
        <time>2023-07-19T07:54:55.000Z</time>
      </trkpt>
      <trkpt lat="42.58384" lon="1.99161">
        <ele>2050.1999511719</ele>
        <time>2023-07-19T07:55:03.000Z</time>
      </trkpt>
      <trkpt lat="42.58381" lon="1.99154">
        <ele>2050</ele>
        <time>2023-07-19T07:55:13.000Z</time>
      </trkpt>
      <trkpt lat="42.5838" lon="1.99155">
        <ele>2050.3999023438</ele>
        <time>2023-07-19T07:55:20.000Z</time>
      </trkpt>
      <trkpt lat="42.58383" lon="1.99158">
        <ele>2050.3999023438</ele>
        <time>2023-07-19T07:55:27.000Z</time>
      </trkpt>
      <trkpt lat="42.5839" lon="1.99156">
        <ele>2050.3999023438</ele>
        <time>2023-07-19T07:55:34.000Z</time>
      </trkpt>
      <trkpt lat="42.58399" lon="1.99146">
        <ele>2051</ele>
        <time>2023-07-19T07:55:43.000Z</time>
      </trkpt>
      <trkpt lat="42.58402" lon="1.99139">
        <ele>2051.1999511719</ele>
        <time>2023-07-19T07:55:49.000Z</time>
      </trkpt>
      <trkpt lat="42.5841" lon="1.99133">
        <ele>2051.3999023438</ele>
        <time>2023-07-19T07:55:57.000Z</time>
      </trkpt>
      <trkpt lat="42.58411" lon="1.99133">
        <ele>2051.6000976562</ele>
        <time>2023-07-19T07:55:58.000Z</time>
      </trkpt>
      <trkpt lat="42.58418" lon="1.9913">
        <ele>2051.8000488281</ele>
        <time>2023-07-19T07:56:05.000Z</time>
      </trkpt>
      <trkpt lat="42.58423" lon="1.99125">
        <ele>2052</ele>
        <time>2023-07-19T07:56:13.000Z</time>
      </trkpt>
      <trkpt lat="42.58428" lon="1.99118">
        <ele>2052</ele>
        <time>2023-07-19T07:56:21.000Z</time>
      </trkpt>
      <trkpt lat="42.58434" lon="1.9911">
        <ele>2052.6000976562</ele>
        <time>2023-07-19T07:56:28.000Z</time>
      </trkpt>
      <trkpt lat="42.58437" lon="1.99108">
        <ele>2052.6000976562</ele>
        <time>2023-07-19T07:56:34.000Z</time>
      </trkpt>
      <trkpt lat="42.58442" lon="1.99105">
        <ele>2052.8000488281</ele>
        <time>2023-07-19T07:56:39.000Z</time>
      </trkpt>
      <trkpt lat="42.58444" lon="1.99103">
        <ele>2052.8000488281</ele>
        <time>2023-07-19T07:56:41.000Z</time>
      </trkpt>
      <trkpt lat="42.58447" lon="1.99096">
        <ele>2052.8000488281</ele>
        <time>2023-07-19T07:56:49.000Z</time>
      </trkpt>
      <trkpt lat="42.58453" lon="1.99085">
        <ele>2052.6000976562</ele>
        <time>2023-07-19T07:56:57.000Z</time>
      </trkpt>
      <trkpt lat="42.5846" lon="1.99075">
        <ele>2053.6000976562</ele>
        <time>2023-07-19T07:57:06.000Z</time>
      </trkpt>
      <trkpt lat="42.58462" lon="1.99073">
        <ele>2053.8000488281</ele>
        <time>2023-07-19T07:57:08.000Z</time>
      </trkpt>
      <trkpt lat="42.58466" lon="1.99069">
        <ele>2054.6000976562</ele>
        <time>2023-07-19T07:57:15.000Z</time>
      </trkpt>
      <trkpt lat="42.5847" lon="1.99065">
        <ele>2054.1999511719</ele>
        <time>2023-07-19T07:57:23.000Z</time>
      </trkpt>
      <trkpt lat="42.58479" lon="1.99061">
        <ele>2054.1999511719</ele>
        <time>2023-07-19T07:57:32.000Z</time>
      </trkpt>
      <trkpt lat="42.58486" lon="1.99052">
        <ele>2053.6000976562</ele>
        <time>2023-07-19T07:57:42.000Z</time>
      </trkpt>
      <trkpt lat="42.5849" lon="1.99048">
        <ele>2053.8000488281</ele>
        <time>2023-07-19T07:57:48.000Z</time>
      </trkpt>
      <trkpt lat="42.585" lon="1.9904">
        <ele>2054.1999511719</ele>
        <time>2023-07-19T07:57:57.000Z</time>
      </trkpt>
      <trkpt lat="42.58506" lon="1.99029">
        <ele>2054.8000488281</ele>
        <time>2023-07-19T07:58:06.000Z</time>
      </trkpt>
      <trkpt lat="42.58512" lon="1.99019">
        <ele>2054</ele>
        <time>2023-07-19T07:58:14.000Z</time>
      </trkpt>
      <trkpt lat="42.58519" lon="1.99015">
        <ele>2054.6000976562</ele>
        <time>2023-07-19T07:58:22.000Z</time>
      </trkpt>
      <trkpt lat="42.58526" lon="1.99008">
        <ele>2055.3999023438</ele>
        <time>2023-07-19T07:58:28.000Z</time>
      </trkpt>
      <trkpt lat="42.5853" lon="1.99002">
        <ele>2055.6000976562</ele>
        <time>2023-07-19T07:58:35.000Z</time>
      </trkpt>
      <trkpt lat="42.58538" lon="1.98992">
        <ele>2055.6000976562</ele>
        <time>2023-07-19T07:58:43.000Z</time>
      </trkpt>
      <trkpt lat="42.58541" lon="1.98985">
        <ele>2056</ele>
        <time>2023-07-19T07:58:48.000Z</time>
      </trkpt>
      <trkpt lat="42.58541" lon="1.98982">
        <ele>2056.1999511719</ele>
        <time>2023-07-19T07:58:51.000Z</time>
      </trkpt>
      <trkpt lat="42.58543" lon="1.98977">
        <ele>2056.1999511719</ele>
        <time>2023-07-19T07:58:58.000Z</time>
      </trkpt>
      <trkpt lat="42.5855" lon="1.98969">
        <ele>2057</ele>
        <time>2023-07-19T07:59:06.000Z</time>
      </trkpt>
      <trkpt lat="42.58558" lon="1.98962">
        <ele>2057.1999511719</ele>
        <time>2023-07-19T07:59:14.000Z</time>
      </trkpt>
      <trkpt lat="42.58562" lon="1.98955">
        <ele>2058</ele>
        <time>2023-07-19T07:59:21.000Z</time>
      </trkpt>
      <trkpt lat="42.58563" lon="1.98954">
        <ele>2058</ele>
        <time>2023-07-19T07:59:22.000Z</time>
      </trkpt>
      <trkpt lat="42.5857" lon="1.98946">
        <ele>2058.3999023438</ele>
        <time>2023-07-19T07:59:29.000Z</time>
      </trkpt>
      <trkpt lat="42.58577" lon="1.9894">
        <ele>2059.1999511719</ele>
        <time>2023-07-19T07:59:36.000Z</time>
      </trkpt>
      <trkpt lat="42.58579" lon="1.98938">
        <ele>2059.3999023438</ele>
        <time>2023-07-19T07:59:38.000Z</time>
      </trkpt>
      <trkpt lat="42.58586" lon="1.98931">
        <ele>2059.8000488281</ele>
        <time>2023-07-19T07:59:45.000Z</time>
      </trkpt>
      <trkpt lat="42.58591" lon="1.9892">
        <ele>2059.8000488281</ele>
        <time>2023-07-19T07:59:52.000Z</time>
      </trkpt>
      <trkpt lat="42.58597" lon="1.9891">
        <ele>2059.8000488281</ele>
        <time>2023-07-19T08:00:00.000Z</time>
      </trkpt>
      <trkpt lat="42.58603" lon="1.98902">
        <ele>2060.1999511719</ele>
        <time>2023-07-19T08:00:07.000Z</time>
      </trkpt>
      <trkpt lat="42.58604" lon="1.989">
        <ele>2060.1999511719</ele>
        <time>2023-07-19T08:00:08.000Z</time>
      </trkpt>
      <trkpt lat="42.5861" lon="1.98891">
        <ele>2060.3999023438</ele>
        <time>2023-07-19T08:00:16.000Z</time>
      </trkpt>
      <trkpt lat="42.58614" lon="1.98884">
        <ele>2060.1999511719</ele>
        <time>2023-07-19T08:00:23.000Z</time>
      </trkpt>
      <trkpt lat="42.58621" lon="1.98874">
        <ele>2060.8000488281</ele>
        <time>2023-07-19T08:00:31.000Z</time>
      </trkpt>
      <trkpt lat="42.58627" lon="1.98864">
        <ele>2061</ele>
        <time>2023-07-19T08:00:39.000Z</time>
      </trkpt>
      <trkpt lat="42.58628" lon="1.98858">
        <ele>2060.6000976562</ele>
        <time>2023-07-19T08:00:45.000Z</time>
      </trkpt>
      <trkpt lat="42.58628" lon="1.98847">
        <ele>2059.6000976562</ele>
        <time>2023-07-19T08:00:51.000Z</time>
      </trkpt>
      <trkpt lat="42.58632" lon="1.98836">
        <ele>2059.6000976562</ele>
        <time>2023-07-19T08:00:59.000Z</time>
      </trkpt>
      <trkpt lat="42.58636" lon="1.98825">
        <ele>2059.6000976562</ele>
        <time>2023-07-19T08:01:08.000Z</time>
      </trkpt>
      <trkpt lat="42.5864" lon="1.98817">
        <ele>2059.6000976562</ele>
        <time>2023-07-19T08:01:14.000Z</time>
      </trkpt>
      <trkpt lat="42.58646" lon="1.98808">
        <ele>2060.3999023438</ele>
        <time>2023-07-19T08:01:22.000Z</time>
      </trkpt>
      <trkpt lat="42.58652" lon="1.98802">
        <ele>2060.6000976562</ele>
        <time>2023-07-19T08:01:29.000Z</time>
      </trkpt>
      <trkpt lat="42.58657" lon="1.98794">
        <ele>2061.1999511719</ele>
        <time>2023-07-19T08:01:37.000Z</time>
      </trkpt>
      <trkpt lat="42.58657" lon="1.98793">
        <ele>2061.3999023438</ele>
        <time>2023-07-19T08:01:38.000Z</time>
      </trkpt>
      <trkpt lat="42.58664" lon="1.98785">
        <ele>2062.1999511719</ele>
        <time>2023-07-19T08:01:46.000Z</time>
      </trkpt>
      <trkpt lat="42.58665" lon="1.98784">
        <ele>2062.3999023438</ele>
        <time>2023-07-19T08:01:48.000Z</time>
      </trkpt>
      <trkpt lat="42.58668" lon="1.98781">
        <ele>2062.3999023438</ele>
        <time>2023-07-19T08:01:52.000Z</time>
      </trkpt>
      <trkpt lat="42.58672" lon="1.98777">
        <ele>2063.3999023438</ele>
        <time>2023-07-19T08:01:57.000Z</time>
      </trkpt>
      <trkpt lat="42.58678" lon="1.98771">
        <ele>2063.6000976562</ele>
        <time>2023-07-19T08:02:03.000Z</time>
      </trkpt>
      <trkpt lat="42.58682" lon="1.98766">
        <ele>2065</ele>
        <time>2023-07-19T08:02:07.000Z</time>
      </trkpt>
      <trkpt lat="42.58684" lon="1.98763">
        <ele>2065.3999023438</ele>
        <time>2023-07-19T08:02:11.000Z</time>
      </trkpt>
      <trkpt lat="42.58687" lon="1.98759">
        <ele>2063.6000976562</ele>
        <time>2023-07-19T08:02:15.000Z</time>
      </trkpt>
      <trkpt lat="42.58689" lon="1.98757">
        <ele>2062.6000976562</ele>
        <time>2023-07-19T08:02:17.000Z</time>
      </trkpt>
      <trkpt lat="42.58691" lon="1.98754">
        <ele>2062.3999023438</ele>
        <time>2023-07-19T08:02:19.000Z</time>
      </trkpt>
      <trkpt lat="42.58699" lon="1.98744">
        <ele>2061.6000976562</ele>
        <time>2023-07-19T08:02:27.000Z</time>
      </trkpt>
      <trkpt lat="42.587" lon="1.98741">
        <ele>2061.6000976562</ele>
        <time>2023-07-19T08:02:29.000Z</time>
      </trkpt>
      <trkpt lat="42.58706" lon="1.98736">
        <ele>2061.8000488281</ele>
        <time>2023-07-19T08:02:35.000Z</time>
      </trkpt>
      <trkpt lat="42.58711" lon="1.9873">
        <ele>2062.3999023438</ele>
        <time>2023-07-19T08:02:42.000Z</time>
      </trkpt>
      <trkpt lat="42.58712" lon="1.98727">
        <ele>2062.6000976562</ele>
        <time>2023-07-19T08:02:45.000Z</time>
      </trkpt>
      <trkpt lat="42.58717" lon="1.98721">
        <ele>2063</ele>
        <time>2023-07-19T08:02:50.000Z</time>
      </trkpt>
      <trkpt lat="42.58726" lon="1.98714">
        <ele>2063.3999023438</ele>
        <time>2023-07-19T08:02:58.000Z</time>
      </trkpt>
      <trkpt lat="42.58729" lon="1.9871">
        <ele>2063.8000488281</ele>
        <time>2023-07-19T08:03:01.000Z</time>
      </trkpt>
      <trkpt lat="42.58732" lon="1.98708">
        <ele>2064.1999511719</ele>
        <time>2023-07-19T08:03:05.000Z</time>
      </trkpt>
      <trkpt lat="42.58737" lon="1.98701">
        <ele>2064.6000976562</ele>
        <time>2023-07-19T08:03:12.000Z</time>
      </trkpt>
      <trkpt lat="42.58742" lon="1.98697">
        <ele>2064.8000488281</ele>
        <time>2023-07-19T08:03:17.000Z</time>
      </trkpt>
      <trkpt lat="42.58743" lon="1.98697">
        <ele>2065</ele>
        <time>2023-07-19T08:03:18.000Z</time>
      </trkpt>
      <trkpt lat="42.58748" lon="1.98691">
        <ele>2066</ele>
        <time>2023-07-19T08:03:26.000Z</time>
      </trkpt>
      <trkpt lat="42.58749" lon="1.98689">
        <ele>2066.6000976562</ele>
        <time>2023-07-19T08:03:29.000Z</time>
      </trkpt>
      <trkpt lat="42.5875" lon="1.98689">
        <ele>2067</ele>
        <time>2023-07-19T08:03:31.000Z</time>
      </trkpt>
      <trkpt lat="42.58755" lon="1.98685">
        <ele>2067.6000976562</ele>
        <time>2023-07-19T08:03:37.000Z</time>
      </trkpt>
      <trkpt lat="42.58761" lon="1.98675">
        <ele>2068</ele>
        <time>2023-07-19T08:03:45.000Z</time>
      </trkpt>
      <trkpt lat="42.58765" lon="1.9867">
        <ele>2068</ele>
        <time>2023-07-19T08:03:49.000Z</time>
      </trkpt>
      <trkpt lat="42.58769" lon="1.98663">
        <ele>2068</ele>
        <time>2023-07-19T08:03:54.000Z</time>
      </trkpt>
      <trkpt lat="42.58773" lon="1.98651">
        <ele>2067.3999023438</ele>
        <time>2023-07-19T08:04:02.000Z</time>
      </trkpt>
      <trkpt lat="42.58776" lon="1.98638">
        <ele>2067.1999511719</ele>
        <time>2023-07-19T08:04:10.000Z</time>
      </trkpt>
      <trkpt lat="42.58777" lon="1.98633">
        <ele>2066.8000488281</ele>
        <time>2023-07-19T08:04:13.000Z</time>
      </trkpt>
      <trkpt lat="42.5878" lon="1.98624">
        <ele>2066.3999023438</ele>
        <time>2023-07-19T08:04:18.000Z</time>
      </trkpt>
      <trkpt lat="42.58786" lon="1.98615">
        <ele>2066.1999511719</ele>
        <time>2023-07-19T08:04:26.000Z</time>
      </trkpt>
      <trkpt lat="42.5879" lon="1.98608">
        <ele>2066.3999023438</ele>
        <time>2023-07-19T08:04:32.000Z</time>
      </trkpt>
      <trkpt lat="42.58796" lon="1.98595">
        <ele>2066.8000488281</ele>
        <time>2023-07-19T08:04:41.000Z</time>
      </trkpt>
      <trkpt lat="42.58803" lon="1.98579">
        <ele>2066.8000488281</ele>
        <time>2023-07-19T08:04:51.000Z</time>
      </trkpt>
      <trkpt lat="42.58807" lon="1.98567">
        <ele>2066.8000488281</ele>
        <time>2023-07-19T08:05:00.000Z</time>
      </trkpt>
      <trkpt lat="42.58812" lon="1.98557">
        <ele>2066.6000976562</ele>
        <time>2023-07-19T08:05:09.000Z</time>
      </trkpt>
      <trkpt lat="42.58813" lon="1.98557">
        <ele>2066.6000976562</ele>
        <time>2023-07-19T08:05:14.000Z</time>
      </trkpt>
      <trkpt lat="42.58814" lon="1.98556">
        <ele>2066.6000976562</ele>
        <time>2023-07-19T08:05:16.000Z</time>
      </trkpt>
      <trkpt lat="42.58817" lon="1.98549">
        <ele>2066.8000488281</ele>
        <time>2023-07-19T08:05:24.000Z</time>
      </trkpt>
      <trkpt lat="42.58823" lon="1.98536">
        <ele>2066.1999511719</ele>
        <time>2023-07-19T08:05:33.000Z</time>
      </trkpt>
      <trkpt lat="42.58826" lon="1.98528">
        <ele>2065.8000488281</ele>
        <time>2023-07-19T08:05:40.000Z</time>
      </trkpt>
      <trkpt lat="42.58825" lon="1.9852">
        <ele>2065.6000976562</ele>
        <time>2023-07-19T08:05:48.000Z</time>
      </trkpt>
      <trkpt lat="42.58823" lon="1.98515">
        <ele>2065.3999023438</ele>
        <time>2023-07-19T08:05:53.000Z</time>
      </trkpt>
      <trkpt lat="42.58823" lon="1.98507">
        <ele>2065.6000976562</ele>
        <time>2023-07-19T08:06:00.000Z</time>
      </trkpt>
      <trkpt lat="42.58824" lon="1.98502">
        <ele>2065.6000976562</ele>
        <time>2023-07-19T08:06:07.000Z</time>
      </trkpt>
      <trkpt lat="42.58825" lon="1.98499">
        <ele>2066</ele>
        <time>2023-07-19T08:06:14.000Z</time>
      </trkpt>
      <trkpt lat="42.58827" lon="1.98497">
        <ele>2066.8000488281</ele>
        <time>2023-07-19T08:06:21.000Z</time>
      </trkpt>
      <trkpt lat="42.58832" lon="1.9849">
        <ele>2066.1999511719</ele>
        <time>2023-07-19T08:06:29.000Z</time>
      </trkpt>
      <trkpt lat="42.58834" lon="1.98482">
        <ele>2067</ele>
        <time>2023-07-19T08:06:39.000Z</time>
      </trkpt>
      <trkpt lat="42.58836" lon="1.98476">
        <ele>2067.3999023438</ele>
        <time>2023-07-19T08:06:47.000Z</time>
      </trkpt>
      <trkpt lat="42.58842" lon="1.98474">
        <ele>2066.1999511719</ele>
        <time>2023-07-19T08:06:55.000Z</time>
      </trkpt>
      <trkpt lat="42.58844" lon="1.98473">
        <ele>2065.8000488281</ele>
        <time>2023-07-19T08:06:59.000Z</time>
      </trkpt>
      <trkpt lat="42.58847" lon="1.9847">
        <ele>2064.8000488281</ele>
        <time>2023-07-19T08:07:03.000Z</time>
      </trkpt>
      <trkpt lat="42.58847" lon="1.9847">
        <ele>2064.6000976562</ele>
        <time>2023-07-19T08:07:04.000Z</time>
      </trkpt>
      <trkpt lat="42.5885" lon="1.98466">
        <ele>2064.6000976562</ele>
        <time>2023-07-19T08:07:12.000Z</time>
      </trkpt>
      <trkpt lat="42.58853" lon="1.9846">
        <ele>2064.1999511719</ele>
        <time>2023-07-19T08:07:19.000Z</time>
      </trkpt>
      <trkpt lat="42.58855" lon="1.98454">
        <ele>2064.3999023438</ele>
        <time>2023-07-19T08:07:26.000Z</time>
      </trkpt>
      <trkpt lat="42.58859" lon="1.98446">
        <ele>2063.6000976562</ele>
        <time>2023-07-19T08:07:34.000Z</time>
      </trkpt>
      <trkpt lat="42.5886" lon="1.98445">
        <ele>2063.6000976562</ele>
        <time>2023-07-19T08:07:35.000Z</time>
      </trkpt>
      <trkpt lat="42.58865" lon="1.98437">
        <ele>2062.6000976562</ele>
        <time>2023-07-19T08:07:42.000Z</time>
      </trkpt>
      <trkpt lat="42.58869" lon="1.98432">
        <ele>2062.3999023438</ele>
        <time>2023-07-19T08:07:47.000Z</time>
      </trkpt>
      <trkpt lat="42.58872" lon="1.98427">
        <ele>2062.3999023438</ele>
        <time>2023-07-19T08:07:52.000Z</time>
      </trkpt>
      <trkpt lat="42.58875" lon="1.98422">
        <ele>2063.1999511719</ele>
        <time>2023-07-19T08:07:59.000Z</time>
      </trkpt>
      <trkpt lat="42.58877" lon="1.98417">
        <ele>2062.8000488281</ele>
        <time>2023-07-19T08:08:04.000Z</time>
      </trkpt>
      <trkpt lat="42.58882" lon="1.98408">
        <ele>2061.3999023438</ele>
        <time>2023-07-19T08:08:12.000Z</time>
      </trkpt>
      <trkpt lat="42.58883" lon="1.98407">
        <ele>2061.1999511719</ele>
        <time>2023-07-19T08:08:13.000Z</time>
      </trkpt>
      <trkpt lat="42.58885" lon="1.98396">
        <ele>2061.8000488281</ele>
        <time>2023-07-19T08:08:21.000Z</time>
      </trkpt>
      <trkpt lat="42.58885" lon="1.98388">
        <ele>2062.6000976562</ele>
        <time>2023-07-19T08:08:30.000Z</time>
      </trkpt>
      <trkpt lat="42.58887" lon="1.98383">
        <ele>2063.6000976562</ele>
        <time>2023-07-19T08:08:37.000Z</time>
      </trkpt>
      <trkpt lat="42.58891" lon="1.98378">
        <ele>2064</ele>
        <time>2023-07-19T08:08:45.000Z</time>
      </trkpt>
      <trkpt lat="42.58891" lon="1.98374">
        <ele>2064.6000976562</ele>
        <time>2023-07-19T08:08:49.000Z</time>
      </trkpt>
      <trkpt lat="42.58892" lon="1.98371">
        <ele>2065.1999511719</ele>
        <time>2023-07-19T08:08:52.000Z</time>
      </trkpt>
      <trkpt lat="42.58892" lon="1.98367">
        <ele>2065.8000488281</ele>
        <time>2023-07-19T08:08:55.000Z</time>
      </trkpt>
      <trkpt lat="42.58893" lon="1.98362">
        <ele>2066.1999511719</ele>
        <time>2023-07-19T08:09:00.000Z</time>
      </trkpt>
      <trkpt lat="42.58898" lon="1.98354">
        <ele>2066.8000488281</ele>
        <time>2023-07-19T08:09:08.000Z</time>
      </trkpt>
      <trkpt lat="42.58899" lon="1.98351">
        <ele>2067</ele>
        <time>2023-07-19T08:09:10.000Z</time>
      </trkpt>
      <trkpt lat="42.58902" lon="1.98344">
        <ele>2067.8000488281</ele>
        <time>2023-07-19T08:09:15.000Z</time>
      </trkpt>
      <trkpt lat="42.58903" lon="1.98343">
        <ele>2068</ele>
        <time>2023-07-19T08:09:16.000Z</time>
      </trkpt>
      <trkpt lat="42.58906" lon="1.98336">
        <ele>2068.6000976562</ele>
        <time>2023-07-19T08:09:23.000Z</time>
      </trkpt>
      <trkpt lat="42.58906" lon="1.98331">
        <ele>2069</ele>
        <time>2023-07-19T08:09:29.000Z</time>
      </trkpt>
      <trkpt lat="42.58904" lon="1.9833">
        <ele>2069</ele>
        <time>2023-07-19T08:09:32.000Z</time>
      </trkpt>
      <trkpt lat="42.58903" lon="1.98324">
        <ele>2068.8000488281</ele>
        <time>2023-07-19T08:09:38.000Z</time>
      </trkpt>
      <trkpt lat="42.58905" lon="1.98312">
        <ele>2068</ele>
        <time>2023-07-19T08:09:45.000Z</time>
      </trkpt>
      <trkpt lat="42.58907" lon="1.9831">
        <ele>2067.6000976562</ele>
        <time>2023-07-19T08:09:47.000Z</time>
      </trkpt>
      <trkpt lat="42.58912" lon="1.98301">
        <ele>2067.3999023438</ele>
        <time>2023-07-19T08:09:54.000Z</time>
      </trkpt>
      <trkpt lat="42.58915" lon="1.9829">
        <ele>2067.1999511719</ele>
        <time>2023-07-19T08:10:02.000Z</time>
      </trkpt>
      <trkpt lat="42.58919" lon="1.98282">
        <ele>2067.8000488281</ele>
        <time>2023-07-19T08:10:10.000Z</time>
      </trkpt>
      <trkpt lat="42.58925" lon="1.98272">
        <ele>2068</ele>
        <time>2023-07-19T08:10:18.000Z</time>
      </trkpt>
      <trkpt lat="42.58927" lon="1.98267">
        <ele>2068.3999023438</ele>
        <time>2023-07-19T08:10:25.000Z</time>
      </trkpt>
      <trkpt lat="42.58927" lon="1.98263">
        <ele>2067.6000976562</ele>
        <time>2023-07-19T08:10:31.000Z</time>
      </trkpt>
      <trkpt lat="42.5893" lon="1.98255">
        <ele>2067.8000488281</ele>
        <time>2023-07-19T08:10:39.000Z</time>
      </trkpt>
      <trkpt lat="42.58936" lon="1.9824">
        <ele>2068.1999511719</ele>
        <time>2023-07-19T08:10:50.000Z</time>
      </trkpt>
      <trkpt lat="42.5894" lon="1.9823">
        <ele>2068.3999023438</ele>
        <time>2023-07-19T08:11:00.000Z</time>
      </trkpt>
      <trkpt lat="42.58942" lon="1.98223">
        <ele>2068.8000488281</ele>
        <time>2023-07-19T08:11:08.000Z</time>
      </trkpt>
      <trkpt lat="42.58943" lon="1.9822">
        <ele>2069</ele>
        <time>2023-07-19T08:11:10.000Z</time>
      </trkpt>
      <trkpt lat="42.58943" lon="1.98216">
        <ele>2069</ele>
        <time>2023-07-19T08:11:14.000Z</time>
      </trkpt>
      <trkpt lat="42.58946" lon="1.98213">
        <ele>2068.3999023438</ele>
        <time>2023-07-19T08:11:20.000Z</time>
      </trkpt>
      <trkpt lat="42.58951" lon="1.98206">
        <ele>2068</ele>
        <time>2023-07-19T08:11:28.000Z</time>
      </trkpt>
      <trkpt lat="42.58951" lon="1.98204">
        <ele>2068</ele>
        <time>2023-07-19T08:11:29.000Z</time>
      </trkpt>
      <trkpt lat="42.58957" lon="1.98196">
        <ele>2068.1999511719</ele>
        <time>2023-07-19T08:11:38.000Z</time>
      </trkpt>
      <trkpt lat="42.58961" lon="1.98185">
        <ele>2067.8000488281</ele>
        <time>2023-07-19T08:11:47.000Z</time>
      </trkpt>
      <trkpt lat="42.58966" lon="1.98172">
        <ele>2068</ele>
        <time>2023-07-19T08:11:55.000Z</time>
      </trkpt>
      <trkpt lat="42.58967" lon="1.98164">
        <ele>2068.6000976562</ele>
        <time>2023-07-19T08:12:02.000Z</time>
      </trkpt>
      <trkpt lat="42.5897" lon="1.98153">
        <ele>2068.6000976562</ele>
        <time>2023-07-19T08:12:09.000Z</time>
      </trkpt>
      <trkpt lat="42.58972" lon="1.98146">
        <ele>2068.8000488281</ele>
        <time>2023-07-19T08:12:16.000Z</time>
      </trkpt>
      <trkpt lat="42.58971" lon="1.98144">
        <ele>2068.6000976562</ele>
        <time>2023-07-19T08:12:20.000Z</time>
      </trkpt>
      <trkpt lat="42.58971" lon="1.98143">
        <ele>2068.6000976562</ele>
        <time>2023-07-19T08:12:22.000Z</time>
      </trkpt>
      <trkpt lat="42.58972" lon="1.98139">
        <ele>2069</ele>
        <time>2023-07-19T08:12:28.000Z</time>
      </trkpt>
      <trkpt lat="42.58973" lon="1.98138">
        <ele>2069.1999511719</ele>
        <time>2023-07-19T08:12:29.000Z</time>
      </trkpt>
      <trkpt lat="42.58975" lon="1.98128">
        <ele>2069.6000976562</ele>
        <time>2023-07-19T08:12:38.000Z</time>
      </trkpt>
      <trkpt lat="42.58978" lon="1.98122">
        <ele>2069.3999023438</ele>
        <time>2023-07-19T08:12:45.000Z</time>
      </trkpt>
      <trkpt lat="42.58982" lon="1.98113">
        <ele>2069.1999511719</ele>
        <time>2023-07-19T08:12:52.000Z</time>
      </trkpt>
      <trkpt lat="42.58987" lon="1.98106">
        <ele>2069</ele>
        <time>2023-07-19T08:13:00.000Z</time>
      </trkpt>
      <trkpt lat="42.58991" lon="1.98093">
        <ele>2068.8000488281</ele>
        <time>2023-07-19T08:13:08.000Z</time>
      </trkpt>
      <trkpt lat="42.58996" lon="1.9808">
        <ele>2068.6000976562</ele>
        <time>2023-07-19T08:13:17.000Z</time>
      </trkpt>
      <trkpt lat="42.59" lon="1.98074">
        <ele>2068</ele>
        <time>2023-07-19T08:13:23.000Z</time>
      </trkpt>
      <trkpt lat="42.59001" lon="1.98072">
        <ele>2067.8000488281</ele>
        <time>2023-07-19T08:13:25.000Z</time>
      </trkpt>
      <trkpt lat="42.59005" lon="1.98065">
        <ele>2067.6000976562</ele>
        <time>2023-07-19T08:13:32.000Z</time>
      </trkpt>
      <trkpt lat="42.59007" lon="1.9806">
        <ele>2067.1999511719</ele>
        <time>2023-07-19T08:13:39.000Z</time>
      </trkpt>
      <trkpt lat="42.59009" lon="1.98053">
        <ele>2067.1999511719</ele>
        <time>2023-07-19T08:13:45.000Z</time>
      </trkpt>
      <trkpt lat="42.59013" lon="1.98045">
        <ele>2067.1999511719</ele>
        <time>2023-07-19T08:13:52.000Z</time>
      </trkpt>
      <trkpt lat="42.59017" lon="1.9804">
        <ele>2067</ele>
        <time>2023-07-19T08:14:00.000Z</time>
      </trkpt>
      <trkpt lat="42.59018" lon="1.98039">
        <ele>2066.6000976562</ele>
        <time>2023-07-19T08:14:01.000Z</time>
      </trkpt>
      <trkpt lat="42.59022" lon="1.98032">
        <ele>2066.1999511719</ele>
        <time>2023-07-19T08:14:08.000Z</time>
      </trkpt>
      <trkpt lat="42.59027" lon="1.98027">
        <ele>2066.3999023438</ele>
        <time>2023-07-19T08:14:14.000Z</time>
      </trkpt>
      <trkpt lat="42.5903" lon="1.98019">
        <ele>2066</ele>
        <time>2023-07-19T08:14:22.000Z</time>
      </trkpt>
      <trkpt lat="42.59034" lon="1.98006">
        <ele>2066.1999511719</ele>
        <time>2023-07-19T08:14:29.000Z</time>
      </trkpt>
      <trkpt lat="42.59037" lon="1.97998">
        <ele>2066.3999023438</ele>
        <time>2023-07-19T08:14:36.000Z</time>
      </trkpt>
      <trkpt lat="42.59034" lon="1.97991">
        <ele>2066.6000976562</ele>
        <time>2023-07-19T08:14:40.000Z</time>
      </trkpt>
      <trkpt lat="42.59034" lon="1.9799">
        <ele>2066.6000976562</ele>
        <time>2023-07-19T08:14:41.000Z</time>
      </trkpt>
      <trkpt lat="42.59034" lon="1.97983">
        <ele>2066.1999511719</ele>
        <time>2023-07-19T08:14:47.000Z</time>
      </trkpt>
      <trkpt lat="42.59036" lon="1.97976">
        <ele>2066.1999511719</ele>
        <time>2023-07-19T08:14:54.000Z</time>
      </trkpt>
      <trkpt lat="42.5904" lon="1.97971">
        <ele>2066</ele>
        <time>2023-07-19T08:15:00.000Z</time>
      </trkpt>
      <trkpt lat="42.59045" lon="1.97966">
        <ele>2066.6000976562</ele>
        <time>2023-07-19T08:15:07.000Z</time>
      </trkpt>
      <trkpt lat="42.59042" lon="1.97963">
        <ele>2067.3999023438</ele>
        <time>2023-07-19T08:15:12.000Z</time>
      </trkpt>
      <trkpt lat="42.59042" lon="1.97962">
        <ele>2067.3999023438</ele>
        <time>2023-07-19T08:15:14.000Z</time>
      </trkpt>
      <trkpt lat="42.5904" lon="1.97958">
        <ele>2066.6000976562</ele>
        <time>2023-07-19T08:15:20.000Z</time>
      </trkpt>
      <trkpt lat="42.59039" lon="1.97956">
        <ele>2066.6000976562</ele>
        <time>2023-07-19T08:15:26.000Z</time>
      </trkpt>
      <trkpt lat="42.59039" lon="1.97955">
        <ele>2066.6000976562</ele>
        <time>2023-07-19T08:15:33.000Z</time>
      </trkpt>
      <trkpt lat="42.59039" lon="1.97957">
        <ele>2066.6000976562</ele>
        <time>2023-07-19T08:15:42.000Z</time>
      </trkpt>
      <trkpt lat="42.5904" lon="1.9796">
        <ele>2066.8000488281</ele>
        <time>2023-07-19T08:15:51.000Z</time>
      </trkpt>
      <trkpt lat="42.59039" lon="1.97956">
        <ele>2067</ele>
        <time>2023-07-19T08:15:59.000Z</time>
      </trkpt>
      <trkpt lat="42.59041" lon="1.97955">
        <ele>2067.1999511719</ele>
        <time>2023-07-19T08:16:07.000Z</time>
      </trkpt>
      <trkpt lat="42.59046" lon="1.97947">
        <ele>2066.8000488281</ele>
        <time>2023-07-19T08:16:13.000Z</time>
      </trkpt>
      <trkpt lat="42.59049" lon="1.9794">
        <ele>2067.1999511719</ele>
        <time>2023-07-19T08:16:19.000Z</time>
      </trkpt>
      <trkpt lat="42.59049" lon="1.97934">
        <ele>2067.8000488281</ele>
        <time>2023-07-19T08:16:23.000Z</time>
      </trkpt>
      <trkpt lat="42.5905" lon="1.9793">
        <ele>2068</ele>
        <time>2023-07-19T08:16:26.000Z</time>
      </trkpt>
      <trkpt lat="42.59051" lon="1.97921">
        <ele>2068.8000488281</ele>
        <time>2023-07-19T08:16:33.000Z</time>
      </trkpt>
      <trkpt lat="42.59051" lon="1.9792">
        <ele>2068.8000488281</ele>
        <time>2023-07-19T08:16:34.000Z</time>
      </trkpt>
      <trkpt lat="42.59055" lon="1.97903">
        <ele>2069.1999511719</ele>
        <time>2023-07-19T08:16:44.000Z</time>
      </trkpt>
      <trkpt lat="42.59057" lon="1.97894">
        <ele>2069.1999511719</ele>
        <time>2023-07-19T08:16:51.000Z</time>
      </trkpt>
      <trkpt lat="42.5906" lon="1.97881">
        <ele>2069.3999023438</ele>
        <time>2023-07-19T08:16:59.000Z</time>
      </trkpt>
      <trkpt lat="42.59067" lon="1.97868">
        <ele>2070</ele>
        <time>2023-07-19T08:17:08.000Z</time>
      </trkpt>
      <trkpt lat="42.59075" lon="1.9786">
        <ele>2069.6000976562</ele>
        <time>2023-07-19T08:17:17.000Z</time>
      </trkpt>
      <trkpt lat="42.59079" lon="1.97855">
        <ele>2069.3999023438</ele>
        <time>2023-07-19T08:17:23.000Z</time>
      </trkpt>
      <trkpt lat="42.59084" lon="1.9784">
        <ele>2069.8000488281</ele>
        <time>2023-07-19T08:17:32.000Z</time>
      </trkpt>
      <trkpt lat="42.59086" lon="1.97829">
        <ele>2069.6000976562</ele>
        <time>2023-07-19T08:17:39.000Z</time>
      </trkpt>
      <trkpt lat="42.59091" lon="1.97823">
        <ele>2070</ele>
        <time>2023-07-19T08:17:45.000Z</time>
      </trkpt>
      <trkpt lat="42.59094" lon="1.9782">
        <ele>2069.6000976562</ele>
        <time>2023-07-19T08:17:50.000Z</time>
      </trkpt>
      <trkpt lat="42.59102" lon="1.97812">
        <ele>2069.8000488281</ele>
        <time>2023-07-19T08:17:57.000Z</time>
      </trkpt>
      <trkpt lat="42.59107" lon="1.97801">
        <ele>2070.3999023438</ele>
        <time>2023-07-19T08:18:04.000Z</time>
      </trkpt>
      <trkpt lat="42.59113" lon="1.97792">
        <ele>2070.3999023438</ele>
        <time>2023-07-19T08:18:11.000Z</time>
      </trkpt>
      <trkpt lat="42.59119" lon="1.97784">
        <ele>2070.3999023438</ele>
        <time>2023-07-19T08:18:18.000Z</time>
      </trkpt>
      <trkpt lat="42.59124" lon="1.97774">
        <ele>2070.8000488281</ele>
        <time>2023-07-19T08:18:27.000Z</time>
      </trkpt>
      <trkpt lat="42.59127" lon="1.97767">
        <ele>2070.6000976562</ele>
        <time>2023-07-19T08:18:32.000Z</time>
      </trkpt>
      <trkpt lat="42.59127" lon="1.97767">
        <ele>2071</ele>
        <time>2023-07-19T08:18:37.000Z</time>
      </trkpt>
      <trkpt lat="42.59127" lon="1.97766">
        <ele>2071</ele>
        <time>2023-07-19T08:18:38.000Z</time>
      </trkpt>
      <trkpt lat="42.59126" lon="1.97765">
        <ele>2071</ele>
        <time>2023-07-19T08:18:43.000Z</time>
      </trkpt>
      <trkpt lat="42.59126" lon="1.97765">
        <ele>2070.8000488281</ele>
        <time>2023-07-19T08:18:47.000Z</time>
      </trkpt>
      <trkpt lat="42.59129" lon="1.97763">
        <ele>2070.3999023438</ele>
        <time>2023-07-19T08:18:57.000Z</time>
      </trkpt>
      <trkpt lat="42.59133" lon="1.97755">
        <ele>2070.8000488281</ele>
        <time>2023-07-19T08:19:03.000Z</time>
      </trkpt>
      <trkpt lat="42.59137" lon="1.97748">
        <ele>2071.3999023438</ele>
        <time>2023-07-19T08:19:09.000Z</time>
      </trkpt>
      <trkpt lat="42.59144" lon="1.9774">
        <ele>2071.8000488281</ele>
        <time>2023-07-19T08:19:16.000Z</time>
      </trkpt>
      <trkpt lat="42.59148" lon="1.97738">
        <ele>2072.3999023438</ele>
        <time>2023-07-19T08:19:20.000Z</time>
      </trkpt>
      <trkpt lat="42.59151" lon="1.97736">
        <ele>2072.6000976562</ele>
        <time>2023-07-19T08:19:22.000Z</time>
      </trkpt>
      <trkpt lat="42.59155" lon="1.9773">
        <ele>2072.8000488281</ele>
        <time>2023-07-19T08:19:29.000Z</time>
      </trkpt>
      <trkpt lat="42.59157" lon="1.97729">
        <ele>2073.1999511719</ele>
        <time>2023-07-19T08:19:34.000Z</time>
      </trkpt>
      <trkpt lat="42.5916" lon="1.97722">
        <ele>2073.1999511719</ele>
        <time>2023-07-19T08:19:40.000Z</time>
      </trkpt>
      <trkpt lat="42.59163" lon="1.97718">
        <ele>2073.6000976562</ele>
        <time>2023-07-19T08:19:42.000Z</time>
      </trkpt>
      <trkpt lat="42.59164" lon="1.97712">
        <ele>2074</ele>
        <time>2023-07-19T08:19:47.000Z</time>
      </trkpt>
      <trkpt lat="42.59169" lon="1.97701">
        <ele>2073.1999511719</ele>
        <time>2023-07-19T08:19:56.000Z</time>
      </trkpt>
      <trkpt lat="42.59178" lon="1.97691">
        <ele>2073.3999023438</ele>
        <time>2023-07-19T08:20:05.000Z</time>
      </trkpt>
      <trkpt lat="42.5918" lon="1.9769">
        <ele>2073.6000976562</ele>
        <time>2023-07-19T08:20:09.000Z</time>
      </trkpt>
      <trkpt lat="42.5918" lon="1.9769">
        <ele>2073.8000488281</ele>
        <time>2023-07-19T08:20:11.000Z</time>
      </trkpt>
      <trkpt lat="42.5918" lon="1.9769">
        <ele>2073.8000488281</ele>
        <time>2023-07-19T08:20:20.000Z</time>
      </trkpt>
      <trkpt lat="42.59181" lon="1.97684">
        <ele>2074</ele>
        <time>2023-07-19T08:20:29.000Z</time>
      </trkpt>
      <trkpt lat="42.5919" lon="1.97675">
        <ele>2074</ele>
        <time>2023-07-19T08:20:38.000Z</time>
      </trkpt>
      <trkpt lat="42.59196" lon="1.97673">
        <ele>2074.6000976562</ele>
        <time>2023-07-19T08:20:44.000Z</time>
      </trkpt>
      <trkpt lat="42.59198" lon="1.97673">
        <ele>2075</ele>
        <time>2023-07-19T08:20:46.000Z</time>
      </trkpt>
      <trkpt lat="42.592" lon="1.97671">
        <ele>2075.8000488281</ele>
        <time>2023-07-19T08:20:50.000Z</time>
      </trkpt>
      <trkpt lat="42.59202" lon="1.97667">
        <ele>2076.1999511719</ele>
        <time>2023-07-19T08:20:54.000Z</time>
      </trkpt>
      <trkpt lat="42.59203" lon="1.97664">
        <ele>2076.8000488281</ele>
        <time>2023-07-19T08:20:57.000Z</time>
      </trkpt>
      <trkpt lat="42.59207" lon="1.97658">
        <ele>2077.6000976562</ele>
        <time>2023-07-19T08:21:03.000Z</time>
      </trkpt>
      <trkpt lat="42.59207" lon="1.97657">
        <ele>2077.8000488281</ele>
        <time>2023-07-19T08:21:04.000Z</time>
      </trkpt>
      <trkpt lat="42.5921" lon="1.9765">
        <ele>2078.1999511719</ele>
        <time>2023-07-19T08:21:10.000Z</time>
      </trkpt>
      <trkpt lat="42.59212" lon="1.97643">
        <ele>2077.3999023438</ele>
        <time>2023-07-19T08:21:16.000Z</time>
      </trkpt>
      <trkpt lat="42.59214" lon="1.97633">
        <ele>2077.3999023438</ele>
        <time>2023-07-19T08:21:23.000Z</time>
      </trkpt>
      <trkpt lat="42.59218" lon="1.97618">
        <ele>2077.8000488281</ele>
        <time>2023-07-19T08:21:32.000Z</time>
      </trkpt>
      <trkpt lat="42.5922" lon="1.97613">
        <ele>2079</ele>
        <time>2023-07-19T08:21:39.000Z</time>
      </trkpt>
      <trkpt lat="42.59223" lon="1.97606">
        <ele>2079.1999511719</ele>
        <time>2023-07-19T08:21:43.000Z</time>
      </trkpt>
      <trkpt lat="42.59225" lon="1.97594">
        <ele>2080</ele>
        <time>2023-07-19T08:21:49.000Z</time>
      </trkpt>
      <trkpt lat="42.59227" lon="1.97583">
        <ele>2079.1999511719</ele>
        <time>2023-07-19T08:21:58.000Z</time>
      </trkpt>
      <trkpt lat="42.59233" lon="1.97568">
        <ele>2078.6000976562</ele>
        <time>2023-07-19T08:22:08.000Z</time>
      </trkpt>
      <trkpt lat="42.59234" lon="1.97558">
        <ele>2080</ele>
        <time>2023-07-19T08:22:13.000Z</time>
      </trkpt>
      <trkpt lat="42.59234" lon="1.97549">
        <ele>2080.8000488281</ele>
        <time>2023-07-19T08:22:18.000Z</time>
      </trkpt>
      <trkpt lat="42.59235" lon="1.97546">
        <ele>2081.1999511719</ele>
        <time>2023-07-19T08:22:20.000Z</time>
      </trkpt>
      <trkpt lat="42.59237" lon="1.97534">
        <ele>2082</ele>
        <time>2023-07-19T08:22:28.000Z</time>
      </trkpt>
      <trkpt lat="42.59238" lon="1.97526">
        <ele>2082.3999023438</ele>
        <time>2023-07-19T08:22:33.000Z</time>
      </trkpt>
      <trkpt lat="42.59238" lon="1.9752">
        <ele>2082.6000976562</ele>
        <time>2023-07-19T08:22:36.000Z</time>
      </trkpt>
      <trkpt lat="42.59237" lon="1.97507">
        <ele>2082</ele>
        <time>2023-07-19T08:22:45.000Z</time>
      </trkpt>
      <trkpt lat="42.59237" lon="1.97498">
        <ele>2081.1999511719</ele>
        <time>2023-07-19T08:22:51.000Z</time>
      </trkpt>
      <trkpt lat="42.59238" lon="1.97496">
        <ele>2080.8000488281</ele>
        <time>2023-07-19T08:22:53.000Z</time>
      </trkpt>
      <trkpt lat="42.59241" lon="1.97487">
        <ele>2081.1999511719</ele>
        <time>2023-07-19T08:23:01.000Z</time>
      </trkpt>
      <trkpt lat="42.59242" lon="1.97482">
        <ele>2082.3999023438</ele>
        <time>2023-07-19T08:23:04.000Z</time>
      </trkpt>
      <trkpt lat="42.59244" lon="1.97477">
        <ele>2082.8000488281</ele>
        <time>2023-07-19T08:23:08.000Z</time>
      </trkpt>
      <trkpt lat="42.59248" lon="1.97467">
        <ele>2083.1999511719</ele>
        <time>2023-07-19T08:23:15.000Z</time>
      </trkpt>
      <trkpt lat="42.59252" lon="1.97457">
        <ele>2083.3999023438</ele>
        <time>2023-07-19T08:23:22.000Z</time>
      </trkpt>
      <trkpt lat="42.59252" lon="1.97456">
        <ele>2083.6000976562</ele>
        <time>2023-07-19T08:23:23.000Z</time>
      </trkpt>
      <trkpt lat="42.59257" lon="1.97444">
        <ele>2084</ele>
        <time>2023-07-19T08:23:31.000Z</time>
      </trkpt>
      <trkpt lat="42.59258" lon="1.97441">
        <ele>2084.6000976562</ele>
        <time>2023-07-19T08:23:34.000Z</time>
      </trkpt>
      <trkpt lat="42.59262" lon="1.97431">
        <ele>2084.6000976562</ele>
        <time>2023-07-19T08:23:40.000Z</time>
      </trkpt>
      <trkpt lat="42.59266" lon="1.9742">
        <ele>2084.3999023438</ele>
        <time>2023-07-19T08:23:49.000Z</time>
      </trkpt>
      <trkpt lat="42.59269" lon="1.97409">
        <ele>2085.3999023438</ele>
        <time>2023-07-19T08:23:58.000Z</time>
      </trkpt>
      <trkpt lat="42.5927" lon="1.97408">
        <ele>2085.6000976562</ele>
        <time>2023-07-19T08:23:59.000Z</time>
      </trkpt>
      <trkpt lat="42.59271" lon="1.97402">
        <ele>2086.6000976562</ele>
        <time>2023-07-19T08:24:03.000Z</time>
      </trkpt>
      <trkpt lat="42.59271" lon="1.97399">
        <ele>2087</ele>
        <time>2023-07-19T08:24:05.000Z</time>
      </trkpt>
      <trkpt lat="42.59274" lon="1.97387">
        <ele>2087.3999023438</ele>
        <time>2023-07-19T08:24:14.000Z</time>
      </trkpt>
      <trkpt lat="42.59276" lon="1.97377">
        <ele>2087.6000976562</ele>
        <time>2023-07-19T08:24:22.000Z</time>
      </trkpt>
      <trkpt lat="42.59277" lon="1.97376">
        <ele>2087.6000976562</ele>
        <time>2023-07-19T08:24:23.000Z</time>
      </trkpt>
      <trkpt lat="42.59281" lon="1.9737">
        <ele>2088</ele>
        <time>2023-07-19T08:24:29.000Z</time>
      </trkpt>
      <trkpt lat="42.59284" lon="1.97364">
        <ele>2088.6000976562</ele>
        <time>2023-07-19T08:24:35.000Z</time>
      </trkpt>
      <trkpt lat="42.59285" lon="1.97363">
        <ele>2088.8000488281</ele>
        <time>2023-07-19T08:24:36.000Z</time>
      </trkpt>
      <trkpt lat="42.59285" lon="1.97358">
        <ele>2089.1999511719</ele>
        <time>2023-07-19T08:24:41.000Z</time>
      </trkpt>
      <trkpt lat="42.59289" lon="1.97345">
        <ele>2089.3999023438</ele>
        <time>2023-07-19T08:24:50.000Z</time>
      </trkpt>
      <trkpt lat="42.5929" lon="1.97342">
        <ele>2089.8000488281</ele>
        <time>2023-07-19T08:24:52.000Z</time>
      </trkpt>
      <trkpt lat="42.59293" lon="1.97333">
        <ele>2090.3999023438</ele>
        <time>2023-07-19T08:24:58.000Z</time>
      </trkpt>
      <trkpt lat="42.59296" lon="1.97326">
        <ele>2090.8000488281</ele>
        <time>2023-07-19T08:25:05.000Z</time>
      </trkpt>
      <trkpt lat="42.59296" lon="1.97325">
        <ele>2090.8000488281</ele>
        <time>2023-07-19T08:25:06.000Z</time>
      </trkpt>
      <trkpt lat="42.59296" lon="1.97319">
        <ele>2091</ele>
        <time>2023-07-19T08:25:12.000Z</time>
      </trkpt>
      <trkpt lat="42.59301" lon="1.97307">
        <ele>2090.8000488281</ele>
        <time>2023-07-19T08:25:22.000Z</time>
      </trkpt>
      <trkpt lat="42.59305" lon="1.97298">
        <ele>2091.6000976562</ele>
        <time>2023-07-19T08:25:29.000Z</time>
      </trkpt>
      <trkpt lat="42.59306" lon="1.97296">
        <ele>2091.8000488281</ele>
        <time>2023-07-19T08:25:31.000Z</time>
      </trkpt>
      <trkpt lat="42.5931" lon="1.97292">
        <ele>2092.3999023438</ele>
        <time>2023-07-19T08:25:36.000Z</time>
      </trkpt>
      <trkpt lat="42.59311" lon="1.97289">
        <ele>2093</ele>
        <time>2023-07-19T08:25:40.000Z</time>
      </trkpt>
      <trkpt lat="42.59312" lon="1.97287">
        <ele>2093.3999023438</ele>
        <time>2023-07-19T08:25:42.000Z</time>
      </trkpt>
      <trkpt lat="42.59314" lon="1.97283">
        <ele>2094.1999511719</ele>
        <time>2023-07-19T08:25:46.000Z</time>
      </trkpt>
      <trkpt lat="42.59316" lon="1.9728">
        <ele>2094.3999023438</ele>
        <time>2023-07-19T08:25:49.000Z</time>
      </trkpt>
      <trkpt lat="42.5932" lon="1.97268">
        <ele>2094.3999023438</ele>
        <time>2023-07-19T08:25:57.000Z</time>
      </trkpt>
      <trkpt lat="42.59325" lon="1.97256">
        <ele>2094.6000976562</ele>
        <time>2023-07-19T08:26:06.000Z</time>
      </trkpt>
      <trkpt lat="42.59328" lon="1.97246">
        <ele>2095.1999511719</ele>
        <time>2023-07-19T08:26:13.000Z</time>
      </trkpt>
      <trkpt lat="42.59329" lon="1.97245">
        <ele>2095.3999023438</ele>
        <time>2023-07-19T08:26:15.000Z</time>
      </trkpt>
      <trkpt lat="42.59334" lon="1.97236">
        <ele>2096</ele>
        <time>2023-07-19T08:26:23.000Z</time>
      </trkpt>
      <trkpt lat="42.59335" lon="1.97232">
        <ele>2096.1999511719</ele>
        <time>2023-07-19T08:26:26.000Z</time>
      </trkpt>
      <trkpt lat="42.59335" lon="1.97227">
        <ele>2096.8000488281</ele>
        <time>2023-07-19T08:26:30.000Z</time>
      </trkpt>
      <trkpt lat="42.59338" lon="1.97214">
        <ele>2097.1999511719</ele>
        <time>2023-07-19T08:26:38.000Z</time>
      </trkpt>
      <trkpt lat="42.59338" lon="1.97212">
        <ele>2097.1999511719</ele>
        <time>2023-07-19T08:26:39.000Z</time>
      </trkpt>
      <trkpt lat="42.59341" lon="1.97202">
        <ele>2098.3999023438</ele>
        <time>2023-07-19T08:26:46.000Z</time>
      </trkpt>
      <trkpt lat="42.59341" lon="1.97202">
        <ele>2098.3999023438</ele>
        <time>2023-07-19T08:26:47.000Z</time>
      </trkpt>
      <trkpt lat="42.59342" lon="1.97196">
        <ele>2098.8000488281</ele>
        <time>2023-07-19T08:26:54.000Z</time>
      </trkpt>
      <trkpt lat="42.59345" lon="1.97188">
        <ele>2099.1999511719</ele>
        <time>2023-07-19T08:27:03.000Z</time>
      </trkpt>
      <trkpt lat="42.59346" lon="1.97181">
        <ele>2099.6000976562</ele>
        <time>2023-07-19T08:27:08.000Z</time>
      </trkpt>
      <trkpt lat="42.59347" lon="1.97178">
        <ele>2099.8000488281</ele>
        <time>2023-07-19T08:27:11.000Z</time>
      </trkpt>
      <trkpt lat="42.59347" lon="1.9717">
        <ele>2099.8000488281</ele>
        <time>2023-07-19T08:27:19.000Z</time>
      </trkpt>
      <trkpt lat="42.59345" lon="1.97162">
        <ele>2098.8000488281</ele>
        <time>2023-07-19T08:27:27.000Z</time>
      </trkpt>
      <trkpt lat="42.59346" lon="1.97157">
        <ele>2099</ele>
        <time>2023-07-19T08:27:34.000Z</time>
      </trkpt>
      <trkpt lat="42.59348" lon="1.97149">
        <ele>2100.1999511719</ele>
        <time>2023-07-19T08:27:43.000Z</time>
      </trkpt>
      <trkpt lat="42.59349" lon="1.97145">
        <ele>2100.6000976562</ele>
        <time>2023-07-19T08:27:46.000Z</time>
      </trkpt>
      <trkpt lat="42.5935" lon="1.97139">
        <ele>2101.6000976562</ele>
        <time>2023-07-19T08:27:51.000Z</time>
      </trkpt>
      <trkpt lat="42.59353" lon="1.97132">
        <ele>2102.6000976562</ele>
        <time>2023-07-19T08:27:57.000Z</time>
      </trkpt>
      <trkpt lat="42.59353" lon="1.97131">
        <ele>2102.8000488281</ele>
        <time>2023-07-19T08:27:58.000Z</time>
      </trkpt>
      <trkpt lat="42.59356" lon="1.97127">
        <ele>2103.3999023438</ele>
        <time>2023-07-19T08:28:04.000Z</time>
      </trkpt>
      <trkpt lat="42.59355" lon="1.97125">
        <ele>2103.8000488281</ele>
        <time>2023-07-19T08:28:08.000Z</time>
      </trkpt>
      <trkpt lat="42.59354" lon="1.97125">
        <ele>2104</ele>
        <time>2023-07-19T08:28:11.000Z</time>
      </trkpt>
      <trkpt lat="42.59353" lon="1.97124">
        <ele>2104</ele>
        <time>2023-07-19T08:28:19.000Z</time>
      </trkpt>
      <trkpt lat="42.59355" lon="1.97128">
        <ele>2104.3999023438</ele>
        <time>2023-07-19T08:28:27.000Z</time>
      </trkpt>
      <trkpt lat="42.59355" lon="1.97128">
        <ele>2104.1999511719</ele>
        <time>2023-07-19T08:28:38.000Z</time>
      </trkpt>
      <trkpt lat="42.59354" lon="1.97125">
        <ele>2104.1999511719</ele>
        <time>2023-07-19T08:28:51.000Z</time>
      </trkpt>
      <trkpt lat="42.59354" lon="1.97124">
        <ele>2104</ele>
        <time>2023-07-19T08:29:14.000Z</time>
      </trkpt>
      <trkpt lat="42.59354" lon="1.97121">
        <ele>2104.3999023438</ele>
        <time>2023-07-19T08:29:21.000Z</time>
      </trkpt>
      <trkpt lat="42.59354" lon="1.97121">
        <ele>2104.8000488281</ele>
        <time>2023-07-19T08:29:24.000Z</time>
      </trkpt>
      <trkpt lat="42.59352" lon="1.97116">
        <ele>2104.6000976562</ele>
        <time>2023-07-19T08:29:29.000Z</time>
      </trkpt>
      <trkpt lat="42.59352" lon="1.97107">
        <ele>2104.8000488281</ele>
        <time>2023-07-19T08:29:37.000Z</time>
      </trkpt>
      <trkpt lat="42.59353" lon="1.97098">
        <ele>2105</ele>
        <time>2023-07-19T08:29:45.000Z</time>
      </trkpt>
      <trkpt lat="42.59359" lon="1.97089">
        <ele>2105.3999023438</ele>
        <time>2023-07-19T08:29:53.000Z</time>
      </trkpt>
      <trkpt lat="42.59357" lon="1.97084">
        <ele>2105.8000488281</ele>
        <time>2023-07-19T08:29:57.000Z</time>
      </trkpt>
      <trkpt lat="42.59355" lon="1.97081">
        <ele>2106.3999023438</ele>
        <time>2023-07-19T08:30:00.000Z</time>
      </trkpt>
      <trkpt lat="42.59355" lon="1.97079">
        <ele>2106.8000488281</ele>
        <time>2023-07-19T08:30:02.000Z</time>
      </trkpt>
      <trkpt lat="42.59355" lon="1.97073">
        <ele>2108</ele>
        <time>2023-07-19T08:30:07.000Z</time>
      </trkpt>
      <trkpt lat="42.59355" lon="1.97064">
        <ele>2109</ele>
        <time>2023-07-19T08:30:15.000Z</time>
      </trkpt>
      <trkpt lat="42.59354" lon="1.97057">
        <ele>2110</ele>
        <time>2023-07-19T08:30:21.000Z</time>
      </trkpt>
      <trkpt lat="42.59353" lon="1.97056">
        <ele>2110.1999511719</ele>
        <time>2023-07-19T08:30:22.000Z</time>
      </trkpt>
      <trkpt lat="42.59352" lon="1.97054">
        <ele>2111.1999511719</ele>
        <time>2023-07-19T08:30:27.000Z</time>
      </trkpt>
      <trkpt lat="42.59352" lon="1.97054">
        <ele>2111.3999023438</ele>
        <time>2023-07-19T08:30:31.000Z</time>
      </trkpt>
      <trkpt lat="42.59351" lon="1.97054">
        <ele>2111.6000976562</ele>
        <time>2023-07-19T08:30:39.000Z</time>
      </trkpt>
      <trkpt lat="42.59352" lon="1.97054">
        <ele>2112</ele>
        <time>2023-07-19T08:30:46.000Z</time>
      </trkpt>
      <trkpt lat="42.59351" lon="1.97051">
        <ele>2112</ele>
        <time>2023-07-19T08:30:53.000Z</time>
      </trkpt>
      <trkpt lat="42.59352" lon="1.9705">
        <ele>2112</ele>
        <time>2023-07-19T08:31:02.000Z</time>
      </trkpt>
      <trkpt lat="42.59354" lon="1.9705">
        <ele>2112.1999511719</ele>
        <time>2023-07-19T08:31:05.000Z</time>
      </trkpt>
      <trkpt lat="42.59355" lon="1.9705">
        <ele>2112.1999511719</ele>
        <time>2023-07-19T08:31:13.000Z</time>
      </trkpt>
      <trkpt lat="42.59355" lon="1.97051">
        <ele>2112.1999511719</ele>
        <time>2023-07-19T08:31:23.000Z</time>
      </trkpt>
      <trkpt lat="42.59356" lon="1.97051">
        <ele>2112</ele>
        <time>2023-07-19T08:31:33.000Z</time>
      </trkpt>
      <trkpt lat="42.59358" lon="1.97052">
        <ele>2112.1999511719</ele>
        <time>2023-07-19T08:31:41.000Z</time>
      </trkpt>
      <trkpt lat="42.59356" lon="1.97051">
        <ele>2112.3999023438</ele>
        <time>2023-07-19T08:31:48.000Z</time>
      </trkpt>
      <trkpt lat="42.59359" lon="1.97044">
        <ele>2112.8000488281</ele>
        <time>2023-07-19T08:31:58.000Z</time>
      </trkpt>
      <trkpt lat="42.59361" lon="1.97037">
        <ele>2112.6000976562</ele>
        <time>2023-07-19T08:32:05.000Z</time>
      </trkpt>
      <trkpt lat="42.59364" lon="1.97029">
        <ele>2112.8000488281</ele>
        <time>2023-07-19T08:32:12.000Z</time>
      </trkpt>
      <trkpt lat="42.59364" lon="1.97025">
        <ele>2113.1999511719</ele>
        <time>2023-07-19T08:32:14.000Z</time>
      </trkpt>
      <trkpt lat="42.59366" lon="1.9702">
        <ele>2114.3999023438</ele>
        <time>2023-07-19T08:32:19.000Z</time>
      </trkpt>
      <trkpt lat="42.59367" lon="1.97017">
        <ele>2114.3999023438</ele>
        <time>2023-07-19T08:32:21.000Z</time>
      </trkpt>
      <trkpt lat="42.59368" lon="1.97009">
        <ele>2115.1999511719</ele>
        <time>2023-07-19T08:32:28.000Z</time>
      </trkpt>
      <trkpt lat="42.59368" lon="1.97006">
        <ele>2115.6000976562</ele>
        <time>2023-07-19T08:32:30.000Z</time>
      </trkpt>
      <trkpt lat="42.59367" lon="1.97001">
        <ele>2116.6000976562</ele>
        <time>2023-07-19T08:32:36.000Z</time>
      </trkpt>
      <trkpt lat="42.59369" lon="1.96992">
        <ele>2116.8000488281</ele>
        <time>2023-07-19T08:32:43.000Z</time>
      </trkpt>
      <trkpt lat="42.5937" lon="1.96984">
        <ele>2117.1999511719</ele>
        <time>2023-07-19T08:32:51.000Z</time>
      </trkpt>
      <trkpt lat="42.59371" lon="1.96973">
        <ele>2116.8000488281</ele>
        <time>2023-07-19T08:32:58.000Z</time>
      </trkpt>
      <trkpt lat="42.59373" lon="1.96964">
        <ele>2117.3999023438</ele>
        <time>2023-07-19T08:33:05.000Z</time>
      </trkpt>
      <trkpt lat="42.59374" lon="1.9696">
        <ele>2117.6000976562</ele>
        <time>2023-07-19T08:33:08.000Z</time>
      </trkpt>
      <trkpt lat="42.59377" lon="1.96956">
        <ele>2117.8000488281</ele>
        <time>2023-07-19T08:33:12.000Z</time>
      </trkpt>
      <trkpt lat="42.59379" lon="1.96949">
        <ele>2118</ele>
        <time>2023-07-19T08:33:19.000Z</time>
      </trkpt>
      <trkpt lat="42.59384" lon="1.96943">
        <ele>2117.8000488281</ele>
        <time>2023-07-19T08:33:26.000Z</time>
      </trkpt>
      <trkpt lat="42.59388" lon="1.9694">
        <ele>2118.6000976562</ele>
        <time>2023-07-19T08:33:32.000Z</time>
      </trkpt>
      <trkpt lat="42.5939" lon="1.96939">
        <ele>2119</ele>
        <time>2023-07-19T08:33:34.000Z</time>
      </trkpt>
      <trkpt lat="42.59395" lon="1.96938">
        <ele>2119.6000976562</ele>
        <time>2023-07-19T08:33:39.000Z</time>
      </trkpt>
      <trkpt lat="42.59396" lon="1.96936">
        <ele>2120.3999023438</ele>
        <time>2023-07-19T08:33:42.000Z</time>
      </trkpt>
      <trkpt lat="42.59396" lon="1.96935">
        <ele>2120.3999023438</ele>
        <time>2023-07-19T08:33:43.000Z</time>
      </trkpt>
      <trkpt lat="42.59396" lon="1.96932">
        <ele>2120.8000488281</ele>
        <time>2023-07-19T08:33:45.000Z</time>
      </trkpt>
      <trkpt lat="42.59398" lon="1.96926">
        <ele>2121.1999511719</ele>
        <time>2023-07-19T08:33:49.000Z</time>
      </trkpt>
      <trkpt lat="42.59402" lon="1.96918">
        <ele>2121.3999023438</ele>
        <time>2023-07-19T08:33:56.000Z</time>
      </trkpt>
      <trkpt lat="42.59404" lon="1.96909">
        <ele>2121.6000976562</ele>
        <time>2023-07-19T08:34:02.000Z</time>
      </trkpt>
      <trkpt lat="42.59404" lon="1.96908">
        <ele>2122</ele>
        <time>2023-07-19T08:34:03.000Z</time>
      </trkpt>
      <trkpt lat="42.59407" lon="1.96902">
        <ele>2122.6000976562</ele>
        <time>2023-07-19T08:34:09.000Z</time>
      </trkpt>
      <trkpt lat="42.59411" lon="1.96891">
        <ele>2123</ele>
        <time>2023-07-19T08:34:17.000Z</time>
      </trkpt>
      <trkpt lat="42.59412" lon="1.96887">
        <ele>2123</ele>
        <time>2023-07-19T08:34:21.000Z</time>
      </trkpt>
      <trkpt lat="42.59414" lon="1.96883">
        <ele>2123.3999023438</ele>
        <time>2023-07-19T08:34:25.000Z</time>
      </trkpt>
      <trkpt lat="42.59418" lon="1.96878">
        <ele>2124</ele>
        <time>2023-07-19T08:34:32.000Z</time>
      </trkpt>
      <trkpt lat="42.59418" lon="1.96876">
        <ele>2124.1999511719</ele>
        <time>2023-07-19T08:34:34.000Z</time>
      </trkpt>
      <trkpt lat="42.59419" lon="1.96864">
        <ele>2124.8000488281</ele>
        <time>2023-07-19T08:34:41.000Z</time>
      </trkpt>
      <trkpt lat="42.59419" lon="1.9686">
        <ele>2125</ele>
        <time>2023-07-19T08:34:44.000Z</time>
      </trkpt>
      <trkpt lat="42.59421" lon="1.96852">
        <ele>2125.1999511719</ele>
        <time>2023-07-19T08:34:49.000Z</time>
      </trkpt>
      <trkpt lat="42.59422" lon="1.9684">
        <ele>2125.1999511719</ele>
        <time>2023-07-19T08:34:56.000Z</time>
      </trkpt>
      <trkpt lat="42.59425" lon="1.96828">
        <ele>2125.3999023438</ele>
        <time>2023-07-19T08:35:04.000Z</time>
      </trkpt>
      <trkpt lat="42.59427" lon="1.96815">
        <ele>2126</ele>
        <time>2023-07-19T08:35:12.000Z</time>
      </trkpt>
      <trkpt lat="42.5943" lon="1.96804">
        <ele>2127</ele>
        <time>2023-07-19T08:35:20.000Z</time>
      </trkpt>
      <trkpt lat="42.59431" lon="1.96802">
        <ele>2127.1999511719</ele>
        <time>2023-07-19T08:35:22.000Z</time>
      </trkpt>
      <trkpt lat="42.59436" lon="1.96795">
        <ele>2127.3999023438</ele>
        <time>2023-07-19T08:35:28.000Z</time>
      </trkpt>
      <trkpt lat="42.59438" lon="1.96781">
        <ele>2127.8000488281</ele>
        <time>2023-07-19T08:35:36.000Z</time>
      </trkpt>
      <trkpt lat="42.59441" lon="1.9677">
        <ele>2128</ele>
        <time>2023-07-19T08:35:44.000Z</time>
      </trkpt>
      <trkpt lat="42.59442" lon="1.96762">
        <ele>2128.1999511719</ele>
        <time>2023-07-19T08:35:51.000Z</time>
      </trkpt>
      <trkpt lat="42.59443" lon="1.96761">
        <ele>2128.3999023438</ele>
        <time>2023-07-19T08:35:52.000Z</time>
      </trkpt>
      <trkpt lat="42.59447" lon="1.96756">
        <ele>2128.8000488281</ele>
        <time>2023-07-19T08:35:59.000Z</time>
      </trkpt>
      <trkpt lat="42.59449" lon="1.96747">
        <ele>2129.3999023438</ele>
        <time>2023-07-19T08:36:06.000Z</time>
      </trkpt>
      <trkpt lat="42.59449" lon="1.96744">
        <ele>2129.8000488281</ele>
        <time>2023-07-19T08:36:08.000Z</time>
      </trkpt>
      <trkpt lat="42.59452" lon="1.96727">
        <ele>2130.1999511719</ele>
        <time>2023-07-19T08:36:20.000Z</time>
      </trkpt>
      <trkpt lat="42.59452" lon="1.96725">
        <ele>2130.3999023438</ele>
        <time>2023-07-19T08:36:21.000Z</time>
      </trkpt>
      <trkpt lat="42.59452" lon="1.96715">
        <ele>2131</ele>
        <time>2023-07-19T08:36:28.000Z</time>
      </trkpt>
      <trkpt lat="42.59452" lon="1.96711">
        <ele>2131.3999023438</ele>
        <time>2023-07-19T08:36:35.000Z</time>
      </trkpt>
      <trkpt lat="42.59453" lon="1.96712">
        <ele>2130.8000488281</ele>
        <time>2023-07-19T08:36:37.000Z</time>
      </trkpt>
      <trkpt lat="42.59454" lon="1.96712">
        <ele>2130.6000976562</ele>
        <time>2023-07-19T08:36:41.000Z</time>
      </trkpt>
      <trkpt lat="42.59454" lon="1.96712">
        <ele>2130.6000976562</ele>
        <time>2023-07-19T08:36:42.000Z</time>
      </trkpt>
      <trkpt lat="42.59451" lon="1.96712">
        <ele>2130.3999023438</ele>
        <time>2023-07-19T08:36:52.000Z</time>
      </trkpt>
      <trkpt lat="42.5945" lon="1.9671">
        <ele>2130.8000488281</ele>
        <time>2023-07-19T08:37:02.000Z</time>
      </trkpt>
      <trkpt lat="42.59448" lon="1.96701">
        <ele>2131.6000976562</ele>
        <time>2023-07-19T08:37:10.000Z</time>
      </trkpt>
      <trkpt lat="42.59441" lon="1.96694">
        <ele>2130.8000488281</ele>
        <time>2023-07-19T08:37:19.000Z</time>
      </trkpt>
      <trkpt lat="42.59441" lon="1.96693">
        <ele>2130.3999023438</ele>
        <time>2023-07-19T08:37:21.000Z</time>
      </trkpt>
      <trkpt lat="42.59441" lon="1.96688">
        <ele>2129.8000488281</ele>
        <time>2023-07-19T08:37:26.000Z</time>
      </trkpt>
      <trkpt lat="42.59441" lon="1.96685">
        <ele>2129.3999023438</ele>
        <time>2023-07-19T08:37:28.000Z</time>
      </trkpt>
      <trkpt lat="42.59442" lon="1.96677">
        <ele>2128.6000976562</ele>
        <time>2023-07-19T08:37:34.000Z</time>
      </trkpt>
      <trkpt lat="42.59446" lon="1.96673">
        <ele>2128.8000488281</ele>
        <time>2023-07-19T08:37:43.000Z</time>
      </trkpt>
      <trkpt lat="42.59449" lon="1.96674">
        <ele>2129</ele>
        <time>2023-07-19T08:37:50.000Z</time>
      </trkpt>
      <trkpt lat="42.59447" lon="1.96676">
        <ele>2129</ele>
        <time>2023-07-19T08:37:59.000Z</time>
      </trkpt>
      <trkpt lat="42.59446" lon="1.96675">
        <ele>2128.8000488281</ele>
        <time>2023-07-19T08:38:08.000Z</time>
      </trkpt>
      <trkpt lat="42.59447" lon="1.96674">
        <ele>2129</ele>
        <time>2023-07-19T08:38:16.000Z</time>
      </trkpt>
      <trkpt lat="42.59446" lon="1.96674">
        <ele>2129.1999511719</ele>
        <time>2023-07-19T08:38:25.000Z</time>
      </trkpt>
      <trkpt lat="42.59442" lon="1.96674">
        <ele>2129.1999511719</ele>
        <time>2023-07-19T08:38:34.000Z</time>
      </trkpt>
      <trkpt lat="42.59441" lon="1.96674">
        <ele>2129.1999511719</ele>
        <time>2023-07-19T08:38:42.000Z</time>
      </trkpt>
      <trkpt lat="42.59442" lon="1.96671">
        <ele>2128.6000976562</ele>
        <time>2023-07-19T08:38:53.000Z</time>
      </trkpt>
      <trkpt lat="42.59443" lon="1.96671">
        <ele>2128.6000976562</ele>
        <time>2023-07-19T08:39:00.000Z</time>
      </trkpt>
      <trkpt lat="42.59442" lon="1.96674">
        <ele>2128.8000488281</ele>
        <time>2023-07-19T08:39:09.000Z</time>
      </trkpt>
      <trkpt lat="42.59443" lon="1.96672">
        <ele>2128.6000976562</ele>
        <time>2023-07-19T08:39:17.000Z</time>
      </trkpt>
      <trkpt lat="42.59442" lon="1.96672">
        <ele>2128.3999023438</ele>
        <time>2023-07-19T08:39:19.000Z</time>
      </trkpt>
      <trkpt lat="42.59443" lon="1.96674">
        <ele>2128.6000976562</ele>
        <time>2023-07-19T08:39:25.000Z</time>
      </trkpt>
      <trkpt lat="42.59442" lon="1.96675">
        <ele>2128.8000488281</ele>
        <time>2023-07-19T08:39:34.000Z</time>
      </trkpt>
      <trkpt lat="42.59444" lon="1.96676">
        <ele>2129.1999511719</ele>
        <time>2023-07-19T08:39:40.000Z</time>
      </trkpt>
      <trkpt lat="42.59444" lon="1.96675">
        <ele>2129.6000976562</ele>
        <time>2023-07-19T08:39:42.000Z</time>
      </trkpt>
      <trkpt lat="42.59445" lon="1.96675">
        <ele>2130</ele>
        <time>2023-07-19T08:39:48.000Z</time>
      </trkpt>
      <trkpt lat="42.59447" lon="1.96676">
        <ele>2129</ele>
        <time>2023-07-19T08:39:55.000Z</time>
      </trkpt>
      <trkpt lat="42.59452" lon="1.96674">
        <ele>2129</ele>
        <time>2023-07-19T08:40:02.000Z</time>
      </trkpt>
      <trkpt lat="42.59457" lon="1.96668">
        <ele>2129.8000488281</ele>
        <time>2023-07-19T08:40:10.000Z</time>
      </trkpt>
      <trkpt lat="42.59458" lon="1.96664">
        <ele>2130.8000488281</ele>
        <time>2023-07-19T08:40:14.000Z</time>
      </trkpt>
      <trkpt lat="42.59459" lon="1.96661">
        <ele>2131.6000976562</ele>
        <time>2023-07-19T08:40:18.000Z</time>
      </trkpt>
      <trkpt lat="42.5946" lon="1.96661">
        <ele>2132</ele>
        <time>2023-07-19T08:40:20.000Z</time>
      </trkpt>
      <trkpt lat="42.59461" lon="1.96659">
        <ele>2133</ele>
        <time>2023-07-19T08:40:22.000Z</time>
      </trkpt>
      <trkpt lat="42.59463" lon="1.96654">
        <ele>2133.6000976562</ele>
        <time>2023-07-19T08:40:28.000Z</time>
      </trkpt>
      <trkpt lat="42.59464" lon="1.96648">
        <ele>2133.8000488281</ele>
        <time>2023-07-19T08:40:33.000Z</time>
      </trkpt>
      <trkpt lat="42.59465" lon="1.96646">
        <ele>2134</ele>
        <time>2023-07-19T08:40:35.000Z</time>
      </trkpt>
      <trkpt lat="42.59471" lon="1.96638">
        <ele>2134.1999511719</ele>
        <time>2023-07-19T08:40:42.000Z</time>
      </trkpt>
      <trkpt lat="42.59473" lon="1.96635">
        <ele>2135</ele>
        <time>2023-07-19T08:40:46.000Z</time>
      </trkpt>
      <trkpt lat="42.59474" lon="1.96632">
        <ele>2135.6000976562</ele>
        <time>2023-07-19T08:40:50.000Z</time>
      </trkpt>
      <trkpt lat="42.59476" lon="1.9663">
        <ele>2136.1999511719</ele>
        <time>2023-07-19T08:40:52.000Z</time>
      </trkpt>
      <trkpt lat="42.59478" lon="1.96626">
        <ele>2137.1999511719</ele>
        <time>2023-07-19T08:40:57.000Z</time>
      </trkpt>
      <trkpt lat="42.59478" lon="1.96625">
        <ele>2137.3999023438</ele>
        <time>2023-07-19T08:40:58.000Z</time>
      </trkpt>
      <trkpt lat="42.59479" lon="1.96621">
        <ele>2138.3999023438</ele>
        <time>2023-07-19T08:41:03.000Z</time>
      </trkpt>
      <trkpt lat="42.5948" lon="1.96618">
        <ele>2138.6000976562</ele>
        <time>2023-07-19T08:41:06.000Z</time>
      </trkpt>
      <trkpt lat="42.59482" lon="1.96614">
        <ele>2139.3999023438</ele>
        <time>2023-07-19T08:41:10.000Z</time>
      </trkpt>
      <trkpt lat="42.59482" lon="1.96612">
        <ele>2139.8000488281</ele>
        <time>2023-07-19T08:41:12.000Z</time>
      </trkpt>
      <trkpt lat="42.59482" lon="1.96609">
        <ele>2140.3999023438</ele>
        <time>2023-07-19T08:41:16.000Z</time>
      </trkpt>
      <trkpt lat="42.59482" lon="1.96605">
        <ele>2141.1999511719</ele>
        <time>2023-07-19T08:41:20.000Z</time>
      </trkpt>
      <trkpt lat="42.59481" lon="1.96603">
        <ele>2141.3999023438</ele>
        <time>2023-07-19T08:41:22.000Z</time>
      </trkpt>
      <trkpt lat="42.5948" lon="1.96596">
        <ele>2142.6000976562</ele>
        <time>2023-07-19T08:41:28.000Z</time>
      </trkpt>
      <trkpt lat="42.59478" lon="1.96587">
        <ele>2143.8000488281</ele>
        <time>2023-07-19T08:41:36.000Z</time>
      </trkpt>
      <trkpt lat="42.59478" lon="1.96583">
        <ele>2144.3999023438</ele>
        <time>2023-07-19T08:41:39.000Z</time>
      </trkpt>
      <trkpt lat="42.5948" lon="1.96572">
        <ele>2145</ele>
        <time>2023-07-19T08:41:47.000Z</time>
      </trkpt>
      <trkpt lat="42.5948" lon="1.96571">
        <ele>2145</ele>
        <time>2023-07-19T08:41:48.000Z</time>
      </trkpt>
      <trkpt lat="42.59483" lon="1.9656">
        <ele>2146</ele>
        <time>2023-07-19T08:41:56.000Z</time>
      </trkpt>
      <trkpt lat="42.59483" lon="1.9656">
        <ele>2146</ele>
        <time>2023-07-19T08:41:57.000Z</time>
      </trkpt>
      <trkpt lat="42.5949" lon="1.9655">
        <ele>2146.1999511719</ele>
        <time>2023-07-19T08:42:05.000Z</time>
      </trkpt>
      <trkpt lat="42.59498" lon="1.96539">
        <ele>2146.8000488281</ele>
        <time>2023-07-19T08:42:14.000Z</time>
      </trkpt>
      <trkpt lat="42.595" lon="1.96536">
        <ele>2147</ele>
        <time>2023-07-19T08:42:16.000Z</time>
      </trkpt>
      <trkpt lat="42.59504" lon="1.96528">
        <ele>2147.8000488281</ele>
        <time>2023-07-19T08:42:22.000Z</time>
      </trkpt>
      <trkpt lat="42.59505" lon="1.96526">
        <ele>2148</ele>
        <time>2023-07-19T08:42:24.000Z</time>
      </trkpt>
      <trkpt lat="42.5951" lon="1.96513">
        <ele>2148.8000488281</ele>
        <time>2023-07-19T08:42:33.000Z</time>
      </trkpt>
      <trkpt lat="42.59514" lon="1.96497">
        <ele>2148.8000488281</ele>
        <time>2023-07-19T08:42:43.000Z</time>
      </trkpt>
      <trkpt lat="42.59517" lon="1.96487">
        <ele>2149.1999511719</ele>
        <time>2023-07-19T08:42:49.000Z</time>
      </trkpt>
      <trkpt lat="42.59517" lon="1.96481">
        <ele>2149.8000488281</ele>
        <time>2023-07-19T08:42:53.000Z</time>
      </trkpt>
      <trkpt lat="42.59519" lon="1.96469">
        <ele>2148.8000488281</ele>
        <time>2023-07-19T08:43:01.000Z</time>
      </trkpt>
      <trkpt lat="42.59523" lon="1.96459">
        <ele>2149</ele>
        <time>2023-07-19T08:43:08.000Z</time>
      </trkpt>
      <trkpt lat="42.59531" lon="1.9644">
        <ele>2150</ele>
        <time>2023-07-19T08:43:19.000Z</time>
      </trkpt>
      <trkpt lat="42.59532" lon="1.96437">
        <ele>2150.1999511719</ele>
        <time>2023-07-19T08:43:21.000Z</time>
      </trkpt>
      <trkpt lat="42.59532" lon="1.9643">
        <ele>2150.6000976562</ele>
        <time>2023-07-19T08:43:26.000Z</time>
      </trkpt>
      <trkpt lat="42.59532" lon="1.96416">
        <ele>2150.8000488281</ele>
        <time>2023-07-19T08:43:33.000Z</time>
      </trkpt>
      <trkpt lat="42.59536" lon="1.96401">
        <ele>2150.3999023438</ele>
        <time>2023-07-19T08:43:43.000Z</time>
      </trkpt>
      <trkpt lat="42.59537" lon="1.96388">
        <ele>2150.3999023438</ele>
        <time>2023-07-19T08:43:52.000Z</time>
      </trkpt>
      <trkpt lat="42.59539" lon="1.96375">
        <ele>2150.1999511719</ele>
        <time>2023-07-19T08:44:01.000Z</time>
      </trkpt>
      <trkpt lat="42.5954" lon="1.96362">
        <ele>2150</ele>
        <time>2023-07-19T08:44:09.000Z</time>
      </trkpt>
      <trkpt lat="42.59541" lon="1.96349">
        <ele>2149.1999511719</ele>
        <time>2023-07-19T08:44:18.000Z</time>
      </trkpt>
      <trkpt lat="42.59541" lon="1.96347">
        <ele>2149.1999511719</ele>
        <time>2023-07-19T08:44:19.000Z</time>
      </trkpt>
      <trkpt lat="42.59547" lon="1.9633">
        <ele>2149.3999023438</ele>
        <time>2023-07-19T08:44:29.000Z</time>
      </trkpt>
      <trkpt lat="42.59554" lon="1.9632">
        <ele>2149</ele>
        <time>2023-07-19T08:44:37.000Z</time>
      </trkpt>
      <trkpt lat="42.59562" lon="1.96307">
        <ele>2149</ele>
        <time>2023-07-19T08:44:47.000Z</time>
      </trkpt>
      <trkpt lat="42.59566" lon="1.96299">
        <ele>2149.8000488281</ele>
        <time>2023-07-19T08:44:55.000Z</time>
      </trkpt>
      <trkpt lat="42.59569" lon="1.96296">
        <ele>2150.3999023438</ele>
        <time>2023-07-19T08:45:01.000Z</time>
      </trkpt>
      <trkpt lat="42.5957" lon="1.96293">
        <ele>2151</ele>
        <time>2023-07-19T08:45:03.000Z</time>
      </trkpt>
      <trkpt lat="42.59571" lon="1.9629">
        <ele>2151.3999023438</ele>
        <time>2023-07-19T08:45:05.000Z</time>
      </trkpt>
      <trkpt lat="42.59576" lon="1.96281">
        <ele>2152.6000976562</ele>
        <time>2023-07-19T08:45:11.000Z</time>
      </trkpt>
      <trkpt lat="42.5958" lon="1.96274">
        <ele>2153</ele>
        <time>2023-07-19T08:45:19.000Z</time>
      </trkpt>
      <trkpt lat="42.59582" lon="1.96267">
        <ele>2153.6000976562</ele>
        <time>2023-07-19T08:45:23.000Z</time>
      </trkpt>
      <trkpt lat="42.59586" lon="1.9626">
        <ele>2153.8000488281</ele>
        <time>2023-07-19T08:45:28.000Z</time>
      </trkpt>
      <trkpt lat="42.59595" lon="1.96245">
        <ele>2154</ele>
        <time>2023-07-19T08:45:38.000Z</time>
      </trkpt>
      <trkpt lat="42.59598" lon="1.96237">
        <ele>2154</ele>
        <time>2023-07-19T08:45:45.000Z</time>
      </trkpt>
      <trkpt lat="42.59598" lon="1.96225">
        <ele>2153.3999023438</ele>
        <time>2023-07-19T08:45:54.000Z</time>
      </trkpt>
      <trkpt lat="42.59599" lon="1.96214">
        <ele>2153.3999023438</ele>
        <time>2023-07-19T08:46:02.000Z</time>
      </trkpt>
      <trkpt lat="42.59602" lon="1.96213">
        <ele>2152.6000976562</ele>
        <time>2023-07-19T08:46:08.000Z</time>
      </trkpt>
      <trkpt lat="42.59604" lon="1.9621">
        <ele>2152.3999023438</ele>
        <time>2023-07-19T08:46:10.000Z</time>
      </trkpt>
      <trkpt lat="42.59607" lon="1.96205">
        <ele>2152.3999023438</ele>
        <time>2023-07-19T08:46:15.000Z</time>
      </trkpt>
      <trkpt lat="42.5961" lon="1.96195">
        <ele>2152.6000976562</ele>
        <time>2023-07-19T08:46:22.000Z</time>
      </trkpt>
      <trkpt lat="42.59615" lon="1.9619">
        <ele>2152.1999511719</ele>
        <time>2023-07-19T08:46:29.000Z</time>
      </trkpt>
      <trkpt lat="42.59617" lon="1.96188">
        <ele>2150.8000488281</ele>
        <time>2023-07-19T08:46:32.000Z</time>
      </trkpt>
      <trkpt lat="42.5962" lon="1.96184">
        <ele>2150.3999023438</ele>
        <time>2023-07-19T08:46:36.000Z</time>
      </trkpt>
      <trkpt lat="42.59628" lon="1.96179">
        <ele>2150.3999023438</ele>
        <time>2023-07-19T08:46:43.000Z</time>
      </trkpt>
      <trkpt lat="42.59632" lon="1.96175">
        <ele>2149.8000488281</ele>
        <time>2023-07-19T08:46:48.000Z</time>
      </trkpt>
      <trkpt lat="42.59633" lon="1.96174">
        <ele>2149.6000976562</ele>
        <time>2023-07-19T08:46:49.000Z</time>
      </trkpt>
      <trkpt lat="42.59642" lon="1.96165">
        <ele>2149.1999511719</ele>
        <time>2023-07-19T08:46:57.000Z</time>
      </trkpt>
      <trkpt lat="42.59643" lon="1.96165">
        <ele>2148.6000976562</ele>
        <time>2023-07-19T08:46:58.000Z</time>
      </trkpt>
      <trkpt lat="42.59649" lon="1.96164">
        <ele>2148</ele>
        <time>2023-07-19T08:47:03.000Z</time>
      </trkpt>
      <trkpt lat="42.59652" lon="1.96157">
        <ele>2148</ele>
        <time>2023-07-19T08:47:10.000Z</time>
      </trkpt>
      <trkpt lat="42.59655" lon="1.96149">
        <ele>2147.6000976562</ele>
        <time>2023-07-19T08:47:17.000Z</time>
      </trkpt>
      <trkpt lat="42.59658" lon="1.96143">
        <ele>2147.1999511719</ele>
        <time>2023-07-19T08:47:24.000Z</time>
      </trkpt>
      <trkpt lat="42.59662" lon="1.96139">
        <ele>2146.3999023438</ele>
        <time>2023-07-19T08:47:30.000Z</time>
      </trkpt>
      <trkpt lat="42.59663" lon="1.96138">
        <ele>2146.3999023438</ele>
        <time>2023-07-19T08:47:31.000Z</time>
      </trkpt>
      <trkpt lat="42.59668" lon="1.96131">
        <ele>2147</ele>
        <time>2023-07-19T08:47:37.000Z</time>
      </trkpt>
      <trkpt lat="42.59676" lon="1.96119">
        <ele>2147.1999511719</ele>
        <time>2023-07-19T08:47:47.000Z</time>
      </trkpt>
      <trkpt lat="42.59686" lon="1.96112">
        <ele>2147</ele>
        <time>2023-07-19T08:47:56.000Z</time>
      </trkpt>
      <trkpt lat="42.59692" lon="1.96104">
        <ele>2146.8000488281</ele>
        <time>2023-07-19T08:48:03.000Z</time>
      </trkpt>
      <trkpt lat="42.59697" lon="1.96092">
        <ele>2146</ele>
        <time>2023-07-19T08:48:12.000Z</time>
      </trkpt>
      <trkpt lat="42.59704" lon="1.96079">
        <ele>2146</ele>
        <time>2023-07-19T08:48:20.000Z</time>
      </trkpt>
      <trkpt lat="42.59713" lon="1.9607">
        <ele>2145.8000488281</ele>
        <time>2023-07-19T08:48:29.000Z</time>
      </trkpt>
      <trkpt lat="42.59717" lon="1.96068">
        <ele>2145.3999023438</ele>
        <time>2023-07-19T08:48:32.000Z</time>
      </trkpt>
      <trkpt lat="42.59721" lon="1.96065">
        <ele>2145.3999023438</ele>
        <time>2023-07-19T08:48:36.000Z</time>
      </trkpt>
      <trkpt lat="42.59728" lon="1.96063">
        <ele>2145.1999511719</ele>
        <time>2023-07-19T08:48:43.000Z</time>
      </trkpt>
      <trkpt lat="42.59732" lon="1.9606">
        <ele>2145.3999023438</ele>
        <time>2023-07-19T08:48:49.000Z</time>
      </trkpt>
      <trkpt lat="42.59743" lon="1.96056">
        <ele>2145.8000488281</ele>
        <time>2023-07-19T08:48:57.000Z</time>
      </trkpt>
      <trkpt lat="42.59749" lon="1.96047">
        <ele>2146.6000976562</ele>
        <time>2023-07-19T08:49:04.000Z</time>
      </trkpt>
      <trkpt lat="42.5975" lon="1.96046">
        <ele>2146.6000976562</ele>
        <time>2023-07-19T08:49:05.000Z</time>
      </trkpt>
      <trkpt lat="42.59758" lon="1.96038">
        <ele>2147.1999511719</ele>
        <time>2023-07-19T08:49:13.000Z</time>
      </trkpt>
      <trkpt lat="42.59764" lon="1.9603">
        <ele>2147.6000976562</ele>
        <time>2023-07-19T08:49:21.000Z</time>
      </trkpt>
      <trkpt lat="42.59765" lon="1.96028">
        <ele>2147.6000976562</ele>
        <time>2023-07-19T08:49:23.000Z</time>
      </trkpt>
      <trkpt lat="42.59769" lon="1.96022">
        <ele>2147.8000488281</ele>
        <time>2023-07-19T08:49:28.000Z</time>
      </trkpt>
      <trkpt lat="42.59778" lon="1.96014">
        <ele>2147.6000976562</ele>
        <time>2023-07-19T08:49:37.000Z</time>
      </trkpt>
      <trkpt lat="42.59791" lon="1.96006">
        <ele>2147.3999023438</ele>
        <time>2023-07-19T08:49:48.000Z</time>
      </trkpt>
      <trkpt lat="42.59801" lon="1.95998">
        <ele>2147</ele>
        <time>2023-07-19T08:49:57.000Z</time>
      </trkpt>
      <trkpt lat="42.59805" lon="1.95989">
        <ele>2148.6000976562</ele>
        <time>2023-07-19T08:50:05.000Z</time>
      </trkpt>
      <trkpt lat="42.59812" lon="1.95976">
        <ele>2149.1999511719</ele>
        <time>2023-07-19T08:50:14.000Z</time>
      </trkpt>
      <trkpt lat="42.59818" lon="1.95964">
        <ele>2149.3999023438</ele>
        <time>2023-07-19T08:50:23.000Z</time>
      </trkpt>
      <trkpt lat="42.59826" lon="1.95953">
        <ele>2148.6000976562</ele>
        <time>2023-07-19T08:50:33.000Z</time>
      </trkpt>
      <trkpt lat="42.59834" lon="1.95945">
        <ele>2149.1999511719</ele>
        <time>2023-07-19T08:50:42.000Z</time>
      </trkpt>
      <trkpt lat="42.59842" lon="1.95937">
        <ele>2149.3999023438</ele>
        <time>2023-07-19T08:50:49.000Z</time>
      </trkpt>
      <trkpt lat="42.59844" lon="1.95933">
        <ele>2150</ele>
        <time>2023-07-19T08:50:52.000Z</time>
      </trkpt>
      <trkpt lat="42.59848" lon="1.95926">
        <ele>2151</ele>
        <time>2023-07-19T08:51:01.000Z</time>
      </trkpt>
      <trkpt lat="42.59848" lon="1.95924">
        <ele>2151</ele>
        <time>2023-07-19T08:51:02.000Z</time>
      </trkpt>
      <trkpt lat="42.59854" lon="1.95914">
        <ele>2152</ele>
        <time>2023-07-19T08:51:10.000Z</time>
      </trkpt>
      <trkpt lat="42.59855" lon="1.95912">
        <ele>2152</ele>
        <time>2023-07-19T08:51:12.000Z</time>
      </trkpt>
      <trkpt lat="42.59857" lon="1.95906">
        <ele>2152.6000976562</ele>
        <time>2023-07-19T08:51:17.000Z</time>
      </trkpt>
      <trkpt lat="42.59857" lon="1.95902">
        <ele>2153.1999511719</ele>
        <time>2023-07-19T08:51:19.000Z</time>
      </trkpt>
      <trkpt lat="42.59859" lon="1.95889">
        <ele>2153.8000488281</ele>
        <time>2023-07-19T08:51:27.000Z</time>
      </trkpt>
      <trkpt lat="42.5986" lon="1.95884">
        <ele>2154.1999511719</ele>
        <time>2023-07-19T08:51:31.000Z</time>
      </trkpt>
      <trkpt lat="42.59864" lon="1.9588">
        <ele>2154</ele>
        <time>2023-07-19T08:51:36.000Z</time>
      </trkpt>
      <trkpt lat="42.59869" lon="1.95875">
        <ele>2153.6000976562</ele>
        <time>2023-07-19T08:51:43.000Z</time>
      </trkpt>
      <trkpt lat="42.59874" lon="1.95866">
        <ele>2153.8000488281</ele>
        <time>2023-07-19T08:51:51.000Z</time>
      </trkpt>
      <trkpt lat="42.5988" lon="1.95856">
        <ele>2154</ele>
        <time>2023-07-19T08:51:59.000Z</time>
      </trkpt>
      <trkpt lat="42.59888" lon="1.95846">
        <ele>2154</ele>
        <time>2023-07-19T08:52:07.000Z</time>
      </trkpt>
      <trkpt lat="42.59894" lon="1.95835">
        <ele>2153.8000488281</ele>
        <time>2023-07-19T08:52:16.000Z</time>
      </trkpt>
      <trkpt lat="42.59903" lon="1.95827">
        <ele>2153.6000976562</ele>
        <time>2023-07-19T08:52:24.000Z</time>
      </trkpt>
      <trkpt lat="42.59909" lon="1.95817">
        <ele>2154.1999511719</ele>
        <time>2023-07-19T08:52:33.000Z</time>
      </trkpt>
      <trkpt lat="42.59911" lon="1.95806">
        <ele>2154.1999511719</ele>
        <time>2023-07-19T08:52:41.000Z</time>
      </trkpt>
      <trkpt lat="42.59915" lon="1.95793">
        <ele>2154.3999023438</ele>
        <time>2023-07-19T08:52:50.000Z</time>
      </trkpt>
      <trkpt lat="42.59921" lon="1.95788">
        <ele>2154.1999511719</ele>
        <time>2023-07-19T08:52:58.000Z</time>
      </trkpt>
      <trkpt lat="42.59925" lon="1.95784">
        <ele>2154.6000976562</ele>
        <time>2023-07-19T08:53:06.000Z</time>
      </trkpt>
      <trkpt lat="42.5993" lon="1.95777">
        <ele>2154.8000488281</ele>
        <time>2023-07-19T08:53:13.000Z</time>
      </trkpt>
      <trkpt lat="42.59933" lon="1.95772">
        <ele>2154</ele>
        <time>2023-07-19T08:53:21.000Z</time>
      </trkpt>
      <trkpt lat="42.59933" lon="1.9577">
        <ele>2154.1999511719</ele>
        <time>2023-07-19T08:53:32.000Z</time>
      </trkpt>
      <trkpt lat="42.59933" lon="1.95766">
        <ele>2154</ele>
        <time>2023-07-19T08:53:40.000Z</time>
      </trkpt>
      <trkpt lat="42.5994" lon="1.95762">
        <ele>2153.8000488281</ele>
        <time>2023-07-19T08:53:48.000Z</time>
      </trkpt>
      <trkpt lat="42.59948" lon="1.95763">
        <ele>2153.1999511719</ele>
        <time>2023-07-19T08:53:55.000Z</time>
      </trkpt>
      <trkpt lat="42.59949" lon="1.95763">
        <ele>2153</ele>
        <time>2023-07-19T08:53:56.000Z</time>
      </trkpt>
      <trkpt lat="42.59953" lon="1.95756">
        <ele>2153.3999023438</ele>
        <time>2023-07-19T08:54:02.000Z</time>
      </trkpt>
      <trkpt lat="42.59957" lon="1.95743">
        <ele>2153.8000488281</ele>
        <time>2023-07-19T08:54:10.000Z</time>
      </trkpt>
      <trkpt lat="42.59959" lon="1.95735">
        <ele>2154</ele>
        <time>2023-07-19T08:54:17.000Z</time>
      </trkpt>
      <trkpt lat="42.59959" lon="1.95734">
        <ele>2154.1999511719</ele>
        <time>2023-07-19T08:54:18.000Z</time>
      </trkpt>
      <trkpt lat="42.59962" lon="1.95728">
        <ele>2155</ele>
        <time>2023-07-19T08:54:23.000Z</time>
      </trkpt>
      <trkpt lat="42.59964" lon="1.95726">
        <ele>2155.3999023438</ele>
        <time>2023-07-19T08:54:25.000Z</time>
      </trkpt>
      <trkpt lat="42.59969" lon="1.95719">
        <ele>2155.6000976562</ele>
        <time>2023-07-19T08:54:32.000Z</time>
      </trkpt>
      <trkpt lat="42.59978" lon="1.95714">
        <ele>2156.3999023438</ele>
        <time>2023-07-19T08:54:41.000Z</time>
      </trkpt>
      <trkpt lat="42.5998" lon="1.95713">
        <ele>2156.3999023438</ele>
        <time>2023-07-19T08:54:43.000Z</time>
      </trkpt>
      <trkpt lat="42.59985" lon="1.95709">
        <ele>2156.6000976562</ele>
        <time>2023-07-19T08:54:48.000Z</time>
      </trkpt>
      <trkpt lat="42.59994" lon="1.95705">
        <ele>2157.1999511719</ele>
        <time>2023-07-19T08:54:56.000Z</time>
      </trkpt>
      <trkpt lat="42.59998" lon="1.95702">
        <ele>2157.3999023438</ele>
        <time>2023-07-19T08:55:01.000Z</time>
      </trkpt>
      <trkpt lat="42.59999" lon="1.957">
        <ele>2157.6000976562</ele>
        <time>2023-07-19T08:55:03.000Z</time>
      </trkpt>
      <trkpt lat="42.60002" lon="1.9569">
        <ele>2158.6000976562</ele>
        <time>2023-07-19T08:55:10.000Z</time>
      </trkpt>
      <trkpt lat="42.60006" lon="1.9568">
        <ele>2159.1999511719</ele>
        <time>2023-07-19T08:55:18.000Z</time>
      </trkpt>
      <trkpt lat="42.60007" lon="1.95675">
        <ele>2159.6000976562</ele>
        <time>2023-07-19T08:55:22.000Z</time>
      </trkpt>
      <trkpt lat="42.60009" lon="1.9567">
        <ele>2160</ele>
        <time>2023-07-19T08:55:26.000Z</time>
      </trkpt>
      <trkpt lat="42.60013" lon="1.95663">
        <ele>2160.6000976562</ele>
        <time>2023-07-19T08:55:31.000Z</time>
      </trkpt>
      <trkpt lat="42.60014" lon="1.9566">
        <ele>2160.8000488281</ele>
        <time>2023-07-19T08:55:34.000Z</time>
      </trkpt>
      <trkpt lat="42.60017" lon="1.95656">
        <ele>2162</ele>
        <time>2023-07-19T08:55:38.000Z</time>
      </trkpt>
      <trkpt lat="42.60021" lon="1.95649">
        <ele>2162</ele>
        <time>2023-07-19T08:55:45.000Z</time>
      </trkpt>
      <trkpt lat="42.60027" lon="1.95644">
        <ele>2162.1999511719</ele>
        <time>2023-07-19T08:55:52.000Z</time>
      </trkpt>
      <trkpt lat="42.60035" lon="1.95638">
        <ele>2162.8000488281</ele>
        <time>2023-07-19T08:56:00.000Z</time>
      </trkpt>
      <trkpt lat="42.60035" lon="1.95637">
        <ele>2163</ele>
        <time>2023-07-19T08:56:01.000Z</time>
      </trkpt>
      <trkpt lat="42.60035" lon="1.95632">
        <ele>2164</ele>
        <time>2023-07-19T08:56:07.000Z</time>
      </trkpt>
      <trkpt lat="42.60035" lon="1.9563">
        <ele>2164.6000976562</ele>
        <time>2023-07-19T08:56:09.000Z</time>
      </trkpt>
      <trkpt lat="42.60036" lon="1.95624">
        <ele>2165.1999511719</ele>
        <time>2023-07-19T08:56:14.000Z</time>
      </trkpt>
      <trkpt lat="42.60037" lon="1.95623">
        <ele>2165.3999023438</ele>
        <time>2023-07-19T08:56:16.000Z</time>
      </trkpt>
      <trkpt lat="42.60036" lon="1.95621">
        <ele>2166.1999511719</ele>
        <time>2023-07-19T08:56:20.000Z</time>
      </trkpt>
      <trkpt lat="42.60036" lon="1.95618">
        <ele>2166.8000488281</ele>
        <time>2023-07-19T08:56:24.000Z</time>
      </trkpt>
      <trkpt lat="42.60037" lon="1.95616">
        <ele>2167.3999023438</ele>
        <time>2023-07-19T08:56:26.000Z</time>
      </trkpt>
      <trkpt lat="42.60038" lon="1.95613">
        <ele>2167.8000488281</ele>
        <time>2023-07-19T08:56:31.000Z</time>
      </trkpt>
      <trkpt lat="42.60038" lon="1.95611">
        <ele>2168.3999023438</ele>
        <time>2023-07-19T08:56:33.000Z</time>
      </trkpt>
      <trkpt lat="42.60038" lon="1.95607">
        <ele>2169</ele>
        <time>2023-07-19T08:56:38.000Z</time>
      </trkpt>
      <trkpt lat="42.60039" lon="1.95605">
        <ele>2169.6000976562</ele>
        <time>2023-07-19T08:56:40.000Z</time>
      </trkpt>
      <trkpt lat="42.6004" lon="1.95599">
        <ele>2170.6000976562</ele>
        <time>2023-07-19T08:56:46.000Z</time>
      </trkpt>
      <trkpt lat="42.60041" lon="1.95597">
        <ele>2170.8000488281</ele>
        <time>2023-07-19T08:56:48.000Z</time>
      </trkpt>
      <trkpt lat="42.60042" lon="1.95594">
        <ele>2171.8000488281</ele>
        <time>2023-07-19T08:56:52.000Z</time>
      </trkpt>
      <trkpt lat="42.60042" lon="1.95593">
        <ele>2171.8000488281</ele>
        <time>2023-07-19T08:56:53.000Z</time>
      </trkpt>
      <trkpt lat="42.60042" lon="1.95589">
        <ele>2172.8000488281</ele>
        <time>2023-07-19T08:56:58.000Z</time>
      </trkpt>
      <trkpt lat="42.60042" lon="1.95588">
        <ele>2173</ele>
        <time>2023-07-19T08:57:00.000Z</time>
      </trkpt>
      <trkpt lat="42.60043" lon="1.95583">
        <ele>2174</ele>
        <time>2023-07-19T08:57:06.000Z</time>
      </trkpt>
      <trkpt lat="42.60043" lon="1.95582">
        <ele>2174.1999511719</ele>
        <time>2023-07-19T08:57:09.000Z</time>
      </trkpt>
      <trkpt lat="42.60042" lon="1.95579">
        <ele>2175</ele>
        <time>2023-07-19T08:57:13.000Z</time>
      </trkpt>
      <trkpt lat="42.60042" lon="1.95575">
        <ele>2175.3999023438</ele>
        <time>2023-07-19T08:57:17.000Z</time>
      </trkpt>
      <trkpt lat="42.60043" lon="1.95572">
        <ele>2176</ele>
        <time>2023-07-19T08:57:21.000Z</time>
      </trkpt>
      <trkpt lat="42.60044" lon="1.95567">
        <ele>2176.6000976562</ele>
        <time>2023-07-19T08:57:25.000Z</time>
      </trkpt>
      <trkpt lat="42.60045" lon="1.9556">
        <ele>2177.1999511719</ele>
        <time>2023-07-19T08:57:30.000Z</time>
      </trkpt>
      <trkpt lat="42.60046" lon="1.95558">
        <ele>2177.8000488281</ele>
        <time>2023-07-19T08:57:32.000Z</time>
      </trkpt>
      <trkpt lat="42.60048" lon="1.9555">
        <ele>2178.1999511719</ele>
        <time>2023-07-19T08:57:38.000Z</time>
      </trkpt>
      <trkpt lat="42.60051" lon="1.95544">
        <ele>2179.1999511719</ele>
        <time>2023-07-19T08:57:45.000Z</time>
      </trkpt>
      <trkpt lat="42.60051" lon="1.95542">
        <ele>2179.1999511719</ele>
        <time>2023-07-19T08:57:47.000Z</time>
      </trkpt>
      <trkpt lat="42.60053" lon="1.95533">
        <ele>2180</ele>
        <time>2023-07-19T08:57:54.000Z</time>
      </trkpt>
      <trkpt lat="42.60056" lon="1.95529">
        <ele>2180.3999023438</ele>
        <time>2023-07-19T08:57:59.000Z</time>
      </trkpt>
      <trkpt lat="42.60057" lon="1.95527">
        <ele>2180.8000488281</ele>
        <time>2023-07-19T08:58:01.000Z</time>
      </trkpt>
      <trkpt lat="42.60057" lon="1.95526">
        <ele>2181.3999023438</ele>
        <time>2023-07-19T08:58:03.000Z</time>
      </trkpt>
      <trkpt lat="42.60063" lon="1.9552">
        <ele>2181.8000488281</ele>
        <time>2023-07-19T08:58:09.000Z</time>
      </trkpt>
      <trkpt lat="42.60066" lon="1.95517">
        <ele>2182.3999023438</ele>
        <time>2023-07-19T08:58:13.000Z</time>
      </trkpt>
      <trkpt lat="42.60068" lon="1.95513">
        <ele>2183.1999511719</ele>
        <time>2023-07-19T08:58:16.000Z</time>
      </trkpt>
      <trkpt lat="42.60069" lon="1.9551">
        <ele>2183.6000976562</ele>
        <time>2023-07-19T08:58:18.000Z</time>
      </trkpt>
      <trkpt lat="42.60073" lon="1.95504">
        <ele>2184</ele>
        <time>2023-07-19T08:58:24.000Z</time>
      </trkpt>
      <trkpt lat="42.6008" lon="1.95496">
        <ele>2184.6000976562</ele>
        <time>2023-07-19T08:58:32.000Z</time>
      </trkpt>
      <trkpt lat="42.6008" lon="1.95495">
        <ele>2184.8000488281</ele>
        <time>2023-07-19T08:58:33.000Z</time>
      </trkpt>
      <trkpt lat="42.60084" lon="1.95487">
        <ele>2185.6000976562</ele>
        <time>2023-07-19T08:58:41.000Z</time>
      </trkpt>
      <trkpt lat="42.60085" lon="1.95485">
        <ele>2186</ele>
        <time>2023-07-19T08:58:42.000Z</time>
      </trkpt>
      <trkpt lat="42.60085" lon="1.95477">
        <ele>2186.8000488281</ele>
        <time>2023-07-19T08:58:50.000Z</time>
      </trkpt>
      <trkpt lat="42.60085" lon="1.95475">
        <ele>2187</ele>
        <time>2023-07-19T08:58:52.000Z</time>
      </trkpt>
      <trkpt lat="42.60085" lon="1.95468">
        <ele>2187.8000488281</ele>
        <time>2023-07-19T08:58:57.000Z</time>
      </trkpt>
      <trkpt lat="42.60086" lon="1.95465">
        <ele>2188.1999511719</ele>
        <time>2023-07-19T08:58:59.000Z</time>
      </trkpt>
      <trkpt lat="42.60084" lon="1.95457">
        <ele>2188.8000488281</ele>
        <time>2023-07-19T08:59:06.000Z</time>
      </trkpt>
      <trkpt lat="42.60084" lon="1.95452">
        <ele>2189.1999511719</ele>
        <time>2023-07-19T08:59:09.000Z</time>
      </trkpt>
      <trkpt lat="42.60083" lon="1.95449">
        <ele>2189.8000488281</ele>
        <time>2023-07-19T08:59:13.000Z</time>
      </trkpt>
      <trkpt lat="42.60083" lon="1.95446">
        <ele>2190.1999511719</ele>
        <time>2023-07-19T08:59:16.000Z</time>
      </trkpt>
      <trkpt lat="42.60084" lon="1.95443">
        <ele>2191</ele>
        <time>2023-07-19T08:59:19.000Z</time>
      </trkpt>
      <trkpt lat="42.60084" lon="1.95441">
        <ele>2191.3999023438</ele>
        <time>2023-07-19T08:59:21.000Z</time>
      </trkpt>
      <trkpt lat="42.60086" lon="1.95436">
        <ele>2192.1999511719</ele>
        <time>2023-07-19T08:59:27.000Z</time>
      </trkpt>
      <trkpt lat="42.60087" lon="1.95435">
        <ele>2192.6000976562</ele>
        <time>2023-07-19T08:59:28.000Z</time>
      </trkpt>
      <trkpt lat="42.6009" lon="1.95426">
        <ele>2193.6000976562</ele>
        <time>2023-07-19T08:59:35.000Z</time>
      </trkpt>
      <trkpt lat="42.60093" lon="1.95416">
        <ele>2194.6000976562</ele>
        <time>2023-07-19T08:59:44.000Z</time>
      </trkpt>
      <trkpt lat="42.60094" lon="1.95415">
        <ele>2194.6000976562</ele>
        <time>2023-07-19T08:59:46.000Z</time>
      </trkpt>
      <trkpt lat="42.60096" lon="1.95409">
        <ele>2194.8000488281</ele>
        <time>2023-07-19T08:59:52.000Z</time>
      </trkpt>
      <trkpt lat="42.60094" lon="1.95402">
        <ele>2195.8000488281</ele>
        <time>2023-07-19T08:59:58.000Z</time>
      </trkpt>
      <trkpt lat="42.60092" lon="1.95393">
        <ele>2196.6000976562</ele>
        <time>2023-07-19T09:00:06.000Z</time>
      </trkpt>
      <trkpt lat="42.60091" lon="1.95393">
        <ele>2196.8000488281</ele>
        <time>2023-07-19T09:00:07.000Z</time>
      </trkpt>
      <trkpt lat="42.6009" lon="1.95386">
        <ele>2197.6000976562</ele>
        <time>2023-07-19T09:00:13.000Z</time>
      </trkpt>
      <trkpt lat="42.6009" lon="1.95385">
        <ele>2198</ele>
        <time>2023-07-19T09:00:14.000Z</time>
      </trkpt>
      <trkpt lat="42.60088" lon="1.95379">
        <ele>2198.8000488281</ele>
        <time>2023-07-19T09:00:21.000Z</time>
      </trkpt>
      <trkpt lat="42.60088" lon="1.95378">
        <ele>2199</ele>
        <time>2023-07-19T09:00:23.000Z</time>
      </trkpt>
      <trkpt lat="42.60087" lon="1.95374">
        <ele>2200</ele>
        <time>2023-07-19T09:00:28.000Z</time>
      </trkpt>
      <trkpt lat="42.60087" lon="1.95373">
        <ele>2200.1999511719</ele>
        <time>2023-07-19T09:00:29.000Z</time>
      </trkpt>
      <trkpt lat="42.60087" lon="1.95368">
        <ele>2200.8000488281</ele>
        <time>2023-07-19T09:00:34.000Z</time>
      </trkpt>
      <trkpt lat="42.60086" lon="1.95365">
        <ele>2201.3999023438</ele>
        <time>2023-07-19T09:00:36.000Z</time>
      </trkpt>
      <trkpt lat="42.60086" lon="1.95363">
        <ele>2202</ele>
        <time>2023-07-19T09:00:40.000Z</time>
      </trkpt>
      <trkpt lat="42.60087" lon="1.95361">
        <ele>2202.6000976562</ele>
        <time>2023-07-19T09:00:43.000Z</time>
      </trkpt>
      <trkpt lat="42.60088" lon="1.95356">
        <ele>2203.6000976562</ele>
        <time>2023-07-19T09:00:49.000Z</time>
      </trkpt>
      <trkpt lat="42.60088" lon="1.95355">
        <ele>2203.6000976562</ele>
        <time>2023-07-19T09:00:50.000Z</time>
      </trkpt>
      <trkpt lat="42.6009" lon="1.9535">
        <ele>2204.6000976562</ele>
        <time>2023-07-19T09:00:56.000Z</time>
      </trkpt>
      <trkpt lat="42.60092" lon="1.95346">
        <ele>2205.3999023438</ele>
        <time>2023-07-19T09:01:01.000Z</time>
      </trkpt>
      <trkpt lat="42.60092" lon="1.9534">
        <ele>2205.8000488281</ele>
        <time>2023-07-19T09:01:08.000Z</time>
      </trkpt>
      <trkpt lat="42.60092" lon="1.95339">
        <ele>2205.8000488281</ele>
        <time>2023-07-19T09:01:09.000Z</time>
      </trkpt>
      <trkpt lat="42.60094" lon="1.9533">
        <ele>2206.6000976562</ele>
        <time>2023-07-19T09:01:15.000Z</time>
      </trkpt>
      <trkpt lat="42.60095" lon="1.95322">
        <ele>2206.8000488281</ele>
        <time>2023-07-19T09:01:21.000Z</time>
      </trkpt>
      <trkpt lat="42.60095" lon="1.95319">
        <ele>2207</ele>
        <time>2023-07-19T09:01:23.000Z</time>
      </trkpt>
      <trkpt lat="42.60098" lon="1.95308">
        <ele>2207.8000488281</ele>
        <time>2023-07-19T09:01:31.000Z</time>
      </trkpt>
      <trkpt lat="42.60099" lon="1.95306">
        <ele>2207.8000488281</ele>
        <time>2023-07-19T09:01:33.000Z</time>
      </trkpt>
      <trkpt lat="42.60101" lon="1.95298">
        <ele>2208.6000976562</ele>
        <time>2023-07-19T09:01:40.000Z</time>
      </trkpt>
      <trkpt lat="42.60102" lon="1.95293">
        <ele>2209</ele>
        <time>2023-07-19T09:01:43.000Z</time>
      </trkpt>
      <trkpt lat="42.60104" lon="1.95289">
        <ele>2209</ele>
        <time>2023-07-19T09:01:47.000Z</time>
      </trkpt>
      <trkpt lat="42.60107" lon="1.95281">
        <ele>2210</ele>
        <time>2023-07-19T09:01:54.000Z</time>
      </trkpt>
      <trkpt lat="42.60109" lon="1.95279">
        <ele>2210.1999511719</ele>
        <time>2023-07-19T09:01:57.000Z</time>
      </trkpt>
      <trkpt lat="42.60111" lon="1.9527">
        <ele>2210.6000976562</ele>
        <time>2023-07-19T09:02:03.000Z</time>
      </trkpt>
      <trkpt lat="42.60112" lon="1.95266">
        <ele>2211.1999511719</ele>
        <time>2023-07-19T09:02:08.000Z</time>
      </trkpt>
      <trkpt lat="42.60112" lon="1.95264">
        <ele>2211.6000976562</ele>
        <time>2023-07-19T09:02:10.000Z</time>
      </trkpt>
      <trkpt lat="42.60113" lon="1.9526">
        <ele>2212.1999511719</ele>
        <time>2023-07-19T09:02:14.000Z</time>
      </trkpt>
      <trkpt lat="42.60115" lon="1.95256">
        <ele>2213.1999511719</ele>
        <time>2023-07-19T09:02:19.000Z</time>
      </trkpt>
      <trkpt lat="42.60116" lon="1.9525">
        <ele>2213.3999023438</ele>
        <time>2023-07-19T09:02:26.000Z</time>
      </trkpt>
      <trkpt lat="42.60116" lon="1.95248">
        <ele>2214</ele>
        <time>2023-07-19T09:02:28.000Z</time>
      </trkpt>
      <trkpt lat="42.60117" lon="1.95246">
        <ele>2214.3999023438</ele>
        <time>2023-07-19T09:02:30.000Z</time>
      </trkpt>
      <trkpt lat="42.60119" lon="1.95239">
        <ele>2215.6000976562</ele>
        <time>2023-07-19T09:02:37.000Z</time>
      </trkpt>
      <trkpt lat="42.60121" lon="1.95228">
        <ele>2216.3999023438</ele>
        <time>2023-07-19T09:02:46.000Z</time>
      </trkpt>
      <trkpt lat="42.60122" lon="1.95225">
        <ele>2216.8000488281</ele>
        <time>2023-07-19T09:02:50.000Z</time>
      </trkpt>
      <trkpt lat="42.60122" lon="1.95222">
        <ele>2217.1999511719</ele>
        <time>2023-07-19T09:02:53.000Z</time>
      </trkpt>
      <trkpt lat="42.60124" lon="1.95215">
        <ele>2217.8000488281</ele>
        <time>2023-07-19T09:02:58.000Z</time>
      </trkpt>
      <trkpt lat="42.60125" lon="1.95213">
        <ele>2217.8000488281</ele>
        <time>2023-07-19T09:03:00.000Z</time>
      </trkpt>
      <trkpt lat="42.6013" lon="1.95203">
        <ele>2218.3999023438</ele>
        <time>2023-07-19T09:03:10.000Z</time>
      </trkpt>
      <trkpt lat="42.60132" lon="1.95198">
        <ele>2218.8000488281</ele>
        <time>2023-07-19T09:03:15.000Z</time>
      </trkpt>
      <trkpt lat="42.60133" lon="1.95196">
        <ele>2219</ele>
        <time>2023-07-19T09:03:17.000Z</time>
      </trkpt>
      <trkpt lat="42.60136" lon="1.95189">
        <ele>2219.8000488281</ele>
        <time>2023-07-19T09:03:25.000Z</time>
      </trkpt>
      <trkpt lat="42.60137" lon="1.95182">
        <ele>2221.1999511719</ele>
        <time>2023-07-19T09:03:33.000Z</time>
      </trkpt>
      <trkpt lat="42.60137" lon="1.95181">
        <ele>2221.1999511719</ele>
        <time>2023-07-19T09:03:34.000Z</time>
      </trkpt>
      <trkpt lat="42.60136" lon="1.95174">
        <ele>2222.1999511719</ele>
        <time>2023-07-19T09:03:43.000Z</time>
      </trkpt>
      <trkpt lat="42.60136" lon="1.95173">
        <ele>2222.3999023438</ele>
        <time>2023-07-19T09:03:44.000Z</time>
      </trkpt>
      <trkpt lat="42.60135" lon="1.9517">
        <ele>2223.1999511719</ele>
        <time>2023-07-19T09:03:49.000Z</time>
      </trkpt>
      <trkpt lat="42.60136" lon="1.95166">
        <ele>2224.3999023438</ele>
        <time>2023-07-19T09:03:54.000Z</time>
      </trkpt>
      <trkpt lat="42.60136" lon="1.95164">
        <ele>2224.8000488281</ele>
        <time>2023-07-19T09:03:55.000Z</time>
      </trkpt>
      <trkpt lat="42.60136" lon="1.95162">
        <ele>2225.3999023438</ele>
        <time>2023-07-19T09:03:57.000Z</time>
      </trkpt>
      <trkpt lat="42.60137" lon="1.95152">
        <ele>2226</ele>
        <time>2023-07-19T09:04:05.000Z</time>
      </trkpt>
      <trkpt lat="42.60138" lon="1.95147">
        <ele>2226.3999023438</ele>
        <time>2023-07-19T09:04:10.000Z</time>
      </trkpt>
      <trkpt lat="42.60138" lon="1.95146">
        <ele>2226.6000976562</ele>
        <time>2023-07-19T09:04:12.000Z</time>
      </trkpt>
      <trkpt lat="42.60137" lon="1.95143">
        <ele>2227.6000976562</ele>
        <time>2023-07-19T09:04:16.000Z</time>
      </trkpt>
      <trkpt lat="42.60138" lon="1.9514">
        <ele>2228.6000976562</ele>
        <time>2023-07-19T09:04:20.000Z</time>
      </trkpt>
      <trkpt lat="42.60138" lon="1.95136">
        <ele>2229.8000488281</ele>
        <time>2023-07-19T09:04:24.000Z</time>
      </trkpt>
      <trkpt lat="42.60138" lon="1.95132">
        <ele>2230.1999511719</ele>
        <time>2023-07-19T09:04:29.000Z</time>
      </trkpt>
      <trkpt lat="42.60138" lon="1.9513">
        <ele>2230.8000488281</ele>
        <time>2023-07-19T09:04:31.000Z</time>
      </trkpt>
      <trkpt lat="42.60139" lon="1.95124">
        <ele>2231.8000488281</ele>
        <time>2023-07-19T09:04:38.000Z</time>
      </trkpt>
      <trkpt lat="42.60139" lon="1.95122">
        <ele>2232</ele>
        <time>2023-07-19T09:04:39.000Z</time>
      </trkpt>
      <trkpt lat="42.60142" lon="1.95116">
        <ele>2233</ele>
        <time>2023-07-19T09:04:46.000Z</time>
      </trkpt>
      <trkpt lat="42.60143" lon="1.95114">
        <ele>2233</ele>
        <time>2023-07-19T09:04:48.000Z</time>
      </trkpt>
      <trkpt lat="42.60145" lon="1.95109">
        <ele>2233.6000976562</ele>
        <time>2023-07-19T09:04:55.000Z</time>
      </trkpt>
      <trkpt lat="42.60146" lon="1.95108">
        <ele>2234.3999023438</ele>
        <time>2023-07-19T09:04:57.000Z</time>
      </trkpt>
      <trkpt lat="42.60148" lon="1.95102">
        <ele>2235.6000976562</ele>
        <time>2023-07-19T09:05:04.000Z</time>
      </trkpt>
      <trkpt lat="42.60148" lon="1.95101">
        <ele>2235.8000488281</ele>
        <time>2023-07-19T09:05:05.000Z</time>
      </trkpt>
      <trkpt lat="42.60149" lon="1.95091">
        <ele>2236.6000976562</ele>
        <time>2023-07-19T09:05:14.000Z</time>
      </trkpt>
      <trkpt lat="42.60149" lon="1.95091">
        <ele>2236.6000976562</ele>
        <time>2023-07-19T09:05:15.000Z</time>
      </trkpt>
      <trkpt lat="42.60149" lon="1.95085">
        <ele>2237.6000976562</ele>
        <time>2023-07-19T09:05:20.000Z</time>
      </trkpt>
      <trkpt lat="42.60149" lon="1.95082">
        <ele>2237.8000488281</ele>
        <time>2023-07-19T09:05:22.000Z</time>
      </trkpt>
      <trkpt lat="42.6015" lon="1.95078">
        <ele>2238.8000488281</ele>
        <time>2023-07-19T09:05:26.000Z</time>
      </trkpt>
      <trkpt lat="42.6015" lon="1.95077">
        <ele>2239</ele>
        <time>2023-07-19T09:05:27.000Z</time>
      </trkpt>
      <trkpt lat="42.6015" lon="1.95075">
        <ele>2239.8000488281</ele>
        <time>2023-07-19T09:05:29.000Z</time>
      </trkpt>
      <trkpt lat="42.60153" lon="1.95066">
        <ele>2240.8000488281</ele>
        <time>2023-07-19T09:05:38.000Z</time>
      </trkpt>
      <trkpt lat="42.60154" lon="1.95065">
        <ele>2241.3999023438</ele>
        <time>2023-07-19T09:05:39.000Z</time>
      </trkpt>
      <trkpt lat="42.60159" lon="1.95062">
        <ele>2241.6000976562</ele>
        <time>2023-07-19T09:05:44.000Z</time>
      </trkpt>
      <trkpt lat="42.60163" lon="1.95055">
        <ele>2241.8000488281</ele>
        <time>2023-07-19T09:05:51.000Z</time>
      </trkpt>
      <trkpt lat="42.60164" lon="1.95053">
        <ele>2242.6000976562</ele>
        <time>2023-07-19T09:05:53.000Z</time>
      </trkpt>
      <trkpt lat="42.60164" lon="1.95051">
        <ele>2243.8000488281</ele>
        <time>2023-07-19T09:05:55.000Z</time>
      </trkpt>
      <trkpt lat="42.60164" lon="1.95048">
        <ele>2244.3999023438</ele>
        <time>2023-07-19T09:06:00.000Z</time>
      </trkpt>
      <trkpt lat="42.60165" lon="1.95045">
        <ele>2244.8000488281</ele>
        <time>2023-07-19T09:06:02.000Z</time>
      </trkpt>
      <trkpt lat="42.60163" lon="1.95038">
        <ele>2245.3999023438</ele>
        <time>2023-07-19T09:06:10.000Z</time>
      </trkpt>
      <trkpt lat="42.60163" lon="1.95027">
        <ele>2245.6000976562</ele>
        <time>2023-07-19T09:06:19.000Z</time>
      </trkpt>
      <trkpt lat="42.60162" lon="1.95026">
        <ele>2246.1999511719</ele>
        <time>2023-07-19T09:06:20.000Z</time>
      </trkpt>
      <trkpt lat="42.60162" lon="1.95022">
        <ele>2247.1999511719</ele>
        <time>2023-07-19T09:06:23.000Z</time>
      </trkpt>
      <trkpt lat="42.60161" lon="1.95018">
        <ele>2247.1999511719</ele>
        <time>2023-07-19T09:06:27.000Z</time>
      </trkpt>
      <trkpt lat="42.6016" lon="1.95014">
        <ele>2247.6000976562</ele>
        <time>2023-07-19T09:06:33.000Z</time>
      </trkpt>
      <trkpt lat="42.6016" lon="1.95008">
        <ele>2248.3999023438</ele>
        <time>2023-07-19T09:06:38.000Z</time>
      </trkpt>
      <trkpt lat="42.60161" lon="1.95003">
        <ele>2248.6000976562</ele>
        <time>2023-07-19T09:06:43.000Z</time>
      </trkpt>
      <trkpt lat="42.6016" lon="1.95">
        <ele>2249.6000976562</ele>
        <time>2023-07-19T09:06:46.000Z</time>
      </trkpt>
      <trkpt lat="42.60159" lon="1.94998">
        <ele>2251</ele>
        <time>2023-07-19T09:06:49.000Z</time>
      </trkpt>
      <trkpt lat="42.60158" lon="1.94995">
        <ele>2251</ele>
        <time>2023-07-19T09:06:52.000Z</time>
      </trkpt>
      <trkpt lat="42.60159" lon="1.9499">
        <ele>2249.8000488281</ele>
        <time>2023-07-19T09:06:55.000Z</time>
      </trkpt>
      <trkpt lat="42.6016" lon="1.94988">
        <ele>2251.1999511719</ele>
        <time>2023-07-19T09:06:59.000Z</time>
      </trkpt>
      <trkpt lat="42.6016" lon="1.94989">
        <ele>2251.3999023438</ele>
        <time>2023-07-19T09:07:01.000Z</time>
      </trkpt>
      <trkpt lat="42.6016" lon="1.94984">
        <ele>2251.6000976562</ele>
        <time>2023-07-19T09:07:10.000Z</time>
      </trkpt>
      <trkpt lat="42.60158" lon="1.94976">
        <ele>2252</ele>
        <time>2023-07-19T09:07:16.000Z</time>
      </trkpt>
      <trkpt lat="42.60158" lon="1.94973">
        <ele>2252.1999511719</ele>
        <time>2023-07-19T09:07:19.000Z</time>
      </trkpt>
      <trkpt lat="42.60157" lon="1.94969">
        <ele>2253.3999023438</ele>
        <time>2023-07-19T09:07:24.000Z</time>
      </trkpt>
      <trkpt lat="42.60157" lon="1.9496">
        <ele>2254</ele>
        <time>2023-07-19T09:07:33.000Z</time>
      </trkpt>
      <trkpt lat="42.60157" lon="1.94955">
        <ele>2254.6000976562</ele>
        <time>2023-07-19T09:07:38.000Z</time>
      </trkpt>
      <trkpt lat="42.60157" lon="1.94953">
        <ele>2255</ele>
        <time>2023-07-19T09:07:40.000Z</time>
      </trkpt>
      <trkpt lat="42.60157" lon="1.94949">
        <ele>2255.8000488281</ele>
        <time>2023-07-19T09:07:43.000Z</time>
      </trkpt>
      <trkpt lat="42.60157" lon="1.94945">
        <ele>2256.3999023438</ele>
        <time>2023-07-19T09:07:47.000Z</time>
      </trkpt>
      <trkpt lat="42.60156" lon="1.9494">
        <ele>2257</ele>
        <time>2023-07-19T09:07:55.000Z</time>
      </trkpt>
      <trkpt lat="42.60156" lon="1.94937">
        <ele>2257.1999511719</ele>
        <time>2023-07-19T09:07:57.000Z</time>
      </trkpt>
      <trkpt lat="42.60155" lon="1.94935">
        <ele>2258.6000976562</ele>
        <time>2023-07-19T09:07:59.000Z</time>
      </trkpt>
      <trkpt lat="42.60154" lon="1.9493">
        <ele>2259.1999511719</ele>
        <time>2023-07-19T09:08:04.000Z</time>
      </trkpt>
      <trkpt lat="42.60153" lon="1.94922">
        <ele>2259.3999023438</ele>
        <time>2023-07-19T09:08:12.000Z</time>
      </trkpt>
      <trkpt lat="42.60153" lon="1.94921">
        <ele>2259.6000976562</ele>
        <time>2023-07-19T09:08:13.000Z</time>
      </trkpt>
      <trkpt lat="42.60152" lon="1.94916">
        <ele>2260.8000488281</ele>
        <time>2023-07-19T09:08:18.000Z</time>
      </trkpt>
      <trkpt lat="42.60151" lon="1.94912">
        <ele>2261.1999511719</ele>
        <time>2023-07-19T09:08:22.000Z</time>
      </trkpt>
      <trkpt lat="42.60149" lon="1.94909">
        <ele>2261.8000488281</ele>
        <time>2023-07-19T09:08:26.000Z</time>
      </trkpt>
      <trkpt lat="42.60148" lon="1.94908">
        <ele>2262.1999511719</ele>
        <time>2023-07-19T09:08:29.000Z</time>
      </trkpt>
      <trkpt lat="42.60149" lon="1.94905">
        <ele>2262.8000488281</ele>
        <time>2023-07-19T09:08:33.000Z</time>
      </trkpt>
      <trkpt lat="42.60148" lon="1.94902">
        <ele>2263.1999511719</ele>
        <time>2023-07-19T09:08:37.000Z</time>
      </trkpt>
      <trkpt lat="42.60145" lon="1.94898">
        <ele>2263.6000976562</ele>
        <time>2023-07-19T09:08:44.000Z</time>
      </trkpt>
      <trkpt lat="42.60145" lon="1.94896">
        <ele>2264</ele>
        <time>2023-07-19T09:08:46.000Z</time>
      </trkpt>
      <trkpt lat="42.60146" lon="1.94891">
        <ele>2264.6000976562</ele>
        <time>2023-07-19T09:08:50.000Z</time>
      </trkpt>
      <trkpt lat="42.60146" lon="1.94887">
        <ele>2265</ele>
        <time>2023-07-19T09:08:55.000Z</time>
      </trkpt>
      <trkpt lat="42.60146" lon="1.94885">
        <ele>2265.3999023438</ele>
        <time>2023-07-19T09:08:57.000Z</time>
      </trkpt>
      <trkpt lat="42.60145" lon="1.94882">
        <ele>2266.1999511719</ele>
        <time>2023-07-19T09:09:00.000Z</time>
      </trkpt>
      <trkpt lat="42.60144" lon="1.94878">
        <ele>2266.8000488281</ele>
        <time>2023-07-19T09:09:05.000Z</time>
      </trkpt>
      <trkpt lat="42.60144" lon="1.94874">
        <ele>2266.3999023438</ele>
        <time>2023-07-19T09:09:11.000Z</time>
      </trkpt>
      <trkpt lat="42.60139" lon="1.94867">
        <ele>2267</ele>
        <time>2023-07-19T09:09:20.000Z</time>
      </trkpt>
      <trkpt lat="42.60138" lon="1.94866">
        <ele>2267.3999023438</ele>
        <time>2023-07-19T09:09:22.000Z</time>
      </trkpt>
      <trkpt lat="42.60136" lon="1.94862">
        <ele>2268.6000976562</ele>
        <time>2023-07-19T09:09:25.000Z</time>
      </trkpt>
      <trkpt lat="42.60135" lon="1.9486">
        <ele>2269</ele>
        <time>2023-07-19T09:09:27.000Z</time>
      </trkpt>
      <trkpt lat="42.60134" lon="1.94854">
        <ele>2269.3999023438</ele>
        <time>2023-07-19T09:09:34.000Z</time>
      </trkpt>
      <trkpt lat="42.60134" lon="1.9485">
        <ele>2269.6000976562</ele>
        <time>2023-07-19T09:09:38.000Z</time>
      </trkpt>
      <trkpt lat="42.60134" lon="1.94846">
        <ele>2270.3999023438</ele>
        <time>2023-07-19T09:09:42.000Z</time>
      </trkpt>
      <trkpt lat="42.60134" lon="1.94845">
        <ele>2271</ele>
        <time>2023-07-19T09:09:44.000Z</time>
      </trkpt>
      <trkpt lat="42.60134" lon="1.9484">
        <ele>2271.1999511719</ele>
        <time>2023-07-19T09:09:49.000Z</time>
      </trkpt>
      <trkpt lat="42.60134" lon="1.94837">
        <ele>2272.1999511719</ele>
        <time>2023-07-19T09:09:52.000Z</time>
      </trkpt>
      <trkpt lat="42.60134" lon="1.94831">
        <ele>2273.1999511719</ele>
        <time>2023-07-19T09:09:59.000Z</time>
      </trkpt>
      <trkpt lat="42.60133" lon="1.94824">
        <ele>2274</ele>
        <time>2023-07-19T09:10:06.000Z</time>
      </trkpt>
      <trkpt lat="42.60133" lon="1.94823">
        <ele>2274.1999511719</ele>
        <time>2023-07-19T09:10:07.000Z</time>
      </trkpt>
      <trkpt lat="42.60131" lon="1.94816">
        <ele>2275</ele>
        <time>2023-07-19T09:10:14.000Z</time>
      </trkpt>
      <trkpt lat="42.60131" lon="1.94814">
        <ele>2275.6000976562</ele>
        <time>2023-07-19T09:10:16.000Z</time>
      </trkpt>
      <trkpt lat="42.60129" lon="1.94809">
        <ele>2276.6000976562</ele>
        <time>2023-07-19T09:10:22.000Z</time>
      </trkpt>
      <trkpt lat="42.60129" lon="1.94809">
        <ele>2276.6000976562</ele>
        <time>2023-07-19T09:10:23.000Z</time>
      </trkpt>
      <trkpt lat="42.6013" lon="1.94802">
        <ele>2277.3999023438</ele>
        <time>2023-07-19T09:10:30.000Z</time>
      </trkpt>
      <trkpt lat="42.6013" lon="1.94801">
        <ele>2277.6000976562</ele>
        <time>2023-07-19T09:10:33.000Z</time>
      </trkpt>
      <trkpt lat="42.60132" lon="1.94797">
        <ele>2278.3999023438</ele>
        <time>2023-07-19T09:10:37.000Z</time>
      </trkpt>
      <trkpt lat="42.60134" lon="1.9479">
        <ele>2278.8000488281</ele>
        <time>2023-07-19T09:10:42.000Z</time>
      </trkpt>
      <trkpt lat="42.60135" lon="1.94788">
        <ele>2279.1999511719</ele>
        <time>2023-07-19T09:10:44.000Z</time>
      </trkpt>
      <trkpt lat="42.60135" lon="1.94786">
        <ele>2280</ele>
        <time>2023-07-19T09:10:46.000Z</time>
      </trkpt>
      <trkpt lat="42.60136" lon="1.94783">
        <ele>2281.1999511719</ele>
        <time>2023-07-19T09:10:50.000Z</time>
      </trkpt>
      <trkpt lat="42.60137" lon="1.94782">
        <ele>2281.6000976562</ele>
        <time>2023-07-19T09:10:52.000Z</time>
      </trkpt>
      <trkpt lat="42.60138" lon="1.94778">
        <ele>2282.3999023438</ele>
        <time>2023-07-19T09:10:59.000Z</time>
      </trkpt>
      <trkpt lat="42.60137" lon="1.94774">
        <ele>2283.3999023438</ele>
        <time>2023-07-19T09:11:02.000Z</time>
      </trkpt>
      <trkpt lat="42.60135" lon="1.94763">
        <ele>2283.6000976562</ele>
        <time>2023-07-19T09:11:10.000Z</time>
      </trkpt>
      <trkpt lat="42.60133" lon="1.94759">
        <ele>2283.8000488281</ele>
        <time>2023-07-19T09:11:17.000Z</time>
      </trkpt>
      <trkpt lat="42.60135" lon="1.94751">
        <ele>2284</ele>
        <time>2023-07-19T09:11:24.000Z</time>
      </trkpt>
      <trkpt lat="42.60136" lon="1.94746">
        <ele>2284.6000976562</ele>
        <time>2023-07-19T09:11:27.000Z</time>
      </trkpt>
      <trkpt lat="42.60137" lon="1.94739">
        <ele>2285.3999023438</ele>
        <time>2023-07-19T09:11:31.000Z</time>
      </trkpt>
      <trkpt lat="42.60137" lon="1.94738">
        <ele>2285.8000488281</ele>
        <time>2023-07-19T09:11:33.000Z</time>
      </trkpt>
      <trkpt lat="42.60136" lon="1.94735">
        <ele>2286.1999511719</ele>
        <time>2023-07-19T09:11:37.000Z</time>
      </trkpt>
      <trkpt lat="42.60135" lon="1.94731">
        <ele>2287</ele>
        <time>2023-07-19T09:11:40.000Z</time>
      </trkpt>
      <trkpt lat="42.60134" lon="1.94725">
        <ele>2287.6000976562</ele>
        <time>2023-07-19T09:11:44.000Z</time>
      </trkpt>
      <trkpt lat="42.60133" lon="1.94719">
        <ele>2288.1999511719</ele>
        <time>2023-07-19T09:11:49.000Z</time>
      </trkpt>
      <trkpt lat="42.60133" lon="1.94715">
        <ele>2288.3999023438</ele>
        <time>2023-07-19T09:11:52.000Z</time>
      </trkpt>
      <trkpt lat="42.60134" lon="1.94708">
        <ele>2289.8000488281</ele>
        <time>2023-07-19T09:11:57.000Z</time>
      </trkpt>
      <trkpt lat="42.60134" lon="1.94702">
        <ele>2290.3999023438</ele>
        <time>2023-07-19T09:12:01.000Z</time>
      </trkpt>
      <trkpt lat="42.60136" lon="1.94691">
        <ele>2290</ele>
        <time>2023-07-19T09:12:10.000Z</time>
      </trkpt>
      <trkpt lat="42.60135" lon="1.94683">
        <ele>2290.6000976562</ele>
        <time>2023-07-19T09:12:18.000Z</time>
      </trkpt>
      <trkpt lat="42.60135" lon="1.94682">
        <ele>2290.8000488281</ele>
        <time>2023-07-19T09:12:19.000Z</time>
      </trkpt>
      <trkpt lat="42.60135" lon="1.9467">
        <ele>2291.3999023438</ele>
        <time>2023-07-19T09:12:27.000Z</time>
      </trkpt>
      <trkpt lat="42.60134" lon="1.94667">
        <ele>2291.8000488281</ele>
        <time>2023-07-19T09:12:30.000Z</time>
      </trkpt>
      <trkpt lat="42.60133" lon="1.94665">
        <ele>2293</ele>
        <time>2023-07-19T09:12:32.000Z</time>
      </trkpt>
      <trkpt lat="42.60133" lon="1.94663">
        <ele>2293.3999023438</ele>
        <time>2023-07-19T09:12:34.000Z</time>
      </trkpt>
      <trkpt lat="42.60132" lon="1.94658">
        <ele>2294</ele>
        <time>2023-07-19T09:12:38.000Z</time>
      </trkpt>
      <trkpt lat="42.60131" lon="1.94657">
        <ele>2294.3999023438</ele>
        <time>2023-07-19T09:12:43.000Z</time>
      </trkpt>
      <trkpt lat="42.60128" lon="1.94651">
        <ele>2294.6000976562</ele>
        <time>2023-07-19T09:12:49.000Z</time>
      </trkpt>
      <trkpt lat="42.60127" lon="1.94641">
        <ele>2295</ele>
        <time>2023-07-19T09:12:55.000Z</time>
      </trkpt>
      <trkpt lat="42.60128" lon="1.94638">
        <ele>2295</ele>
        <time>2023-07-19T09:12:57.000Z</time>
      </trkpt>
      <trkpt lat="42.6013" lon="1.94627">
        <ele>2295.8000488281</ele>
        <time>2023-07-19T09:13:04.000Z</time>
      </trkpt>
      <trkpt lat="42.60131" lon="1.94616">
        <ele>2296</ele>
        <time>2023-07-19T09:13:10.000Z</time>
      </trkpt>
      <trkpt lat="42.60131" lon="1.94615">
        <ele>2296</ele>
        <time>2023-07-19T09:13:11.000Z</time>
      </trkpt>
      <trkpt lat="42.60132" lon="1.94607">
        <ele>2296.8000488281</ele>
        <time>2023-07-19T09:13:19.000Z</time>
      </trkpt>
      <trkpt lat="42.60131" lon="1.946">
        <ele>2297.1999511719</ele>
        <time>2023-07-19T09:13:22.000Z</time>
      </trkpt>
      <trkpt lat="42.6013" lon="1.94595">
        <ele>2297.6000976562</ele>
        <time>2023-07-19T09:13:26.000Z</time>
      </trkpt>
      <trkpt lat="42.60129" lon="1.94581">
        <ele>2298.1999511719</ele>
        <time>2023-07-19T09:13:35.000Z</time>
      </trkpt>
      <trkpt lat="42.60129" lon="1.9458">
        <ele>2298.1999511719</ele>
        <time>2023-07-19T09:13:36.000Z</time>
      </trkpt>
      <trkpt lat="42.60128" lon="1.94565">
        <ele>2298.3999023438</ele>
        <time>2023-07-19T09:13:45.000Z</time>
      </trkpt>
      <trkpt lat="42.60127" lon="1.94548">
        <ele>2298</ele>
        <time>2023-07-19T09:13:56.000Z</time>
      </trkpt>
      <trkpt lat="42.60127" lon="1.94539">
        <ele>2297.6000976562</ele>
        <time>2023-07-19T09:14:02.000Z</time>
      </trkpt>
      <trkpt lat="42.60127" lon="1.94536">
        <ele>2297.6000976562</ele>
        <time>2023-07-19T09:14:05.000Z</time>
      </trkpt>
      <trkpt lat="42.60126" lon="1.94527">
        <ele>2297.6000976562</ele>
        <time>2023-07-19T09:14:11.000Z</time>
      </trkpt>
      <trkpt lat="42.60126" lon="1.94511">
        <ele>2297.8000488281</ele>
        <time>2023-07-19T09:14:20.000Z</time>
      </trkpt>
      <trkpt lat="42.60127" lon="1.94495">
        <ele>2297.6000976562</ele>
        <time>2023-07-19T09:14:28.000Z</time>
      </trkpt>
      <trkpt lat="42.60128" lon="1.94486">
        <ele>2299</ele>
        <time>2023-07-19T09:14:36.000Z</time>
      </trkpt>
      <trkpt lat="42.60128" lon="1.94483">
        <ele>2299.1999511719</ele>
        <time>2023-07-19T09:14:38.000Z</time>
      </trkpt>
      <trkpt lat="42.60128" lon="1.94475">
        <ele>2299.8000488281</ele>
        <time>2023-07-19T09:14:43.000Z</time>
      </trkpt>
      <trkpt lat="42.60127" lon="1.94464">
        <ele>2300</ele>
        <time>2023-07-19T09:14:50.000Z</time>
      </trkpt>
      <trkpt lat="42.6012" lon="1.94451">
        <ele>2299.8000488281</ele>
        <time>2023-07-19T09:14:58.000Z</time>
      </trkpt>
      <trkpt lat="42.60111" lon="1.94437">
        <ele>2298.3999023438</ele>
        <time>2023-07-19T09:15:09.000Z</time>
      </trkpt>
      <trkpt lat="42.60109" lon="1.94433">
        <ele>2298.1999511719</ele>
        <time>2023-07-19T09:15:11.000Z</time>
      </trkpt>
      <trkpt lat="42.60107" lon="1.94426">
        <ele>2297.8000488281</ele>
        <time>2023-07-19T09:15:16.000Z</time>
      </trkpt>
      <trkpt lat="42.60104" lon="1.94412">
        <ele>2297.6000976562</ele>
        <time>2023-07-19T09:15:26.000Z</time>
      </trkpt>
      <trkpt lat="42.60106" lon="1.94409">
        <ele>2297.3999023438</ele>
        <time>2023-07-19T09:15:34.000Z</time>
      </trkpt>
      <trkpt lat="42.60106" lon="1.9441">
        <ele>2297.6000976562</ele>
        <time>2023-07-19T09:15:35.000Z</time>
      </trkpt>
      <trkpt lat="42.60103" lon="1.9441">
        <ele>2298</ele>
        <time>2023-07-19T09:15:45.000Z</time>
      </trkpt>
      <trkpt lat="42.60103" lon="1.94397">
        <ele>2297</ele>
        <time>2023-07-19T09:15:52.000Z</time>
      </trkpt>
      <trkpt lat="42.60105" lon="1.94388">
        <ele>2296.8000488281</ele>
        <time>2023-07-19T09:16:00.000Z</time>
      </trkpt>
      <trkpt lat="42.60105" lon="1.94389">
        <ele>2296.3999023438</ele>
        <time>2023-07-19T09:16:04.000Z</time>
      </trkpt>
      <trkpt lat="42.60108" lon="1.94381">
        <ele>2296.1999511719</ele>
        <time>2023-07-19T09:16:12.000Z</time>
      </trkpt>
      <trkpt lat="42.60107" lon="1.94377">
        <ele>2296</ele>
        <time>2023-07-19T09:16:15.000Z</time>
      </trkpt>
      <trkpt lat="42.60103" lon="1.94368">
        <ele>2296</ele>
        <time>2023-07-19T09:16:21.000Z</time>
      </trkpt>
      <trkpt lat="42.60103" lon="1.94356">
        <ele>2296.8000488281</ele>
        <time>2023-07-19T09:16:30.000Z</time>
      </trkpt>
      <trkpt lat="42.60104" lon="1.94353">
        <ele>2297.3999023438</ele>
        <time>2023-07-19T09:16:32.000Z</time>
      </trkpt>
      <trkpt lat="42.60105" lon="1.94344">
        <ele>2298</ele>
        <time>2023-07-19T09:16:37.000Z</time>
      </trkpt>
      <trkpt lat="42.60108" lon="1.94343">
        <ele>2298.6000976562</ele>
        <time>2023-07-19T09:16:41.000Z</time>
      </trkpt>
      <trkpt lat="42.60109" lon="1.94343">
        <ele>2299</ele>
        <time>2023-07-19T09:16:42.000Z</time>
      </trkpt>
      <trkpt lat="42.6011" lon="1.94339">
        <ele>2298.6000976562</ele>
        <time>2023-07-19T09:16:48.000Z</time>
      </trkpt>
      <trkpt lat="42.60109" lon="1.94339">
        <ele>2299</ele>
        <time>2023-07-19T09:16:57.000Z</time>
      </trkpt>
      <trkpt lat="42.6011" lon="1.94338">
        <ele>2298.8000488281</ele>
        <time>2023-07-19T09:17:05.000Z</time>
      </trkpt>
      <trkpt lat="42.60115" lon="1.94327">
        <ele>2298.8000488281</ele>
        <time>2023-07-19T09:17:14.000Z</time>
      </trkpt>
      <trkpt lat="42.60116" lon="1.94312">
        <ele>2298.8000488281</ele>
        <time>2023-07-19T09:17:23.000Z</time>
      </trkpt>
      <trkpt lat="42.60116" lon="1.943">
        <ele>2298.8000488281</ele>
        <time>2023-07-19T09:17:31.000Z</time>
      </trkpt>
      <trkpt lat="42.60114" lon="1.9429">
        <ele>2298.6000976562</ele>
        <time>2023-07-19T09:17:37.000Z</time>
      </trkpt>
      <trkpt lat="42.60112" lon="1.94275">
        <ele>2299.3999023438</ele>
        <time>2023-07-19T09:17:46.000Z</time>
      </trkpt>
      <trkpt lat="42.60114" lon="1.94269">
        <ele>2299.6000976562</ele>
        <time>2023-07-19T09:17:50.000Z</time>
      </trkpt>
      <trkpt lat="42.60117" lon="1.94263">
        <ele>2299.8000488281</ele>
        <time>2023-07-19T09:17:54.000Z</time>
      </trkpt>
      <trkpt lat="42.60119" lon="1.94254">
        <ele>2300.1999511719</ele>
        <time>2023-07-19T09:18:00.000Z</time>
      </trkpt>
      <trkpt lat="42.60122" lon="1.94243">
        <ele>2300.1999511719</ele>
        <time>2023-07-19T09:18:09.000Z</time>
      </trkpt>
      <trkpt lat="42.6012" lon="1.94232">
        <ele>2300.6000976562</ele>
        <time>2023-07-19T09:18:16.000Z</time>
      </trkpt>
      <trkpt lat="42.60119" lon="1.9423">
        <ele>2300.8000488281</ele>
        <time>2023-07-19T09:18:17.000Z</time>
      </trkpt>
      <trkpt lat="42.60114" lon="1.94219">
        <ele>2301</ele>
        <time>2023-07-19T09:18:25.000Z</time>
      </trkpt>
      <trkpt lat="42.60114" lon="1.94219">
        <ele>2301.1999511719</ele>
        <time>2023-07-19T09:18:26.000Z</time>
      </trkpt>
      <trkpt lat="42.60114" lon="1.9422">
        <ele>2301.3999023438</ele>
        <time>2023-07-19T09:18:30.000Z</time>
      </trkpt>
      <trkpt lat="42.60112" lon="1.94218">
        <ele>2301.1999511719</ele>
        <time>2023-07-19T09:18:34.000Z</time>
      </trkpt>
      <trkpt lat="42.60111" lon="1.94216">
        <ele>2301</ele>
        <time>2023-07-19T09:18:37.000Z</time>
      </trkpt>
      <trkpt lat="42.6011" lon="1.94208">
        <ele>2301.8000488281</ele>
        <time>2023-07-19T09:18:43.000Z</time>
      </trkpt>
      <trkpt lat="42.60109" lon="1.94206">
        <ele>2302.1999511719</ele>
        <time>2023-07-19T09:18:44.000Z</time>
      </trkpt>
      <trkpt lat="42.60108" lon="1.94195">
        <ele>2302.8000488281</ele>
        <time>2023-07-19T09:18:52.000Z</time>
      </trkpt>
      <trkpt lat="42.60107" lon="1.94189">
        <ele>2301.8000488281</ele>
        <time>2023-07-19T09:18:58.000Z</time>
      </trkpt>
      <trkpt lat="42.60105" lon="1.94182">
        <ele>2301.6000976562</ele>
        <time>2023-07-19T09:19:03.000Z</time>
      </trkpt>
      <trkpt lat="42.60101" lon="1.94171">
        <ele>2302</ele>
        <time>2023-07-19T09:19:13.000Z</time>
      </trkpt>
      <trkpt lat="42.60095" lon="1.94166">
        <ele>2302.3999023438</ele>
        <time>2023-07-19T09:19:19.000Z</time>
      </trkpt>
      <trkpt lat="42.60093" lon="1.94163">
        <ele>2302.8000488281</ele>
        <time>2023-07-19T09:19:22.000Z</time>
      </trkpt>
      <trkpt lat="42.60089" lon="1.94157">
        <ele>2303.6000976562</ele>
        <time>2023-07-19T09:19:28.000Z</time>
      </trkpt>
      <trkpt lat="42.60088" lon="1.94154">
        <ele>2303.8000488281</ele>
        <time>2023-07-19T09:19:31.000Z</time>
      </trkpt>
      <trkpt lat="42.60086" lon="1.94148">
        <ele>2304.6000976562</ele>
        <time>2023-07-19T09:19:36.000Z</time>
      </trkpt>
      <trkpt lat="42.60084" lon="1.9414">
        <ele>2305</ele>
        <time>2023-07-19T09:19:41.000Z</time>
      </trkpt>
      <trkpt lat="42.60083" lon="1.94136">
        <ele>2305.1999511719</ele>
        <time>2023-07-19T09:19:44.000Z</time>
      </trkpt>
      <trkpt lat="42.60076" lon="1.94125">
        <ele>2305.3999023438</ele>
        <time>2023-07-19T09:19:53.000Z</time>
      </trkpt>
      <trkpt lat="42.60071" lon="1.94117">
        <ele>2305.1999511719</ele>
        <time>2023-07-19T09:20:00.000Z</time>
      </trkpt>
      <trkpt lat="42.60065" lon="1.94104">
        <ele>2305.8000488281</ele>
        <time>2023-07-19T09:20:10.000Z</time>
      </trkpt>
      <trkpt lat="42.60062" lon="1.94098">
        <ele>2306</ele>
        <time>2023-07-19T09:20:14.000Z</time>
      </trkpt>
      <trkpt lat="42.60057" lon="1.94088">
        <ele>2306</ele>
        <time>2023-07-19T09:20:20.000Z</time>
      </trkpt>
      <trkpt lat="42.60051" lon="1.94075">
        <ele>2306.3999023438</ele>
        <time>2023-07-19T09:20:30.000Z</time>
      </trkpt>
      <trkpt lat="42.60045" lon="1.94058">
        <ele>2307</ele>
        <time>2023-07-19T09:20:42.000Z</time>
      </trkpt>
      <trkpt lat="42.60043" lon="1.94055">
        <ele>2307</ele>
        <time>2023-07-19T09:20:45.000Z</time>
      </trkpt>
      <trkpt lat="42.60039" lon="1.94048">
        <ele>2307.6000976562</ele>
        <time>2023-07-19T09:20:50.000Z</time>
      </trkpt>
      <trkpt lat="42.60033" lon="1.94034">
        <ele>2308.1999511719</ele>
        <time>2023-07-19T09:20:59.000Z</time>
      </trkpt>
      <trkpt lat="42.60029" lon="1.94024">
        <ele>2308.3999023438</ele>
        <time>2023-07-19T09:21:07.000Z</time>
      </trkpt>
      <trkpt lat="42.60022" lon="1.94008">
        <ele>2308.8000488281</ele>
        <time>2023-07-19T09:21:17.000Z</time>
      </trkpt>
      <trkpt lat="42.6002" lon="1.94">
        <ele>2309.1999511719</ele>
        <time>2023-07-19T09:21:22.000Z</time>
      </trkpt>
      <trkpt lat="42.60019" lon="1.93997">
        <ele>2309.3999023438</ele>
        <time>2023-07-19T09:21:24.000Z</time>
      </trkpt>
      <trkpt lat="42.60019" lon="1.93995">
        <ele>2309.6000976562</ele>
        <time>2023-07-19T09:21:31.000Z</time>
      </trkpt>
      <trkpt lat="42.60017" lon="1.93989">
        <ele>2309.3999023438</ele>
        <time>2023-07-19T09:21:39.000Z</time>
      </trkpt>
      <trkpt lat="42.60016" lon="1.93986">
        <ele>2309.3999023438</ele>
        <time>2023-07-19T09:21:45.000Z</time>
      </trkpt>
      <trkpt lat="42.60018" lon="1.93986">
        <ele>2309.1999511719</ele>
        <time>2023-07-19T09:21:51.000Z</time>
      </trkpt>
      <trkpt lat="42.60016" lon="1.93986">
        <ele>2309.3999023438</ele>
        <time>2023-07-19T09:21:58.000Z</time>
      </trkpt>
      <trkpt lat="42.60013" lon="1.93984">
        <ele>2309.3999023438</ele>
        <time>2023-07-19T09:22:04.000Z</time>
      </trkpt>
      <trkpt lat="42.60006" lon="1.93972">
        <ele>2309.8000488281</ele>
        <time>2023-07-19T09:22:13.000Z</time>
      </trkpt>
      <trkpt lat="42.60004" lon="1.93969">
        <ele>2310.1999511719</ele>
        <time>2023-07-19T09:22:16.000Z</time>
      </trkpt>
      <trkpt lat="42.60001" lon="1.93963">
        <ele>2310.6000976562</ele>
        <time>2023-07-19T09:22:21.000Z</time>
      </trkpt>
      <trkpt lat="42.59997" lon="1.93956">
        <ele>2311.3999023438</ele>
        <time>2023-07-19T09:22:28.000Z</time>
      </trkpt>
      <trkpt lat="42.59996" lon="1.93955">
        <ele>2311.6000976562</ele>
        <time>2023-07-19T09:22:29.000Z</time>
      </trkpt>
      <trkpt lat="42.59992" lon="1.93949">
        <ele>2312.3999023438</ele>
        <time>2023-07-19T09:22:36.000Z</time>
      </trkpt>
      <trkpt lat="42.5999" lon="1.93946">
        <ele>2313</ele>
        <time>2023-07-19T09:22:39.000Z</time>
      </trkpt>
      <trkpt lat="42.59989" lon="1.93944">
        <ele>2313.3999023438</ele>
        <time>2023-07-19T09:22:41.000Z</time>
      </trkpt>
      <trkpt lat="42.59987" lon="1.9394">
        <ele>2314.3999023438</ele>
        <time>2023-07-19T09:22:46.000Z</time>
      </trkpt>
      <trkpt lat="42.59986" lon="1.93939">
        <ele>2314.6000976562</ele>
        <time>2023-07-19T09:22:47.000Z</time>
      </trkpt>
      <trkpt lat="42.59984" lon="1.93933">
        <ele>2315.6000976562</ele>
        <time>2023-07-19T09:22:54.000Z</time>
      </trkpt>
      <trkpt lat="42.59983" lon="1.93933">
        <ele>2315.8000488281</ele>
        <time>2023-07-19T09:22:55.000Z</time>
      </trkpt>
      <trkpt lat="42.59981" lon="1.93928">
        <ele>2316.8000488281</ele>
        <time>2023-07-19T09:23:01.000Z</time>
      </trkpt>
      <trkpt lat="42.5998" lon="1.93924">
        <ele>2317.8000488281</ele>
        <time>2023-07-19T09:23:10.000Z</time>
      </trkpt>
      <trkpt lat="42.5998" lon="1.93923">
        <ele>2317.8000488281</ele>
        <time>2023-07-19T09:23:11.000Z</time>
      </trkpt>
      <trkpt lat="42.59981" lon="1.93918">
        <ele>2318.8000488281</ele>
        <time>2023-07-19T09:23:17.000Z</time>
      </trkpt>
      <trkpt lat="42.59981" lon="1.93917">
        <ele>2319</ele>
        <time>2023-07-19T09:23:18.000Z</time>
      </trkpt>
      <trkpt lat="42.5998" lon="1.93914">
        <ele>2319.8000488281</ele>
        <time>2023-07-19T09:23:24.000Z</time>
      </trkpt>
      <trkpt lat="42.59979" lon="1.93912">
        <ele>2320</ele>
        <time>2023-07-19T09:23:26.000Z</time>
      </trkpt>
      <trkpt lat="42.59978" lon="1.93908">
        <ele>2321.1999511719</ele>
        <time>2023-07-19T09:23:31.000Z</time>
      </trkpt>
      <trkpt lat="42.59978" lon="1.93906">
        <ele>2321.3999023438</ele>
        <time>2023-07-19T09:23:33.000Z</time>
      </trkpt>
      <trkpt lat="42.59977" lon="1.93902">
        <ele>2322.1999511719</ele>
        <time>2023-07-19T09:23:38.000Z</time>
      </trkpt>
      <trkpt lat="42.59977" lon="1.93901">
        <ele>2322.6000976562</ele>
        <time>2023-07-19T09:23:41.000Z</time>
      </trkpt>
      <trkpt lat="42.59977" lon="1.93898">
        <ele>2323.1999511719</ele>
        <time>2023-07-19T09:23:47.000Z</time>
      </trkpt>
      <trkpt lat="42.59978" lon="1.93893">
        <ele>2324.1999511719</ele>
        <time>2023-07-19T09:23:55.000Z</time>
      </trkpt>
      <trkpt lat="42.59979" lon="1.93891">
        <ele>2324.3999023438</ele>
        <time>2023-07-19T09:23:57.000Z</time>
      </trkpt>
      <trkpt lat="42.59978" lon="1.93885">
        <ele>2325</ele>
        <time>2023-07-19T09:24:03.000Z</time>
      </trkpt>
      <trkpt lat="42.59977" lon="1.93882">
        <ele>2325.6000976562</ele>
        <time>2023-07-19T09:24:06.000Z</time>
      </trkpt>
      <trkpt lat="42.59975" lon="1.93878">
        <ele>2326.1999511719</ele>
        <time>2023-07-19T09:24:10.000Z</time>
      </trkpt>
      <trkpt lat="42.59974" lon="1.93875">
        <ele>2326.8000488281</ele>
        <time>2023-07-19T09:24:13.000Z</time>
      </trkpt>
      <trkpt lat="42.59973" lon="1.93869">
        <ele>2327.8000488281</ele>
        <time>2023-07-19T09:24:18.000Z</time>
      </trkpt>
      <trkpt lat="42.59974" lon="1.93864">
        <ele>2328.6000976562</ele>
        <time>2023-07-19T09:24:25.000Z</time>
      </trkpt>
      <trkpt lat="42.59974" lon="1.93862">
        <ele>2328.8000488281</ele>
        <time>2023-07-19T09:24:28.000Z</time>
      </trkpt>
      <trkpt lat="42.59973" lon="1.93859">
        <ele>2329.8000488281</ele>
        <time>2023-07-19T09:24:32.000Z</time>
      </trkpt>
      <trkpt lat="42.59972" lon="1.93858">
        <ele>2329.8000488281</ele>
        <time>2023-07-19T09:24:33.000Z</time>
      </trkpt>
      <trkpt lat="42.59972" lon="1.93847">
        <ele>2330.8000488281</ele>
        <time>2023-07-19T09:24:43.000Z</time>
      </trkpt>
      <trkpt lat="42.59971" lon="1.93846">
        <ele>2331.1999511719</ele>
        <time>2023-07-19T09:24:44.000Z</time>
      </trkpt>
      <trkpt lat="42.59971" lon="1.93839">
        <ele>2331.6000976562</ele>
        <time>2023-07-19T09:24:50.000Z</time>
      </trkpt>
      <trkpt lat="42.5997" lon="1.9383">
        <ele>2332.1999511719</ele>
        <time>2023-07-19T09:24:57.000Z</time>
      </trkpt>
      <trkpt lat="42.59969" lon="1.93829">
        <ele>2332.3999023438</ele>
        <time>2023-07-19T09:24:58.000Z</time>
      </trkpt>
      <trkpt lat="42.59966" lon="1.93824">
        <ele>2333.3999023438</ele>
        <time>2023-07-19T09:25:06.000Z</time>
      </trkpt>
      <trkpt lat="42.59965" lon="1.93823">
        <ele>2333.6000976562</ele>
        <time>2023-07-19T09:25:07.000Z</time>
      </trkpt>
      <trkpt lat="42.59962" lon="1.93816">
        <ele>2334.6000976562</ele>
        <time>2023-07-19T09:25:13.000Z</time>
      </trkpt>
      <trkpt lat="42.59961" lon="1.93815">
        <ele>2334.6000976562</ele>
        <time>2023-07-19T09:25:14.000Z</time>
      </trkpt>
      <trkpt lat="42.59959" lon="1.93807">
        <ele>2335.3999023438</ele>
        <time>2023-07-19T09:25:22.000Z</time>
      </trkpt>
      <trkpt lat="42.59959" lon="1.93805">
        <ele>2335.8000488281</ele>
        <time>2023-07-19T09:25:24.000Z</time>
      </trkpt>
      <trkpt lat="42.59958" lon="1.938">
        <ele>2336.8000488281</ele>
        <time>2023-07-19T09:25:29.000Z</time>
      </trkpt>
      <trkpt lat="42.59957" lon="1.93799">
        <ele>2337</ele>
        <time>2023-07-19T09:25:30.000Z</time>
      </trkpt>
      <trkpt lat="42.59956" lon="1.93792">
        <ele>2337.8000488281</ele>
        <time>2023-07-19T09:25:36.000Z</time>
      </trkpt>
      <trkpt lat="42.59956" lon="1.93791">
        <ele>2338</ele>
        <time>2023-07-19T09:25:37.000Z</time>
      </trkpt>
      <trkpt lat="42.59955" lon="1.93787">
        <ele>2338.8000488281</ele>
        <time>2023-07-19T09:25:43.000Z</time>
      </trkpt>
      <trkpt lat="42.59955" lon="1.93783">
        <ele>2339.1999511719</ele>
        <time>2023-07-19T09:25:47.000Z</time>
      </trkpt>
      <trkpt lat="42.59954" lon="1.9378">
        <ele>2340</ele>
        <time>2023-07-19T09:25:50.000Z</time>
      </trkpt>
      <trkpt lat="42.59954" lon="1.93776">
        <ele>2340.8000488281</ele>
        <time>2023-07-19T09:25:57.000Z</time>
      </trkpt>
      <trkpt lat="42.59953" lon="1.93774">
        <ele>2341</ele>
        <time>2023-07-19T09:26:00.000Z</time>
      </trkpt>
      <trkpt lat="42.59952" lon="1.93771">
        <ele>2341.8000488281</ele>
        <time>2023-07-19T09:26:05.000Z</time>
      </trkpt>
      <trkpt lat="42.59952" lon="1.93769">
        <ele>2342</ele>
        <time>2023-07-19T09:26:06.000Z</time>
      </trkpt>
      <trkpt lat="42.59948" lon="1.9376">
        <ele>2343</ele>
        <time>2023-07-19T09:26:13.000Z</time>
      </trkpt>
      <trkpt lat="42.59947" lon="1.93759">
        <ele>2343.1999511719</ele>
        <time>2023-07-19T09:26:15.000Z</time>
      </trkpt>
      <trkpt lat="42.59945" lon="1.93756">
        <ele>2344.1999511719</ele>
        <time>2023-07-19T09:26:20.000Z</time>
      </trkpt>
      <trkpt lat="42.59944" lon="1.93754">
        <ele>2344.6000976562</ele>
        <time>2023-07-19T09:26:22.000Z</time>
      </trkpt>
      <trkpt lat="42.59942" lon="1.93749">
        <ele>2345.1999511719</ele>
        <time>2023-07-19T09:26:29.000Z</time>
      </trkpt>
      <trkpt lat="42.59942" lon="1.93748">
        <ele>2345.3999023438</ele>
        <time>2023-07-19T09:26:30.000Z</time>
      </trkpt>
      <trkpt lat="42.59938" lon="1.93741">
        <ele>2346.3999023438</ele>
        <time>2023-07-19T09:26:38.000Z</time>
      </trkpt>
      <trkpt lat="42.59938" lon="1.9374">
        <ele>2346.6000976562</ele>
        <time>2023-07-19T09:26:39.000Z</time>
      </trkpt>
      <trkpt lat="42.59936" lon="1.93736">
        <ele>2347.6000976562</ele>
        <time>2023-07-19T09:26:44.000Z</time>
      </trkpt>
      <trkpt lat="42.59936" lon="1.93734">
        <ele>2348</ele>
        <time>2023-07-19T09:26:47.000Z</time>
      </trkpt>
      <trkpt lat="42.59934" lon="1.93729">
        <ele>2348.6000976562</ele>
        <time>2023-07-19T09:26:52.000Z</time>
      </trkpt>
      <trkpt lat="42.59933" lon="1.93726">
        <ele>2349</ele>
        <time>2023-07-19T09:26:56.000Z</time>
      </trkpt>
      <trkpt lat="42.59931" lon="1.93722">
        <ele>2349.8000488281</ele>
        <time>2023-07-19T09:27:00.000Z</time>
      </trkpt>
      <trkpt lat="42.5993" lon="1.9372">
        <ele>2350.3999023438</ele>
        <time>2023-07-19T09:27:05.000Z</time>
      </trkpt>
      <trkpt lat="42.59931" lon="1.93719">
        <ele>2351</ele>
        <time>2023-07-19T09:27:08.000Z</time>
      </trkpt>
      <trkpt lat="42.59931" lon="1.93716">
        <ele>2352.1999511719</ele>
        <time>2023-07-19T09:27:13.000Z</time>
      </trkpt>
      <trkpt lat="42.59931" lon="1.93714">
        <ele>2352.3999023438</ele>
        <time>2023-07-19T09:27:15.000Z</time>
      </trkpt>
      <trkpt lat="42.5993" lon="1.93712">
        <ele>2353.1999511719</ele>
        <time>2023-07-19T09:27:19.000Z</time>
      </trkpt>
      <trkpt lat="42.5993" lon="1.93708">
        <ele>2353.8000488281</ele>
        <time>2023-07-19T09:27:23.000Z</time>
      </trkpt>
      <trkpt lat="42.5993" lon="1.93706">
        <ele>2354.3999023438</ele>
        <time>2023-07-19T09:27:27.000Z</time>
      </trkpt>
      <trkpt lat="42.5993" lon="1.93703">
        <ele>2354.6000976562</ele>
        <time>2023-07-19T09:27:29.000Z</time>
      </trkpt>
      <trkpt lat="42.59928" lon="1.93698">
        <ele>2355.3999023438</ele>
        <time>2023-07-19T09:27:38.000Z</time>
      </trkpt>
      <trkpt lat="42.59927" lon="1.93694">
        <ele>2356</ele>
        <time>2023-07-19T09:27:44.000Z</time>
      </trkpt>
      <trkpt lat="42.59927" lon="1.93694">
        <ele>2356.3999023438</ele>
        <time>2023-07-19T09:27:47.000Z</time>
      </trkpt>
      <trkpt lat="42.59924" lon="1.93686">
        <ele>2357.3999023438</ele>
        <time>2023-07-19T09:27:54.000Z</time>
      </trkpt>
      <trkpt lat="42.59924" lon="1.93685">
        <ele>2357.3999023438</ele>
        <time>2023-07-19T09:27:55.000Z</time>
      </trkpt>
      <trkpt lat="42.59921" lon="1.93682">
        <ele>2358.6000976562</ele>
        <time>2023-07-19T09:28:02.000Z</time>
      </trkpt>
      <trkpt lat="42.59917" lon="1.93681">
        <ele>2359.8000488281</ele>
        <time>2023-07-19T09:28:09.000Z</time>
      </trkpt>
      <trkpt lat="42.5992" lon="1.93678">
        <ele>2360.3999023438</ele>
        <time>2023-07-19T09:28:15.000Z</time>
      </trkpt>
      <trkpt lat="42.5992" lon="1.93676">
        <ele>2360.8000488281</ele>
        <time>2023-07-19T09:28:18.000Z</time>
      </trkpt>
      <trkpt lat="42.59921" lon="1.93673">
        <ele>2361.6000976562</ele>
        <time>2023-07-19T09:28:22.000Z</time>
      </trkpt>
      <trkpt lat="42.59921" lon="1.93673">
        <ele>2362.1999511719</ele>
        <time>2023-07-19T09:28:24.000Z</time>
      </trkpt>
      <trkpt lat="42.59921" lon="1.9367">
        <ele>2363</ele>
        <time>2023-07-19T09:28:29.000Z</time>
      </trkpt>
      <trkpt lat="42.59921" lon="1.9367">
        <ele>2363.1999511719</ele>
        <time>2023-07-19T09:28:30.000Z</time>
      </trkpt>
      <trkpt lat="42.59919" lon="1.93666">
        <ele>2364.3999023438</ele>
        <time>2023-07-19T09:28:36.000Z</time>
      </trkpt>
      <trkpt lat="42.59919" lon="1.93665">
        <ele>2364.6000976562</ele>
        <time>2023-07-19T09:28:37.000Z</time>
      </trkpt>
      <trkpt lat="42.59919" lon="1.93663">
        <ele>2365.3999023438</ele>
        <time>2023-07-19T09:28:41.000Z</time>
      </trkpt>
      <trkpt lat="42.59917" lon="1.93662">
        <ele>2366.1999511719</ele>
        <time>2023-07-19T09:28:46.000Z</time>
      </trkpt>
      <trkpt lat="42.59916" lon="1.93661">
        <ele>2366.6000976562</ele>
        <time>2023-07-19T09:28:48.000Z</time>
      </trkpt>
      <trkpt lat="42.59917" lon="1.9366">
        <ele>2367</ele>
        <time>2023-07-19T09:28:50.000Z</time>
      </trkpt>
      <trkpt lat="42.59919" lon="1.93656">
        <ele>2367.6000976562</ele>
        <time>2023-07-19T09:28:55.000Z</time>
      </trkpt>
      <trkpt lat="42.59923" lon="1.93655">
        <ele>2368.6000976562</ele>
        <time>2023-07-19T09:29:01.000Z</time>
      </trkpt>
      <trkpt lat="42.59923" lon="1.93655">
        <ele>2368.8000488281</ele>
        <time>2023-07-19T09:29:02.000Z</time>
      </trkpt>
      <trkpt lat="42.59924" lon="1.93653">
        <ele>2369.3999023438</ele>
        <time>2023-07-19T09:29:08.000Z</time>
      </trkpt>
      <trkpt lat="42.59925" lon="1.93652">
        <ele>2369.8000488281</ele>
        <time>2023-07-19T09:29:10.000Z</time>
      </trkpt>
      <trkpt lat="42.59929" lon="1.93652">
        <ele>2371</ele>
        <time>2023-07-19T09:29:16.000Z</time>
      </trkpt>
      <trkpt lat="42.59931" lon="1.93653">
        <ele>2371.3999023438</ele>
        <time>2023-07-19T09:29:18.000Z</time>
      </trkpt>
      <trkpt lat="42.59934" lon="1.93652">
        <ele>2372.1999511719</ele>
        <time>2023-07-19T09:29:23.000Z</time>
      </trkpt>
      <trkpt lat="42.59936" lon="1.9365">
        <ele>2372.3999023438</ele>
        <time>2023-07-19T09:29:27.000Z</time>
      </trkpt>
      <trkpt lat="42.59934" lon="1.93648">
        <ele>2373.1999511719</ele>
        <time>2023-07-19T09:29:32.000Z</time>
      </trkpt>
      <trkpt lat="42.59934" lon="1.93648">
        <ele>2373.3999023438</ele>
        <time>2023-07-19T09:29:33.000Z</time>
      </trkpt>
      <trkpt lat="42.59933" lon="1.93645">
        <ele>2374.3999023438</ele>
        <time>2023-07-19T09:29:37.000Z</time>
      </trkpt>
      <trkpt lat="42.59933" lon="1.93643">
        <ele>2374.8000488281</ele>
        <time>2023-07-19T09:29:40.000Z</time>
      </trkpt>
      <trkpt lat="42.59931" lon="1.93641">
        <ele>2375.6000976562</ele>
        <time>2023-07-19T09:29:44.000Z</time>
      </trkpt>
      <trkpt lat="42.59929" lon="1.93638">
        <ele>2376.1999511719</ele>
        <time>2023-07-19T09:29:48.000Z</time>
      </trkpt>
      <trkpt lat="42.59928" lon="1.93637">
        <ele>2376.6000976562</ele>
        <time>2023-07-19T09:29:51.000Z</time>
      </trkpt>
      <trkpt lat="42.59929" lon="1.93636">
        <ele>2377.3999023438</ele>
        <time>2023-07-19T09:29:55.000Z</time>
      </trkpt>
      <trkpt lat="42.59929" lon="1.93635">
        <ele>2377.8000488281</ele>
        <time>2023-07-19T09:29:56.000Z</time>
      </trkpt>
      <trkpt lat="42.59934" lon="1.93633">
        <ele>2378.8000488281</ele>
        <time>2023-07-19T09:30:03.000Z</time>
      </trkpt>
      <trkpt lat="42.59934" lon="1.93632">
        <ele>2379.1999511719</ele>
        <time>2023-07-19T09:30:04.000Z</time>
      </trkpt>
      <trkpt lat="42.59935" lon="1.9363">
        <ele>2380</ele>
        <time>2023-07-19T09:30:10.000Z</time>
      </trkpt>
      <trkpt lat="42.59935" lon="1.93629">
        <ele>2380.1999511719</ele>
        <time>2023-07-19T09:30:11.000Z</time>
      </trkpt>
      <trkpt lat="42.59935" lon="1.93628">
        <ele>2381</ele>
        <time>2023-07-19T09:30:15.000Z</time>
      </trkpt>
      <trkpt lat="42.59934" lon="1.93626">
        <ele>2381.8000488281</ele>
        <time>2023-07-19T09:30:18.000Z</time>
      </trkpt>
      <trkpt lat="42.59932" lon="1.93622">
        <ele>2382.1999511719</ele>
        <time>2023-07-19T09:30:24.000Z</time>
      </trkpt>
      <trkpt lat="42.59932" lon="1.93616">
        <ele>2383.3999023438</ele>
        <time>2023-07-19T09:30:31.000Z</time>
      </trkpt>
      <trkpt lat="42.59935" lon="1.93616">
        <ele>2384.6000976562</ele>
        <time>2023-07-19T09:30:36.000Z</time>
      </trkpt>
      <trkpt lat="42.59937" lon="1.93617">
        <ele>2385.6000976562</ele>
        <time>2023-07-19T09:30:40.000Z</time>
      </trkpt>
      <trkpt lat="42.59936" lon="1.93617">
        <ele>2385.6000976562</ele>
        <time>2023-07-19T09:30:41.000Z</time>
      </trkpt>
      <trkpt lat="42.59935" lon="1.93614">
        <ele>2386.6000976562</ele>
        <time>2023-07-19T09:30:47.000Z</time>
      </trkpt>
      <trkpt lat="42.59934" lon="1.93613">
        <ele>2386.8000488281</ele>
        <time>2023-07-19T09:30:48.000Z</time>
      </trkpt>
      <trkpt lat="42.59933" lon="1.93607">
        <ele>2387.3999023438</ele>
        <time>2023-07-19T09:30:54.000Z</time>
      </trkpt>
      <trkpt lat="42.59935" lon="1.93606">
        <ele>2388</ele>
        <time>2023-07-19T09:30:57.000Z</time>
      </trkpt>
      <trkpt lat="42.59938" lon="1.93605">
        <ele>2388.3999023438</ele>
        <time>2023-07-19T09:31:02.000Z</time>
      </trkpt>
      <trkpt lat="42.59939" lon="1.93604">
        <ele>2389</ele>
        <time>2023-07-19T09:31:05.000Z</time>
      </trkpt>
      <trkpt lat="42.5994" lon="1.93599">
        <ele>2390.1999511719</ele>
        <time>2023-07-19T09:31:11.000Z</time>
      </trkpt>
      <trkpt lat="42.59939" lon="1.93596">
        <ele>2391.1999511719</ele>
        <time>2023-07-19T09:31:16.000Z</time>
      </trkpt>
      <trkpt lat="42.59939" lon="1.93595">
        <ele>2391.6000976562</ele>
        <time>2023-07-19T09:31:19.000Z</time>
      </trkpt>
      <trkpt lat="42.59939" lon="1.93591">
        <ele>2392.1999511719</ele>
        <time>2023-07-19T09:31:28.000Z</time>
      </trkpt>
      <trkpt lat="42.59936" lon="1.93589">
        <ele>2393</ele>
        <time>2023-07-19T09:31:35.000Z</time>
      </trkpt>
      <trkpt lat="42.59936" lon="1.93589">
        <ele>2393.1999511719</ele>
        <time>2023-07-19T09:31:36.000Z</time>
      </trkpt>
      <trkpt lat="42.59934" lon="1.93589">
        <ele>2393.3999023438</ele>
        <time>2023-07-19T09:31:44.000Z</time>
      </trkpt>
      <trkpt lat="42.59934" lon="1.93589">
        <ele>2393.6000976562</ele>
        <time>2023-07-19T09:31:53.000Z</time>
      </trkpt>
      <trkpt lat="42.59935" lon="1.93582">
        <ele>2394.3999023438</ele>
        <time>2023-07-19T09:32:01.000Z</time>
      </trkpt>
      <trkpt lat="42.59935" lon="1.93582">
        <ele>2394.6000976562</ele>
        <time>2023-07-19T09:32:02.000Z</time>
      </trkpt>
      <trkpt lat="42.59935" lon="1.9358">
        <ele>2395.6000976562</ele>
        <time>2023-07-19T09:32:06.000Z</time>
      </trkpt>
      <trkpt lat="42.59936" lon="1.93577">
        <ele>2396.1999511719</ele>
        <time>2023-07-19T09:32:09.000Z</time>
      </trkpt>
      <trkpt lat="42.59936" lon="1.93576">
        <ele>2396.6000976562</ele>
        <time>2023-07-19T09:32:11.000Z</time>
      </trkpt>
      <trkpt lat="42.59939" lon="1.93575">
        <ele>2397.8000488281</ele>
        <time>2023-07-19T09:32:15.000Z</time>
      </trkpt>
      <trkpt lat="42.59941" lon="1.93574">
        <ele>2398</ele>
        <time>2023-07-19T09:32:16.000Z</time>
      </trkpt>
      <trkpt lat="42.59944" lon="1.9357">
        <ele>2398.8000488281</ele>
        <time>2023-07-19T09:32:22.000Z</time>
      </trkpt>
      <trkpt lat="42.59941" lon="1.93569">
        <ele>2399.1999511719</ele>
        <time>2023-07-19T09:32:25.000Z</time>
      </trkpt>
      <trkpt lat="42.59939" lon="1.93568">
        <ele>2399.8000488281</ele>
        <time>2023-07-19T09:32:29.000Z</time>
      </trkpt>
      <trkpt lat="42.59938" lon="1.93565">
        <ele>2400.1999511719</ele>
        <time>2023-07-19T09:32:32.000Z</time>
      </trkpt>
      <trkpt lat="42.59939" lon="1.93563">
        <ele>2401.1999511719</ele>
        <time>2023-07-19T09:32:36.000Z</time>
      </trkpt>
      <trkpt lat="42.59938" lon="1.93561">
        <ele>2402.1999511719</ele>
        <time>2023-07-19T09:32:41.000Z</time>
      </trkpt>
      <trkpt lat="42.59937" lon="1.93561">
        <ele>2402.1999511719</ele>
        <time>2023-07-19T09:32:42.000Z</time>
      </trkpt>
      <trkpt lat="42.59937" lon="1.93559">
        <ele>2403.1999511719</ele>
        <time>2023-07-19T09:32:46.000Z</time>
      </trkpt>
      <trkpt lat="42.59937" lon="1.93556">
        <ele>2403.8000488281</ele>
        <time>2023-07-19T09:32:49.000Z</time>
      </trkpt>
      <trkpt lat="42.59938" lon="1.93554">
        <ele>2404.3999023438</ele>
        <time>2023-07-19T09:32:52.000Z</time>
      </trkpt>
      <trkpt lat="42.5994" lon="1.93553">
        <ele>2405.3999023438</ele>
        <time>2023-07-19T09:32:57.000Z</time>
      </trkpt>
      <trkpt lat="42.59942" lon="1.93548">
        <ele>2406.6000976562</ele>
        <time>2023-07-19T09:33:05.000Z</time>
      </trkpt>
      <trkpt lat="42.59944" lon="1.93545">
        <ele>2407.6000976562</ele>
        <time>2023-07-19T09:33:12.000Z</time>
      </trkpt>
      <trkpt lat="42.59946" lon="1.93544">
        <ele>2408.6000976562</ele>
        <time>2023-07-19T09:33:17.000Z</time>
      </trkpt>
      <trkpt lat="42.59948" lon="1.93542">
        <ele>2409.6000976562</ele>
        <time>2023-07-19T09:33:21.000Z</time>
      </trkpt>
      <trkpt lat="42.59948" lon="1.93541">
        <ele>2409.8000488281</ele>
        <time>2023-07-19T09:33:22.000Z</time>
      </trkpt>
      <trkpt lat="42.59948" lon="1.93536">
        <ele>2411</ele>
        <time>2023-07-19T09:33:27.000Z</time>
      </trkpt>
      <trkpt lat="42.59948" lon="1.93534">
        <ele>2411.1999511719</ele>
        <time>2023-07-19T09:33:29.000Z</time>
      </trkpt>
      <trkpt lat="42.59948" lon="1.93532">
        <ele>2412</ele>
        <time>2023-07-19T09:33:35.000Z</time>
      </trkpt>
      <trkpt lat="42.59948" lon="1.9353">
        <ele>2412.3999023438</ele>
        <time>2023-07-19T09:33:37.000Z</time>
      </trkpt>
      <trkpt lat="42.59949" lon="1.93527">
        <ele>2413.1999511719</ele>
        <time>2023-07-19T09:33:41.000Z</time>
      </trkpt>
      <trkpt lat="42.5995" lon="1.93526">
        <ele>2413.6000976562</ele>
        <time>2023-07-19T09:33:43.000Z</time>
      </trkpt>
      <trkpt lat="42.59951" lon="1.93522">
        <ele>2414.3999023438</ele>
        <time>2023-07-19T09:33:47.000Z</time>
      </trkpt>
      <trkpt lat="42.59951" lon="1.9352">
        <ele>2414.8000488281</ele>
        <time>2023-07-19T09:33:50.000Z</time>
      </trkpt>
      <trkpt lat="42.59951" lon="1.93516">
        <ele>2415.3999023438</ele>
        <time>2023-07-19T09:33:54.000Z</time>
      </trkpt>
      <trkpt lat="42.59951" lon="1.93515">
        <ele>2415.8000488281</ele>
        <time>2023-07-19T09:33:57.000Z</time>
      </trkpt>
      <trkpt lat="42.59951" lon="1.93511">
        <ele>2416.3999023438</ele>
        <time>2023-07-19T09:34:03.000Z</time>
      </trkpt>
      <trkpt lat="42.59951" lon="1.93511">
        <ele>2416.6000976562</ele>
        <time>2023-07-19T09:34:04.000Z</time>
      </trkpt>
      <trkpt lat="42.5995" lon="1.93512">
        <ele>2416.8000488281</ele>
        <time>2023-07-19T09:34:08.000Z</time>
      </trkpt>
      <trkpt lat="42.59949" lon="1.93516">
        <ele>2416.1999511719</ele>
        <time>2023-07-19T09:34:16.000Z</time>
      </trkpt>
      <trkpt lat="42.5995" lon="1.93517">
        <ele>2415.6000976562</ele>
        <time>2023-07-19T09:34:25.000Z</time>
      </trkpt>
      <trkpt lat="42.59949" lon="1.93517">
        <ele>2415.8000488281</ele>
        <time>2023-07-19T09:34:31.000Z</time>
      </trkpt>
      <trkpt lat="42.59944" lon="1.93507">
        <ele>2417.3999023438</ele>
        <time>2023-07-19T09:34:40.000Z</time>
      </trkpt>
      <trkpt lat="42.59944" lon="1.93506">
        <ele>2417.3999023438</ele>
        <time>2023-07-19T09:34:41.000Z</time>
      </trkpt>
      <trkpt lat="42.59945" lon="1.93498">
        <ele>2418.8000488281</ele>
        <time>2023-07-19T09:34:47.000Z</time>
      </trkpt>
      <trkpt lat="42.59946" lon="1.93487">
        <ele>2419.8000488281</ele>
        <time>2023-07-19T09:34:56.000Z</time>
      </trkpt>
      <trkpt lat="42.59947" lon="1.93484">
        <ele>2419.8000488281</ele>
        <time>2023-07-19T09:34:58.000Z</time>
      </trkpt>
      <trkpt lat="42.59947" lon="1.93481">
        <ele>2421</ele>
        <time>2023-07-19T09:35:02.000Z</time>
      </trkpt>
      <trkpt lat="42.59947" lon="1.93478">
        <ele>2421.1999511719</ele>
        <time>2023-07-19T09:35:04.000Z</time>
      </trkpt>
      <trkpt lat="42.59947" lon="1.93473">
        <ele>2422</ele>
        <time>2023-07-19T09:35:08.000Z</time>
      </trkpt>
      <trkpt lat="42.59946" lon="1.93466">
        <ele>2422.8000488281</ele>
        <time>2023-07-19T09:35:13.000Z</time>
      </trkpt>
      <trkpt lat="42.59946" lon="1.93465">
        <ele>2423.1999511719</ele>
        <time>2023-07-19T09:35:14.000Z</time>
      </trkpt>
      <trkpt lat="42.59947" lon="1.9346">
        <ele>2424.3999023438</ele>
        <time>2023-07-19T09:35:19.000Z</time>
      </trkpt>
      <trkpt lat="42.59948" lon="1.93458">
        <ele>2425</ele>
        <time>2023-07-19T09:35:23.000Z</time>
      </trkpt>
      <trkpt lat="42.5995" lon="1.9345">
        <ele>2425.3999023438</ele>
        <time>2023-07-19T09:35:29.000Z</time>
      </trkpt>
      <trkpt lat="42.5995" lon="1.93448">
        <ele>2425.6000976562</ele>
        <time>2023-07-19T09:35:30.000Z</time>
      </trkpt>
      <trkpt lat="42.59949" lon="1.93439">
        <ele>2426.3999023438</ele>
        <time>2023-07-19T09:35:36.000Z</time>
      </trkpt>
      <trkpt lat="42.59946" lon="1.93431">
        <ele>2426.8000488281</ele>
        <time>2023-07-19T09:35:42.000Z</time>
      </trkpt>
      <trkpt lat="42.59945" lon="1.93429">
        <ele>2428.6000976562</ele>
        <time>2023-07-19T09:35:44.000Z</time>
      </trkpt>
      <trkpt lat="42.59944" lon="1.93427">
        <ele>2429.6000976562</ele>
        <time>2023-07-19T09:35:45.000Z</time>
      </trkpt>
      <trkpt lat="42.59941" lon="1.93418">
        <ele>2429.6000976562</ele>
        <time>2023-07-19T09:35:50.000Z</time>
      </trkpt>
      <trkpt lat="42.59938" lon="1.9341">
        <ele>2429</ele>
        <time>2023-07-19T09:35:56.000Z</time>
      </trkpt>
      <trkpt lat="42.59933" lon="1.934">
        <ele>2430.6000976562</ele>
        <time>2023-07-19T09:36:04.000Z</time>
      </trkpt>
      <trkpt lat="42.59932" lon="1.93398">
        <ele>2431</ele>
        <time>2023-07-19T09:36:05.000Z</time>
      </trkpt>
      <trkpt lat="42.5993" lon="1.93388">
        <ele>2431.6000976562</ele>
        <time>2023-07-19T09:36:12.000Z</time>
      </trkpt>
      <trkpt lat="42.59926" lon="1.93378">
        <ele>2431.1999511719</ele>
        <time>2023-07-19T09:36:19.000Z</time>
      </trkpt>
      <trkpt lat="42.59923" lon="1.93369">
        <ele>2429</ele>
        <time>2023-07-19T09:36:24.000Z</time>
      </trkpt>
      <trkpt lat="42.59923" lon="1.93368">
        <ele>2427.3999023438</ele>
        <time>2023-07-19T09:36:25.000Z</time>
      </trkpt>
      <trkpt lat="42.59923" lon="1.93368">
        <ele>2427.3999023438</ele>
        <time>2023-07-19T09:36:26.000Z</time>
      </trkpt>
      <trkpt lat="42.59924" lon="1.93365">
        <ele>2428</ele>
        <time>2023-07-19T09:36:35.000Z</time>
      </trkpt>
      <trkpt lat="42.59924" lon="1.93365">
        <ele>2428.6000976562</ele>
        <time>2023-07-19T09:36:40.000Z</time>
      </trkpt>
      <trkpt lat="42.59923" lon="1.93364">
        <ele>2429</ele>
        <time>2023-07-19T09:36:42.000Z</time>
      </trkpt>
      <trkpt lat="42.59925" lon="1.93362">
        <ele>2428</ele>
        <time>2023-07-19T09:36:49.000Z</time>
      </trkpt>
      <trkpt lat="42.59926" lon="1.9336">
        <ele>2427.8000488281</ele>
        <time>2023-07-19T09:36:58.000Z</time>
      </trkpt>
      <trkpt lat="42.59923" lon="1.93356">
        <ele>2427.3999023438</ele>
        <time>2023-07-19T09:37:02.000Z</time>
      </trkpt>
      <trkpt lat="42.5992" lon="1.93354">
        <ele>2427.3999023438</ele>
        <time>2023-07-19T09:37:05.000Z</time>
      </trkpt>
      <trkpt lat="42.59913" lon="1.93345">
        <ele>2427</ele>
        <time>2023-07-19T09:37:14.000Z</time>
      </trkpt>
      <trkpt lat="42.59908" lon="1.93339">
        <ele>2426.3999023438</ele>
        <time>2023-07-19T09:37:20.000Z</time>
      </trkpt>
      <trkpt lat="42.59907" lon="1.93337">
        <ele>2426.3999023438</ele>
        <time>2023-07-19T09:37:21.000Z</time>
      </trkpt>
      <trkpt lat="42.59903" lon="1.93332">
        <ele>2425.3999023438</ele>
        <time>2023-07-19T09:37:25.000Z</time>
      </trkpt>
      <trkpt lat="42.599" lon="1.93329">
        <ele>2424.1999511719</ele>
        <time>2023-07-19T09:37:28.000Z</time>
      </trkpt>
      <trkpt lat="42.59895" lon="1.93326">
        <ele>2422.8000488281</ele>
        <time>2023-07-19T09:37:32.000Z</time>
      </trkpt>
      <trkpt lat="42.5989" lon="1.93321">
        <ele>2422.6000976562</ele>
        <time>2023-07-19T09:37:37.000Z</time>
      </trkpt>
      <trkpt lat="42.59885" lon="1.93318">
        <ele>2421.8000488281</ele>
        <time>2023-07-19T09:37:43.000Z</time>
      </trkpt>
      <trkpt lat="42.59884" lon="1.93318">
        <ele>2421.8000488281</ele>
        <time>2023-07-19T09:37:44.000Z</time>
      </trkpt>
      <trkpt lat="42.59877" lon="1.93313">
        <ele>2420.1999511719</ele>
        <time>2023-07-19T09:37:50.000Z</time>
      </trkpt>
      <trkpt lat="42.59876" lon="1.93312">
        <ele>2419.1999511719</ele>
        <time>2023-07-19T09:37:52.000Z</time>
      </trkpt>
      <trkpt lat="42.59876" lon="1.93311">
        <ele>2419</ele>
        <time>2023-07-19T09:37:53.000Z</time>
      </trkpt>
      <trkpt lat="42.59872" lon="1.93308">
        <ele>2417.6000976562</ele>
        <time>2023-07-19T09:37:58.000Z</time>
      </trkpt>
      <trkpt lat="42.59871" lon="1.93305">
        <ele>2417</ele>
        <time>2023-07-19T09:38:00.000Z</time>
      </trkpt>
      <trkpt lat="42.5987" lon="1.93304">
        <ele>2416.3999023438</ele>
        <time>2023-07-19T09:38:01.000Z</time>
      </trkpt>
      <trkpt lat="42.59866" lon="1.93298">
        <ele>2415.1999511719</ele>
        <time>2023-07-19T09:38:07.000Z</time>
      </trkpt>
      <trkpt lat="42.59865" lon="1.93295">
        <ele>2414.1999511719</ele>
        <time>2023-07-19T09:38:09.000Z</time>
      </trkpt>
      <trkpt lat="42.59862" lon="1.93287">
        <ele>2413.1999511719</ele>
        <time>2023-07-19T09:38:16.000Z</time>
      </trkpt>
      <trkpt lat="42.59861" lon="1.93284">
        <ele>2412.8000488281</ele>
        <time>2023-07-19T09:38:18.000Z</time>
      </trkpt>
      <trkpt lat="42.59855" lon="1.93279">
        <ele>2412.1999511719</ele>
        <time>2023-07-19T09:38:25.000Z</time>
      </trkpt>
      <trkpt lat="42.59846" lon="1.93274">
        <ele>2413</ele>
        <time>2023-07-19T09:38:34.000Z</time>
      </trkpt>
      <trkpt lat="42.59843" lon="1.93272">
        <ele>2411.1999511719</ele>
        <time>2023-07-19T09:38:37.000Z</time>
      </trkpt>
      <trkpt lat="42.59843" lon="1.93271">
        <ele>2410.1999511719</ele>
        <time>2023-07-19T09:38:38.000Z</time>
      </trkpt>
      <trkpt lat="42.59841" lon="1.93267">
        <ele>2409</ele>
        <time>2023-07-19T09:38:41.000Z</time>
      </trkpt>
      <trkpt lat="42.5984" lon="1.93264">
        <ele>2408.8000488281</ele>
        <time>2023-07-19T09:38:43.000Z</time>
      </trkpt>
      <trkpt lat="42.59839" lon="1.9326">
        <ele>2408</ele>
        <time>2023-07-19T09:38:47.000Z</time>
      </trkpt>
      <trkpt lat="42.59838" lon="1.93256">
        <ele>2406.8000488281</ele>
        <time>2023-07-19T09:38:51.000Z</time>
      </trkpt>
      <trkpt lat="42.59837" lon="1.93255">
        <ele>2406.8000488281</ele>
        <time>2023-07-19T09:38:52.000Z</time>
      </trkpt>
      <trkpt lat="42.59837" lon="1.93254">
        <ele>2405.6000976562</ele>
        <time>2023-07-19T09:38:55.000Z</time>
      </trkpt>
      <trkpt lat="42.59837" lon="1.93249">
        <ele>2404.6000976562</ele>
        <time>2023-07-19T09:38:59.000Z</time>
      </trkpt>
      <trkpt lat="42.59836" lon="1.93248">
        <ele>2404.1999511719</ele>
        <time>2023-07-19T09:39:00.000Z</time>
      </trkpt>
      <trkpt lat="42.59836" lon="1.93246">
        <ele>2403.6000976562</ele>
        <time>2023-07-19T09:39:02.000Z</time>
      </trkpt>
      <trkpt lat="42.59837" lon="1.93243">
        <ele>2402.3999023438</ele>
        <time>2023-07-19T09:39:06.000Z</time>
      </trkpt>
      <trkpt lat="42.59837" lon="1.9324">
        <ele>2401.8000488281</ele>
        <time>2023-07-19T09:39:08.000Z</time>
      </trkpt>
      <trkpt lat="42.59837" lon="1.93236">
        <ele>2401.3999023438</ele>
        <time>2023-07-19T09:39:10.000Z</time>
      </trkpt>
      <trkpt lat="42.59835" lon="1.93227">
        <ele>2400.1999511719</ele>
        <time>2023-07-19T09:39:15.000Z</time>
      </trkpt>
      <trkpt lat="42.59831" lon="1.93217">
        <ele>2399</ele>
        <time>2023-07-19T09:39:22.000Z</time>
      </trkpt>
      <trkpt lat="42.5983" lon="1.93213">
        <ele>2398.3999023438</ele>
        <time>2023-07-19T09:39:25.000Z</time>
      </trkpt>
      <trkpt lat="42.5983" lon="1.93211">
        <ele>2398</ele>
        <time>2023-07-19T09:39:27.000Z</time>
      </trkpt>
      <trkpt lat="42.59829" lon="1.93202">
        <ele>2396.3999023438</ele>
        <time>2023-07-19T09:39:32.000Z</time>
      </trkpt>
      <trkpt lat="42.59828" lon="1.932">
        <ele>2396.1999511719</ele>
        <time>2023-07-19T09:39:34.000Z</time>
      </trkpt>
      <trkpt lat="42.59827" lon="1.93194">
        <ele>2395.3999023438</ele>
        <time>2023-07-19T09:39:39.000Z</time>
      </trkpt>
      <trkpt lat="42.59825" lon="1.93189">
        <ele>2394.1999511719</ele>
        <time>2023-07-19T09:39:43.000Z</time>
      </trkpt>
      <trkpt lat="42.59825" lon="1.93188">
        <ele>2394</ele>
        <time>2023-07-19T09:39:44.000Z</time>
      </trkpt>
      <trkpt lat="42.59824" lon="1.93182">
        <ele>2393</ele>
        <time>2023-07-19T09:39:48.000Z</time>
      </trkpt>
      <trkpt lat="42.59824" lon="1.93179">
        <ele>2392</ele>
        <time>2023-07-19T09:39:52.000Z</time>
      </trkpt>
      <trkpt lat="42.59824" lon="1.93175">
        <ele>2392</ele>
        <time>2023-07-19T09:39:54.000Z</time>
      </trkpt>
      <trkpt lat="42.59824" lon="1.93171">
        <ele>2390.8000488281</ele>
        <time>2023-07-19T09:39:58.000Z</time>
      </trkpt>
      <trkpt lat="42.59823" lon="1.93164">
        <ele>2390.3999023438</ele>
        <time>2023-07-19T09:40:03.000Z</time>
      </trkpt>
      <trkpt lat="42.59822" lon="1.93162">
        <ele>2389.6000976562</ele>
        <time>2023-07-19T09:40:05.000Z</time>
      </trkpt>
      <trkpt lat="42.59821" lon="1.93157">
        <ele>2389</ele>
        <time>2023-07-19T09:40:11.000Z</time>
      </trkpt>
      <trkpt lat="42.59821" lon="1.93153">
        <ele>2389.1999511719</ele>
        <time>2023-07-19T09:40:20.000Z</time>
      </trkpt>
      <trkpt lat="42.59821" lon="1.93152">
        <ele>2389.3999023438</ele>
        <time>2023-07-19T09:40:27.000Z</time>
      </trkpt>
      <trkpt lat="42.59821" lon="1.93155">
        <ele>2388.6000976562</ele>
        <time>2023-07-19T09:40:32.000Z</time>
      </trkpt>
      <trkpt lat="42.59819" lon="1.93155">
        <ele>2388.1999511719</ele>
        <time>2023-07-19T09:40:36.000Z</time>
      </trkpt>
      <trkpt lat="42.59817" lon="1.93153">
        <ele>2387.6000976562</ele>
        <time>2023-07-19T09:40:42.000Z</time>
      </trkpt>
      <trkpt lat="42.59816" lon="1.93151">
        <ele>2387</ele>
        <time>2023-07-19T09:40:45.000Z</time>
      </trkpt>
      <trkpt lat="42.59815" lon="1.93146">
        <ele>2386.3999023438</ele>
        <time>2023-07-19T09:40:49.000Z</time>
      </trkpt>
      <trkpt lat="42.59814" lon="1.9314">
        <ele>2385.3999023438</ele>
        <time>2023-07-19T09:40:54.000Z</time>
      </trkpt>
      <trkpt lat="42.59811" lon="1.93132">
        <ele>2384.3999023438</ele>
        <time>2023-07-19T09:41:00.000Z</time>
      </trkpt>
      <trkpt lat="42.59811" lon="1.9313">
        <ele>2384</ele>
        <time>2023-07-19T09:41:01.000Z</time>
      </trkpt>
      <trkpt lat="42.59809" lon="1.93124">
        <ele>2383</ele>
        <time>2023-07-19T09:41:05.000Z</time>
      </trkpt>
      <trkpt lat="42.59808" lon="1.93119">
        <ele>2382.3999023438</ele>
        <time>2023-07-19T09:41:09.000Z</time>
      </trkpt>
      <trkpt lat="42.59807" lon="1.93117">
        <ele>2381.8000488281</ele>
        <time>2023-07-19T09:41:11.000Z</time>
      </trkpt>
      <trkpt lat="42.59807" lon="1.93115">
        <ele>2380.6000976562</ele>
        <time>2023-07-19T09:41:14.000Z</time>
      </trkpt>
      <trkpt lat="42.59807" lon="1.93113">
        <ele>2380.1999511719</ele>
        <time>2023-07-19T09:41:17.000Z</time>
      </trkpt>
      <trkpt lat="42.59807" lon="1.9311">
        <ele>2379.6000976562</ele>
        <time>2023-07-19T09:41:20.000Z</time>
      </trkpt>
      <trkpt lat="42.59805" lon="1.93106">
        <ele>2378.6000976562</ele>
        <time>2023-07-19T09:41:25.000Z</time>
      </trkpt>
      <trkpt lat="42.59805" lon="1.93105">
        <ele>2378.6000976562</ele>
        <time>2023-07-19T09:41:26.000Z</time>
      </trkpt>
      <trkpt lat="42.59805" lon="1.93101">
        <ele>2377.3999023438</ele>
        <time>2023-07-19T09:41:29.000Z</time>
      </trkpt>
      <trkpt lat="42.59804" lon="1.93097">
        <ele>2376.6000976562</ele>
        <time>2023-07-19T09:41:33.000Z</time>
      </trkpt>
      <trkpt lat="42.59804" lon="1.93095">
        <ele>2376.1999511719</ele>
        <time>2023-07-19T09:41:35.000Z</time>
      </trkpt>
      <trkpt lat="42.59803" lon="1.9309">
        <ele>2375</ele>
        <time>2023-07-19T09:41:41.000Z</time>
      </trkpt>
      <trkpt lat="42.59802" lon="1.93086">
        <ele>2373.8000488281</ele>
        <time>2023-07-19T09:41:44.000Z</time>
      </trkpt>
      <trkpt lat="42.59799" lon="1.93079">
        <ele>2372.6000976562</ele>
        <time>2023-07-19T09:41:49.000Z</time>
      </trkpt>
      <trkpt lat="42.59797" lon="1.93078">
        <ele>2372.1999511719</ele>
        <time>2023-07-19T09:41:52.000Z</time>
      </trkpt>
      <trkpt lat="42.59794" lon="1.93074">
        <ele>2371.3999023438</ele>
        <time>2023-07-19T09:41:56.000Z</time>
      </trkpt>
      <trkpt lat="42.59793" lon="1.93072">
        <ele>2370.8000488281</ele>
        <time>2023-07-19T09:41:58.000Z</time>
      </trkpt>
      <trkpt lat="42.59793" lon="1.93072">
        <ele>2370.1999511719</ele>
        <time>2023-07-19T09:41:59.000Z</time>
      </trkpt>
      <trkpt lat="42.59793" lon="1.93069">
        <ele>2369.1999511719</ele>
        <time>2023-07-19T09:42:02.000Z</time>
      </trkpt>
      <trkpt lat="42.59794" lon="1.93067">
        <ele>2368.8000488281</ele>
        <time>2023-07-19T09:42:05.000Z</time>
      </trkpt>
      <trkpt lat="42.59793" lon="1.93065">
        <ele>2368.1999511719</ele>
        <time>2023-07-19T09:42:07.000Z</time>
      </trkpt>
      <trkpt lat="42.59792" lon="1.93061">
        <ele>2367.3999023438</ele>
        <time>2023-07-19T09:42:12.000Z</time>
      </trkpt>
      <trkpt lat="42.59792" lon="1.9306">
        <ele>2366.8000488281</ele>
        <time>2023-07-19T09:42:13.000Z</time>
      </trkpt>
      <trkpt lat="42.59791" lon="1.93056">
        <ele>2366</ele>
        <time>2023-07-19T09:42:18.000Z</time>
      </trkpt>
      <trkpt lat="42.5979" lon="1.93055">
        <ele>2365.8000488281</ele>
        <time>2023-07-19T09:42:19.000Z</time>
      </trkpt>
      <trkpt lat="42.59789" lon="1.93052">
        <ele>2364</ele>
        <time>2023-07-19T09:42:21.000Z</time>
      </trkpt>
      <trkpt lat="42.59789" lon="1.93049">
        <ele>2362.8000488281</ele>
        <time>2023-07-19T09:42:24.000Z</time>
      </trkpt>
      <trkpt lat="42.59788" lon="1.93048">
        <ele>2362.8000488281</ele>
        <time>2023-07-19T09:42:25.000Z</time>
      </trkpt>
      <trkpt lat="42.59786" lon="1.93039">
        <ele>2361.3999023438</ele>
        <time>2023-07-19T09:42:32.000Z</time>
      </trkpt>
      <trkpt lat="42.59785" lon="1.93035">
        <ele>2360.8000488281</ele>
        <time>2023-07-19T09:42:35.000Z</time>
      </trkpt>
      <trkpt lat="42.59785" lon="1.93033">
        <ele>2360.3999023438</ele>
        <time>2023-07-19T09:42:37.000Z</time>
      </trkpt>
      <trkpt lat="42.59785" lon="1.9303">
        <ele>2359.3999023438</ele>
        <time>2023-07-19T09:42:39.000Z</time>
      </trkpt>
      <trkpt lat="42.59784" lon="1.93026">
        <ele>2358.1999511719</ele>
        <time>2023-07-19T09:42:42.000Z</time>
      </trkpt>
      <trkpt lat="42.59783" lon="1.93025">
        <ele>2357.8000488281</ele>
        <time>2023-07-19T09:42:43.000Z</time>
      </trkpt>
      <trkpt lat="42.59782" lon="1.93023">
        <ele>2357</ele>
        <time>2023-07-19T09:42:45.000Z</time>
      </trkpt>
      <trkpt lat="42.59779" lon="1.93018">
        <ele>2356</ele>
        <time>2023-07-19T09:42:51.000Z</time>
      </trkpt>
      <trkpt lat="42.59778" lon="1.93017">
        <ele>2355.6000976562</ele>
        <time>2023-07-19T09:42:52.000Z</time>
      </trkpt>
      <trkpt lat="42.59773" lon="1.93006">
        <ele>2356.1999511719</ele>
        <time>2023-07-19T09:43:02.000Z</time>
      </trkpt>
      <trkpt lat="42.59769" lon="1.93001">
        <ele>2354.6000976562</ele>
        <time>2023-07-19T09:43:08.000Z</time>
      </trkpt>
      <trkpt lat="42.59768" lon="1.92996">
        <ele>2353.8000488281</ele>
        <time>2023-07-19T09:43:12.000Z</time>
      </trkpt>
      <trkpt lat="42.59768" lon="1.92995">
        <ele>2352.8000488281</ele>
        <time>2023-07-19T09:43:13.000Z</time>
      </trkpt>
      <trkpt lat="42.59765" lon="1.92984">
        <ele>2352.1999511719</ele>
        <time>2023-07-19T09:43:19.000Z</time>
      </trkpt>
      <trkpt lat="42.59766" lon="1.92982">
        <ele>2351.3999023438</ele>
        <time>2023-07-19T09:43:23.000Z</time>
      </trkpt>
      <trkpt lat="42.59766" lon="1.9298">
        <ele>2350</ele>
        <time>2023-07-19T09:43:26.000Z</time>
      </trkpt>
      <trkpt lat="42.59765" lon="1.92968">
        <ele>2350</ele>
        <time>2023-07-19T09:43:33.000Z</time>
      </trkpt>
      <trkpt lat="42.59763" lon="1.92958">
        <ele>2348.3999023438</ele>
        <time>2023-07-19T09:43:40.000Z</time>
      </trkpt>
      <trkpt lat="42.59762" lon="1.92955">
        <ele>2347.3999023438</ele>
        <time>2023-07-19T09:43:42.000Z</time>
      </trkpt>
      <trkpt lat="42.59762" lon="1.92954">
        <ele>2346</ele>
        <time>2023-07-19T09:43:44.000Z</time>
      </trkpt>
      <trkpt lat="42.59762" lon="1.92951">
        <ele>2344.8000488281</ele>
        <time>2023-07-19T09:43:48.000Z</time>
      </trkpt>
      <trkpt lat="42.59762" lon="1.92951">
        <ele>2343.6000976562</ele>
        <time>2023-07-19T09:43:51.000Z</time>
      </trkpt>
      <trkpt lat="42.59761" lon="1.92946">
        <ele>2342.6000976562</ele>
        <time>2023-07-19T09:43:57.000Z</time>
      </trkpt>
      <trkpt lat="42.59761" lon="1.92946">
        <ele>2342.3999023438</ele>
        <time>2023-07-19T09:43:59.000Z</time>
      </trkpt>
      <trkpt lat="42.59763" lon="1.92947">
        <ele>2342.1999511719</ele>
        <time>2023-07-19T09:44:07.000Z</time>
      </trkpt>
      <trkpt lat="42.59762" lon="1.92944">
        <ele>2341.6000976562</ele>
        <time>2023-07-19T09:44:16.000Z</time>
      </trkpt>
      <trkpt lat="42.59762" lon="1.92943">
        <ele>2341.6000976562</ele>
        <time>2023-07-19T09:44:18.000Z</time>
      </trkpt>
      <trkpt lat="42.59761" lon="1.92935">
        <ele>2340.6000976562</ele>
        <time>2023-07-19T09:44:25.000Z</time>
      </trkpt>
      <trkpt lat="42.59761" lon="1.92934">
        <ele>2340.3999023438</ele>
        <time>2023-07-19T09:44:26.000Z</time>
      </trkpt>
      <trkpt lat="42.5976" lon="1.9293">
        <ele>2339.1999511719</ele>
        <time>2023-07-19T09:44:29.000Z</time>
      </trkpt>
      <trkpt lat="42.5976" lon="1.92924">
        <ele>2338</ele>
        <time>2023-07-19T09:44:33.000Z</time>
      </trkpt>
      <trkpt lat="42.59759" lon="1.92922">
        <ele>2337</ele>
        <time>2023-07-19T09:44:35.000Z</time>
      </trkpt>
      <trkpt lat="42.59757" lon="1.92914">
        <ele>2335.6000976562</ele>
        <time>2023-07-19T09:44:42.000Z</time>
      </trkpt>
      <trkpt lat="42.59757" lon="1.92909">
        <ele>2334.6000976562</ele>
        <time>2023-07-19T09:44:46.000Z</time>
      </trkpt>
      <trkpt lat="42.59757" lon="1.92904">
        <ele>2333.6000976562</ele>
        <time>2023-07-19T09:44:50.000Z</time>
      </trkpt>
      <trkpt lat="42.59756" lon="1.92901">
        <ele>2332.3999023438</ele>
        <time>2023-07-19T09:44:54.000Z</time>
      </trkpt>
      <trkpt lat="42.59756" lon="1.929">
        <ele>2332.1999511719</ele>
        <time>2023-07-19T09:44:55.000Z</time>
      </trkpt>
      <trkpt lat="42.59757" lon="1.92898">
        <ele>2331</ele>
        <time>2023-07-19T09:44:58.000Z</time>
      </trkpt>
      <trkpt lat="42.59759" lon="1.92895">
        <ele>2330.1999511719</ele>
        <time>2023-07-19T09:45:02.000Z</time>
      </trkpt>
      <trkpt lat="42.59759" lon="1.92894">
        <ele>2330</ele>
        <time>2023-07-19T09:45:03.000Z</time>
      </trkpt>
      <trkpt lat="42.5976" lon="1.92891">
        <ele>2328.8000488281</ele>
        <time>2023-07-19T09:45:06.000Z</time>
      </trkpt>
      <trkpt lat="42.5976" lon="1.92887">
        <ele>2327.8000488281</ele>
        <time>2023-07-19T09:45:10.000Z</time>
      </trkpt>
      <trkpt lat="42.5976" lon="1.92883">
        <ele>2327</ele>
        <time>2023-07-19T09:45:13.000Z</time>
      </trkpt>
      <trkpt lat="42.59759" lon="1.92882">
        <ele>2326.8000488281</ele>
        <time>2023-07-19T09:45:15.000Z</time>
      </trkpt>
      <trkpt lat="42.59759" lon="1.92876">
        <ele>2325.6000976562</ele>
        <time>2023-07-19T09:45:22.000Z</time>
      </trkpt>
      <trkpt lat="42.59759" lon="1.92873">
        <ele>2325</ele>
        <time>2023-07-19T09:45:24.000Z</time>
      </trkpt>
      <trkpt lat="42.59759" lon="1.92868">
        <ele>2324.3999023438</ele>
        <time>2023-07-19T09:45:27.000Z</time>
      </trkpt>
      <trkpt lat="42.59759" lon="1.92864">
        <ele>2323.3999023438</ele>
        <time>2023-07-19T09:45:31.000Z</time>
      </trkpt>
      <trkpt lat="42.59759" lon="1.92861">
        <ele>2322.6000976562</ele>
        <time>2023-07-19T09:45:33.000Z</time>
      </trkpt>
      <trkpt lat="42.59759" lon="1.92858">
        <ele>2322.1999511719</ele>
        <time>2023-07-19T09:45:35.000Z</time>
      </trkpt>
      <trkpt lat="42.59758" lon="1.92853">
        <ele>2321.1999511719</ele>
        <time>2023-07-19T09:45:39.000Z</time>
      </trkpt>
      <trkpt lat="42.59758" lon="1.92851">
        <ele>2320.6000976562</ele>
        <time>2023-07-19T09:45:41.000Z</time>
      </trkpt>
      <trkpt lat="42.59758" lon="1.9285">
        <ele>2320.1999511719</ele>
        <time>2023-07-19T09:45:42.000Z</time>
      </trkpt>
      <trkpt lat="42.59758" lon="1.92842">
        <ele>2319</ele>
        <time>2023-07-19T09:45:49.000Z</time>
      </trkpt>
      <trkpt lat="42.59759" lon="1.92842">
        <ele>2318.6000976562</ele>
        <time>2023-07-19T09:45:50.000Z</time>
      </trkpt>
      <trkpt lat="42.59759" lon="1.9284">
        <ele>2317.6000976562</ele>
        <time>2023-07-19T09:45:53.000Z</time>
      </trkpt>
      <trkpt lat="42.5976" lon="1.92834">
        <ele>2317.1999511719</ele>
        <time>2023-07-19T09:45:58.000Z</time>
      </trkpt>
      <trkpt lat="42.5976" lon="1.92833">
        <ele>2316.6000976562</ele>
        <time>2023-07-19T09:46:00.000Z</time>
      </trkpt>
      <trkpt lat="42.59761" lon="1.92828">
        <ele>2315</ele>
        <time>2023-07-19T09:46:04.000Z</time>
      </trkpt>
      <trkpt lat="42.59762" lon="1.92823">
        <ele>2314</ele>
        <time>2023-07-19T09:46:07.000Z</time>
      </trkpt>
      <trkpt lat="42.59762" lon="1.92821">
        <ele>2313.8000488281</ele>
        <time>2023-07-19T09:46:08.000Z</time>
      </trkpt>
      <trkpt lat="42.59761" lon="1.92814">
        <ele>2312.8000488281</ele>
        <time>2023-07-19T09:46:14.000Z</time>
      </trkpt>
      <trkpt lat="42.5976" lon="1.92813">
        <ele>2312.8000488281</ele>
        <time>2023-07-19T09:46:15.000Z</time>
      </trkpt>
      <trkpt lat="42.5976" lon="1.92806">
        <ele>2311.6000976562</ele>
        <time>2023-07-19T09:46:20.000Z</time>
      </trkpt>
      <trkpt lat="42.59761" lon="1.928">
        <ele>2310.6000976562</ele>
        <time>2023-07-19T09:46:24.000Z</time>
      </trkpt>
      <trkpt lat="42.59761" lon="1.92799">
        <ele>2310</ele>
        <time>2023-07-19T09:46:26.000Z</time>
      </trkpt>
      <trkpt lat="42.59762" lon="1.92797">
        <ele>2309.6000976562</ele>
        <time>2023-07-19T09:46:28.000Z</time>
      </trkpt>
      <trkpt lat="42.59763" lon="1.92794">
        <ele>2308.3999023438</ele>
        <time>2023-07-19T09:46:31.000Z</time>
      </trkpt>
      <trkpt lat="42.59764" lon="1.92788">
        <ele>2307.3999023438</ele>
        <time>2023-07-19T09:46:36.000Z</time>
      </trkpt>
      <trkpt lat="42.59764" lon="1.92783">
        <ele>2306.3999023438</ele>
        <time>2023-07-19T09:46:40.000Z</time>
      </trkpt>
      <trkpt lat="42.59764" lon="1.92777">
        <ele>2305.1999511719</ele>
        <time>2023-07-19T09:46:44.000Z</time>
      </trkpt>
      <trkpt lat="42.59763" lon="1.92771">
        <ele>2304.1999511719</ele>
        <time>2023-07-19T09:46:48.000Z</time>
      </trkpt>
      <trkpt lat="42.59763" lon="1.9277">
        <ele>2304</ele>
        <time>2023-07-19T09:46:49.000Z</time>
      </trkpt>
      <trkpt lat="42.59762" lon="1.92767">
        <ele>2303.1999511719</ele>
        <time>2023-07-19T09:46:53.000Z</time>
      </trkpt>
      <trkpt lat="42.59763" lon="1.9276">
        <ele>2302.3999023438</ele>
        <time>2023-07-19T09:46:57.000Z</time>
      </trkpt>
      <trkpt lat="42.59763" lon="1.9276">
        <ele>2302</ele>
        <time>2023-07-19T09:46:58.000Z</time>
      </trkpt>
      <trkpt lat="42.59763" lon="1.92758">
        <ele>2300.8000488281</ele>
        <time>2023-07-19T09:47:01.000Z</time>
      </trkpt>
      <trkpt lat="42.59764" lon="1.92753">
        <ele>2300</ele>
        <time>2023-07-19T09:47:06.000Z</time>
      </trkpt>
      <trkpt lat="42.59764" lon="1.92751">
        <ele>2299.8000488281</ele>
        <time>2023-07-19T09:47:07.000Z</time>
      </trkpt>
      <trkpt lat="42.59764" lon="1.92746">
        <ele>2298.6000976562</ele>
        <time>2023-07-19T09:47:12.000Z</time>
      </trkpt>
      <trkpt lat="42.59764" lon="1.92745">
        <ele>2298.3999023438</ele>
        <time>2023-07-19T09:47:13.000Z</time>
      </trkpt>
      <trkpt lat="42.59765" lon="1.92741">
        <ele>2297.3999023438</ele>
        <time>2023-07-19T09:47:17.000Z</time>
      </trkpt>
      <trkpt lat="42.59765" lon="1.92738">
        <ele>2296.3999023438</ele>
        <time>2023-07-19T09:47:21.000Z</time>
      </trkpt>
      <trkpt lat="42.59765" lon="1.92735">
        <ele>2295.8000488281</ele>
        <time>2023-07-19T09:47:24.000Z</time>
      </trkpt>
      <trkpt lat="42.59765" lon="1.92732">
        <ele>2295.3999023438</ele>
        <time>2023-07-19T09:47:26.000Z</time>
      </trkpt>
      <trkpt lat="42.59764" lon="1.92731">
        <ele>2294.3999023438</ele>
        <time>2023-07-19T09:47:32.000Z</time>
      </trkpt>
      <trkpt lat="42.59766" lon="1.92727">
        <ele>2293.8000488281</ele>
        <time>2023-07-19T09:47:41.000Z</time>
      </trkpt>
      <trkpt lat="42.59767" lon="1.92725">
        <ele>2293.1999511719</ele>
        <time>2023-07-19T09:47:43.000Z</time>
      </trkpt>
      <trkpt lat="42.59766" lon="1.92719">
        <ele>2292.1999511719</ele>
        <time>2023-07-19T09:47:47.000Z</time>
      </trkpt>
      <trkpt lat="42.59766" lon="1.92718">
        <ele>2292</ele>
        <time>2023-07-19T09:47:48.000Z</time>
      </trkpt>
      <trkpt lat="42.59766" lon="1.92709">
        <ele>2291</ele>
        <time>2023-07-19T09:47:55.000Z</time>
      </trkpt>
      <trkpt lat="42.59766" lon="1.92707">
        <ele>2291</ele>
        <time>2023-07-19T09:47:57.000Z</time>
      </trkpt>
      <trkpt lat="42.59765" lon="1.92698">
        <ele>2290</ele>
        <time>2023-07-19T09:48:03.000Z</time>
      </trkpt>
      <trkpt lat="42.59766" lon="1.9269">
        <ele>2289.3999023438</ele>
        <time>2023-07-19T09:48:09.000Z</time>
      </trkpt>
      <trkpt lat="42.59766" lon="1.92688">
        <ele>2289</ele>
        <time>2023-07-19T09:48:11.000Z</time>
      </trkpt>
      <trkpt lat="42.59766" lon="1.9268">
        <ele>2287.8000488281</ele>
        <time>2023-07-19T09:48:16.000Z</time>
      </trkpt>
      <trkpt lat="42.59766" lon="1.92662">
        <ele>2286.3999023438</ele>
        <time>2023-07-19T09:48:25.000Z</time>
      </trkpt>
      <trkpt lat="42.59766" lon="1.92659">
        <ele>2286.1999511719</ele>
        <time>2023-07-19T09:48:27.000Z</time>
      </trkpt>
      <trkpt lat="42.59766" lon="1.92649">
        <ele>2285.3999023438</ele>
        <time>2023-07-19T09:48:32.000Z</time>
      </trkpt>
      <trkpt lat="42.59765" lon="1.92638">
        <ele>2284.3999023438</ele>
        <time>2023-07-19T09:48:37.000Z</time>
      </trkpt>
      <trkpt lat="42.59765" lon="1.92636">
        <ele>2284.1999511719</ele>
        <time>2023-07-19T09:48:38.000Z</time>
      </trkpt>
      <trkpt lat="42.59764" lon="1.92622">
        <ele>2283.3999023438</ele>
        <time>2023-07-19T09:48:45.000Z</time>
      </trkpt>
      <trkpt lat="42.59763" lon="1.9262">
        <ele>2283.1999511719</ele>
        <time>2023-07-19T09:48:46.000Z</time>
      </trkpt>
      <trkpt lat="42.59759" lon="1.92604">
        <ele>2282.6000976562</ele>
        <time>2023-07-19T09:48:55.000Z</time>
      </trkpt>
      <trkpt lat="42.59759" lon="1.92594">
        <ele>2281.8000488281</ele>
        <time>2023-07-19T09:49:00.000Z</time>
      </trkpt>
      <trkpt lat="42.59759" lon="1.9259">
        <ele>2281</ele>
        <time>2023-07-19T09:49:02.000Z</time>
      </trkpt>
      <trkpt lat="42.59759" lon="1.92589">
        <ele>2280.8000488281</ele>
        <time>2023-07-19T09:49:03.000Z</time>
      </trkpt>
      <trkpt lat="42.59758" lon="1.92573">
        <ele>2280.8000488281</ele>
        <time>2023-07-19T09:49:10.000Z</time>
      </trkpt>
      <trkpt lat="42.59757" lon="1.92554">
        <ele>2280.3999023438</ele>
        <time>2023-07-19T09:49:19.000Z</time>
      </trkpt>
      <trkpt lat="42.59758" lon="1.92536">
        <ele>2280.3999023438</ele>
        <time>2023-07-19T09:49:28.000Z</time>
      </trkpt>
      <trkpt lat="42.59759" lon="1.92521">
        <ele>2279.8000488281</ele>
        <time>2023-07-19T09:49:36.000Z</time>
      </trkpt>
      <trkpt lat="42.59759" lon="1.92518">
        <ele>2279.3999023438</ele>
        <time>2023-07-19T09:49:38.000Z</time>
      </trkpt>
      <trkpt lat="42.59759" lon="1.92513">
        <ele>2278.3999023438</ele>
        <time>2023-07-19T09:49:41.000Z</time>
      </trkpt>
      <trkpt lat="42.59758" lon="1.92502">
        <ele>2278.1999511719</ele>
        <time>2023-07-19T09:49:46.000Z</time>
      </trkpt>
      <trkpt lat="42.59758" lon="1.92482">
        <ele>2278.6000976562</ele>
        <time>2023-07-19T09:49:56.000Z</time>
      </trkpt>
      <trkpt lat="42.5976" lon="1.92466">
        <ele>2277.6000976562</ele>
        <time>2023-07-19T09:50:06.000Z</time>
      </trkpt>
      <trkpt lat="42.5976" lon="1.92463">
        <ele>2277.3999023438</ele>
        <time>2023-07-19T09:50:07.000Z</time>
      </trkpt>
      <trkpt lat="42.59759" lon="1.92448">
        <ele>2276.8000488281</ele>
        <time>2023-07-19T09:50:14.000Z</time>
      </trkpt>
      <trkpt lat="42.59761" lon="1.92436">
        <ele>2276.3999023438</ele>
        <time>2023-07-19T09:50:20.000Z</time>
      </trkpt>
      <trkpt lat="42.59761" lon="1.9243">
        <ele>2276.3999023438</ele>
        <time>2023-07-19T09:50:23.000Z</time>
      </trkpt>
      <trkpt lat="42.59761" lon="1.92417">
        <ele>2275.6000976562</ele>
        <time>2023-07-19T09:50:30.000Z</time>
      </trkpt>
      <trkpt lat="42.59761" lon="1.92412">
        <ele>2275</ele>
        <time>2023-07-19T09:50:32.000Z</time>
      </trkpt>
      <trkpt lat="42.59764" lon="1.924">
        <ele>2274.3999023438</ele>
        <time>2023-07-19T09:50:39.000Z</time>
      </trkpt>
      <trkpt lat="42.59764" lon="1.92398">
        <ele>2273.8000488281</ele>
        <time>2023-07-19T09:50:40.000Z</time>
      </trkpt>
      <trkpt lat="42.59764" lon="1.92396">
        <ele>2272.8000488281</ele>
        <time>2023-07-19T09:50:41.000Z</time>
      </trkpt>
      <trkpt lat="42.59765" lon="1.92391">
        <ele>2271.8000488281</ele>
        <time>2023-07-19T09:50:45.000Z</time>
      </trkpt>
      <trkpt lat="42.59765" lon="1.9239">
        <ele>2271.8000488281</ele>
        <time>2023-07-19T09:50:47.000Z</time>
      </trkpt>
      <trkpt lat="42.59762" lon="1.92382">
        <ele>2273</ele>
        <time>2023-07-19T09:50:55.000Z</time>
      </trkpt>
      <trkpt lat="42.59761" lon="1.9238">
        <ele>2273.8000488281</ele>
        <time>2023-07-19T09:50:56.000Z</time>
      </trkpt>
      <trkpt lat="42.59758" lon="1.92364">
        <ele>2272.8000488281</ele>
        <time>2023-07-19T09:51:03.000Z</time>
      </trkpt>
      <trkpt lat="42.59756" lon="1.92354">
        <ele>2274</ele>
        <time>2023-07-19T09:51:09.000Z</time>
      </trkpt>
      <trkpt lat="42.59756" lon="1.92351">
        <ele>2274</ele>
        <time>2023-07-19T09:51:11.000Z</time>
      </trkpt>
      <trkpt lat="42.59755" lon="1.9234">
        <ele>2273</ele>
        <time>2023-07-19T09:51:18.000Z</time>
      </trkpt>
      <trkpt lat="42.59755" lon="1.92338">
        <ele>2273</ele>
        <time>2023-07-19T09:51:19.000Z</time>
      </trkpt>
      <trkpt lat="42.59754" lon="1.92325">
        <ele>2272.6000976562</ele>
        <time>2023-07-19T09:51:25.000Z</time>
      </trkpt>
      <trkpt lat="42.59754" lon="1.92316">
        <ele>2272.6000976562</ele>
        <time>2023-07-19T09:51:31.000Z</time>
      </trkpt>
      <trkpt lat="42.59753" lon="1.92302">
        <ele>2271.8000488281</ele>
        <time>2023-07-19T09:51:38.000Z</time>
      </trkpt>
      <trkpt lat="42.59753" lon="1.92298">
        <ele>2271.6000976562</ele>
        <time>2023-07-19T09:51:40.000Z</time>
      </trkpt>
      <trkpt lat="42.5975" lon="1.9228">
        <ele>2271.6000976562</ele>
        <time>2023-07-19T09:51:49.000Z</time>
      </trkpt>
      <trkpt lat="42.59751" lon="1.92265">
        <ele>2270.6000976562</ele>
        <time>2023-07-19T09:51:58.000Z</time>
      </trkpt>
      <trkpt lat="42.59751" lon="1.92264">
        <ele>2270.6000976562</ele>
        <time>2023-07-19T09:51:59.000Z</time>
      </trkpt>
      <trkpt lat="42.5975" lon="1.92251">
        <ele>2270.3999023438</ele>
        <time>2023-07-19T09:52:07.000Z</time>
      </trkpt>
      <trkpt lat="42.59751" lon="1.92231">
        <ele>2270.3999023438</ele>
        <time>2023-07-19T09:52:17.000Z</time>
      </trkpt>
      <trkpt lat="42.5975" lon="1.92224">
        <ele>2270.1999511719</ele>
        <time>2023-07-19T09:52:23.000Z</time>
      </trkpt>
      <trkpt lat="42.59749" lon="1.9222">
        <ele>2269.6000976562</ele>
        <time>2023-07-19T09:52:26.000Z</time>
      </trkpt>
      <trkpt lat="42.59748" lon="1.92214">
        <ele>2269</ele>
        <time>2023-07-19T09:52:29.000Z</time>
      </trkpt>
      <trkpt lat="42.59747" lon="1.92211">
        <ele>2268.3999023438</ele>
        <time>2023-07-19T09:52:31.000Z</time>
      </trkpt>
      <trkpt lat="42.59747" lon="1.92201">
        <ele>2267.8000488281</ele>
        <time>2023-07-19T09:52:38.000Z</time>
      </trkpt>
      <trkpt lat="42.59745" lon="1.92186">
        <ele>2267.3999023438</ele>
        <time>2023-07-19T09:52:46.000Z</time>
      </trkpt>
      <trkpt lat="42.59745" lon="1.92185">
        <ele>2267.3999023438</ele>
        <time>2023-07-19T09:52:47.000Z</time>
      </trkpt>
      <trkpt lat="42.59745" lon="1.92172">
        <ele>2267.1999511719</ele>
        <time>2023-07-19T09:52:55.000Z</time>
      </trkpt>
      <trkpt lat="42.59747" lon="1.92158">
        <ele>2266.8000488281</ele>
        <time>2023-07-19T09:53:04.000Z</time>
      </trkpt>
      <trkpt lat="42.59748" lon="1.9215">
        <ele>2266.1999511719</ele>
        <time>2023-07-19T09:53:08.000Z</time>
      </trkpt>
      <trkpt lat="42.59748" lon="1.92141">
        <ele>2265.8000488281</ele>
        <time>2023-07-19T09:53:12.000Z</time>
      </trkpt>
      <trkpt lat="42.59747" lon="1.92133">
        <ele>2265.1999511719</ele>
        <time>2023-07-19T09:53:16.000Z</time>
      </trkpt>
      <trkpt lat="42.59747" lon="1.92127">
        <ele>2265.1999511719</ele>
        <time>2023-07-19T09:53:20.000Z</time>
      </trkpt>
      <trkpt lat="42.59748" lon="1.9212">
        <ele>2264</ele>
        <time>2023-07-19T09:53:25.000Z</time>
      </trkpt>
      <trkpt lat="42.5975" lon="1.92115">
        <ele>2263.6000976562</ele>
        <time>2023-07-19T09:53:28.000Z</time>
      </trkpt>
      <trkpt lat="42.59752" lon="1.92101">
        <ele>2263</ele>
        <time>2023-07-19T09:53:35.000Z</time>
      </trkpt>
      <trkpt lat="42.59755" lon="1.92085">
        <ele>2262.6000976562</ele>
        <time>2023-07-19T09:53:45.000Z</time>
      </trkpt>
      <trkpt lat="42.59754" lon="1.9207">
        <ele>2262</ele>
        <time>2023-07-19T09:53:51.000Z</time>
      </trkpt>
      <trkpt lat="42.59754" lon="1.92066">
        <ele>2261.8000488281</ele>
        <time>2023-07-19T09:53:53.000Z</time>
      </trkpt>
      <trkpt lat="42.59753" lon="1.92055">
        <ele>2260.8000488281</ele>
        <time>2023-07-19T09:54:00.000Z</time>
      </trkpt>
      <trkpt lat="42.59754" lon="1.92053">
        <ele>2260.8000488281</ele>
        <time>2023-07-19T09:54:01.000Z</time>
      </trkpt>
      <trkpt lat="42.59754" lon="1.92038">
        <ele>2260.6000976562</ele>
        <time>2023-07-19T09:54:09.000Z</time>
      </trkpt>
      <trkpt lat="42.59755" lon="1.92028">
        <ele>2260.8000488281</ele>
        <time>2023-07-19T09:54:15.000Z</time>
      </trkpt>
      <trkpt lat="42.59751" lon="1.92013">
        <ele>2260.8000488281</ele>
        <time>2023-07-19T09:54:23.000Z</time>
      </trkpt>
      <trkpt lat="42.59745" lon="1.92008">
        <ele>2261.8000488281</ele>
        <time>2023-07-19T09:54:28.000Z</time>
      </trkpt>
      <trkpt lat="42.59744" lon="1.92006">
        <ele>2261.8000488281</ele>
        <time>2023-07-19T09:54:31.000Z</time>
      </trkpt>
      <trkpt lat="42.59744" lon="1.92001">
        <ele>2260.8000488281</ele>
        <time>2023-07-19T09:54:35.000Z</time>
      </trkpt>
      <trkpt lat="42.59744" lon="1.91998">
        <ele>2260.8000488281</ele>
        <time>2023-07-19T09:54:38.000Z</time>
      </trkpt>
      <trkpt lat="42.59744" lon="1.91998">
        <ele>2261.3999023438</ele>
        <time>2023-07-19T09:54:45.000Z</time>
      </trkpt>
      <trkpt lat="42.59747" lon="1.91999">
        <ele>2261.6000976562</ele>
        <time>2023-07-19T09:54:54.000Z</time>
      </trkpt>
      <trkpt lat="42.59745" lon="1.92">
        <ele>2261.3999023438</ele>
        <time>2023-07-19T09:55:03.000Z</time>
      </trkpt>
      <trkpt lat="42.59744" lon="1.91995">
        <ele>2261.6000976562</ele>
        <time>2023-07-19T09:55:08.000Z</time>
      </trkpt>
      <trkpt lat="42.59748" lon="1.91985">
        <ele>2261.8000488281</ele>
        <time>2023-07-19T09:55:14.000Z</time>
      </trkpt>
      <trkpt lat="42.59748" lon="1.91983">
        <ele>2262</ele>
        <time>2023-07-19T09:55:17.000Z</time>
      </trkpt>
      <trkpt lat="42.59747" lon="1.91978">
        <ele>2262.3999023438</ele>
        <time>2023-07-19T09:55:24.000Z</time>
      </trkpt>
      <trkpt lat="42.59747" lon="1.91978">
        <ele>2262</ele>
        <time>2023-07-19T09:55:32.000Z</time>
      </trkpt>
      <trkpt lat="42.59746" lon="1.91976">
        <ele>2262</ele>
        <time>2023-07-19T09:55:42.000Z</time>
      </trkpt>
      <trkpt lat="42.59741" lon="1.91978">
        <ele>2261.8000488281</ele>
        <time>2023-07-19T09:55:50.000Z</time>
      </trkpt>
      <trkpt lat="42.59739" lon="1.91978">
        <ele>2261.3999023438</ele>
        <time>2023-07-19T09:55:56.000Z</time>
      </trkpt>
      <trkpt lat="42.59737" lon="1.91978">
        <ele>2261.3999023438</ele>
        <time>2023-07-19T09:56:05.000Z</time>
      </trkpt>
      <trkpt lat="42.5974" lon="1.91978">
        <ele>2261.6000976562</ele>
        <time>2023-07-19T09:56:14.000Z</time>
      </trkpt>
      <trkpt lat="42.59739" lon="1.91971">
        <ele>2261.6000976562</ele>
        <time>2023-07-19T09:56:21.000Z</time>
      </trkpt>
      <trkpt lat="42.59736" lon="1.91963">
        <ele>2261.3999023438</ele>
        <time>2023-07-19T09:56:28.000Z</time>
      </trkpt>
      <trkpt lat="42.59737" lon="1.91961">
        <ele>2261</ele>
        <time>2023-07-19T09:56:35.000Z</time>
      </trkpt>
      <trkpt lat="42.59735" lon="1.91959">
        <ele>2261.3999023438</ele>
        <time>2023-07-19T09:56:43.000Z</time>
      </trkpt>
      <trkpt lat="42.59736" lon="1.91962">
        <ele>2261.6000976562</ele>
        <time>2023-07-19T09:56:53.000Z</time>
      </trkpt>
      <trkpt lat="42.59737" lon="1.91963">
        <ele>2263</ele>
        <time>2023-07-19T09:56:57.000Z</time>
      </trkpt>
      <trkpt lat="42.59739" lon="1.91961">
        <ele>2263.8000488281</ele>
        <time>2023-07-19T09:56:59.000Z</time>
      </trkpt>
      <trkpt lat="42.59739" lon="1.91961">
        <ele>2264.3999023438</ele>
        <time>2023-07-19T09:57:00.000Z</time>
      </trkpt>
      <trkpt lat="42.59744" lon="1.91955">
        <ele>2264.8000488281</ele>
        <time>2023-07-19T09:57:06.000Z</time>
      </trkpt>
      <trkpt lat="42.59744" lon="1.91954">
        <ele>2265.6000976562</ele>
        <time>2023-07-19T09:57:09.000Z</time>
      </trkpt>
      <trkpt lat="42.59744" lon="1.91954">
        <ele>2266.6000976562</ele>
        <time>2023-07-19T09:57:11.000Z</time>
      </trkpt>
      <trkpt lat="42.59745" lon="1.91953">
        <ele>2266.8000488281</ele>
        <time>2023-07-19T09:57:12.000Z</time>
      </trkpt>
      <trkpt lat="42.59747" lon="1.91952">
        <ele>2267.8000488281</ele>
        <time>2023-07-19T09:57:14.000Z</time>
      </trkpt>
      <trkpt lat="42.5975" lon="1.9195">
        <ele>2268.3999023438</ele>
        <time>2023-07-19T09:57:18.000Z</time>
      </trkpt>
      <trkpt lat="42.5975" lon="1.9195">
        <ele>2266.6000976562</ele>
        <time>2023-07-19T09:57:21.000Z</time>
      </trkpt>
      <trkpt lat="42.59753" lon="1.91951">
        <ele>2265.6000976562</ele>
        <time>2023-07-19T09:57:23.000Z</time>
      </trkpt>
      <trkpt lat="42.59755" lon="1.91952">
        <ele>2265.6000976562</ele>
        <time>2023-07-19T09:57:25.000Z</time>
      </trkpt>
      <trkpt lat="42.59757" lon="1.91954">
        <ele>2267</ele>
        <time>2023-07-19T09:57:28.000Z</time>
      </trkpt>
      <trkpt lat="42.59759" lon="1.91959">
        <ele>2267</ele>
        <time>2023-07-19T09:57:33.000Z</time>
      </trkpt>
      <trkpt lat="42.59762" lon="1.91968">
        <ele>2266</ele>
        <time>2023-07-19T09:57:41.000Z</time>
      </trkpt>
      <trkpt lat="42.59763" lon="1.91969">
        <ele>2266</ele>
        <time>2023-07-19T09:57:42.000Z</time>
      </trkpt>
      <trkpt lat="42.59768" lon="1.91979">
        <ele>2265</ele>
        <time>2023-07-19T09:57:49.000Z</time>
      </trkpt>
      <trkpt lat="42.59769" lon="1.91978">
        <ele>2264.8000488281</ele>
        <time>2023-07-19T09:57:51.000Z</time>
      </trkpt>
      <trkpt lat="42.5977" lon="1.91977">
        <ele>2264.8000488281</ele>
        <time>2023-07-19T09:57:52.000Z</time>
      </trkpt>
      <trkpt lat="42.59775" lon="1.9197">
        <ele>2263.8000488281</ele>
        <time>2023-07-19T09:57:58.000Z</time>
      </trkpt>
      <trkpt lat="42.59776" lon="1.91964">
        <ele>2265.1999511719</ele>
        <time>2023-07-19T09:58:04.000Z</time>
      </trkpt>
      <trkpt lat="42.59775" lon="1.91964">
        <ele>2265.6000976562</ele>
        <time>2023-07-19T09:58:06.000Z</time>
      </trkpt>
      <trkpt lat="42.59777" lon="1.91959">
        <ele>2266.1999511719</ele>
        <time>2023-07-19T09:58:11.000Z</time>
      </trkpt>
      <trkpt lat="42.59781" lon="1.91955">
        <ele>2267.1999511719</ele>
        <time>2023-07-19T09:58:16.000Z</time>
      </trkpt>
      <trkpt lat="42.59791" lon="1.91947">
        <ele>2267.1999511719</ele>
        <time>2023-07-19T09:58:25.000Z</time>
      </trkpt>
      <trkpt lat="42.59794" lon="1.9194">
        <ele>2267.8000488281</ele>
        <time>2023-07-19T09:58:32.000Z</time>
      </trkpt>
      <trkpt lat="42.59795" lon="1.91938">
        <ele>2268.1999511719</ele>
        <time>2023-07-19T09:58:34.000Z</time>
      </trkpt>
      <trkpt lat="42.59795" lon="1.91934">
        <ele>2269</ele>
        <time>2023-07-19T09:58:38.000Z</time>
      </trkpt>
      <trkpt lat="42.59795" lon="1.91933">
        <ele>2269.1999511719</ele>
        <time>2023-07-19T09:58:39.000Z</time>
      </trkpt>
      <trkpt lat="42.59795" lon="1.91925">
        <ele>2270.3999023438</ele>
        <time>2023-07-19T09:58:45.000Z</time>
      </trkpt>
      <trkpt lat="42.59795" lon="1.91924">
        <ele>2270.6000976562</ele>
        <time>2023-07-19T09:58:46.000Z</time>
      </trkpt>
      <trkpt lat="42.59797" lon="1.91922">
        <ele>2271.6000976562</ele>
        <time>2023-07-19T09:58:51.000Z</time>
      </trkpt>
      <trkpt lat="42.59798" lon="1.9192">
        <ele>2272.3999023438</ele>
        <time>2023-07-19T09:58:53.000Z</time>
      </trkpt>
      <trkpt lat="42.59799" lon="1.91916">
        <ele>2272.8000488281</ele>
        <time>2023-07-19T09:58:56.000Z</time>
      </trkpt>
      <trkpt lat="42.598" lon="1.91916">
        <ele>2273.3999023438</ele>
        <time>2023-07-19T09:58:59.000Z</time>
      </trkpt>
      <trkpt lat="42.59802" lon="1.91916">
        <ele>2274</ele>
        <time>2023-07-19T09:59:02.000Z</time>
      </trkpt>
      <trkpt lat="42.59807" lon="1.91915">
        <ele>2274.3999023438</ele>
        <time>2023-07-19T09:59:06.000Z</time>
      </trkpt>
      <trkpt lat="42.59807" lon="1.91912">
        <ele>2274.6000976562</ele>
        <time>2023-07-19T09:59:09.000Z</time>
      </trkpt>
      <trkpt lat="42.59806" lon="1.9191">
        <ele>2274.8000488281</ele>
        <time>2023-07-19T09:59:12.000Z</time>
      </trkpt>
      <trkpt lat="42.59804" lon="1.91906">
        <ele>2275.1999511719</ele>
        <time>2023-07-19T09:59:15.000Z</time>
      </trkpt>
      <trkpt lat="42.59803" lon="1.919">
        <ele>2275.8000488281</ele>
        <time>2023-07-19T09:59:19.000Z</time>
      </trkpt>
      <trkpt lat="42.59802" lon="1.91897">
        <ele>2276.1999511719</ele>
        <time>2023-07-19T09:59:21.000Z</time>
      </trkpt>
      <trkpt lat="42.59803" lon="1.9189">
        <ele>2277.1999511719</ele>
        <time>2023-07-19T09:59:27.000Z</time>
      </trkpt>
      <trkpt lat="42.59802" lon="1.91885">
        <ele>2277.1999511719</ele>
        <time>2023-07-19T09:59:34.000Z</time>
      </trkpt>
      <trkpt lat="42.59803" lon="1.91885">
        <ele>2277.1999511719</ele>
        <time>2023-07-19T09:59:35.000Z</time>
      </trkpt>
      <trkpt lat="42.59803" lon="1.91878">
        <ele>2277.1999511719</ele>
        <time>2023-07-19T09:59:40.000Z</time>
      </trkpt>
      <trkpt lat="42.59802" lon="1.91869">
        <ele>2277.8000488281</ele>
        <time>2023-07-19T09:59:47.000Z</time>
      </trkpt>
      <trkpt lat="42.59801" lon="1.91865">
        <ele>2278.3999023438</ele>
        <time>2023-07-19T09:59:51.000Z</time>
      </trkpt>
      <trkpt lat="42.59802" lon="1.91865">
        <ele>2278.6000976562</ele>
        <time>2023-07-19T09:59:52.000Z</time>
      </trkpt>
      <trkpt lat="42.59802" lon="1.9186">
        <ele>2279.3999023438</ele>
        <time>2023-07-19T09:59:56.000Z</time>
      </trkpt>
      <trkpt lat="42.59802" lon="1.91858">
        <ele>2279.8000488281</ele>
        <time>2023-07-19T09:59:59.000Z</time>
      </trkpt>
      <trkpt lat="42.59803" lon="1.91853">
        <ele>2280.3999023438</ele>
        <time>2023-07-19T10:00:02.000Z</time>
      </trkpt>
      <trkpt lat="42.59802" lon="1.9185">
        <ele>2280.8000488281</ele>
        <time>2023-07-19T10:00:05.000Z</time>
      </trkpt>
      <trkpt lat="42.598" lon="1.91841">
        <ele>2280.6000976562</ele>
        <time>2023-07-19T10:00:12.000Z</time>
      </trkpt>
      <trkpt lat="42.59799" lon="1.91835">
        <ele>2280.3999023438</ele>
        <time>2023-07-19T10:00:19.000Z</time>
      </trkpt>
      <trkpt lat="42.59794" lon="1.91831">
        <ele>2280.8000488281</ele>
        <time>2023-07-19T10:00:27.000Z</time>
      </trkpt>
      <trkpt lat="42.5979" lon="1.91822">
        <ele>2280.6000976562</ele>
        <time>2023-07-19T10:00:33.000Z</time>
      </trkpt>
      <trkpt lat="42.5979" lon="1.91819">
        <ele>2280.1999511719</ele>
        <time>2023-07-19T10:00:39.000Z</time>
      </trkpt>
      <trkpt lat="42.59794" lon="1.91818">
        <ele>2279</ele>
        <time>2023-07-19T10:00:42.000Z</time>
      </trkpt>
      <trkpt lat="42.59798" lon="1.91815">
        <ele>2278.1999511719</ele>
        <time>2023-07-19T10:00:45.000Z</time>
      </trkpt>
      <trkpt lat="42.59801" lon="1.91813">
        <ele>2278</ele>
        <time>2023-07-19T10:00:48.000Z</time>
      </trkpt>
      <trkpt lat="42.59802" lon="1.9181">
        <ele>2278</ele>
        <time>2023-07-19T10:00:50.000Z</time>
      </trkpt>
      <trkpt lat="42.59805" lon="1.91802">
        <ele>2278.8000488281</ele>
        <time>2023-07-19T10:00:56.000Z</time>
      </trkpt>
      <trkpt lat="42.59805" lon="1.91801">
        <ele>2279.3999023438</ele>
        <time>2023-07-19T10:00:57.000Z</time>
      </trkpt>
      <trkpt lat="42.59808" lon="1.91791">
        <ele>2279.1999511719</ele>
        <time>2023-07-19T10:01:06.000Z</time>
      </trkpt>
      <trkpt lat="42.59807" lon="1.91778">
        <ele>2280</ele>
        <time>2023-07-19T10:01:12.000Z</time>
      </trkpt>
      <trkpt lat="42.59805" lon="1.91773">
        <ele>2280.3999023438</ele>
        <time>2023-07-19T10:01:16.000Z</time>
      </trkpt>
      <trkpt lat="42.59804" lon="1.91769">
        <ele>2280.3999023438</ele>
        <time>2023-07-19T10:01:18.000Z</time>
      </trkpt>
      <trkpt lat="42.59806" lon="1.91758">
        <ele>2281</ele>
        <time>2023-07-19T10:01:27.000Z</time>
      </trkpt>
      <trkpt lat="42.59813" lon="1.91749">
        <ele>2280</ele>
        <time>2023-07-19T10:01:35.000Z</time>
      </trkpt>
      <trkpt lat="42.59817" lon="1.91746">
        <ele>2279.1999511719</ele>
        <time>2023-07-19T10:01:40.000Z</time>
      </trkpt>
      <trkpt lat="42.59818" lon="1.91745">
        <ele>2279.1999511719</ele>
        <time>2023-07-19T10:01:41.000Z</time>
      </trkpt>
      <trkpt lat="42.59822" lon="1.91736">
        <ele>2278.1999511719</ele>
        <time>2023-07-19T10:01:48.000Z</time>
      </trkpt>
      <trkpt lat="42.59824" lon="1.91733">
        <ele>2278.1999511719</ele>
        <time>2023-07-19T10:01:56.000Z</time>
      </trkpt>
      <trkpt lat="42.59823" lon="1.91734">
        <ele>2278.1999511719</ele>
        <time>2023-07-19T10:01:57.000Z</time>
      </trkpt>
      <trkpt lat="42.59823" lon="1.91734">
        <ele>2278.1999511719</ele>
        <time>2023-07-19T10:02:03.000Z</time>
      </trkpt>
      <trkpt lat="42.59824" lon="1.91733">
        <ele>2278.1999511719</ele>
        <time>2023-07-19T10:02:14.000Z</time>
      </trkpt>
      <trkpt lat="42.59825" lon="1.91722">
        <ele>2277.1999511719</ele>
        <time>2023-07-19T10:02:22.000Z</time>
      </trkpt>
      <trkpt lat="42.59826" lon="1.91715">
        <ele>2276</ele>
        <time>2023-07-19T10:02:28.000Z</time>
      </trkpt>
      <trkpt lat="42.59827" lon="1.91713">
        <ele>2275.8000488281</ele>
        <time>2023-07-19T10:02:30.000Z</time>
      </trkpt>
      <trkpt lat="42.59826" lon="1.91708">
        <ele>2274.8000488281</ele>
        <time>2023-07-19T10:02:36.000Z</time>
      </trkpt>
      <trkpt lat="42.59825" lon="1.91695">
        <ele>2273.1999511719</ele>
        <time>2023-07-19T10:02:44.000Z</time>
      </trkpt>
      <trkpt lat="42.59826" lon="1.91689">
        <ele>2272.1999511719</ele>
        <time>2023-07-19T10:02:49.000Z</time>
      </trkpt>
      <trkpt lat="42.59827" lon="1.91688">
        <ele>2272</ele>
        <time>2023-07-19T10:02:51.000Z</time>
      </trkpt>
      <trkpt lat="42.5983" lon="1.91679">
        <ele>2272</ele>
        <time>2023-07-19T10:02:59.000Z</time>
      </trkpt>
      <trkpt lat="42.5983" lon="1.91672">
        <ele>2271.1999511719</ele>
        <time>2023-07-19T10:03:05.000Z</time>
      </trkpt>
      <trkpt lat="42.59831" lon="1.9167">
        <ele>2271.1999511719</ele>
        <time>2023-07-19T10:03:06.000Z</time>
      </trkpt>
      <trkpt lat="42.59832" lon="1.91662">
        <ele>2270</ele>
        <time>2023-07-19T10:03:12.000Z</time>
      </trkpt>
      <trkpt lat="42.59833" lon="1.91657">
        <ele>2268.8000488281</ele>
        <time>2023-07-19T10:03:18.000Z</time>
      </trkpt>
      <trkpt lat="42.59834" lon="1.91656">
        <ele>2268.3999023438</ele>
        <time>2023-07-19T10:03:20.000Z</time>
      </trkpt>
      <trkpt lat="42.59834" lon="1.91653">
        <ele>2267.8000488281</ele>
        <time>2023-07-19T10:03:22.000Z</time>
      </trkpt>
      <trkpt lat="42.59834" lon="1.91646">
        <ele>2266.6000976562</ele>
        <time>2023-07-19T10:03:26.000Z</time>
      </trkpt>
      <trkpt lat="42.59833" lon="1.9164">
        <ele>2266.6000976562</ele>
        <time>2023-07-19T10:03:30.000Z</time>
      </trkpt>
      <trkpt lat="42.5983" lon="1.91632">
        <ele>2265.8000488281</ele>
        <time>2023-07-19T10:03:36.000Z</time>
      </trkpt>
      <trkpt lat="42.59831" lon="1.91623">
        <ele>2265.6000976562</ele>
        <time>2023-07-19T10:03:42.000Z</time>
      </trkpt>
      <trkpt lat="42.59831" lon="1.91622">
        <ele>2265.3999023438</ele>
        <time>2023-07-19T10:03:43.000Z</time>
      </trkpt>
      <trkpt lat="42.59832" lon="1.9162">
        <ele>2264.1999511719</ele>
        <time>2023-07-19T10:03:46.000Z</time>
      </trkpt>
      <trkpt lat="42.59832" lon="1.91616">
        <ele>2263.1999511719</ele>
        <time>2023-07-19T10:03:50.000Z</time>
      </trkpt>
      <trkpt lat="42.59832" lon="1.91614">
        <ele>2263</ele>
        <time>2023-07-19T10:03:51.000Z</time>
      </trkpt>
      <trkpt lat="42.59833" lon="1.91608">
        <ele>2262</ele>
        <time>2023-07-19T10:03:55.000Z</time>
      </trkpt>
      <trkpt lat="42.59833" lon="1.91604">
        <ele>2261</ele>
        <time>2023-07-19T10:03:59.000Z</time>
      </trkpt>
      <trkpt lat="42.59832" lon="1.916">
        <ele>2260</ele>
        <time>2023-07-19T10:04:03.000Z</time>
      </trkpt>
      <trkpt lat="42.5983" lon="1.91596">
        <ele>2259.8000488281</ele>
        <time>2023-07-19T10:04:06.000Z</time>
      </trkpt>
      <trkpt lat="42.59828" lon="1.91589">
        <ele>2258.6000976562</ele>
        <time>2023-07-19T10:04:13.000Z</time>
      </trkpt>
      <trkpt lat="42.59828" lon="1.91588">
        <ele>2258.1999511719</ele>
        <time>2023-07-19T10:04:14.000Z</time>
      </trkpt>
      <trkpt lat="42.59828" lon="1.91582">
        <ele>2257.3999023438</ele>
        <time>2023-07-19T10:04:21.000Z</time>
      </trkpt>
      <trkpt lat="42.5983" lon="1.91576">
        <ele>2255.8000488281</ele>
        <time>2023-07-19T10:04:27.000Z</time>
      </trkpt>
      <trkpt lat="42.59831" lon="1.91574">
        <ele>2254.6000976562</ele>
        <time>2023-07-19T10:04:30.000Z</time>
      </trkpt>
      <trkpt lat="42.59832" lon="1.91574">
        <ele>2254.6000976562</ele>
        <time>2023-07-19T10:04:31.000Z</time>
      </trkpt>
      <trkpt lat="42.59835" lon="1.91569">
        <ele>2253.6000976562</ele>
        <time>2023-07-19T10:04:37.000Z</time>
      </trkpt>
      <trkpt lat="42.59836" lon="1.91566">
        <ele>2252.6000976562</ele>
        <time>2023-07-19T10:04:41.000Z</time>
      </trkpt>
      <trkpt lat="42.59837" lon="1.91565">
        <ele>2251</ele>
        <time>2023-07-19T10:04:45.000Z</time>
      </trkpt>
      <trkpt lat="42.59838" lon="1.91563">
        <ele>2249.8000488281</ele>
        <time>2023-07-19T10:04:47.000Z</time>
      </trkpt>
      <trkpt lat="42.59839" lon="1.91558">
        <ele>2250</ele>
        <time>2023-07-19T10:04:51.000Z</time>
      </trkpt>
      <trkpt lat="42.5984" lon="1.91552">
        <ele>2247.6000976562</ele>
        <time>2023-07-19T10:04:59.000Z</time>
      </trkpt>
      <trkpt lat="42.59841" lon="1.9155">
        <ele>2246.3999023438</ele>
        <time>2023-07-19T10:05:01.000Z</time>
      </trkpt>
      <trkpt lat="42.59843" lon="1.91545">
        <ele>2245.3999023438</ele>
        <time>2023-07-19T10:05:06.000Z</time>
      </trkpt>
      <trkpt lat="42.59844" lon="1.91542">
        <ele>2245.3999023438</ele>
        <time>2023-07-19T10:05:08.000Z</time>
      </trkpt>
      <trkpt lat="42.59844" lon="1.91534">
        <ele>2245.3999023438</ele>
        <time>2023-07-19T10:05:15.000Z</time>
      </trkpt>
      <trkpt lat="42.59845" lon="1.91532">
        <ele>2244.3999023438</ele>
        <time>2023-07-19T10:05:18.000Z</time>
      </trkpt>
      <trkpt lat="42.59845" lon="1.91531">
        <ele>2244.3999023438</ele>
        <time>2023-07-19T10:05:21.000Z</time>
      </trkpt>
      <trkpt lat="42.59846" lon="1.9153">
        <ele>2244.8000488281</ele>
        <time>2023-07-19T10:05:25.000Z</time>
      </trkpt>
      <trkpt lat="42.59848" lon="1.91529">
        <ele>2244.1999511719</ele>
        <time>2023-07-19T10:05:28.000Z</time>
      </trkpt>
      <trkpt lat="42.59848" lon="1.91529">
        <ele>2243.8000488281</ele>
        <time>2023-07-19T10:05:29.000Z</time>
      </trkpt>
      <trkpt lat="42.59852" lon="1.91528">
        <ele>2243.1999511719</ele>
        <time>2023-07-19T10:05:33.000Z</time>
      </trkpt>
      <trkpt lat="42.59852" lon="1.91528">
        <ele>2242.6000976562</ele>
        <time>2023-07-19T10:05:36.000Z</time>
      </trkpt>
      <trkpt lat="42.59852" lon="1.91525">
        <ele>2242</ele>
        <time>2023-07-19T10:05:40.000Z</time>
      </trkpt>
      <trkpt lat="42.59854" lon="1.91522">
        <ele>2241.6000976562</ele>
        <time>2023-07-19T10:05:44.000Z</time>
      </trkpt>
      <trkpt lat="42.59856" lon="1.91518">
        <ele>2241</ele>
        <time>2023-07-19T10:05:48.000Z</time>
      </trkpt>
      <trkpt lat="42.59854" lon="1.91516">
        <ele>2239.8000488281</ele>
        <time>2023-07-19T10:05:53.000Z</time>
      </trkpt>
      <trkpt lat="42.59854" lon="1.91513">
        <ele>2238.8000488281</ele>
        <time>2023-07-19T10:05:57.000Z</time>
      </trkpt>
      <trkpt lat="42.59855" lon="1.91512">
        <ele>2237.3999023438</ele>
        <time>2023-07-19T10:06:00.000Z</time>
      </trkpt>
      <trkpt lat="42.59863" lon="1.91519">
        <ele>2236.6000976562</ele>
        <time>2023-07-19T10:06:08.000Z</time>
      </trkpt>
      <trkpt lat="42.59864" lon="1.9152">
        <ele>2236.3999023438</ele>
        <time>2023-07-19T10:06:09.000Z</time>
      </trkpt>
      <trkpt lat="42.5987" lon="1.91526">
        <ele>2235.8000488281</ele>
        <time>2023-07-19T10:06:16.000Z</time>
      </trkpt>
      <trkpt lat="42.59871" lon="1.91527">
        <ele>2235.3999023438</ele>
        <time>2023-07-19T10:06:18.000Z</time>
      </trkpt>
      <trkpt lat="42.59875" lon="1.91527">
        <ele>2234</ele>
        <time>2023-07-19T10:06:27.000Z</time>
      </trkpt>
      <trkpt lat="42.59874" lon="1.9153">
        <ele>2233.8000488281</ele>
        <time>2023-07-19T10:06:34.000Z</time>
      </trkpt>
      <trkpt lat="42.59874" lon="1.91531">
        <ele>2233.8000488281</ele>
        <time>2023-07-19T10:06:43.000Z</time>
      </trkpt>
      <trkpt lat="42.59878" lon="1.91526">
        <ele>2233.8000488281</ele>
        <time>2023-07-19T10:06:50.000Z</time>
      </trkpt>
      <trkpt lat="42.59885" lon="1.9153">
        <ele>2233.1999511719</ele>
        <time>2023-07-19T10:06:57.000Z</time>
      </trkpt>
      <trkpt lat="42.59886" lon="1.9153">
        <ele>2233</ele>
        <time>2023-07-19T10:06:58.000Z</time>
      </trkpt>
      <trkpt lat="42.59893" lon="1.91532">
        <ele>2231.3999023438</ele>
        <time>2023-07-19T10:07:08.000Z</time>
      </trkpt>
      <trkpt lat="42.59894" lon="1.91532">
        <ele>2231.3999023438</ele>
        <time>2023-07-19T10:07:09.000Z</time>
      </trkpt>
      <trkpt lat="42.59897" lon="1.91534">
        <ele>2230.8000488281</ele>
        <time>2023-07-19T10:07:12.000Z</time>
      </trkpt>
      <trkpt lat="42.59906" lon="1.91537">
        <ele>2230.3999023438</ele>
        <time>2023-07-19T10:07:18.000Z</time>
      </trkpt>
      <trkpt lat="42.59917" lon="1.91545">
        <ele>2229.8000488281</ele>
        <time>2023-07-19T10:07:25.000Z</time>
      </trkpt>
      <trkpt lat="42.5992" lon="1.91549">
        <ele>2229.6000976562</ele>
        <time>2023-07-19T10:07:28.000Z</time>
      </trkpt>
      <trkpt lat="42.59923" lon="1.91552">
        <ele>2229.3999023438</ele>
        <time>2023-07-19T10:07:32.000Z</time>
      </trkpt>
      <trkpt lat="42.59927" lon="1.91557">
        <ele>2228.8000488281</ele>
        <time>2023-07-19T10:07:41.000Z</time>
      </trkpt>
      <trkpt lat="42.59927" lon="1.91556">
        <ele>2228.6000976562</ele>
        <time>2023-07-19T10:07:42.000Z</time>
      </trkpt>
      <trkpt lat="42.59931" lon="1.91555">
        <ele>2227.6000976562</ele>
        <time>2023-07-19T10:07:48.000Z</time>
      </trkpt>
      <trkpt lat="42.59932" lon="1.91555">
        <ele>2227.3999023438</ele>
        <time>2023-07-19T10:07:49.000Z</time>
      </trkpt>
      <trkpt lat="42.59936" lon="1.91555">
        <ele>2226.1999511719</ele>
        <time>2023-07-19T10:07:53.000Z</time>
      </trkpt>
      <trkpt lat="42.5994" lon="1.91556">
        <ele>2226</ele>
        <time>2023-07-19T10:07:56.000Z</time>
      </trkpt>
      <trkpt lat="42.59951" lon="1.91563">
        <ele>2225.3999023438</ele>
        <time>2023-07-19T10:08:06.000Z</time>
      </trkpt>
      <trkpt lat="42.59953" lon="1.91565">
        <ele>2225.1999511719</ele>
        <time>2023-07-19T10:08:08.000Z</time>
      </trkpt>
      <trkpt lat="42.59957" lon="1.91568">
        <ele>2224.6000976562</ele>
        <time>2023-07-19T10:08:14.000Z</time>
      </trkpt>
      <trkpt lat="42.5996" lon="1.91569">
        <ele>2224</ele>
        <time>2023-07-19T10:08:17.000Z</time>
      </trkpt>
      <trkpt lat="42.59965" lon="1.91574">
        <ele>2223.3999023438</ele>
        <time>2023-07-19T10:08:23.000Z</time>
      </trkpt>
      <trkpt lat="42.59971" lon="1.91581">
        <ele>2223</ele>
        <time>2023-07-19T10:08:28.000Z</time>
      </trkpt>
      <trkpt lat="42.59974" lon="1.91582">
        <ele>2223</ele>
        <time>2023-07-19T10:08:31.000Z</time>
      </trkpt>
      <trkpt lat="42.59975" lon="1.9158">
        <ele>2222.8000488281</ele>
        <time>2023-07-19T10:08:33.000Z</time>
      </trkpt>
      <trkpt lat="42.59979" lon="1.91577">
        <ele>2222.3999023438</ele>
        <time>2023-07-19T10:08:39.000Z</time>
      </trkpt>
      <trkpt lat="42.5998" lon="1.91576">
        <ele>2222.3999023438</ele>
        <time>2023-07-19T10:08:47.000Z</time>
      </trkpt>
      <trkpt lat="42.59979" lon="1.91575">
        <ele>2222.3999023438</ele>
        <time>2023-07-19T10:08:54.000Z</time>
      </trkpt>
      <trkpt lat="42.59983" lon="1.91572">
        <ele>2222.3999023438</ele>
        <time>2023-07-19T10:09:01.000Z</time>
      </trkpt>
      <trkpt lat="42.59991" lon="1.91563">
        <ele>2222</ele>
        <time>2023-07-19T10:09:08.000Z</time>
      </trkpt>
      <trkpt lat="42.59993" lon="1.91559">
        <ele>2222.1999511719</ele>
        <time>2023-07-19T10:09:17.000Z</time>
      </trkpt>
      <trkpt lat="42.59995" lon="1.91555">
        <ele>2222</ele>
        <time>2023-07-19T10:09:23.000Z</time>
      </trkpt>
      <trkpt lat="42.59996" lon="1.91552">
        <ele>2221.8000488281</ele>
        <time>2023-07-19T10:09:26.000Z</time>
      </trkpt>
      <trkpt lat="42.59993" lon="1.9154">
        <ele>2222.1999511719</ele>
        <time>2023-07-19T10:09:34.000Z</time>
      </trkpt>
      <trkpt lat="42.59992" lon="1.91536">
        <ele>2223.3999023438</ele>
        <time>2023-07-19T10:09:36.000Z</time>
      </trkpt>
      <trkpt lat="42.59989" lon="1.9153">
        <ele>2223.6000976562</ele>
        <time>2023-07-19T10:09:41.000Z</time>
      </trkpt>
      <trkpt lat="42.59988" lon="1.91522">
        <ele>2223.6000976562</ele>
        <time>2023-07-19T10:09:48.000Z</time>
      </trkpt>
      <trkpt lat="42.59988" lon="1.91516">
        <ele>2224.3999023438</ele>
        <time>2023-07-19T10:09:54.000Z</time>
      </trkpt>
      <trkpt lat="42.59989" lon="1.91511">
        <ele>2224.6000976562</ele>
        <time>2023-07-19T10:09:58.000Z</time>
      </trkpt>
      <trkpt lat="42.59995" lon="1.91503">
        <ele>2224.3999023438</ele>
        <time>2023-07-19T10:10:06.000Z</time>
      </trkpt>
      <trkpt lat="42.6" lon="1.91502">
        <ele>2224.8000488281</ele>
        <time>2023-07-19T10:10:12.000Z</time>
      </trkpt>
      <trkpt lat="42.60002" lon="1.91501">
        <ele>2225.6000976562</ele>
        <time>2023-07-19T10:10:15.000Z</time>
      </trkpt>
      <trkpt lat="42.60004" lon="1.915">
        <ele>2226.1999511719</ele>
        <time>2023-07-19T10:10:20.000Z</time>
      </trkpt>
      <trkpt lat="42.6001" lon="1.915">
        <ele>2226.8000488281</ele>
        <time>2023-07-19T10:10:28.000Z</time>
      </trkpt>
      <trkpt lat="42.60011" lon="1.915">
        <ele>2227</ele>
        <time>2023-07-19T10:10:29.000Z</time>
      </trkpt>
      <trkpt lat="42.60014" lon="1.915">
        <ele>2227.8000488281</ele>
        <time>2023-07-19T10:10:36.000Z</time>
      </trkpt>
      <trkpt lat="42.60017" lon="1.91496">
        <ele>2228</ele>
        <time>2023-07-19T10:10:43.000Z</time>
      </trkpt>
      <trkpt lat="42.60022" lon="1.91489">
        <ele>2228.6000976562</ele>
        <time>2023-07-19T10:10:54.000Z</time>
      </trkpt>
      <trkpt lat="42.60022" lon="1.91479">
        <ele>2228.3999023438</ele>
        <time>2023-07-19T10:11:01.000Z</time>
      </trkpt>
      <trkpt lat="42.60021" lon="1.91474">
        <ele>2228.8000488281</ele>
        <time>2023-07-19T10:11:05.000Z</time>
      </trkpt>
      <trkpt lat="42.60021" lon="1.9147">
        <ele>2229.3999023438</ele>
        <time>2023-07-19T10:11:10.000Z</time>
      </trkpt>
      <trkpt lat="42.60021" lon="1.91466">
        <ele>2230</ele>
        <time>2023-07-19T10:11:13.000Z</time>
      </trkpt>
      <trkpt lat="42.60022" lon="1.91463">
        <ele>2230.8000488281</ele>
        <time>2023-07-19T10:11:17.000Z</time>
      </trkpt>
      <trkpt lat="42.60023" lon="1.91461">
        <ele>2231.1999511719</ele>
        <time>2023-07-19T10:11:20.000Z</time>
      </trkpt>
      <trkpt lat="42.60024" lon="1.91453">
        <ele>2232</ele>
        <time>2023-07-19T10:11:26.000Z</time>
      </trkpt>
      <trkpt lat="42.60024" lon="1.91447">
        <ele>2232.1999511719</ele>
        <time>2023-07-19T10:11:30.000Z</time>
      </trkpt>
      <trkpt lat="42.60023" lon="1.91442">
        <ele>2232.3999023438</ele>
        <time>2023-07-19T10:11:35.000Z</time>
      </trkpt>
      <trkpt lat="42.60023" lon="1.91437">
        <ele>2233.3999023438</ele>
        <time>2023-07-19T10:11:39.000Z</time>
      </trkpt>
      <trkpt lat="42.60025" lon="1.91433">
        <ele>2234</ele>
        <time>2023-07-19T10:11:43.000Z</time>
      </trkpt>
      <trkpt lat="42.60025" lon="1.91433">
        <ele>2234.6000976562</ele>
        <time>2023-07-19T10:11:44.000Z</time>
      </trkpt>
      <trkpt lat="42.60026" lon="1.91425">
        <ele>2234.8000488281</ele>
        <time>2023-07-19T10:11:51.000Z</time>
      </trkpt>
      <trkpt lat="42.60025" lon="1.91422">
        <ele>2234.8000488281</ele>
        <time>2023-07-19T10:11:57.000Z</time>
      </trkpt>
      <trkpt lat="42.60024" lon="1.91418">
        <ele>2234.3999023438</ele>
        <time>2023-07-19T10:12:05.000Z</time>
      </trkpt>
      <trkpt lat="42.6002" lon="1.91413">
        <ele>2233.6000976562</ele>
        <time>2023-07-19T10:12:12.000Z</time>
      </trkpt>
      <trkpt lat="42.60013" lon="1.91408">
        <ele>2234.6000976562</ele>
        <time>2023-07-19T10:12:22.000Z</time>
      </trkpt>
      <trkpt lat="42.60014" lon="1.91398">
        <ele>2235.1999511719</ele>
        <time>2023-07-19T10:12:30.000Z</time>
      </trkpt>
      <trkpt lat="42.60015" lon="1.91396">
        <ele>2235.6000976562</ele>
        <time>2023-07-19T10:12:33.000Z</time>
      </trkpt>
      <trkpt lat="42.60016" lon="1.91393">
        <ele>2236</ele>
        <time>2023-07-19T10:12:36.000Z</time>
      </trkpt>
      <trkpt lat="42.60017" lon="1.91387">
        <ele>2236.6000976562</ele>
        <time>2023-07-19T10:12:42.000Z</time>
      </trkpt>
      <trkpt lat="42.60017" lon="1.91387">
        <ele>2236.8000488281</ele>
        <time>2023-07-19T10:12:43.000Z</time>
      </trkpt>
      <trkpt lat="42.60016" lon="1.91382">
        <ele>2237.6000976562</ele>
        <time>2023-07-19T10:12:49.000Z</time>
      </trkpt>
      <trkpt lat="42.60012" lon="1.91375">
        <ele>2237.8000488281</ele>
        <time>2023-07-19T10:12:57.000Z</time>
      </trkpt>
      <trkpt lat="42.60005" lon="1.91368">
        <ele>2238.6000976562</ele>
        <time>2023-07-19T10:13:05.000Z</time>
      </trkpt>
      <trkpt lat="42.60005" lon="1.91367">
        <ele>2239</ele>
        <time>2023-07-19T10:13:06.000Z</time>
      </trkpt>
      <trkpt lat="42.60005" lon="1.91361">
        <ele>2239.3999023438</ele>
        <time>2023-07-19T10:13:12.000Z</time>
      </trkpt>
      <trkpt lat="42.60006" lon="1.91358">
        <ele>2239.1999511719</ele>
        <time>2023-07-19T10:13:18.000Z</time>
      </trkpt>
      <trkpt lat="42.60006" lon="1.91349">
        <ele>2238.1999511719</ele>
        <time>2023-07-19T10:13:25.000Z</time>
      </trkpt>
      <trkpt lat="42.60007" lon="1.91348">
        <ele>2237.8000488281</ele>
        <time>2023-07-19T10:13:30.000Z</time>
      </trkpt>
      <trkpt lat="42.60007" lon="1.91348">
        <ele>2237.6000976562</ele>
        <time>2023-07-19T10:13:34.000Z</time>
      </trkpt>
      <trkpt lat="42.60005" lon="1.91343">
        <ele>2238.1999511719</ele>
        <time>2023-07-19T10:13:41.000Z</time>
      </trkpt>
      <trkpt lat="42.60003" lon="1.91342">
        <ele>2238.1999511719</ele>
        <time>2023-07-19T10:13:48.000Z</time>
      </trkpt>
      <trkpt lat="42.60001" lon="1.91333">
        <ele>2238.1999511719</ele>
        <time>2023-07-19T10:13:56.000Z</time>
      </trkpt>
      <trkpt lat="42.6" lon="1.91328">
        <ele>2238.8000488281</ele>
        <time>2023-07-19T10:14:02.000Z</time>
      </trkpt>
      <trkpt lat="42.6" lon="1.91324">
        <ele>2239.1999511719</ele>
        <time>2023-07-19T10:14:08.000Z</time>
      </trkpt>
      <trkpt lat="42.6" lon="1.91314">
        <ele>2239.8000488281</ele>
        <time>2023-07-19T10:14:14.000Z</time>
      </trkpt>
      <trkpt lat="42.59997" lon="1.91305">
        <ele>2239.6000976562</ele>
        <time>2023-07-19T10:14:20.000Z</time>
      </trkpt>
      <trkpt lat="42.59996" lon="1.91301">
        <ele>2239.3999023438</ele>
        <time>2023-07-19T10:14:26.000Z</time>
      </trkpt>
      <trkpt lat="42.59997" lon="1.91304">
        <ele>2239.1999511719</ele>
        <time>2023-07-19T10:14:33.000Z</time>
      </trkpt>
      <trkpt lat="42.59998" lon="1.91305">
        <ele>2239.1999511719</ele>
        <time>2023-07-19T10:14:39.000Z</time>
      </trkpt>
      <trkpt lat="42.60001" lon="1.91307">
        <ele>2238.8000488281</ele>
        <time>2023-07-19T10:14:47.000Z</time>
      </trkpt>
      <trkpt lat="42.6" lon="1.91306">
        <ele>2238.1999511719</ele>
        <time>2023-07-19T10:14:53.000Z</time>
      </trkpt>
      <trkpt lat="42.60001" lon="1.91306">
        <ele>2238.6000976562</ele>
        <time>2023-07-19T10:15:05.000Z</time>
      </trkpt>
      <trkpt lat="42.60004" lon="1.91308">
        <ele>2238.8000488281</ele>
        <time>2023-07-19T10:15:12.000Z</time>
      </trkpt>
      <trkpt lat="42.6" lon="1.91306">
        <ele>2238.1999511719</ele>
        <time>2023-07-19T10:15:25.000Z</time>
      </trkpt>
      <trkpt lat="42.59997" lon="1.91306">
        <ele>2237.8000488281</ele>
        <time>2023-07-19T10:15:36.000Z</time>
      </trkpt>
      <trkpt lat="42.59997" lon="1.91305">
        <ele>2237.8000488281</ele>
        <time>2023-07-19T10:15:37.000Z</time>
      </trkpt>
      <trkpt lat="42.59997" lon="1.91304">
        <ele>2238</ele>
        <time>2023-07-19T10:15:44.000Z</time>
      </trkpt>
      <trkpt lat="42.59996" lon="1.91301">
        <ele>2237.8000488281</ele>
        <time>2023-07-19T10:15:54.000Z</time>
      </trkpt>
      <trkpt lat="42.59997" lon="1.91303">
        <ele>2237.1999511719</ele>
        <time>2023-07-19T10:16:01.000Z</time>
      </trkpt>
      <trkpt lat="42.59996" lon="1.91301">
        <ele>2237.6000976562</ele>
        <time>2023-07-19T10:16:24.000Z</time>
      </trkpt>
      <trkpt lat="42.59994" lon="1.91299">
        <ele>2238</ele>
        <time>2023-07-19T10:16:32.000Z</time>
      </trkpt>
      <trkpt lat="42.59992" lon="1.91301">
        <ele>2238</ele>
        <time>2023-07-19T10:16:40.000Z</time>
      </trkpt>
      <trkpt lat="42.59994" lon="1.91302">
        <ele>2238.1999511719</ele>
        <time>2023-07-19T10:16:50.000Z</time>
      </trkpt>
      <trkpt lat="42.59997" lon="1.91302">
        <ele>2238.6000976562</ele>
        <time>2023-07-19T10:17:00.000Z</time>
      </trkpt>
      <trkpt lat="42.59999" lon="1.91303">
        <ele>2238</ele>
        <time>2023-07-19T10:17:09.000Z</time>
      </trkpt>
      <trkpt lat="42.6" lon="1.91306">
        <ele>2238</ele>
        <time>2023-07-19T10:17:15.000Z</time>
      </trkpt>
      <trkpt lat="42.59998" lon="1.91305">
        <ele>2238</ele>
        <time>2023-07-19T10:17:22.000Z</time>
      </trkpt>
      <trkpt lat="42.59996" lon="1.91301">
        <ele>2237.6000976562</ele>
        <time>2023-07-19T10:17:30.000Z</time>
      </trkpt>
      <trkpt lat="42.59996" lon="1.91302">
        <ele>2237.1999511719</ele>
        <time>2023-07-19T10:17:42.000Z</time>
      </trkpt>
      <trkpt lat="42.59996" lon="1.91298">
        <ele>2236.8000488281</ele>
        <time>2023-07-19T10:17:50.000Z</time>
      </trkpt>
      <trkpt lat="42.59995" lon="1.91298">
        <ele>2236.8000488281</ele>
        <time>2023-07-19T10:17:51.000Z</time>
      </trkpt>
      <trkpt lat="42.59999" lon="1.91304">
        <ele>2236.3999023438</ele>
        <time>2023-07-19T10:18:13.000Z</time>
      </trkpt>
      <trkpt lat="42.59997" lon="1.91302">
        <ele>2236.1999511719</ele>
        <time>2023-07-19T10:18:18.000Z</time>
      </trkpt>
      <trkpt lat="42.6" lon="1.91294">
        <ele>2236.1999511719</ele>
        <time>2023-07-19T10:29:35.000Z</time>
      </trkpt>
      <trkpt lat="42.60006" lon="1.91293">
        <ele>2236.1999511719</ele>
        <time>2023-07-19T10:29:41.000Z</time>
      </trkpt>
      <trkpt lat="42.60007" lon="1.91291">
        <ele>2236.6000976562</ele>
        <time>2023-07-19T10:29:46.000Z</time>
      </trkpt>
      <trkpt lat="42.60011" lon="1.91286">
        <ele>2237</ele>
        <time>2023-07-19T10:29:51.000Z</time>
      </trkpt>
      <trkpt lat="42.60016" lon="1.91283">
        <ele>2237.6000976562</ele>
        <time>2023-07-19T10:29:59.000Z</time>
      </trkpt>
      <trkpt lat="42.60017" lon="1.91283">
        <ele>2237.8000488281</ele>
        <time>2023-07-19T10:30:00.000Z</time>
      </trkpt>
      <trkpt lat="42.60019" lon="1.91279">
        <ele>2238</ele>
        <time>2023-07-19T10:30:04.000Z</time>
      </trkpt>
      <trkpt lat="42.6002" lon="1.91276">
        <ele>2238.3999023438</ele>
        <time>2023-07-19T10:30:08.000Z</time>
      </trkpt>
      <trkpt lat="42.60021" lon="1.91273">
        <ele>2238.8000488281</ele>
        <time>2023-07-19T10:30:12.000Z</time>
      </trkpt>
      <trkpt lat="42.60021" lon="1.91272">
        <ele>2238.8000488281</ele>
        <time>2023-07-19T10:30:15.000Z</time>
      </trkpt>
      <trkpt lat="42.6002" lon="1.91271">
        <ele>2239</ele>
        <time>2023-07-19T10:30:22.000Z</time>
      </trkpt>
      <trkpt lat="42.6002" lon="1.91266">
        <ele>2238.8000488281</ele>
        <time>2023-07-19T10:30:29.000Z</time>
      </trkpt>
      <trkpt lat="42.60026" lon="1.91262">
        <ele>2239.1999511719</ele>
        <time>2023-07-19T10:30:37.000Z</time>
      </trkpt>
      <trkpt lat="42.60034" lon="1.91254">
        <ele>2239.1999511719</ele>
        <time>2023-07-19T10:30:46.000Z</time>
      </trkpt>
      <trkpt lat="42.60041" lon="1.91244">
        <ele>2238.8000488281</ele>
        <time>2023-07-19T10:30:54.000Z</time>
      </trkpt>
      <trkpt lat="42.60049" lon="1.91239">
        <ele>2238</ele>
        <time>2023-07-19T10:31:02.000Z</time>
      </trkpt>
      <trkpt lat="42.6005" lon="1.91238">
        <ele>2237.8000488281</ele>
        <time>2023-07-19T10:31:04.000Z</time>
      </trkpt>
      <trkpt lat="42.60055" lon="1.91233">
        <ele>2237.8000488281</ele>
        <time>2023-07-19T10:31:11.000Z</time>
      </trkpt>
      <trkpt lat="42.60059" lon="1.91227">
        <ele>2237.3999023438</ele>
        <time>2023-07-19T10:31:19.000Z</time>
      </trkpt>
      <trkpt lat="42.60062" lon="1.91222">
        <ele>2237.1999511719</ele>
        <time>2023-07-19T10:31:25.000Z</time>
      </trkpt>
      <trkpt lat="42.60064" lon="1.9122">
        <ele>2238.6000976562</ele>
        <time>2023-07-19T10:31:33.000Z</time>
      </trkpt>
      <trkpt lat="42.60065" lon="1.91219">
        <ele>2238.6000976562</ele>
        <time>2023-07-19T10:31:34.000Z</time>
      </trkpt>
      <trkpt lat="42.60068" lon="1.91212">
        <ele>2238.3999023438</ele>
        <time>2023-07-19T10:31:41.000Z</time>
      </trkpt>
      <trkpt lat="42.6007" lon="1.91205">
        <ele>2238</ele>
        <time>2023-07-19T10:31:49.000Z</time>
      </trkpt>
      <trkpt lat="42.60067" lon="1.91197">
        <ele>2237.6000976562</ele>
        <time>2023-07-19T10:31:55.000Z</time>
      </trkpt>
      <trkpt lat="42.60068" lon="1.91196">
        <ele>2237.3999023438</ele>
        <time>2023-07-19T10:31:57.000Z</time>
      </trkpt>
      <trkpt lat="42.60071" lon="1.91193">
        <ele>2236.6000976562</ele>
        <time>2023-07-19T10:32:04.000Z</time>
      </trkpt>
      <trkpt lat="42.60072" lon="1.91192">
        <ele>2236.3999023438</ele>
        <time>2023-07-19T10:32:05.000Z</time>
      </trkpt>
      <trkpt lat="42.60076" lon="1.91187">
        <ele>2235.3999023438</ele>
        <time>2023-07-19T10:32:11.000Z</time>
      </trkpt>
      <trkpt lat="42.60077" lon="1.91185">
        <ele>2235</ele>
        <time>2023-07-19T10:32:12.000Z</time>
      </trkpt>
      <trkpt lat="42.60079" lon="1.9118">
        <ele>2235.1999511719</ele>
        <time>2023-07-19T10:32:18.000Z</time>
      </trkpt>
      <trkpt lat="42.6008" lon="1.91178">
        <ele>2236.6000976562</ele>
        <time>2023-07-19T10:32:20.000Z</time>
      </trkpt>
      <trkpt lat="42.6008" lon="1.91175">
        <ele>2237.8000488281</ele>
        <time>2023-07-19T10:32:22.000Z</time>
      </trkpt>
      <trkpt lat="42.6008" lon="1.91172">
        <ele>2237.8000488281</ele>
        <time>2023-07-19T10:32:25.000Z</time>
      </trkpt>
      <trkpt lat="42.60079" lon="1.91168">
        <ele>2236.1999511719</ele>
        <time>2023-07-19T10:32:30.000Z</time>
      </trkpt>
      <trkpt lat="42.6008" lon="1.91167">
        <ele>2235.8000488281</ele>
        <time>2023-07-19T10:32:33.000Z</time>
      </trkpt>
      <trkpt lat="42.60083" lon="1.91167">
        <ele>2235.1999511719</ele>
        <time>2023-07-19T10:32:37.000Z</time>
      </trkpt>
      <trkpt lat="42.60085" lon="1.91166">
        <ele>2235</ele>
        <time>2023-07-19T10:32:40.000Z</time>
      </trkpt>
      <trkpt lat="42.60088" lon="1.91159">
        <ele>2234</ele>
        <time>2023-07-19T10:32:46.000Z</time>
      </trkpt>
      <trkpt lat="42.60089" lon="1.91156">
        <ele>2233.8000488281</ele>
        <time>2023-07-19T10:32:49.000Z</time>
      </trkpt>
      <trkpt lat="42.60089" lon="1.91153">
        <ele>2233</ele>
        <time>2023-07-19T10:32:53.000Z</time>
      </trkpt>
      <trkpt lat="42.60091" lon="1.9115">
        <ele>2232.8000488281</ele>
        <time>2023-07-19T10:32:57.000Z</time>
      </trkpt>
      <trkpt lat="42.60095" lon="1.91145">
        <ele>2232</ele>
        <time>2023-07-19T10:33:05.000Z</time>
      </trkpt>
      <trkpt lat="42.60097" lon="1.91142">
        <ele>2230.6000976562</ele>
        <time>2023-07-19T10:33:09.000Z</time>
      </trkpt>
      <trkpt lat="42.60098" lon="1.91139">
        <ele>2229.8000488281</ele>
        <time>2023-07-19T10:33:12.000Z</time>
      </trkpt>
      <trkpt lat="42.60099" lon="1.91138">
        <ele>2229.6000976562</ele>
        <time>2023-07-19T10:33:13.000Z</time>
      </trkpt>
      <trkpt lat="42.601" lon="1.9113">
        <ele>2229.3999023438</ele>
        <time>2023-07-19T10:33:19.000Z</time>
      </trkpt>
      <trkpt lat="42.60101" lon="1.91119">
        <ele>2229.3999023438</ele>
        <time>2023-07-19T10:33:26.000Z</time>
      </trkpt>
      <trkpt lat="42.60105" lon="1.91112">
        <ele>2229.3999023438</ele>
        <time>2023-07-19T10:33:33.000Z</time>
      </trkpt>
      <trkpt lat="42.60108" lon="1.91104">
        <ele>2229</ele>
        <time>2023-07-19T10:33:41.000Z</time>
      </trkpt>
      <trkpt lat="42.60109" lon="1.91097">
        <ele>2228.8000488281</ele>
        <time>2023-07-19T10:33:46.000Z</time>
      </trkpt>
      <trkpt lat="42.6011" lon="1.91093">
        <ele>2229.1999511719</ele>
        <time>2023-07-19T10:33:53.000Z</time>
      </trkpt>
      <trkpt lat="42.6011" lon="1.91095">
        <ele>2229.1999511719</ele>
        <time>2023-07-19T10:33:58.000Z</time>
      </trkpt>
      <trkpt lat="42.6011" lon="1.91093">
        <ele>2229.3999023438</ele>
        <time>2023-07-19T10:34:02.000Z</time>
      </trkpt>
      <trkpt lat="42.60109" lon="1.91092">
        <ele>2229.3999023438</ele>
        <time>2023-07-19T10:34:10.000Z</time>
      </trkpt>
      <trkpt lat="42.60109" lon="1.91086">
        <ele>2229.3999023438</ele>
        <time>2023-07-19T10:34:18.000Z</time>
      </trkpt>
      <trkpt lat="42.60111" lon="1.91081">
        <ele>2229.3999023438</ele>
        <time>2023-07-19T10:34:24.000Z</time>
      </trkpt>
      <trkpt lat="42.60112" lon="1.91079">
        <ele>2229.3999023438</ele>
        <time>2023-07-19T10:34:31.000Z</time>
      </trkpt>
      <trkpt lat="42.60109" lon="1.91078">
        <ele>2229</ele>
        <time>2023-07-19T10:34:38.000Z</time>
      </trkpt>
      <trkpt lat="42.60107" lon="1.91078">
        <ele>2228.3999023438</ele>
        <time>2023-07-19T10:34:43.000Z</time>
      </trkpt>
      <trkpt lat="42.60107" lon="1.91078">
        <ele>2228.3999023438</ele>
        <time>2023-07-19T10:34:47.000Z</time>
      </trkpt>
      <trkpt lat="42.6011" lon="1.9108">
        <ele>2228.6000976562</ele>
        <time>2023-07-19T10:34:54.000Z</time>
      </trkpt>
      <trkpt lat="42.60112" lon="1.9108">
        <ele>2229.1999511719</ele>
        <time>2023-07-19T10:35:03.000Z</time>
      </trkpt>
      <trkpt lat="42.60113" lon="1.91078">
        <ele>2229.1999511719</ele>
        <time>2023-07-19T10:35:11.000Z</time>
      </trkpt>
      <trkpt lat="42.60111" lon="1.91074">
        <ele>2229.1999511719</ele>
        <time>2023-07-19T10:35:18.000Z</time>
      </trkpt>
      <trkpt lat="42.60107" lon="1.91069">
        <ele>2229</ele>
        <time>2023-07-19T10:35:25.000Z</time>
      </trkpt>
      <trkpt lat="42.60104" lon="1.91065">
        <ele>2229.1999511719</ele>
        <time>2023-07-19T10:35:30.000Z</time>
      </trkpt>
      <trkpt lat="42.60105" lon="1.91061">
        <ele>2229.6000976562</ele>
        <time>2023-07-19T10:35:33.000Z</time>
      </trkpt>
      <trkpt lat="42.60106" lon="1.91058">
        <ele>2229.6000976562</ele>
        <time>2023-07-19T10:35:36.000Z</time>
      </trkpt>
      <trkpt lat="42.60109" lon="1.91055">
        <ele>2229.8000488281</ele>
        <time>2023-07-19T10:35:42.000Z</time>
      </trkpt>
      <trkpt lat="42.60113" lon="1.91049">
        <ele>2229.8000488281</ele>
        <time>2023-07-19T10:35:48.000Z</time>
      </trkpt>
      <trkpt lat="42.60114" lon="1.91038">
        <ele>2230.1999511719</ele>
        <time>2023-07-19T10:35:57.000Z</time>
      </trkpt>
      <trkpt lat="42.60116" lon="1.91034">
        <ele>2230.6000976562</ele>
        <time>2023-07-19T10:36:01.000Z</time>
      </trkpt>
      <trkpt lat="42.60119" lon="1.91028">
        <ele>2230.8000488281</ele>
        <time>2023-07-19T10:36:05.000Z</time>
      </trkpt>
      <trkpt lat="42.60122" lon="1.91018">
        <ele>2231</ele>
        <time>2023-07-19T10:36:11.000Z</time>
      </trkpt>
      <trkpt lat="42.60124" lon="1.91008">
        <ele>2231.1999511719</ele>
        <time>2023-07-19T10:36:18.000Z</time>
      </trkpt>
      <trkpt lat="42.60124" lon="1.90999">
        <ele>2231.1999511719</ele>
        <time>2023-07-19T10:36:25.000Z</time>
      </trkpt>
      <trkpt lat="42.60127" lon="1.90985">
        <ele>2231.3999023438</ele>
        <time>2023-07-19T10:36:35.000Z</time>
      </trkpt>
      <trkpt lat="42.60133" lon="1.90982">
        <ele>2231.3999023438</ele>
        <time>2023-07-19T10:36:42.000Z</time>
      </trkpt>
      <trkpt lat="42.60136" lon="1.90979">
        <ele>2231.8000488281</ele>
        <time>2023-07-19T10:36:45.000Z</time>
      </trkpt>
      <trkpt lat="42.60138" lon="1.90974">
        <ele>2232</ele>
        <time>2023-07-19T10:36:49.000Z</time>
      </trkpt>
      <trkpt lat="42.60141" lon="1.90966">
        <ele>2231.8000488281</ele>
        <time>2023-07-19T10:36:56.000Z</time>
      </trkpt>
      <trkpt lat="42.60146" lon="1.90961">
        <ele>2232.6000976562</ele>
        <time>2023-07-19T10:37:04.000Z</time>
      </trkpt>
      <trkpt lat="42.60146" lon="1.90961">
        <ele>2232.8000488281</ele>
        <time>2023-07-19T10:37:05.000Z</time>
      </trkpt>
      <trkpt lat="42.6015" lon="1.90958">
        <ele>2234</ele>
        <time>2023-07-19T10:37:12.000Z</time>
      </trkpt>
      <trkpt lat="42.60152" lon="1.90956">
        <ele>2234.3999023438</ele>
        <time>2023-07-19T10:37:15.000Z</time>
      </trkpt>
      <trkpt lat="42.60152" lon="1.90954">
        <ele>2235</ele>
        <time>2023-07-19T10:37:19.000Z</time>
      </trkpt>
      <trkpt lat="42.60152" lon="1.90953">
        <ele>2235.8000488281</ele>
        <time>2023-07-19T10:37:24.000Z</time>
      </trkpt>
      <trkpt lat="42.60153" lon="1.90951">
        <ele>2236</ele>
        <time>2023-07-19T10:37:26.000Z</time>
      </trkpt>
      <trkpt lat="42.60158" lon="1.90941">
        <ele>2236.8000488281</ele>
        <time>2023-07-19T10:37:33.000Z</time>
      </trkpt>
      <trkpt lat="42.60161" lon="1.90934">
        <ele>2237</ele>
        <time>2023-07-19T10:37:39.000Z</time>
      </trkpt>
      <trkpt lat="42.60163" lon="1.90932">
        <ele>2237.1999511719</ele>
        <time>2023-07-19T10:37:42.000Z</time>
      </trkpt>
      <trkpt lat="42.60166" lon="1.90926">
        <ele>2237.1999511719</ele>
        <time>2023-07-19T10:37:49.000Z</time>
      </trkpt>
      <trkpt lat="42.60169" lon="1.9092">
        <ele>2237.8000488281</ele>
        <time>2023-07-19T10:37:56.000Z</time>
      </trkpt>
      <trkpt lat="42.60172" lon="1.90919">
        <ele>2238.1999511719</ele>
        <time>2023-07-19T10:38:00.000Z</time>
      </trkpt>
      <trkpt lat="42.60176" lon="1.90915">
        <ele>2238.3999023438</ele>
        <time>2023-07-19T10:38:03.000Z</time>
      </trkpt>
      <trkpt lat="42.60178" lon="1.90907">
        <ele>2239</ele>
        <time>2023-07-19T10:38:09.000Z</time>
      </trkpt>
      <trkpt lat="42.60178" lon="1.90905">
        <ele>2239.1999511719</ele>
        <time>2023-07-19T10:38:11.000Z</time>
      </trkpt>
      <trkpt lat="42.60179" lon="1.90897">
        <ele>2239.3999023438</ele>
        <time>2023-07-19T10:38:17.000Z</time>
      </trkpt>
      <trkpt lat="42.60185" lon="1.90886">
        <ele>2239.6000976562</ele>
        <time>2023-07-19T10:38:28.000Z</time>
      </trkpt>
      <trkpt lat="42.6019" lon="1.90881">
        <ele>2240.3999023438</ele>
        <time>2023-07-19T10:38:37.000Z</time>
      </trkpt>
      <trkpt lat="42.60191" lon="1.90881">
        <ele>2240.3999023438</ele>
        <time>2023-07-19T10:38:38.000Z</time>
      </trkpt>
      <trkpt lat="42.60201" lon="1.90876">
        <ele>2241.1999511719</ele>
        <time>2023-07-19T10:38:48.000Z</time>
      </trkpt>
      <trkpt lat="42.60204" lon="1.90873">
        <ele>2241.3999023438</ele>
        <time>2023-07-19T10:38:52.000Z</time>
      </trkpt>
      <trkpt lat="42.60209" lon="1.90869">
        <ele>2241.6000976562</ele>
        <time>2023-07-19T10:38:57.000Z</time>
      </trkpt>
      <trkpt lat="42.60217" lon="1.90866">
        <ele>2241.8000488281</ele>
        <time>2023-07-19T10:39:05.000Z</time>
      </trkpt>
      <trkpt lat="42.60221" lon="1.90861">
        <ele>2242.3999023438</ele>
        <time>2023-07-19T10:39:10.000Z</time>
      </trkpt>
      <trkpt lat="42.60223" lon="1.90857">
        <ele>2242.6000976562</ele>
        <time>2023-07-19T10:39:13.000Z</time>
      </trkpt>
      <trkpt lat="42.60226" lon="1.90853">
        <ele>2242.6000976562</ele>
        <time>2023-07-19T10:39:19.000Z</time>
      </trkpt>
      <trkpt lat="42.60233" lon="1.90844">
        <ele>2243.3999023438</ele>
        <time>2023-07-19T10:39:28.000Z</time>
      </trkpt>
      <trkpt lat="42.60234" lon="1.90843">
        <ele>2243.6000976562</ele>
        <time>2023-07-19T10:39:30.000Z</time>
      </trkpt>
      <trkpt lat="42.60239" lon="1.90841">
        <ele>2244</ele>
        <time>2023-07-19T10:39:36.000Z</time>
      </trkpt>
      <trkpt lat="42.60246" lon="1.90838">
        <ele>2244</ele>
        <time>2023-07-19T10:39:43.000Z</time>
      </trkpt>
      <trkpt lat="42.60253" lon="1.90834">
        <ele>2244.3999023438</ele>
        <time>2023-07-19T10:39:51.000Z</time>
      </trkpt>
      <trkpt lat="42.60259" lon="1.90832">
        <ele>2244.3999023438</ele>
        <time>2023-07-19T10:39:57.000Z</time>
      </trkpt>
      <trkpt lat="42.60265" lon="1.90826">
        <ele>2244.3999023438</ele>
        <time>2023-07-19T10:40:03.000Z</time>
      </trkpt>
      <trkpt lat="42.6027" lon="1.9082">
        <ele>2244.6000976562</ele>
        <time>2023-07-19T10:40:10.000Z</time>
      </trkpt>
      <trkpt lat="42.60272" lon="1.90819">
        <ele>2244.8000488281</ele>
        <time>2023-07-19T10:40:13.000Z</time>
      </trkpt>
      <trkpt lat="42.60281" lon="1.90815">
        <ele>2245</ele>
        <time>2023-07-19T10:40:21.000Z</time>
      </trkpt>
      <trkpt lat="42.60288" lon="1.90816">
        <ele>2245.6000976562</ele>
        <time>2023-07-19T10:40:27.000Z</time>
      </trkpt>
      <trkpt lat="42.6029" lon="1.90815">
        <ele>2245.8000488281</ele>
        <time>2023-07-19T10:40:29.000Z</time>
      </trkpt>
      <trkpt lat="42.60294" lon="1.9081">
        <ele>2246.3999023438</ele>
        <time>2023-07-19T10:40:35.000Z</time>
      </trkpt>
      <trkpt lat="42.60297" lon="1.90807">
        <ele>2246.8000488281</ele>
        <time>2023-07-19T10:40:39.000Z</time>
      </trkpt>
      <trkpt lat="42.60301" lon="1.90804">
        <ele>2247.3999023438</ele>
        <time>2023-07-19T10:40:45.000Z</time>
      </trkpt>
      <trkpt lat="42.60305" lon="1.90797">
        <ele>2247.1999511719</ele>
        <time>2023-07-19T10:40:52.000Z</time>
      </trkpt>
      <trkpt lat="42.60314" lon="1.90792">
        <ele>2247.8000488281</ele>
        <time>2023-07-19T10:41:00.000Z</time>
      </trkpt>
      <trkpt lat="42.60318" lon="1.9079">
        <ele>2248.1999511719</ele>
        <time>2023-07-19T10:41:06.000Z</time>
      </trkpt>
      <trkpt lat="42.60326" lon="1.90782">
        <ele>2248.1999511719</ele>
        <time>2023-07-19T10:41:14.000Z</time>
      </trkpt>
      <trkpt lat="42.6033" lon="1.90779">
        <ele>2248.3999023438</ele>
        <time>2023-07-19T10:41:19.000Z</time>
      </trkpt>
      <trkpt lat="42.60331" lon="1.90777">
        <ele>2249</ele>
        <time>2023-07-19T10:41:23.000Z</time>
      </trkpt>
      <trkpt lat="42.60333" lon="1.90774">
        <ele>2249.3999023438</ele>
        <time>2023-07-19T10:41:26.000Z</time>
      </trkpt>
      <trkpt lat="42.60337" lon="1.90771">
        <ele>2249.8000488281</ele>
        <time>2023-07-19T10:41:33.000Z</time>
      </trkpt>
      <trkpt lat="42.60339" lon="1.90769">
        <ele>2250.1999511719</ele>
        <time>2023-07-19T10:41:35.000Z</time>
      </trkpt>
      <trkpt lat="42.60347" lon="1.90765">
        <ele>2250.8000488281</ele>
        <time>2023-07-19T10:41:43.000Z</time>
      </trkpt>
      <trkpt lat="42.60351" lon="1.90762">
        <ele>2251.1999511719</ele>
        <time>2023-07-19T10:41:48.000Z</time>
      </trkpt>
      <trkpt lat="42.60353" lon="1.9076">
        <ele>2251.3999023438</ele>
        <time>2023-07-19T10:41:51.000Z</time>
      </trkpt>
      <trkpt lat="42.60358" lon="1.90756">
        <ele>2252.3999023438</ele>
        <time>2023-07-19T10:41:57.000Z</time>
      </trkpt>
      <trkpt lat="42.60359" lon="1.90756">
        <ele>2252.6000976562</ele>
        <time>2023-07-19T10:41:58.000Z</time>
      </trkpt>
      <trkpt lat="42.60363" lon="1.9075">
        <ele>2253</ele>
        <time>2023-07-19T10:42:05.000Z</time>
      </trkpt>
      <trkpt lat="42.60365" lon="1.90747">
        <ele>2253.3999023438</ele>
        <time>2023-07-19T10:42:09.000Z</time>
      </trkpt>
      <trkpt lat="42.60367" lon="1.90746">
        <ele>2253.8000488281</ele>
        <time>2023-07-19T10:42:12.000Z</time>
      </trkpt>
      <trkpt lat="42.60373" lon="1.90742">
        <ele>2254.6000976562</ele>
        <time>2023-07-19T10:42:19.000Z</time>
      </trkpt>
      <trkpt lat="42.60374" lon="1.90741">
        <ele>2254.8000488281</ele>
        <time>2023-07-19T10:42:20.000Z</time>
      </trkpt>
      <trkpt lat="42.60377" lon="1.9074">
        <ele>2255.3999023438</ele>
        <time>2023-07-19T10:42:27.000Z</time>
      </trkpt>
      <trkpt lat="42.60377" lon="1.90739">
        <ele>2255.6000976562</ele>
        <time>2023-07-19T10:42:28.000Z</time>
      </trkpt>
      <trkpt lat="42.60378" lon="1.90738">
        <ele>2255.6000976562</ele>
        <time>2023-07-19T10:42:39.000Z</time>
      </trkpt>
      <trkpt lat="42.60379" lon="1.90739">
        <ele>2255.6000976562</ele>
        <time>2023-07-19T10:42:46.000Z</time>
      </trkpt>
      <trkpt lat="42.60383" lon="1.90736">
        <ele>2256.1999511719</ele>
        <time>2023-07-19T10:42:54.000Z</time>
      </trkpt>
      <trkpt lat="42.60382" lon="1.90734">
        <ele>2256</ele>
        <time>2023-07-19T10:43:03.000Z</time>
      </trkpt>
      <trkpt lat="42.60379" lon="1.90737">
        <ele>2256</ele>
        <time>2023-07-19T10:43:10.000Z</time>
      </trkpt>
      <trkpt lat="42.60386" lon="1.90736">
        <ele>2256.3999023438</ele>
        <time>2023-07-19T10:43:16.000Z</time>
      </trkpt>
      <trkpt lat="42.60386" lon="1.90735">
        <ele>2256.8000488281</ele>
        <time>2023-07-19T10:43:17.000Z</time>
      </trkpt>
      <trkpt lat="42.6039" lon="1.90731">
        <ele>2257.6000976562</ele>
        <time>2023-07-19T10:43:23.000Z</time>
      </trkpt>
      <trkpt lat="42.60396" lon="1.90729">
        <ele>2257.8000488281</ele>
        <time>2023-07-19T10:43:27.000Z</time>
      </trkpt>
      <trkpt lat="42.60398" lon="1.90728">
        <ele>2257.8000488281</ele>
        <time>2023-07-19T10:43:30.000Z</time>
      </trkpt>
      <trkpt lat="42.604" lon="1.90724">
        <ele>2258.1999511719</ele>
        <time>2023-07-19T10:43:38.000Z</time>
      </trkpt>
      <trkpt lat="42.60405" lon="1.90725">
        <ele>2258.1999511719</ele>
        <time>2023-07-19T10:43:45.000Z</time>
      </trkpt>
      <trkpt lat="42.60412" lon="1.90731">
        <ele>2258</ele>
        <time>2023-07-19T10:43:52.000Z</time>
      </trkpt>
      <trkpt lat="42.60418" lon="1.90731">
        <ele>2258.6000976562</ele>
        <time>2023-07-19T10:44:01.000Z</time>
      </trkpt>
      <trkpt lat="42.60418" lon="1.90731">
        <ele>2258.8000488281</ele>
        <time>2023-07-19T10:44:02.000Z</time>
      </trkpt>
      <trkpt lat="42.6042" lon="1.9073">
        <ele>2259.8000488281</ele>
        <time>2023-07-19T10:44:08.000Z</time>
      </trkpt>
      <trkpt lat="42.6042" lon="1.9073">
        <ele>2260</ele>
        <time>2023-07-19T10:44:09.000Z</time>
      </trkpt>
      <trkpt lat="42.60423" lon="1.9073">
        <ele>2261</ele>
        <time>2023-07-19T10:44:15.000Z</time>
      </trkpt>
      <trkpt lat="42.60427" lon="1.90731">
        <ele>2261.3999023438</ele>
        <time>2023-07-19T10:44:19.000Z</time>
      </trkpt>
      <trkpt lat="42.60433" lon="1.90731">
        <ele>2262.1999511719</ele>
        <time>2023-07-19T10:44:27.000Z</time>
      </trkpt>
      <trkpt lat="42.60435" lon="1.90732">
        <ele>2262.3999023438</ele>
        <time>2023-07-19T10:44:34.000Z</time>
      </trkpt>
      <trkpt lat="42.60436" lon="1.90731">
        <ele>2263.1999511719</ele>
        <time>2023-07-19T10:44:39.000Z</time>
      </trkpt>
      <trkpt lat="42.60437" lon="1.90729">
        <ele>2263.6000976562</ele>
        <time>2023-07-19T10:44:42.000Z</time>
      </trkpt>
      <trkpt lat="42.60439" lon="1.90729">
        <ele>2263.8000488281</ele>
        <time>2023-07-19T10:44:48.000Z</time>
      </trkpt>
      <trkpt lat="42.60439" lon="1.9073">
        <ele>2264.1999511719</ele>
        <time>2023-07-19T10:44:57.000Z</time>
      </trkpt>
      <trkpt lat="42.60442" lon="1.90731">
        <ele>2264</ele>
        <time>2023-07-19T10:45:04.000Z</time>
      </trkpt>
      <trkpt lat="42.60446" lon="1.90731">
        <ele>2264</ele>
        <time>2023-07-19T10:45:12.000Z</time>
      </trkpt>
      <trkpt lat="42.60448" lon="1.90733">
        <ele>2264.3999023438</ele>
        <time>2023-07-19T10:45:16.000Z</time>
      </trkpt>
      <trkpt lat="42.60452" lon="1.90735">
        <ele>2265.1999511719</ele>
        <time>2023-07-19T10:45:20.000Z</time>
      </trkpt>
      <trkpt lat="42.60454" lon="1.90734">
        <ele>2265.3999023438</ele>
        <time>2023-07-19T10:45:23.000Z</time>
      </trkpt>
      <trkpt lat="42.60457" lon="1.90733">
        <ele>2266.1999511719</ele>
        <time>2023-07-19T10:45:28.000Z</time>
      </trkpt>
      <trkpt lat="42.60458" lon="1.90733">
        <ele>2266.3999023438</ele>
        <time>2023-07-19T10:45:30.000Z</time>
      </trkpt>
      <trkpt lat="42.60461" lon="1.90732">
        <ele>2267</ele>
        <time>2023-07-19T10:45:36.000Z</time>
      </trkpt>
      <trkpt lat="42.60462" lon="1.90732">
        <ele>2267.6000976562</ele>
        <time>2023-07-19T10:45:38.000Z</time>
      </trkpt>
      <trkpt lat="42.60465" lon="1.90729">
        <ele>2268.8000488281</ele>
        <time>2023-07-19T10:45:43.000Z</time>
      </trkpt>
      <trkpt lat="42.60469" lon="1.90726">
        <ele>2269.8000488281</ele>
        <time>2023-07-19T10:45:51.000Z</time>
      </trkpt>
      <trkpt lat="42.60469" lon="1.90726">
        <ele>2270</ele>
        <time>2023-07-19T10:45:52.000Z</time>
      </trkpt>
      <trkpt lat="42.6047" lon="1.90725">
        <ele>2270.8000488281</ele>
        <time>2023-07-19T10:45:57.000Z</time>
      </trkpt>
      <trkpt lat="42.60471" lon="1.90724">
        <ele>2271.3999023438</ele>
        <time>2023-07-19T10:46:01.000Z</time>
      </trkpt>
      <trkpt lat="42.60472" lon="1.90723">
        <ele>2272</ele>
        <time>2023-07-19T10:46:03.000Z</time>
      </trkpt>
      <trkpt lat="42.60474" lon="1.90719">
        <ele>2272.8000488281</ele>
        <time>2023-07-19T10:46:10.000Z</time>
      </trkpt>
      <trkpt lat="42.60474" lon="1.90719">
        <ele>2273</ele>
        <time>2023-07-19T10:46:11.000Z</time>
      </trkpt>
      <trkpt lat="42.60476" lon="1.90716">
        <ele>2274</ele>
        <time>2023-07-19T10:46:17.000Z</time>
      </trkpt>
      <trkpt lat="42.60477" lon="1.90715">
        <ele>2274.6000976562</ele>
        <time>2023-07-19T10:46:20.000Z</time>
      </trkpt>
      <trkpt lat="42.60479" lon="1.90713">
        <ele>2275</ele>
        <time>2023-07-19T10:46:25.000Z</time>
      </trkpt>
      <trkpt lat="42.6048" lon="1.90712">
        <ele>2275.1999511719</ele>
        <time>2023-07-19T10:46:27.000Z</time>
      </trkpt>
      <trkpt lat="42.60484" lon="1.90708">
        <ele>2276</ele>
        <time>2023-07-19T10:46:36.000Z</time>
      </trkpt>
      <trkpt lat="42.60485" lon="1.90707">
        <ele>2276.1999511719</ele>
        <time>2023-07-19T10:46:37.000Z</time>
      </trkpt>
      <trkpt lat="42.60485" lon="1.90705">
        <ele>2277</ele>
        <time>2023-07-19T10:46:44.000Z</time>
      </trkpt>
      <trkpt lat="42.60487" lon="1.90705">
        <ele>2277.1999511719</ele>
        <time>2023-07-19T10:46:46.000Z</time>
      </trkpt>
      <trkpt lat="42.60489" lon="1.90703">
        <ele>2277.8000488281</ele>
        <time>2023-07-19T10:46:51.000Z</time>
      </trkpt>
      <trkpt lat="42.60491" lon="1.90703">
        <ele>2278.1999511719</ele>
        <time>2023-07-19T10:46:55.000Z</time>
      </trkpt>
      <trkpt lat="42.60495" lon="1.90701">
        <ele>2278.3999023438</ele>
        <time>2023-07-19T10:47:00.000Z</time>
      </trkpt>
      <trkpt lat="42.60498" lon="1.907">
        <ele>2279.1999511719</ele>
        <time>2023-07-19T10:47:08.000Z</time>
      </trkpt>
      <trkpt lat="42.605" lon="1.907">
        <ele>2279.3999023438</ele>
        <time>2023-07-19T10:47:10.000Z</time>
      </trkpt>
      <trkpt lat="42.60503" lon="1.907">
        <ele>2280.1999511719</ele>
        <time>2023-07-19T10:47:15.000Z</time>
      </trkpt>
      <trkpt lat="42.60504" lon="1.90699">
        <ele>2280.8000488281</ele>
        <time>2023-07-19T10:47:18.000Z</time>
      </trkpt>
      <trkpt lat="42.60505" lon="1.90697">
        <ele>2281.3999023438</ele>
        <time>2023-07-19T10:47:20.000Z</time>
      </trkpt>
      <trkpt lat="42.60507" lon="1.90696">
        <ele>2282.1999511719</ele>
        <time>2023-07-19T10:47:24.000Z</time>
      </trkpt>
      <trkpt lat="42.60509" lon="1.90696">
        <ele>2282.3999023438</ele>
        <time>2023-07-19T10:47:26.000Z</time>
      </trkpt>
      <trkpt lat="42.60513" lon="1.90696">
        <ele>2283</ele>
        <time>2023-07-19T10:47:32.000Z</time>
      </trkpt>
      <trkpt lat="42.60519" lon="1.90693">
        <ele>2283.3999023438</ele>
        <time>2023-07-19T10:47:40.000Z</time>
      </trkpt>
      <trkpt lat="42.6052" lon="1.90693">
        <ele>2283.6000976562</ele>
        <time>2023-07-19T10:47:41.000Z</time>
      </trkpt>
      <trkpt lat="42.60525" lon="1.90691">
        <ele>2284.6000976562</ele>
        <time>2023-07-19T10:47:47.000Z</time>
      </trkpt>
      <trkpt lat="42.60526" lon="1.90691">
        <ele>2284.8000488281</ele>
        <time>2023-07-19T10:47:50.000Z</time>
      </trkpt>
      <trkpt lat="42.60527" lon="1.9069">
        <ele>2285.6000976562</ele>
        <time>2023-07-19T10:47:57.000Z</time>
      </trkpt>
      <trkpt lat="42.60526" lon="1.9069">
        <ele>2285.8000488281</ele>
        <time>2023-07-19T10:47:59.000Z</time>
      </trkpt>
      <trkpt lat="42.60527" lon="1.90689">
        <ele>2285.8000488281</ele>
        <time>2023-07-19T10:48:07.000Z</time>
      </trkpt>
      <trkpt lat="42.60528" lon="1.90691">
        <ele>2286</ele>
        <time>2023-07-19T10:48:18.000Z</time>
      </trkpt>
      <trkpt lat="42.60528" lon="1.90688">
        <ele>2286</ele>
        <time>2023-07-19T10:48:26.000Z</time>
      </trkpt>
      <trkpt lat="42.6053" lon="1.90685">
        <ele>2286.8000488281</ele>
        <time>2023-07-19T10:48:30.000Z</time>
      </trkpt>
      <trkpt lat="42.60531" lon="1.90682">
        <ele>2287.1999511719</ele>
        <time>2023-07-19T10:48:33.000Z</time>
      </trkpt>
      <trkpt lat="42.60531" lon="1.9068">
        <ele>2287.8000488281</ele>
        <time>2023-07-19T10:48:38.000Z</time>
      </trkpt>
      <trkpt lat="42.60533" lon="1.90678">
        <ele>2288.3999023438</ele>
        <time>2023-07-19T10:48:42.000Z</time>
      </trkpt>
      <trkpt lat="42.60534" lon="1.90677">
        <ele>2288.8000488281</ele>
        <time>2023-07-19T10:48:44.000Z</time>
      </trkpt>
      <trkpt lat="42.6054" lon="1.90676">
        <ele>2289.6000976562</ele>
        <time>2023-07-19T10:48:51.000Z</time>
      </trkpt>
      <trkpt lat="42.6054" lon="1.90675">
        <ele>2289.8000488281</ele>
        <time>2023-07-19T10:48:52.000Z</time>
      </trkpt>
      <trkpt lat="42.60544" lon="1.90671">
        <ele>2290.6000976562</ele>
        <time>2023-07-19T10:48:59.000Z</time>
      </trkpt>
      <trkpt lat="42.60546" lon="1.9067">
        <ele>2290.8000488281</ele>
        <time>2023-07-19T10:49:02.000Z</time>
      </trkpt>
      <trkpt lat="42.60549" lon="1.90669">
        <ele>2291.6000976562</ele>
        <time>2023-07-19T10:49:08.000Z</time>
      </trkpt>
      <trkpt lat="42.6055" lon="1.90669">
        <ele>2292</ele>
        <time>2023-07-19T10:49:12.000Z</time>
      </trkpt>
      <trkpt lat="42.60551" lon="1.90669">
        <ele>2292.3999023438</ele>
        <time>2023-07-19T10:49:16.000Z</time>
      </trkpt>
      <trkpt lat="42.60553" lon="1.9067">
        <ele>2293</ele>
        <time>2023-07-19T10:49:20.000Z</time>
      </trkpt>
      <trkpt lat="42.60555" lon="1.90669">
        <ele>2293.8000488281</ele>
        <time>2023-07-19T10:49:23.000Z</time>
      </trkpt>
      <trkpt lat="42.60557" lon="1.90669">
        <ele>2294.1999511719</ele>
        <time>2023-07-19T10:49:26.000Z</time>
      </trkpt>
      <trkpt lat="42.60558" lon="1.90669">
        <ele>2295</ele>
        <time>2023-07-19T10:49:30.000Z</time>
      </trkpt>
      <trkpt lat="42.60559" lon="1.90668">
        <ele>2295.3999023438</ele>
        <time>2023-07-19T10:49:32.000Z</time>
      </trkpt>
      <trkpt lat="42.6056" lon="1.90664">
        <ele>2296.3999023438</ele>
        <time>2023-07-19T10:49:38.000Z</time>
      </trkpt>
      <trkpt lat="42.6056" lon="1.90663">
        <ele>2296.3999023438</ele>
        <time>2023-07-19T10:49:39.000Z</time>
      </trkpt>
      <trkpt lat="42.6056" lon="1.90658">
        <ele>2297.3999023438</ele>
        <time>2023-07-19T10:49:45.000Z</time>
      </trkpt>
      <trkpt lat="42.6056" lon="1.90658">
        <ele>2297.6000976562</ele>
        <time>2023-07-19T10:49:47.000Z</time>
      </trkpt>
      <trkpt lat="42.60557" lon="1.90655">
        <ele>2298.8000488281</ele>
        <time>2023-07-19T10:49:52.000Z</time>
      </trkpt>
      <trkpt lat="42.60557" lon="1.90655">
        <ele>2298.8000488281</ele>
        <time>2023-07-19T10:49:53.000Z</time>
      </trkpt>
      <trkpt lat="42.60554" lon="1.90652">
        <ele>2299.8000488281</ele>
        <time>2023-07-19T10:50:01.000Z</time>
      </trkpt>
      <trkpt lat="42.60553" lon="1.90651">
        <ele>2300</ele>
        <time>2023-07-19T10:50:03.000Z</time>
      </trkpt>
      <trkpt lat="42.60553" lon="1.90643">
        <ele>2300.8000488281</ele>
        <time>2023-07-19T10:50:10.000Z</time>
      </trkpt>
      <trkpt lat="42.60553" lon="1.90642">
        <ele>2300.8000488281</ele>
        <time>2023-07-19T10:50:11.000Z</time>
      </trkpt>
      <trkpt lat="42.60551" lon="1.90639">
        <ele>2301.8000488281</ele>
        <time>2023-07-19T10:50:20.000Z</time>
      </trkpt>
      <trkpt lat="42.60551" lon="1.90639">
        <ele>2302</ele>
        <time>2023-07-19T10:50:21.000Z</time>
      </trkpt>
      <trkpt lat="42.60547" lon="1.90634">
        <ele>2303</ele>
        <time>2023-07-19T10:50:30.000Z</time>
      </trkpt>
      <trkpt lat="42.60546" lon="1.90632">
        <ele>2304.1999511719</ele>
        <time>2023-07-19T10:50:37.000Z</time>
      </trkpt>
      <trkpt lat="42.60545" lon="1.90631">
        <ele>2304.3999023438</ele>
        <time>2023-07-19T10:50:38.000Z</time>
      </trkpt>
      <trkpt lat="42.60544" lon="1.90627">
        <ele>2305.1999511719</ele>
        <time>2023-07-19T10:50:45.000Z</time>
      </trkpt>
      <trkpt lat="42.60542" lon="1.90625">
        <ele>2305.6000976562</ele>
        <time>2023-07-19T10:50:49.000Z</time>
      </trkpt>
      <trkpt lat="42.60541" lon="1.90621">
        <ele>2306.3999023438</ele>
        <time>2023-07-19T10:50:56.000Z</time>
      </trkpt>
      <trkpt lat="42.60542" lon="1.90621">
        <ele>2306.3999023438</ele>
        <time>2023-07-19T10:50:57.000Z</time>
      </trkpt>
      <trkpt lat="42.60544" lon="1.90618">
        <ele>2307.1999511719</ele>
        <time>2023-07-19T10:51:05.000Z</time>
      </trkpt>
      <trkpt lat="42.60545" lon="1.90617">
        <ele>2307.6000976562</ele>
        <time>2023-07-19T10:51:07.000Z</time>
      </trkpt>
      <trkpt lat="42.60545" lon="1.90616">
        <ele>2308.1999511719</ele>
        <time>2023-07-19T10:51:13.000Z</time>
      </trkpt>
      <trkpt lat="42.60546" lon="1.90615">
        <ele>2308.6000976562</ele>
        <time>2023-07-19T10:51:15.000Z</time>
      </trkpt>
      <trkpt lat="42.60549" lon="1.90614">
        <ele>2309.6000976562</ele>
        <time>2023-07-19T10:51:23.000Z</time>
      </trkpt>
      <trkpt lat="42.6055" lon="1.90614">
        <ele>2309.8000488281</ele>
        <time>2023-07-19T10:51:24.000Z</time>
      </trkpt>
      <trkpt lat="42.60554" lon="1.90614">
        <ele>2310.3999023438</ele>
        <time>2023-07-19T10:51:30.000Z</time>
      </trkpt>
      <trkpt lat="42.60556" lon="1.90614">
        <ele>2310.8000488281</ele>
        <time>2023-07-19T10:51:34.000Z</time>
      </trkpt>
      <trkpt lat="42.6056" lon="1.90613">
        <ele>2311.3999023438</ele>
        <time>2023-07-19T10:51:38.000Z</time>
      </trkpt>
      <trkpt lat="42.60562" lon="1.90612">
        <ele>2312</ele>
        <time>2023-07-19T10:51:42.000Z</time>
      </trkpt>
      <trkpt lat="42.60564" lon="1.90613">
        <ele>2312.6000976562</ele>
        <time>2023-07-19T10:51:49.000Z</time>
      </trkpt>
      <trkpt lat="42.60568" lon="1.90614">
        <ele>2313</ele>
        <time>2023-07-19T10:51:54.000Z</time>
      </trkpt>
      <trkpt lat="42.6057" lon="1.90614">
        <ele>2313.3999023438</ele>
        <time>2023-07-19T10:51:58.000Z</time>
      </trkpt>
      <trkpt lat="42.60575" lon="1.90612">
        <ele>2314</ele>
        <time>2023-07-19T10:52:02.000Z</time>
      </trkpt>
      <trkpt lat="42.60579" lon="1.90611">
        <ele>2314.3999023438</ele>
        <time>2023-07-19T10:52:06.000Z</time>
      </trkpt>
      <trkpt lat="42.60581" lon="1.90611">
        <ele>2315</ele>
        <time>2023-07-19T10:52:13.000Z</time>
      </trkpt>
      <trkpt lat="42.60582" lon="1.90611">
        <ele>2315</ele>
        <time>2023-07-19T10:52:14.000Z</time>
      </trkpt>
      <trkpt lat="42.60584" lon="1.90613">
        <ele>2315.3999023438</ele>
        <time>2023-07-19T10:52:18.000Z</time>
      </trkpt>
      <trkpt lat="42.60586" lon="1.90613">
        <ele>2316</ele>
        <time>2023-07-19T10:52:24.000Z</time>
      </trkpt>
      <trkpt lat="42.60587" lon="1.90613">
        <ele>2316.1999511719</ele>
        <time>2023-07-19T10:52:25.000Z</time>
      </trkpt>
      <trkpt lat="42.6059" lon="1.90614">
        <ele>2317</ele>
        <time>2023-07-19T10:52:31.000Z</time>
      </trkpt>
      <trkpt lat="42.60591" lon="1.90615">
        <ele>2317.3999023438</ele>
        <time>2023-07-19T10:52:34.000Z</time>
      </trkpt>
      <trkpt lat="42.60594" lon="1.90616">
        <ele>2317.8000488281</ele>
        <time>2023-07-19T10:52:37.000Z</time>
      </trkpt>
      <trkpt lat="42.60597" lon="1.90616">
        <ele>2318.3999023438</ele>
        <time>2023-07-19T10:52:43.000Z</time>
      </trkpt>
      <trkpt lat="42.60602" lon="1.90617">
        <ele>2319.3999023438</ele>
        <time>2023-07-19T10:52:50.000Z</time>
      </trkpt>
      <trkpt lat="42.60602" lon="1.90617">
        <ele>2319.6000976562</ele>
        <time>2023-07-19T10:52:51.000Z</time>
      </trkpt>
      <trkpt lat="42.60608" lon="1.90618">
        <ele>2320.3999023438</ele>
        <time>2023-07-19T10:53:00.000Z</time>
      </trkpt>
      <trkpt lat="42.60608" lon="1.90618">
        <ele>2320.6000976562</ele>
        <time>2023-07-19T10:53:01.000Z</time>
      </trkpt>
      <trkpt lat="42.60611" lon="1.90622">
        <ele>2321.1999511719</ele>
        <time>2023-07-19T10:53:07.000Z</time>
      </trkpt>
      <trkpt lat="42.60611" lon="1.90621">
        <ele>2321.6000976562</ele>
        <time>2023-07-19T10:53:09.000Z</time>
      </trkpt>
      <trkpt lat="42.60614" lon="1.90619">
        <ele>2322.3999023438</ele>
        <time>2023-07-19T10:53:15.000Z</time>
      </trkpt>
      <trkpt lat="42.60615" lon="1.90619">
        <ele>2322.6000976562</ele>
        <time>2023-07-19T10:53:18.000Z</time>
      </trkpt>
      <trkpt lat="42.60617" lon="1.90618">
        <ele>2323</ele>
        <time>2023-07-19T10:53:23.000Z</time>
      </trkpt>
      <trkpt lat="42.60618" lon="1.90618">
        <ele>2323.3999023438</ele>
        <time>2023-07-19T10:53:30.000Z</time>
      </trkpt>
      <trkpt lat="42.60621" lon="1.90617">
        <ele>2323.6000976562</ele>
        <time>2023-07-19T10:53:37.000Z</time>
      </trkpt>
      <trkpt lat="42.60624" lon="1.90615">
        <ele>2324.1999511719</ele>
        <time>2023-07-19T10:53:47.000Z</time>
      </trkpt>
      <trkpt lat="42.60624" lon="1.90616">
        <ele>2324.3999023438</ele>
        <time>2023-07-19T10:53:55.000Z</time>
      </trkpt>
      <trkpt lat="42.60624" lon="1.90613">
        <ele>2324.3999023438</ele>
        <time>2023-07-19T10:54:02.000Z</time>
      </trkpt>
      <trkpt lat="42.60623" lon="1.90613">
        <ele>2324.3999023438</ele>
        <time>2023-07-19T10:54:10.000Z</time>
      </trkpt>
      <trkpt lat="42.60623" lon="1.90615">
        <ele>2324.3999023438</ele>
        <time>2023-07-19T10:54:17.000Z</time>
      </trkpt>
      <trkpt lat="42.60626" lon="1.90615">
        <ele>2323.8000488281</ele>
        <time>2023-07-19T10:54:25.000Z</time>
      </trkpt>
      <trkpt lat="42.60626" lon="1.90617">
        <ele>2323.6000976562</ele>
        <time>2023-07-19T10:54:34.000Z</time>
      </trkpt>
      <trkpt lat="42.60625" lon="1.90616">
        <ele>2323.6000976562</ele>
        <time>2023-07-19T10:54:43.000Z</time>
      </trkpt>
      <trkpt lat="42.60624" lon="1.90612">
        <ele>2323.6000976562</ele>
        <time>2023-07-19T10:54:52.000Z</time>
      </trkpt>
      <trkpt lat="42.60626" lon="1.90617">
        <ele>2323.6000976562</ele>
        <time>2023-07-19T10:55:03.000Z</time>
      </trkpt>
      <trkpt lat="42.60624" lon="1.90616">
        <ele>2323.6000976562</ele>
        <time>2023-07-19T10:55:10.000Z</time>
      </trkpt>
      <trkpt lat="42.60624" lon="1.90615">
        <ele>2323.6000976562</ele>
        <time>2023-07-19T10:55:16.000Z</time>
      </trkpt>
      <trkpt lat="42.60626" lon="1.90616">
        <ele>2324</ele>
        <time>2023-07-19T10:55:22.000Z</time>
      </trkpt>
      <trkpt lat="42.60629" lon="1.90616">
        <ele>2324.3999023438</ele>
        <time>2023-07-19T10:55:30.000Z</time>
      </trkpt>
      <trkpt lat="42.60628" lon="1.90616">
        <ele>2324.6000976562</ele>
        <time>2023-07-19T10:55:38.000Z</time>
      </trkpt>
      <trkpt lat="42.60626" lon="1.90616">
        <ele>2324.8000488281</ele>
        <time>2023-07-19T10:55:41.000Z</time>
      </trkpt>
      <trkpt lat="42.60624" lon="1.90615">
        <ele>2324.8000488281</ele>
        <time>2023-07-19T10:55:47.000Z</time>
      </trkpt>
      <trkpt lat="42.60624" lon="1.90617">
        <ele>2324.6000976562</ele>
        <time>2023-07-19T10:55:55.000Z</time>
      </trkpt>
      <trkpt lat="42.60625" lon="1.90616">
        <ele>2325</ele>
        <time>2023-07-19T10:56:03.000Z</time>
      </trkpt>
      <trkpt lat="42.60626" lon="1.90618">
        <ele>2325</ele>
        <time>2023-07-19T10:56:12.000Z</time>
      </trkpt>
      <trkpt lat="42.60627" lon="1.90617">
        <ele>2325.3999023438</ele>
        <time>2023-07-19T10:56:20.000Z</time>
      </trkpt>
      <trkpt lat="42.60628" lon="1.90617">
        <ele>2325.8000488281</ele>
        <time>2023-07-19T10:56:23.000Z</time>
      </trkpt>
      <trkpt lat="42.60627" lon="1.90619">
        <ele>2326.3999023438</ele>
        <time>2023-07-19T10:56:28.000Z</time>
      </trkpt>
      <trkpt lat="42.60629" lon="1.90616">
        <ele>2326.1999511719</ele>
        <time>2023-07-19T10:56:34.000Z</time>
      </trkpt>
      <trkpt lat="42.60631" lon="1.90615">
        <ele>2326.8000488281</ele>
        <time>2023-07-19T10:56:37.000Z</time>
      </trkpt>
      <trkpt lat="42.60636" lon="1.90614">
        <ele>2327.8000488281</ele>
        <time>2023-07-19T10:56:42.000Z</time>
      </trkpt>
      <trkpt lat="42.60637" lon="1.90615">
        <ele>2328</ele>
        <time>2023-07-19T10:56:44.000Z</time>
      </trkpt>
      <trkpt lat="42.60639" lon="1.90618">
        <ele>2328.8000488281</ele>
        <time>2023-07-19T10:56:48.000Z</time>
      </trkpt>
      <trkpt lat="42.6064" lon="1.90619">
        <ele>2329.1999511719</ele>
        <time>2023-07-19T10:56:51.000Z</time>
      </trkpt>
      <trkpt lat="42.60641" lon="1.90619">
        <ele>2329.3999023438</ele>
        <time>2023-07-19T10:56:55.000Z</time>
      </trkpt>
      <trkpt lat="42.60642" lon="1.90623">
        <ele>2329.6000976562</ele>
        <time>2023-07-19T10:57:03.000Z</time>
      </trkpt>
      <trkpt lat="42.60644" lon="1.90628">
        <ele>2330.1999511719</ele>
        <time>2023-07-19T10:57:08.000Z</time>
      </trkpt>
      <trkpt lat="42.60645" lon="1.9063">
        <ele>2330.6000976562</ele>
        <time>2023-07-19T10:57:11.000Z</time>
      </trkpt>
      <trkpt lat="42.60647" lon="1.90635">
        <ele>2331.3999023438</ele>
        <time>2023-07-19T10:57:16.000Z</time>
      </trkpt>
      <trkpt lat="42.60648" lon="1.90635">
        <ele>2332</ele>
        <time>2023-07-19T10:57:20.000Z</time>
      </trkpt>
      <trkpt lat="42.60649" lon="1.90635">
        <ele>2332.3999023438</ele>
        <time>2023-07-19T10:57:23.000Z</time>
      </trkpt>
      <trkpt lat="42.60652" lon="1.90636">
        <ele>2333</ele>
        <time>2023-07-19T10:57:28.000Z</time>
      </trkpt>
      <trkpt lat="42.6065" lon="1.90637">
        <ele>2333.3999023438</ele>
        <time>2023-07-19T10:57:32.000Z</time>
      </trkpt>
      <trkpt lat="42.60649" lon="1.90637">
        <ele>2333.3999023438</ele>
        <time>2023-07-19T10:57:35.000Z</time>
      </trkpt>
      <trkpt lat="42.60647" lon="1.90637">
        <ele>2333.3999023438</ele>
        <time>2023-07-19T10:57:41.000Z</time>
      </trkpt>
      <trkpt lat="42.60646" lon="1.90631">
        <ele>2332.8000488281</ele>
        <time>2023-07-19T10:57:50.000Z</time>
      </trkpt>
      <trkpt lat="42.60645" lon="1.9063">
        <ele>2332.3999023438</ele>
        <time>2023-07-19T10:57:54.000Z</time>
      </trkpt>
      <trkpt lat="42.60644" lon="1.90628">
        <ele>2332</ele>
        <time>2023-07-19T10:57:57.000Z</time>
      </trkpt>
      <trkpt lat="42.60645" lon="1.90627">
        <ele>2332.1999511719</ele>
        <time>2023-07-19T10:58:05.000Z</time>
      </trkpt>
      <trkpt lat="42.60647" lon="1.90626">
        <ele>2333.3999023438</ele>
        <time>2023-07-19T10:58:13.000Z</time>
      </trkpt>
      <trkpt lat="42.60652" lon="1.90629">
        <ele>2334.3999023438</ele>
        <time>2023-07-19T10:58:21.000Z</time>
      </trkpt>
      <trkpt lat="42.60653" lon="1.9063">
        <ele>2334.8000488281</ele>
        <time>2023-07-19T10:58:22.000Z</time>
      </trkpt>
      <trkpt lat="42.60655" lon="1.90631">
        <ele>2335.6000976562</ele>
        <time>2023-07-19T10:58:28.000Z</time>
      </trkpt>
      <trkpt lat="42.60655" lon="1.90631">
        <ele>2335.8000488281</ele>
        <time>2023-07-19T10:58:29.000Z</time>
      </trkpt>
      <trkpt lat="42.60657" lon="1.90635">
        <ele>2336.6000976562</ele>
        <time>2023-07-19T10:58:36.000Z</time>
      </trkpt>
      <trkpt lat="42.60657" lon="1.90636">
        <ele>2336.6000976562</ele>
        <time>2023-07-19T10:58:37.000Z</time>
      </trkpt>
      <trkpt lat="42.60658" lon="1.90639">
        <ele>2337.6000976562</ele>
        <time>2023-07-19T10:58:44.000Z</time>
      </trkpt>
      <trkpt lat="42.60658" lon="1.9064">
        <ele>2337.8000488281</ele>
        <time>2023-07-19T10:58:45.000Z</time>
      </trkpt>
      <trkpt lat="42.6066" lon="1.90643">
        <ele>2338.6000976562</ele>
        <time>2023-07-19T10:58:51.000Z</time>
      </trkpt>
      <trkpt lat="42.60661" lon="1.90644">
        <ele>2338.8000488281</ele>
        <time>2023-07-19T10:58:52.000Z</time>
      </trkpt>
      <trkpt lat="42.60662" lon="1.90643">
        <ele>2340</ele>
        <time>2023-07-19T10:58:58.000Z</time>
      </trkpt>
      <trkpt lat="42.60663" lon="1.90642">
        <ele>2340.1999511719</ele>
        <time>2023-07-19T10:58:59.000Z</time>
      </trkpt>
      <trkpt lat="42.60666" lon="1.90641">
        <ele>2341.6000976562</ele>
        <time>2023-07-19T10:59:03.000Z</time>
      </trkpt>
      <trkpt lat="42.60668" lon="1.9064">
        <ele>2342.3999023438</ele>
        <time>2023-07-19T10:59:09.000Z</time>
      </trkpt>
      <trkpt lat="42.60668" lon="1.9064">
        <ele>2342.6000976562</ele>
        <time>2023-07-19T10:59:12.000Z</time>
      </trkpt>
      <trkpt lat="42.6067" lon="1.90637">
        <ele>2343.6000976562</ele>
        <time>2023-07-19T10:59:17.000Z</time>
      </trkpt>
      <trkpt lat="42.60671" lon="1.90636">
        <ele>2344.6000976562</ele>
        <time>2023-07-19T10:59:24.000Z</time>
      </trkpt>
      <trkpt lat="42.60672" lon="1.90636">
        <ele>2344.6000976562</ele>
        <time>2023-07-19T10:59:25.000Z</time>
      </trkpt>
      <trkpt lat="42.60678" lon="1.90637">
        <ele>2345.6000976562</ele>
        <time>2023-07-19T10:59:34.000Z</time>
      </trkpt>
      <trkpt lat="42.6068" lon="1.90638">
        <ele>2345.6000976562</ele>
        <time>2023-07-19T10:59:36.000Z</time>
      </trkpt>
      <trkpt lat="42.60683" lon="1.90645">
        <ele>2346.1999511719</ele>
        <time>2023-07-19T10:59:42.000Z</time>
      </trkpt>
      <trkpt lat="42.60684" lon="1.90642">
        <ele>2346.8000488281</ele>
        <time>2023-07-19T10:59:46.000Z</time>
      </trkpt>
      <trkpt lat="42.60686" lon="1.90639">
        <ele>2347.3999023438</ele>
        <time>2023-07-19T10:59:49.000Z</time>
      </trkpt>
      <trkpt lat="42.60685" lon="1.90639">
        <ele>2347.8000488281</ele>
        <time>2023-07-19T10:59:56.000Z</time>
      </trkpt>
      <trkpt lat="42.60686" lon="1.90637">
        <ele>2348.6000976562</ele>
        <time>2023-07-19T11:00:04.000Z</time>
      </trkpt>
      <trkpt lat="42.60686" lon="1.90634">
        <ele>2348.8000488281</ele>
        <time>2023-07-19T11:00:06.000Z</time>
      </trkpt>
      <trkpt lat="42.60686" lon="1.90631">
        <ele>2349</ele>
        <time>2023-07-19T11:00:12.000Z</time>
      </trkpt>
      <trkpt lat="42.60689" lon="1.90632">
        <ele>2349.8000488281</ele>
        <time>2023-07-19T11:00:17.000Z</time>
      </trkpt>
      <trkpt lat="42.60692" lon="1.9063">
        <ele>2350.6000976562</ele>
        <time>2023-07-19T11:00:22.000Z</time>
      </trkpt>
      <trkpt lat="42.60692" lon="1.90629">
        <ele>2350.8000488281</ele>
        <time>2023-07-19T11:00:24.000Z</time>
      </trkpt>
      <trkpt lat="42.60691" lon="1.90626">
        <ele>2351.3999023438</ele>
        <time>2023-07-19T11:00:29.000Z</time>
      </trkpt>
      <trkpt lat="42.60691" lon="1.90624">
        <ele>2352</ele>
        <time>2023-07-19T11:00:31.000Z</time>
      </trkpt>
      <trkpt lat="42.60691" lon="1.9062">
        <ele>2353</ele>
        <time>2023-07-19T11:00:35.000Z</time>
      </trkpt>
      <trkpt lat="42.6069" lon="1.90618">
        <ele>2353.6000976562</ele>
        <time>2023-07-19T11:00:38.000Z</time>
      </trkpt>
      <trkpt lat="42.6069" lon="1.90614">
        <ele>2354</ele>
        <time>2023-07-19T11:00:42.000Z</time>
      </trkpt>
      <trkpt lat="42.60689" lon="1.90611">
        <ele>2354.8000488281</ele>
        <time>2023-07-19T11:00:46.000Z</time>
      </trkpt>
      <trkpt lat="42.60689" lon="1.9061">
        <ele>2355.1999511719</ele>
        <time>2023-07-19T11:00:48.000Z</time>
      </trkpt>
      <trkpt lat="42.6069" lon="1.90608">
        <ele>2355.6000976562</ele>
        <time>2023-07-19T11:00:53.000Z</time>
      </trkpt>
      <trkpt lat="42.60692" lon="1.90607">
        <ele>2356.1999511719</ele>
        <time>2023-07-19T11:00:58.000Z</time>
      </trkpt>
      <trkpt lat="42.60694" lon="1.90604">
        <ele>2357</ele>
        <time>2023-07-19T11:01:02.000Z</time>
      </trkpt>
      <trkpt lat="42.60695" lon="1.90601">
        <ele>2357.3999023438</ele>
        <time>2023-07-19T11:01:04.000Z</time>
      </trkpt>
      <trkpt lat="42.60695" lon="1.90596">
        <ele>2358</ele>
        <time>2023-07-19T11:01:09.000Z</time>
      </trkpt>
      <trkpt lat="42.60696" lon="1.90591">
        <ele>2358.3999023438</ele>
        <time>2023-07-19T11:01:14.000Z</time>
      </trkpt>
      <trkpt lat="42.60697" lon="1.90588">
        <ele>2359.6000976562</ele>
        <time>2023-07-19T11:01:20.000Z</time>
      </trkpt>
      <trkpt lat="42.60697" lon="1.90586">
        <ele>2359.6000976562</ele>
        <time>2023-07-19T11:01:22.000Z</time>
      </trkpt>
      <trkpt lat="42.60698" lon="1.90579">
        <ele>2360.3999023438</ele>
        <time>2023-07-19T11:01:28.000Z</time>
      </trkpt>
      <trkpt lat="42.60698" lon="1.90577">
        <ele>2360.6000976562</ele>
        <time>2023-07-19T11:01:30.000Z</time>
      </trkpt>
      <trkpt lat="42.60698" lon="1.90564">
        <ele>2361.3999023438</ele>
        <time>2023-07-19T11:01:38.000Z</time>
      </trkpt>
      <trkpt lat="42.60699" lon="1.90562">
        <ele>2361.6000976562</ele>
        <time>2023-07-19T11:01:42.000Z</time>
      </trkpt>
      <trkpt lat="42.607" lon="1.9056">
        <ele>2362</ele>
        <time>2023-07-19T11:01:44.000Z</time>
      </trkpt>
      <trkpt lat="42.60704" lon="1.90553">
        <ele>2362.6000976562</ele>
        <time>2023-07-19T11:01:52.000Z</time>
      </trkpt>
      <trkpt lat="42.60705" lon="1.90545">
        <ele>2363</ele>
        <time>2023-07-19T11:01:58.000Z</time>
      </trkpt>
      <trkpt lat="42.60708" lon="1.90536">
        <ele>2363.6000976562</ele>
        <time>2023-07-19T11:02:05.000Z</time>
      </trkpt>
      <trkpt lat="42.60708" lon="1.90535">
        <ele>2363.8000488281</ele>
        <time>2023-07-19T11:02:06.000Z</time>
      </trkpt>
      <trkpt lat="42.6071" lon="1.90529">
        <ele>2364.6000976562</ele>
        <time>2023-07-19T11:02:14.000Z</time>
      </trkpt>
      <trkpt lat="42.6071" lon="1.90528">
        <ele>2364.6000976562</ele>
        <time>2023-07-19T11:02:15.000Z</time>
      </trkpt>
      <trkpt lat="42.60712" lon="1.90522">
        <ele>2365.6000976562</ele>
        <time>2023-07-19T11:02:22.000Z</time>
      </trkpt>
      <trkpt lat="42.60712" lon="1.90521">
        <ele>2365.8000488281</ele>
        <time>2023-07-19T11:02:23.000Z</time>
      </trkpt>
      <trkpt lat="42.60716" lon="1.90515">
        <ele>2367</ele>
        <time>2023-07-19T11:02:29.000Z</time>
      </trkpt>
      <trkpt lat="42.60716" lon="1.90515">
        <ele>2367</ele>
        <time>2023-07-19T11:02:30.000Z</time>
      </trkpt>
      <trkpt lat="42.60723" lon="1.90513">
        <ele>2367.3999023438</ele>
        <time>2023-07-19T11:02:40.000Z</time>
      </trkpt>
      <trkpt lat="42.60723" lon="1.90513">
        <ele>2368</ele>
        <time>2023-07-19T11:02:44.000Z</time>
      </trkpt>
      <trkpt lat="42.60724" lon="1.90512">
        <ele>2368.6000976562</ele>
        <time>2023-07-19T11:02:47.000Z</time>
      </trkpt>
      <trkpt lat="42.60726" lon="1.90509">
        <ele>2369</ele>
        <time>2023-07-19T11:02:50.000Z</time>
      </trkpt>
      <trkpt lat="42.60731" lon="1.90507">
        <ele>2369.6000976562</ele>
        <time>2023-07-19T11:02:56.000Z</time>
      </trkpt>
      <trkpt lat="42.60734" lon="1.90508">
        <ele>2370.1999511719</ele>
        <time>2023-07-19T11:03:00.000Z</time>
      </trkpt>
      <trkpt lat="42.60737" lon="1.90509">
        <ele>2370.8000488281</ele>
        <time>2023-07-19T11:03:04.000Z</time>
      </trkpt>
      <trkpt lat="42.60739" lon="1.90509">
        <ele>2371.3999023438</ele>
        <time>2023-07-19T11:03:07.000Z</time>
      </trkpt>
      <trkpt lat="42.60742" lon="1.90508">
        <ele>2371.8000488281</ele>
        <time>2023-07-19T11:03:11.000Z</time>
      </trkpt>
      <trkpt lat="42.60744" lon="1.90508">
        <ele>2372.3999023438</ele>
        <time>2023-07-19T11:03:14.000Z</time>
      </trkpt>
      <trkpt lat="42.60746" lon="1.90508">
        <ele>2373</ele>
        <time>2023-07-19T11:03:19.000Z</time>
      </trkpt>
      <trkpt lat="42.60748" lon="1.90508">
        <ele>2373.3999023438</ele>
        <time>2023-07-19T11:03:21.000Z</time>
      </trkpt>
      <trkpt lat="42.60748" lon="1.90512">
        <ele>2373.8000488281</ele>
        <time>2023-07-19T11:03:26.000Z</time>
      </trkpt>
      <trkpt lat="42.60748" lon="1.90513">
        <ele>2373.8000488281</ele>
        <time>2023-07-19T11:03:27.000Z</time>
      </trkpt>
      <trkpt lat="42.60751" lon="1.90515">
        <ele>2374</ele>
        <time>2023-07-19T11:03:32.000Z</time>
      </trkpt>
      <trkpt lat="42.60752" lon="1.90515">
        <ele>2374.8000488281</ele>
        <time>2023-07-19T11:03:34.000Z</time>
      </trkpt>
      <trkpt lat="42.60752" lon="1.90516">
        <ele>2375.1999511719</ele>
        <time>2023-07-19T11:03:35.000Z</time>
      </trkpt>
      <trkpt lat="42.60755" lon="1.90517">
        <ele>2375.8000488281</ele>
        <time>2023-07-19T11:03:39.000Z</time>
      </trkpt>
      <trkpt lat="42.60756" lon="1.90516">
        <ele>2376.1999511719</ele>
        <time>2023-07-19T11:03:43.000Z</time>
      </trkpt>
      <trkpt lat="42.6076" lon="1.90514">
        <ele>2376.8000488281</ele>
        <time>2023-07-19T11:03:49.000Z</time>
      </trkpt>
      <trkpt lat="42.60761" lon="1.90513">
        <ele>2377</ele>
        <time>2023-07-19T11:03:50.000Z</time>
      </trkpt>
      <trkpt lat="42.60766" lon="1.90508">
        <ele>2377.8000488281</ele>
        <time>2023-07-19T11:03:57.000Z</time>
      </trkpt>
      <trkpt lat="42.60766" lon="1.90507">
        <ele>2378</ele>
        <time>2023-07-19T11:03:59.000Z</time>
      </trkpt>
      <trkpt lat="42.60766" lon="1.90504">
        <ele>2378.3999023438</ele>
        <time>2023-07-19T11:04:03.000Z</time>
      </trkpt>
      <trkpt lat="42.60766" lon="1.90501">
        <ele>2379.1999511719</ele>
        <time>2023-07-19T11:04:09.000Z</time>
      </trkpt>
      <trkpt lat="42.60765" lon="1.90493">
        <ele>2380.1999511719</ele>
        <time>2023-07-19T11:04:16.000Z</time>
      </trkpt>
      <trkpt lat="42.60768" lon="1.90494">
        <ele>2381.1999511719</ele>
        <time>2023-07-19T11:04:22.000Z</time>
      </trkpt>
      <trkpt lat="42.60768" lon="1.90493">
        <ele>2381.3999023438</ele>
        <time>2023-07-19T11:04:23.000Z</time>
      </trkpt>
      <trkpt lat="42.60773" lon="1.9049">
        <ele>2382.1999511719</ele>
        <time>2023-07-19T11:04:29.000Z</time>
      </trkpt>
      <trkpt lat="42.60773" lon="1.90488">
        <ele>2382.3999023438</ele>
        <time>2023-07-19T11:04:30.000Z</time>
      </trkpt>
      <trkpt lat="42.60777" lon="1.90485">
        <ele>2383</ele>
        <time>2023-07-19T11:04:35.000Z</time>
      </trkpt>
      <trkpt lat="42.60779" lon="1.90482">
        <ele>2383.3999023438</ele>
        <time>2023-07-19T11:04:39.000Z</time>
      </trkpt>
      <trkpt lat="42.60781" lon="1.90481">
        <ele>2384</ele>
        <time>2023-07-19T11:04:44.000Z</time>
      </trkpt>
      <trkpt lat="42.60783" lon="1.9048">
        <ele>2384.3999023438</ele>
        <time>2023-07-19T11:04:48.000Z</time>
      </trkpt>
      <trkpt lat="42.60786" lon="1.90476">
        <ele>2384.8000488281</ele>
        <time>2023-07-19T11:04:53.000Z</time>
      </trkpt>
      <trkpt lat="42.60788" lon="1.90471">
        <ele>2385.1999511719</ele>
        <time>2023-07-19T11:04:59.000Z</time>
      </trkpt>
      <trkpt lat="42.60791" lon="1.90467">
        <ele>2385.6000976562</ele>
        <time>2023-07-19T11:05:03.000Z</time>
      </trkpt>
      <trkpt lat="42.60794" lon="1.90462">
        <ele>2386.1999511719</ele>
        <time>2023-07-19T11:05:07.000Z</time>
      </trkpt>
      <trkpt lat="42.60795" lon="1.90458">
        <ele>2386.8000488281</ele>
        <time>2023-07-19T11:05:10.000Z</time>
      </trkpt>
      <trkpt lat="42.60797" lon="1.90456">
        <ele>2387.3999023438</ele>
        <time>2023-07-19T11:05:15.000Z</time>
      </trkpt>
      <trkpt lat="42.60799" lon="1.90455">
        <ele>2387.8000488281</ele>
        <time>2023-07-19T11:05:17.000Z</time>
      </trkpt>
      <trkpt lat="42.60802" lon="1.90456">
        <ele>2388.3999023438</ele>
        <time>2023-07-19T11:05:23.000Z</time>
      </trkpt>
      <trkpt lat="42.60805" lon="1.90455">
        <ele>2388.8000488281</ele>
        <time>2023-07-19T11:05:26.000Z</time>
      </trkpt>
      <trkpt lat="42.6081" lon="1.90452">
        <ele>2389.6000976562</ele>
        <time>2023-07-19T11:05:31.000Z</time>
      </trkpt>
      <trkpt lat="42.60813" lon="1.9045">
        <ele>2390</ele>
        <time>2023-07-19T11:05:35.000Z</time>
      </trkpt>
      <trkpt lat="42.60815" lon="1.90451">
        <ele>2390.6000976562</ele>
        <time>2023-07-19T11:05:41.000Z</time>
      </trkpt>
      <trkpt lat="42.60821" lon="1.90452">
        <ele>2390.8000488281</ele>
        <time>2023-07-19T11:05:47.000Z</time>
      </trkpt>
      <trkpt lat="42.60826" lon="1.90449">
        <ele>2391</ele>
        <time>2023-07-19T11:05:53.000Z</time>
      </trkpt>
      <trkpt lat="42.60827" lon="1.90449">
        <ele>2391</ele>
        <time>2023-07-19T11:05:54.000Z</time>
      </trkpt>
      <trkpt lat="42.60832" lon="1.90447">
        <ele>2391.1999511719</ele>
        <time>2023-07-19T11:06:01.000Z</time>
      </trkpt>
      <trkpt lat="42.60839" lon="1.90443">
        <ele>2391.6000976562</ele>
        <time>2023-07-19T11:06:07.000Z</time>
      </trkpt>
      <trkpt lat="42.60843" lon="1.90434">
        <ele>2391.6000976562</ele>
        <time>2023-07-19T11:06:15.000Z</time>
      </trkpt>
      <trkpt lat="42.60844" lon="1.90431">
        <ele>2392</ele>
        <time>2023-07-19T11:06:21.000Z</time>
      </trkpt>
      <trkpt lat="42.60848" lon="1.90427">
        <ele>2392.8000488281</ele>
        <time>2023-07-19T11:06:29.000Z</time>
      </trkpt>
      <trkpt lat="42.60851" lon="1.90425">
        <ele>2393</ele>
        <time>2023-07-19T11:06:32.000Z</time>
      </trkpt>
      <trkpt lat="42.60854" lon="1.90423">
        <ele>2393.1999511719</ele>
        <time>2023-07-19T11:06:36.000Z</time>
      </trkpt>
      <trkpt lat="42.60858" lon="1.90417">
        <ele>2394</ele>
        <time>2023-07-19T11:06:43.000Z</time>
      </trkpt>
      <trkpt lat="42.60859" lon="1.90415">
        <ele>2394.1999511719</ele>
        <time>2023-07-19T11:06:45.000Z</time>
      </trkpt>
      <trkpt lat="42.60861" lon="1.90411">
        <ele>2395.1999511719</ele>
        <time>2023-07-19T11:06:50.000Z</time>
      </trkpt>
      <trkpt lat="42.60862" lon="1.9041">
        <ele>2395.1999511719</ele>
        <time>2023-07-19T11:06:52.000Z</time>
      </trkpt>
      <trkpt lat="42.6087" lon="1.90402">
        <ele>2396.1999511719</ele>
        <time>2023-07-19T11:07:00.000Z</time>
      </trkpt>
      <trkpt lat="42.60874" lon="1.90395">
        <ele>2396.8000488281</ele>
        <time>2023-07-19T11:07:08.000Z</time>
      </trkpt>
      <trkpt lat="42.60876" lon="1.90388">
        <ele>2397.1999511719</ele>
        <time>2023-07-19T11:07:14.000Z</time>
      </trkpt>
      <trkpt lat="42.60878" lon="1.90381">
        <ele>2397.3999023438</ele>
        <time>2023-07-19T11:07:20.000Z</time>
      </trkpt>
      <trkpt lat="42.60882" lon="1.90376">
        <ele>2397.1999511719</ele>
        <time>2023-07-19T11:07:27.000Z</time>
      </trkpt>
      <trkpt lat="42.60888" lon="1.90371">
        <ele>2397.3999023438</ele>
        <time>2023-07-19T11:07:34.000Z</time>
      </trkpt>
      <trkpt lat="42.60894" lon="1.90366">
        <ele>2397.8000488281</ele>
        <time>2023-07-19T11:07:43.000Z</time>
      </trkpt>
      <trkpt lat="42.60895" lon="1.90362">
        <ele>2398.1999511719</ele>
        <time>2023-07-19T11:07:47.000Z</time>
      </trkpt>
      <trkpt lat="42.60895" lon="1.90356">
        <ele>2398.8000488281</ele>
        <time>2023-07-19T11:07:51.000Z</time>
      </trkpt>
      <trkpt lat="42.60897" lon="1.90354">
        <ele>2399.1999511719</ele>
        <time>2023-07-19T11:07:55.000Z</time>
      </trkpt>
      <trkpt lat="42.60898" lon="1.90353">
        <ele>2399.3999023438</ele>
        <time>2023-07-19T11:07:56.000Z</time>
      </trkpt>
      <trkpt lat="42.60903" lon="1.90349">
        <ele>2400.3999023438</ele>
        <time>2023-07-19T11:08:05.000Z</time>
      </trkpt>
      <trkpt lat="42.60904" lon="1.90349">
        <ele>2400.3999023438</ele>
        <time>2023-07-19T11:08:06.000Z</time>
      </trkpt>
      <trkpt lat="42.60908" lon="1.90345">
        <ele>2401.1999511719</ele>
        <time>2023-07-19T11:08:13.000Z</time>
      </trkpt>
      <trkpt lat="42.60909" lon="1.90344">
        <ele>2401.3999023438</ele>
        <time>2023-07-19T11:08:15.000Z</time>
      </trkpt>
      <trkpt lat="42.6091" lon="1.9034">
        <ele>2402</ele>
        <time>2023-07-19T11:08:19.000Z</time>
      </trkpt>
      <trkpt lat="42.6091" lon="1.90337">
        <ele>2402.3999023438</ele>
        <time>2023-07-19T11:08:23.000Z</time>
      </trkpt>
      <trkpt lat="42.6091" lon="1.90333">
        <ele>2403.1999511719</ele>
        <time>2023-07-19T11:08:28.000Z</time>
      </trkpt>
      <trkpt lat="42.60911" lon="1.90331">
        <ele>2403.8000488281</ele>
        <time>2023-07-19T11:08:30.000Z</time>
      </trkpt>
      <trkpt lat="42.60913" lon="1.90328">
        <ele>2404.3999023438</ele>
        <time>2023-07-19T11:08:36.000Z</time>
      </trkpt>
      <trkpt lat="42.60914" lon="1.90328">
        <ele>2404.8000488281</ele>
        <time>2023-07-19T11:08:37.000Z</time>
      </trkpt>
      <trkpt lat="42.60917" lon="1.90325">
        <ele>2406</ele>
        <time>2023-07-19T11:08:43.000Z</time>
      </trkpt>
      <trkpt lat="42.60917" lon="1.90325">
        <ele>2406.1999511719</ele>
        <time>2023-07-19T11:08:44.000Z</time>
      </trkpt>
      <trkpt lat="42.60918" lon="1.90324">
        <ele>2407.1999511719</ele>
        <time>2023-07-19T11:08:49.000Z</time>
      </trkpt>
      <trkpt lat="42.60919" lon="1.90323">
        <ele>2408.1999511719</ele>
        <time>2023-07-19T11:08:52.000Z</time>
      </trkpt>
      <trkpt lat="42.6092" lon="1.90323">
        <ele>2408.3999023438</ele>
        <time>2023-07-19T11:08:53.000Z</time>
      </trkpt>
      <trkpt lat="42.6092" lon="1.90317">
        <ele>2408.8000488281</ele>
        <time>2023-07-19T11:09:01.000Z</time>
      </trkpt>
      <trkpt lat="42.60922" lon="1.90313">
        <ele>2409.1999511719</ele>
        <time>2023-07-19T11:09:06.000Z</time>
      </trkpt>
      <trkpt lat="42.60922" lon="1.90312">
        <ele>2409.3999023438</ele>
        <time>2023-07-19T11:09:08.000Z</time>
      </trkpt>
      <trkpt lat="42.60923" lon="1.90313">
        <ele>2410.1999511719</ele>
        <time>2023-07-19T11:09:10.000Z</time>
      </trkpt>
      <trkpt lat="42.60924" lon="1.90313">
        <ele>2410.3999023438</ele>
        <time>2023-07-19T11:09:11.000Z</time>
      </trkpt>
      <trkpt lat="42.60925" lon="1.90314">
        <ele>2411.1999511719</ele>
        <time>2023-07-19T11:09:15.000Z</time>
      </trkpt>
      <trkpt lat="42.60927" lon="1.90314">
        <ele>2411.3999023438</ele>
        <time>2023-07-19T11:09:16.000Z</time>
      </trkpt>
      <trkpt lat="42.60932" lon="1.90311">
        <ele>2412.6000976562</ele>
        <time>2023-07-19T11:09:22.000Z</time>
      </trkpt>
      <trkpt lat="42.60933" lon="1.90309">
        <ele>2414</ele>
        <time>2023-07-19T11:09:24.000Z</time>
      </trkpt>
      <trkpt lat="42.60935" lon="1.90306">
        <ele>2414</ele>
        <time>2023-07-19T11:09:29.000Z</time>
      </trkpt>
      <trkpt lat="42.60938" lon="1.90303">
        <ele>2413.8000488281</ele>
        <time>2023-07-19T11:09:38.000Z</time>
      </trkpt>
      <trkpt lat="42.60942" lon="1.90302">
        <ele>2415</ele>
        <time>2023-07-19T11:09:43.000Z</time>
      </trkpt>
      <trkpt lat="42.60943" lon="1.90304">
        <ele>2415.6000976562</ele>
        <time>2023-07-19T11:09:47.000Z</time>
      </trkpt>
      <trkpt lat="42.60946" lon="1.90308">
        <ele>2415.8000488281</ele>
        <time>2023-07-19T11:09:55.000Z</time>
      </trkpt>
      <trkpt lat="42.60948" lon="1.90309">
        <ele>2416.1999511719</ele>
        <time>2023-07-19T11:09:58.000Z</time>
      </trkpt>
      <trkpt lat="42.60951" lon="1.90311">
        <ele>2416.8000488281</ele>
        <time>2023-07-19T11:10:05.000Z</time>
      </trkpt>
      <trkpt lat="42.60951" lon="1.90312">
        <ele>2417.1999511719</ele>
        <time>2023-07-19T11:10:06.000Z</time>
      </trkpt>
      <trkpt lat="42.60952" lon="1.90313">
        <ele>2418.1999511719</ele>
        <time>2023-07-19T11:10:11.000Z</time>
      </trkpt>
      <trkpt lat="42.60952" lon="1.90313">
        <ele>2418.1999511719</ele>
        <time>2023-07-19T11:10:12.000Z</time>
      </trkpt>
      <trkpt lat="42.60952" lon="1.90313">
        <ele>2419.3999023438</ele>
        <time>2023-07-19T11:10:18.000Z</time>
      </trkpt>
      <trkpt lat="42.60955" lon="1.90317">
        <ele>2420</ele>
        <time>2023-07-19T11:10:24.000Z</time>
      </trkpt>
      <trkpt lat="42.60956" lon="1.90317">
        <ele>2420.3999023438</ele>
        <time>2023-07-19T11:10:27.000Z</time>
      </trkpt>
      <trkpt lat="42.60957" lon="1.90318">
        <ele>2420.8000488281</ele>
        <time>2023-07-19T11:10:32.000Z</time>
      </trkpt>
      <trkpt lat="42.60959" lon="1.90318">
        <ele>2421.3999023438</ele>
        <time>2023-07-19T11:10:38.000Z</time>
      </trkpt>
      <trkpt lat="42.6096" lon="1.90319">
        <ele>2421.8000488281</ele>
        <time>2023-07-19T11:10:40.000Z</time>
      </trkpt>
      <trkpt lat="42.60964" lon="1.90318">
        <ele>2422.6000976562</ele>
        <time>2023-07-19T11:10:46.000Z</time>
      </trkpt>
      <trkpt lat="42.60965" lon="1.90318">
        <ele>2423</ele>
        <time>2023-07-19T11:10:48.000Z</time>
      </trkpt>
      <trkpt lat="42.60968" lon="1.90317">
        <ele>2423.6000976562</ele>
        <time>2023-07-19T11:10:52.000Z</time>
      </trkpt>
      <trkpt lat="42.6097" lon="1.90314">
        <ele>2424.1999511719</ele>
        <time>2023-07-19T11:10:58.000Z</time>
      </trkpt>
      <trkpt lat="42.6097" lon="1.90314">
        <ele>2424.6000976562</ele>
        <time>2023-07-19T11:11:01.000Z</time>
      </trkpt>
      <trkpt lat="42.60974" lon="1.90314">
        <ele>2425.1999511719</ele>
        <time>2023-07-19T11:11:07.000Z</time>
      </trkpt>
      <trkpt lat="42.60976" lon="1.90313">
        <ele>2425.8000488281</ele>
        <time>2023-07-19T11:11:10.000Z</time>
      </trkpt>
      <trkpt lat="42.60978" lon="1.9031">
        <ele>2426.3999023438</ele>
        <time>2023-07-19T11:11:16.000Z</time>
      </trkpt>
      <trkpt lat="42.6098" lon="1.90305">
        <ele>2426.6000976562</ele>
        <time>2023-07-19T11:11:24.000Z</time>
      </trkpt>
      <trkpt lat="42.6098" lon="1.90304">
        <ele>2427</ele>
        <time>2023-07-19T11:11:26.000Z</time>
      </trkpt>
      <trkpt lat="42.60982" lon="1.90301">
        <ele>2427.8000488281</ele>
        <time>2023-07-19T11:11:31.000Z</time>
      </trkpt>
      <trkpt lat="42.60983" lon="1.903">
        <ele>2428.1999511719</ele>
        <time>2023-07-19T11:11:34.000Z</time>
      </trkpt>
      <trkpt lat="42.60984" lon="1.90299">
        <ele>2429</ele>
        <time>2023-07-19T11:11:39.000Z</time>
      </trkpt>
      <trkpt lat="42.60985" lon="1.90299">
        <ele>2429.1999511719</ele>
        <time>2023-07-19T11:11:40.000Z</time>
      </trkpt>
      <trkpt lat="42.60988" lon="1.90298">
        <ele>2430.3999023438</ele>
        <time>2023-07-19T11:11:44.000Z</time>
      </trkpt>
      <trkpt lat="42.60992" lon="1.90297">
        <ele>2430.8000488281</ele>
        <time>2023-07-19T11:11:49.000Z</time>
      </trkpt>
      <trkpt lat="42.60993" lon="1.90295">
        <ele>2431.3999023438</ele>
        <time>2023-07-19T11:11:53.000Z</time>
      </trkpt>
      <trkpt lat="42.60995" lon="1.9029">
        <ele>2431.6000976562</ele>
        <time>2023-07-19T11:11:58.000Z</time>
      </trkpt>
      <trkpt lat="42.60996" lon="1.90286">
        <ele>2432.3999023438</ele>
        <time>2023-07-19T11:12:02.000Z</time>
      </trkpt>
      <trkpt lat="42.60997" lon="1.90282">
        <ele>2432.3999023438</ele>
        <time>2023-07-19T11:12:07.000Z</time>
      </trkpt>
      <trkpt lat="42.60999" lon="1.90274">
        <ele>2431.6000976562</ele>
        <time>2023-07-19T11:12:14.000Z</time>
      </trkpt>
      <trkpt lat="42.61003" lon="1.90269">
        <ele>2432.6000976562</ele>
        <time>2023-07-19T11:12:23.000Z</time>
      </trkpt>
      <trkpt lat="42.61005" lon="1.90266">
        <ele>2432.8000488281</ele>
        <time>2023-07-19T11:12:30.000Z</time>
      </trkpt>
      <trkpt lat="42.61007" lon="1.90261">
        <ele>2433.3999023438</ele>
        <time>2023-07-19T11:12:35.000Z</time>
      </trkpt>
      <trkpt lat="42.61009" lon="1.90257">
        <ele>2434.8000488281</ele>
        <time>2023-07-19T11:12:38.000Z</time>
      </trkpt>
      <trkpt lat="42.61009" lon="1.90256">
        <ele>2435</ele>
        <time>2023-07-19T11:12:39.000Z</time>
      </trkpt>
      <trkpt lat="42.61012" lon="1.90252">
        <ele>2435.8000488281</ele>
        <time>2023-07-19T11:12:44.000Z</time>
      </trkpt>
      <trkpt lat="42.61013" lon="1.90249">
        <ele>2435.8000488281</ele>
        <time>2023-07-19T11:12:47.000Z</time>
      </trkpt>
      <trkpt lat="42.61015" lon="1.90241">
        <ele>2435</ele>
        <time>2023-07-19T11:12:55.000Z</time>
      </trkpt>
      <trkpt lat="42.61017" lon="1.90235">
        <ele>2435.8000488281</ele>
        <time>2023-07-19T11:13:02.000Z</time>
      </trkpt>
      <trkpt lat="42.61018" lon="1.90231">
        <ele>2437</ele>
        <time>2023-07-19T11:13:08.000Z</time>
      </trkpt>
      <trkpt lat="42.61018" lon="1.9023">
        <ele>2437.1999511719</ele>
        <time>2023-07-19T11:13:09.000Z</time>
      </trkpt>
      <trkpt lat="42.61019" lon="1.90226">
        <ele>2438</ele>
        <time>2023-07-19T11:13:13.000Z</time>
      </trkpt>
      <trkpt lat="42.61019" lon="1.90222">
        <ele>2438.6000976562</ele>
        <time>2023-07-19T11:13:17.000Z</time>
      </trkpt>
      <trkpt lat="42.61019" lon="1.90218">
        <ele>2439</ele>
        <time>2023-07-19T11:13:22.000Z</time>
      </trkpt>
      <trkpt lat="42.61021" lon="1.90212">
        <ele>2439.3999023438</ele>
        <time>2023-07-19T11:13:29.000Z</time>
      </trkpt>
      <trkpt lat="42.61025" lon="1.90205">
        <ele>2439.6000976562</ele>
        <time>2023-07-19T11:13:37.000Z</time>
      </trkpt>
      <trkpt lat="42.61027" lon="1.90203">
        <ele>2440.1999511719</ele>
        <time>2023-07-19T11:13:40.000Z</time>
      </trkpt>
      <trkpt lat="42.61028" lon="1.902">
        <ele>2440.8000488281</ele>
        <time>2023-07-19T11:13:43.000Z</time>
      </trkpt>
      <trkpt lat="42.61028" lon="1.90198">
        <ele>2441.3999023438</ele>
        <time>2023-07-19T11:13:48.000Z</time>
      </trkpt>
      <trkpt lat="42.61028" lon="1.90198">
        <ele>2441.6000976562</ele>
        <time>2023-07-19T11:13:50.000Z</time>
      </trkpt>
      <trkpt lat="42.6103" lon="1.90194">
        <ele>2442.6000976562</ele>
        <time>2023-07-19T11:13:56.000Z</time>
      </trkpt>
      <trkpt lat="42.6103" lon="1.90193">
        <ele>2443.8000488281</ele>
        <time>2023-07-19T11:13:58.000Z</time>
      </trkpt>
      <trkpt lat="42.61031" lon="1.90188">
        <ele>2444</ele>
        <time>2023-07-19T11:14:03.000Z</time>
      </trkpt>
      <trkpt lat="42.61032" lon="1.90182">
        <ele>2443.1999511719</ele>
        <time>2023-07-19T11:14:11.000Z</time>
      </trkpt>
      <trkpt lat="42.61031" lon="1.90177">
        <ele>2443</ele>
        <time>2023-07-19T11:14:18.000Z</time>
      </trkpt>
      <trkpt lat="42.61034" lon="1.90171">
        <ele>2444.8000488281</ele>
        <time>2023-07-19T11:14:27.000Z</time>
      </trkpt>
      <trkpt lat="42.61034" lon="1.90171">
        <ele>2445</ele>
        <time>2023-07-19T11:14:28.000Z</time>
      </trkpt>
      <trkpt lat="42.61036" lon="1.90167">
        <ele>2445.3999023438</ele>
        <time>2023-07-19T11:14:36.000Z</time>
      </trkpt>
      <trkpt lat="42.61039" lon="1.90164">
        <ele>2445.8000488281</ele>
        <time>2023-07-19T11:14:41.000Z</time>
      </trkpt>
      <trkpt lat="42.6104" lon="1.90162">
        <ele>2446.1999511719</ele>
        <time>2023-07-19T11:14:43.000Z</time>
      </trkpt>
      <trkpt lat="42.6104" lon="1.90153">
        <ele>2446.3999023438</ele>
        <time>2023-07-19T11:14:50.000Z</time>
      </trkpt>
      <trkpt lat="42.61041" lon="1.9015">
        <ele>2447</ele>
        <time>2023-07-19T11:14:52.000Z</time>
      </trkpt>
      <trkpt lat="42.61042" lon="1.90143">
        <ele>2447.6000976562</ele>
        <time>2023-07-19T11:14:57.000Z</time>
      </trkpt>
      <trkpt lat="42.61045" lon="1.9014">
        <ele>2448</ele>
        <time>2023-07-19T11:15:02.000Z</time>
      </trkpt>
      <trkpt lat="42.61046" lon="1.90137">
        <ele>2448.1999511719</ele>
        <time>2023-07-19T11:15:04.000Z</time>
      </trkpt>
      <trkpt lat="42.61047" lon="1.90125">
        <ele>2449</ele>
        <time>2023-07-19T11:15:13.000Z</time>
      </trkpt>
      <trkpt lat="42.61047" lon="1.90116">
        <ele>2448.8000488281</ele>
        <time>2023-07-19T11:15:20.000Z</time>
      </trkpt>
      <trkpt lat="42.61048" lon="1.90106">
        <ele>2449</ele>
        <time>2023-07-19T11:15:27.000Z</time>
      </trkpt>
      <trkpt lat="42.6105" lon="1.90098">
        <ele>2448.8000488281</ele>
        <time>2023-07-19T11:15:35.000Z</time>
      </trkpt>
      <trkpt lat="42.61052" lon="1.90093">
        <ele>2449.6000976562</ele>
        <time>2023-07-19T11:15:41.000Z</time>
      </trkpt>
      <trkpt lat="42.61053" lon="1.90089">
        <ele>2450</ele>
        <time>2023-07-19T11:15:44.000Z</time>
      </trkpt>
      <trkpt lat="42.61055" lon="1.90081">
        <ele>2450.6000976562</ele>
        <time>2023-07-19T11:15:50.000Z</time>
      </trkpt>
      <trkpt lat="42.61056" lon="1.90075">
        <ele>2451.3999023438</ele>
        <time>2023-07-19T11:15:55.000Z</time>
      </trkpt>
      <trkpt lat="42.61057" lon="1.90073">
        <ele>2451.3999023438</ele>
        <time>2023-07-19T11:15:56.000Z</time>
      </trkpt>
      <trkpt lat="42.61058" lon="1.90069">
        <ele>2452.3999023438</ele>
        <time>2023-07-19T11:16:04.000Z</time>
      </trkpt>
      <trkpt lat="42.61058" lon="1.9007">
        <ele>2452.3999023438</ele>
        <time>2023-07-19T11:16:05.000Z</time>
      </trkpt>
      <trkpt lat="42.61058" lon="1.9007">
        <ele>2452.3999023438</ele>
        <time>2023-07-19T11:16:06.000Z</time>
      </trkpt>
      <trkpt lat="42.61059" lon="1.90069">
        <ele>2452.1999511719</ele>
        <time>2023-07-19T11:16:12.000Z</time>
      </trkpt>
      <trkpt lat="42.6106" lon="1.9007">
        <ele>2451.8000488281</ele>
        <time>2023-07-19T11:16:23.000Z</time>
      </trkpt>
      <trkpt lat="42.61061" lon="1.9007">
        <ele>2451.1999511719</ele>
        <time>2023-07-19T11:16:24.000Z</time>
      </trkpt>
      <trkpt lat="42.61057" lon="1.90066">
        <ele>2451.6000976562</ele>
        <time>2023-07-19T11:16:31.000Z</time>
      </trkpt>
      <trkpt lat="42.61059" lon="1.90068">
        <ele>2450.8000488281</ele>
        <time>2023-07-19T11:16:38.000Z</time>
      </trkpt>
      <trkpt lat="42.6106" lon="1.90065">
        <ele>2451</ele>
        <time>2023-07-19T11:16:48.000Z</time>
      </trkpt>
      <trkpt lat="42.6106" lon="1.90057">
        <ele>2451.3999023438</ele>
        <time>2023-07-19T11:16:55.000Z</time>
      </trkpt>
      <trkpt lat="42.61063" lon="1.9005">
        <ele>2452.3999023438</ele>
        <time>2023-07-19T11:17:03.000Z</time>
      </trkpt>
      <trkpt lat="42.61064" lon="1.90049">
        <ele>2452.6000976562</ele>
        <time>2023-07-19T11:17:04.000Z</time>
      </trkpt>
      <trkpt lat="42.61067" lon="1.90041">
        <ele>2453</ele>
        <time>2023-07-19T11:17:12.000Z</time>
      </trkpt>
      <trkpt lat="42.6107" lon="1.90036">
        <ele>2453.8000488281</ele>
        <time>2023-07-19T11:17:17.000Z</time>
      </trkpt>
      <trkpt lat="42.61071" lon="1.90032">
        <ele>2454</ele>
        <time>2023-07-19T11:17:20.000Z</time>
      </trkpt>
      <trkpt lat="42.61072" lon="1.90025">
        <ele>2454.6000976562</ele>
        <time>2023-07-19T11:17:29.000Z</time>
      </trkpt>
      <trkpt lat="42.61072" lon="1.90018">
        <ele>2454.3999023438</ele>
        <time>2023-07-19T11:17:35.000Z</time>
      </trkpt>
      <trkpt lat="42.61071" lon="1.90009">
        <ele>2454.1999511719</ele>
        <time>2023-07-19T11:17:42.000Z</time>
      </trkpt>
      <trkpt lat="42.6107" lon="1.90005">
        <ele>2455</ele>
        <time>2023-07-19T11:17:46.000Z</time>
      </trkpt>
      <trkpt lat="42.61067" lon="1.89999">
        <ele>2455.8000488281</ele>
        <time>2023-07-19T11:17:50.000Z</time>
      </trkpt>
      <trkpt lat="42.61066" lon="1.89997">
        <ele>2456.1999511719</ele>
        <time>2023-07-19T11:17:52.000Z</time>
      </trkpt>
      <trkpt lat="42.61065" lon="1.89991">
        <ele>2457.6000976562</ele>
        <time>2023-07-19T11:17:57.000Z</time>
      </trkpt>
      <trkpt lat="42.61064" lon="1.89987">
        <ele>2457.6000976562</ele>
        <time>2023-07-19T11:17:59.000Z</time>
      </trkpt>
      <trkpt lat="42.61064" lon="1.89981">
        <ele>2458.1999511719</ele>
        <time>2023-07-19T11:18:06.000Z</time>
      </trkpt>
      <trkpt lat="42.61065" lon="1.89972">
        <ele>2457.3999023438</ele>
        <time>2023-07-19T11:18:15.000Z</time>
      </trkpt>
      <trkpt lat="42.61065" lon="1.89963">
        <ele>2457.6000976562</ele>
        <time>2023-07-19T11:18:22.000Z</time>
      </trkpt>
      <trkpt lat="42.61067" lon="1.89957">
        <ele>2458.3999023438</ele>
        <time>2023-07-19T11:18:28.000Z</time>
      </trkpt>
      <trkpt lat="42.61067" lon="1.89956">
        <ele>2458.6000976562</ele>
        <time>2023-07-19T11:18:29.000Z</time>
      </trkpt>
      <trkpt lat="42.61068" lon="1.89948">
        <ele>2458.6000976562</ele>
        <time>2023-07-19T11:18:37.000Z</time>
      </trkpt>
      <trkpt lat="42.61069" lon="1.89942">
        <ele>2459</ele>
        <time>2023-07-19T11:18:45.000Z</time>
      </trkpt>
      <trkpt lat="42.6107" lon="1.89939">
        <ele>2459.6000976562</ele>
        <time>2023-07-19T11:18:48.000Z</time>
      </trkpt>
      <trkpt lat="42.61071" lon="1.89935">
        <ele>2460.1999511719</ele>
        <time>2023-07-19T11:18:51.000Z</time>
      </trkpt>
      <trkpt lat="42.61071" lon="1.89933">
        <ele>2460.8000488281</ele>
        <time>2023-07-19T11:18:55.000Z</time>
      </trkpt>
      <trkpt lat="42.61072" lon="1.8993">
        <ele>2461.3999023438</ele>
        <time>2023-07-19T11:18:59.000Z</time>
      </trkpt>
      <trkpt lat="42.61072" lon="1.89927">
        <ele>2462</ele>
        <time>2023-07-19T11:19:02.000Z</time>
      </trkpt>
      <trkpt lat="42.61072" lon="1.8992">
        <ele>2462.8000488281</ele>
        <time>2023-07-19T11:19:09.000Z</time>
      </trkpt>
      <trkpt lat="42.61071" lon="1.89917">
        <ele>2463</ele>
        <time>2023-07-19T11:19:12.000Z</time>
      </trkpt>
      <trkpt lat="42.61068" lon="1.89911">
        <ele>2463.3999023438</ele>
        <time>2023-07-19T11:19:17.000Z</time>
      </trkpt>
      <trkpt lat="42.61068" lon="1.89905">
        <ele>2463.8000488281</ele>
        <time>2023-07-19T11:19:24.000Z</time>
      </trkpt>
      <trkpt lat="42.61068" lon="1.89904">
        <ele>2464</ele>
        <time>2023-07-19T11:19:26.000Z</time>
      </trkpt>
      <trkpt lat="42.61068" lon="1.89903">
        <ele>2464.8000488281</ele>
        <time>2023-07-19T11:19:31.000Z</time>
      </trkpt>
      <trkpt lat="42.61069" lon="1.89901">
        <ele>2465.1999511719</ele>
        <time>2023-07-19T11:19:33.000Z</time>
      </trkpt>
      <trkpt lat="42.61068" lon="1.899">
        <ele>2466.1999511719</ele>
        <time>2023-07-19T11:19:38.000Z</time>
      </trkpt>
      <trkpt lat="42.61068" lon="1.89899">
        <ele>2467</ele>
        <time>2023-07-19T11:19:40.000Z</time>
      </trkpt>
      <trkpt lat="42.61068" lon="1.89898">
        <ele>2467.3999023438</ele>
        <time>2023-07-19T11:19:41.000Z</time>
      </trkpt>
      <trkpt lat="42.6107" lon="1.89894">
        <ele>2468.6000976562</ele>
        <time>2023-07-19T11:19:50.000Z</time>
      </trkpt>
      <trkpt lat="42.61069" lon="1.89891">
        <ele>2469.8000488281</ele>
        <time>2023-07-19T11:19:56.000Z</time>
      </trkpt>
      <trkpt lat="42.61069" lon="1.89891">
        <ele>2470.1999511719</ele>
        <time>2023-07-19T11:19:57.000Z</time>
      </trkpt>
      <trkpt lat="42.61067" lon="1.89883">
        <ele>2470.6000976562</ele>
        <time>2023-07-19T11:20:07.000Z</time>
      </trkpt>
      <trkpt lat="42.61067" lon="1.89881">
        <ele>2471</ele>
        <time>2023-07-19T11:20:09.000Z</time>
      </trkpt>
      <trkpt lat="42.61066" lon="1.89876">
        <ele>2472</ele>
        <time>2023-07-19T11:20:15.000Z</time>
      </trkpt>
      <trkpt lat="42.61065" lon="1.89874">
        <ele>2472.6000976562</ele>
        <time>2023-07-19T11:20:22.000Z</time>
      </trkpt>
      <trkpt lat="42.61065" lon="1.89872">
        <ele>2473</ele>
        <time>2023-07-19T11:20:25.000Z</time>
      </trkpt>
      <trkpt lat="42.61064" lon="1.89868">
        <ele>2474</ele>
        <time>2023-07-19T11:20:30.000Z</time>
      </trkpt>
      <trkpt lat="42.61063" lon="1.89867">
        <ele>2474.3999023438</ele>
        <time>2023-07-19T11:20:31.000Z</time>
      </trkpt>
      <trkpt lat="42.6106" lon="1.89865">
        <ele>2475.3999023438</ele>
        <time>2023-07-19T11:20:34.000Z</time>
      </trkpt>
      <trkpt lat="42.6106" lon="1.89863">
        <ele>2475.3999023438</ele>
        <time>2023-07-19T11:20:36.000Z</time>
      </trkpt>
      <trkpt lat="42.6106" lon="1.89855">
        <ele>2475.3999023438</ele>
        <time>2023-07-19T11:20:44.000Z</time>
      </trkpt>
      <trkpt lat="42.6106" lon="1.89848">
        <ele>2476.6000976562</ele>
        <time>2023-07-19T11:20:53.000Z</time>
      </trkpt>
      <trkpt lat="42.61058" lon="1.8984">
        <ele>2477.6000976562</ele>
        <time>2023-07-19T11:20:59.000Z</time>
      </trkpt>
      <trkpt lat="42.61058" lon="1.89839">
        <ele>2477.8000488281</ele>
        <time>2023-07-19T11:21:00.000Z</time>
      </trkpt>
      <trkpt lat="42.61056" lon="1.89832">
        <ele>2478.6000976562</ele>
        <time>2023-07-19T11:21:06.000Z</time>
      </trkpt>
      <trkpt lat="42.61055" lon="1.89828">
        <ele>2478.8000488281</ele>
        <time>2023-07-19T11:21:08.000Z</time>
      </trkpt>
      <trkpt lat="42.61055" lon="1.89825">
        <ele>2479.8000488281</ele>
        <time>2023-07-19T11:21:13.000Z</time>
      </trkpt>
      <trkpt lat="42.61055" lon="1.89824">
        <ele>2480.6000976562</ele>
        <time>2023-07-19T11:21:16.000Z</time>
      </trkpt>
      <trkpt lat="42.61055" lon="1.89823">
        <ele>2480.8000488281</ele>
        <time>2023-07-19T11:21:17.000Z</time>
      </trkpt>
      <trkpt lat="42.61054" lon="1.89816">
        <ele>2480.3999023438</ele>
        <time>2023-07-19T11:21:24.000Z</time>
      </trkpt>
      <trkpt lat="42.61056" lon="1.8981">
        <ele>2480</ele>
        <time>2023-07-19T11:21:31.000Z</time>
      </trkpt>
      <trkpt lat="42.61057" lon="1.89811">
        <ele>2481.3999023438</ele>
        <time>2023-07-19T11:21:40.000Z</time>
      </trkpt>
      <trkpt lat="42.61057" lon="1.89808">
        <ele>2480.6000976562</ele>
        <time>2023-07-19T11:21:48.000Z</time>
      </trkpt>
      <trkpt lat="42.61055" lon="1.89811">
        <ele>2480</ele>
        <time>2023-07-19T11:21:55.000Z</time>
      </trkpt>
      <trkpt lat="42.61053" lon="1.89808">
        <ele>2480.8000488281</ele>
        <time>2023-07-19T11:22:01.000Z</time>
      </trkpt>
      <trkpt lat="42.6105" lon="1.89801">
        <ele>2480.3999023438</ele>
        <time>2023-07-19T11:22:11.000Z</time>
      </trkpt>
      <trkpt lat="42.61048" lon="1.89795">
        <ele>2479.6000976562</ele>
        <time>2023-07-19T11:22:16.000Z</time>
      </trkpt>
      <trkpt lat="42.61046" lon="1.8979">
        <ele>2479.1999511719</ele>
        <time>2023-07-19T11:22:20.000Z</time>
      </trkpt>
      <trkpt lat="42.6104" lon="1.89778">
        <ele>2479</ele>
        <time>2023-07-19T11:22:30.000Z</time>
      </trkpt>
      <trkpt lat="42.61037" lon="1.89772">
        <ele>2478.6000976562</ele>
        <time>2023-07-19T11:22:35.000Z</time>
      </trkpt>
      <trkpt lat="42.61036" lon="1.89771">
        <ele>2478.3999023438</ele>
        <time>2023-07-19T11:22:36.000Z</time>
      </trkpt>
      <trkpt lat="42.61035" lon="1.89768">
        <ele>2477.3999023438</ele>
        <time>2023-07-19T11:22:39.000Z</time>
      </trkpt>
      <trkpt lat="42.61032" lon="1.89762">
        <ele>2476.3999023438</ele>
        <time>2023-07-19T11:22:44.000Z</time>
      </trkpt>
      <trkpt lat="42.61032" lon="1.8976">
        <ele>2476.1999511719</ele>
        <time>2023-07-19T11:22:45.000Z</time>
      </trkpt>
      <trkpt lat="42.6103" lon="1.89753">
        <ele>2475.1999511719</ele>
        <time>2023-07-19T11:22:49.000Z</time>
      </trkpt>
      <trkpt lat="42.61029" lon="1.89747">
        <ele>2474.8000488281</ele>
        <time>2023-07-19T11:22:53.000Z</time>
      </trkpt>
      <trkpt lat="42.61028" lon="1.89741">
        <ele>2474.1999511719</ele>
        <time>2023-07-19T11:22:59.000Z</time>
      </trkpt>
      <trkpt lat="42.61027" lon="1.8974">
        <ele>2473.3999023438</ele>
        <time>2023-07-19T11:23:01.000Z</time>
      </trkpt>
      <trkpt lat="42.61024" lon="1.89731">
        <ele>2473.1999511719</ele>
        <time>2023-07-19T11:23:07.000Z</time>
      </trkpt>
      <trkpt lat="42.61023" lon="1.89729">
        <ele>2473.1999511719</ele>
        <time>2023-07-19T11:23:09.000Z</time>
      </trkpt>
      <trkpt lat="42.61024" lon="1.89727">
        <ele>2472.3999023438</ele>
        <time>2023-07-19T11:23:13.000Z</time>
      </trkpt>
      <trkpt lat="42.61023" lon="1.89726">
        <ele>2472.1999511719</ele>
        <time>2023-07-19T11:23:15.000Z</time>
      </trkpt>
      <trkpt lat="42.61022" lon="1.89723">
        <ele>2470.8000488281</ele>
        <time>2023-07-19T11:23:19.000Z</time>
      </trkpt>
      <trkpt lat="42.61021" lon="1.8972">
        <ele>2469.8000488281</ele>
        <time>2023-07-19T11:23:22.000Z</time>
      </trkpt>
      <trkpt lat="42.61019" lon="1.89716">
        <ele>2468.6000976562</ele>
        <time>2023-07-19T11:23:27.000Z</time>
      </trkpt>
      <trkpt lat="42.6102" lon="1.89715">
        <ele>2468</ele>
        <time>2023-07-19T11:23:30.000Z</time>
      </trkpt>
      <trkpt lat="42.6102" lon="1.89713">
        <ele>2467.1999511719</ele>
        <time>2023-07-19T11:23:32.000Z</time>
      </trkpt>
      <trkpt lat="42.61021" lon="1.89712">
        <ele>2466.8000488281</ele>
        <time>2023-07-19T11:23:36.000Z</time>
      </trkpt>
      <trkpt lat="42.61021" lon="1.89714">
        <ele>2466.6000976562</ele>
        <time>2023-07-19T11:23:44.000Z</time>
      </trkpt>
      <trkpt lat="42.61019" lon="1.89713">
        <ele>2466.6000976562</ele>
        <time>2023-07-19T11:23:52.000Z</time>
      </trkpt>
      <trkpt lat="42.61019" lon="1.89707">
        <ele>2466.1999511719</ele>
        <time>2023-07-19T11:23:58.000Z</time>
      </trkpt>
      <trkpt lat="42.61019" lon="1.89704">
        <ele>2465.8000488281</ele>
        <time>2023-07-19T11:24:00.000Z</time>
      </trkpt>
      <trkpt lat="42.61019" lon="1.89701">
        <ele>2465</ele>
        <time>2023-07-19T11:24:03.000Z</time>
      </trkpt>
      <trkpt lat="42.6102" lon="1.89699">
        <ele>2464.3999023438</ele>
        <time>2023-07-19T11:24:07.000Z</time>
      </trkpt>
      <trkpt lat="42.6102" lon="1.89698">
        <ele>2463.8000488281</ele>
        <time>2023-07-19T11:24:09.000Z</time>
      </trkpt>
      <trkpt lat="42.6102" lon="1.89693">
        <ele>2462.8000488281</ele>
        <time>2023-07-19T11:24:14.000Z</time>
      </trkpt>
      <trkpt lat="42.6102" lon="1.89689">
        <ele>2462.1999511719</ele>
        <time>2023-07-19T11:24:17.000Z</time>
      </trkpt>
      <trkpt lat="42.61019" lon="1.89687">
        <ele>2461.8000488281</ele>
        <time>2023-07-19T11:24:19.000Z</time>
      </trkpt>
      <trkpt lat="42.61018" lon="1.89682">
        <ele>2461</ele>
        <time>2023-07-19T11:24:26.000Z</time>
      </trkpt>
      <trkpt lat="42.61017" lon="1.89681">
        <ele>2460.3999023438</ele>
        <time>2023-07-19T11:24:28.000Z</time>
      </trkpt>
      <trkpt lat="42.61015" lon="1.89679">
        <ele>2459.1999511719</ele>
        <time>2023-07-19T11:24:33.000Z</time>
      </trkpt>
      <trkpt lat="42.61014" lon="1.89678">
        <ele>2459</ele>
        <time>2023-07-19T11:24:34.000Z</time>
      </trkpt>
      <trkpt lat="42.61012" lon="1.89672">
        <ele>2458</ele>
        <time>2023-07-19T11:24:39.000Z</time>
      </trkpt>
      <trkpt lat="42.61011" lon="1.89668">
        <ele>2457.3999023438</ele>
        <time>2023-07-19T11:24:43.000Z</time>
      </trkpt>
      <trkpt lat="42.61012" lon="1.89667">
        <ele>2456.8000488281</ele>
        <time>2023-07-19T11:24:45.000Z</time>
      </trkpt>
      <trkpt lat="42.61012" lon="1.89665">
        <ele>2455.6000976562</ele>
        <time>2023-07-19T11:24:48.000Z</time>
      </trkpt>
      <trkpt lat="42.61011" lon="1.89663">
        <ele>2455.1999511719</ele>
        <time>2023-07-19T11:24:51.000Z</time>
      </trkpt>
      <trkpt lat="42.61009" lon="1.89659">
        <ele>2454.3999023438</ele>
        <time>2023-07-19T11:24:56.000Z</time>
      </trkpt>
      <trkpt lat="42.61008" lon="1.89657">
        <ele>2453.8000488281</ele>
        <time>2023-07-19T11:24:59.000Z</time>
      </trkpt>
      <trkpt lat="42.61008" lon="1.89655">
        <ele>2453.3999023438</ele>
        <time>2023-07-19T11:25:02.000Z</time>
      </trkpt>
      <trkpt lat="42.61008" lon="1.89654">
        <ele>2452.3999023438</ele>
        <time>2023-07-19T11:25:06.000Z</time>
      </trkpt>
      <trkpt lat="42.61007" lon="1.89652">
        <ele>2452</ele>
        <time>2023-07-19T11:25:08.000Z</time>
      </trkpt>
      <trkpt lat="42.61006" lon="1.89647">
        <ele>2451.1999511719</ele>
        <time>2023-07-19T11:25:14.000Z</time>
      </trkpt>
      <trkpt lat="42.61007" lon="1.89646">
        <ele>2451</ele>
        <time>2023-07-19T11:25:15.000Z</time>
      </trkpt>
      <trkpt lat="42.61007" lon="1.89645">
        <ele>2450.1999511719</ele>
        <time>2023-07-19T11:25:17.000Z</time>
      </trkpt>
      <trkpt lat="42.61005" lon="1.8964">
        <ele>2449.3999023438</ele>
        <time>2023-07-19T11:25:24.000Z</time>
      </trkpt>
      <trkpt lat="42.61004" lon="1.89638">
        <ele>2449</ele>
        <time>2023-07-19T11:25:27.000Z</time>
      </trkpt>
      <trkpt lat="42.61001" lon="1.89631">
        <ele>2448.1999511719</ele>
        <time>2023-07-19T11:25:33.000Z</time>
      </trkpt>
      <trkpt lat="42.60999" lon="1.89626">
        <ele>2448</ele>
        <time>2023-07-19T11:25:38.000Z</time>
      </trkpt>
      <trkpt lat="42.60999" lon="1.89623">
        <ele>2447.1999511719</ele>
        <time>2023-07-19T11:25:42.000Z</time>
      </trkpt>
      <trkpt lat="42.60998" lon="1.8962">
        <ele>2447</ele>
        <time>2023-07-19T11:25:46.000Z</time>
      </trkpt>
      <trkpt lat="42.60997" lon="1.89621">
        <ele>2446.3999023438</ele>
        <time>2023-07-19T11:25:49.000Z</time>
      </trkpt>
      <trkpt lat="42.60997" lon="1.89622">
        <ele>2445.8000488281</ele>
        <time>2023-07-19T11:25:55.000Z</time>
      </trkpt>
      <trkpt lat="42.61" lon="1.89622">
        <ele>2446</ele>
        <time>2023-07-19T11:26:06.000Z</time>
      </trkpt>
      <trkpt lat="42.60999" lon="1.8962">
        <ele>2446</ele>
        <time>2023-07-19T11:26:17.000Z</time>
      </trkpt>
      <trkpt lat="42.60999" lon="1.89621">
        <ele>2446.1999511719</ele>
        <time>2023-07-19T11:26:27.000Z</time>
      </trkpt>
      <trkpt lat="42.60995" lon="1.89616">
        <ele>2445.6000976562</ele>
        <time>2023-07-19T11:26:38.000Z</time>
      </trkpt>
      <trkpt lat="42.60997" lon="1.89618">
        <ele>2445.6000976562</ele>
        <time>2023-07-19T11:26:46.000Z</time>
      </trkpt>
      <trkpt lat="42.61" lon="1.89616">
        <ele>2445</ele>
        <time>2023-07-19T11:26:53.000Z</time>
      </trkpt>
      <trkpt lat="42.61001" lon="1.89612">
        <ele>2444.8000488281</ele>
        <time>2023-07-19T11:26:58.000Z</time>
      </trkpt>
      <trkpt lat="42.61001" lon="1.89607">
        <ele>2443.8000488281</ele>
        <time>2023-07-19T11:27:03.000Z</time>
      </trkpt>
      <trkpt lat="42.61001" lon="1.89606">
        <ele>2443.6000976562</ele>
        <time>2023-07-19T11:27:04.000Z</time>
      </trkpt>
      <trkpt lat="42.60999" lon="1.89604">
        <ele>2442.8000488281</ele>
        <time>2023-07-19T11:27:11.000Z</time>
      </trkpt>
      <trkpt lat="42.60998" lon="1.89599">
        <ele>2441.6000976562</ele>
        <time>2023-07-19T11:27:19.000Z</time>
      </trkpt>
      <trkpt lat="42.60998" lon="1.89598">
        <ele>2441.3999023438</ele>
        <time>2023-07-19T11:27:20.000Z</time>
      </trkpt>
      <trkpt lat="42.60998" lon="1.89597">
        <ele>2440.3999023438</ele>
        <time>2023-07-19T11:27:25.000Z</time>
      </trkpt>
      <trkpt lat="42.60998" lon="1.89596">
        <ele>2440.3999023438</ele>
        <time>2023-07-19T11:27:28.000Z</time>
      </trkpt>
      <trkpt lat="42.60997" lon="1.89593">
        <ele>2439.8000488281</ele>
        <time>2023-07-19T11:27:35.000Z</time>
      </trkpt>
      <trkpt lat="42.60995" lon="1.89594">
        <ele>2439.8000488281</ele>
        <time>2023-07-19T11:27:42.000Z</time>
      </trkpt>
      <trkpt lat="42.60992" lon="1.89589">
        <ele>2440</ele>
        <time>2023-07-19T11:27:50.000Z</time>
      </trkpt>
      <trkpt lat="42.60991" lon="1.89586">
        <ele>2439.3999023438</ele>
        <time>2023-07-19T11:27:56.000Z</time>
      </trkpt>
      <trkpt lat="42.60991" lon="1.89585">
        <ele>2439.1999511719</ele>
        <time>2023-07-19T11:27:57.000Z</time>
      </trkpt>
      <trkpt lat="42.60991" lon="1.89581">
        <ele>2437.8000488281</ele>
        <time>2023-07-19T11:28:02.000Z</time>
      </trkpt>
      <trkpt lat="42.60995" lon="1.89575">
        <ele>2436.8000488281</ele>
        <time>2023-07-19T11:28:10.000Z</time>
      </trkpt>
      <trkpt lat="42.60996" lon="1.8957">
        <ele>2436.1999511719</ele>
        <time>2023-07-19T11:28:17.000Z</time>
      </trkpt>
      <trkpt lat="42.60996" lon="1.89569">
        <ele>2435.8000488281</ele>
        <time>2023-07-19T11:28:19.000Z</time>
      </trkpt>
      <trkpt lat="42.60999" lon="1.89567">
        <ele>2434.6000976562</ele>
        <time>2023-07-19T11:28:26.000Z</time>
      </trkpt>
      <trkpt lat="42.60998" lon="1.89565">
        <ele>2433.6000976562</ele>
        <time>2023-07-19T11:28:34.000Z</time>
      </trkpt>
      <trkpt lat="42.60998" lon="1.89564">
        <ele>2433.6000976562</ele>
        <time>2023-07-19T11:28:35.000Z</time>
      </trkpt>
      <trkpt lat="42.60998" lon="1.8956">
        <ele>2432.3999023438</ele>
        <time>2023-07-19T11:28:40.000Z</time>
      </trkpt>
      <trkpt lat="42.60997" lon="1.89556">
        <ele>2431.8000488281</ele>
        <time>2023-07-19T11:28:44.000Z</time>
      </trkpt>
      <trkpt lat="42.60997" lon="1.89556">
        <ele>2431.3999023438</ele>
        <time>2023-07-19T11:28:45.000Z</time>
      </trkpt>
      <trkpt lat="42.60995" lon="1.89549">
        <ele>2430.3999023438</ele>
        <time>2023-07-19T11:28:51.000Z</time>
      </trkpt>
      <trkpt lat="42.60996" lon="1.89548">
        <ele>2430.3999023438</ele>
        <time>2023-07-19T11:28:53.000Z</time>
      </trkpt>
      <trkpt lat="42.60997" lon="1.89542">
        <ele>2430</ele>
        <time>2023-07-19T11:28:59.000Z</time>
      </trkpt>
      <trkpt lat="42.60999" lon="1.89538">
        <ele>2429.3999023438</ele>
        <time>2023-07-19T11:29:03.000Z</time>
      </trkpt>
      <trkpt lat="42.61" lon="1.89537">
        <ele>2428.8000488281</ele>
        <time>2023-07-19T11:29:05.000Z</time>
      </trkpt>
      <trkpt lat="42.61002" lon="1.89537">
        <ele>2428</ele>
        <time>2023-07-19T11:29:11.000Z</time>
      </trkpt>
      <trkpt lat="42.61002" lon="1.89536">
        <ele>2427.1999511719</ele>
        <time>2023-07-19T11:29:13.000Z</time>
      </trkpt>
      <trkpt lat="42.61002" lon="1.89536">
        <ele>2427</ele>
        <time>2023-07-19T11:29:14.000Z</time>
      </trkpt>
      <trkpt lat="42.61004" lon="1.89535">
        <ele>2425.8000488281</ele>
        <time>2023-07-19T11:29:18.000Z</time>
      </trkpt>
      <trkpt lat="42.61005" lon="1.89534">
        <ele>2425.3999023438</ele>
        <time>2023-07-19T11:29:20.000Z</time>
      </trkpt>
      <trkpt lat="42.61009" lon="1.8953">
        <ele>2424.8000488281</ele>
        <time>2023-07-19T11:29:25.000Z</time>
      </trkpt>
      <trkpt lat="42.6101" lon="1.89527">
        <ele>2424.8000488281</ele>
        <time>2023-07-19T11:29:28.000Z</time>
      </trkpt>
      <trkpt lat="42.61012" lon="1.89525">
        <ele>2423.8000488281</ele>
        <time>2023-07-19T11:29:36.000Z</time>
      </trkpt>
      <trkpt lat="42.61011" lon="1.89525">
        <ele>2423.6000976562</ele>
        <time>2023-07-19T11:29:37.000Z</time>
      </trkpt>
      <trkpt lat="42.61008" lon="1.89519">
        <ele>2423.8000488281</ele>
        <time>2023-07-19T11:29:43.000Z</time>
      </trkpt>
      <trkpt lat="42.61007" lon="1.89515">
        <ele>2423</ele>
        <time>2023-07-19T11:29:51.000Z</time>
      </trkpt>
      <trkpt lat="42.61007" lon="1.89515">
        <ele>2422.3999023438</ele>
        <time>2023-07-19T11:29:52.000Z</time>
      </trkpt>
      <trkpt lat="42.6101" lon="1.89511">
        <ele>2421.1999511719</ele>
        <time>2023-07-19T11:29:56.000Z</time>
      </trkpt>
      <trkpt lat="42.61012" lon="1.89512">
        <ele>2420.3999023438</ele>
        <time>2023-07-19T11:30:00.000Z</time>
      </trkpt>
      <trkpt lat="42.61014" lon="1.89512">
        <ele>2419</ele>
        <time>2023-07-19T11:30:07.000Z</time>
      </trkpt>
      <trkpt lat="42.61015" lon="1.89511">
        <ele>2419</ele>
        <time>2023-07-19T11:30:08.000Z</time>
      </trkpt>
      <trkpt lat="42.61017" lon="1.8951">
        <ele>2418</ele>
        <time>2023-07-19T11:30:12.000Z</time>
      </trkpt>
      <trkpt lat="42.61018" lon="1.8951">
        <ele>2417.1999511719</ele>
        <time>2023-07-19T11:30:17.000Z</time>
      </trkpt>
      <trkpt lat="42.61021" lon="1.89505">
        <ele>2417</ele>
        <time>2023-07-19T11:30:23.000Z</time>
      </trkpt>
      <trkpt lat="42.61021" lon="1.89505">
        <ele>2416.8000488281</ele>
        <time>2023-07-19T11:30:24.000Z</time>
      </trkpt>
      <trkpt lat="42.61023" lon="1.89505">
        <ele>2415.8000488281</ele>
        <time>2023-07-19T11:30:27.000Z</time>
      </trkpt>
      <trkpt lat="42.61025" lon="1.89508">
        <ele>2414.8000488281</ele>
        <time>2023-07-19T11:30:32.000Z</time>
      </trkpt>
      <trkpt lat="42.61025" lon="1.89509">
        <ele>2414.6000976562</ele>
        <time>2023-07-19T11:30:33.000Z</time>
      </trkpt>
      <trkpt lat="42.61028" lon="1.89517">
        <ele>2414</ele>
        <time>2023-07-19T11:30:41.000Z</time>
      </trkpt>
      <trkpt lat="42.61032" lon="1.89516">
        <ele>2413.3999023438</ele>
        <time>2023-07-19T11:30:46.000Z</time>
      </trkpt>
      <trkpt lat="42.61033" lon="1.89516">
        <ele>2412.8000488281</ele>
        <time>2023-07-19T11:30:48.000Z</time>
      </trkpt>
      <trkpt lat="42.61033" lon="1.89515">
        <ele>2412.1999511719</ele>
        <time>2023-07-19T11:30:51.000Z</time>
      </trkpt>
      <trkpt lat="42.61034" lon="1.8951">
        <ele>2411</ele>
        <time>2023-07-19T11:30:58.000Z</time>
      </trkpt>
      <trkpt lat="42.61037" lon="1.89507">
        <ele>2410</ele>
        <time>2023-07-19T11:31:03.000Z</time>
      </trkpt>
      <trkpt lat="42.61038" lon="1.89509">
        <ele>2410</ele>
        <time>2023-07-19T11:31:06.000Z</time>
      </trkpt>
      <trkpt lat="42.61042" lon="1.89514">
        <ele>2409.3999023438</ele>
        <time>2023-07-19T11:31:14.000Z</time>
      </trkpt>
      <trkpt lat="42.61044" lon="1.89513">
        <ele>2409.3999023438</ele>
        <time>2023-07-19T11:31:21.000Z</time>
      </trkpt>
      <trkpt lat="42.61043" lon="1.89514">
        <ele>2409.3999023438</ele>
        <time>2023-07-19T11:31:28.000Z</time>
      </trkpt>
      <trkpt lat="42.61046" lon="1.89508">
        <ele>2409.6000976562</ele>
        <time>2023-07-19T11:31:33.000Z</time>
      </trkpt>
      <trkpt lat="42.61048" lon="1.89502">
        <ele>2408.8000488281</ele>
        <time>2023-07-19T11:31:38.000Z</time>
      </trkpt>
      <trkpt lat="42.61049" lon="1.895">
        <ele>2408.3999023438</ele>
        <time>2023-07-19T11:31:40.000Z</time>
      </trkpt>
      <trkpt lat="42.61055" lon="1.89485">
        <ele>2408.1999511719</ele>
        <time>2023-07-19T11:31:50.000Z</time>
      </trkpt>
      <trkpt lat="42.61057" lon="1.89476">
        <ele>2408.1999511719</ele>
        <time>2023-07-19T11:31:56.000Z</time>
      </trkpt>
      <trkpt lat="42.61058" lon="1.89473">
        <ele>2407.8000488281</ele>
        <time>2023-07-19T11:32:04.000Z</time>
      </trkpt>
      <trkpt lat="42.61058" lon="1.89471">
        <ele>2407.6000976562</ele>
        <time>2023-07-19T11:32:05.000Z</time>
      </trkpt>
      <trkpt lat="42.61057" lon="1.89467">
        <ele>2406.6000976562</ele>
        <time>2023-07-19T11:32:08.000Z</time>
      </trkpt>
      <trkpt lat="42.61054" lon="1.89456">
        <ele>2406</ele>
        <time>2023-07-19T11:32:14.000Z</time>
      </trkpt>
      <trkpt lat="42.61052" lon="1.89456">
        <ele>2405.6000976562</ele>
        <time>2023-07-19T11:32:20.000Z</time>
      </trkpt>
      <trkpt lat="42.6105" lon="1.89453">
        <ele>2405.1999511719</ele>
        <time>2023-07-19T11:32:22.000Z</time>
      </trkpt>
      <trkpt lat="42.61047" lon="1.8945">
        <ele>2404.6000976562</ele>
        <time>2023-07-19T11:32:25.000Z</time>
      </trkpt>
      <trkpt lat="42.61044" lon="1.89446">
        <ele>2404.3999023438</ele>
        <time>2023-07-19T11:32:29.000Z</time>
      </trkpt>
      <trkpt lat="42.6104" lon="1.8944">
        <ele>2403.3999023438</ele>
        <time>2023-07-19T11:32:35.000Z</time>
      </trkpt>
      <trkpt lat="42.61038" lon="1.89435">
        <ele>2403</ele>
        <time>2023-07-19T11:32:42.000Z</time>
      </trkpt>
      <trkpt lat="42.61037" lon="1.89431">
        <ele>2402.1999511719</ele>
        <time>2023-07-19T11:32:47.000Z</time>
      </trkpt>
      <trkpt lat="42.61036" lon="1.8943">
        <ele>2401.6000976562</ele>
        <time>2023-07-19T11:32:48.000Z</time>
      </trkpt>
      <trkpt lat="42.61032" lon="1.89424">
        <ele>2401.1999511719</ele>
        <time>2023-07-19T11:32:55.000Z</time>
      </trkpt>
      <trkpt lat="42.61032" lon="1.89424">
        <ele>2401.1999511719</ele>
        <time>2023-07-19T11:32:56.000Z</time>
      </trkpt>
      <trkpt lat="42.61029" lon="1.89419">
        <ele>2400.6000976562</ele>
        <time>2023-07-19T11:33:01.000Z</time>
      </trkpt>
      <trkpt lat="42.61027" lon="1.89415">
        <ele>2400.1999511719</ele>
        <time>2023-07-19T11:33:06.000Z</time>
      </trkpt>
      <trkpt lat="42.61027" lon="1.89413">
        <ele>2399.8000488281</ele>
        <time>2023-07-19T11:33:09.000Z</time>
      </trkpt>
      <trkpt lat="42.61027" lon="1.89412">
        <ele>2399.1999511719</ele>
        <time>2023-07-19T11:33:11.000Z</time>
      </trkpt>
      <trkpt lat="42.61028" lon="1.89409">
        <ele>2398.8000488281</ele>
        <time>2023-07-19T11:33:16.000Z</time>
      </trkpt>
      <trkpt lat="42.61028" lon="1.8941">
        <ele>2400.1999511719</ele>
        <time>2023-07-19T11:33:21.000Z</time>
      </trkpt>
      <trkpt lat="42.61027" lon="1.8941">
        <ele>2400.1999511719</ele>
        <time>2023-07-19T11:33:24.000Z</time>
      </trkpt>
      <trkpt lat="42.61026" lon="1.89413">
        <ele>2399.8000488281</ele>
        <time>2023-07-19T11:33:31.000Z</time>
      </trkpt>
      <trkpt lat="42.61028" lon="1.89414">
        <ele>2399.6000976562</ele>
        <time>2023-07-19T11:33:37.000Z</time>
      </trkpt>
      <trkpt lat="42.61029" lon="1.89414">
        <ele>2399.8000488281</ele>
        <time>2023-07-19T11:33:38.000Z</time>
      </trkpt>
      <trkpt lat="42.6103" lon="1.89411">
        <ele>2399.8000488281</ele>
        <time>2023-07-19T11:33:46.000Z</time>
      </trkpt>
      <trkpt lat="42.61028" lon="1.89411">
        <ele>2399.8000488281</ele>
        <time>2023-07-19T11:33:52.000Z</time>
      </trkpt>
      <trkpt lat="42.61027" lon="1.89412">
        <ele>2399.6000976562</ele>
        <time>2023-07-19T11:34:01.000Z</time>
      </trkpt>
      <trkpt lat="42.61027" lon="1.89412">
        <ele>2399.6000976562</ele>
        <time>2023-07-19T11:34:08.000Z</time>
      </trkpt>
      <trkpt lat="42.6103" lon="1.8941">
        <ele>2399.1999511719</ele>
        <time>2023-07-19T11:34:18.000Z</time>
      </trkpt>
      <trkpt lat="42.61027" lon="1.89408">
        <ele>2399.3999023438</ele>
        <time>2023-07-19T11:34:25.000Z</time>
      </trkpt>
      <trkpt lat="42.61027" lon="1.89408">
        <ele>2399.3999023438</ele>
        <time>2023-07-19T11:34:32.000Z</time>
      </trkpt>
      <trkpt lat="42.61026" lon="1.89407">
        <ele>2399.1999511719</ele>
        <time>2023-07-19T11:34:35.000Z</time>
      </trkpt>
      <trkpt lat="42.61026" lon="1.89406">
        <ele>2398.8000488281</ele>
        <time>2023-07-19T11:34:39.000Z</time>
      </trkpt>
      <trkpt lat="42.61027" lon="1.894">
        <ele>2399</ele>
        <time>2023-07-19T11:34:45.000Z</time>
      </trkpt>
      <trkpt lat="42.61029" lon="1.89404">
        <ele>2399</ele>
        <time>2023-07-19T11:34:51.000Z</time>
      </trkpt>
      <trkpt lat="42.61029" lon="1.89404">
        <ele>2399</ele>
        <time>2023-07-19T11:34:53.000Z</time>
      </trkpt>
      <trkpt lat="42.61026" lon="1.89404">
        <ele>2399.6000976562</ele>
        <time>2023-07-19T11:35:00.000Z</time>
      </trkpt>
      <trkpt lat="42.61023" lon="1.89402">
        <ele>2399.3999023438</ele>
        <time>2023-07-19T11:35:08.000Z</time>
      </trkpt>
      <trkpt lat="42.61022" lon="1.89402">
        <ele>2398.6000976562</ele>
        <time>2023-07-19T11:35:16.000Z</time>
      </trkpt>
      <trkpt lat="42.61022" lon="1.89403">
        <ele>2397.8000488281</ele>
        <time>2023-07-19T11:35:18.000Z</time>
      </trkpt>
      <trkpt lat="42.61021" lon="1.89403">
        <ele>2397.6000976562</ele>
        <time>2023-07-19T11:35:24.000Z</time>
      </trkpt>
      <trkpt lat="42.61023" lon="1.89402">
        <ele>2398</ele>
        <time>2023-07-19T11:35:33.000Z</time>
      </trkpt>
      <trkpt lat="42.61023" lon="1.89402">
        <ele>2397.3999023438</ele>
        <time>2023-07-19T11:35:40.000Z</time>
      </trkpt>
      <trkpt lat="42.61025" lon="1.89402">
        <ele>2396.6000976562</ele>
        <time>2023-07-19T11:35:44.000Z</time>
      </trkpt>
      <trkpt lat="42.61026" lon="1.89402">
        <ele>2396.6000976562</ele>
        <time>2023-07-19T11:35:48.000Z</time>
      </trkpt>
      <trkpt lat="42.61025" lon="1.89395">
        <ele>2396.3999023438</ele>
        <time>2023-07-19T11:35:59.000Z</time>
      </trkpt>
      <trkpt lat="42.61025" lon="1.89396">
        <ele>2395.6000976562</ele>
        <time>2023-07-19T11:36:02.000Z</time>
      </trkpt>
      <trkpt lat="42.61024" lon="1.89395">
        <ele>2395</ele>
        <time>2023-07-19T11:36:07.000Z</time>
      </trkpt>
      <trkpt lat="42.61019" lon="1.8939">
        <ele>2395</ele>
        <time>2023-07-19T11:36:15.000Z</time>
      </trkpt>
      <trkpt lat="42.61014" lon="1.89389">
        <ele>2395</ele>
        <time>2023-07-19T11:36:26.000Z</time>
      </trkpt>
      <trkpt lat="42.61012" lon="1.89383">
        <ele>2394.6000976562</ele>
        <time>2023-07-19T11:36:32.000Z</time>
      </trkpt>
      <trkpt lat="42.61012" lon="1.89383">
        <ele>2394.6000976562</ele>
        <time>2023-07-19T11:36:33.000Z</time>
      </trkpt>
      <trkpt lat="42.61011" lon="1.89385">
        <ele>2393.8000488281</ele>
        <time>2023-07-19T11:36:40.000Z</time>
      </trkpt>
      <trkpt lat="42.61011" lon="1.89386">
        <ele>2393.3999023438</ele>
        <time>2023-07-19T11:36:43.000Z</time>
      </trkpt>
      <trkpt lat="42.61011" lon="1.89385">
        <ele>2393.1999511719</ele>
        <time>2023-07-19T11:36:45.000Z</time>
      </trkpt>
      <trkpt lat="42.61013" lon="1.89382">
        <ele>2392.3999023438</ele>
        <time>2023-07-19T11:36:51.000Z</time>
      </trkpt>
      <trkpt lat="42.6101" lon="1.89379">
        <ele>2391.3999023438</ele>
        <time>2023-07-19T11:36:58.000Z</time>
      </trkpt>
      <trkpt lat="42.61005" lon="1.89375">
        <ele>2391.3999023438</ele>
        <time>2023-07-19T11:37:06.000Z</time>
      </trkpt>
      <trkpt lat="42.61002" lon="1.89373">
        <ele>2391</ele>
        <time>2023-07-19T11:37:13.000Z</time>
      </trkpt>
      <trkpt lat="42.61003" lon="1.89368">
        <ele>2390.1999511719</ele>
        <time>2023-07-19T11:37:19.000Z</time>
      </trkpt>
      <trkpt lat="42.61003" lon="1.89366">
        <ele>2390.1999511719</ele>
        <time>2023-07-19T11:37:20.000Z</time>
      </trkpt>
      <trkpt lat="42.61004" lon="1.89364">
        <ele>2389.1999511719</ele>
        <time>2023-07-19T11:37:25.000Z</time>
      </trkpt>
      <trkpt lat="42.61004" lon="1.89363">
        <ele>2388.6000976562</ele>
        <time>2023-07-19T11:37:28.000Z</time>
      </trkpt>
      <trkpt lat="42.61006" lon="1.89364">
        <ele>2387.6000976562</ele>
        <time>2023-07-19T11:37:32.000Z</time>
      </trkpt>
      <trkpt lat="42.61008" lon="1.89362">
        <ele>2387.1999511719</ele>
        <time>2023-07-19T11:37:34.000Z</time>
      </trkpt>
      <trkpt lat="42.61012" lon="1.8936">
        <ele>2386.3999023438</ele>
        <time>2023-07-19T11:37:38.000Z</time>
      </trkpt>
      <trkpt lat="42.61012" lon="1.89358">
        <ele>2385.6000976562</ele>
        <time>2023-07-19T11:37:42.000Z</time>
      </trkpt>
      <trkpt lat="42.61012" lon="1.89357">
        <ele>2385.3999023438</ele>
        <time>2023-07-19T11:37:43.000Z</time>
      </trkpt>
      <trkpt lat="42.61014" lon="1.89352">
        <ele>2384.1999511719</ele>
        <time>2023-07-19T11:37:48.000Z</time>
      </trkpt>
      <trkpt lat="42.61017" lon="1.89348">
        <ele>2383</ele>
        <time>2023-07-19T11:37:51.000Z</time>
      </trkpt>
      <trkpt lat="42.61018" lon="1.89344">
        <ele>2382.3999023438</ele>
        <time>2023-07-19T11:37:56.000Z</time>
      </trkpt>
      <trkpt lat="42.61017" lon="1.89343">
        <ele>2382</ele>
        <time>2023-07-19T11:38:02.000Z</time>
      </trkpt>
      <trkpt lat="42.61018" lon="1.8934">
        <ele>2381.8000488281</ele>
        <time>2023-07-19T11:38:05.000Z</time>
      </trkpt>
      <trkpt lat="42.61018" lon="1.89337">
        <ele>2381</ele>
        <time>2023-07-19T11:38:09.000Z</time>
      </trkpt>
      <trkpt lat="42.61018" lon="1.89333">
        <ele>2380.6000976562</ele>
        <time>2023-07-19T11:38:13.000Z</time>
      </trkpt>
      <trkpt lat="42.61018" lon="1.8933">
        <ele>2379.8000488281</ele>
        <time>2023-07-19T11:38:16.000Z</time>
      </trkpt>
      <trkpt lat="42.61017" lon="1.89327">
        <ele>2379</ele>
        <time>2023-07-19T11:38:21.000Z</time>
      </trkpt>
      <trkpt lat="42.61017" lon="1.89325">
        <ele>2378.8000488281</ele>
        <time>2023-07-19T11:38:23.000Z</time>
      </trkpt>
      <trkpt lat="42.61019" lon="1.89318">
        <ele>2377.6000976562</ele>
        <time>2023-07-19T11:38:29.000Z</time>
      </trkpt>
      <trkpt lat="42.61019" lon="1.89318">
        <ele>2377.6000976562</ele>
        <time>2023-07-19T11:38:30.000Z</time>
      </trkpt>
      <trkpt lat="42.61021" lon="1.89317">
        <ele>2376.8000488281</ele>
        <time>2023-07-19T11:38:35.000Z</time>
      </trkpt>
      <trkpt lat="42.61022" lon="1.89317">
        <ele>2376.6000976562</ele>
        <time>2023-07-19T11:38:36.000Z</time>
      </trkpt>
      <trkpt lat="42.61023" lon="1.89316">
        <ele>2376.3999023438</ele>
        <time>2023-07-19T11:38:37.000Z</time>
      </trkpt>
      <trkpt lat="42.61025" lon="1.89311">
        <ele>2375.1999511719</ele>
        <time>2023-07-19T11:38:41.000Z</time>
      </trkpt>
      <trkpt lat="42.61025" lon="1.89309">
        <ele>2375</ele>
        <time>2023-07-19T11:38:43.000Z</time>
      </trkpt>
      <trkpt lat="42.61025" lon="1.89303">
        <ele>2374.3999023438</ele>
        <time>2023-07-19T11:38:50.000Z</time>
      </trkpt>
      <trkpt lat="42.61026" lon="1.89302">
        <ele>2374.1999511719</ele>
        <time>2023-07-19T11:38:52.000Z</time>
      </trkpt>
      <trkpt lat="42.61028" lon="1.89301">
        <ele>2373</ele>
        <time>2023-07-19T11:38:57.000Z</time>
      </trkpt>
      <trkpt lat="42.61028" lon="1.89298">
        <ele>2372.8000488281</ele>
        <time>2023-07-19T11:39:00.000Z</time>
      </trkpt>
      <trkpt lat="42.61028" lon="1.89295">
        <ele>2371.8000488281</ele>
        <time>2023-07-19T11:39:05.000Z</time>
      </trkpt>
      <trkpt lat="42.61028" lon="1.89293">
        <ele>2371</ele>
        <time>2023-07-19T11:39:08.000Z</time>
      </trkpt>
      <trkpt lat="42.61029" lon="1.89292">
        <ele>2370.6000976562</ele>
        <time>2023-07-19T11:39:10.000Z</time>
      </trkpt>
      <trkpt lat="42.61032" lon="1.89293">
        <ele>2369.6000976562</ele>
        <time>2023-07-19T11:39:15.000Z</time>
      </trkpt>
      <trkpt lat="42.61034" lon="1.89292">
        <ele>2369.3999023438</ele>
        <time>2023-07-19T11:39:17.000Z</time>
      </trkpt>
      <trkpt lat="42.61034" lon="1.89288">
        <ele>2368.1999511719</ele>
        <time>2023-07-19T11:39:23.000Z</time>
      </trkpt>
      <trkpt lat="42.61032" lon="1.89285">
        <ele>2368.1999511719</ele>
        <time>2023-07-19T11:39:28.000Z</time>
      </trkpt>
      <trkpt lat="42.6103" lon="1.8928">
        <ele>2367.1999511719</ele>
        <time>2023-07-19T11:39:35.000Z</time>
      </trkpt>
      <trkpt lat="42.61031" lon="1.8928">
        <ele>2367.1999511719</ele>
        <time>2023-07-19T11:39:36.000Z</time>
      </trkpt>
      <trkpt lat="42.61032" lon="1.89281">
        <ele>2366.8000488281</ele>
        <time>2023-07-19T11:39:42.000Z</time>
      </trkpt>
      <trkpt lat="42.6103" lon="1.89283">
        <ele>2367.3999023438</ele>
        <time>2023-07-19T11:39:50.000Z</time>
      </trkpt>
      <trkpt lat="42.61026" lon="1.89276">
        <ele>2366.1999511719</ele>
        <time>2023-07-19T11:39:56.000Z</time>
      </trkpt>
      <trkpt lat="42.61025" lon="1.89276">
        <ele>2366.1999511719</ele>
        <time>2023-07-19T11:39:58.000Z</time>
      </trkpt>
      <trkpt lat="42.61024" lon="1.89275">
        <ele>2366</ele>
        <time>2023-07-19T11:40:01.000Z</time>
      </trkpt>
      <trkpt lat="42.61022" lon="1.89273">
        <ele>2366</ele>
        <time>2023-07-19T11:40:07.000Z</time>
      </trkpt>
      <trkpt lat="42.61019" lon="1.89268">
        <ele>2365.6000976562</ele>
        <time>2023-07-19T11:40:15.000Z</time>
      </trkpt>
      <trkpt lat="42.61013" lon="1.89262">
        <ele>2366.1999511719</ele>
        <time>2023-07-19T11:40:24.000Z</time>
      </trkpt>
      <trkpt lat="42.61006" lon="1.89251">
        <ele>2366</ele>
        <time>2023-07-19T11:40:33.000Z</time>
      </trkpt>
      <trkpt lat="42.61" lon="1.89243">
        <ele>2365.1999511719</ele>
        <time>2023-07-19T11:40:40.000Z</time>
      </trkpt>
      <trkpt lat="42.60997" lon="1.89236">
        <ele>2365</ele>
        <time>2023-07-19T11:40:47.000Z</time>
      </trkpt>
      <trkpt lat="42.60996" lon="1.89234">
        <ele>2365</ele>
        <time>2023-07-19T11:40:49.000Z</time>
      </trkpt>
      <trkpt lat="42.60996" lon="1.89228">
        <ele>2364</ele>
        <time>2023-07-19T11:40:56.000Z</time>
      </trkpt>
      <trkpt lat="42.60996" lon="1.89228">
        <ele>2363.6000976562</ele>
        <time>2023-07-19T11:40:58.000Z</time>
      </trkpt>
      <trkpt lat="42.60996" lon="1.89226">
        <ele>2363.1999511719</ele>
        <time>2023-07-19T11:41:03.000Z</time>
      </trkpt>
      <trkpt lat="42.60994" lon="1.89219">
        <ele>2363</ele>
        <time>2023-07-19T11:41:08.000Z</time>
      </trkpt>
      <trkpt lat="42.60994" lon="1.89218">
        <ele>2362.8000488281</ele>
        <time>2023-07-19T11:41:09.000Z</time>
      </trkpt>
      <trkpt lat="42.60993" lon="1.8921">
        <ele>2362.1999511719</ele>
        <time>2023-07-19T11:41:17.000Z</time>
      </trkpt>
      <trkpt lat="42.60991" lon="1.89211">
        <ele>2362.6000976562</ele>
        <time>2023-07-19T11:41:26.000Z</time>
      </trkpt>
      <trkpt lat="42.6099" lon="1.89209">
        <ele>2362.3999023438</ele>
        <time>2023-07-19T11:41:33.000Z</time>
      </trkpt>
      <trkpt lat="42.6099" lon="1.89208">
        <ele>2362.1999511719</ele>
        <time>2023-07-19T11:41:40.000Z</time>
      </trkpt>
      <trkpt lat="42.60995" lon="1.89207">
        <ele>2362</ele>
        <time>2023-07-19T11:41:45.000Z</time>
      </trkpt>
      <trkpt lat="42.60995" lon="1.89207">
        <ele>2361.8000488281</ele>
        <time>2023-07-19T11:41:46.000Z</time>
      </trkpt>
      <trkpt lat="42.60993" lon="1.89206">
        <ele>2360.6000976562</ele>
        <time>2023-07-19T11:41:52.000Z</time>
      </trkpt>
      <trkpt lat="42.60992" lon="1.89205">
        <ele>2360.8000488281</ele>
        <time>2023-07-19T11:42:01.000Z</time>
      </trkpt>
      <trkpt lat="42.60991" lon="1.89201">
        <ele>2361</ele>
        <time>2023-07-19T11:42:11.000Z</time>
      </trkpt>
      <trkpt lat="42.60991" lon="1.892">
        <ele>2360.3999023438</ele>
        <time>2023-07-19T11:42:18.000Z</time>
      </trkpt>
      <trkpt lat="42.6099" lon="1.89198">
        <ele>2360.1999511719</ele>
        <time>2023-07-19T11:42:25.000Z</time>
      </trkpt>
      <trkpt lat="42.6099" lon="1.89195">
        <ele>2359.6000976562</ele>
        <time>2023-07-19T11:42:30.000Z</time>
      </trkpt>
      <trkpt lat="42.60991" lon="1.89194">
        <ele>2359.3999023438</ele>
        <time>2023-07-19T11:42:31.000Z</time>
      </trkpt>
      <trkpt lat="42.60992" lon="1.89189">
        <ele>2358.8000488281</ele>
        <time>2023-07-19T11:42:39.000Z</time>
      </trkpt>
      <trkpt lat="42.60991" lon="1.89185">
        <ele>2358.3999023438</ele>
        <time>2023-07-19T11:42:44.000Z</time>
      </trkpt>
      <trkpt lat="42.60992" lon="1.89185">
        <ele>2358.3999023438</ele>
        <time>2023-07-19T11:42:45.000Z</time>
      </trkpt>
      <trkpt lat="42.60991" lon="1.89173">
        <ele>2358.6000976562</ele>
        <time>2023-07-19T11:42:52.000Z</time>
      </trkpt>
      <trkpt lat="42.60989" lon="1.89168">
        <ele>2359.1999511719</ele>
        <time>2023-07-19T11:42:57.000Z</time>
      </trkpt>
      <trkpt lat="42.60989" lon="1.89167">
        <ele>2359.3999023438</ele>
        <time>2023-07-19T11:42:58.000Z</time>
      </trkpt>
      <trkpt lat="42.60987" lon="1.89164">
        <ele>2359.6000976562</ele>
        <time>2023-07-19T11:43:04.000Z</time>
      </trkpt>
      <trkpt lat="42.60986" lon="1.89159">
        <ele>2360.6000976562</ele>
        <time>2023-07-19T11:43:12.000Z</time>
      </trkpt>
      <trkpt lat="42.60984" lon="1.89156">
        <ele>2360.8000488281</ele>
        <time>2023-07-19T11:43:20.000Z</time>
      </trkpt>
      <trkpt lat="42.6098" lon="1.8915">
        <ele>2361.3999023438</ele>
        <time>2023-07-19T11:43:27.000Z</time>
      </trkpt>
      <trkpt lat="42.60976" lon="1.89143">
        <ele>2361.6000976562</ele>
        <time>2023-07-19T11:43:33.000Z</time>
      </trkpt>
      <trkpt lat="42.60976" lon="1.8914">
        <ele>2361.8000488281</ele>
        <time>2023-07-19T11:43:37.000Z</time>
      </trkpt>
      <trkpt lat="42.60973" lon="1.89135">
        <ele>2361.3999023438</ele>
        <time>2023-07-19T11:43:45.000Z</time>
      </trkpt>
      <trkpt lat="42.60971" lon="1.89128">
        <ele>2360.3999023438</ele>
        <time>2023-07-19T11:43:51.000Z</time>
      </trkpt>
      <trkpt lat="42.6097" lon="1.89127">
        <ele>2360</ele>
        <time>2023-07-19T11:43:52.000Z</time>
      </trkpt>
      <trkpt lat="42.60968" lon="1.89124">
        <ele>2359.3999023438</ele>
        <time>2023-07-19T11:43:57.000Z</time>
      </trkpt>
      <trkpt lat="42.60967" lon="1.89122">
        <ele>2358.6000976562</ele>
        <time>2023-07-19T11:44:04.000Z</time>
      </trkpt>
      <trkpt lat="42.60966" lon="1.89119">
        <ele>2358.3999023438</ele>
        <time>2023-07-19T11:44:09.000Z</time>
      </trkpt>
      <trkpt lat="42.60963" lon="1.89113">
        <ele>2358</ele>
        <time>2023-07-19T11:44:15.000Z</time>
      </trkpt>
      <trkpt lat="42.60963" lon="1.89112">
        <ele>2357.3999023438</ele>
        <time>2023-07-19T11:44:17.000Z</time>
      </trkpt>
      <trkpt lat="42.60962" lon="1.8911">
        <ele>2357.1999511719</ele>
        <time>2023-07-19T11:44:21.000Z</time>
      </trkpt>
      <trkpt lat="42.6096" lon="1.89108">
        <ele>2356.6000976562</ele>
        <time>2023-07-19T11:44:25.000Z</time>
      </trkpt>
      <trkpt lat="42.60959" lon="1.89106">
        <ele>2356.3999023438</ele>
        <time>2023-07-19T11:44:27.000Z</time>
      </trkpt>
      <trkpt lat="42.60958" lon="1.89104">
        <ele>2356.3999023438</ele>
        <time>2023-07-19T11:44:30.000Z</time>
      </trkpt>
      <trkpt lat="42.60956" lon="1.89102">
        <ele>2356.3999023438</ele>
        <time>2023-07-19T11:44:35.000Z</time>
      </trkpt>
      <trkpt lat="42.60956" lon="1.89101">
        <ele>2356.8000488281</ele>
        <time>2023-07-19T11:44:41.000Z</time>
      </trkpt>
      <trkpt lat="42.60955" lon="1.89099">
        <ele>2356.3999023438</ele>
        <time>2023-07-19T11:44:48.000Z</time>
      </trkpt>
      <trkpt lat="42.60954" lon="1.89097">
        <ele>2357</ele>
        <time>2023-07-19T11:44:53.000Z</time>
      </trkpt>
      <trkpt lat="42.60951" lon="1.89089">
        <ele>2356.8000488281</ele>
        <time>2023-07-19T11:44:59.000Z</time>
      </trkpt>
      <trkpt lat="42.60948" lon="1.89082">
        <ele>2356.3999023438</ele>
        <time>2023-07-19T11:45:06.000Z</time>
      </trkpt>
      <trkpt lat="42.60947" lon="1.8908">
        <ele>2356</ele>
        <time>2023-07-19T11:45:10.000Z</time>
      </trkpt>
      <trkpt lat="42.60945" lon="1.89078">
        <ele>2355.8000488281</ele>
        <time>2023-07-19T11:45:15.000Z</time>
      </trkpt>
      <trkpt lat="42.60941" lon="1.89075">
        <ele>2355.3999023438</ele>
        <time>2023-07-19T11:45:23.000Z</time>
      </trkpt>
      <trkpt lat="42.60941" lon="1.89075">
        <ele>2355.1999511719</ele>
        <time>2023-07-19T11:45:24.000Z</time>
      </trkpt>
      <trkpt lat="42.6094" lon="1.89071">
        <ele>2355</ele>
        <time>2023-07-19T11:45:29.000Z</time>
      </trkpt>
      <trkpt lat="42.6094" lon="1.89069">
        <ele>2355.6000976562</ele>
        <time>2023-07-19T11:45:34.000Z</time>
      </trkpt>
      <trkpt lat="42.6094" lon="1.89066">
        <ele>2355.6000976562</ele>
        <time>2023-07-19T11:45:39.000Z</time>
      </trkpt>
      <trkpt lat="42.60938" lon="1.89062">
        <ele>2355.8000488281</ele>
        <time>2023-07-19T11:45:44.000Z</time>
      </trkpt>
      <trkpt lat="42.60936" lon="1.89058">
        <ele>2356</ele>
        <time>2023-07-19T11:45:52.000Z</time>
      </trkpt>
      <trkpt lat="42.60937" lon="1.89058">
        <ele>2355.8000488281</ele>
        <time>2023-07-19T11:45:58.000Z</time>
      </trkpt>
      <trkpt lat="42.60937" lon="1.89058">
        <ele>2355.8000488281</ele>
        <time>2023-07-19T11:46:06.000Z</time>
      </trkpt>
      <trkpt lat="42.60935" lon="1.89053">
        <ele>2356.1999511719</ele>
        <time>2023-07-19T11:46:12.000Z</time>
      </trkpt>
      <trkpt lat="42.60934" lon="1.89052">
        <ele>2356.6000976562</ele>
        <time>2023-07-19T11:46:13.000Z</time>
      </trkpt>
      <trkpt lat="42.60934" lon="1.89048">
        <ele>2357.1999511719</ele>
        <time>2023-07-19T11:46:17.000Z</time>
      </trkpt>
      <trkpt lat="42.60934" lon="1.89046">
        <ele>2357.3999023438</ele>
        <time>2023-07-19T11:46:19.000Z</time>
      </trkpt>
      <trkpt lat="42.60934" lon="1.89037">
        <ele>2357.8000488281</ele>
        <time>2023-07-19T11:46:25.000Z</time>
      </trkpt>
      <trkpt lat="42.60934" lon="1.89024">
        <ele>2358.1999511719</ele>
        <time>2023-07-19T11:46:33.000Z</time>
      </trkpt>
      <trkpt lat="42.60936" lon="1.8902">
        <ele>2358.3999023438</ele>
        <time>2023-07-19T11:46:35.000Z</time>
      </trkpt>
      <trkpt lat="42.60938" lon="1.89013">
        <ele>2358</ele>
        <time>2023-07-19T11:46:41.000Z</time>
      </trkpt>
      <trkpt lat="42.60938" lon="1.8901">
        <ele>2357.1999511719</ele>
        <time>2023-07-19T11:46:44.000Z</time>
      </trkpt>
      <trkpt lat="42.60939" lon="1.89005">
        <ele>2355.8000488281</ele>
        <time>2023-07-19T11:46:49.000Z</time>
      </trkpt>
      <trkpt lat="42.60939" lon="1.89004">
        <ele>2355.1999511719</ele>
        <time>2023-07-19T11:46:50.000Z</time>
      </trkpt>
      <trkpt lat="42.60939" lon="1.89002">
        <ele>2354.6000976562</ele>
        <time>2023-07-19T11:46:52.000Z</time>
      </trkpt>
      <trkpt lat="42.60939" lon="1.88993">
        <ele>2354.6000976562</ele>
        <time>2023-07-19T11:46:58.000Z</time>
      </trkpt>
      <trkpt lat="42.60937" lon="1.88981">
        <ele>2355</ele>
        <time>2023-07-19T11:47:06.000Z</time>
      </trkpt>
      <trkpt lat="42.60935" lon="1.88971">
        <ele>2354.3999023438</ele>
        <time>2023-07-19T11:47:13.000Z</time>
      </trkpt>
      <trkpt lat="42.60932" lon="1.88966">
        <ele>2353.8000488281</ele>
        <time>2023-07-19T11:47:21.000Z</time>
      </trkpt>
      <trkpt lat="42.60932" lon="1.88965">
        <ele>2353.6000976562</ele>
        <time>2023-07-19T11:47:22.000Z</time>
      </trkpt>
      <trkpt lat="42.60928" lon="1.88957">
        <ele>2353</ele>
        <time>2023-07-19T11:47:29.000Z</time>
      </trkpt>
      <trkpt lat="42.60926" lon="1.88953">
        <ele>2352.6000976562</ele>
        <time>2023-07-19T11:47:33.000Z</time>
      </trkpt>
      <trkpt lat="42.60924" lon="1.88949">
        <ele>2351.8000488281</ele>
        <time>2023-07-19T11:47:37.000Z</time>
      </trkpt>
      <trkpt lat="42.60917" lon="1.88938">
        <ele>2351.6000976562</ele>
        <time>2023-07-19T11:47:44.000Z</time>
      </trkpt>
      <trkpt lat="42.60912" lon="1.88929">
        <ele>2350.6000976562</ele>
        <time>2023-07-19T11:47:51.000Z</time>
      </trkpt>
      <trkpt lat="42.60912" lon="1.88928">
        <ele>2350.3999023438</ele>
        <time>2023-07-19T11:47:52.000Z</time>
      </trkpt>
      <trkpt lat="42.60909" lon="1.88922">
        <ele>2349.3999023438</ele>
        <time>2023-07-19T11:47:58.000Z</time>
      </trkpt>
      <trkpt lat="42.60908" lon="1.88917">
        <ele>2348.1999511719</ele>
        <time>2023-07-19T11:48:03.000Z</time>
      </trkpt>
      <trkpt lat="42.60906" lon="1.88913">
        <ele>2348</ele>
        <time>2023-07-19T11:48:06.000Z</time>
      </trkpt>
      <trkpt lat="42.60902" lon="1.88913">
        <ele>2347</ele>
        <time>2023-07-19T11:48:13.000Z</time>
      </trkpt>
      <trkpt lat="42.60901" lon="1.88914">
        <ele>2346.6000976562</ele>
        <time>2023-07-19T11:48:16.000Z</time>
      </trkpt>
      <trkpt lat="42.60901" lon="1.88915">
        <ele>2346.6000976562</ele>
        <time>2023-07-19T11:48:17.000Z</time>
      </trkpt>
      <trkpt lat="42.60901" lon="1.88913">
        <ele>2346</ele>
        <time>2023-07-19T11:48:20.000Z</time>
      </trkpt>
      <trkpt lat="42.609" lon="1.88911">
        <ele>2346</ele>
        <time>2023-07-19T11:48:21.000Z</time>
      </trkpt>
      <trkpt lat="42.60899" lon="1.88907">
        <ele>2345.6000976562</ele>
        <time>2023-07-19T11:48:24.000Z</time>
      </trkpt>
      <trkpt lat="42.60899" lon="1.88901">
        <ele>2344.6000976562</ele>
        <time>2023-07-19T11:48:28.000Z</time>
      </trkpt>
      <trkpt lat="42.60899" lon="1.88899">
        <ele>2344</ele>
        <time>2023-07-19T11:48:30.000Z</time>
      </trkpt>
      <trkpt lat="42.60896" lon="1.8889">
        <ele>2343.3999023438</ele>
        <time>2023-07-19T11:48:37.000Z</time>
      </trkpt>
      <trkpt lat="42.60892" lon="1.88887">
        <ele>2342.3999023438</ele>
        <time>2023-07-19T11:48:43.000Z</time>
      </trkpt>
      <trkpt lat="42.60891" lon="1.88887">
        <ele>2342.1999511719</ele>
        <time>2023-07-19T11:48:45.000Z</time>
      </trkpt>
      <trkpt lat="42.60888" lon="1.88883">
        <ele>2341.1999511719</ele>
        <time>2023-07-19T11:48:51.000Z</time>
      </trkpt>
      <trkpt lat="42.60889" lon="1.88882">
        <ele>2340.6000976562</ele>
        <time>2023-07-19T11:48:52.000Z</time>
      </trkpt>
      <trkpt lat="42.60888" lon="1.88881">
        <ele>2340.1999511719</ele>
        <time>2023-07-19T11:48:59.000Z</time>
      </trkpt>
      <trkpt lat="42.60888" lon="1.88881">
        <ele>2340.1999511719</ele>
        <time>2023-07-19T11:49:00.000Z</time>
      </trkpt>
      <trkpt lat="42.60886" lon="1.88877">
        <ele>2339.1999511719</ele>
        <time>2023-07-19T11:49:05.000Z</time>
      </trkpt>
      <trkpt lat="42.60887" lon="1.8887">
        <ele>2338.1999511719</ele>
        <time>2023-07-19T11:49:10.000Z</time>
      </trkpt>
      <trkpt lat="42.60887" lon="1.88869">
        <ele>2338.1999511719</ele>
        <time>2023-07-19T11:49:12.000Z</time>
      </trkpt>
      <trkpt lat="42.60887" lon="1.88864">
        <ele>2337.6000976562</ele>
        <time>2023-07-19T11:49:19.000Z</time>
      </trkpt>
      <trkpt lat="42.60883" lon="1.88862">
        <ele>2337.1999511719</ele>
        <time>2023-07-19T11:49:26.000Z</time>
      </trkpt>
      <trkpt lat="42.60882" lon="1.88861">
        <ele>2337</ele>
        <time>2023-07-19T11:49:27.000Z</time>
      </trkpt>
      <trkpt lat="42.60878" lon="1.88857">
        <ele>2336</ele>
        <time>2023-07-19T11:49:34.000Z</time>
      </trkpt>
      <trkpt lat="42.60877" lon="1.88856">
        <ele>2335.8000488281</ele>
        <time>2023-07-19T11:49:35.000Z</time>
      </trkpt>
      <trkpt lat="42.60874" lon="1.88854">
        <ele>2335</ele>
        <time>2023-07-19T11:49:43.000Z</time>
      </trkpt>
      <trkpt lat="42.60874" lon="1.88854">
        <ele>2334.8000488281</ele>
        <time>2023-07-19T11:49:44.000Z</time>
      </trkpt>
      <trkpt lat="42.60873" lon="1.88851">
        <ele>2333.8000488281</ele>
        <time>2023-07-19T11:49:48.000Z</time>
      </trkpt>
      <trkpt lat="42.60873" lon="1.88846">
        <ele>2333.3999023438</ele>
        <time>2023-07-19T11:49:51.000Z</time>
      </trkpt>
      <trkpt lat="42.60871" lon="1.88838">
        <ele>2332.8000488281</ele>
        <time>2023-07-19T11:49:59.000Z</time>
      </trkpt>
      <trkpt lat="42.6087" lon="1.88835">
        <ele>2331.8000488281</ele>
        <time>2023-07-19T11:50:04.000Z</time>
      </trkpt>
      <trkpt lat="42.60869" lon="1.88831">
        <ele>2331.3999023438</ele>
        <time>2023-07-19T11:50:07.000Z</time>
      </trkpt>
      <trkpt lat="42.60866" lon="1.88826">
        <ele>2331</ele>
        <time>2023-07-19T11:50:14.000Z</time>
      </trkpt>
      <trkpt lat="42.60865" lon="1.88824">
        <ele>2330.6000976562</ele>
        <time>2023-07-19T11:50:17.000Z</time>
      </trkpt>
      <trkpt lat="42.60864" lon="1.88818">
        <ele>2329.8000488281</ele>
        <time>2023-07-19T11:50:21.000Z</time>
      </trkpt>
      <trkpt lat="42.60863" lon="1.88816">
        <ele>2329.6000976562</ele>
        <time>2023-07-19T11:50:24.000Z</time>
      </trkpt>
      <trkpt lat="42.60862" lon="1.88816">
        <ele>2328.3999023438</ele>
        <time>2023-07-19T11:50:29.000Z</time>
      </trkpt>
      <trkpt lat="42.60859" lon="1.88811">
        <ele>2327.3999023438</ele>
        <time>2023-07-19T11:50:35.000Z</time>
      </trkpt>
      <trkpt lat="42.60858" lon="1.88809">
        <ele>2327.3999023438</ele>
        <time>2023-07-19T11:50:36.000Z</time>
      </trkpt>
      <trkpt lat="42.60856" lon="1.88802">
        <ele>2327.1999511719</ele>
        <time>2023-07-19T11:50:42.000Z</time>
      </trkpt>
      <trkpt lat="42.60855" lon="1.88797">
        <ele>2326.3999023438</ele>
        <time>2023-07-19T11:50:48.000Z</time>
      </trkpt>
      <trkpt lat="42.60854" lon="1.88795">
        <ele>2325.8000488281</ele>
        <time>2023-07-19T11:50:52.000Z</time>
      </trkpt>
      <trkpt lat="42.60849" lon="1.88794">
        <ele>2325</ele>
        <time>2023-07-19T11:51:00.000Z</time>
      </trkpt>
      <trkpt lat="42.60847" lon="1.88791">
        <ele>2323.8000488281</ele>
        <time>2023-07-19T11:51:07.000Z</time>
      </trkpt>
      <trkpt lat="42.60847" lon="1.8879">
        <ele>2323.8000488281</ele>
        <time>2023-07-19T11:51:08.000Z</time>
      </trkpt>
      <trkpt lat="42.60845" lon="1.88786">
        <ele>2322.8000488281</ele>
        <time>2023-07-19T11:51:14.000Z</time>
      </trkpt>
      <trkpt lat="42.60845" lon="1.88785">
        <ele>2322.6000976562</ele>
        <time>2023-07-19T11:51:15.000Z</time>
      </trkpt>
      <trkpt lat="42.60841" lon="1.88783">
        <ele>2321.6000976562</ele>
        <time>2023-07-19T11:51:20.000Z</time>
      </trkpt>
      <trkpt lat="42.60836" lon="1.88782">
        <ele>2321</ele>
        <time>2023-07-19T11:51:24.000Z</time>
      </trkpt>
      <trkpt lat="42.6083" lon="1.8878">
        <ele>2320.6000976562</ele>
        <time>2023-07-19T11:51:32.000Z</time>
      </trkpt>
      <trkpt lat="42.6083" lon="1.88781">
        <ele>2320.3999023438</ele>
        <time>2023-07-19T11:51:33.000Z</time>
      </trkpt>
      <trkpt lat="42.60827" lon="1.88779">
        <ele>2320.1999511719</ele>
        <time>2023-07-19T11:51:38.000Z</time>
      </trkpt>
      <trkpt lat="42.60825" lon="1.88778">
        <ele>2319.3999023438</ele>
        <time>2023-07-19T11:51:45.000Z</time>
      </trkpt>
      <trkpt lat="42.60821" lon="1.8877">
        <ele>2318.6000976562</ele>
        <time>2023-07-19T11:51:52.000Z</time>
      </trkpt>
      <trkpt lat="42.60819" lon="1.88765">
        <ele>2319</ele>
        <time>2023-07-19T11:51:59.000Z</time>
      </trkpt>
      <trkpt lat="42.60817" lon="1.88761">
        <ele>2318.3999023438</ele>
        <time>2023-07-19T11:52:04.000Z</time>
      </trkpt>
      <trkpt lat="42.60817" lon="1.88757">
        <ele>2318.3999023438</ele>
        <time>2023-07-19T11:52:07.000Z</time>
      </trkpt>
      <trkpt lat="42.60819" lon="1.88752">
        <ele>2317.8000488281</ele>
        <time>2023-07-19T11:52:15.000Z</time>
      </trkpt>
      <trkpt lat="42.6082" lon="1.88749">
        <ele>2317.3999023438</ele>
        <time>2023-07-19T11:52:19.000Z</time>
      </trkpt>
      <trkpt lat="42.6082" lon="1.88747">
        <ele>2317</ele>
        <time>2023-07-19T11:52:22.000Z</time>
      </trkpt>
      <trkpt lat="42.60821" lon="1.88745">
        <ele>2316.3999023438</ele>
        <time>2023-07-19T11:52:26.000Z</time>
      </trkpt>
      <trkpt lat="42.6082" lon="1.8874">
        <ele>2315.3999023438</ele>
        <time>2023-07-19T11:52:31.000Z</time>
      </trkpt>
      <trkpt lat="42.6082" lon="1.88737">
        <ele>2314.1999511719</ele>
        <time>2023-07-19T11:52:37.000Z</time>
      </trkpt>
      <trkpt lat="42.6082" lon="1.88737">
        <ele>2314.1999511719</ele>
        <time>2023-07-19T11:52:38.000Z</time>
      </trkpt>
      <trkpt lat="42.60817" lon="1.8874">
        <ele>2314.3999023438</ele>
        <time>2023-07-19T11:52:45.000Z</time>
      </trkpt>
      <trkpt lat="42.60818" lon="1.88739">
        <ele>2314.1999511719</ele>
        <time>2023-07-19T11:52:53.000Z</time>
      </trkpt>
      <trkpt lat="42.60818" lon="1.88735">
        <ele>2314.3999023438</ele>
        <time>2023-07-19T11:52:59.000Z</time>
      </trkpt>
      <trkpt lat="42.60821" lon="1.88731">
        <ele>2313.8000488281</ele>
        <time>2023-07-19T11:53:06.000Z</time>
      </trkpt>
      <trkpt lat="42.60822" lon="1.88728">
        <ele>2313.1999511719</ele>
        <time>2023-07-19T11:53:15.000Z</time>
      </trkpt>
      <trkpt lat="42.60823" lon="1.88726">
        <ele>2312</ele>
        <time>2023-07-19T11:53:19.000Z</time>
      </trkpt>
      <trkpt lat="42.60823" lon="1.88725">
        <ele>2312</ele>
        <time>2023-07-19T11:53:21.000Z</time>
      </trkpt>
      <trkpt lat="42.60825" lon="1.88723">
        <ele>2311.3999023438</ele>
        <time>2023-07-19T11:53:28.000Z</time>
      </trkpt>
      <trkpt lat="42.60825" lon="1.8872">
        <ele>2310.8000488281</ele>
        <time>2023-07-19T11:53:30.000Z</time>
      </trkpt>
      <trkpt lat="42.60826" lon="1.88715">
        <ele>2310.1999511719</ele>
        <time>2023-07-19T11:53:36.000Z</time>
      </trkpt>
      <trkpt lat="42.60827" lon="1.88713">
        <ele>2309.6000976562</ele>
        <time>2023-07-19T11:53:38.000Z</time>
      </trkpt>
      <trkpt lat="42.60828" lon="1.88711">
        <ele>2308.8000488281</ele>
        <time>2023-07-19T11:53:42.000Z</time>
      </trkpt>
      <trkpt lat="42.60829" lon="1.88709">
        <ele>2308.3999023438</ele>
        <time>2023-07-19T11:53:44.000Z</time>
      </trkpt>
      <trkpt lat="42.60831" lon="1.88707">
        <ele>2307.6000976562</ele>
        <time>2023-07-19T11:53:49.000Z</time>
      </trkpt>
      <trkpt lat="42.60831" lon="1.88706">
        <ele>2307.3999023438</ele>
        <time>2023-07-19T11:53:50.000Z</time>
      </trkpt>
      <trkpt lat="42.60832" lon="1.887">
        <ele>2306.3999023438</ele>
        <time>2023-07-19T11:53:55.000Z</time>
      </trkpt>
      <trkpt lat="42.60832" lon="1.88699">
        <ele>2306.1999511719</ele>
        <time>2023-07-19T11:53:56.000Z</time>
      </trkpt>
      <trkpt lat="42.60833" lon="1.88693">
        <ele>2305.1999511719</ele>
        <time>2023-07-19T11:54:01.000Z</time>
      </trkpt>
      <trkpt lat="42.60833" lon="1.88691">
        <ele>2305</ele>
        <time>2023-07-19T11:54:02.000Z</time>
      </trkpt>
      <trkpt lat="42.60833" lon="1.88686">
        <ele>2304.1999511719</ele>
        <time>2023-07-19T11:54:07.000Z</time>
      </trkpt>
      <trkpt lat="42.60833" lon="1.88683">
        <ele>2303.8000488281</ele>
        <time>2023-07-19T11:54:09.000Z</time>
      </trkpt>
      <trkpt lat="42.60831" lon="1.88676">
        <ele>2303.1999511719</ele>
        <time>2023-07-19T11:54:17.000Z</time>
      </trkpt>
      <trkpt lat="42.60831" lon="1.88673">
        <ele>2302</ele>
        <time>2023-07-19T11:54:21.000Z</time>
      </trkpt>
      <trkpt lat="42.60831" lon="1.8867">
        <ele>2301.6000976562</ele>
        <time>2023-07-19T11:54:25.000Z</time>
      </trkpt>
      <trkpt lat="42.60831" lon="1.88668">
        <ele>2301</ele>
        <time>2023-07-19T11:54:27.000Z</time>
      </trkpt>
      <trkpt lat="42.6083" lon="1.88663">
        <ele>2300.3999023438</ele>
        <time>2023-07-19T11:54:33.000Z</time>
      </trkpt>
      <trkpt lat="42.60829" lon="1.88664">
        <ele>2300</ele>
        <time>2023-07-19T11:54:37.000Z</time>
      </trkpt>
      <trkpt lat="42.60828" lon="1.88664">
        <ele>2299.6000976562</ele>
        <time>2023-07-19T11:54:39.000Z</time>
      </trkpt>
      <trkpt lat="42.60828" lon="1.88664">
        <ele>2298.8000488281</ele>
        <time>2023-07-19T11:54:43.000Z</time>
      </trkpt>
      <trkpt lat="42.6083" lon="1.88662">
        <ele>2298</ele>
        <time>2023-07-19T11:54:47.000Z</time>
      </trkpt>
      <trkpt lat="42.6083" lon="1.88661">
        <ele>2297.8000488281</ele>
        <time>2023-07-19T11:54:48.000Z</time>
      </trkpt>
      <trkpt lat="42.6083" lon="1.88658">
        <ele>2296.8000488281</ele>
        <time>2023-07-19T11:54:53.000Z</time>
      </trkpt>
      <trkpt lat="42.6083" lon="1.88658">
        <ele>2296.6000976562</ele>
        <time>2023-07-19T11:54:54.000Z</time>
      </trkpt>
      <trkpt lat="42.6083" lon="1.88655">
        <ele>2295.1999511719</ele>
        <time>2023-07-19T11:55:00.000Z</time>
      </trkpt>
      <trkpt lat="42.6083" lon="1.88656">
        <ele>2294.6000976562</ele>
        <time>2023-07-19T11:55:02.000Z</time>
      </trkpt>
      <trkpt lat="42.60833" lon="1.88654">
        <ele>2294</ele>
        <time>2023-07-19T11:55:08.000Z</time>
      </trkpt>
      <trkpt lat="42.60833" lon="1.88654">
        <ele>2293.8000488281</ele>
        <time>2023-07-19T11:55:09.000Z</time>
      </trkpt>
      <trkpt lat="42.60836" lon="1.88654">
        <ele>2292.8000488281</ele>
        <time>2023-07-19T11:55:15.000Z</time>
      </trkpt>
      <trkpt lat="42.60836" lon="1.88654">
        <ele>2292.1999511719</ele>
        <time>2023-07-19T11:55:16.000Z</time>
      </trkpt>
      <trkpt lat="42.60839" lon="1.88657">
        <ele>2291.6000976562</ele>
        <time>2023-07-19T11:55:22.000Z</time>
      </trkpt>
      <trkpt lat="42.60839" lon="1.88656">
        <ele>2291.1999511719</ele>
        <time>2023-07-19T11:55:24.000Z</time>
      </trkpt>
      <trkpt lat="42.6084" lon="1.88653">
        <ele>2290.6000976562</ele>
        <time>2023-07-19T11:55:29.000Z</time>
      </trkpt>
      <trkpt lat="42.6084" lon="1.88652">
        <ele>2289.3999023438</ele>
        <time>2023-07-19T11:55:31.000Z</time>
      </trkpt>
      <trkpt lat="42.6084" lon="1.8865">
        <ele>2289.3999023438</ele>
        <time>2023-07-19T11:55:33.000Z</time>
      </trkpt>
      <trkpt lat="42.60838" lon="1.88644">
        <ele>2289</ele>
        <time>2023-07-19T11:55:43.000Z</time>
      </trkpt>
      <trkpt lat="42.60837" lon="1.88645">
        <ele>2288.3999023438</ele>
        <time>2023-07-19T11:55:46.000Z</time>
      </trkpt>
      <trkpt lat="42.60837" lon="1.88644">
        <ele>2286.8000488281</ele>
        <time>2023-07-19T11:55:51.000Z</time>
      </trkpt>
      <trkpt lat="42.60837" lon="1.88639">
        <ele>2285.6000976562</ele>
        <time>2023-07-19T11:56:00.000Z</time>
      </trkpt>
      <trkpt lat="42.60838" lon="1.88636">
        <ele>2284.3999023438</ele>
        <time>2023-07-19T11:56:07.000Z</time>
      </trkpt>
      <trkpt lat="42.60836" lon="1.88628">
        <ele>2283.3999023438</ele>
        <time>2023-07-19T11:56:16.000Z</time>
      </trkpt>
      <trkpt lat="42.60836" lon="1.88628">
        <ele>2283.1999511719</ele>
        <time>2023-07-19T11:56:17.000Z</time>
      </trkpt>
      <trkpt lat="42.60833" lon="1.88625">
        <ele>2282.1999511719</ele>
        <time>2023-07-19T11:56:21.000Z</time>
      </trkpt>
      <trkpt lat="42.60834" lon="1.88626">
        <ele>2282</ele>
        <time>2023-07-19T11:56:23.000Z</time>
      </trkpt>
      <trkpt lat="42.60835" lon="1.88624">
        <ele>2281</ele>
        <time>2023-07-19T11:56:28.000Z</time>
      </trkpt>
      <trkpt lat="42.60837" lon="1.88623">
        <ele>2280</ele>
        <time>2023-07-19T11:56:31.000Z</time>
      </trkpt>
      <trkpt lat="42.60839" lon="1.88618">
        <ele>2278.8000488281</ele>
        <time>2023-07-19T11:56:37.000Z</time>
      </trkpt>
      <trkpt lat="42.60837" lon="1.88615">
        <ele>2278.6000976562</ele>
        <time>2023-07-19T11:56:40.000Z</time>
      </trkpt>
      <trkpt lat="42.60836" lon="1.88614">
        <ele>2277.8000488281</ele>
        <time>2023-07-19T11:56:47.000Z</time>
      </trkpt>
      <trkpt lat="42.60836" lon="1.88615">
        <ele>2277.6000976562</ele>
        <time>2023-07-19T11:56:49.000Z</time>
      </trkpt>
      <trkpt lat="42.60836" lon="1.88608">
        <ele>2276.6000976562</ele>
        <time>2023-07-19T11:56:55.000Z</time>
      </trkpt>
      <trkpt lat="42.60834" lon="1.88602">
        <ele>2275.6000976562</ele>
        <time>2023-07-19T11:57:01.000Z</time>
      </trkpt>
      <trkpt lat="42.60834" lon="1.88601">
        <ele>2275.1999511719</ele>
        <time>2023-07-19T11:57:03.000Z</time>
      </trkpt>
      <trkpt lat="42.60834" lon="1.88599">
        <ele>2274.3999023438</ele>
        <time>2023-07-19T11:57:06.000Z</time>
      </trkpt>
      <trkpt lat="42.60833" lon="1.88598">
        <ele>2273.6000976562</ele>
        <time>2023-07-19T11:57:10.000Z</time>
      </trkpt>
      <trkpt lat="42.60833" lon="1.88598">
        <ele>2273.3999023438</ele>
        <time>2023-07-19T11:57:11.000Z</time>
      </trkpt>
      <trkpt lat="42.60833" lon="1.88596">
        <ele>2272.3999023438</ele>
        <time>2023-07-19T11:57:17.000Z</time>
      </trkpt>
      <trkpt lat="42.60833" lon="1.88595">
        <ele>2272</ele>
        <time>2023-07-19T11:57:18.000Z</time>
      </trkpt>
      <trkpt lat="42.60836" lon="1.88592">
        <ele>2271.1999511719</ele>
        <time>2023-07-19T11:57:24.000Z</time>
      </trkpt>
      <trkpt lat="42.60836" lon="1.88592">
        <ele>2271.1999511719</ele>
        <time>2023-07-19T11:57:25.000Z</time>
      </trkpt>
      <trkpt lat="42.60839" lon="1.8859">
        <ele>2270.1999511719</ele>
        <time>2023-07-19T11:57:30.000Z</time>
      </trkpt>
      <trkpt lat="42.6084" lon="1.88586">
        <ele>2269.1999511719</ele>
        <time>2023-07-19T11:57:36.000Z</time>
      </trkpt>
      <trkpt lat="42.60839" lon="1.88585">
        <ele>2269</ele>
        <time>2023-07-19T11:57:37.000Z</time>
      </trkpt>
      <trkpt lat="42.60839" lon="1.88585">
        <ele>2268</ele>
        <time>2023-07-19T11:57:44.000Z</time>
      </trkpt>
      <trkpt lat="42.60839" lon="1.88583">
        <ele>2267</ele>
        <time>2023-07-19T11:57:48.000Z</time>
      </trkpt>
      <trkpt lat="42.60838" lon="1.88582">
        <ele>2266.3999023438</ele>
        <time>2023-07-19T11:57:51.000Z</time>
      </trkpt>
      <trkpt lat="42.60837" lon="1.88578">
        <ele>2266</ele>
        <time>2023-07-19T11:57:56.000Z</time>
      </trkpt>
      <trkpt lat="42.60838" lon="1.88572">
        <ele>2265.3999023438</ele>
        <time>2023-07-19T11:58:00.000Z</time>
      </trkpt>
      <trkpt lat="42.60838" lon="1.88569">
        <ele>2264.8000488281</ele>
        <time>2023-07-19T11:58:03.000Z</time>
      </trkpt>
      <trkpt lat="42.60839" lon="1.88566">
        <ele>2264.1999511719</ele>
        <time>2023-07-19T11:58:09.000Z</time>
      </trkpt>
      <trkpt lat="42.6084" lon="1.88565">
        <ele>2263.8000488281</ele>
        <time>2023-07-19T11:58:11.000Z</time>
      </trkpt>
      <trkpt lat="42.60843" lon="1.88561">
        <ele>2262.6000976562</ele>
        <time>2023-07-19T11:58:17.000Z</time>
      </trkpt>
      <trkpt lat="42.60843" lon="1.8856">
        <ele>2262.6000976562</ele>
        <time>2023-07-19T11:58:18.000Z</time>
      </trkpt>
      <trkpt lat="42.60843" lon="1.88558">
        <ele>2262</ele>
        <time>2023-07-19T11:58:25.000Z</time>
      </trkpt>
      <trkpt lat="42.60843" lon="1.88558">
        <ele>2261.6000976562</ele>
        <time>2023-07-19T11:58:27.000Z</time>
      </trkpt>
      <trkpt lat="42.60844" lon="1.88555">
        <ele>2260.6000976562</ele>
        <time>2023-07-19T11:58:33.000Z</time>
      </trkpt>
      <trkpt lat="42.60844" lon="1.88555">
        <ele>2260</ele>
        <time>2023-07-19T11:58:41.000Z</time>
      </trkpt>
      <trkpt lat="42.60846" lon="1.88549">
        <ele>2258.8000488281</ele>
        <time>2023-07-19T11:58:52.000Z</time>
      </trkpt>
      <trkpt lat="42.60846" lon="1.88548">
        <ele>2258.3999023438</ele>
        <time>2023-07-19T11:58:56.000Z</time>
      </trkpt>
      <trkpt lat="42.60846" lon="1.88549">
        <ele>2258</ele>
        <time>2023-07-19T11:58:58.000Z</time>
      </trkpt>
      <trkpt lat="42.60848" lon="1.88548">
        <ele>2257.3999023438</ele>
        <time>2023-07-19T11:59:03.000Z</time>
      </trkpt>
      <trkpt lat="42.60847" lon="1.88549">
        <ele>2256.3999023438</ele>
        <time>2023-07-19T11:59:07.000Z</time>
      </trkpt>
      <trkpt lat="42.60847" lon="1.88549">
        <ele>2256.1999511719</ele>
        <time>2023-07-19T11:59:08.000Z</time>
      </trkpt>
      <trkpt lat="42.60846" lon="1.88543">
        <ele>2255</ele>
        <time>2023-07-19T11:59:14.000Z</time>
      </trkpt>
      <trkpt lat="42.60845" lon="1.88541">
        <ele>2254.6000976562</ele>
        <time>2023-07-19T11:59:16.000Z</time>
      </trkpt>
      <trkpt lat="42.60844" lon="1.88538">
        <ele>2254</ele>
        <time>2023-07-19T11:59:20.000Z</time>
      </trkpt>
      <trkpt lat="42.60846" lon="1.88532">
        <ele>2253.3999023438</ele>
        <time>2023-07-19T11:59:26.000Z</time>
      </trkpt>
      <trkpt lat="42.60846" lon="1.88531">
        <ele>2253</ele>
        <time>2023-07-19T11:59:28.000Z</time>
      </trkpt>
      <trkpt lat="42.60846" lon="1.88532">
        <ele>2251.6000976562</ele>
        <time>2023-07-19T11:59:32.000Z</time>
      </trkpt>
      <trkpt lat="42.60845" lon="1.88531">
        <ele>2250.3999023438</ele>
        <time>2023-07-19T11:59:39.000Z</time>
      </trkpt>
      <trkpt lat="42.60844" lon="1.88527">
        <ele>2249.3999023438</ele>
        <time>2023-07-19T11:59:43.000Z</time>
      </trkpt>
      <trkpt lat="42.60844" lon="1.88525">
        <ele>2248.8000488281</ele>
        <time>2023-07-19T11:59:47.000Z</time>
      </trkpt>
      <trkpt lat="42.60844" lon="1.88527">
        <ele>2248.3999023438</ele>
        <time>2023-07-19T11:59:53.000Z</time>
      </trkpt>
      <trkpt lat="42.60845" lon="1.88527">
        <ele>2248.3999023438</ele>
        <time>2023-07-19T11:59:58.000Z</time>
      </trkpt>
      <trkpt lat="42.60846" lon="1.88527">
        <ele>2248.1999511719</ele>
        <time>2023-07-19T12:00:00.000Z</time>
      </trkpt>
      <trkpt lat="42.60848" lon="1.88523">
        <ele>2247.1999511719</ele>
        <time>2023-07-19T12:00:08.000Z</time>
      </trkpt>
      <trkpt lat="42.60848" lon="1.88523">
        <ele>2246.8000488281</ele>
        <time>2023-07-19T12:00:09.000Z</time>
      </trkpt>
      <trkpt lat="42.60848" lon="1.88522">
        <ele>2246.1999511719</ele>
        <time>2023-07-19T12:00:12.000Z</time>
      </trkpt>
      <trkpt lat="42.60849" lon="1.8852">
        <ele>2245.3999023438</ele>
        <time>2023-07-19T12:00:19.000Z</time>
      </trkpt>
      <trkpt lat="42.60852" lon="1.88521">
        <ele>2245.1999511719</ele>
        <time>2023-07-19T12:00:27.000Z</time>
      </trkpt>
      <trkpt lat="42.60852" lon="1.88516">
        <ele>2244</ele>
        <time>2023-07-19T12:00:34.000Z</time>
      </trkpt>
      <trkpt lat="42.60851" lon="1.88511">
        <ele>2242.6000976562</ele>
        <time>2023-07-19T12:00:40.000Z</time>
      </trkpt>
      <trkpt lat="42.60851" lon="1.88507">
        <ele>2242</ele>
        <time>2023-07-19T12:00:43.000Z</time>
      </trkpt>
      <trkpt lat="42.60853" lon="1.88506">
        <ele>2241.6000976562</ele>
        <time>2023-07-19T12:00:46.000Z</time>
      </trkpt>
      <trkpt lat="42.60855" lon="1.88506">
        <ele>2240.3999023438</ele>
        <time>2023-07-19T12:00:50.000Z</time>
      </trkpt>
      <trkpt lat="42.60854" lon="1.88506">
        <ele>2240</ele>
        <time>2023-07-19T12:00:51.000Z</time>
      </trkpt>
      <trkpt lat="42.60857" lon="1.88505">
        <ele>2239</ele>
        <time>2023-07-19T12:00:55.000Z</time>
      </trkpt>
      <trkpt lat="42.60857" lon="1.88501">
        <ele>2238.1999511719</ele>
        <time>2023-07-19T12:00:59.000Z</time>
      </trkpt>
      <trkpt lat="42.60858" lon="1.88499">
        <ele>2237.1999511719</ele>
        <time>2023-07-19T12:01:04.000Z</time>
      </trkpt>
      <trkpt lat="42.60858" lon="1.88498">
        <ele>2237</ele>
        <time>2023-07-19T12:01:05.000Z</time>
      </trkpt>
      <trkpt lat="42.60859" lon="1.88496">
        <ele>2236</ele>
        <time>2023-07-19T12:01:10.000Z</time>
      </trkpt>
      <trkpt lat="42.6086" lon="1.88494">
        <ele>2235.6000976562</ele>
        <time>2023-07-19T12:01:12.000Z</time>
      </trkpt>
      <trkpt lat="42.60861" lon="1.8849">
        <ele>2235</ele>
        <time>2023-07-19T12:01:15.000Z</time>
      </trkpt>
      <trkpt lat="42.60862" lon="1.8849">
        <ele>2234.6000976562</ele>
        <time>2023-07-19T12:01:17.000Z</time>
      </trkpt>
      <trkpt lat="42.60863" lon="1.88488">
        <ele>2233.6000976562</ele>
        <time>2023-07-19T12:01:21.000Z</time>
      </trkpt>
      <trkpt lat="42.60865" lon="1.88486">
        <ele>2232.8000488281</ele>
        <time>2023-07-19T12:01:25.000Z</time>
      </trkpt>
      <trkpt lat="42.60866" lon="1.88488">
        <ele>2232.6000976562</ele>
        <time>2023-07-19T12:01:31.000Z</time>
      </trkpt>
      <trkpt lat="42.60867" lon="1.88489">
        <ele>2232.1999511719</ele>
        <time>2023-07-19T12:01:34.000Z</time>
      </trkpt>
      <trkpt lat="42.60866" lon="1.88493">
        <ele>2231.6000976562</ele>
        <time>2023-07-19T12:01:37.000Z</time>
      </trkpt>
      <trkpt lat="42.60867" lon="1.88494">
        <ele>2231</ele>
        <time>2023-07-19T12:01:40.000Z</time>
      </trkpt>
      <trkpt lat="42.60868" lon="1.88493">
        <ele>2230.6000976562</ele>
        <time>2023-07-19T12:01:42.000Z</time>
      </trkpt>
      <trkpt lat="42.6087" lon="1.8849">
        <ele>2229.3999023438</ele>
        <time>2023-07-19T12:01:48.000Z</time>
      </trkpt>
      <trkpt lat="42.60871" lon="1.88488">
        <ele>2229</ele>
        <time>2023-07-19T12:01:56.000Z</time>
      </trkpt>
      <trkpt lat="42.60871" lon="1.88483">
        <ele>2228.3999023438</ele>
        <time>2023-07-19T12:02:01.000Z</time>
      </trkpt>
      <trkpt lat="42.60871" lon="1.88482">
        <ele>2227.8000488281</ele>
        <time>2023-07-19T12:02:04.000Z</time>
      </trkpt>
      <trkpt lat="42.60871" lon="1.88479">
        <ele>2227</ele>
        <time>2023-07-19T12:02:08.000Z</time>
      </trkpt>
      <trkpt lat="42.6087" lon="1.88478">
        <ele>2226.1999511719</ele>
        <time>2023-07-19T12:02:12.000Z</time>
      </trkpt>
      <trkpt lat="42.60869" lon="1.88477">
        <ele>2226</ele>
        <time>2023-07-19T12:02:13.000Z</time>
      </trkpt>
      <trkpt lat="42.60869" lon="1.88474">
        <ele>2224.8000488281</ele>
        <time>2023-07-19T12:02:18.000Z</time>
      </trkpt>
      <trkpt lat="42.60869" lon="1.88471">
        <ele>2224</ele>
        <time>2023-07-19T12:02:21.000Z</time>
      </trkpt>
      <trkpt lat="42.60869" lon="1.8847">
        <ele>2223.8000488281</ele>
        <time>2023-07-19T12:02:23.000Z</time>
      </trkpt>
      <trkpt lat="42.60871" lon="1.88467">
        <ele>2222.6000976562</ele>
        <time>2023-07-19T12:02:28.000Z</time>
      </trkpt>
      <trkpt lat="42.60873" lon="1.88462">
        <ele>2221.3999023438</ele>
        <time>2023-07-19T12:02:32.000Z</time>
      </trkpt>
      <trkpt lat="42.60873" lon="1.88459">
        <ele>2221.1999511719</ele>
        <time>2023-07-19T12:02:34.000Z</time>
      </trkpt>
      <trkpt lat="42.60872" lon="1.88455">
        <ele>2220</ele>
        <time>2023-07-19T12:02:42.000Z</time>
      </trkpt>
      <trkpt lat="42.60873" lon="1.88455">
        <ele>2219</ele>
        <time>2023-07-19T12:02:46.000Z</time>
      </trkpt>
      <trkpt lat="42.60874" lon="1.88457">
        <ele>2218</ele>
        <time>2023-07-19T12:02:51.000Z</time>
      </trkpt>
      <trkpt lat="42.60876" lon="1.88457">
        <ele>2217.8000488281</ele>
        <time>2023-07-19T12:02:52.000Z</time>
      </trkpt>
      <trkpt lat="42.60881" lon="1.88458">
        <ele>2217.8000488281</ele>
        <time>2023-07-19T12:02:56.000Z</time>
      </trkpt>
      <trkpt lat="42.60887" lon="1.88458">
        <ele>2218</ele>
        <time>2023-07-19T12:03:08.000Z</time>
      </trkpt>
      <trkpt lat="42.60886" lon="1.88456">
        <ele>2218.1999511719</ele>
        <time>2023-07-19T12:03:17.000Z</time>
      </trkpt>
      <trkpt lat="42.60885" lon="1.88458">
        <ele>2218.1999511719</ele>
        <time>2023-07-19T12:03:26.000Z</time>
      </trkpt>
      <trkpt lat="42.60888" lon="1.88459">
        <ele>2218.1999511719</ele>
        <time>2023-07-19T12:03:33.000Z</time>
      </trkpt>
      <trkpt lat="42.60884" lon="1.88458">
        <ele>2218.3999023438</ele>
        <time>2023-07-19T12:03:52.000Z</time>
      </trkpt>
      <trkpt lat="42.60884" lon="1.88456">
        <ele>2218.8000488281</ele>
        <time>2023-07-19T12:04:01.000Z</time>
      </trkpt>
      <trkpt lat="42.60882" lon="1.88458">
        <ele>2219.1999511719</ele>
        <time>2023-07-19T12:04:09.000Z</time>
      </trkpt>
      <trkpt lat="42.6088" lon="1.88456">
        <ele>2219.3999023438</ele>
        <time>2023-07-19T12:04:17.000Z</time>
      </trkpt>
      <trkpt lat="42.60881" lon="1.88455">
        <ele>2219.8000488281</ele>
        <time>2023-07-19T12:04:26.000Z</time>
      </trkpt>
      <trkpt lat="42.60881" lon="1.88455">
        <ele>2219.8000488281</ele>
        <time>2023-07-19T12:04:33.000Z</time>
      </trkpt>
      <trkpt lat="42.60881" lon="1.88448">
        <ele>2219.6000976562</ele>
        <time>2023-07-19T12:04:39.000Z</time>
      </trkpt>
      <trkpt lat="42.60881" lon="1.88444">
        <ele>2219.8000488281</ele>
        <time>2023-07-19T12:04:46.000Z</time>
      </trkpt>
      <trkpt lat="42.60881" lon="1.88443">
        <ele>2220</ele>
        <time>2023-07-19T12:04:47.000Z</time>
      </trkpt>
      <trkpt lat="42.60883" lon="1.8844">
        <ele>2220.3999023438</ele>
        <time>2023-07-19T12:04:54.000Z</time>
      </trkpt>
      <trkpt lat="42.60883" lon="1.88438">
        <ele>2221</ele>
        <time>2023-07-19T12:04:59.000Z</time>
      </trkpt>
      <trkpt lat="42.60883" lon="1.88437">
        <ele>2221.1999511719</ele>
        <time>2023-07-19T12:05:01.000Z</time>
      </trkpt>
      <trkpt lat="42.60884" lon="1.88437">
        <ele>2222</ele>
        <time>2023-07-19T12:05:06.000Z</time>
      </trkpt>
      <trkpt lat="42.60884" lon="1.88436">
        <ele>2222.1999511719</ele>
        <time>2023-07-19T12:05:07.000Z</time>
      </trkpt>
      <trkpt lat="42.60885" lon="1.88436">
        <ele>2222.3999023438</ele>
        <time>2023-07-19T12:05:15.000Z</time>
      </trkpt>
      <trkpt lat="42.60885" lon="1.88431">
        <ele>2222.1999511719</ele>
        <time>2023-07-19T12:05:22.000Z</time>
      </trkpt>
      <trkpt lat="42.60886" lon="1.88425">
        <ele>2222.1999511719</ele>
        <time>2023-07-19T12:05:29.000Z</time>
      </trkpt>
      <trkpt lat="42.60882" lon="1.88422">
        <ele>2221</ele>
        <time>2023-07-19T12:05:36.000Z</time>
      </trkpt>
      <trkpt lat="42.60881" lon="1.8842">
        <ele>2220.8000488281</ele>
        <time>2023-07-19T12:05:38.000Z</time>
      </trkpt>
      <trkpt lat="42.60881" lon="1.88415">
        <ele>2219.6000976562</ele>
        <time>2023-07-19T12:05:42.000Z</time>
      </trkpt>
      <trkpt lat="42.60881" lon="1.88412">
        <ele>2218.8000488281</ele>
        <time>2023-07-19T12:05:45.000Z</time>
      </trkpt>
      <trkpt lat="42.60881" lon="1.88407">
        <ele>2218.3999023438</ele>
        <time>2023-07-19T12:05:50.000Z</time>
      </trkpt>
      <trkpt lat="42.60882" lon="1.88402">
        <ele>2218</ele>
        <time>2023-07-19T12:05:53.000Z</time>
      </trkpt>
      <trkpt lat="42.6088" lon="1.88395">
        <ele>2219</ele>
        <time>2023-07-19T12:06:01.000Z</time>
      </trkpt>
      <trkpt lat="42.60874" lon="1.88391">
        <ele>2217.3999023438</ele>
        <time>2023-07-19T12:06:09.000Z</time>
      </trkpt>
      <trkpt lat="42.60872" lon="1.88389">
        <ele>2216.3999023438</ele>
        <time>2023-07-19T12:06:15.000Z</time>
      </trkpt>
      <trkpt lat="42.60872" lon="1.88386">
        <ele>2216.3999023438</ele>
        <time>2023-07-19T12:06:19.000Z</time>
      </trkpt>
      <trkpt lat="42.60874" lon="1.88379">
        <ele>2216.3999023438</ele>
        <time>2023-07-19T12:06:25.000Z</time>
      </trkpt>
      <trkpt lat="42.60872" lon="1.8837">
        <ele>2216.1999511719</ele>
        <time>2023-07-19T12:06:34.000Z</time>
      </trkpt>
      <trkpt lat="42.60874" lon="1.88364">
        <ele>2216.1999511719</ele>
        <time>2023-07-19T12:06:42.000Z</time>
      </trkpt>
      <trkpt lat="42.6087" lon="1.88359">
        <ele>2217</ele>
        <time>2023-07-19T12:06:50.000Z</time>
      </trkpt>
      <trkpt lat="42.60868" lon="1.88359">
        <ele>2217.3999023438</ele>
        <time>2023-07-19T12:06:52.000Z</time>
      </trkpt>
      <trkpt lat="42.60863" lon="1.88358">
        <ele>2217.8000488281</ele>
        <time>2023-07-19T12:06:58.000Z</time>
      </trkpt>
      <trkpt lat="42.60861" lon="1.88353">
        <ele>2217.8000488281</ele>
        <time>2023-07-19T12:07:05.000Z</time>
      </trkpt>
      <trkpt lat="42.6086" lon="1.88349">
        <ele>2217.8000488281</ele>
        <time>2023-07-19T12:07:12.000Z</time>
      </trkpt>
      <trkpt lat="42.60857" lon="1.88346">
        <ele>2218.6000976562</ele>
        <time>2023-07-19T12:07:20.000Z</time>
      </trkpt>
      <trkpt lat="42.60855" lon="1.88348">
        <ele>2217.3999023438</ele>
        <time>2023-07-19T12:07:27.000Z</time>
      </trkpt>
      <trkpt lat="42.60852" lon="1.88347">
        <ele>2217</ele>
        <time>2023-07-19T12:07:30.000Z</time>
      </trkpt>
      <trkpt lat="42.60852" lon="1.88345">
        <ele>2216.3999023438</ele>
        <time>2023-07-19T12:07:35.000Z</time>
      </trkpt>
      <trkpt lat="42.6085" lon="1.88348">
        <ele>2215.3999023438</ele>
        <time>2023-07-19T12:07:42.000Z</time>
      </trkpt>
      <trkpt lat="42.60851" lon="1.88346">
        <ele>2215.3999023438</ele>
        <time>2023-07-19T12:07:43.000Z</time>
      </trkpt>
      <trkpt lat="42.6085" lon="1.88343">
        <ele>2215.3999023438</ele>
        <time>2023-07-19T12:07:51.000Z</time>
      </trkpt>
      <trkpt lat="42.60849" lon="1.88347">
        <ele>2214.3999023438</ele>
        <time>2023-07-19T12:08:00.000Z</time>
      </trkpt>
      <trkpt lat="42.60849" lon="1.88349">
        <ele>2214.1999511719</ele>
        <time>2023-07-19T12:08:02.000Z</time>
      </trkpt>
      <trkpt lat="42.60849" lon="1.8836">
        <ele>2214</ele>
        <time>2023-07-19T12:08:14.000Z</time>
      </trkpt>
      <trkpt lat="42.60847" lon="1.88358">
        <ele>2213.6000976562</ele>
        <time>2023-07-19T12:08:20.000Z</time>
      </trkpt>
      <trkpt lat="42.60846" lon="1.88358">
        <ele>2213.3999023438</ele>
        <time>2023-07-19T12:08:24.000Z</time>
      </trkpt>
      <trkpt lat="42.60847" lon="1.88356">
        <ele>2213</ele>
        <time>2023-07-19T12:08:26.000Z</time>
      </trkpt>
      <trkpt lat="42.60847" lon="1.88354">
        <ele>2212.8000488281</ele>
        <time>2023-07-19T12:08:31.000Z</time>
      </trkpt>
      <trkpt lat="42.60845" lon="1.88354">
        <ele>2212.3999023438</ele>
        <time>2023-07-19T12:08:33.000Z</time>
      </trkpt>
      <trkpt lat="42.60844" lon="1.88354">
        <ele>2211.6000976562</ele>
        <time>2023-07-19T12:08:38.000Z</time>
      </trkpt>
      <trkpt lat="42.60843" lon="1.88353">
        <ele>2210.8000488281</ele>
        <time>2023-07-19T12:08:40.000Z</time>
      </trkpt>
      <trkpt lat="42.60842" lon="1.88349">
        <ele>2210</ele>
        <time>2023-07-19T12:08:46.000Z</time>
      </trkpt>
      <trkpt lat="42.60841" lon="1.88349">
        <ele>2209.6000976562</ele>
        <time>2023-07-19T12:08:47.000Z</time>
      </trkpt>
      <trkpt lat="42.60839" lon="1.88345">
        <ele>2208.8000488281</ele>
        <time>2023-07-19T12:08:56.000Z</time>
      </trkpt>
      <trkpt lat="42.60838" lon="1.88342">
        <ele>2208.3999023438</ele>
        <time>2023-07-19T12:09:01.000Z</time>
      </trkpt>
      <trkpt lat="42.60837" lon="1.8834">
        <ele>2207.8000488281</ele>
        <time>2023-07-19T12:09:05.000Z</time>
      </trkpt>
      <trkpt lat="42.60837" lon="1.88328">
        <ele>2207.6000976562</ele>
        <time>2023-07-19T12:09:13.000Z</time>
      </trkpt>
      <trkpt lat="42.60836" lon="1.88323">
        <ele>2207.1999511719</ele>
        <time>2023-07-19T12:09:20.000Z</time>
      </trkpt>
      <trkpt lat="42.60835" lon="1.88322">
        <ele>2207.1999511719</ele>
        <time>2023-07-19T12:09:21.000Z</time>
      </trkpt>
      <trkpt lat="42.60832" lon="1.88317">
        <ele>2206</ele>
        <time>2023-07-19T12:09:28.000Z</time>
      </trkpt>
      <trkpt lat="42.60831" lon="1.88312">
        <ele>2205.1999511719</ele>
        <time>2023-07-19T12:09:37.000Z</time>
      </trkpt>
      <trkpt lat="42.60831" lon="1.8831">
        <ele>2205</ele>
        <time>2023-07-19T12:09:40.000Z</time>
      </trkpt>
      <trkpt lat="42.60831" lon="1.88304">
        <ele>2204.8000488281</ele>
        <time>2023-07-19T12:09:46.000Z</time>
      </trkpt>
      <trkpt lat="42.60828" lon="1.88298">
        <ele>2203.8000488281</ele>
        <time>2023-07-19T12:09:51.000Z</time>
      </trkpt>
      <trkpt lat="42.60824" lon="1.88294">
        <ele>2203</ele>
        <time>2023-07-19T12:09:56.000Z</time>
      </trkpt>
      <trkpt lat="42.60823" lon="1.88292">
        <ele>2202.6000976562</ele>
        <time>2023-07-19T12:09:57.000Z</time>
      </trkpt>
      <trkpt lat="42.60821" lon="1.88283">
        <ele>2202.1999511719</ele>
        <time>2023-07-19T12:10:02.000Z</time>
      </trkpt>
      <trkpt lat="42.6082" lon="1.88278">
        <ele>2202</ele>
        <time>2023-07-19T12:10:10.000Z</time>
      </trkpt>
      <trkpt lat="42.60824" lon="1.88277">
        <ele>2202.6000976562</ele>
        <time>2023-07-19T12:10:19.000Z</time>
      </trkpt>
      <trkpt lat="42.60824" lon="1.88279">
        <ele>2203.6000976562</ele>
        <time>2023-07-19T12:10:23.000Z</time>
      </trkpt>
      <trkpt lat="42.60821" lon="1.88278">
        <ele>2203.6000976562</ele>
        <time>2023-07-19T12:10:27.000Z</time>
      </trkpt>
      <trkpt lat="42.60817" lon="1.88271">
        <ele>2202.6000976562</ele>
        <time>2023-07-19T12:10:35.000Z</time>
      </trkpt>
      <trkpt lat="42.60815" lon="1.88269">
        <ele>2202.3999023438</ele>
        <time>2023-07-19T12:10:37.000Z</time>
      </trkpt>
      <trkpt lat="42.60814" lon="1.88266">
        <ele>2202</ele>
        <time>2023-07-19T12:10:42.000Z</time>
      </trkpt>
      <trkpt lat="42.60814" lon="1.88256">
        <ele>2202.6000976562</ele>
        <time>2023-07-19T12:10:49.000Z</time>
      </trkpt>
      <trkpt lat="42.60814" lon="1.88251">
        <ele>2202.3999023438</ele>
        <time>2023-07-19T12:10:55.000Z</time>
      </trkpt>
      <trkpt lat="42.60815" lon="1.8825">
        <ele>2202.1999511719</ele>
        <time>2023-07-19T12:10:56.000Z</time>
      </trkpt>
      <trkpt lat="42.60815" lon="1.88242">
        <ele>2201.3999023438</ele>
        <time>2023-07-19T12:11:02.000Z</time>
      </trkpt>
      <trkpt lat="42.60815" lon="1.88239">
        <ele>2201.1999511719</ele>
        <time>2023-07-19T12:11:04.000Z</time>
      </trkpt>
      <trkpt lat="42.60815" lon="1.88224">
        <ele>2200.6000976562</ele>
        <time>2023-07-19T12:11:12.000Z</time>
      </trkpt>
      <trkpt lat="42.60812" lon="1.88216">
        <ele>2200.6000976562</ele>
        <time>2023-07-19T12:11:20.000Z</time>
      </trkpt>
      <trkpt lat="42.60806" lon="1.88205">
        <ele>2201.1999511719</ele>
        <time>2023-07-19T12:11:29.000Z</time>
      </trkpt>
      <trkpt lat="42.60806" lon="1.88197">
        <ele>2201</ele>
        <time>2023-07-19T12:11:39.000Z</time>
      </trkpt>
      <trkpt lat="42.60802" lon="1.8819">
        <ele>2201</ele>
        <time>2023-07-19T12:11:47.000Z</time>
      </trkpt>
      <trkpt lat="42.60802" lon="1.88188">
        <ele>2200.1999511719</ele>
        <time>2023-07-19T12:11:49.000Z</time>
      </trkpt>
      <trkpt lat="42.608" lon="1.88184">
        <ele>2199.6000976562</ele>
        <time>2023-07-19T12:11:55.000Z</time>
      </trkpt>
      <trkpt lat="42.60801" lon="1.88182">
        <ele>2198.8000488281</ele>
        <time>2023-07-19T12:11:58.000Z</time>
      </trkpt>
      <trkpt lat="42.60802" lon="1.88179">
        <ele>2198.6000976562</ele>
        <time>2023-07-19T12:12:01.000Z</time>
      </trkpt>
      <trkpt lat="42.60803" lon="1.88169">
        <ele>2199</ele>
        <time>2023-07-19T12:12:08.000Z</time>
      </trkpt>
      <trkpt lat="42.60801" lon="1.88165">
        <ele>2199.3999023438</ele>
        <time>2023-07-19T12:12:15.000Z</time>
      </trkpt>
      <trkpt lat="42.60801" lon="1.88163">
        <ele>2199.8000488281</ele>
        <time>2023-07-19T12:12:20.000Z</time>
      </trkpt>
      <trkpt lat="42.60801" lon="1.88162">
        <ele>2200</ele>
        <time>2023-07-19T12:12:21.000Z</time>
      </trkpt>
      <trkpt lat="42.60799" lon="1.88156">
        <ele>2201</ele>
        <time>2023-07-19T12:12:27.000Z</time>
      </trkpt>
      <trkpt lat="42.60796" lon="1.88153">
        <ele>2201.8000488281</ele>
        <time>2023-07-19T12:12:31.000Z</time>
      </trkpt>
      <trkpt lat="42.60795" lon="1.88153">
        <ele>2202</ele>
        <time>2023-07-19T12:12:32.000Z</time>
      </trkpt>
      <trkpt lat="42.6079" lon="1.88154">
        <ele>2202.3999023438</ele>
        <time>2023-07-19T12:12:37.000Z</time>
      </trkpt>
      <trkpt lat="42.60786" lon="1.88152">
        <ele>2203</ele>
        <time>2023-07-19T12:12:44.000Z</time>
      </trkpt>
      <trkpt lat="42.60786" lon="1.88151">
        <ele>2203</ele>
        <time>2023-07-19T12:12:45.000Z</time>
      </trkpt>
      <trkpt lat="42.60785" lon="1.88143">
        <ele>2202.6000976562</ele>
        <time>2023-07-19T12:12:51.000Z</time>
      </trkpt>
      <trkpt lat="42.60781" lon="1.88144">
        <ele>2201.3999023438</ele>
        <time>2023-07-19T12:12:59.000Z</time>
      </trkpt>
      <trkpt lat="42.6078" lon="1.88145">
        <ele>2201</ele>
        <time>2023-07-19T12:13:01.000Z</time>
      </trkpt>
      <trkpt lat="42.60777" lon="1.88142">
        <ele>2200</ele>
        <time>2023-07-19T12:13:06.000Z</time>
      </trkpt>
      <trkpt lat="42.60776" lon="1.88141">
        <ele>2198.6000976562</ele>
        <time>2023-07-19T12:13:11.000Z</time>
      </trkpt>
      <trkpt lat="42.60774" lon="1.88138">
        <ele>2197.8000488281</ele>
        <time>2023-07-19T12:13:14.000Z</time>
      </trkpt>
      <trkpt lat="42.60772" lon="1.88136">
        <ele>2197.1999511719</ele>
        <time>2023-07-19T12:13:21.000Z</time>
      </trkpt>
      <trkpt lat="42.6077" lon="1.88133">
        <ele>2197</ele>
        <time>2023-07-19T12:13:24.000Z</time>
      </trkpt>
      <trkpt lat="42.60765" lon="1.88133">
        <ele>2196.1999511719</ele>
        <time>2023-07-19T12:13:32.000Z</time>
      </trkpt>
      <trkpt lat="42.60765" lon="1.88134">
        <ele>2196.1999511719</ele>
        <time>2023-07-19T12:13:33.000Z</time>
      </trkpt>
      <trkpt lat="42.60764" lon="1.88134">
        <ele>2195.8000488281</ele>
        <time>2023-07-19T12:13:35.000Z</time>
      </trkpt>
      <trkpt lat="42.60763" lon="1.88132">
        <ele>2195.3999023438</ele>
        <time>2023-07-19T12:13:37.000Z</time>
      </trkpt>
      <trkpt lat="42.60762" lon="1.88132">
        <ele>2195.1999511719</ele>
        <time>2023-07-19T12:13:38.000Z</time>
      </trkpt>
      <trkpt lat="42.60762" lon="1.88129">
        <ele>2195.1999511719</ele>
        <time>2023-07-19T12:13:40.000Z</time>
      </trkpt>
      <trkpt lat="42.60759" lon="1.88121">
        <ele>2194.8000488281</ele>
        <time>2023-07-19T12:13:46.000Z</time>
      </trkpt>
      <trkpt lat="42.60757" lon="1.8812">
        <ele>2194.1999511719</ele>
        <time>2023-07-19T12:13:51.000Z</time>
      </trkpt>
      <trkpt lat="42.60755" lon="1.88121">
        <ele>2193.8000488281</ele>
        <time>2023-07-19T12:13:55.000Z</time>
      </trkpt>
      <trkpt lat="42.60751" lon="1.88119">
        <ele>2193.1999511719</ele>
        <time>2023-07-19T12:14:02.000Z</time>
      </trkpt>
      <trkpt lat="42.60751" lon="1.88119">
        <ele>2193</ele>
        <time>2023-07-19T12:14:03.000Z</time>
      </trkpt>
      <trkpt lat="42.60748" lon="1.88116">
        <ele>2192</ele>
        <time>2023-07-19T12:14:08.000Z</time>
      </trkpt>
      <trkpt lat="42.60747" lon="1.88116">
        <ele>2191.8000488281</ele>
        <time>2023-07-19T12:14:09.000Z</time>
      </trkpt>
      <trkpt lat="42.60741" lon="1.88111">
        <ele>2191</ele>
        <time>2023-07-19T12:14:16.000Z</time>
      </trkpt>
      <trkpt lat="42.6074" lon="1.88111">
        <ele>2191</ele>
        <time>2023-07-19T12:14:17.000Z</time>
      </trkpt>
      <trkpt lat="42.60734" lon="1.88113">
        <ele>2190</ele>
        <time>2023-07-19T12:14:23.000Z</time>
      </trkpt>
      <trkpt lat="42.60733" lon="1.88112">
        <ele>2189.8000488281</ele>
        <time>2023-07-19T12:14:24.000Z</time>
      </trkpt>
      <trkpt lat="42.60732" lon="1.88109">
        <ele>2189.6000976562</ele>
        <time>2023-07-19T12:14:27.000Z</time>
      </trkpt>
      <trkpt lat="42.60733" lon="1.8811">
        <ele>2189.3999023438</ele>
        <time>2023-07-19T12:14:29.000Z</time>
      </trkpt>
      <trkpt lat="42.60733" lon="1.88109">
        <ele>2189.3999023438</ele>
        <time>2023-07-19T12:14:30.000Z</time>
      </trkpt>
      <trkpt lat="42.60732" lon="1.88106">
        <ele>2189.3999023438</ele>
        <time>2023-07-19T12:14:39.000Z</time>
      </trkpt>
      <trkpt lat="42.60734" lon="1.88101">
        <ele>2189</ele>
        <time>2023-07-19T12:14:46.000Z</time>
      </trkpt>
      <trkpt lat="42.60735" lon="1.881">
        <ele>2188.8000488281</ele>
        <time>2023-07-19T12:14:49.000Z</time>
      </trkpt>
      <trkpt lat="42.60734" lon="1.88099">
        <ele>2188.3999023438</ele>
        <time>2023-07-19T12:14:53.000Z</time>
      </trkpt>
      <trkpt lat="42.60732" lon="1.88095">
        <ele>2187.8000488281</ele>
        <time>2023-07-19T12:14:59.000Z</time>
      </trkpt>
      <trkpt lat="42.60731" lon="1.88095">
        <ele>2187.6000976562</ele>
        <time>2023-07-19T12:15:00.000Z</time>
      </trkpt>
      <trkpt lat="42.60728" lon="1.88092">
        <ele>2186.3999023438</ele>
        <time>2023-07-19T12:15:05.000Z</time>
      </trkpt>
      <trkpt lat="42.60726" lon="1.8809">
        <ele>2185.6000976562</ele>
        <time>2023-07-19T12:15:11.000Z</time>
      </trkpt>
      <trkpt lat="42.60725" lon="1.88089">
        <ele>2185.1999511719</ele>
        <time>2023-07-19T12:15:14.000Z</time>
      </trkpt>
      <trkpt lat="42.60723" lon="1.88085">
        <ele>2183.8000488281</ele>
        <time>2023-07-19T12:15:18.000Z</time>
      </trkpt>
      <trkpt lat="42.60723" lon="1.88084">
        <ele>2183.6000976562</ele>
        <time>2023-07-19T12:15:20.000Z</time>
      </trkpt>
      <trkpt lat="42.60724" lon="1.88083">
        <ele>2183.6000976562</ele>
        <time>2023-07-19T12:15:21.000Z</time>
      </trkpt>
      <trkpt lat="42.60724" lon="1.88079">
        <ele>2182.8000488281</ele>
        <time>2023-07-19T12:15:26.000Z</time>
      </trkpt>
      <trkpt lat="42.60719" lon="1.88072">
        <ele>2181.6000976562</ele>
        <time>2023-07-19T12:15:34.000Z</time>
      </trkpt>
      <trkpt lat="42.60715" lon="1.88068">
        <ele>2180.6000976562</ele>
        <time>2023-07-19T12:15:42.000Z</time>
      </trkpt>
      <trkpt lat="42.60714" lon="1.88067">
        <ele>2180.1999511719</ele>
        <time>2023-07-19T12:15:44.000Z</time>
      </trkpt>
      <trkpt lat="42.60713" lon="1.88066">
        <ele>2179.3999023438</ele>
        <time>2023-07-19T12:15:47.000Z</time>
      </trkpt>
      <trkpt lat="42.6071" lon="1.88065">
        <ele>2179</ele>
        <time>2023-07-19T12:15:52.000Z</time>
      </trkpt>
      <trkpt lat="42.60709" lon="1.88065">
        <ele>2178</ele>
        <time>2023-07-19T12:15:55.000Z</time>
      </trkpt>
      <trkpt lat="42.60706" lon="1.88064">
        <ele>2176.6000976562</ele>
        <time>2023-07-19T12:16:00.000Z</time>
      </trkpt>
      <trkpt lat="42.60701" lon="1.88068">
        <ele>2176</ele>
        <time>2023-07-19T12:16:10.000Z</time>
      </trkpt>
      <trkpt lat="42.60704" lon="1.88064">
        <ele>2175.8000488281</ele>
        <time>2023-07-19T12:16:16.000Z</time>
      </trkpt>
      <trkpt lat="42.60701" lon="1.88061">
        <ele>2175.6000976562</ele>
        <time>2023-07-19T12:16:19.000Z</time>
      </trkpt>
      <trkpt lat="42.60697" lon="1.88057">
        <ele>2175.3999023438</ele>
        <time>2023-07-19T12:16:23.000Z</time>
      </trkpt>
      <trkpt lat="42.6069" lon="1.88048">
        <ele>2174.8000488281</ele>
        <time>2023-07-19T12:16:31.000Z</time>
      </trkpt>
      <trkpt lat="42.6068" lon="1.88043">
        <ele>2174.8000488281</ele>
        <time>2023-07-19T12:16:38.000Z</time>
      </trkpt>
      <trkpt lat="42.6067" lon="1.88043">
        <ele>2174.6000976562</ele>
        <time>2023-07-19T12:16:46.000Z</time>
      </trkpt>
      <trkpt lat="42.60671" lon="1.88043">
        <ele>2174.6000976562</ele>
        <time>2023-07-19T12:16:48.000Z</time>
      </trkpt>
      <trkpt lat="42.60674" lon="1.88045">
        <ele>2174</ele>
        <time>2023-07-19T12:16:54.000Z</time>
      </trkpt>
      <trkpt lat="42.60675" lon="1.8804">
        <ele>2173.8000488281</ele>
        <time>2023-07-19T12:17:01.000Z</time>
      </trkpt>
      <trkpt lat="42.60675" lon="1.88033">
        <ele>2173.6000976562</ele>
        <time>2023-07-19T12:17:05.000Z</time>
      </trkpt>
      <trkpt lat="42.60673" lon="1.88027">
        <ele>2173</ele>
        <time>2023-07-19T12:17:08.000Z</time>
      </trkpt>
      <trkpt lat="42.60664" lon="1.88015">
        <ele>2173.8000488281</ele>
        <time>2023-07-19T12:17:15.000Z</time>
      </trkpt>
      <trkpt lat="42.60656" lon="1.88006">
        <ele>2173.3999023438</ele>
        <time>2023-07-19T12:17:23.000Z</time>
      </trkpt>
      <trkpt lat="42.60648" lon="1.87996">
        <ele>2173.6000976562</ele>
        <time>2023-07-19T12:17:32.000Z</time>
      </trkpt>
      <trkpt lat="42.60641" lon="1.87984">
        <ele>2173.6000976562</ele>
        <time>2023-07-19T12:17:42.000Z</time>
      </trkpt>
      <trkpt lat="42.60635" lon="1.87971">
        <ele>2174.1999511719</ele>
        <time>2023-07-19T12:17:50.000Z</time>
      </trkpt>
      <trkpt lat="42.60633" lon="1.87966">
        <ele>2174</ele>
        <time>2023-07-19T12:17:57.000Z</time>
      </trkpt>
      <trkpt lat="42.60629" lon="1.87957">
        <ele>2173.1999511719</ele>
        <time>2023-07-19T12:18:03.000Z</time>
      </trkpt>
      <trkpt lat="42.6062" lon="1.87948">
        <ele>2172.6000976562</ele>
        <time>2023-07-19T12:18:11.000Z</time>
      </trkpt>
      <trkpt lat="42.60614" lon="1.87938">
        <ele>2172.3999023438</ele>
        <time>2023-07-19T12:18:18.000Z</time>
      </trkpt>
      <trkpt lat="42.60614" lon="1.87935">
        <ele>2172</ele>
        <time>2023-07-19T12:18:20.000Z</time>
      </trkpt>
      <trkpt lat="42.60611" lon="1.8793">
        <ele>2171.1999511719</ele>
        <time>2023-07-19T12:18:24.000Z</time>
      </trkpt>
      <trkpt lat="42.60608" lon="1.87926">
        <ele>2171.1999511719</ele>
        <time>2023-07-19T12:18:27.000Z</time>
      </trkpt>
      <trkpt lat="42.60604" lon="1.8792">
        <ele>2170.1999511719</ele>
        <time>2023-07-19T12:18:34.000Z</time>
      </trkpt>
      <trkpt lat="42.60603" lon="1.87918">
        <ele>2169.8000488281</ele>
        <time>2023-07-19T12:18:35.000Z</time>
      </trkpt>
      <trkpt lat="42.60601" lon="1.87915">
        <ele>2169.1999511719</ele>
        <time>2023-07-19T12:18:38.000Z</time>
      </trkpt>
      <trkpt lat="42.60599" lon="1.87911">
        <ele>2168.3999023438</ele>
        <time>2023-07-19T12:18:42.000Z</time>
      </trkpt>
      <trkpt lat="42.60597" lon="1.8791">
        <ele>2168</ele>
        <time>2023-07-19T12:18:46.000Z</time>
      </trkpt>
      <trkpt lat="42.60596" lon="1.87908">
        <ele>2167.6000976562</ele>
        <time>2023-07-19T12:18:49.000Z</time>
      </trkpt>
      <trkpt lat="42.60595" lon="1.87909">
        <ele>2167</ele>
        <time>2023-07-19T12:18:51.000Z</time>
      </trkpt>
      <trkpt lat="42.60592" lon="1.87907">
        <ele>2166</ele>
        <time>2023-07-19T12:18:56.000Z</time>
      </trkpt>
      <trkpt lat="42.60592" lon="1.87906">
        <ele>2165.8000488281</ele>
        <time>2023-07-19T12:18:57.000Z</time>
      </trkpt>
      <trkpt lat="42.6059" lon="1.87903">
        <ele>2165</ele>
        <time>2023-07-19T12:19:02.000Z</time>
      </trkpt>
      <trkpt lat="42.60588" lon="1.879">
        <ele>2164</ele>
        <time>2023-07-19T12:19:06.000Z</time>
      </trkpt>
      <trkpt lat="42.60587" lon="1.87898">
        <ele>2164</ele>
        <time>2023-07-19T12:19:08.000Z</time>
      </trkpt>
      <trkpt lat="42.60585" lon="1.87896">
        <ele>2163</ele>
        <time>2023-07-19T12:19:14.000Z</time>
      </trkpt>
      <trkpt lat="42.60584" lon="1.87896">
        <ele>2162.8000488281</ele>
        <time>2023-07-19T12:19:16.000Z</time>
      </trkpt>
      <trkpt lat="42.60582" lon="1.87895">
        <ele>2161.8000488281</ele>
        <time>2023-07-19T12:19:22.000Z</time>
      </trkpt>
      <trkpt lat="42.60582" lon="1.87894">
        <ele>2161.3999023438</ele>
        <time>2023-07-19T12:19:23.000Z</time>
      </trkpt>
      <trkpt lat="42.60582" lon="1.8789">
        <ele>2160.8000488281</ele>
        <time>2023-07-19T12:19:27.000Z</time>
      </trkpt>
      <trkpt lat="42.6058" lon="1.87887">
        <ele>2159.6000976562</ele>
        <time>2023-07-19T12:19:32.000Z</time>
      </trkpt>
      <trkpt lat="42.60578" lon="1.87887">
        <ele>2158.6000976562</ele>
        <time>2023-07-19T12:19:38.000Z</time>
      </trkpt>
      <trkpt lat="42.60578" lon="1.87889">
        <ele>2158.3999023438</ele>
        <time>2023-07-19T12:19:40.000Z</time>
      </trkpt>
      <trkpt lat="42.60577" lon="1.8789">
        <ele>2158</ele>
        <time>2023-07-19T12:19:42.000Z</time>
      </trkpt>
      <trkpt lat="42.60576" lon="1.87891">
        <ele>2157.8000488281</ele>
        <time>2023-07-19T12:19:44.000Z</time>
      </trkpt>
      <trkpt lat="42.60576" lon="1.87891">
        <ele>2157.3999023438</ele>
        <time>2023-07-19T12:19:47.000Z</time>
      </trkpt>
      <trkpt lat="42.60575" lon="1.87891">
        <ele>2157</ele>
        <time>2023-07-19T12:19:49.000Z</time>
      </trkpt>
      <trkpt lat="42.60575" lon="1.87891">
        <ele>2156</ele>
        <time>2023-07-19T12:19:51.000Z</time>
      </trkpt>
      <trkpt lat="42.60576" lon="1.87885">
        <ele>2155.1999511719</ele>
        <time>2023-07-19T12:19:56.000Z</time>
      </trkpt>
      <trkpt lat="42.60575" lon="1.87884">
        <ele>2155</ele>
        <time>2023-07-19T12:19:57.000Z</time>
      </trkpt>
      <trkpt lat="42.6057" lon="1.8788">
        <ele>2155.1999511719</ele>
        <time>2023-07-19T12:20:04.000Z</time>
      </trkpt>
      <trkpt lat="42.60569" lon="1.87875">
        <ele>2153.8000488281</ele>
        <time>2023-07-19T12:20:07.000Z</time>
      </trkpt>
      <trkpt lat="42.60567" lon="1.87865">
        <ele>2152.8000488281</ele>
        <time>2023-07-19T12:20:11.000Z</time>
      </trkpt>
      <trkpt lat="42.60567" lon="1.87863">
        <ele>2152.8000488281</ele>
        <time>2023-07-19T12:20:12.000Z</time>
      </trkpt>
      <trkpt lat="42.60564" lon="1.87853">
        <ele>2152</ele>
        <time>2023-07-19T12:20:22.000Z</time>
      </trkpt>
      <trkpt lat="42.60563" lon="1.87846">
        <ele>2152.3999023438</ele>
        <time>2023-07-19T12:20:30.000Z</time>
      </trkpt>
      <trkpt lat="42.60561" lon="1.87837">
        <ele>2153.3999023438</ele>
        <time>2023-07-19T12:20:39.000Z</time>
      </trkpt>
      <trkpt lat="42.60558" lon="1.87835">
        <ele>2153.8000488281</ele>
        <time>2023-07-19T12:20:42.000Z</time>
      </trkpt>
      <trkpt lat="42.60556" lon="1.87833">
        <ele>2153.8000488281</ele>
        <time>2023-07-19T12:20:45.000Z</time>
      </trkpt>
      <trkpt lat="42.60553" lon="1.87828">
        <ele>2153.6000976562</ele>
        <time>2023-07-19T12:20:52.000Z</time>
      </trkpt>
      <trkpt lat="42.60551" lon="1.87827">
        <ele>2153.6000976562</ele>
        <time>2023-07-19T12:21:01.000Z</time>
      </trkpt>
      <trkpt lat="42.60544" lon="1.87824">
        <ele>2153</ele>
        <time>2023-07-19T12:21:10.000Z</time>
      </trkpt>
      <trkpt lat="42.60543" lon="1.87814">
        <ele>2153.3999023438</ele>
        <time>2023-07-19T12:21:18.000Z</time>
      </trkpt>
      <trkpt lat="42.60542" lon="1.87805">
        <ele>2152.8000488281</ele>
        <time>2023-07-19T12:21:25.000Z</time>
      </trkpt>
      <trkpt lat="42.6054" lon="1.87799">
        <ele>2152</ele>
        <time>2023-07-19T12:21:31.000Z</time>
      </trkpt>
      <trkpt lat="42.6054" lon="1.87797">
        <ele>2151.8000488281</ele>
        <time>2023-07-19T12:21:32.000Z</time>
      </trkpt>
      <trkpt lat="42.60537" lon="1.87792">
        <ele>2152.6000976562</ele>
        <time>2023-07-19T12:21:38.000Z</time>
      </trkpt>
      <trkpt lat="42.60536" lon="1.87791">
        <ele>2153</ele>
        <time>2023-07-19T12:21:39.000Z</time>
      </trkpt>
      <trkpt lat="42.6053" lon="1.87785">
        <ele>2153</ele>
        <time>2023-07-19T12:21:47.000Z</time>
      </trkpt>
      <trkpt lat="42.60521" lon="1.87776">
        <ele>2152.6000976562</ele>
        <time>2023-07-19T12:21:56.000Z</time>
      </trkpt>
      <trkpt lat="42.60516" lon="1.87767">
        <ele>2151.6000976562</ele>
        <time>2023-07-19T12:22:04.000Z</time>
      </trkpt>
      <trkpt lat="42.60515" lon="1.87757">
        <ele>2151.6000976562</ele>
        <time>2023-07-19T12:22:13.000Z</time>
      </trkpt>
      <trkpt lat="42.60515" lon="1.87752">
        <ele>2151</ele>
        <time>2023-07-19T12:22:20.000Z</time>
      </trkpt>
      <trkpt lat="42.60514" lon="1.8775">
        <ele>2150.3999023438</ele>
        <time>2023-07-19T12:22:22.000Z</time>
      </trkpt>
      <trkpt lat="42.60508" lon="1.87741">
        <ele>2149.8000488281</ele>
        <time>2023-07-19T12:22:30.000Z</time>
      </trkpt>
      <trkpt lat="42.60501" lon="1.87736">
        <ele>2150.3999023438</ele>
        <time>2023-07-19T12:22:40.000Z</time>
      </trkpt>
      <trkpt lat="42.60501" lon="1.87732">
        <ele>2149.3999023438</ele>
        <time>2023-07-19T12:22:47.000Z</time>
      </trkpt>
      <trkpt lat="42.60501" lon="1.8773">
        <ele>2149.1999511719</ele>
        <time>2023-07-19T12:22:48.000Z</time>
      </trkpt>
      <trkpt lat="42.60501" lon="1.87727">
        <ele>2148.1999511719</ele>
        <time>2023-07-19T12:22:50.000Z</time>
      </trkpt>
      <trkpt lat="42.605" lon="1.87722">
        <ele>2148.3999023438</ele>
        <time>2023-07-19T12:22:55.000Z</time>
      </trkpt>
      <trkpt lat="42.60497" lon="1.87715">
        <ele>2147.3999023438</ele>
        <time>2023-07-19T12:23:03.000Z</time>
      </trkpt>
      <trkpt lat="42.60497" lon="1.87713">
        <ele>2146.6000976562</ele>
        <time>2023-07-19T12:23:04.000Z</time>
      </trkpt>
      <trkpt lat="42.60497" lon="1.87712">
        <ele>2145.6000976562</ele>
        <time>2023-07-19T12:23:05.000Z</time>
      </trkpt>
      <trkpt lat="42.60497" lon="1.8771">
        <ele>2144.6000976562</ele>
        <time>2023-07-19T12:23:06.000Z</time>
      </trkpt>
      <trkpt lat="42.60494" lon="1.877">
        <ele>2145.3999023438</ele>
        <time>2023-07-19T12:23:13.000Z</time>
      </trkpt>
      <trkpt lat="42.60495" lon="1.87691">
        <ele>2144.6000976562</ele>
        <time>2023-07-19T12:23:21.000Z</time>
      </trkpt>
      <trkpt lat="42.60496" lon="1.87681">
        <ele>2144.8000488281</ele>
        <time>2023-07-19T12:23:29.000Z</time>
      </trkpt>
      <trkpt lat="42.60498" lon="1.87675">
        <ele>2144.1999511719</ele>
        <time>2023-07-19T12:23:36.000Z</time>
      </trkpt>
      <trkpt lat="42.60495" lon="1.87668">
        <ele>2144.1999511719</ele>
        <time>2023-07-19T12:23:44.000Z</time>
      </trkpt>
      <trkpt lat="42.60492" lon="1.87659">
        <ele>2143.8000488281</ele>
        <time>2023-07-19T12:23:50.000Z</time>
      </trkpt>
      <trkpt lat="42.60488" lon="1.8765">
        <ele>2143.1999511719</ele>
        <time>2023-07-19T12:23:57.000Z</time>
      </trkpt>
      <trkpt lat="42.60483" lon="1.87636">
        <ele>2142.1999511719</ele>
        <time>2023-07-19T12:24:05.000Z</time>
      </trkpt>
      <trkpt lat="42.60481" lon="1.87633">
        <ele>2142.1999511719</ele>
        <time>2023-07-19T12:24:07.000Z</time>
      </trkpt>
      <trkpt lat="42.60479" lon="1.87626">
        <ele>2141.8000488281</ele>
        <time>2023-07-19T12:24:13.000Z</time>
      </trkpt>
      <trkpt lat="42.60473" lon="1.87616">
        <ele>2142.1999511719</ele>
        <time>2023-07-19T12:24:21.000Z</time>
      </trkpt>
      <trkpt lat="42.60466" lon="1.87604">
        <ele>2142.8000488281</ele>
        <time>2023-07-19T12:24:29.000Z</time>
      </trkpt>
      <trkpt lat="42.60462" lon="1.876">
        <ele>2142.3999023438</ele>
        <time>2023-07-19T12:24:35.000Z</time>
      </trkpt>
      <trkpt lat="42.60454" lon="1.87595">
        <ele>2141.8000488281</ele>
        <time>2023-07-19T12:24:45.000Z</time>
      </trkpt>
      <trkpt lat="42.6045" lon="1.87592">
        <ele>2141</ele>
        <time>2023-07-19T12:24:49.000Z</time>
      </trkpt>
      <trkpt lat="42.60447" lon="1.87588">
        <ele>2140.3999023438</ele>
        <time>2023-07-19T12:24:54.000Z</time>
      </trkpt>
      <trkpt lat="42.60446" lon="1.87587">
        <ele>2140</ele>
        <time>2023-07-19T12:24:57.000Z</time>
      </trkpt>
      <trkpt lat="42.60445" lon="1.87584">
        <ele>2139</ele>
        <time>2023-07-19T12:25:01.000Z</time>
      </trkpt>
      <trkpt lat="42.60444" lon="1.87584">
        <ele>2138.8000488281</ele>
        <time>2023-07-19T12:25:02.000Z</time>
      </trkpt>
      <trkpt lat="42.60441" lon="1.87581">
        <ele>2138.3999023438</ele>
        <time>2023-07-19T12:25:09.000Z</time>
      </trkpt>
      <trkpt lat="42.60439" lon="1.87578">
        <ele>2138</ele>
        <time>2023-07-19T12:25:17.000Z</time>
      </trkpt>
      <trkpt lat="42.60437" lon="1.87577">
        <ele>2137.8000488281</ele>
        <time>2023-07-19T12:25:20.000Z</time>
      </trkpt>
      <trkpt lat="42.60434" lon="1.87573">
        <ele>2136.8000488281</ele>
        <time>2023-07-19T12:25:25.000Z</time>
      </trkpt>
      <trkpt lat="42.60433" lon="1.87572">
        <ele>2136.8000488281</ele>
        <time>2023-07-19T12:25:26.000Z</time>
      </trkpt>
      <trkpt lat="42.60431" lon="1.87566">
        <ele>2135.6000976562</ele>
        <time>2023-07-19T12:25:31.000Z</time>
      </trkpt>
      <trkpt lat="42.6043" lon="1.87566">
        <ele>2135.1999511719</ele>
        <time>2023-07-19T12:25:32.000Z</time>
      </trkpt>
      <trkpt lat="42.6043" lon="1.87556">
        <ele>2134.8000488281</ele>
        <time>2023-07-19T12:25:41.000Z</time>
      </trkpt>
      <trkpt lat="42.6043" lon="1.87555">
        <ele>2134.3999023438</ele>
        <time>2023-07-19T12:25:44.000Z</time>
      </trkpt>
      <trkpt lat="42.60429" lon="1.87547">
        <ele>2134</ele>
        <time>2023-07-19T12:25:48.000Z</time>
      </trkpt>
      <trkpt lat="42.60424" lon="1.87531">
        <ele>2134.3999023438</ele>
        <time>2023-07-19T12:25:57.000Z</time>
      </trkpt>
      <trkpt lat="42.6042" lon="1.87519">
        <ele>2134.3999023438</ele>
        <time>2023-07-19T12:26:05.000Z</time>
      </trkpt>
      <trkpt lat="42.60419" lon="1.87506">
        <ele>2134</ele>
        <time>2023-07-19T12:26:14.000Z</time>
      </trkpt>
      <trkpt lat="42.60418" lon="1.87493">
        <ele>2134.8000488281</ele>
        <time>2023-07-19T12:26:22.000Z</time>
      </trkpt>
      <trkpt lat="42.60419" lon="1.87478">
        <ele>2135.3999023438</ele>
        <time>2023-07-19T12:26:31.000Z</time>
      </trkpt>
      <trkpt lat="42.60418" lon="1.87473">
        <ele>2135.6000976562</ele>
        <time>2023-07-19T12:26:34.000Z</time>
      </trkpt>
      <trkpt lat="42.60414" lon="1.87468">
        <ele>2136</ele>
        <time>2023-07-19T12:26:39.000Z</time>
      </trkpt>
      <trkpt lat="42.60409" lon="1.87459">
        <ele>2135.8000488281</ele>
        <time>2023-07-19T12:26:46.000Z</time>
      </trkpt>
      <trkpt lat="42.60406" lon="1.87451">
        <ele>2135.3999023438</ele>
        <time>2023-07-19T12:26:54.000Z</time>
      </trkpt>
      <trkpt lat="42.60405" lon="1.87438">
        <ele>2134.8000488281</ele>
        <time>2023-07-19T12:27:03.000Z</time>
      </trkpt>
      <trkpt lat="42.60402" lon="1.87428">
        <ele>2135.3999023438</ele>
        <time>2023-07-19T12:27:11.000Z</time>
      </trkpt>
      <trkpt lat="42.604" lon="1.87422">
        <ele>2134</ele>
        <time>2023-07-19T12:27:16.000Z</time>
      </trkpt>
      <trkpt lat="42.60399" lon="1.8742">
        <ele>2133.6000976562</ele>
        <time>2023-07-19T12:27:19.000Z</time>
      </trkpt>
      <trkpt lat="42.60394" lon="1.87413">
        <ele>2134.1999511719</ele>
        <time>2023-07-19T12:27:26.000Z</time>
      </trkpt>
      <trkpt lat="42.60392" lon="1.87409">
        <ele>2132.6000976562</ele>
        <time>2023-07-19T12:27:29.000Z</time>
      </trkpt>
      <trkpt lat="42.60391" lon="1.87406">
        <ele>2130</ele>
        <time>2023-07-19T12:27:31.000Z</time>
      </trkpt>
      <trkpt lat="42.60391" lon="1.87403">
        <ele>2129.6000976562</ele>
        <time>2023-07-19T12:27:34.000Z</time>
      </trkpt>
      <trkpt lat="42.60388" lon="1.87394">
        <ele>2130.1999511719</ele>
        <time>2023-07-19T12:27:42.000Z</time>
      </trkpt>
      <trkpt lat="42.60386" lon="1.87391">
        <ele>2128.8000488281</ele>
        <time>2023-07-19T12:27:47.000Z</time>
      </trkpt>
      <trkpt lat="42.60386" lon="1.8739">
        <ele>2128.6000976562</ele>
        <time>2023-07-19T12:27:48.000Z</time>
      </trkpt>
      <trkpt lat="42.60384" lon="1.87384">
        <ele>2127.6000976562</ele>
        <time>2023-07-19T12:27:53.000Z</time>
      </trkpt>
      <trkpt lat="42.60385" lon="1.87383">
        <ele>2126.8000488281</ele>
        <time>2023-07-19T12:27:55.000Z</time>
      </trkpt>
      <trkpt lat="42.60385" lon="1.87381">
        <ele>2126.3999023438</ele>
        <time>2023-07-19T12:27:57.000Z</time>
      </trkpt>
      <trkpt lat="42.60385" lon="1.87379">
        <ele>2124.6000976562</ele>
        <time>2023-07-19T12:27:59.000Z</time>
      </trkpt>
      <trkpt lat="42.60385" lon="1.87371">
        <ele>2124.8000488281</ele>
        <time>2023-07-19T12:28:04.000Z</time>
      </trkpt>
      <trkpt lat="42.60384" lon="1.87367">
        <ele>2124.3999023438</ele>
        <time>2023-07-19T12:28:10.000Z</time>
      </trkpt>
      <trkpt lat="42.60381" lon="1.87364">
        <ele>2123.6000976562</ele>
        <time>2023-07-19T12:28:14.000Z</time>
      </trkpt>
      <trkpt lat="42.6038" lon="1.87362">
        <ele>2123.1999511719</ele>
        <time>2023-07-19T12:28:17.000Z</time>
      </trkpt>
      <trkpt lat="42.60376" lon="1.87355">
        <ele>2122.3999023438</ele>
        <time>2023-07-19T12:28:24.000Z</time>
      </trkpt>
      <trkpt lat="42.60374" lon="1.87351">
        <ele>2121.1999511719</ele>
        <time>2023-07-19T12:28:28.000Z</time>
      </trkpt>
      <trkpt lat="42.60374" lon="1.87347">
        <ele>2120.8000488281</ele>
        <time>2023-07-19T12:28:31.000Z</time>
      </trkpt>
      <trkpt lat="42.60373" lon="1.87335">
        <ele>2120.1999511719</ele>
        <time>2023-07-19T12:28:38.000Z</time>
      </trkpt>
      <trkpt lat="42.60373" lon="1.87334">
        <ele>2120.1999511719</ele>
        <time>2023-07-19T12:28:39.000Z</time>
      </trkpt>
      <trkpt lat="42.60369" lon="1.87324">
        <ele>2120</ele>
        <time>2023-07-19T12:28:47.000Z</time>
      </trkpt>
      <trkpt lat="42.60366" lon="1.87314">
        <ele>2119.3999023438</ele>
        <time>2023-07-19T12:28:54.000Z</time>
      </trkpt>
      <trkpt lat="42.60365" lon="1.87311">
        <ele>2119.1999511719</ele>
        <time>2023-07-19T12:28:59.000Z</time>
      </trkpt>
      <trkpt lat="42.60364" lon="1.87308">
        <ele>2118.6000976562</ele>
        <time>2023-07-19T12:29:02.000Z</time>
      </trkpt>
      <trkpt lat="42.60361" lon="1.87303">
        <ele>2118</ele>
        <time>2023-07-19T12:29:08.000Z</time>
      </trkpt>
      <trkpt lat="42.60356" lon="1.87295">
        <ele>2116.8000488281</ele>
        <time>2023-07-19T12:29:15.000Z</time>
      </trkpt>
      <trkpt lat="42.60355" lon="1.87293">
        <ele>2116.3999023438</ele>
        <time>2023-07-19T12:29:17.000Z</time>
      </trkpt>
      <trkpt lat="42.60354" lon="1.87288">
        <ele>2115.8000488281</ele>
        <time>2023-07-19T12:29:21.000Z</time>
      </trkpt>
      <trkpt lat="42.60355" lon="1.87285">
        <ele>2115</ele>
        <time>2023-07-19T12:29:27.000Z</time>
      </trkpt>
      <trkpt lat="42.60355" lon="1.87283">
        <ele>2114.6000976562</ele>
        <time>2023-07-19T12:29:29.000Z</time>
      </trkpt>
      <trkpt lat="42.60354" lon="1.8728">
        <ele>2114.3999023438</ele>
        <time>2023-07-19T12:29:32.000Z</time>
      </trkpt>
      <trkpt lat="42.60354" lon="1.87274">
        <ele>2114</ele>
        <time>2023-07-19T12:29:40.000Z</time>
      </trkpt>
      <trkpt lat="42.60356" lon="1.87269">
        <ele>2113.6000976562</ele>
        <time>2023-07-19T12:29:45.000Z</time>
      </trkpt>
      <trkpt lat="42.60356" lon="1.87266">
        <ele>2113.3999023438</ele>
        <time>2023-07-19T12:29:47.000Z</time>
      </trkpt>
      <trkpt lat="42.60357" lon="1.87259">
        <ele>2113</ele>
        <time>2023-07-19T12:29:54.000Z</time>
      </trkpt>
      <trkpt lat="42.60358" lon="1.87256">
        <ele>2112.3999023438</ele>
        <time>2023-07-19T12:29:57.000Z</time>
      </trkpt>
      <trkpt lat="42.60357" lon="1.87246">
        <ele>2111.3999023438</ele>
        <time>2023-07-19T12:30:04.000Z</time>
      </trkpt>
      <trkpt lat="42.60357" lon="1.87244">
        <ele>2111.1999511719</ele>
        <time>2023-07-19T12:30:06.000Z</time>
      </trkpt>
      <trkpt lat="42.60356" lon="1.87238">
        <ele>2110.6000976562</ele>
        <time>2023-07-19T12:30:11.000Z</time>
      </trkpt>
      <trkpt lat="42.60357" lon="1.87235">
        <ele>2110.1999511719</ele>
        <time>2023-07-19T12:30:15.000Z</time>
      </trkpt>
      <trkpt lat="42.60359" lon="1.87231">
        <ele>2109.6000976562</ele>
        <time>2023-07-19T12:30:20.000Z</time>
      </trkpt>
      <trkpt lat="42.6036" lon="1.87226">
        <ele>2109.1999511719</ele>
        <time>2023-07-19T12:30:25.000Z</time>
      </trkpt>
      <trkpt lat="42.60359" lon="1.87222">
        <ele>2108.6000976562</ele>
        <time>2023-07-19T12:30:28.000Z</time>
      </trkpt>
      <trkpt lat="42.60359" lon="1.87219">
        <ele>2108.1999511719</ele>
        <time>2023-07-19T12:30:31.000Z</time>
      </trkpt>
      <trkpt lat="42.60357" lon="1.87217">
        <ele>2107.1999511719</ele>
        <time>2023-07-19T12:30:37.000Z</time>
      </trkpt>
      <trkpt lat="42.60357" lon="1.87217">
        <ele>2107</ele>
        <time>2023-07-19T12:30:38.000Z</time>
      </trkpt>
      <trkpt lat="42.60355" lon="1.87215">
        <ele>2106.1999511719</ele>
        <time>2023-07-19T12:30:43.000Z</time>
      </trkpt>
      <trkpt lat="42.60354" lon="1.87214">
        <ele>2106</ele>
        <time>2023-07-19T12:30:45.000Z</time>
      </trkpt>
      <trkpt lat="42.60354" lon="1.87211">
        <ele>2105.8000488281</ele>
        <time>2023-07-19T12:30:49.000Z</time>
      </trkpt>
      <trkpt lat="42.60354" lon="1.8721">
        <ele>2105.3999023438</ele>
        <time>2023-07-19T12:30:51.000Z</time>
      </trkpt>
      <trkpt lat="42.60352" lon="1.87206">
        <ele>2103.1999511719</ele>
        <time>2023-07-19T12:31:05.000Z</time>
      </trkpt>
      <trkpt lat="42.60345" lon="1.87202">
        <ele>2101</ele>
        <time>2023-07-19T12:31:22.000Z</time>
      </trkpt>
      <trkpt lat="42.60347" lon="1.872">
        <ele>2100.1999511719</ele>
        <time>2023-07-19T12:31:31.000Z</time>
      </trkpt>
      <trkpt lat="42.60346" lon="1.872">
        <ele>2099.1999511719</ele>
        <time>2023-07-19T12:31:35.000Z</time>
      </trkpt>
      <trkpt lat="42.60346" lon="1.87199">
        <ele>2099</ele>
        <time>2023-07-19T12:31:37.000Z</time>
      </trkpt>
      <trkpt lat="42.60344" lon="1.87197">
        <ele>2098.1999511719</ele>
        <time>2023-07-19T12:31:45.000Z</time>
      </trkpt>
      <trkpt lat="42.60343" lon="1.87196">
        <ele>2098.1999511719</ele>
        <time>2023-07-19T12:31:46.000Z</time>
      </trkpt>
      <trkpt lat="42.60339" lon="1.8719">
        <ele>2097.6000976562</ele>
        <time>2023-07-19T12:31:53.000Z</time>
      </trkpt>
      <trkpt lat="42.60339" lon="1.87189">
        <ele>2096.8000488281</ele>
        <time>2023-07-19T12:31:57.000Z</time>
      </trkpt>
      <trkpt lat="42.60339" lon="1.87191">
        <ele>2095.8000488281</ele>
        <time>2023-07-19T12:32:01.000Z</time>
      </trkpt>
      <trkpt lat="42.60339" lon="1.87191">
        <ele>2095.8000488281</ele>
        <time>2023-07-19T12:32:02.000Z</time>
      </trkpt>
      <trkpt lat="42.60339" lon="1.87196">
        <ele>2095.3999023438</ele>
        <time>2023-07-19T12:32:12.000Z</time>
      </trkpt>
      <trkpt lat="42.60336" lon="1.87193">
        <ele>2095.6000976562</ele>
        <time>2023-07-19T12:32:20.000Z</time>
      </trkpt>
      <trkpt lat="42.60337" lon="1.87185">
        <ele>2095.3999023438</ele>
        <time>2023-07-19T12:32:27.000Z</time>
      </trkpt>
      <trkpt lat="42.60335" lon="1.87186">
        <ele>2094.8000488281</ele>
        <time>2023-07-19T12:32:33.000Z</time>
      </trkpt>
      <trkpt lat="42.60335" lon="1.87186">
        <ele>2094.8000488281</ele>
        <time>2023-07-19T12:32:34.000Z</time>
      </trkpt>
      <trkpt lat="42.60336" lon="1.8718">
        <ele>2093.6000976562</ele>
        <time>2023-07-19T12:32:40.000Z</time>
      </trkpt>
      <trkpt lat="42.60336" lon="1.8718">
        <ele>2093.3999023438</ele>
        <time>2023-07-19T12:32:41.000Z</time>
      </trkpt>
      <trkpt lat="42.60336" lon="1.87178">
        <ele>2092.6000976562</ele>
        <time>2023-07-19T12:32:45.000Z</time>
      </trkpt>
      <trkpt lat="42.60336" lon="1.87176">
        <ele>2091.3999023438</ele>
        <time>2023-07-19T12:32:47.000Z</time>
      </trkpt>
      <trkpt lat="42.60335" lon="1.87174">
        <ele>2090.8000488281</ele>
        <time>2023-07-19T12:32:49.000Z</time>
      </trkpt>
      <trkpt lat="42.60334" lon="1.8717">
        <ele>2090.3999023438</ele>
        <time>2023-07-19T12:32:52.000Z</time>
      </trkpt>
      <trkpt lat="42.60331" lon="1.87165">
        <ele>2089.8000488281</ele>
        <time>2023-07-19T12:32:56.000Z</time>
      </trkpt>
      <trkpt lat="42.60328" lon="1.87161">
        <ele>2089.3999023438</ele>
        <time>2023-07-19T12:33:02.000Z</time>
      </trkpt>
      <trkpt lat="42.60327" lon="1.8716">
        <ele>2089.3999023438</ele>
        <time>2023-07-19T12:33:03.000Z</time>
      </trkpt>
      <trkpt lat="42.60325" lon="1.87155">
        <ele>2088.3999023438</ele>
        <time>2023-07-19T12:33:08.000Z</time>
      </trkpt>
      <trkpt lat="42.60324" lon="1.87153">
        <ele>2088</ele>
        <time>2023-07-19T12:33:10.000Z</time>
      </trkpt>
      <trkpt lat="42.60323" lon="1.87144">
        <ele>2088</ele>
        <time>2023-07-19T12:33:18.000Z</time>
      </trkpt>
      <trkpt lat="42.60318" lon="1.87135">
        <ele>2087</ele>
        <time>2023-07-19T12:33:25.000Z</time>
      </trkpt>
      <trkpt lat="42.60317" lon="1.8713">
        <ele>2086.1999511719</ele>
        <time>2023-07-19T12:33:32.000Z</time>
      </trkpt>
      <trkpt lat="42.60316" lon="1.87129">
        <ele>2086</ele>
        <time>2023-07-19T12:33:34.000Z</time>
      </trkpt>
      <trkpt lat="42.60315" lon="1.87123">
        <ele>2084.8000488281</ele>
        <time>2023-07-19T12:33:39.000Z</time>
      </trkpt>
      <trkpt lat="42.60316" lon="1.87121">
        <ele>2083.8000488281</ele>
        <time>2023-07-19T12:33:44.000Z</time>
      </trkpt>
      <trkpt lat="42.60316" lon="1.87122">
        <ele>2082.6000976562</ele>
        <time>2023-07-19T12:33:53.000Z</time>
      </trkpt>
      <trkpt lat="42.60312" lon="1.87116">
        <ele>2082.1999511719</ele>
        <time>2023-07-19T12:34:03.000Z</time>
      </trkpt>
      <trkpt lat="42.6032" lon="1.87128">
        <ele>2084.8000488281</ele>
        <time>2023-07-19T12:34:26.000Z</time>
      </trkpt>
      <trkpt lat="42.60321" lon="1.87133">
        <ele>2085.6000976562</ele>
        <time>2023-07-19T12:34:34.000Z</time>
      </trkpt>
      <trkpt lat="42.60321" lon="1.87131">
        <ele>2085.1999511719</ele>
        <time>2023-07-19T12:34:41.000Z</time>
      </trkpt>
      <trkpt lat="42.60321" lon="1.87123">
        <ele>2083.8000488281</ele>
        <time>2023-07-19T12:34:48.000Z</time>
      </trkpt>
      <trkpt lat="42.6032" lon="1.87122">
        <ele>2083.8000488281</ele>
        <time>2023-07-19T12:34:49.000Z</time>
      </trkpt>
      <trkpt lat="42.60318" lon="1.87118">
        <ele>2082.6000976562</ele>
        <time>2023-07-19T12:34:55.000Z</time>
      </trkpt>
      <trkpt lat="42.60318" lon="1.87118">
        <ele>2082.3999023438</ele>
        <time>2023-07-19T12:34:56.000Z</time>
      </trkpt>
      <trkpt lat="42.60314" lon="1.87114">
        <ele>2082</ele>
        <time>2023-07-19T12:35:03.000Z</time>
      </trkpt>
      <trkpt lat="42.60313" lon="1.8711">
        <ele>2081.3999023438</ele>
        <time>2023-07-19T12:35:07.000Z</time>
      </trkpt>
      <trkpt lat="42.60311" lon="1.87105">
        <ele>2080.3999023438</ele>
        <time>2023-07-19T12:35:11.000Z</time>
      </trkpt>
      <trkpt lat="42.60311" lon="1.87105">
        <ele>2080.3999023438</ele>
        <time>2023-07-19T12:35:12.000Z</time>
      </trkpt>
      <trkpt lat="42.60308" lon="1.871">
        <ele>2079.3999023438</ele>
        <time>2023-07-19T12:35:18.000Z</time>
      </trkpt>
      <trkpt lat="42.60308" lon="1.87099">
        <ele>2079</ele>
        <time>2023-07-19T12:35:19.000Z</time>
      </trkpt>
      <trkpt lat="42.60309" lon="1.87104">
        <ele>2079.8000488281</ele>
        <time>2023-07-19T12:35:31.000Z</time>
      </trkpt>
      <trkpt lat="42.60307" lon="1.87104">
        <ele>2079.6000976562</ele>
        <time>2023-07-19T12:35:38.000Z</time>
      </trkpt>
      <trkpt lat="42.60307" lon="1.87098">
        <ele>2080</ele>
        <time>2023-07-19T12:35:46.000Z</time>
      </trkpt>
      <trkpt lat="42.60305" lon="1.87097">
        <ele>2080.6000976562</ele>
        <time>2023-07-19T12:35:51.000Z</time>
      </trkpt>
      <trkpt lat="42.60303" lon="1.87091">
        <ele>2079.6000976562</ele>
        <time>2023-07-19T12:35:57.000Z</time>
      </trkpt>
      <trkpt lat="42.603" lon="1.8708">
        <ele>2079.1999511719</ele>
        <time>2023-07-19T12:36:05.000Z</time>
      </trkpt>
      <trkpt lat="42.60299" lon="1.87075">
        <ele>2078.6000976562</ele>
        <time>2023-07-19T12:36:09.000Z</time>
      </trkpt>
      <trkpt lat="42.60298" lon="1.87071">
        <ele>2077.8000488281</ele>
        <time>2023-07-19T12:36:14.000Z</time>
      </trkpt>
      <trkpt lat="42.60297" lon="1.8707">
        <ele>2077.6000976562</ele>
        <time>2023-07-19T12:36:15.000Z</time>
      </trkpt>
      <trkpt lat="42.60295" lon="1.87062">
        <ele>2076.8000488281</ele>
        <time>2023-07-19T12:36:21.000Z</time>
      </trkpt>
      <trkpt lat="42.60295" lon="1.87061">
        <ele>2076.6000976562</ele>
        <time>2023-07-19T12:36:22.000Z</time>
      </trkpt>
      <trkpt lat="42.60293" lon="1.87057">
        <ele>2075.1999511719</ele>
        <time>2023-07-19T12:36:26.000Z</time>
      </trkpt>
      <trkpt lat="42.60292" lon="1.87054">
        <ele>2075</ele>
        <time>2023-07-19T12:36:30.000Z</time>
      </trkpt>
      <trkpt lat="42.60292" lon="1.87048">
        <ele>2074.1999511719</ele>
        <time>2023-07-19T12:36:36.000Z</time>
      </trkpt>
      <trkpt lat="42.60292" lon="1.87044">
        <ele>2073.1999511719</ele>
        <time>2023-07-19T12:36:39.000Z</time>
      </trkpt>
      <trkpt lat="42.60291" lon="1.87043">
        <ele>2072.8000488281</ele>
        <time>2023-07-19T12:36:40.000Z</time>
      </trkpt>
      <trkpt lat="42.6029" lon="1.87035">
        <ele>2072</ele>
        <time>2023-07-19T12:36:46.000Z</time>
      </trkpt>
      <trkpt lat="42.60289" lon="1.87033">
        <ele>2071.8000488281</ele>
        <time>2023-07-19T12:36:47.000Z</time>
      </trkpt>
      <trkpt lat="42.60289" lon="1.8703">
        <ele>2070.8000488281</ele>
        <time>2023-07-19T12:36:51.000Z</time>
      </trkpt>
      <trkpt lat="42.6029" lon="1.87027">
        <ele>2070.6000976562</ele>
        <time>2023-07-19T12:36:54.000Z</time>
      </trkpt>
      <trkpt lat="42.60289" lon="1.87021">
        <ele>2069.6000976562</ele>
        <time>2023-07-19T12:36:58.000Z</time>
      </trkpt>
      <trkpt lat="42.60288" lon="1.87017">
        <ele>2069.3999023438</ele>
        <time>2023-07-19T12:37:00.000Z</time>
      </trkpt>
      <trkpt lat="42.60287" lon="1.87012">
        <ele>2068.6000976562</ele>
        <time>2023-07-19T12:37:04.000Z</time>
      </trkpt>
      <trkpt lat="42.60287" lon="1.8701">
        <ele>2068.1999511719</ele>
        <time>2023-07-19T12:37:05.000Z</time>
      </trkpt>
      <trkpt lat="42.60287" lon="1.87008">
        <ele>2067.1999511719</ele>
        <time>2023-07-19T12:37:08.000Z</time>
      </trkpt>
      <trkpt lat="42.60287" lon="1.87001">
        <ele>2066.6000976562</ele>
        <time>2023-07-19T12:37:12.000Z</time>
      </trkpt>
      <trkpt lat="42.60286" lon="1.87">
        <ele>2066</ele>
        <time>2023-07-19T12:37:14.000Z</time>
      </trkpt>
      <trkpt lat="42.60286" lon="1.86995">
        <ele>2065</ele>
        <time>2023-07-19T12:37:18.000Z</time>
      </trkpt>
      <trkpt lat="42.60287" lon="1.8699">
        <ele>2064</ele>
        <time>2023-07-19T12:37:24.000Z</time>
      </trkpt>
      <trkpt lat="42.60287" lon="1.86989">
        <ele>2063.6000976562</ele>
        <time>2023-07-19T12:37:25.000Z</time>
      </trkpt>
      <trkpt lat="42.60287" lon="1.86984">
        <ele>2063</ele>
        <time>2023-07-19T12:37:30.000Z</time>
      </trkpt>
      <trkpt lat="42.60287" lon="1.86983">
        <ele>2062.8000488281</ele>
        <time>2023-07-19T12:37:31.000Z</time>
      </trkpt>
      <trkpt lat="42.60289" lon="1.86973">
        <ele>2062</ele>
        <time>2023-07-19T12:37:37.000Z</time>
      </trkpt>
      <trkpt lat="42.60289" lon="1.86968">
        <ele>2061.8000488281</ele>
        <time>2023-07-19T12:37:40.000Z</time>
      </trkpt>
      <trkpt lat="42.6029" lon="1.8696">
        <ele>2061.1999511719</ele>
        <time>2023-07-19T12:37:45.000Z</time>
      </trkpt>
      <trkpt lat="42.60291" lon="1.86952">
        <ele>2060.6000976562</ele>
        <time>2023-07-19T12:37:52.000Z</time>
      </trkpt>
      <trkpt lat="42.60291" lon="1.86952">
        <ele>2060.3999023438</ele>
        <time>2023-07-19T12:37:53.000Z</time>
      </trkpt>
      <trkpt lat="42.6029" lon="1.86947">
        <ele>2059.6000976562</ele>
        <time>2023-07-19T12:37:57.000Z</time>
      </trkpt>
      <trkpt lat="42.6029" lon="1.86944">
        <ele>2058.6000976562</ele>
        <time>2023-07-19T12:38:01.000Z</time>
      </trkpt>
      <trkpt lat="42.6029" lon="1.86943">
        <ele>2058.1999511719</ele>
        <time>2023-07-19T12:38:02.000Z</time>
      </trkpt>
      <trkpt lat="42.60293" lon="1.86935">
        <ele>2057.8000488281</ele>
        <time>2023-07-19T12:38:09.000Z</time>
      </trkpt>
      <trkpt lat="42.60295" lon="1.86926">
        <ele>2058.1999511719</ele>
        <time>2023-07-19T12:38:17.000Z</time>
      </trkpt>
      <trkpt lat="42.60297" lon="1.86918">
        <ele>2059</ele>
        <time>2023-07-19T12:38:25.000Z</time>
      </trkpt>
      <trkpt lat="42.60298" lon="1.86915">
        <ele>2059.8000488281</ele>
        <time>2023-07-19T12:38:28.000Z</time>
      </trkpt>
      <trkpt lat="42.60299" lon="1.8691">
        <ele>2061</ele>
        <time>2023-07-19T12:38:33.000Z</time>
      </trkpt>
      <trkpt lat="42.603" lon="1.86907">
        <ele>2062</ele>
        <time>2023-07-19T12:38:36.000Z</time>
      </trkpt>
      <trkpt lat="42.60301" lon="1.86902">
        <ele>2063</ele>
        <time>2023-07-19T12:38:43.000Z</time>
      </trkpt>
      <trkpt lat="42.60302" lon="1.869">
        <ele>2064.3999023438</ele>
        <time>2023-07-19T12:38:49.000Z</time>
      </trkpt>
      <trkpt lat="42.60302" lon="1.869">
        <ele>2064.8000488281</ele>
        <time>2023-07-19T12:38:52.000Z</time>
      </trkpt>
      <trkpt lat="42.60307" lon="1.86898">
        <ele>2065.6000976562</ele>
        <time>2023-07-19T12:39:00.000Z</time>
      </trkpt>
      <trkpt lat="42.60309" lon="1.86892">
        <ele>2066.3999023438</ele>
        <time>2023-07-19T12:39:08.000Z</time>
      </trkpt>
      <trkpt lat="42.6031" lon="1.8689">
        <ele>2066.8000488281</ele>
        <time>2023-07-19T12:39:11.000Z</time>
      </trkpt>
      <trkpt lat="42.60311" lon="1.86886">
        <ele>2067.6000976562</ele>
        <time>2023-07-19T12:39:17.000Z</time>
      </trkpt>
      <trkpt lat="42.60311" lon="1.86886">
        <ele>2067.8000488281</ele>
        <time>2023-07-19T12:39:18.000Z</time>
      </trkpt>
      <trkpt lat="42.60317" lon="1.86881">
        <ele>2068.8000488281</ele>
        <time>2023-07-19T12:39:27.000Z</time>
      </trkpt>
      <trkpt lat="42.60317" lon="1.86881">
        <ele>2068.8000488281</ele>
        <time>2023-07-19T12:39:28.000Z</time>
      </trkpt>
      <trkpt lat="42.60318" lon="1.86877">
        <ele>2069.8000488281</ele>
        <time>2023-07-19T12:39:33.000Z</time>
      </trkpt>
      <trkpt lat="42.60318" lon="1.86876">
        <ele>2070</ele>
        <time>2023-07-19T12:39:34.000Z</time>
      </trkpt>
      <trkpt lat="42.60319" lon="1.86869">
        <ele>2070.8000488281</ele>
        <time>2023-07-19T12:39:41.000Z</time>
      </trkpt>
      <trkpt lat="42.60319" lon="1.86869">
        <ele>2071</ele>
        <time>2023-07-19T12:39:43.000Z</time>
      </trkpt>
      <trkpt lat="42.6032" lon="1.86866">
        <ele>2072</ele>
        <time>2023-07-19T12:39:47.000Z</time>
      </trkpt>
      <trkpt lat="42.60321" lon="1.86864">
        <ele>2072.1999511719</ele>
        <time>2023-07-19T12:39:49.000Z</time>
      </trkpt>
      <trkpt lat="42.60323" lon="1.86857">
        <ele>2073.1999511719</ele>
        <time>2023-07-19T12:39:57.000Z</time>
      </trkpt>
      <trkpt lat="42.60324" lon="1.86855">
        <ele>2073.8000488281</ele>
        <time>2023-07-19T12:39:59.000Z</time>
      </trkpt>
      <trkpt lat="42.60324" lon="1.86848">
        <ele>2074.1999511719</ele>
        <time>2023-07-19T12:40:06.000Z</time>
      </trkpt>
      <trkpt lat="42.60326" lon="1.86841">
        <ele>2075.1999511719</ele>
        <time>2023-07-19T12:40:12.000Z</time>
      </trkpt>
      <trkpt lat="42.60326" lon="1.86841">
        <ele>2075.3999023438</ele>
        <time>2023-07-19T12:40:13.000Z</time>
      </trkpt>
      <trkpt lat="42.6033" lon="1.86837">
        <ele>2076</ele>
        <time>2023-07-19T12:40:21.000Z</time>
      </trkpt>
      <trkpt lat="42.60331" lon="1.86835">
        <ele>2076.6000976562</ele>
        <time>2023-07-19T12:40:24.000Z</time>
      </trkpt>
      <trkpt lat="42.60332" lon="1.86832">
        <ele>2077.6000976562</ele>
        <time>2023-07-19T12:40:29.000Z</time>
      </trkpt>
      <trkpt lat="42.60336" lon="1.86828">
        <ele>2078.1999511719</ele>
        <time>2023-07-19T12:40:37.000Z</time>
      </trkpt>
      <trkpt lat="42.60337" lon="1.86831">
        <ele>2079.3999023438</ele>
        <time>2023-07-19T12:40:48.000Z</time>
      </trkpt>
      <trkpt lat="42.60338" lon="1.86835">
        <ele>2079.8000488281</ele>
        <time>2023-07-19T12:40:54.000Z</time>
      </trkpt>
      <trkpt lat="42.6034" lon="1.86836">
        <ele>2080</ele>
        <time>2023-07-19T12:40:56.000Z</time>
      </trkpt>
      <trkpt lat="42.60344" lon="1.86835">
        <ele>2080.8000488281</ele>
        <time>2023-07-19T12:41:03.000Z</time>
      </trkpt>
      <trkpt lat="42.60344" lon="1.86835">
        <ele>2081</ele>
        <time>2023-07-19T12:41:04.000Z</time>
      </trkpt>
      <trkpt lat="42.60344" lon="1.86832">
        <ele>2082</ele>
        <time>2023-07-19T12:41:12.000Z</time>
      </trkpt>
      <trkpt lat="42.60343" lon="1.86832">
        <ele>2082</ele>
        <time>2023-07-19T12:41:13.000Z</time>
      </trkpt>
      <trkpt lat="42.60345" lon="1.86827">
        <ele>2082.3999023438</ele>
        <time>2023-07-19T12:41:19.000Z</time>
      </trkpt>
      <trkpt lat="42.60347" lon="1.86826">
        <ele>2082.6000976562</ele>
        <time>2023-07-19T12:41:24.000Z</time>
      </trkpt>
      <trkpt lat="42.60351" lon="1.86824">
        <ele>2083</ele>
        <time>2023-07-19T12:41:29.000Z</time>
      </trkpt>
      <trkpt lat="42.60352" lon="1.86819">
        <ele>2083.8000488281</ele>
        <time>2023-07-19T12:41:34.000Z</time>
      </trkpt>
      <trkpt lat="42.60353" lon="1.86817">
        <ele>2084.1999511719</ele>
        <time>2023-07-19T12:41:36.000Z</time>
      </trkpt>
      <trkpt lat="42.60355" lon="1.86812">
        <ele>2084.3999023438</ele>
        <time>2023-07-19T12:41:41.000Z</time>
      </trkpt>
      <trkpt lat="42.60356" lon="1.86809">
        <ele>2085.1999511719</ele>
        <time>2023-07-19T12:41:44.000Z</time>
      </trkpt>
      <trkpt lat="42.60357" lon="1.8681">
        <ele>2085.6000976562</ele>
        <time>2023-07-19T12:41:48.000Z</time>
      </trkpt>
      <trkpt lat="42.60363" lon="1.86806">
        <ele>2086.3999023438</ele>
        <time>2023-07-19T12:41:53.000Z</time>
      </trkpt>
      <trkpt lat="42.60364" lon="1.86808">
        <ele>2086.6000976562</ele>
        <time>2023-07-19T12:41:57.000Z</time>
      </trkpt>
      <trkpt lat="42.60365" lon="1.86815">
        <ele>2087</ele>
        <time>2023-07-19T12:42:04.000Z</time>
      </trkpt>
      <trkpt lat="42.60364" lon="1.86816">
        <ele>2087.3999023438</ele>
        <time>2023-07-19T12:42:05.000Z</time>
      </trkpt>
      <trkpt lat="42.60366" lon="1.86815">
        <ele>2088.3999023438</ele>
        <time>2023-07-19T12:42:09.000Z</time>
      </trkpt>
      <trkpt lat="42.60367" lon="1.86815">
        <ele>2088.8000488281</ele>
        <time>2023-07-19T12:42:11.000Z</time>
      </trkpt>
      <trkpt lat="42.60375" lon="1.86816">
        <ele>2090.6000976562</ele>
        <time>2023-07-19T12:42:24.000Z</time>
      </trkpt>
      <trkpt lat="42.60375" lon="1.86816">
        <ele>2090.6000976562</ele>
        <time>2023-07-19T12:42:25.000Z</time>
      </trkpt>
      <trkpt lat="42.60373" lon="1.86821">
        <ele>2091.6000976562</ele>
        <time>2023-07-19T12:42:34.000Z</time>
      </trkpt>
      <trkpt lat="42.60373" lon="1.86822">
        <ele>2091.8000488281</ele>
        <time>2023-07-19T12:42:36.000Z</time>
      </trkpt>
      <trkpt lat="42.60373" lon="1.86821">
        <ele>2092.3999023438</ele>
        <time>2023-07-19T12:42:42.000Z</time>
      </trkpt>
      <trkpt lat="42.60374" lon="1.86822">
        <ele>2092.8000488281</ele>
        <time>2023-07-19T12:42:46.000Z</time>
      </trkpt>
      <trkpt lat="42.60375" lon="1.86824">
        <ele>2093.1999511719</ele>
        <time>2023-07-19T12:42:49.000Z</time>
      </trkpt>
      <trkpt lat="42.60374" lon="1.86831">
        <ele>2093.8000488281</ele>
        <time>2023-07-19T12:42:57.000Z</time>
      </trkpt>
      <trkpt lat="42.60374" lon="1.86832">
        <ele>2094.1999511719</ele>
        <time>2023-07-19T12:42:58.000Z</time>
      </trkpt>
      <trkpt lat="42.60378" lon="1.86838">
        <ele>2094.3999023438</ele>
        <time>2023-07-19T12:43:04.000Z</time>
      </trkpt>
      <trkpt lat="42.60381" lon="1.86836">
        <ele>2095.1999511719</ele>
        <time>2023-07-19T12:43:09.000Z</time>
      </trkpt>
      <trkpt lat="42.60381" lon="1.86835">
        <ele>2095.1999511719</ele>
        <time>2023-07-19T12:43:10.000Z</time>
      </trkpt>
      <trkpt lat="42.60383" lon="1.86833">
        <ele>2096.6000976562</ele>
        <time>2023-07-19T12:43:16.000Z</time>
      </trkpt>
      <trkpt lat="42.60385" lon="1.86831">
        <ele>2098</ele>
        <time>2023-07-19T12:43:24.000Z</time>
      </trkpt>
      <trkpt lat="42.60388" lon="1.86834">
        <ele>2098</ele>
        <time>2023-07-19T12:43:28.000Z</time>
      </trkpt>
      <trkpt lat="42.60388" lon="1.86836">
        <ele>2098</ele>
        <time>2023-07-19T12:43:30.000Z</time>
      </trkpt>
      <trkpt lat="42.60389" lon="1.86839">
        <ele>2099.6000976562</ele>
        <time>2023-07-19T12:43:33.000Z</time>
      </trkpt>
      <trkpt lat="42.6039" lon="1.86839">
        <ele>2100.6000976562</ele>
        <time>2023-07-19T12:43:36.000Z</time>
      </trkpt>
      <trkpt lat="42.60391" lon="1.86839">
        <ele>2100.6000976562</ele>
        <time>2023-07-19T12:43:37.000Z</time>
      </trkpt>
      <trkpt lat="42.60392" lon="1.8684">
        <ele>2101</ele>
        <time>2023-07-19T12:43:39.000Z</time>
      </trkpt>
      <trkpt lat="42.60391" lon="1.8684">
        <ele>2101.8000488281</ele>
        <time>2023-07-19T12:43:41.000Z</time>
      </trkpt>
      <trkpt lat="42.60388" lon="1.86841">
        <ele>2102.3999023438</ele>
        <time>2023-07-19T12:43:46.000Z</time>
      </trkpt>
      <trkpt lat="42.60388" lon="1.86843">
        <ele>2102.1999511719</ele>
        <time>2023-07-19T12:43:51.000Z</time>
      </trkpt>
      <trkpt lat="42.60391" lon="1.86843">
        <ele>2102</ele>
        <time>2023-07-19T12:44:01.000Z</time>
      </trkpt>
      <trkpt lat="42.60391" lon="1.8684">
        <ele>2102.6000976562</ele>
        <time>2023-07-19T12:44:13.000Z</time>
      </trkpt>
      <trkpt lat="42.60391" lon="1.86841">
        <ele>2102.8000488281</ele>
        <time>2023-07-19T12:44:14.000Z</time>
      </trkpt>
      <trkpt lat="42.60391" lon="1.86839">
        <ele>2101.3999023438</ele>
        <time>2023-07-19T12:44:19.000Z</time>
      </trkpt>
      <trkpt lat="42.60392" lon="1.8684">
        <ele>2102.3999023438</ele>
        <time>2023-07-19T12:44:28.000Z</time>
      </trkpt>
      <trkpt lat="42.60391" lon="1.86838">
        <ele>2102.6000976562</ele>
        <time>2023-07-19T12:44:34.000Z</time>
      </trkpt>
      <trkpt lat="42.60391" lon="1.86836">
        <ele>2102.6000976562</ele>
        <time>2023-07-19T12:44:36.000Z</time>
      </trkpt>
      <trkpt lat="42.60391" lon="1.86837">
        <ele>2101.3999023438</ele>
        <time>2023-07-19T12:44:40.000Z</time>
      </trkpt>
      <trkpt lat="42.60391" lon="1.86837">
        <ele>2101.1999511719</ele>
        <time>2023-07-19T12:44:43.000Z</time>
      </trkpt>
      <trkpt lat="42.6039" lon="1.86836">
        <ele>2101.6000976562</ele>
        <time>2023-07-19T12:44:49.000Z</time>
      </trkpt>
      <trkpt lat="42.6039" lon="1.86839">
        <ele>2101.8000488281</ele>
        <time>2023-07-19T12:44:56.000Z</time>
      </trkpt>
      <trkpt lat="42.6039" lon="1.8684">
        <ele>2101.3999023438</ele>
        <time>2023-07-19T12:45:05.000Z</time>
      </trkpt>
      <trkpt lat="42.6039" lon="1.86842">
        <ele>2100.8000488281</ele>
        <time>2023-07-19T12:45:14.000Z</time>
      </trkpt>
      <trkpt lat="42.6039" lon="1.86842">
        <ele>2100.1999511719</ele>
        <time>2023-07-19T12:45:16.000Z</time>
      </trkpt>
      <trkpt lat="42.60387" lon="1.86839">
        <ele>2099.3999023438</ele>
        <time>2023-07-19T12:45:24.000Z</time>
      </trkpt>
      <trkpt lat="42.60385" lon="1.86836">
        <ele>2101.8000488281</ele>
        <time>2023-07-19T12:45:28.000Z</time>
      </trkpt>
      <trkpt lat="42.60384" lon="1.86836">
        <ele>2101.3999023438</ele>
        <time>2023-07-19T12:45:33.000Z</time>
      </trkpt>
      <trkpt lat="42.60384" lon="1.86835">
        <ele>2100.8000488281</ele>
        <time>2023-07-19T12:45:36.000Z</time>
      </trkpt>
      <trkpt lat="42.60384" lon="1.86834">
        <ele>2100.1999511719</ele>
        <time>2023-07-19T12:45:40.000Z</time>
      </trkpt>
      <trkpt lat="42.60384" lon="1.86829">
        <ele>2099.8000488281</ele>
        <time>2023-07-19T12:45:49.000Z</time>
      </trkpt>
      <trkpt lat="42.60385" lon="1.86829">
        <ele>2099.8000488281</ele>
        <time>2023-07-19T12:45:57.000Z</time>
      </trkpt>
      <trkpt lat="42.60385" lon="1.86829">
        <ele>2099.6000976562</ele>
        <time>2023-07-19T12:45:58.000Z</time>
      </trkpt>
      <trkpt lat="42.60384" lon="1.86826">
        <ele>2099</ele>
        <time>2023-07-19T12:46:04.000Z</time>
      </trkpt>
      <trkpt lat="42.60385" lon="1.86826">
        <ele>2099</ele>
        <time>2023-07-19T12:46:12.000Z</time>
      </trkpt>
      <trkpt lat="42.60383" lon="1.86822">
        <ele>2099</ele>
        <time>2023-07-19T12:46:21.000Z</time>
      </trkpt>
      <trkpt lat="42.60382" lon="1.86821">
        <ele>2098.6000976562</ele>
        <time>2023-07-19T12:46:25.000Z</time>
      </trkpt>
      <trkpt lat="42.60381" lon="1.8682">
        <ele>2098.1999511719</ele>
        <time>2023-07-19T12:46:29.000Z</time>
      </trkpt>
      <trkpt lat="42.60385" lon="1.86829">
        <ele>2099</ele>
        <time>2023-07-19T12:46:37.000Z</time>
      </trkpt>
      <trkpt lat="42.60387" lon="1.86834">
        <ele>2097.8000488281</ele>
        <time>2023-07-19T12:46:47.000Z</time>
      </trkpt>
      <trkpt lat="42.60388" lon="1.86836">
        <ele>2097.3999023438</ele>
        <time>2023-07-19T12:46:49.000Z</time>
      </trkpt>
      <trkpt lat="42.60389" lon="1.86837">
        <ele>2097.1999511719</ele>
        <time>2023-07-19T12:46:52.000Z</time>
      </trkpt>
      <trkpt lat="42.6039" lon="1.86841">
        <ele>2097.3999023438</ele>
        <time>2023-07-19T12:46:58.000Z</time>
      </trkpt>
      <trkpt lat="42.60391" lon="1.86841">
        <ele>2097.3999023438</ele>
        <time>2023-07-19T12:47:07.000Z</time>
      </trkpt>
      <trkpt lat="42.60391" lon="1.8684">
        <ele>2097.3999023438</ele>
        <time>2023-07-19T12:47:14.000Z</time>
      </trkpt>
      <trkpt lat="42.60391" lon="1.86841">
        <ele>2097.1999511719</ele>
        <time>2023-07-19T12:47:22.000Z</time>
      </trkpt>
      <trkpt lat="42.60391" lon="1.86845">
        <ele>2096.3999023438</ele>
        <time>2023-07-19T12:47:25.000Z</time>
      </trkpt>
      <trkpt lat="42.6039" lon="1.86844">
        <ele>2096.6000976562</ele>
        <time>2023-07-19T12:47:32.000Z</time>
      </trkpt>
      <trkpt lat="42.60389" lon="1.86841">
        <ele>2095.3999023438</ele>
        <time>2023-07-19T12:47:40.000Z</time>
      </trkpt>
      <trkpt lat="42.6039" lon="1.86839">
        <ele>2096</ele>
        <time>2023-07-19T12:47:49.000Z</time>
      </trkpt>
      <trkpt lat="42.60389" lon="1.86838">
        <ele>2097</ele>
        <time>2023-07-19T12:47:56.000Z</time>
      </trkpt>
      <trkpt lat="42.60389" lon="1.86838">
        <ele>2097.3999023438</ele>
        <time>2023-07-19T12:47:58.000Z</time>
      </trkpt>
      <trkpt lat="42.60388" lon="1.86835">
        <ele>2098</ele>
        <time>2023-07-19T12:48:05.000Z</time>
      </trkpt>
      <trkpt lat="42.6039" lon="1.86838">
        <ele>2098.3999023438</ele>
        <time>2023-07-19T12:48:12.000Z</time>
      </trkpt>
      <trkpt lat="42.60389" lon="1.86836">
        <ele>2098.1999511719</ele>
        <time>2023-07-19T12:48:23.000Z</time>
      </trkpt>
      <trkpt lat="42.60389" lon="1.86837">
        <ele>2097.8000488281</ele>
        <time>2023-07-19T12:48:33.000Z</time>
      </trkpt>
      <trkpt lat="42.60387" lon="1.86834">
        <ele>2097.1999511719</ele>
        <time>2023-07-19T12:48:47.000Z</time>
      </trkpt>
      <trkpt lat="42.60386" lon="1.86833">
        <ele>2097</ele>
        <time>2023-07-19T12:48:55.000Z</time>
      </trkpt>
      <trkpt lat="42.60386" lon="1.86833">
        <ele>2096.8000488281</ele>
        <time>2023-07-19T12:49:02.000Z</time>
      </trkpt>
      <trkpt lat="42.60389" lon="1.86834">
        <ele>2096.3999023438</ele>
        <time>2023-07-19T12:49:10.000Z</time>
      </trkpt>
      <trkpt lat="42.60389" lon="1.86834">
        <ele>2096.3999023438</ele>
        <time>2023-07-19T12:49:11.000Z</time>
      </trkpt>
      <trkpt lat="42.60391" lon="1.86834">
        <ele>2096.1999511719</ele>
        <time>2023-07-19T12:49:22.000Z</time>
      </trkpt>
      <trkpt lat="42.60391" lon="1.86837">
        <ele>2096.1999511719</ele>
        <time>2023-07-19T12:49:30.000Z</time>
      </trkpt>
      <trkpt lat="42.60391" lon="1.8684">
        <ele>2096.1999511719</ele>
        <time>2023-07-19T12:49:37.000Z</time>
      </trkpt>
      <trkpt lat="42.60393" lon="1.86844">
        <ele>2096.1999511719</ele>
        <time>2023-07-19T12:49:46.000Z</time>
      </trkpt>
      <trkpt lat="42.60393" lon="1.86843">
        <ele>2096.3999023438</ele>
        <time>2023-07-19T12:49:54.000Z</time>
      </trkpt>
      <trkpt lat="42.60391" lon="1.86844">
        <ele>2096.3999023438</ele>
        <time>2023-07-19T12:50:01.000Z</time>
      </trkpt>
      <trkpt lat="42.60391" lon="1.86847">
        <ele>2096.6000976562</ele>
        <time>2023-07-19T12:50:09.000Z</time>
      </trkpt>
      <trkpt lat="42.60391" lon="1.86847">
        <ele>2097</ele>
        <time>2023-07-19T12:50:16.000Z</time>
      </trkpt>
      <trkpt lat="42.6039" lon="1.86846">
        <ele>2097</ele>
        <time>2023-07-19T12:50:21.000Z</time>
      </trkpt>
      <trkpt lat="42.60389" lon="1.86846">
        <ele>2096.3999023438</ele>
        <time>2023-07-19T12:50:30.000Z</time>
      </trkpt>
      <trkpt lat="42.60389" lon="1.86847">
        <ele>2095.3999023438</ele>
        <time>2023-07-19T12:50:39.000Z</time>
      </trkpt>
      <trkpt lat="42.60389" lon="1.86843">
        <ele>2095.3999023438</ele>
        <time>2023-07-19T12:50:43.000Z</time>
      </trkpt>
      <trkpt lat="42.6039" lon="1.86842">
        <ele>2095.3999023438</ele>
        <time>2023-07-19T12:50:47.000Z</time>
      </trkpt>
      <trkpt lat="42.60389" lon="1.8684">
        <ele>2095.1999511719</ele>
        <time>2023-07-19T12:50:54.000Z</time>
      </trkpt>
      <trkpt lat="42.60388" lon="1.86839">
        <ele>2095.1999511719</ele>
        <time>2023-07-19T12:51:02.000Z</time>
      </trkpt>
      <trkpt lat="42.60386" lon="1.86836">
        <ele>2094.8000488281</ele>
        <time>2023-07-19T12:51:10.000Z</time>
      </trkpt>
      <trkpt lat="42.60388" lon="1.86836">
        <ele>2095</ele>
        <time>2023-07-19T12:51:17.000Z</time>
      </trkpt>
      <trkpt lat="42.60389" lon="1.86838">
        <ele>2094.3999023438</ele>
        <time>2023-07-19T12:51:26.000Z</time>
      </trkpt>
      <trkpt lat="42.6039" lon="1.8684">
        <ele>2094.3999023438</ele>
        <time>2023-07-19T12:51:29.000Z</time>
      </trkpt>
      <trkpt lat="42.60392" lon="1.86842">
        <ele>2094.3999023438</ele>
        <time>2023-07-19T12:51:35.000Z</time>
      </trkpt>
      <trkpt lat="42.60393" lon="1.86841">
        <ele>2095</ele>
        <time>2023-07-19T12:51:44.000Z</time>
      </trkpt>
      <trkpt lat="42.60394" lon="1.86842">
        <ele>2094.6000976562</ele>
        <time>2023-07-19T12:51:53.000Z</time>
      </trkpt>
      <trkpt lat="42.60392" lon="1.8684">
        <ele>2094.3999023438</ele>
        <time>2023-07-19T12:52:00.000Z</time>
      </trkpt>
      <trkpt lat="42.60391" lon="1.86835">
        <ele>2093.6000976562</ele>
        <time>2023-07-19T12:52:07.000Z</time>
      </trkpt>
      <trkpt lat="42.60391" lon="1.86833">
        <ele>2093.3999023438</ele>
        <time>2023-07-19T12:52:13.000Z</time>
      </trkpt>
      <trkpt lat="42.60391" lon="1.86833">
        <ele>2093.1999511719</ele>
        <time>2023-07-19T12:52:18.000Z</time>
      </trkpt>
      <trkpt lat="42.60393" lon="1.86833">
        <ele>2093.3999023438</ele>
        <time>2023-07-19T12:52:26.000Z</time>
      </trkpt>
      <trkpt lat="42.60389" lon="1.8683">
        <ele>2093.3999023438</ele>
        <time>2023-07-19T12:52:32.000Z</time>
      </trkpt>
      <trkpt lat="42.60388" lon="1.86831">
        <ele>2093.3999023438</ele>
        <time>2023-07-19T12:52:39.000Z</time>
      </trkpt>
      <trkpt lat="42.60388" lon="1.86829">
        <ele>2093.6000976562</ele>
        <time>2023-07-19T12:52:47.000Z</time>
      </trkpt>
      <trkpt lat="42.60388" lon="1.8683">
        <ele>2093.6000976562</ele>
        <time>2023-07-19T12:52:55.000Z</time>
      </trkpt>
      <trkpt lat="42.6039" lon="1.86831">
        <ele>2094.1999511719</ele>
        <time>2023-07-19T12:53:04.000Z</time>
      </trkpt>
      <trkpt lat="42.60389" lon="1.86829">
        <ele>2093.8000488281</ele>
        <time>2023-07-19T12:53:11.000Z</time>
      </trkpt>
      <trkpt lat="42.6039" lon="1.86831">
        <ele>2094</ele>
        <time>2023-07-19T12:53:21.000Z</time>
      </trkpt>
      <trkpt lat="42.6039" lon="1.86834">
        <ele>2093.3999023438</ele>
        <time>2023-07-19T12:53:31.000Z</time>
      </trkpt>
      <trkpt lat="42.60389" lon="1.86831">
        <ele>2093.3999023438</ele>
        <time>2023-07-19T12:53:40.000Z</time>
      </trkpt>
      <trkpt lat="42.60393" lon="1.86837">
        <ele>2094</ele>
        <time>2023-07-19T12:53:48.000Z</time>
      </trkpt>
      <trkpt lat="42.60392" lon="1.86836">
        <ele>2094</ele>
        <time>2023-07-19T12:53:49.000Z</time>
      </trkpt>
      <trkpt lat="42.60393" lon="1.86831">
        <ele>2093.6000976562</ele>
        <time>2023-07-19T12:53:56.000Z</time>
      </trkpt>
      <trkpt lat="42.60393" lon="1.86828">
        <ele>2093.1999511719</ele>
        <time>2023-07-19T12:54:05.000Z</time>
      </trkpt>
      <trkpt lat="42.60392" lon="1.86831">
        <ele>2093.6000976562</ele>
        <time>2023-07-19T12:54:15.000Z</time>
      </trkpt>
      <trkpt lat="42.6039" lon="1.86832">
        <ele>2093</ele>
        <time>2023-07-19T12:54:23.000Z</time>
      </trkpt>
      <trkpt lat="42.60389" lon="1.8683">
        <ele>2092.1999511719</ele>
        <time>2023-07-19T12:54:30.000Z</time>
      </trkpt>
      <trkpt lat="42.60389" lon="1.86829">
        <ele>2091.6000976562</ele>
        <time>2023-07-19T12:54:32.000Z</time>
      </trkpt>
      <trkpt lat="42.60387" lon="1.86825">
        <ele>2091.1999511719</ele>
        <time>2023-07-19T12:54:35.000Z</time>
      </trkpt>
      <trkpt lat="42.60385" lon="1.86825">
        <ele>2091</ele>
        <time>2023-07-19T12:54:38.000Z</time>
      </trkpt>
      <trkpt lat="42.60383" lon="1.86826">
        <ele>2090</ele>
        <time>2023-07-19T12:54:41.000Z</time>
      </trkpt>
      <trkpt lat="42.60382" lon="1.86826">
        <ele>2089.8000488281</ele>
        <time>2023-07-19T12:54:42.000Z</time>
      </trkpt>
      <trkpt lat="42.60381" lon="1.86829">
        <ele>2088.8000488281</ele>
        <time>2023-07-19T12:54:46.000Z</time>
      </trkpt>
      <trkpt lat="42.6038" lon="1.86833">
        <ele>2087.6000976562</ele>
        <time>2023-07-19T12:54:51.000Z</time>
      </trkpt>
      <trkpt lat="42.60379" lon="1.86832">
        <ele>2087.1999511719</ele>
        <time>2023-07-19T12:54:54.000Z</time>
      </trkpt>
      <trkpt lat="42.60379" lon="1.86832">
        <ele>2087</ele>
        <time>2023-07-19T12:54:55.000Z</time>
      </trkpt>
      <trkpt lat="42.6038" lon="1.86828">
        <ele>2086.6000976562</ele>
        <time>2023-07-19T12:54:58.000Z</time>
      </trkpt>
      <trkpt lat="42.60379" lon="1.86826">
        <ele>2085.6000976562</ele>
        <time>2023-07-19T12:55:02.000Z</time>
      </trkpt>
      <trkpt lat="42.60379" lon="1.86825">
        <ele>2085.1999511719</ele>
        <time>2023-07-19T12:55:03.000Z</time>
      </trkpt>
      <trkpt lat="42.60378" lon="1.8682">
        <ele>2084.6000976562</ele>
        <time>2023-07-19T12:55:08.000Z</time>
      </trkpt>
      <trkpt lat="42.60376" lon="1.86821">
        <ele>2084.1999511719</ele>
        <time>2023-07-19T12:55:11.000Z</time>
      </trkpt>
      <trkpt lat="42.60376" lon="1.86821">
        <ele>2084.1999511719</ele>
        <time>2023-07-19T12:55:12.000Z</time>
      </trkpt>
      <trkpt lat="42.60375" lon="1.86821">
        <ele>2084</ele>
        <time>2023-07-19T12:55:14.000Z</time>
      </trkpt>
      <trkpt lat="42.60374" lon="1.86819">
        <ele>2083.6000976562</ele>
        <time>2023-07-19T12:55:15.000Z</time>
      </trkpt>
      <trkpt lat="42.60373" lon="1.86818">
        <ele>2083</ele>
        <time>2023-07-19T12:55:17.000Z</time>
      </trkpt>
      <trkpt lat="42.60372" lon="1.86817">
        <ele>2081.8000488281</ele>
        <time>2023-07-19T12:55:20.000Z</time>
      </trkpt>
      <trkpt lat="42.60372" lon="1.86816">
        <ele>2081.3999023438</ele>
        <time>2023-07-19T12:55:21.000Z</time>
      </trkpt>
      <trkpt lat="42.60371" lon="1.86815">
        <ele>2080.8000488281</ele>
        <time>2023-07-19T12:55:22.000Z</time>
      </trkpt>
      <trkpt lat="42.6037" lon="1.8681">
        <ele>2080.3999023438</ele>
        <time>2023-07-19T12:55:28.000Z</time>
      </trkpt>
      <trkpt lat="42.60368" lon="1.86809">
        <ele>2080.1999511719</ele>
        <time>2023-07-19T12:55:30.000Z</time>
      </trkpt>
      <trkpt lat="42.60367" lon="1.86809">
        <ele>2079.6000976562</ele>
        <time>2023-07-19T12:55:32.000Z</time>
      </trkpt>
      <trkpt lat="42.60366" lon="1.86808">
        <ele>2079</ele>
        <time>2023-07-19T12:55:34.000Z</time>
      </trkpt>
      <trkpt lat="42.60365" lon="1.86808">
        <ele>2078.6000976562</ele>
        <time>2023-07-19T12:55:35.000Z</time>
      </trkpt>
      <trkpt lat="42.6036" lon="1.8681">
        <ele>2074.8000488281</ele>
        <time>2023-07-19T12:55:48.000Z</time>
      </trkpt>
      <trkpt lat="42.60359" lon="1.86812">
        <ele>2074.3999023438</ele>
        <time>2023-07-19T12:55:50.000Z</time>
      </trkpt>
      <trkpt lat="42.60359" lon="1.86814">
        <ele>2073.8000488281</ele>
        <time>2023-07-19T12:55:52.000Z</time>
      </trkpt>
      <trkpt lat="42.60358" lon="1.86815">
        <ele>2072.8000488281</ele>
        <time>2023-07-19T12:55:54.000Z</time>
      </trkpt>
      <trkpt lat="42.60357" lon="1.86819">
        <ele>2072.1999511719</ele>
        <time>2023-07-19T12:55:57.000Z</time>
      </trkpt>
      <trkpt lat="42.60353" lon="1.86822">
        <ele>2071.6000976562</ele>
        <time>2023-07-19T12:56:02.000Z</time>
      </trkpt>
      <trkpt lat="42.60349" lon="1.86824">
        <ele>2070.8000488281</ele>
        <time>2023-07-19T12:56:05.000Z</time>
      </trkpt>
      <trkpt lat="42.60349" lon="1.86823">
        <ele>2070.3999023438</ele>
        <time>2023-07-19T12:56:06.000Z</time>
      </trkpt>
      <trkpt lat="42.60343" lon="1.8682">
        <ele>2069.3999023438</ele>
        <time>2023-07-19T12:56:10.000Z</time>
      </trkpt>
      <trkpt lat="42.60344" lon="1.86819">
        <ele>2069.1999511719</ele>
        <time>2023-07-19T12:56:12.000Z</time>
      </trkpt>
      <trkpt lat="42.60345" lon="1.86811">
        <ele>2069</ele>
        <time>2023-07-19T12:56:18.000Z</time>
      </trkpt>
      <trkpt lat="42.60345" lon="1.86803">
        <ele>2068.8000488281</ele>
        <time>2023-07-19T12:56:26.000Z</time>
      </trkpt>
      <trkpt lat="42.60344" lon="1.86796">
        <ele>2068.1999511719</ele>
        <time>2023-07-19T12:56:33.000Z</time>
      </trkpt>
      <trkpt lat="42.60344" lon="1.86795">
        <ele>2068.1999511719</ele>
        <time>2023-07-19T12:56:34.000Z</time>
      </trkpt>
      <trkpt lat="42.60341" lon="1.86791">
        <ele>2067.6000976562</ele>
        <time>2023-07-19T12:56:40.000Z</time>
      </trkpt>
      <trkpt lat="42.60338" lon="1.86787">
        <ele>2067</ele>
        <time>2023-07-19T12:56:44.000Z</time>
      </trkpt>
      <trkpt lat="42.60337" lon="1.86784">
        <ele>2066.3999023438</ele>
        <time>2023-07-19T12:56:49.000Z</time>
      </trkpt>
      <trkpt lat="42.60337" lon="1.86782">
        <ele>2066</ele>
        <time>2023-07-19T12:56:52.000Z</time>
      </trkpt>
      <trkpt lat="42.60336" lon="1.86776">
        <ele>2064.8000488281</ele>
        <time>2023-07-19T12:56:57.000Z</time>
      </trkpt>
      <trkpt lat="42.60336" lon="1.86775">
        <ele>2064.6000976562</ele>
        <time>2023-07-19T12:56:58.000Z</time>
      </trkpt>
      <trkpt lat="42.60336" lon="1.86774">
        <ele>2063.8000488281</ele>
        <time>2023-07-19T12:57:00.000Z</time>
      </trkpt>
      <trkpt lat="42.60335" lon="1.86768">
        <ele>2062.8000488281</ele>
        <time>2023-07-19T12:57:06.000Z</time>
      </trkpt>
      <trkpt lat="42.60334" lon="1.86765">
        <ele>2062.6000976562</ele>
        <time>2023-07-19T12:57:07.000Z</time>
      </trkpt>
      <trkpt lat="42.60332" lon="1.86763">
        <ele>2061.6000976562</ele>
        <time>2023-07-19T12:57:11.000Z</time>
      </trkpt>
      <trkpt lat="42.60332" lon="1.86763">
        <ele>2061.3999023438</ele>
        <time>2023-07-19T12:57:12.000Z</time>
      </trkpt>
      <trkpt lat="42.60331" lon="1.86763">
        <ele>2061</ele>
        <time>2023-07-19T12:57:14.000Z</time>
      </trkpt>
      <trkpt lat="42.60329" lon="1.86764">
        <ele>2060.8000488281</ele>
        <time>2023-07-19T12:57:15.000Z</time>
      </trkpt>
      <trkpt lat="42.60329" lon="1.86763">
        <ele>2060.3999023438</ele>
        <time>2023-07-19T12:57:16.000Z</time>
      </trkpt>
      <trkpt lat="42.60328" lon="1.86762">
        <ele>2059.6000976562</ele>
        <time>2023-07-19T12:57:18.000Z</time>
      </trkpt>
      <trkpt lat="42.60328" lon="1.86762">
        <ele>2059.1999511719</ele>
        <time>2023-07-19T12:57:19.000Z</time>
      </trkpt>
      <trkpt lat="42.60326" lon="1.86758">
        <ele>2058.8000488281</ele>
        <time>2023-07-19T12:57:21.000Z</time>
      </trkpt>
      <trkpt lat="42.60321" lon="1.86749">
        <ele>2058.1999511719</ele>
        <time>2023-07-19T12:57:27.000Z</time>
      </trkpt>
      <trkpt lat="42.60321" lon="1.86743">
        <ele>2057.1999511719</ele>
        <time>2023-07-19T12:57:31.000Z</time>
      </trkpt>
      <trkpt lat="42.60324" lon="1.86727">
        <ele>2056</ele>
        <time>2023-07-19T12:57:41.000Z</time>
      </trkpt>
      <trkpt lat="42.60328" lon="1.86718">
        <ele>2055</ele>
        <time>2023-07-19T12:57:50.000Z</time>
      </trkpt>
      <trkpt lat="42.60328" lon="1.86713">
        <ele>2054.1999511719</ele>
        <time>2023-07-19T12:57:58.000Z</time>
      </trkpt>
      <trkpt lat="42.60332" lon="1.86714">
        <ele>2053.8000488281</ele>
        <time>2023-07-19T12:58:02.000Z</time>
      </trkpt>
      <trkpt lat="42.60334" lon="1.8671">
        <ele>2052.8000488281</ele>
        <time>2023-07-19T12:58:06.000Z</time>
      </trkpt>
      <trkpt lat="42.60335" lon="1.86709">
        <ele>2052.6000976562</ele>
        <time>2023-07-19T12:58:08.000Z</time>
      </trkpt>
      <trkpt lat="42.60335" lon="1.86709">
        <ele>2052.3999023438</ele>
        <time>2023-07-19T12:58:09.000Z</time>
      </trkpt>
      <trkpt lat="42.60335" lon="1.86706">
        <ele>2051.6000976562</ele>
        <time>2023-07-19T12:58:12.000Z</time>
      </trkpt>
      <trkpt lat="42.60335" lon="1.867">
        <ele>2051.1999511719</ele>
        <time>2023-07-19T12:58:17.000Z</time>
      </trkpt>
      <trkpt lat="42.60336" lon="1.86698">
        <ele>2050.1999511719</ele>
        <time>2023-07-19T12:58:20.000Z</time>
      </trkpt>
      <trkpt lat="42.60337" lon="1.86693">
        <ele>2049</ele>
        <time>2023-07-19T12:58:25.000Z</time>
      </trkpt>
      <trkpt lat="42.60337" lon="1.86693">
        <ele>2048.8000488281</ele>
        <time>2023-07-19T12:58:26.000Z</time>
      </trkpt>
      <trkpt lat="42.60336" lon="1.86686">
        <ele>2048.8000488281</ele>
        <time>2023-07-19T12:58:34.000Z</time>
      </trkpt>
      <trkpt lat="42.60335" lon="1.86684">
        <ele>2048.3999023438</ele>
        <time>2023-07-19T12:58:37.000Z</time>
      </trkpt>
      <trkpt lat="42.60336" lon="1.86684">
        <ele>2048</ele>
        <time>2023-07-19T12:58:39.000Z</time>
      </trkpt>
      <trkpt lat="42.60337" lon="1.86679">
        <ele>2047.1999511719</ele>
        <time>2023-07-19T12:58:44.000Z</time>
      </trkpt>
      <trkpt lat="42.60338" lon="1.86677">
        <ele>2047</ele>
        <time>2023-07-19T12:58:45.000Z</time>
      </trkpt>
      <trkpt lat="42.60339" lon="1.86676">
        <ele>2046</ele>
        <time>2023-07-19T12:58:49.000Z</time>
      </trkpt>
      <trkpt lat="42.6034" lon="1.86675">
        <ele>2045.8000488281</ele>
        <time>2023-07-19T12:58:52.000Z</time>
      </trkpt>
      <trkpt lat="42.60341" lon="1.86672">
        <ele>2044.5999755859</ele>
        <time>2023-07-19T12:58:56.000Z</time>
      </trkpt>
      <trkpt lat="42.60342" lon="1.86674">
        <ele>2043.5999755859</ele>
        <time>2023-07-19T12:59:02.000Z</time>
      </trkpt>
      <trkpt lat="42.60345" lon="1.86661">
        <ele>2039.8000488281</ele>
        <time>2023-07-19T12:59:26.000Z</time>
      </trkpt>
      <trkpt lat="42.60341" lon="1.86657">
        <ele>2039.1999511719</ele>
        <time>2023-07-19T12:59:31.000Z</time>
      </trkpt>
      <trkpt lat="42.60341" lon="1.86653">
        <ele>2038.4000244141</ele>
        <time>2023-07-19T12:59:35.000Z</time>
      </trkpt>
      <trkpt lat="42.60341" lon="1.86652">
        <ele>2038.1999511719</ele>
        <time>2023-07-19T12:59:36.000Z</time>
      </trkpt>
      <trkpt lat="42.60342" lon="1.86649">
        <ele>2037</ele>
        <time>2023-07-19T12:59:42.000Z</time>
      </trkpt>
      <trkpt lat="42.60342" lon="1.86649">
        <ele>2036.5999755859</ele>
        <time>2023-07-19T12:59:43.000Z</time>
      </trkpt>
      <trkpt lat="42.60345" lon="1.86649">
        <ele>2036.1999511719</ele>
        <time>2023-07-19T12:59:49.000Z</time>
      </trkpt>
      <trkpt lat="42.60347" lon="1.86647">
        <ele>2036</ele>
        <time>2023-07-19T12:59:52.000Z</time>
      </trkpt>
      <trkpt lat="42.60349" lon="1.86644">
        <ele>2035.8000488281</ele>
        <time>2023-07-19T12:59:58.000Z</time>
      </trkpt>
      <trkpt lat="42.60348" lon="1.86643">
        <ele>2035.4000244141</ele>
        <time>2023-07-19T13:00:00.000Z</time>
      </trkpt>
      <trkpt lat="42.60347" lon="1.86642">
        <ele>2035</ele>
        <time>2023-07-19T13:00:02.000Z</time>
      </trkpt>
      <trkpt lat="42.60346" lon="1.86641">
        <ele>2034.5999755859</ele>
        <time>2023-07-19T13:00:03.000Z</time>
      </trkpt>
      <trkpt lat="42.60344" lon="1.8664">
        <ele>2034.4000244141</ele>
        <time>2023-07-19T13:00:05.000Z</time>
      </trkpt>
      <trkpt lat="42.6034" lon="1.86636">
        <ele>2033.5999755859</ele>
        <time>2023-07-19T13:00:09.000Z</time>
      </trkpt>
      <trkpt lat="42.60338" lon="1.86626">
        <ele>2032.1999511719</ele>
        <time>2023-07-19T13:00:15.000Z</time>
      </trkpt>
      <trkpt lat="42.60338" lon="1.86624">
        <ele>2031.1999511719</ele>
        <time>2023-07-19T13:00:18.000Z</time>
      </trkpt>
      <trkpt lat="42.60339" lon="1.86623">
        <ele>2030.4000244141</ele>
        <time>2023-07-19T13:00:21.000Z</time>
      </trkpt>
      <trkpt lat="42.6034" lon="1.86623">
        <ele>2030.1999511719</ele>
        <time>2023-07-19T13:00:22.000Z</time>
      </trkpt>
      <trkpt lat="42.60341" lon="1.86617">
        <ele>2029</ele>
        <time>2023-07-19T13:00:28.000Z</time>
      </trkpt>
      <trkpt lat="42.6034" lon="1.86615">
        <ele>2028.5999755859</ele>
        <time>2023-07-19T13:00:30.000Z</time>
      </trkpt>
      <trkpt lat="42.60342" lon="1.86615">
        <ele>2027.8000488281</ele>
        <time>2023-07-19T13:00:36.000Z</time>
      </trkpt>
      <trkpt lat="42.60344" lon="1.86614">
        <ele>2027.4000244141</ele>
        <time>2023-07-19T13:00:39.000Z</time>
      </trkpt>
      <trkpt lat="42.60343" lon="1.86608">
        <ele>2027</ele>
        <time>2023-07-19T13:00:46.000Z</time>
      </trkpt>
      <trkpt lat="42.60344" lon="1.86606">
        <ele>2026.8000488281</ele>
        <time>2023-07-19T13:00:47.000Z</time>
      </trkpt>
      <trkpt lat="42.60342" lon="1.86599">
        <ele>2025.8000488281</ele>
        <time>2023-07-19T13:00:52.000Z</time>
      </trkpt>
      <trkpt lat="42.60342" lon="1.86598">
        <ele>2025.5999755859</ele>
        <time>2023-07-19T13:00:53.000Z</time>
      </trkpt>
      <trkpt lat="42.60342" lon="1.86596">
        <ele>2024.4000244141</ele>
        <time>2023-07-19T13:00:57.000Z</time>
      </trkpt>
      <trkpt lat="42.60342" lon="1.86593">
        <ele>2023.8000488281</ele>
        <time>2023-07-19T13:01:00.000Z</time>
      </trkpt>
      <trkpt lat="42.60342" lon="1.86591">
        <ele>2023.1999511719</ele>
        <time>2023-07-19T13:01:03.000Z</time>
      </trkpt>
      <trkpt lat="42.60342" lon="1.86587">
        <ele>2022</ele>
        <time>2023-07-19T13:01:06.000Z</time>
      </trkpt>
      <trkpt lat="42.60341" lon="1.86585">
        <ele>2021.1999511719</ele>
        <time>2023-07-19T13:01:10.000Z</time>
      </trkpt>
      <trkpt lat="42.60341" lon="1.86584">
        <ele>2021</ele>
        <time>2023-07-19T13:01:11.000Z</time>
      </trkpt>
      <trkpt lat="42.60341" lon="1.86585">
        <ele>2020</ele>
        <time>2023-07-19T13:01:14.000Z</time>
      </trkpt>
      <trkpt lat="42.6034" lon="1.86583">
        <ele>2019.8000488281</ele>
        <time>2023-07-19T13:01:15.000Z</time>
      </trkpt>
      <trkpt lat="42.6034" lon="1.86583">
        <ele>2019.4000244141</ele>
        <time>2023-07-19T13:01:16.000Z</time>
      </trkpt>
      <trkpt lat="42.60339" lon="1.86581">
        <ele>2019.1999511719</ele>
        <time>2023-07-19T13:01:18.000Z</time>
      </trkpt>
      <trkpt lat="42.60337" lon="1.86581">
        <ele>2018.8000488281</ele>
        <time>2023-07-19T13:01:20.000Z</time>
      </trkpt>
      <trkpt lat="42.60336" lon="1.8658">
        <ele>2018.5999755859</ele>
        <time>2023-07-19T13:01:21.000Z</time>
      </trkpt>
      <trkpt lat="42.60334" lon="1.86578">
        <ele>2017.8000488281</ele>
        <time>2023-07-19T13:01:24.000Z</time>
      </trkpt>
      <trkpt lat="42.60326" lon="1.86563">
        <ele>2016.1999511719</ele>
        <time>2023-07-19T13:01:45.000Z</time>
      </trkpt>
      <trkpt lat="42.60327" lon="1.86564">
        <ele>2015.1999511719</ele>
        <time>2023-07-19T13:01:49.000Z</time>
      </trkpt>
      <trkpt lat="42.60327" lon="1.86562">
        <ele>2014.8000488281</ele>
        <time>2023-07-19T13:01:51.000Z</time>
      </trkpt>
      <trkpt lat="42.60324" lon="1.86554">
        <ele>2013.1999511719</ele>
        <time>2023-07-19T13:02:00.000Z</time>
      </trkpt>
      <trkpt lat="42.60317" lon="1.86546">
        <ele>2013.1999511719</ele>
        <time>2023-07-19T13:02:05.000Z</time>
      </trkpt>
      <trkpt lat="42.60311" lon="1.86539">
        <ele>2012.4000244141</ele>
        <time>2023-07-19T13:02:12.000Z</time>
      </trkpt>
      <trkpt lat="42.6031" lon="1.86537">
        <ele>2011.8000488281</ele>
        <time>2023-07-19T13:02:13.000Z</time>
      </trkpt>
      <trkpt lat="42.60306" lon="1.86533">
        <ele>2010.5999755859</ele>
        <time>2023-07-19T13:02:17.000Z</time>
      </trkpt>
      <trkpt lat="42.60305" lon="1.86531">
        <ele>2010</ele>
        <time>2023-07-19T13:02:20.000Z</time>
      </trkpt>
      <trkpt lat="42.60301" lon="1.86524">
        <ele>2009.1999511719</ele>
        <time>2023-07-19T13:02:26.000Z</time>
      </trkpt>
      <trkpt lat="42.60301" lon="1.86522">
        <ele>2008.8000488281</ele>
        <time>2023-07-19T13:02:27.000Z</time>
      </trkpt>
      <trkpt lat="42.60299" lon="1.86518">
        <ele>2008.1999511719</ele>
        <time>2023-07-19T13:02:32.000Z</time>
      </trkpt>
      <trkpt lat="42.60298" lon="1.86517">
        <ele>2008</ele>
        <time>2023-07-19T13:02:35.000Z</time>
      </trkpt>
      <trkpt lat="42.60296" lon="1.86512">
        <ele>2007.1999511719</ele>
        <time>2023-07-19T13:02:41.000Z</time>
      </trkpt>
      <trkpt lat="42.60296" lon="1.8651">
        <ele>2006.8000488281</ele>
        <time>2023-07-19T13:02:42.000Z</time>
      </trkpt>
      <trkpt lat="42.60295" lon="1.86508">
        <ele>2006</ele>
        <time>2023-07-19T13:02:45.000Z</time>
      </trkpt>
      <trkpt lat="42.60295" lon="1.86506">
        <ele>2005</ele>
        <time>2023-07-19T13:02:47.000Z</time>
      </trkpt>
      <trkpt lat="42.60296" lon="1.86503">
        <ele>2002.4000244141</ele>
        <time>2023-07-19T13:02:57.000Z</time>
      </trkpt>
      <trkpt lat="42.60299" lon="1.86505">
        <ele>2001.5999755859</ele>
        <time>2023-07-19T13:02:59.000Z</time>
      </trkpt>
      <trkpt lat="42.60299" lon="1.86505">
        <ele>2001.1999511719</ele>
        <time>2023-07-19T13:03:00.000Z</time>
      </trkpt>
      <trkpt lat="42.60301" lon="1.86506">
        <ele>2000.4000244141</ele>
        <time>2023-07-19T13:03:02.000Z</time>
      </trkpt>
      <trkpt lat="42.60304" lon="1.86507">
        <ele>1999.1999511719</ele>
        <time>2023-07-19T13:03:06.000Z</time>
      </trkpt>
      <trkpt lat="42.60306" lon="1.86506">
        <ele>1998.8000488281</ele>
        <time>2023-07-19T13:03:09.000Z</time>
      </trkpt>
      <trkpt lat="42.60307" lon="1.86499">
        <ele>1998.8000488281</ele>
        <time>2023-07-19T13:03:12.000Z</time>
      </trkpt>
      <trkpt lat="42.60305" lon="1.86492">
        <ele>1998.5999755859</ele>
        <time>2023-07-19T13:03:16.000Z</time>
      </trkpt>
      <trkpt lat="42.60302" lon="1.86488">
        <ele>1998.1999511719</ele>
        <time>2023-07-19T13:03:18.000Z</time>
      </trkpt>
      <trkpt lat="42.60295" lon="1.8648">
        <ele>1997.4000244141</ele>
        <time>2023-07-19T13:03:23.000Z</time>
      </trkpt>
      <trkpt lat="42.60294" lon="1.86477">
        <ele>1997.1999511719</ele>
        <time>2023-07-19T13:03:26.000Z</time>
      </trkpt>
      <trkpt lat="42.60293" lon="1.86473">
        <ele>1994.4000244141</ele>
        <time>2023-07-19T13:03:34.000Z</time>
      </trkpt>
      <trkpt lat="42.60294" lon="1.86468">
        <ele>1994</ele>
        <time>2023-07-19T13:03:36.000Z</time>
      </trkpt>
      <trkpt lat="42.60294" lon="1.8647">
        <ele>1993.5999755859</ele>
        <time>2023-07-19T13:03:41.000Z</time>
      </trkpt>
      <trkpt lat="42.60293" lon="1.86469">
        <ele>1993.5999755859</ele>
        <time>2023-07-19T13:03:42.000Z</time>
      </trkpt>
      <trkpt lat="42.60293" lon="1.86466">
        <ele>1992.5999755859</ele>
        <time>2023-07-19T13:03:45.000Z</time>
      </trkpt>
      <trkpt lat="42.60292" lon="1.86463">
        <ele>1991.4000244141</ele>
        <time>2023-07-19T13:03:49.000Z</time>
      </trkpt>
      <trkpt lat="42.6029" lon="1.86461">
        <ele>1990.4000244141</ele>
        <time>2023-07-19T13:03:54.000Z</time>
      </trkpt>
      <trkpt lat="42.6029" lon="1.86459">
        <ele>1990.1999511719</ele>
        <time>2023-07-19T13:03:56.000Z</time>
      </trkpt>
      <trkpt lat="42.60288" lon="1.8646">
        <ele>1989.1999511719</ele>
        <time>2023-07-19T13:04:02.000Z</time>
      </trkpt>
      <trkpt lat="42.60287" lon="1.86461">
        <ele>1988.8000488281</ele>
        <time>2023-07-19T13:04:03.000Z</time>
      </trkpt>
      <trkpt lat="42.60284" lon="1.86464">
        <ele>1987.8000488281</ele>
        <time>2023-07-19T13:04:07.000Z</time>
      </trkpt>
      <trkpt lat="42.60284" lon="1.86466">
        <ele>1987.4000244141</ele>
        <time>2023-07-19T13:04:10.000Z</time>
      </trkpt>
      <trkpt lat="42.60282" lon="1.86467">
        <ele>1986.8000488281</ele>
        <time>2023-07-19T13:04:15.000Z</time>
      </trkpt>
      <trkpt lat="42.6028" lon="1.86468">
        <ele>1986.1999511719</ele>
        <time>2023-07-19T13:04:18.000Z</time>
      </trkpt>
      <trkpt lat="42.60277" lon="1.8647">
        <ele>1985.5999755859</ele>
        <time>2023-07-19T13:04:22.000Z</time>
      </trkpt>
      <trkpt lat="42.60275" lon="1.86473">
        <ele>1985</ele>
        <time>2023-07-19T13:04:26.000Z</time>
      </trkpt>
      <trkpt lat="42.60269" lon="1.86478">
        <ele>1984.4000244141</ele>
        <time>2023-07-19T13:04:35.000Z</time>
      </trkpt>
      <trkpt lat="42.60268" lon="1.86477">
        <ele>1984.4000244141</ele>
        <time>2023-07-19T13:04:37.000Z</time>
      </trkpt>
      <trkpt lat="42.60258" lon="1.86466">
        <ele>1985</ele>
        <time>2023-07-19T13:04:46.000Z</time>
      </trkpt>
      <trkpt lat="42.60256" lon="1.86463">
        <ele>1985</ele>
        <time>2023-07-19T13:04:48.000Z</time>
      </trkpt>
      <trkpt lat="42.60252" lon="1.86449">
        <ele>1983.8000488281</ele>
        <time>2023-07-19T13:04:59.000Z</time>
      </trkpt>
      <trkpt lat="42.60252" lon="1.86447">
        <ele>1983.4000244141</ele>
        <time>2023-07-19T13:05:01.000Z</time>
      </trkpt>
      <trkpt lat="42.60252" lon="1.86444">
        <ele>1983.1999511719</ele>
        <time>2023-07-19T13:05:03.000Z</time>
      </trkpt>
      <trkpt lat="42.60252" lon="1.86443">
        <ele>1983</ele>
        <time>2023-07-19T13:05:05.000Z</time>
      </trkpt>
      <trkpt lat="42.60258" lon="1.86441">
        <ele>1982.5999755859</ele>
        <time>2023-07-19T13:05:10.000Z</time>
      </trkpt>
      <trkpt lat="42.6026" lon="1.86441">
        <ele>1982.1999511719</ele>
        <time>2023-07-19T13:05:12.000Z</time>
      </trkpt>
      <trkpt lat="42.60262" lon="1.86438">
        <ele>1982.1999511719</ele>
        <time>2023-07-19T13:05:17.000Z</time>
      </trkpt>
      <trkpt lat="42.60263" lon="1.86429">
        <ele>1982.1999511719</ele>
        <time>2023-07-19T13:05:25.000Z</time>
      </trkpt>
      <trkpt lat="42.60261" lon="1.86422">
        <ele>1982</ele>
        <time>2023-07-19T13:05:31.000Z</time>
      </trkpt>
      <trkpt lat="42.60259" lon="1.86412">
        <ele>1982.1999511719</ele>
        <time>2023-07-19T13:05:39.000Z</time>
      </trkpt>
      <trkpt lat="42.60256" lon="1.864">
        <ele>1981.8000488281</ele>
        <time>2023-07-19T13:05:49.000Z</time>
      </trkpt>
      <trkpt lat="42.60254" lon="1.86389">
        <ele>1982.1999511719</ele>
        <time>2023-07-19T13:05:57.000Z</time>
      </trkpt>
      <trkpt lat="42.6025" lon="1.86381">
        <ele>1982.5999755859</ele>
        <time>2023-07-19T13:06:03.000Z</time>
      </trkpt>
      <trkpt lat="42.60243" lon="1.86375">
        <ele>1982.5999755859</ele>
        <time>2023-07-19T13:06:10.000Z</time>
      </trkpt>
      <trkpt lat="42.60238" lon="1.86367">
        <ele>1982.5999755859</ele>
        <time>2023-07-19T13:06:16.000Z</time>
      </trkpt>
      <trkpt lat="42.60238" lon="1.86361">
        <ele>1983.1999511719</ele>
        <time>2023-07-19T13:06:24.000Z</time>
      </trkpt>
      <trkpt lat="42.60237" lon="1.86357">
        <ele>1983.1999511719</ele>
        <time>2023-07-19T13:06:27.000Z</time>
      </trkpt>
      <trkpt lat="42.60233" lon="1.8635">
        <ele>1984</ele>
        <time>2023-07-19T13:06:34.000Z</time>
      </trkpt>
      <trkpt lat="42.60232" lon="1.86346">
        <ele>1984.5999755859</ele>
        <time>2023-07-19T13:06:38.000Z</time>
      </trkpt>
      <trkpt lat="42.60226" lon="1.86323">
        <ele>1984.1999511719</ele>
        <time>2023-07-19T13:06:52.000Z</time>
      </trkpt>
      <trkpt lat="42.60223" lon="1.86299">
        <ele>1985.4000244141</ele>
        <time>2023-07-19T13:07:19.000Z</time>
      </trkpt>
      <trkpt lat="42.60224" lon="1.86291">
        <ele>1984.4000244141</ele>
        <time>2023-07-19T13:07:24.000Z</time>
      </trkpt>
      <trkpt lat="42.60225" lon="1.86287">
        <ele>1984.1999511719</ele>
        <time>2023-07-19T13:07:28.000Z</time>
      </trkpt>
      <trkpt lat="42.60231" lon="1.86277">
        <ele>1984.4000244141</ele>
        <time>2023-07-19T13:07:37.000Z</time>
      </trkpt>
      <trkpt lat="42.60231" lon="1.8627">
        <ele>1983.8000488281</ele>
        <time>2023-07-19T13:07:45.000Z</time>
      </trkpt>
      <trkpt lat="42.60229" lon="1.86265">
        <ele>1984.1999511719</ele>
        <time>2023-07-19T13:07:54.000Z</time>
      </trkpt>
      <trkpt lat="42.60226" lon="1.86261">
        <ele>1984.1999511719</ele>
        <time>2023-07-19T13:07:58.000Z</time>
      </trkpt>
      <trkpt lat="42.60221" lon="1.86253">
        <ele>1984.4000244141</ele>
        <time>2023-07-19T13:08:06.000Z</time>
      </trkpt>
      <trkpt lat="42.60217" lon="1.86245">
        <ele>1984.4000244141</ele>
        <time>2023-07-19T13:08:13.000Z</time>
      </trkpt>
      <trkpt lat="42.60215" lon="1.86247">
        <ele>1984</ele>
        <time>2023-07-19T13:08:21.000Z</time>
      </trkpt>
      <trkpt lat="42.60214" lon="1.86246">
        <ele>1985.1999511719</ele>
        <time>2023-07-19T13:08:26.000Z</time>
      </trkpt>
      <trkpt lat="42.60212" lon="1.86243">
        <ele>1985.5999755859</ele>
        <time>2023-07-19T13:08:32.000Z</time>
      </trkpt>
      <trkpt lat="42.6021" lon="1.86233">
        <ele>1985.1999511719</ele>
        <time>2023-07-19T13:08:42.000Z</time>
      </trkpt>
      <trkpt lat="42.60208" lon="1.86227">
        <ele>1986</ele>
        <time>2023-07-19T13:08:49.000Z</time>
      </trkpt>
      <trkpt lat="42.60208" lon="1.8622">
        <ele>1985</ele>
        <time>2023-07-19T13:08:57.000Z</time>
      </trkpt>
      <trkpt lat="42.60209" lon="1.86218">
        <ele>1984.8000488281</ele>
        <time>2023-07-19T13:09:03.000Z</time>
      </trkpt>
      <trkpt lat="42.60209" lon="1.86222">
        <ele>1984.1999511719</ele>
        <time>2023-07-19T13:09:09.000Z</time>
      </trkpt>
      <trkpt lat="42.6021" lon="1.86223">
        <ele>1984.5999755859</ele>
        <time>2023-07-19T13:09:17.000Z</time>
      </trkpt>
      <trkpt lat="42.60209" lon="1.86223">
        <ele>1985</ele>
        <time>2023-07-19T13:09:25.000Z</time>
      </trkpt>
      <trkpt lat="42.60205" lon="1.86221">
        <ele>1985.4000244141</ele>
        <time>2023-07-19T13:09:32.000Z</time>
      </trkpt>
      <trkpt lat="42.60203" lon="1.86205">
        <ele>1985.1999511719</ele>
        <time>2023-07-19T13:09:39.000Z</time>
      </trkpt>
      <trkpt lat="42.602" lon="1.86203">
        <ele>1985.1999511719</ele>
        <time>2023-07-19T13:09:43.000Z</time>
      </trkpt>
      <trkpt lat="42.602" lon="1.862">
        <ele>1985.1999511719</ele>
        <time>2023-07-19T13:09:45.000Z</time>
      </trkpt>
      <trkpt lat="42.60201" lon="1.86201">
        <ele>1985.1999511719</ele>
        <time>2023-07-19T13:09:50.000Z</time>
      </trkpt>
      <trkpt lat="42.60202" lon="1.86197">
        <ele>1985</ele>
        <time>2023-07-19T13:09:57.000Z</time>
      </trkpt>
      <trkpt lat="42.60202" lon="1.86188">
        <ele>1983.5999755859</ele>
        <time>2023-07-19T13:10:04.000Z</time>
      </trkpt>
      <trkpt lat="42.60201" lon="1.86187">
        <ele>1983.4000244141</ele>
        <time>2023-07-19T13:10:05.000Z</time>
      </trkpt>
      <trkpt lat="42.60203" lon="1.86184">
        <ele>1982.1999511719</ele>
        <time>2023-07-19T13:10:10.000Z</time>
      </trkpt>
      <trkpt lat="42.60204" lon="1.86183">
        <ele>1982</ele>
        <time>2023-07-19T13:10:11.000Z</time>
      </trkpt>
      <trkpt lat="42.60206" lon="1.86182">
        <ele>1981</ele>
        <time>2023-07-19T13:10:14.000Z</time>
      </trkpt>
      <trkpt lat="42.60207" lon="1.86181">
        <ele>1980.1999511719</ele>
        <time>2023-07-19T13:10:18.000Z</time>
      </trkpt>
      <trkpt lat="42.60208" lon="1.8618">
        <ele>1979.8000488281</ele>
        <time>2023-07-19T13:10:19.000Z</time>
      </trkpt>
      <trkpt lat="42.60207" lon="1.86173">
        <ele>1979.1999511719</ele>
        <time>2023-07-19T13:10:25.000Z</time>
      </trkpt>
      <trkpt lat="42.60208" lon="1.86169">
        <ele>1979.5999755859</ele>
        <time>2023-07-19T13:10:32.000Z</time>
      </trkpt>
      <trkpt lat="42.60208" lon="1.86163">
        <ele>1979.8000488281</ele>
        <time>2023-07-19T13:10:38.000Z</time>
      </trkpt>
      <trkpt lat="42.60207" lon="1.86156">
        <ele>1980.1999511719</ele>
        <time>2023-07-19T13:10:44.000Z</time>
      </trkpt>
      <trkpt lat="42.60208" lon="1.86148">
        <ele>1980.4000244141</ele>
        <time>2023-07-19T13:10:51.000Z</time>
      </trkpt>
      <trkpt lat="42.60209" lon="1.86139">
        <ele>1980.4000244141</ele>
        <time>2023-07-19T13:10:58.000Z</time>
      </trkpt>
      <trkpt lat="42.6021" lon="1.8613">
        <ele>1980.8000488281</ele>
        <time>2023-07-19T13:11:05.000Z</time>
      </trkpt>
      <trkpt lat="42.60209" lon="1.86123">
        <ele>1981</ele>
        <time>2023-07-19T13:11:13.000Z</time>
      </trkpt>
      <trkpt lat="42.60209" lon="1.86122">
        <ele>1981</ele>
        <time>2023-07-19T13:11:14.000Z</time>
      </trkpt>
      <trkpt lat="42.60208" lon="1.86111">
        <ele>1980.8000488281</ele>
        <time>2023-07-19T13:11:23.000Z</time>
      </trkpt>
      <trkpt lat="42.60208" lon="1.86101">
        <ele>1981</ele>
        <time>2023-07-19T13:11:30.000Z</time>
      </trkpt>
      <trkpt lat="42.6021" lon="1.86096">
        <ele>1982</ele>
        <time>2023-07-19T13:11:37.000Z</time>
      </trkpt>
      <trkpt lat="42.60211" lon="1.86095">
        <ele>1982.1999511719</ele>
        <time>2023-07-19T13:11:38.000Z</time>
      </trkpt>
      <trkpt lat="42.60213" lon="1.86086">
        <ele>1983</ele>
        <time>2023-07-19T13:11:47.000Z</time>
      </trkpt>
      <trkpt lat="42.60214" lon="1.86084">
        <ele>1983.1999511719</ele>
        <time>2023-07-19T13:11:49.000Z</time>
      </trkpt>
      <trkpt lat="42.60214" lon="1.86076">
        <ele>1983.8000488281</ele>
        <time>2023-07-19T13:11:54.000Z</time>
      </trkpt>
      <trkpt lat="42.60212" lon="1.8607">
        <ele>1983.8000488281</ele>
        <time>2023-07-19T13:12:01.000Z</time>
      </trkpt>
      <trkpt lat="42.6021" lon="1.86068">
        <ele>1984.5999755859</ele>
        <time>2023-07-19T13:12:05.000Z</time>
      </trkpt>
      <trkpt lat="42.60208" lon="1.86066">
        <ele>1984.8000488281</ele>
        <time>2023-07-19T13:12:08.000Z</time>
      </trkpt>
      <trkpt lat="42.60202" lon="1.86057">
        <ele>1985</ele>
        <time>2023-07-19T13:12:16.000Z</time>
      </trkpt>
      <trkpt lat="42.60198" lon="1.86043">
        <ele>1983.8000488281</ele>
        <time>2023-07-19T13:12:26.000Z</time>
      </trkpt>
      <trkpt lat="42.60197" lon="1.86038">
        <ele>1983.5999755859</ele>
        <time>2023-07-19T13:12:30.000Z</time>
      </trkpt>
      <trkpt lat="42.60195" lon="1.86032">
        <ele>1983.1999511719</ele>
        <time>2023-07-19T13:12:36.000Z</time>
      </trkpt>
      <trkpt lat="42.60194" lon="1.86024">
        <ele>1983.4000244141</ele>
        <time>2023-07-19T13:12:43.000Z</time>
      </trkpt>
      <trkpt lat="42.60193" lon="1.86019">
        <ele>1983.1999511719</ele>
        <time>2023-07-19T13:12:50.000Z</time>
      </trkpt>
      <trkpt lat="42.60193" lon="1.86015">
        <ele>1983.1999511719</ele>
        <time>2023-07-19T13:12:57.000Z</time>
      </trkpt>
      <trkpt lat="42.60194" lon="1.86008">
        <ele>1983</ele>
        <time>2023-07-19T13:13:05.000Z</time>
      </trkpt>
      <trkpt lat="42.60192" lon="1.86003">
        <ele>1982.8000488281</ele>
        <time>2023-07-19T13:13:12.000Z</time>
      </trkpt>
      <trkpt lat="42.6019" lon="1.86001">
        <ele>1983.1999511719</ele>
        <time>2023-07-19T13:13:18.000Z</time>
      </trkpt>
      <trkpt lat="42.60184" lon="1.85994">
        <ele>1983.5999755859</ele>
        <time>2023-07-19T13:13:27.000Z</time>
      </trkpt>
      <trkpt lat="42.6018" lon="1.85987">
        <ele>1984.4000244141</ele>
        <time>2023-07-19T13:13:35.000Z</time>
      </trkpt>
      <trkpt lat="42.60179" lon="1.85985">
        <ele>1984.5999755859</ele>
        <time>2023-07-19T13:13:37.000Z</time>
      </trkpt>
      <trkpt lat="42.60176" lon="1.85982">
        <ele>1985.5999755859</ele>
        <time>2023-07-19T13:13:43.000Z</time>
      </trkpt>
      <trkpt lat="42.60173" lon="1.85978">
        <ele>1986.5999755859</ele>
        <time>2023-07-19T13:13:49.000Z</time>
      </trkpt>
      <trkpt lat="42.60172" lon="1.85972">
        <ele>1986</ele>
        <time>2023-07-19T13:13:58.000Z</time>
      </trkpt>
      <trkpt lat="42.6017" lon="1.85963">
        <ele>1984.8000488281</ele>
        <time>2023-07-19T13:14:07.000Z</time>
      </trkpt>
      <trkpt lat="42.60167" lon="1.85957">
        <ele>1985.1999511719</ele>
        <time>2023-07-19T13:14:16.000Z</time>
      </trkpt>
      <trkpt lat="42.60165" lon="1.85954">
        <ele>1985</ele>
        <time>2023-07-19T13:14:22.000Z</time>
      </trkpt>
      <trkpt lat="42.60164" lon="1.85953">
        <ele>1985.5999755859</ele>
        <time>2023-07-19T13:14:31.000Z</time>
      </trkpt>
      <trkpt lat="42.60166" lon="1.85951">
        <ele>1985.1999511719</ele>
        <time>2023-07-19T13:14:39.000Z</time>
      </trkpt>
      <trkpt lat="42.60159" lon="1.8595">
        <ele>1986.1999511719</ele>
        <time>2023-07-19T13:14:50.000Z</time>
      </trkpt>
      <trkpt lat="42.60152" lon="1.85952">
        <ele>1986.5999755859</ele>
        <time>2023-07-19T13:14:55.000Z</time>
      </trkpt>
      <trkpt lat="42.60152" lon="1.85952">
        <ele>1987</ele>
        <time>2023-07-19T13:14:57.000Z</time>
      </trkpt>
      <trkpt lat="42.60149" lon="1.85953">
        <ele>1988.5999755859</ele>
        <time>2023-07-19T13:15:07.000Z</time>
      </trkpt>
      <trkpt lat="42.60148" lon="1.85953">
        <ele>1988.8000488281</ele>
        <time>2023-07-19T13:15:08.000Z</time>
      </trkpt>
      <trkpt lat="42.60147" lon="1.85951">
        <ele>1990</ele>
        <time>2023-07-19T13:15:15.000Z</time>
      </trkpt>
      <trkpt lat="42.60147" lon="1.8595">
        <ele>1990.4000244141</ele>
        <time>2023-07-19T13:15:16.000Z</time>
      </trkpt>
      <trkpt lat="42.60146" lon="1.8595">
        <ele>1990.5999755859</ele>
        <time>2023-07-19T13:15:22.000Z</time>
      </trkpt>
      <trkpt lat="42.60145" lon="1.85949">
        <ele>1991</ele>
        <time>2023-07-19T13:15:26.000Z</time>
      </trkpt>
      <trkpt lat="42.60138" lon="1.85949">
        <ele>1991.8000488281</ele>
        <time>2023-07-19T13:15:36.000Z</time>
      </trkpt>
      <trkpt lat="42.60134" lon="1.85942">
        <ele>1992.8000488281</ele>
        <time>2023-07-19T13:15:43.000Z</time>
      </trkpt>
      <trkpt lat="42.60133" lon="1.85942">
        <ele>1993.1999511719</ele>
        <time>2023-07-19T13:15:44.000Z</time>
      </trkpt>
      <trkpt lat="42.60128" lon="1.85935">
        <ele>1994.5999755859</ele>
        <time>2023-07-19T13:15:55.000Z</time>
      </trkpt>
      <trkpt lat="42.60127" lon="1.85931">
        <ele>1995.1999511719</ele>
        <time>2023-07-19T13:16:00.000Z</time>
      </trkpt>
      <trkpt lat="42.60127" lon="1.85927">
        <ele>1995.8000488281</ele>
        <time>2023-07-19T13:16:04.000Z</time>
      </trkpt>
      <trkpt lat="42.60126" lon="1.85922">
        <ele>1996.1999511719</ele>
        <time>2023-07-19T13:16:10.000Z</time>
      </trkpt>
      <trkpt lat="42.60126" lon="1.85921">
        <ele>1996.4000244141</ele>
        <time>2023-07-19T13:16:11.000Z</time>
      </trkpt>
      <trkpt lat="42.60122" lon="1.85912">
        <ele>1996.5999755859</ele>
        <time>2023-07-19T13:16:21.000Z</time>
      </trkpt>
      <trkpt lat="42.60117" lon="1.85907">
        <ele>1997.4000244141</ele>
        <time>2023-07-19T13:16:28.000Z</time>
      </trkpt>
      <trkpt lat="42.60116" lon="1.85906">
        <ele>1997.5999755859</ele>
        <time>2023-07-19T13:16:29.000Z</time>
      </trkpt>
      <trkpt lat="42.60113" lon="1.85899">
        <ele>1997.1999511719</ele>
        <time>2023-07-19T13:16:37.000Z</time>
      </trkpt>
      <trkpt lat="42.60105" lon="1.85889">
        <ele>1997</ele>
        <time>2023-07-19T13:16:47.000Z</time>
      </trkpt>
      <trkpt lat="42.60099" lon="1.85881">
        <ele>1997.1999511719</ele>
        <time>2023-07-19T13:16:55.000Z</time>
      </trkpt>
      <trkpt lat="42.60095" lon="1.85878">
        <ele>1997.8000488281</ele>
        <time>2023-07-19T13:17:04.000Z</time>
      </trkpt>
      <trkpt lat="42.60086" lon="1.85877">
        <ele>1997.1999511719</ele>
        <time>2023-07-19T13:17:14.000Z</time>
      </trkpt>
      <trkpt lat="42.60068" lon="1.85865">
        <ele>1996</ele>
        <time>2023-07-19T13:17:38.000Z</time>
      </trkpt>
      <trkpt lat="42.60067" lon="1.85863">
        <ele>1996</ele>
        <time>2023-07-19T13:17:41.000Z</time>
      </trkpt>
      <trkpt lat="42.60064" lon="1.85856">
        <ele>1995.4000244141</ele>
        <time>2023-07-19T13:17:48.000Z</time>
      </trkpt>
      <trkpt lat="42.60063" lon="1.85853">
        <ele>1995.5999755859</ele>
        <time>2023-07-19T13:17:53.000Z</time>
      </trkpt>
      <trkpt lat="42.60062" lon="1.85846">
        <ele>1995.5999755859</ele>
        <time>2023-07-19T13:17:57.000Z</time>
      </trkpt>
      <trkpt lat="42.60061" lon="1.85839">
        <ele>1995.4000244141</ele>
        <time>2023-07-19T13:18:01.000Z</time>
      </trkpt>
      <trkpt lat="42.6006" lon="1.85832">
        <ele>1995.1999511719</ele>
        <time>2023-07-19T13:18:06.000Z</time>
      </trkpt>
      <trkpt lat="42.6006" lon="1.85824">
        <ele>1995.8000488281</ele>
        <time>2023-07-19T13:18:12.000Z</time>
      </trkpt>
      <trkpt lat="42.60059" lon="1.85814">
        <ele>1996.1999511719</ele>
        <time>2023-07-19T13:18:20.000Z</time>
      </trkpt>
      <trkpt lat="42.60063" lon="1.85809">
        <ele>1996.4000244141</ele>
        <time>2023-07-19T13:18:28.000Z</time>
      </trkpt>
      <trkpt lat="42.60068" lon="1.85805">
        <ele>1994.8000488281</ele>
        <time>2023-07-19T13:18:37.000Z</time>
      </trkpt>
      <trkpt lat="42.60069" lon="1.85804">
        <ele>1994</ele>
        <time>2023-07-19T13:18:39.000Z</time>
      </trkpt>
      <trkpt lat="42.60069" lon="1.85798">
        <ele>1993.5999755859</ele>
        <time>2023-07-19T13:18:45.000Z</time>
      </trkpt>
      <trkpt lat="42.60067" lon="1.85792">
        <ele>1993</ele>
        <time>2023-07-19T13:18:48.000Z</time>
      </trkpt>
      <trkpt lat="42.60064" lon="1.85788">
        <ele>1992.5999755859</ele>
        <time>2023-07-19T13:18:53.000Z</time>
      </trkpt>
      <trkpt lat="42.60061" lon="1.85783">
        <ele>1992</ele>
        <time>2023-07-19T13:18:59.000Z</time>
      </trkpt>
      <trkpt lat="42.60059" lon="1.8578">
        <ele>1990.8000488281</ele>
        <time>2023-07-19T13:19:02.000Z</time>
      </trkpt>
      <trkpt lat="42.60058" lon="1.85779">
        <ele>1990.4000244141</ele>
        <time>2023-07-19T13:19:03.000Z</time>
      </trkpt>
      <trkpt lat="42.60056" lon="1.85777">
        <ele>1989.8000488281</ele>
        <time>2023-07-19T13:19:05.000Z</time>
      </trkpt>
      <trkpt lat="42.60055" lon="1.85766">
        <ele>1989.1999511719</ele>
        <time>2023-07-19T13:19:11.000Z</time>
      </trkpt>
      <trkpt lat="42.60054" lon="1.85761">
        <ele>1988.8000488281</ele>
        <time>2023-07-19T13:19:17.000Z</time>
      </trkpt>
      <trkpt lat="42.60051" lon="1.85758">
        <ele>1988.4000244141</ele>
        <time>2023-07-19T13:19:20.000Z</time>
      </trkpt>
      <trkpt lat="42.60036" lon="1.85746">
        <ele>1988.8000488281</ele>
        <time>2023-07-19T13:19:38.000Z</time>
      </trkpt>
      <trkpt lat="42.60035" lon="1.85744">
        <ele>1989.8000488281</ele>
        <time>2023-07-19T13:19:43.000Z</time>
      </trkpt>
      <trkpt lat="42.60034" lon="1.85742">
        <ele>1990.5999755859</ele>
        <time>2023-07-19T13:19:46.000Z</time>
      </trkpt>
      <trkpt lat="42.60033" lon="1.85742">
        <ele>1990.8000488281</ele>
        <time>2023-07-19T13:19:47.000Z</time>
      </trkpt>
      <trkpt lat="42.60022" lon="1.85731">
        <ele>1991</ele>
        <time>2023-07-19T13:19:59.000Z</time>
      </trkpt>
      <trkpt lat="42.60021" lon="1.85721">
        <ele>1990.8000488281</ele>
        <time>2023-07-19T13:20:05.000Z</time>
      </trkpt>
      <trkpt lat="42.6002" lon="1.85712">
        <ele>1990</ele>
        <time>2023-07-19T13:20:11.000Z</time>
      </trkpt>
      <trkpt lat="42.60019" lon="1.85708">
        <ele>1989.8000488281</ele>
        <time>2023-07-19T13:20:15.000Z</time>
      </trkpt>
      <trkpt lat="42.60019" lon="1.85704">
        <ele>1989.1999511719</ele>
        <time>2023-07-19T13:20:19.000Z</time>
      </trkpt>
      <trkpt lat="42.60018" lon="1.85696">
        <ele>1989.4000244141</ele>
        <time>2023-07-19T13:20:26.000Z</time>
      </trkpt>
      <trkpt lat="42.60012" lon="1.85686">
        <ele>1989.1999511719</ele>
        <time>2023-07-19T13:20:33.000Z</time>
      </trkpt>
      <trkpt lat="42.60009" lon="1.85679">
        <ele>1988.8000488281</ele>
        <time>2023-07-19T13:20:41.000Z</time>
      </trkpt>
      <trkpt lat="42.60008" lon="1.85674">
        <ele>1988.8000488281</ele>
        <time>2023-07-19T13:20:46.000Z</time>
      </trkpt>
      <trkpt lat="42.60007" lon="1.8567">
        <ele>1988.1999511719</ele>
        <time>2023-07-19T13:20:50.000Z</time>
      </trkpt>
      <trkpt lat="42.60008" lon="1.85666">
        <ele>1987.5999755859</ele>
        <time>2023-07-19T13:20:55.000Z</time>
      </trkpt>
      <trkpt lat="42.60009" lon="1.85665">
        <ele>1987.4000244141</ele>
        <time>2023-07-19T13:20:56.000Z</time>
      </trkpt>
      <trkpt lat="42.60009" lon="1.85665">
        <ele>1987</ele>
        <time>2023-07-19T13:20:57.000Z</time>
      </trkpt>
      <trkpt lat="42.60009" lon="1.85663">
        <ele>1986.4000244141</ele>
        <time>2023-07-19T13:20:58.000Z</time>
      </trkpt>
      <trkpt lat="42.60008" lon="1.85656">
        <ele>1985.8000488281</ele>
        <time>2023-07-19T13:21:04.000Z</time>
      </trkpt>
      <trkpt lat="42.60008" lon="1.85656">
        <ele>1985.1999511719</ele>
        <time>2023-07-19T13:21:07.000Z</time>
      </trkpt>
      <trkpt lat="42.60003" lon="1.85653">
        <ele>1984.5999755859</ele>
        <time>2023-07-19T13:21:12.000Z</time>
      </trkpt>
      <trkpt lat="42.60002" lon="1.85651">
        <ele>1984.5999755859</ele>
        <time>2023-07-19T13:21:19.000Z</time>
      </trkpt>
      <trkpt lat="42.60004" lon="1.85644">
        <ele>1984.1999511719</ele>
        <time>2023-07-19T13:21:27.000Z</time>
      </trkpt>
      <trkpt lat="42.60004" lon="1.85642">
        <ele>1984.1999511719</ele>
        <time>2023-07-19T13:21:29.000Z</time>
      </trkpt>
      <trkpt lat="42.59992" lon="1.8563">
        <ele>1983.4000244141</ele>
        <time>2023-07-19T13:21:39.000Z</time>
      </trkpt>
      <trkpt lat="42.59987" lon="1.85616">
        <ele>1983</ele>
        <time>2023-07-19T13:21:49.000Z</time>
      </trkpt>
      <trkpt lat="42.5998" lon="1.85606">
        <ele>1982.8000488281</ele>
        <time>2023-07-19T13:21:58.000Z</time>
      </trkpt>
      <trkpt lat="42.59971" lon="1.85596">
        <ele>1982.8000488281</ele>
        <time>2023-07-19T13:22:07.000Z</time>
      </trkpt>
      <trkpt lat="42.59967" lon="1.85589">
        <ele>1982.8000488281</ele>
        <time>2023-07-19T13:22:13.000Z</time>
      </trkpt>
      <trkpt lat="42.59964" lon="1.85581">
        <ele>1982.8000488281</ele>
        <time>2023-07-19T13:22:20.000Z</time>
      </trkpt>
      <trkpt lat="42.59961" lon="1.85574">
        <ele>1982.4000244141</ele>
        <time>2023-07-19T13:22:28.000Z</time>
      </trkpt>
      <trkpt lat="42.59957" lon="1.85564">
        <ele>1982.5999755859</ele>
        <time>2023-07-19T13:22:36.000Z</time>
      </trkpt>
      <trkpt lat="42.59955" lon="1.85551">
        <ele>1983.5999755859</ele>
        <time>2023-07-19T13:22:45.000Z</time>
      </trkpt>
      <trkpt lat="42.59953" lon="1.85545">
        <ele>1983.5999755859</ele>
        <time>2023-07-19T13:22:53.000Z</time>
      </trkpt>
      <trkpt lat="42.59951" lon="1.85535">
        <ele>1984</ele>
        <time>2023-07-19T13:23:02.000Z</time>
      </trkpt>
      <trkpt lat="42.59948" lon="1.85525">
        <ele>1984</ele>
        <time>2023-07-19T13:23:10.000Z</time>
      </trkpt>
      <trkpt lat="42.59946" lon="1.85522">
        <ele>1983.5999755859</ele>
        <time>2023-07-19T13:23:18.000Z</time>
      </trkpt>
      <trkpt lat="42.59945" lon="1.85515">
        <ele>1982.5999755859</ele>
        <time>2023-07-19T13:23:24.000Z</time>
      </trkpt>
      <trkpt lat="42.59944" lon="1.85514">
        <ele>1982</ele>
        <time>2023-07-19T13:23:26.000Z</time>
      </trkpt>
      <trkpt lat="42.59944" lon="1.85514">
        <ele>1981.4000244141</ele>
        <time>2023-07-19T13:23:31.000Z</time>
      </trkpt>
      <trkpt lat="42.59944" lon="1.8551">
        <ele>1980.8000488281</ele>
        <time>2023-07-19T13:23:35.000Z</time>
      </trkpt>
      <trkpt lat="42.59943" lon="1.85507">
        <ele>1979.8000488281</ele>
        <time>2023-07-19T13:23:38.000Z</time>
      </trkpt>
      <trkpt lat="42.59943" lon="1.85506">
        <ele>1979.4000244141</ele>
        <time>2023-07-19T13:23:39.000Z</time>
      </trkpt>
      <trkpt lat="42.59944" lon="1.855">
        <ele>1978.8000488281</ele>
        <time>2023-07-19T13:23:44.000Z</time>
      </trkpt>
      <trkpt lat="42.59944" lon="1.85495">
        <ele>1978.8000488281</ele>
        <time>2023-07-19T13:23:47.000Z</time>
      </trkpt>
      <trkpt lat="42.59943" lon="1.85482">
        <ele>1979</ele>
        <time>2023-07-19T13:23:55.000Z</time>
      </trkpt>
      <trkpt lat="42.59944" lon="1.85472">
        <ele>1978.5999755859</ele>
        <time>2023-07-19T13:24:03.000Z</time>
      </trkpt>
      <trkpt lat="42.59944" lon="1.85468">
        <ele>1978.8000488281</ele>
        <time>2023-07-19T13:24:10.000Z</time>
      </trkpt>
      <trkpt lat="42.59943" lon="1.85454">
        <ele>1979.4000244141</ele>
        <time>2023-07-19T13:24:18.000Z</time>
      </trkpt>
      <trkpt lat="42.59943" lon="1.85445">
        <ele>1979.5999755859</ele>
        <time>2023-07-19T13:24:24.000Z</time>
      </trkpt>
      <trkpt lat="42.59944" lon="1.85442">
        <ele>1979.8000488281</ele>
        <time>2023-07-19T13:24:26.000Z</time>
      </trkpt>
      <trkpt lat="42.59944" lon="1.85436">
        <ele>1980.1999511719</ele>
        <time>2023-07-19T13:24:32.000Z</time>
      </trkpt>
      <trkpt lat="42.59945" lon="1.85428">
        <ele>1980.5999755859</ele>
        <time>2023-07-19T13:24:42.000Z</time>
      </trkpt>
      <trkpt lat="42.59945" lon="1.85416">
        <ele>1980.1999511719</ele>
        <time>2023-07-19T13:24:50.000Z</time>
      </trkpt>
      <trkpt lat="42.59943" lon="1.85408">
        <ele>1980.8000488281</ele>
        <time>2023-07-19T13:24:59.000Z</time>
      </trkpt>
      <trkpt lat="42.59945" lon="1.85403">
        <ele>1980.5999755859</ele>
        <time>2023-07-19T13:25:06.000Z</time>
      </trkpt>
      <trkpt lat="42.59947" lon="1.85399">
        <ele>1980</ele>
        <time>2023-07-19T13:25:13.000Z</time>
      </trkpt>
      <trkpt lat="42.59948" lon="1.85394">
        <ele>1980</ele>
        <time>2023-07-19T13:25:20.000Z</time>
      </trkpt>
      <trkpt lat="42.5995" lon="1.85384">
        <ele>1980.8000488281</ele>
        <time>2023-07-19T13:25:30.000Z</time>
      </trkpt>
      <trkpt lat="42.5995" lon="1.85383">
        <ele>1980.8000488281</ele>
        <time>2023-07-19T13:25:31.000Z</time>
      </trkpt>
      <trkpt lat="42.59951" lon="1.85378">
        <ele>1981</ele>
        <time>2023-07-19T13:25:38.000Z</time>
      </trkpt>
      <trkpt lat="42.59953" lon="1.85373">
        <ele>1980.8000488281</ele>
        <time>2023-07-19T13:25:45.000Z</time>
      </trkpt>
      <trkpt lat="42.59955" lon="1.85366">
        <ele>1980.5999755859</ele>
        <time>2023-07-19T13:25:54.000Z</time>
      </trkpt>
      <trkpt lat="42.59959" lon="1.85357">
        <ele>1980.8000488281</ele>
        <time>2023-07-19T13:26:01.000Z</time>
      </trkpt>
      <trkpt lat="42.59959" lon="1.85352">
        <ele>1980.8000488281</ele>
        <time>2023-07-19T13:26:08.000Z</time>
      </trkpt>
      <trkpt lat="42.59958" lon="1.85347">
        <ele>1980.8000488281</ele>
        <time>2023-07-19T13:26:13.000Z</time>
      </trkpt>
      <trkpt lat="42.59958" lon="1.85341">
        <ele>1980.8000488281</ele>
        <time>2023-07-19T13:26:19.000Z</time>
      </trkpt>
      <trkpt lat="42.59957" lon="1.85333">
        <ele>1981.5999755859</ele>
        <time>2023-07-19T13:26:26.000Z</time>
      </trkpt>
      <trkpt lat="42.59956" lon="1.85326">
        <ele>1981.5999755859</ele>
        <time>2023-07-19T13:26:33.000Z</time>
      </trkpt>
      <trkpt lat="42.59956" lon="1.85324">
        <ele>1981.8000488281</ele>
        <time>2023-07-19T13:26:35.000Z</time>
      </trkpt>
      <trkpt lat="42.59955" lon="1.85318">
        <ele>1982.4000244141</ele>
        <time>2023-07-19T13:26:40.000Z</time>
      </trkpt>
      <trkpt lat="42.59955" lon="1.85314">
        <ele>1983</ele>
        <time>2023-07-19T13:26:45.000Z</time>
      </trkpt>
      <trkpt lat="42.59955" lon="1.8531">
        <ele>1983.5999755859</ele>
        <time>2023-07-19T13:26:48.000Z</time>
      </trkpt>
      <trkpt lat="42.59956" lon="1.85304">
        <ele>1983.5999755859</ele>
        <time>2023-07-19T13:26:55.000Z</time>
      </trkpt>
      <trkpt lat="42.59956" lon="1.853">
        <ele>1984</ele>
        <time>2023-07-19T13:26:58.000Z</time>
      </trkpt>
      <trkpt lat="42.59957" lon="1.8529">
        <ele>1984.4000244141</ele>
        <time>2023-07-19T13:27:03.000Z</time>
      </trkpt>
      <trkpt lat="42.59958" lon="1.85282">
        <ele>1984.8000488281</ele>
        <time>2023-07-19T13:27:12.000Z</time>
      </trkpt>
      <trkpt lat="42.59957" lon="1.85281">
        <ele>1985.1999511719</ele>
        <time>2023-07-19T13:27:14.000Z</time>
      </trkpt>
      <trkpt lat="42.59958" lon="1.85275">
        <ele>1985.1999511719</ele>
        <time>2023-07-19T13:27:21.000Z</time>
      </trkpt>
      <trkpt lat="42.59959" lon="1.85266">
        <ele>1985.1999511719</ele>
        <time>2023-07-19T13:27:29.000Z</time>
      </trkpt>
      <trkpt lat="42.59961" lon="1.85257">
        <ele>1985.4000244141</ele>
        <time>2023-07-19T13:27:37.000Z</time>
      </trkpt>
      <trkpt lat="42.59966" lon="1.85245">
        <ele>1985</ele>
        <time>2023-07-19T13:27:43.000Z</time>
      </trkpt>
      <trkpt lat="42.59969" lon="1.85234">
        <ele>1985</ele>
        <time>2023-07-19T13:27:51.000Z</time>
      </trkpt>
      <trkpt lat="42.59972" lon="1.85224">
        <ele>1984.5999755859</ele>
        <time>2023-07-19T13:27:59.000Z</time>
      </trkpt>
      <trkpt lat="42.59973" lon="1.8522">
        <ele>1984.1999511719</ele>
        <time>2023-07-19T13:28:02.000Z</time>
      </trkpt>
      <trkpt lat="42.59974" lon="1.85213">
        <ele>1983.4000244141</ele>
        <time>2023-07-19T13:28:07.000Z</time>
      </trkpt>
      <trkpt lat="42.59974" lon="1.8521">
        <ele>1983</ele>
        <time>2023-07-19T13:28:09.000Z</time>
      </trkpt>
      <trkpt lat="42.59974" lon="1.85203">
        <ele>1982.5999755859</ele>
        <time>2023-07-19T13:28:14.000Z</time>
      </trkpt>
      <trkpt lat="42.59975" lon="1.85194">
        <ele>1982.1999511719</ele>
        <time>2023-07-19T13:28:23.000Z</time>
      </trkpt>
      <trkpt lat="42.59975" lon="1.85193">
        <ele>1982</ele>
        <time>2023-07-19T13:28:24.000Z</time>
      </trkpt>
      <trkpt lat="42.59979" lon="1.85186">
        <ele>1981.1999511719</ele>
        <time>2023-07-19T13:28:30.000Z</time>
      </trkpt>
      <trkpt lat="42.5998" lon="1.85183">
        <ele>1980.8000488281</ele>
        <time>2023-07-19T13:28:32.000Z</time>
      </trkpt>
      <trkpt lat="42.59984" lon="1.85175">
        <ele>1980.4000244141</ele>
        <time>2023-07-19T13:28:38.000Z</time>
      </trkpt>
      <trkpt lat="42.59987" lon="1.85168">
        <ele>1979.8000488281</ele>
        <time>2023-07-19T13:28:42.000Z</time>
      </trkpt>
      <trkpt lat="42.59989" lon="1.85162">
        <ele>1979.5999755859</ele>
        <time>2023-07-19T13:28:46.000Z</time>
      </trkpt>
      <trkpt lat="42.59993" lon="1.85148">
        <ele>1979.4000244141</ele>
        <time>2023-07-19T13:28:54.000Z</time>
      </trkpt>
      <trkpt lat="42.59993" lon="1.85138">
        <ele>1979.4000244141</ele>
        <time>2023-07-19T13:29:02.000Z</time>
      </trkpt>
      <trkpt lat="42.59992" lon="1.85125">
        <ele>1979.5999755859</ele>
        <time>2023-07-19T13:29:11.000Z</time>
      </trkpt>
      <trkpt lat="42.5999" lon="1.8511">
        <ele>1979.4000244141</ele>
        <time>2023-07-19T13:29:21.000Z</time>
      </trkpt>
      <trkpt lat="42.59991" lon="1.85098">
        <ele>1979</ele>
        <time>2023-07-19T13:29:29.000Z</time>
      </trkpt>
      <trkpt lat="42.5999" lon="1.85084">
        <ele>1979</ele>
        <time>2023-07-19T13:29:38.000Z</time>
      </trkpt>
      <trkpt lat="42.5999" lon="1.85074">
        <ele>1979.1999511719</ele>
        <time>2023-07-19T13:29:46.000Z</time>
      </trkpt>
      <trkpt lat="42.59987" lon="1.85062">
        <ele>1978.8000488281</ele>
        <time>2023-07-19T13:29:54.000Z</time>
      </trkpt>
      <trkpt lat="42.59987" lon="1.8506">
        <ele>1978.8000488281</ele>
        <time>2023-07-19T13:29:56.000Z</time>
      </trkpt>
      <trkpt lat="42.59987" lon="1.85052">
        <ele>1978.5999755859</ele>
        <time>2023-07-19T13:30:03.000Z</time>
      </trkpt>
      <trkpt lat="42.59982" lon="1.85034">
        <ele>1978.8000488281</ele>
        <time>2023-07-19T13:30:15.000Z</time>
      </trkpt>
      <trkpt lat="42.59979" lon="1.85017">
        <ele>1978.5999755859</ele>
        <time>2023-07-19T13:30:24.000Z</time>
      </trkpt>
      <trkpt lat="42.59976" lon="1.85007">
        <ele>1978.1999511719</ele>
        <time>2023-07-19T13:30:32.000Z</time>
      </trkpt>
      <trkpt lat="42.59973" lon="1.84995">
        <ele>1978</ele>
        <time>2023-07-19T13:30:41.000Z</time>
      </trkpt>
      <trkpt lat="42.59974" lon="1.84978">
        <ele>1978</ele>
        <time>2023-07-19T13:30:51.000Z</time>
      </trkpt>
      <trkpt lat="42.59971" lon="1.84965">
        <ele>1978.1999511719</ele>
        <time>2023-07-19T13:30:59.000Z</time>
      </trkpt>
      <trkpt lat="42.59967" lon="1.84951">
        <ele>1978.1999511719</ele>
        <time>2023-07-19T13:31:07.000Z</time>
      </trkpt>
      <trkpt lat="42.59965" lon="1.84939">
        <ele>1977.8000488281</ele>
        <time>2023-07-19T13:31:15.000Z</time>
      </trkpt>
      <trkpt lat="42.59965" lon="1.84937">
        <ele>1977.8000488281</ele>
        <time>2023-07-19T13:31:17.000Z</time>
      </trkpt>
      <trkpt lat="42.5996" lon="1.84929">
        <ele>1977.5999755859</ele>
        <time>2023-07-19T13:31:23.000Z</time>
      </trkpt>
      <trkpt lat="42.59958" lon="1.84917">
        <ele>1977.1999511719</ele>
        <time>2023-07-19T13:31:32.000Z</time>
      </trkpt>
      <trkpt lat="42.59958" lon="1.84905">
        <ele>1977</ele>
        <time>2023-07-19T13:31:41.000Z</time>
      </trkpt>
      <trkpt lat="42.59959" lon="1.84899">
        <ele>1977</ele>
        <time>2023-07-19T13:31:49.000Z</time>
      </trkpt>
      <trkpt lat="42.59962" lon="1.84895">
        <ele>1977</ele>
        <time>2023-07-19T13:31:55.000Z</time>
      </trkpt>
      <trkpt lat="42.59964" lon="1.84888">
        <ele>1977</ele>
        <time>2023-07-19T13:32:02.000Z</time>
      </trkpt>
      <trkpt lat="42.5996" lon="1.84877">
        <ele>1976.8000488281</ele>
        <time>2023-07-19T13:32:06.000Z</time>
      </trkpt>
      <trkpt lat="42.5996" lon="1.84874">
        <ele>1976.5999755859</ele>
        <time>2023-07-19T13:32:07.000Z</time>
      </trkpt>
      <trkpt lat="42.59959" lon="1.84863">
        <ele>1976.8000488281</ele>
        <time>2023-07-19T13:32:15.000Z</time>
      </trkpt>
      <trkpt lat="42.59959" lon="1.84854">
        <ele>1976.8000488281</ele>
        <time>2023-07-19T13:32:22.000Z</time>
      </trkpt>
      <trkpt lat="42.59962" lon="1.84843">
        <ele>1977</ele>
        <time>2023-07-19T13:32:31.000Z</time>
      </trkpt>
      <trkpt lat="42.59963" lon="1.84834">
        <ele>1976.5999755859</ele>
        <time>2023-07-19T13:32:38.000Z</time>
      </trkpt>
      <trkpt lat="42.59964" lon="1.84829">
        <ele>1976.5999755859</ele>
        <time>2023-07-19T13:32:44.000Z</time>
      </trkpt>
      <trkpt lat="42.59966" lon="1.84819">
        <ele>1976.1999511719</ele>
        <time>2023-07-19T13:32:52.000Z</time>
      </trkpt>
      <trkpt lat="42.59963" lon="1.84814">
        <ele>1976.1999511719</ele>
        <time>2023-07-19T13:32:54.000Z</time>
      </trkpt>
      <trkpt lat="42.59955" lon="1.84805">
        <ele>1976.4000244141</ele>
        <time>2023-07-19T13:32:57.000Z</time>
      </trkpt>
      <trkpt lat="42.59959" lon="1.84792">
        <ele>1976.4000244141</ele>
        <time>2023-07-19T13:33:05.000Z</time>
      </trkpt>
      <trkpt lat="42.59957" lon="1.84779">
        <ele>1976.1999511719</ele>
        <time>2023-07-19T13:33:13.000Z</time>
      </trkpt>
      <trkpt lat="42.59963" lon="1.8477">
        <ele>1975.8000488281</ele>
        <time>2023-07-19T13:33:21.000Z</time>
      </trkpt>
      <trkpt lat="42.59964" lon="1.84768">
        <ele>1975.8000488281</ele>
        <time>2023-07-19T13:33:22.000Z</time>
      </trkpt>
      <trkpt lat="42.59959" lon="1.84753">
        <ele>1975.4000244141</ele>
        <time>2023-07-19T13:33:31.000Z</time>
      </trkpt>
      <trkpt lat="42.5996" lon="1.8475">
        <ele>1975.4000244141</ele>
        <time>2023-07-19T13:33:33.000Z</time>
      </trkpt>
      <trkpt lat="42.59962" lon="1.84741">
        <ele>1975.4000244141</ele>
        <time>2023-07-19T13:33:39.000Z</time>
      </trkpt>
      <trkpt lat="42.59963" lon="1.84729">
        <ele>1974.5999755859</ele>
        <time>2023-07-19T13:33:48.000Z</time>
      </trkpt>
      <trkpt lat="42.59963" lon="1.84727">
        <ele>1974.5999755859</ele>
        <time>2023-07-19T13:33:49.000Z</time>
      </trkpt>
      <trkpt lat="42.59963" lon="1.84715">
        <ele>1974.4000244141</ele>
        <time>2023-07-19T13:33:58.000Z</time>
      </trkpt>
      <trkpt lat="42.59949" lon="1.84695">
        <ele>1974.1999511719</ele>
        <time>2023-07-19T13:34:07.000Z</time>
      </trkpt>
      <trkpt lat="42.59949" lon="1.84682">
        <ele>1973.5999755859</ele>
        <time>2023-07-19T13:34:16.000Z</time>
      </trkpt>
      <trkpt lat="42.59947" lon="1.8468">
        <ele>1973.5999755859</ele>
        <time>2023-07-19T13:34:19.000Z</time>
      </trkpt>
      <trkpt lat="42.59943" lon="1.84671">
        <ele>1973</ele>
        <time>2023-07-19T13:34:26.000Z</time>
      </trkpt>
      <trkpt lat="42.5994" lon="1.84659">
        <ele>1973.1999511719</ele>
        <time>2023-07-19T13:34:33.000Z</time>
      </trkpt>
      <trkpt lat="42.59936" lon="1.84648">
        <ele>1973.1999511719</ele>
        <time>2023-07-19T13:34:39.000Z</time>
      </trkpt>
      <trkpt lat="42.59938" lon="1.84638">
        <ele>1973</ele>
        <time>2023-07-19T13:34:46.000Z</time>
      </trkpt>
      <trkpt lat="42.59937" lon="1.84628">
        <ele>1973</ele>
        <time>2023-07-19T13:34:55.000Z</time>
      </trkpt>
      <trkpt lat="42.5993" lon="1.84617">
        <ele>1972.8000488281</ele>
        <time>2023-07-19T13:35:04.000Z</time>
      </trkpt>
      <trkpt lat="42.5993" lon="1.84614">
        <ele>1972.8000488281</ele>
        <time>2023-07-19T13:35:05.000Z</time>
      </trkpt>
      <trkpt lat="42.59925" lon="1.84602">
        <ele>1973</ele>
        <time>2023-07-19T13:35:14.000Z</time>
      </trkpt>
      <trkpt lat="42.59923" lon="1.84602">
        <ele>1973</ele>
        <time>2023-07-19T13:35:18.000Z</time>
      </trkpt>
      <trkpt lat="42.59921" lon="1.84599">
        <ele>1973</ele>
        <time>2023-07-19T13:35:21.000Z</time>
      </trkpt>
      <trkpt lat="42.59919" lon="1.84595">
        <ele>1973</ele>
        <time>2023-07-19T13:35:23.000Z</time>
      </trkpt>
      <trkpt lat="42.59914" lon="1.84581">
        <ele>1973</ele>
        <time>2023-07-19T13:35:31.000Z</time>
      </trkpt>
      <trkpt lat="42.59914" lon="1.84579">
        <ele>1972.5999755859</ele>
        <time>2023-07-19T13:35:36.000Z</time>
      </trkpt>
      <trkpt lat="42.59914" lon="1.84546">
        <ele>1972</ele>
        <time>2023-07-19T13:36:01.000Z</time>
      </trkpt>
      <trkpt lat="42.59917" lon="1.84535">
        <ele>1971.4000244141</ele>
        <time>2023-07-19T13:36:11.000Z</time>
      </trkpt>
      <trkpt lat="42.59918" lon="1.8453">
        <ele>1971.4000244141</ele>
        <time>2023-07-19T13:36:16.000Z</time>
      </trkpt>
      <trkpt lat="42.59912" lon="1.84515">
        <ele>1971.1999511719</ele>
        <time>2023-07-19T13:36:23.000Z</time>
      </trkpt>
      <trkpt lat="42.59917" lon="1.84523">
        <ele>1971.1999511719</ele>
        <time>2023-07-19T13:36:24.000Z</time>
      </trkpt>
      <trkpt lat="42.59909" lon="1.84505">
        <ele>1971.1999511719</ele>
        <time>2023-07-19T13:36:25.000Z</time>
      </trkpt>
      <trkpt lat="42.59903" lon="1.84492">
        <ele>1971.1999511719</ele>
        <time>2023-07-19T13:36:29.000Z</time>
      </trkpt>
      <trkpt lat="42.59899" lon="1.8448">
        <ele>1971.1999511719</ele>
        <time>2023-07-19T13:36:36.000Z</time>
      </trkpt>
      <trkpt lat="42.599" lon="1.8447">
        <ele>1971</ele>
        <time>2023-07-19T13:36:45.000Z</time>
      </trkpt>
      <trkpt lat="42.59905" lon="1.84461">
        <ele>1971</ele>
        <time>2023-07-19T13:36:54.000Z</time>
      </trkpt>
      <trkpt lat="42.59902" lon="1.84451">
        <ele>1970.8000488281</ele>
        <time>2023-07-19T13:37:00.000Z</time>
      </trkpt>
      <trkpt lat="42.59901" lon="1.84445">
        <ele>1970.8000488281</ele>
        <time>2023-07-19T13:37:02.000Z</time>
      </trkpt>
      <trkpt lat="42.59902" lon="1.84434">
        <ele>1970.5999755859</ele>
        <time>2023-07-19T13:37:09.000Z</time>
      </trkpt>
      <trkpt lat="42.59902" lon="1.84421">
        <ele>1970.8000488281</ele>
        <time>2023-07-19T13:37:17.000Z</time>
      </trkpt>
      <trkpt lat="42.599" lon="1.84417">
        <ele>1970.5999755859</ele>
        <time>2023-07-19T13:37:25.000Z</time>
      </trkpt>
      <trkpt lat="42.59896" lon="1.84413">
        <ele>1970.5999755859</ele>
        <time>2023-07-19T13:37:29.000Z</time>
      </trkpt>
      <trkpt lat="42.5989" lon="1.84397">
        <ele>1971</ele>
        <time>2023-07-19T13:37:40.000Z</time>
      </trkpt>
      <trkpt lat="42.59888" lon="1.84393">
        <ele>1971</ele>
        <time>2023-07-19T13:37:42.000Z</time>
      </trkpt>
      <trkpt lat="42.59888" lon="1.84387">
        <ele>1970.5999755859</ele>
        <time>2023-07-19T13:37:45.000Z</time>
      </trkpt>
      <trkpt lat="42.59888" lon="1.84384">
        <ele>1970.4000244141</ele>
        <time>2023-07-19T13:37:47.000Z</time>
      </trkpt>
      <trkpt lat="42.59884" lon="1.84378">
        <ele>1970.1999511719</ele>
        <time>2023-07-19T13:37:54.000Z</time>
      </trkpt>
      <trkpt lat="42.59881" lon="1.84374">
        <ele>1970.1999511719</ele>
        <time>2023-07-19T13:37:57.000Z</time>
      </trkpt>
      <trkpt lat="42.59877" lon="1.84367">
        <ele>1970</ele>
        <time>2023-07-19T13:38:00.000Z</time>
      </trkpt>
      <trkpt lat="42.59875" lon="1.84362">
        <ele>1970</ele>
        <time>2023-07-19T13:38:03.000Z</time>
      </trkpt>
      <trkpt lat="42.5987" lon="1.84352">
        <ele>1969.8000488281</ele>
        <time>2023-07-19T13:38:08.000Z</time>
      </trkpt>
      <trkpt lat="42.59869" lon="1.8435">
        <ele>1969.8000488281</ele>
        <time>2023-07-19T13:38:09.000Z</time>
      </trkpt>
      <trkpt lat="42.5987" lon="1.84348">
        <ele>1969.8000488281</ele>
        <time>2023-07-19T13:38:14.000Z</time>
      </trkpt>
      <trkpt lat="42.59868" lon="1.84346">
        <ele>1969.8000488281</ele>
        <time>2023-07-19T13:38:15.000Z</time>
      </trkpt>
      <trkpt lat="42.5987" lon="1.84336">
        <ele>1969.8000488281</ele>
        <time>2023-07-19T13:38:24.000Z</time>
      </trkpt>
      <trkpt lat="42.59868" lon="1.84324">
        <ele>1969.8000488281</ele>
        <time>2023-07-19T13:38:32.000Z</time>
      </trkpt>
      <trkpt lat="42.59863" lon="1.84311">
        <ele>1970</ele>
        <time>2023-07-19T13:38:40.000Z</time>
      </trkpt>
      <trkpt lat="42.5986" lon="1.84297">
        <ele>1970.1999511719</ele>
        <time>2023-07-19T13:38:49.000Z</time>
      </trkpt>
      <trkpt lat="42.59863" lon="1.84286">
        <ele>1970</ele>
        <time>2023-07-19T13:38:58.000Z</time>
      </trkpt>
      <trkpt lat="42.59861" lon="1.84276">
        <ele>1970</ele>
        <time>2023-07-19T13:39:04.000Z</time>
      </trkpt>
      <trkpt lat="42.5986" lon="1.84261">
        <ele>1969.5999755859</ele>
        <time>2023-07-19T13:39:09.000Z</time>
      </trkpt>
      <trkpt lat="42.5986" lon="1.84255">
        <ele>1969.1999511719</ele>
        <time>2023-07-19T13:39:15.000Z</time>
      </trkpt>
      <trkpt lat="42.5986" lon="1.84253">
        <ele>1969.1999511719</ele>
        <time>2023-07-19T13:39:16.000Z</time>
      </trkpt>
      <trkpt lat="42.59861" lon="1.84245">
        <ele>1968.8000488281</ele>
        <time>2023-07-19T13:39:24.000Z</time>
      </trkpt>
      <trkpt lat="42.59858" lon="1.84239">
        <ele>1968.5999755859</ele>
        <time>2023-07-19T13:39:27.000Z</time>
      </trkpt>
      <trkpt lat="42.59858" lon="1.84236">
        <ele>1968.4000244141</ele>
        <time>2023-07-19T13:39:29.000Z</time>
      </trkpt>
      <trkpt lat="42.59859" lon="1.84231">
        <ele>1968.1999511719</ele>
        <time>2023-07-19T13:39:32.000Z</time>
      </trkpt>
      <trkpt lat="42.59858" lon="1.84227">
        <ele>1968</ele>
        <time>2023-07-19T13:39:36.000Z</time>
      </trkpt>
      <trkpt lat="42.59856" lon="1.84225">
        <ele>1967.8000488281</ele>
        <time>2023-07-19T13:39:41.000Z</time>
      </trkpt>
      <trkpt lat="42.59855" lon="1.84223">
        <ele>1967.5999755859</ele>
        <time>2023-07-19T13:39:49.000Z</time>
      </trkpt>
      <trkpt lat="42.59851" lon="1.8422">
        <ele>1967.5999755859</ele>
        <time>2023-07-19T13:39:55.000Z</time>
      </trkpt>
      <trkpt lat="42.59851" lon="1.84219">
        <ele>1967.4000244141</ele>
        <time>2023-07-19T13:40:07.000Z</time>
      </trkpt>
      <trkpt lat="42.59851" lon="1.84219">
        <ele>1967.1999511719</ele>
        <time>2023-07-19T13:40:12.000Z</time>
      </trkpt>
      <trkpt lat="42.59852" lon="1.84219">
        <ele>1967.1999511719</ele>
        <time>2023-07-19T13:40:14.000Z</time>
      </trkpt>
      <trkpt lat="42.59855" lon="1.8422">
        <ele>1967</ele>
        <time>2023-07-19T13:40:21.000Z</time>
      </trkpt>
      <trkpt lat="42.59852" lon="1.84213">
        <ele>1967</ele>
        <time>2023-07-19T13:40:27.000Z</time>
      </trkpt>
      <trkpt lat="42.59851" lon="1.84209">
        <ele>1967</ele>
        <time>2023-07-19T13:40:32.000Z</time>
      </trkpt>
      <trkpt lat="42.5985" lon="1.84204">
        <ele>1966.5999755859</ele>
        <time>2023-07-19T13:40:40.000Z</time>
      </trkpt>
      <trkpt lat="42.5985" lon="1.842">
        <ele>1966.5999755859</ele>
        <time>2023-07-19T13:40:47.000Z</time>
      </trkpt>
      <trkpt lat="42.59851" lon="1.84196">
        <ele>1966.5999755859</ele>
        <time>2023-07-19T13:40:53.000Z</time>
      </trkpt>
      <trkpt lat="42.59849" lon="1.84188">
        <ele>1967</ele>
        <time>2023-07-19T13:41:00.000Z</time>
      </trkpt>
      <trkpt lat="42.59847" lon="1.84184">
        <ele>1966.4000244141</ele>
        <time>2023-07-19T13:41:08.000Z</time>
      </trkpt>
      <trkpt lat="42.59845" lon="1.84178">
        <ele>1966.5999755859</ele>
        <time>2023-07-19T13:41:16.000Z</time>
      </trkpt>
      <trkpt lat="42.59843" lon="1.84172">
        <ele>1966.8000488281</ele>
        <time>2023-07-19T13:41:22.000Z</time>
      </trkpt>
      <trkpt lat="42.5984" lon="1.84163">
        <ele>1966.5999755859</ele>
        <time>2023-07-19T13:41:29.000Z</time>
      </trkpt>
      <trkpt lat="42.59836" lon="1.84154">
        <ele>1966.5999755859</ele>
        <time>2023-07-19T13:41:38.000Z</time>
      </trkpt>
      <trkpt lat="42.59837" lon="1.84152">
        <ele>1966.8000488281</ele>
        <time>2023-07-19T13:41:43.000Z</time>
      </trkpt>
      <trkpt lat="42.59834" lon="1.84148">
        <ele>1967</ele>
        <time>2023-07-19T13:41:48.000Z</time>
      </trkpt>
      <trkpt lat="42.5983" lon="1.8414">
        <ele>1967</ele>
        <time>2023-07-19T13:41:54.000Z</time>
      </trkpt>
      <trkpt lat="42.59828" lon="1.84133">
        <ele>1966.5999755859</ele>
        <time>2023-07-19T13:42:01.000Z</time>
      </trkpt>
      <trkpt lat="42.59825" lon="1.84121">
        <ele>1966.5999755859</ele>
        <time>2023-07-19T13:42:09.000Z</time>
      </trkpt>
      <trkpt lat="42.59823" lon="1.84115">
        <ele>1966.5999755859</ele>
        <time>2023-07-19T13:42:15.000Z</time>
      </trkpt>
      <trkpt lat="42.59818" lon="1.84095">
        <ele>1966</ele>
        <time>2023-07-19T13:42:25.000Z</time>
      </trkpt>
      <trkpt lat="42.59819" lon="1.84081">
        <ele>1966</ele>
        <time>2023-07-19T13:42:33.000Z</time>
      </trkpt>
      <trkpt lat="42.5982" lon="1.8407">
        <ele>1966</ele>
        <time>2023-07-19T13:42:39.000Z</time>
      </trkpt>
      <trkpt lat="42.59821" lon="1.84061">
        <ele>1966</ele>
        <time>2023-07-19T13:42:46.000Z</time>
      </trkpt>
      <trkpt lat="42.59822" lon="1.8405">
        <ele>1966</ele>
        <time>2023-07-19T13:42:54.000Z</time>
      </trkpt>
      <trkpt lat="42.59819" lon="1.8404">
        <ele>1966</ele>
        <time>2023-07-19T13:43:02.000Z</time>
      </trkpt>
      <trkpt lat="42.59818" lon="1.84029">
        <ele>1966</ele>
        <time>2023-07-19T13:43:09.000Z</time>
      </trkpt>
      <trkpt lat="42.5982" lon="1.84024">
        <ele>1966</ele>
        <time>2023-07-19T13:43:18.000Z</time>
      </trkpt>
      <trkpt lat="42.59814" lon="1.84015">
        <ele>1965.8000488281</ele>
        <time>2023-07-19T13:43:25.000Z</time>
      </trkpt>
      <trkpt lat="42.59809" lon="1.8401">
        <ele>1965.8000488281</ele>
        <time>2023-07-19T13:43:27.000Z</time>
      </trkpt>
      <trkpt lat="42.59802" lon="1.83993">
        <ele>1965.5999755859</ele>
        <time>2023-07-19T13:43:34.000Z</time>
      </trkpt>
      <trkpt lat="42.59803" lon="1.83985">
        <ele>1964.8000488281</ele>
        <time>2023-07-19T13:43:39.000Z</time>
      </trkpt>
      <trkpt lat="42.59803" lon="1.83982">
        <ele>1964.4000244141</ele>
        <time>2023-07-19T13:43:41.000Z</time>
      </trkpt>
      <trkpt lat="42.59803" lon="1.8398">
        <ele>1963.8000488281</ele>
        <time>2023-07-19T13:43:43.000Z</time>
      </trkpt>
      <trkpt lat="42.59805" lon="1.83975">
        <ele>1962.8000488281</ele>
        <time>2023-07-19T13:43:49.000Z</time>
      </trkpt>
      <trkpt lat="42.59806" lon="1.83975">
        <ele>1962.5999755859</ele>
        <time>2023-07-19T13:43:50.000Z</time>
      </trkpt>
      <trkpt lat="42.59809" lon="1.83968">
        <ele>1961.5999755859</ele>
        <time>2023-07-19T13:43:55.000Z</time>
      </trkpt>
      <trkpt lat="42.5981" lon="1.83965">
        <ele>1961.1999511719</ele>
        <time>2023-07-19T13:43:58.000Z</time>
      </trkpt>
      <trkpt lat="42.59812" lon="1.8396">
        <ele>1960.5999755859</ele>
        <time>2023-07-19T13:44:01.000Z</time>
      </trkpt>
      <trkpt lat="42.59812" lon="1.83957">
        <ele>1959.8000488281</ele>
        <time>2023-07-19T13:44:04.000Z</time>
      </trkpt>
      <trkpt lat="42.59812" lon="1.83955">
        <ele>1959.5999755859</ele>
        <time>2023-07-19T13:44:05.000Z</time>
      </trkpt>
      <trkpt lat="42.59813" lon="1.83949">
        <ele>1958.4000244141</ele>
        <time>2023-07-19T13:44:09.000Z</time>
      </trkpt>
      <trkpt lat="42.59812" lon="1.83944">
        <ele>1957.8000488281</ele>
        <time>2023-07-19T13:44:12.000Z</time>
      </trkpt>
      <trkpt lat="42.59811" lon="1.83943">
        <ele>1957.4000244141</ele>
        <time>2023-07-19T13:44:14.000Z</time>
      </trkpt>
      <trkpt lat="42.5981" lon="1.83937">
        <ele>1956.8000488281</ele>
        <time>2023-07-19T13:44:18.000Z</time>
      </trkpt>
      <trkpt lat="42.5981" lon="1.83935">
        <ele>1956.1999511719</ele>
        <time>2023-07-19T13:44:20.000Z</time>
      </trkpt>
      <trkpt lat="42.59808" lon="1.83928">
        <ele>1955.1999511719</ele>
        <time>2023-07-19T13:44:25.000Z</time>
      </trkpt>
      <trkpt lat="42.59808" lon="1.83924">
        <ele>1954.1999511719</ele>
        <time>2023-07-19T13:44:29.000Z</time>
      </trkpt>
      <trkpt lat="42.59807" lon="1.83921">
        <ele>1954</ele>
        <time>2023-07-19T13:44:31.000Z</time>
      </trkpt>
      <trkpt lat="42.59807" lon="1.83915">
        <ele>1953</ele>
        <time>2023-07-19T13:44:35.000Z</time>
      </trkpt>
      <trkpt lat="42.59807" lon="1.83909">
        <ele>1952</ele>
        <time>2023-07-19T13:44:39.000Z</time>
      </trkpt>
      <trkpt lat="42.59806" lon="1.83901">
        <ele>1951.1999511719</ele>
        <time>2023-07-19T13:44:44.000Z</time>
      </trkpt>
      <trkpt lat="42.59803" lon="1.83896">
        <ele>1950.8000488281</ele>
        <time>2023-07-19T13:44:47.000Z</time>
      </trkpt>
      <trkpt lat="42.59804" lon="1.8389">
        <ele>1950.5999755859</ele>
        <time>2023-07-19T13:44:51.000Z</time>
      </trkpt>
      <trkpt lat="42.59805" lon="1.83882">
        <ele>1950.1999511719</ele>
        <time>2023-07-19T13:44:58.000Z</time>
      </trkpt>
      <trkpt lat="42.59806" lon="1.83879">
        <ele>1949.8000488281</ele>
        <time>2023-07-19T13:45:01.000Z</time>
      </trkpt>
      <trkpt lat="42.59808" lon="1.83877">
        <ele>1949.5999755859</ele>
        <time>2023-07-19T13:45:04.000Z</time>
      </trkpt>
      <trkpt lat="42.59812" lon="1.83875">
        <ele>1948.8000488281</ele>
        <time>2023-07-19T13:45:09.000Z</time>
      </trkpt>
      <trkpt lat="42.59814" lon="1.83871">
        <ele>1947.8000488281</ele>
        <time>2023-07-19T13:45:15.000Z</time>
      </trkpt>
      <trkpt lat="42.59814" lon="1.83871">
        <ele>1947.5999755859</ele>
        <time>2023-07-19T13:45:16.000Z</time>
      </trkpt>
      <trkpt lat="42.59817" lon="1.83866">
        <ele>1946.5999755859</ele>
        <time>2023-07-19T13:45:23.000Z</time>
      </trkpt>
      <trkpt lat="42.59818" lon="1.83865">
        <ele>1946</ele>
        <time>2023-07-19T13:45:28.000Z</time>
      </trkpt>
      <trkpt lat="42.59817" lon="1.83838">
        <ele>1943.4000244141</ele>
        <time>2023-07-19T13:45:46.000Z</time>
      </trkpt>
      <trkpt lat="42.59817" lon="1.83838">
        <ele>1943.4000244141</ele>
        <time>2023-07-19T13:45:47.000Z</time>
      </trkpt>
      <trkpt lat="42.59818" lon="1.83814">
        <ele>1940.5999755859</ele>
        <time>2023-07-19T13:46:05.000Z</time>
      </trkpt>
      <trkpt lat="42.59818" lon="1.83812">
        <ele>1940.4000244141</ele>
        <time>2023-07-19T13:46:06.000Z</time>
      </trkpt>
      <trkpt lat="42.59817" lon="1.83809">
        <ele>1940</ele>
        <time>2023-07-19T13:46:08.000Z</time>
      </trkpt>
      <trkpt lat="42.59817" lon="1.83808">
        <ele>1939.8000488281</ele>
        <time>2023-07-19T13:46:09.000Z</time>
      </trkpt>
      <trkpt lat="42.59818" lon="1.83808">
        <ele>1939.1999511719</ele>
        <time>2023-07-19T13:46:12.000Z</time>
      </trkpt>
      <trkpt lat="42.59818" lon="1.83807">
        <ele>1939</ele>
        <time>2023-07-19T13:46:13.000Z</time>
      </trkpt>
      <trkpt lat="42.5982" lon="1.838">
        <ele>1937</ele>
        <time>2023-07-19T13:46:24.000Z</time>
      </trkpt>
      <trkpt lat="42.59822" lon="1.83804">
        <ele>1936.8000488281</ele>
        <time>2023-07-19T13:46:25.000Z</time>
      </trkpt>
      <trkpt lat="42.59816" lon="1.83787">
        <ele>1935</ele>
        <time>2023-07-19T13:46:33.000Z</time>
      </trkpt>
      <trkpt lat="42.59814" lon="1.83784">
        <ele>1934.4000244141</ele>
        <time>2023-07-19T13:46:36.000Z</time>
      </trkpt>
      <trkpt lat="42.59813" lon="1.83779">
        <ele>1934.1999511719</ele>
        <time>2023-07-19T13:46:38.000Z</time>
      </trkpt>
      <trkpt lat="42.59812" lon="1.83776">
        <ele>1933.8000488281</ele>
        <time>2023-07-19T13:46:42.000Z</time>
      </trkpt>
      <trkpt lat="42.5981" lon="1.83768">
        <ele>1933.5999755859</ele>
        <time>2023-07-19T13:46:47.000Z</time>
      </trkpt>
      <trkpt lat="42.5981" lon="1.83763">
        <ele>1933.1999511719</ele>
        <time>2023-07-19T13:46:50.000Z</time>
      </trkpt>
      <trkpt lat="42.5981" lon="1.83761">
        <ele>1932.8000488281</ele>
        <time>2023-07-19T13:46:53.000Z</time>
      </trkpt>
      <trkpt lat="42.59811" lon="1.83758">
        <ele>1932.1999511719</ele>
        <time>2023-07-19T13:46:58.000Z</time>
      </trkpt>
      <trkpt lat="42.59811" lon="1.83758">
        <ele>1932</ele>
        <time>2023-07-19T13:47:00.000Z</time>
      </trkpt>
      <trkpt lat="42.59813" lon="1.83753">
        <ele>1931.1999511719</ele>
        <time>2023-07-19T13:47:05.000Z</time>
      </trkpt>
      <trkpt lat="42.59815" lon="1.83744">
        <ele>1930.1999511719</ele>
        <time>2023-07-19T13:47:13.000Z</time>
      </trkpt>
      <trkpt lat="42.59815" lon="1.83743">
        <ele>1930.1999511719</ele>
        <time>2023-07-19T13:47:14.000Z</time>
      </trkpt>
      <trkpt lat="42.59816" lon="1.83731">
        <ele>1930.1999511719</ele>
        <time>2023-07-19T13:47:23.000Z</time>
      </trkpt>
      <trkpt lat="42.5982" lon="1.83719">
        <ele>1930.1999511719</ele>
        <time>2023-07-19T13:47:32.000Z</time>
      </trkpt>
      <trkpt lat="42.5982" lon="1.83709">
        <ele>1929.5999755859</ele>
        <time>2023-07-19T13:47:40.000Z</time>
      </trkpt>
      <trkpt lat="42.59823" lon="1.837">
        <ele>1929.5999755859</ele>
        <time>2023-07-19T13:47:48.000Z</time>
      </trkpt>
      <trkpt lat="42.59832" lon="1.83682">
        <ele>1929.4000244141</ele>
        <time>2023-07-19T13:48:02.000Z</time>
      </trkpt>
      <trkpt lat="42.5984" lon="1.8367">
        <ele>1929.4000244141</ele>
        <time>2023-07-19T13:48:15.000Z</time>
      </trkpt>
      <trkpt lat="42.59836" lon="1.83662">
        <ele>1929.1999511719</ele>
        <time>2023-07-19T13:48:20.000Z</time>
      </trkpt>
      <trkpt lat="42.59837" lon="1.8366">
        <ele>1929.1999511719</ele>
        <time>2023-07-19T13:48:22.000Z</time>
      </trkpt>
      <trkpt lat="42.59834" lon="1.83646">
        <ele>1929.4000244141</ele>
        <time>2023-07-19T13:48:27.000Z</time>
      </trkpt>
      <trkpt lat="42.59834" lon="1.83644">
        <ele>1929.4000244141</ele>
        <time>2023-07-19T13:48:28.000Z</time>
      </trkpt>
      <trkpt lat="42.59835" lon="1.83638">
        <ele>1930</ele>
        <time>2023-07-19T13:48:34.000Z</time>
      </trkpt>
      <trkpt lat="42.59834" lon="1.83635">
        <ele>1930.5999755859</ele>
        <time>2023-07-19T13:48:39.000Z</time>
      </trkpt>
      <trkpt lat="42.59835" lon="1.83628">
        <ele>1931.1999511719</ele>
        <time>2023-07-19T13:48:45.000Z</time>
      </trkpt>
      <trkpt lat="42.59836" lon="1.83627">
        <ele>1931.4000244141</ele>
        <time>2023-07-19T13:48:46.000Z</time>
      </trkpt>
      <trkpt lat="42.59838" lon="1.83617">
        <ele>1932.1999511719</ele>
        <time>2023-07-19T13:48:54.000Z</time>
      </trkpt>
      <trkpt lat="42.59838" lon="1.83613">
        <ele>1932.1999511719</ele>
        <time>2023-07-19T13:48:57.000Z</time>
      </trkpt>
      <trkpt lat="42.5984" lon="1.83609">
        <ele>1932.5999755859</ele>
        <time>2023-07-19T13:49:02.000Z</time>
      </trkpt>
      <trkpt lat="42.59843" lon="1.83601">
        <ele>1932.5999755859</ele>
        <time>2023-07-19T13:49:09.000Z</time>
      </trkpt>
      <trkpt lat="42.59841" lon="1.83593">
        <ele>1932.1999511719</ele>
        <time>2023-07-19T13:49:16.000Z</time>
      </trkpt>
      <trkpt lat="42.5984" lon="1.83582">
        <ele>1932.1999511719</ele>
        <time>2023-07-19T13:49:24.000Z</time>
      </trkpt>
      <trkpt lat="42.59841" lon="1.83575">
        <ele>1932</ele>
        <time>2023-07-19T13:49:31.000Z</time>
      </trkpt>
      <trkpt lat="42.59843" lon="1.83566">
        <ele>1931.1999511719</ele>
        <time>2023-07-19T13:49:40.000Z</time>
      </trkpt>
      <trkpt lat="42.59845" lon="1.83562">
        <ele>1930.1999511719</ele>
        <time>2023-07-19T13:49:46.000Z</time>
      </trkpt>
      <trkpt lat="42.59848" lon="1.83561">
        <ele>1929.1999511719</ele>
        <time>2023-07-19T13:49:51.000Z</time>
      </trkpt>
      <trkpt lat="42.59849" lon="1.8356">
        <ele>1928.8000488281</ele>
        <time>2023-07-19T13:49:53.000Z</time>
      </trkpt>
      <trkpt lat="42.59848" lon="1.8356">
        <ele>1928</ele>
        <time>2023-07-19T13:49:57.000Z</time>
      </trkpt>
      <trkpt lat="42.5985" lon="1.83559">
        <ele>1927</ele>
        <time>2023-07-19T13:50:01.000Z</time>
      </trkpt>
      <trkpt lat="42.59852" lon="1.83553">
        <ele>1925.8000488281</ele>
        <time>2023-07-19T13:50:11.000Z</time>
      </trkpt>
      <trkpt lat="42.59853" lon="1.83553">
        <ele>1925.4000244141</ele>
        <time>2023-07-19T13:50:12.000Z</time>
      </trkpt>
      <trkpt lat="42.59855" lon="1.83551">
        <ele>1924.8000488281</ele>
        <time>2023-07-19T13:50:15.000Z</time>
      </trkpt>
      <trkpt lat="42.59855" lon="1.83548">
        <ele>1924</ele>
        <time>2023-07-19T13:50:18.000Z</time>
      </trkpt>
      <trkpt lat="42.59856" lon="1.83547">
        <ele>1923.5999755859</ele>
        <time>2023-07-19T13:50:20.000Z</time>
      </trkpt>
      <trkpt lat="42.59858" lon="1.83544">
        <ele>1923</ele>
        <time>2023-07-19T13:50:24.000Z</time>
      </trkpt>
      <trkpt lat="42.59859" lon="1.83542">
        <ele>1922.4000244141</ele>
        <time>2023-07-19T13:50:26.000Z</time>
      </trkpt>
      <trkpt lat="42.59856" lon="1.83539">
        <ele>1922.4000244141</ele>
        <time>2023-07-19T13:50:27.000Z</time>
      </trkpt>
      <trkpt lat="42.5986" lon="1.83535">
        <ele>1921.8000488281</ele>
        <time>2023-07-19T13:50:31.000Z</time>
      </trkpt>
      <trkpt lat="42.59861" lon="1.83533">
        <ele>1921.1999511719</ele>
        <time>2023-07-19T13:50:34.000Z</time>
      </trkpt>
      <trkpt lat="42.59863" lon="1.83531">
        <ele>1920.4000244141</ele>
        <time>2023-07-19T13:50:37.000Z</time>
      </trkpt>
      <trkpt lat="42.59864" lon="1.83521">
        <ele>1919.4000244141</ele>
        <time>2023-07-19T13:50:45.000Z</time>
      </trkpt>
      <trkpt lat="42.59861" lon="1.83513">
        <ele>1919.4000244141</ele>
        <time>2023-07-19T13:50:48.000Z</time>
      </trkpt>
      <trkpt lat="42.59858" lon="1.83508">
        <ele>1919</ele>
        <time>2023-07-19T13:50:50.000Z</time>
      </trkpt>
      <trkpt lat="42.59857" lon="1.83501">
        <ele>1918</ele>
        <time>2023-07-19T13:50:55.000Z</time>
      </trkpt>
      <trkpt lat="42.59857" lon="1.83501">
        <ele>1917.8000488281</ele>
        <time>2023-07-19T13:50:56.000Z</time>
      </trkpt>
      <trkpt lat="42.59859" lon="1.83497">
        <ele>1916.8000488281</ele>
        <time>2023-07-19T13:51:01.000Z</time>
      </trkpt>
      <trkpt lat="42.59864" lon="1.83495">
        <ele>1915.5999755859</ele>
        <time>2023-07-19T13:51:07.000Z</time>
      </trkpt>
      <trkpt lat="42.59865" lon="1.83494">
        <ele>1915</ele>
        <time>2023-07-19T13:51:09.000Z</time>
      </trkpt>
      <trkpt lat="42.59865" lon="1.83492">
        <ele>1914.4000244141</ele>
        <time>2023-07-19T13:51:11.000Z</time>
      </trkpt>
      <trkpt lat="42.59867" lon="1.83487">
        <ele>1913.4000244141</ele>
        <time>2023-07-19T13:51:16.000Z</time>
      </trkpt>
      <trkpt lat="42.59866" lon="1.83484">
        <ele>1913.1999511719</ele>
        <time>2023-07-19T13:51:17.000Z</time>
      </trkpt>
      <trkpt lat="42.59867" lon="1.83477">
        <ele>1912.5999755859</ele>
        <time>2023-07-19T13:51:20.000Z</time>
      </trkpt>
      <trkpt lat="42.59867" lon="1.83472">
        <ele>1912.4000244141</ele>
        <time>2023-07-19T13:51:21.000Z</time>
      </trkpt>
      <trkpt lat="42.59868" lon="1.83469">
        <ele>1912.1999511719</ele>
        <time>2023-07-19T13:51:23.000Z</time>
      </trkpt>
      <trkpt lat="42.59869" lon="1.83459">
        <ele>1912</ele>
        <time>2023-07-19T13:51:30.000Z</time>
      </trkpt>
      <trkpt lat="42.59873" lon="1.83456">
        <ele>1911.1999511719</ele>
        <time>2023-07-19T13:51:38.000Z</time>
      </trkpt>
      <trkpt lat="42.59873" lon="1.83455">
        <ele>1911</ele>
        <time>2023-07-19T13:51:39.000Z</time>
      </trkpt>
      <trkpt lat="42.59875" lon="1.83454">
        <ele>1910</ele>
        <time>2023-07-19T13:51:43.000Z</time>
      </trkpt>
      <trkpt lat="42.5988" lon="1.83452">
        <ele>1908.8000488281</ele>
        <time>2023-07-19T13:51:47.000Z</time>
      </trkpt>
      <trkpt lat="42.59886" lon="1.83444">
        <ele>1907.5999755859</ele>
        <time>2023-07-19T13:51:52.000Z</time>
      </trkpt>
      <trkpt lat="42.59887" lon="1.83443">
        <ele>1907.1999511719</ele>
        <time>2023-07-19T13:51:53.000Z</time>
      </trkpt>
      <trkpt lat="42.59892" lon="1.83437">
        <ele>1906.4000244141</ele>
        <time>2023-07-19T13:52:00.000Z</time>
      </trkpt>
      <trkpt lat="42.59892" lon="1.8343">
        <ele>1905.1999511719</ele>
        <time>2023-07-19T13:52:07.000Z</time>
      </trkpt>
      <trkpt lat="42.59892" lon="1.83423">
        <ele>1904.1999511719</ele>
        <time>2023-07-19T13:52:13.000Z</time>
      </trkpt>
      <trkpt lat="42.59892" lon="1.83421">
        <ele>1904.1999511719</ele>
        <time>2023-07-19T13:52:14.000Z</time>
      </trkpt>
      <trkpt lat="42.59891" lon="1.83408">
        <ele>1903.1999511719</ele>
        <time>2023-07-19T13:52:20.000Z</time>
      </trkpt>
      <trkpt lat="42.59891" lon="1.83403">
        <ele>1903.1999511719</ele>
        <time>2023-07-19T13:52:23.000Z</time>
      </trkpt>
      <trkpt lat="42.59892" lon="1.83399">
        <ele>1902.8000488281</ele>
        <time>2023-07-19T13:52:27.000Z</time>
      </trkpt>
      <trkpt lat="42.59893" lon="1.83397">
        <ele>1902.1999511719</ele>
        <time>2023-07-19T13:52:30.000Z</time>
      </trkpt>
      <trkpt lat="42.59895" lon="1.83393">
        <ele>1901.5999755859</ele>
        <time>2023-07-19T13:52:33.000Z</time>
      </trkpt>
      <trkpt lat="42.59897" lon="1.83384">
        <ele>1901.5999755859</ele>
        <time>2023-07-19T13:52:42.000Z</time>
      </trkpt>
      <trkpt lat="42.59898" lon="1.8338">
        <ele>1901.4000244141</ele>
        <time>2023-07-19T13:52:49.000Z</time>
      </trkpt>
      <trkpt lat="42.59898" lon="1.83378">
        <ele>1901</ele>
        <time>2023-07-19T13:52:51.000Z</time>
      </trkpt>
      <trkpt lat="42.59899" lon="1.83373">
        <ele>1899.8000488281</ele>
        <time>2023-07-19T13:52:57.000Z</time>
      </trkpt>
      <trkpt lat="42.59903" lon="1.83362">
        <ele>1899</ele>
        <time>2023-07-19T13:53:04.000Z</time>
      </trkpt>
      <trkpt lat="42.59903" lon="1.83361">
        <ele>1898.8000488281</ele>
        <time>2023-07-19T13:53:05.000Z</time>
      </trkpt>
      <trkpt lat="42.59905" lon="1.83352">
        <ele>1898.8000488281</ele>
        <time>2023-07-19T13:53:11.000Z</time>
      </trkpt>
      <trkpt lat="42.59906" lon="1.8334">
        <ele>1898</ele>
        <time>2023-07-19T13:53:20.000Z</time>
      </trkpt>
      <trkpt lat="42.59906" lon="1.83338">
        <ele>1897.8000488281</ele>
        <time>2023-07-19T13:53:21.000Z</time>
      </trkpt>
      <trkpt lat="42.59908" lon="1.83332">
        <ele>1897.1999511719</ele>
        <time>2023-07-19T13:53:28.000Z</time>
      </trkpt>
      <trkpt lat="42.5991" lon="1.83323">
        <ele>1897.5999755859</ele>
        <time>2023-07-19T13:53:37.000Z</time>
      </trkpt>
      <trkpt lat="42.59915" lon="1.83314">
        <ele>1898.5999755859</ele>
        <time>2023-07-19T13:53:45.000Z</time>
      </trkpt>
      <trkpt lat="42.59915" lon="1.83313">
        <ele>1898.8000488281</ele>
        <time>2023-07-19T13:53:46.000Z</time>
      </trkpt>
      <trkpt lat="42.59917" lon="1.83303">
        <ele>1899.5999755859</ele>
        <time>2023-07-19T13:53:55.000Z</time>
      </trkpt>
      <trkpt lat="42.59918" lon="1.83302">
        <ele>1899.8000488281</ele>
        <time>2023-07-19T13:53:56.000Z</time>
      </trkpt>
      <trkpt lat="42.59921" lon="1.83294">
        <ele>1900.4000244141</ele>
        <time>2023-07-19T13:54:03.000Z</time>
      </trkpt>
      <trkpt lat="42.59922" lon="1.83293">
        <ele>1900.8000488281</ele>
        <time>2023-07-19T13:54:05.000Z</time>
      </trkpt>
      <trkpt lat="42.59926" lon="1.8329">
        <ele>1901.5999755859</ele>
        <time>2023-07-19T13:54:12.000Z</time>
      </trkpt>
      <trkpt lat="42.59928" lon="1.83289">
        <ele>1902</ele>
        <time>2023-07-19T13:54:14.000Z</time>
      </trkpt>
      <trkpt lat="42.5993" lon="1.83282">
        <ele>1902.8000488281</ele>
        <time>2023-07-19T13:54:20.000Z</time>
      </trkpt>
      <trkpt lat="42.59929" lon="1.83281">
        <ele>1903</ele>
        <time>2023-07-19T13:54:22.000Z</time>
      </trkpt>
      <trkpt lat="42.59929" lon="1.8328">
        <ele>1903</ele>
        <time>2023-07-19T13:54:23.000Z</time>
      </trkpt>
      <trkpt lat="42.59926" lon="1.83281">
        <ele>1903.4000244141</ele>
        <time>2023-07-19T13:54:26.000Z</time>
      </trkpt>
      <trkpt lat="42.59921" lon="1.83281">
        <ele>1904</ele>
        <time>2023-07-19T13:54:31.000Z</time>
      </trkpt>
      <trkpt lat="42.59919" lon="1.83281">
        <ele>1904.1999511719</ele>
        <time>2023-07-19T13:54:33.000Z</time>
      </trkpt>
      <trkpt lat="42.59918" lon="1.83279">
        <ele>1905.1999511719</ele>
        <time>2023-07-19T13:54:37.000Z</time>
      </trkpt>
      <trkpt lat="42.59914" lon="1.83276">
        <ele>1905.8000488281</ele>
        <time>2023-07-19T13:54:41.000Z</time>
      </trkpt>
      <trkpt lat="42.59913" lon="1.83275">
        <ele>1906.1999511719</ele>
        <time>2023-07-19T13:54:44.000Z</time>
      </trkpt>
      <trkpt lat="42.59914" lon="1.83273">
        <ele>1907</ele>
        <time>2023-07-19T13:54:49.000Z</time>
      </trkpt>
      <trkpt lat="42.59915" lon="1.83269">
        <ele>1907.4000244141</ele>
        <time>2023-07-19T13:54:52.000Z</time>
      </trkpt>
      <trkpt lat="42.59917" lon="1.83262">
        <ele>1907.8000488281</ele>
        <time>2023-07-19T13:54:56.000Z</time>
      </trkpt>
      <trkpt lat="42.5992" lon="1.83255">
        <ele>1908.4000244141</ele>
        <time>2023-07-19T13:55:01.000Z</time>
      </trkpt>
      <trkpt lat="42.59921" lon="1.83252">
        <ele>1909</ele>
        <time>2023-07-19T13:55:04.000Z</time>
      </trkpt>
      <trkpt lat="42.59924" lon="1.8325">
        <ele>1909.5999755859</ele>
        <time>2023-07-19T13:55:08.000Z</time>
      </trkpt>
      <trkpt lat="42.59927" lon="1.83247">
        <ele>1910.4000244141</ele>
        <time>2023-07-19T13:55:13.000Z</time>
      </trkpt>
      <trkpt lat="42.59927" lon="1.83246">
        <ele>1910.8000488281</ele>
        <time>2023-07-19T13:55:15.000Z</time>
      </trkpt>
      <trkpt lat="42.59928" lon="1.83241">
        <ele>1910.8000488281</ele>
        <time>2023-07-19T13:55:19.000Z</time>
      </trkpt>
      <trkpt lat="42.59926" lon="1.83235">
        <ele>1910.1999511719</ele>
        <time>2023-07-19T13:55:25.000Z</time>
      </trkpt>
      <trkpt lat="42.59924" lon="1.83229">
        <ele>1909.8000488281</ele>
        <time>2023-07-19T13:55:34.000Z</time>
      </trkpt>
      <trkpt lat="42.59924" lon="1.83228">
        <ele>1909.5999755859</ele>
        <time>2023-07-19T13:55:35.000Z</time>
      </trkpt>
      <trkpt lat="42.59924" lon="1.83225">
        <ele>1908.8000488281</ele>
        <time>2023-07-19T13:55:41.000Z</time>
      </trkpt>
      <trkpt lat="42.59924" lon="1.83222">
        <ele>1908.1999511719</ele>
        <time>2023-07-19T13:55:44.000Z</time>
      </trkpt>
      <trkpt lat="42.59926" lon="1.83218">
        <ele>1907.5999755859</ele>
        <time>2023-07-19T13:55:48.000Z</time>
      </trkpt>
      <trkpt lat="42.59927" lon="1.83215">
        <ele>1906.8000488281</ele>
        <time>2023-07-19T13:55:51.000Z</time>
      </trkpt>
      <trkpt lat="42.59928" lon="1.83214">
        <ele>1906.4000244141</ele>
        <time>2023-07-19T13:55:53.000Z</time>
      </trkpt>
      <trkpt lat="42.5993" lon="1.83212">
        <ele>1905.1999511719</ele>
        <time>2023-07-19T13:55:57.000Z</time>
      </trkpt>
      <trkpt lat="42.59932" lon="1.8321">
        <ele>1904.4000244141</ele>
        <time>2023-07-19T13:56:00.000Z</time>
      </trkpt>
      <trkpt lat="42.59933" lon="1.83209">
        <ele>1904.1999511719</ele>
        <time>2023-07-19T13:56:01.000Z</time>
      </trkpt>
      <trkpt lat="42.59934" lon="1.83206">
        <ele>1903</ele>
        <time>2023-07-19T13:56:06.000Z</time>
      </trkpt>
      <trkpt lat="42.59935" lon="1.83205">
        <ele>1902.8000488281</ele>
        <time>2023-07-19T13:56:07.000Z</time>
      </trkpt>
      <trkpt lat="42.59939" lon="1.83204">
        <ele>1902</ele>
        <time>2023-07-19T13:56:12.000Z</time>
      </trkpt>
      <trkpt lat="42.5994" lon="1.83203">
        <ele>1901.4000244141</ele>
        <time>2023-07-19T13:56:14.000Z</time>
      </trkpt>
      <trkpt lat="42.59941" lon="1.83203">
        <ele>1900.8000488281</ele>
        <time>2023-07-19T13:56:16.000Z</time>
      </trkpt>
      <trkpt lat="42.59944" lon="1.83198">
        <ele>1900</ele>
        <time>2023-07-19T13:56:21.000Z</time>
      </trkpt>
      <trkpt lat="42.59944" lon="1.83197">
        <ele>1899.5999755859</ele>
        <time>2023-07-19T13:56:22.000Z</time>
      </trkpt>
      <trkpt lat="42.59944" lon="1.83188">
        <ele>1899</ele>
        <time>2023-07-19T13:56:28.000Z</time>
      </trkpt>
      <trkpt lat="42.59945" lon="1.83183">
        <ele>1898.5999755859</ele>
        <time>2023-07-19T13:56:32.000Z</time>
      </trkpt>
      <trkpt lat="42.59947" lon="1.8318">
        <ele>1898.1999511719</ele>
        <time>2023-07-19T13:56:36.000Z</time>
      </trkpt>
      <trkpt lat="42.59946" lon="1.83173">
        <ele>1897.4000244141</ele>
        <time>2023-07-19T13:56:43.000Z</time>
      </trkpt>
      <trkpt lat="42.59945" lon="1.83169">
        <ele>1897.1999511719</ele>
        <time>2023-07-19T13:56:45.000Z</time>
      </trkpt>
      <trkpt lat="42.59943" lon="1.83159">
        <ele>1896.8000488281</ele>
        <time>2023-07-19T13:56:51.000Z</time>
      </trkpt>
      <trkpt lat="42.59943" lon="1.83152">
        <ele>1896.1999511719</ele>
        <time>2023-07-19T13:56:55.000Z</time>
      </trkpt>
      <trkpt lat="42.59941" lon="1.83149">
        <ele>1895.8000488281</ele>
        <time>2023-07-19T13:56:58.000Z</time>
      </trkpt>
      <trkpt lat="42.5994" lon="1.83146">
        <ele>1895.1999511719</ele>
        <time>2023-07-19T13:57:01.000Z</time>
      </trkpt>
      <trkpt lat="42.59938" lon="1.83143">
        <ele>1894.5999755859</ele>
        <time>2023-07-19T13:57:05.000Z</time>
      </trkpt>
      <trkpt lat="42.59938" lon="1.83141">
        <ele>1894.1999511719</ele>
        <time>2023-07-19T13:57:07.000Z</time>
      </trkpt>
      <trkpt lat="42.59937" lon="1.83138">
        <ele>1893.4000244141</ele>
        <time>2023-07-19T13:57:12.000Z</time>
      </trkpt>
      <trkpt lat="42.59938" lon="1.83137">
        <ele>1892.8000488281</ele>
        <time>2023-07-19T13:57:14.000Z</time>
      </trkpt>
      <trkpt lat="42.5994" lon="1.83132">
        <ele>1891.8000488281</ele>
        <time>2023-07-19T13:57:19.000Z</time>
      </trkpt>
      <trkpt lat="42.5994" lon="1.83132">
        <ele>1891.5999755859</ele>
        <time>2023-07-19T13:57:20.000Z</time>
      </trkpt>
      <trkpt lat="42.59942" lon="1.83128">
        <ele>1890.8000488281</ele>
        <time>2023-07-19T13:57:25.000Z</time>
      </trkpt>
      <trkpt lat="42.59944" lon="1.83125">
        <ele>1889.5999755859</ele>
        <time>2023-07-19T13:57:30.000Z</time>
      </trkpt>
      <trkpt lat="42.59944" lon="1.83124">
        <ele>1889.1999511719</ele>
        <time>2023-07-19T13:57:32.000Z</time>
      </trkpt>
      <trkpt lat="42.59944" lon="1.83122">
        <ele>1889.1999511719</ele>
        <time>2023-07-19T13:57:33.000Z</time>
      </trkpt>
      <trkpt lat="42.59944" lon="1.83118">
        <ele>1888.5999755859</ele>
        <time>2023-07-19T13:57:37.000Z</time>
      </trkpt>
      <trkpt lat="42.59944" lon="1.83117">
        <ele>1888.4000244141</ele>
        <time>2023-07-19T13:57:38.000Z</time>
      </trkpt>
      <trkpt lat="42.59945" lon="1.83113">
        <ele>1887.4000244141</ele>
        <time>2023-07-19T13:57:44.000Z</time>
      </trkpt>
      <trkpt lat="42.59945" lon="1.83112">
        <ele>1887.1999511719</ele>
        <time>2023-07-19T13:57:45.000Z</time>
      </trkpt>
      <trkpt lat="42.59945" lon="1.83107">
        <ele>1886.1999511719</ele>
        <time>2023-07-19T13:57:50.000Z</time>
      </trkpt>
      <trkpt lat="42.59944" lon="1.83105">
        <ele>1885.5999755859</ele>
        <time>2023-07-19T13:57:54.000Z</time>
      </trkpt>
      <trkpt lat="42.59943" lon="1.83103">
        <ele>1885</ele>
        <time>2023-07-19T13:57:56.000Z</time>
      </trkpt>
      <trkpt lat="42.59942" lon="1.831">
        <ele>1884</ele>
        <time>2023-07-19T13:58:00.000Z</time>
      </trkpt>
      <trkpt lat="42.59942" lon="1.83099">
        <ele>1883.8000488281</ele>
        <time>2023-07-19T13:58:01.000Z</time>
      </trkpt>
      <trkpt lat="42.5994" lon="1.83092">
        <ele>1883.4000244141</ele>
        <time>2023-07-19T13:58:06.000Z</time>
      </trkpt>
      <trkpt lat="42.59936" lon="1.83085">
        <ele>1882.8000488281</ele>
        <time>2023-07-19T13:58:13.000Z</time>
      </trkpt>
      <trkpt lat="42.59936" lon="1.83084">
        <ele>1882.5999755859</ele>
        <time>2023-07-19T13:58:14.000Z</time>
      </trkpt>
      <trkpt lat="42.59935" lon="1.83074">
        <ele>1881.8000488281</ele>
        <time>2023-07-19T13:58:19.000Z</time>
      </trkpt>
      <trkpt lat="42.59936" lon="1.83072">
        <ele>1881.8000488281</ele>
        <time>2023-07-19T13:58:20.000Z</time>
      </trkpt>
      <trkpt lat="42.59932" lon="1.83066">
        <ele>1880.5999755859</ele>
        <time>2023-07-19T13:58:27.000Z</time>
      </trkpt>
      <trkpt lat="42.5993" lon="1.83059">
        <ele>1879.5999755859</ele>
        <time>2023-07-19T13:58:32.000Z</time>
      </trkpt>
      <trkpt lat="42.59929" lon="1.83056">
        <ele>1879</ele>
        <time>2023-07-19T13:58:35.000Z</time>
      </trkpt>
      <trkpt lat="42.59929" lon="1.83052">
        <ele>1878.5999755859</ele>
        <time>2023-07-19T13:58:39.000Z</time>
      </trkpt>
      <trkpt lat="42.59931" lon="1.83048">
        <ele>1878.1999511719</ele>
        <time>2023-07-19T13:58:42.000Z</time>
      </trkpt>
      <trkpt lat="42.59935" lon="1.83041">
        <ele>1878</ele>
        <time>2023-07-19T13:58:49.000Z</time>
      </trkpt>
      <trkpt lat="42.59935" lon="1.83031">
        <ele>1878.4000244141</ele>
        <time>2023-07-19T13:58:56.000Z</time>
      </trkpt>
      <trkpt lat="42.59935" lon="1.83029">
        <ele>1878.4000244141</ele>
        <time>2023-07-19T13:58:57.000Z</time>
      </trkpt>
      <trkpt lat="42.59932" lon="1.83013">
        <ele>1879.4000244141</ele>
        <time>2023-07-19T13:59:05.000Z</time>
      </trkpt>
      <trkpt lat="42.5993" lon="1.83001">
        <ele>1879</ele>
        <time>2023-07-19T13:59:12.000Z</time>
      </trkpt>
      <trkpt lat="42.5993" lon="1.82995">
        <ele>1878</ele>
        <time>2023-07-19T13:59:18.000Z</time>
      </trkpt>
      <trkpt lat="42.59931" lon="1.82991">
        <ele>1877.4000244141</ele>
        <time>2023-07-19T13:59:21.000Z</time>
      </trkpt>
      <trkpt lat="42.59931" lon="1.82983">
        <ele>1876.5999755859</ele>
        <time>2023-07-19T13:59:26.000Z</time>
      </trkpt>
      <trkpt lat="42.5993" lon="1.82981">
        <ele>1876.4000244141</ele>
        <time>2023-07-19T13:59:28.000Z</time>
      </trkpt>
      <trkpt lat="42.59928" lon="1.82971">
        <ele>1875.5999755859</ele>
        <time>2023-07-19T13:59:34.000Z</time>
      </trkpt>
      <trkpt lat="42.59928" lon="1.82966">
        <ele>1875.4000244141</ele>
        <time>2023-07-19T13:59:37.000Z</time>
      </trkpt>
      <trkpt lat="42.59927" lon="1.82963">
        <ele>1874.8000488281</ele>
        <time>2023-07-19T13:59:41.000Z</time>
      </trkpt>
      <trkpt lat="42.59925" lon="1.82961">
        <ele>1874.1999511719</ele>
        <time>2023-07-19T13:59:44.000Z</time>
      </trkpt>
      <trkpt lat="42.59925" lon="1.82958">
        <ele>1873</ele>
        <time>2023-07-19T13:59:49.000Z</time>
      </trkpt>
      <trkpt lat="42.59924" lon="1.82953">
        <ele>1871.8000488281</ele>
        <time>2023-07-19T13:59:56.000Z</time>
      </trkpt>
      <trkpt lat="42.59919" lon="1.82947">
        <ele>1871.4000244141</ele>
        <time>2023-07-19T14:00:01.000Z</time>
      </trkpt>
      <trkpt lat="42.5992" lon="1.82945">
        <ele>1871</ele>
        <time>2023-07-19T14:00:03.000Z</time>
      </trkpt>
      <trkpt lat="42.59921" lon="1.82945">
        <ele>1870.8000488281</ele>
        <time>2023-07-19T14:00:04.000Z</time>
      </trkpt>
      <trkpt lat="42.5992" lon="1.82939">
        <ele>1869.8000488281</ele>
        <time>2023-07-19T14:00:09.000Z</time>
      </trkpt>
      <trkpt lat="42.5992" lon="1.82938">
        <ele>1869.5999755859</ele>
        <time>2023-07-19T14:00:10.000Z</time>
      </trkpt>
      <trkpt lat="42.5992" lon="1.82934">
        <ele>1868.8000488281</ele>
        <time>2023-07-19T14:00:14.000Z</time>
      </trkpt>
      <trkpt lat="42.5992" lon="1.82932">
        <ele>1868.5999755859</ele>
        <time>2023-07-19T14:00:15.000Z</time>
      </trkpt>
      <trkpt lat="42.59924" lon="1.82929">
        <ele>1867.4000244141</ele>
        <time>2023-07-19T14:00:20.000Z</time>
      </trkpt>
      <trkpt lat="42.59923" lon="1.82928">
        <ele>1867.4000244141</ele>
        <time>2023-07-19T14:00:21.000Z</time>
      </trkpt>
      <trkpt lat="42.59926" lon="1.82927">
        <ele>1866.1999511719</ele>
        <time>2023-07-19T14:00:26.000Z</time>
      </trkpt>
      <trkpt lat="42.5993" lon="1.82926">
        <ele>1865.4000244141</ele>
        <time>2023-07-19T14:00:32.000Z</time>
      </trkpt>
      <trkpt lat="42.5993" lon="1.82926">
        <ele>1865.1999511719</ele>
        <time>2023-07-19T14:00:33.000Z</time>
      </trkpt>
      <trkpt lat="42.59926" lon="1.82921">
        <ele>1864.1999511719</ele>
        <time>2023-07-19T14:00:37.000Z</time>
      </trkpt>
      <trkpt lat="42.59925" lon="1.82919">
        <ele>1864</ele>
        <time>2023-07-19T14:00:38.000Z</time>
      </trkpt>
      <trkpt lat="42.59924" lon="1.82915">
        <ele>1863.1999511719</ele>
        <time>2023-07-19T14:00:41.000Z</time>
      </trkpt>
      <trkpt lat="42.59924" lon="1.82914">
        <ele>1862.8000488281</ele>
        <time>2023-07-19T14:00:42.000Z</time>
      </trkpt>
      <trkpt lat="42.59923" lon="1.82913">
        <ele>1862.5999755859</ele>
        <time>2023-07-19T14:00:43.000Z</time>
      </trkpt>
      <trkpt lat="42.59923" lon="1.82908">
        <ele>1862</ele>
        <time>2023-07-19T14:00:46.000Z</time>
      </trkpt>
      <trkpt lat="42.59923" lon="1.82907">
        <ele>1861.8000488281</ele>
        <time>2023-07-19T14:00:47.000Z</time>
      </trkpt>
      <trkpt lat="42.59924" lon="1.82907">
        <ele>1861.5999755859</ele>
        <time>2023-07-19T14:00:48.000Z</time>
      </trkpt>
      <trkpt lat="42.59924" lon="1.82907">
        <ele>1861.4000244141</ele>
        <time>2023-07-19T14:00:49.000Z</time>
      </trkpt>
      <trkpt lat="42.59928" lon="1.82906">
        <ele>1860.8000488281</ele>
        <time>2023-07-19T14:00:53.000Z</time>
      </trkpt>
      <trkpt lat="42.59928" lon="1.82905">
        <ele>1860.4000244141</ele>
        <time>2023-07-19T14:00:54.000Z</time>
      </trkpt>
      <trkpt lat="42.59926" lon="1.82901">
        <ele>1859.5999755859</ele>
        <time>2023-07-19T14:00:59.000Z</time>
      </trkpt>
      <trkpt lat="42.59925" lon="1.82898">
        <ele>1859.1999511719</ele>
        <time>2023-07-19T14:01:01.000Z</time>
      </trkpt>
      <trkpt lat="42.59925" lon="1.82896">
        <ele>1858.4000244141</ele>
        <time>2023-07-19T14:01:04.000Z</time>
      </trkpt>
      <trkpt lat="42.59925" lon="1.82894">
        <ele>1857.8000488281</ele>
        <time>2023-07-19T14:01:07.000Z</time>
      </trkpt>
      <trkpt lat="42.59924" lon="1.82893">
        <ele>1857.4000244141</ele>
        <time>2023-07-19T14:01:09.000Z</time>
      </trkpt>
      <trkpt lat="42.59924" lon="1.82892">
        <ele>1857.4000244141</ele>
        <time>2023-07-19T14:01:10.000Z</time>
      </trkpt>
      <trkpt lat="42.59923" lon="1.82892">
        <ele>1857.1999511719</ele>
        <time>2023-07-19T14:01:11.000Z</time>
      </trkpt>
      <trkpt lat="42.59922" lon="1.82891">
        <ele>1857</ele>
        <time>2023-07-19T14:01:13.000Z</time>
      </trkpt>
      <trkpt lat="42.5992" lon="1.82889">
        <ele>1856.5999755859</ele>
        <time>2023-07-19T14:01:15.000Z</time>
      </trkpt>
      <trkpt lat="42.5992" lon="1.82888">
        <ele>1856.4000244141</ele>
        <time>2023-07-19T14:01:16.000Z</time>
      </trkpt>
      <trkpt lat="42.5992" lon="1.82885">
        <ele>1856.1999511719</ele>
        <time>2023-07-19T14:01:18.000Z</time>
      </trkpt>
      <trkpt lat="42.59921" lon="1.82883">
        <ele>1855.5999755859</ele>
        <time>2023-07-19T14:01:22.000Z</time>
      </trkpt>
      <trkpt lat="42.59921" lon="1.82883">
        <ele>1855.1999511719</ele>
        <time>2023-07-19T14:01:25.000Z</time>
      </trkpt>
      <trkpt lat="42.59924" lon="1.82882">
        <ele>1854</ele>
        <time>2023-07-19T14:01:31.000Z</time>
      </trkpt>
      <trkpt lat="42.59925" lon="1.82882">
        <ele>1853.5999755859</ele>
        <time>2023-07-19T14:01:33.000Z</time>
      </trkpt>
      <trkpt lat="42.59927" lon="1.82882">
        <ele>1853</ele>
        <time>2023-07-19T14:01:36.000Z</time>
      </trkpt>
      <trkpt lat="42.5993" lon="1.82879">
        <ele>1851.8000488281</ele>
        <time>2023-07-19T14:01:42.000Z</time>
      </trkpt>
      <trkpt lat="42.59931" lon="1.82875">
        <ele>1850.5999755859</ele>
        <time>2023-07-19T14:01:47.000Z</time>
      </trkpt>
      <trkpt lat="42.59931" lon="1.82872">
        <ele>1850</ele>
        <time>2023-07-19T14:01:50.000Z</time>
      </trkpt>
      <trkpt lat="42.59931" lon="1.82869">
        <ele>1849.4000244141</ele>
        <time>2023-07-19T14:01:53.000Z</time>
      </trkpt>
      <trkpt lat="42.59932" lon="1.82866">
        <ele>1848.4000244141</ele>
        <time>2023-07-19T14:01:59.000Z</time>
      </trkpt>
      <trkpt lat="42.59932" lon="1.82866">
        <ele>1848.1999511719</ele>
        <time>2023-07-19T14:02:00.000Z</time>
      </trkpt>
      <trkpt lat="42.5993" lon="1.82861">
        <ele>1848</ele>
        <time>2023-07-19T14:02:11.000Z</time>
      </trkpt>
      <trkpt lat="42.59929" lon="1.82856">
        <ele>1847.5999755859</ele>
        <time>2023-07-19T14:02:18.000Z</time>
      </trkpt>
      <trkpt lat="42.59929" lon="1.82855">
        <ele>1847.1999511719</ele>
        <time>2023-07-19T14:02:20.000Z</time>
      </trkpt>
      <trkpt lat="42.59932" lon="1.82851">
        <ele>1846.5999755859</ele>
        <time>2023-07-19T14:02:26.000Z</time>
      </trkpt>
      <trkpt lat="42.59933" lon="1.82848">
        <ele>1846.1999511719</ele>
        <time>2023-07-19T14:02:30.000Z</time>
      </trkpt>
      <trkpt lat="42.59934" lon="1.82845">
        <ele>1845.5999755859</ele>
        <time>2023-07-19T14:02:34.000Z</time>
      </trkpt>
      <trkpt lat="42.59934" lon="1.82843">
        <ele>1845.1999511719</ele>
        <time>2023-07-19T14:02:38.000Z</time>
      </trkpt>
      <trkpt lat="42.59933" lon="1.82842">
        <ele>1845</ele>
        <time>2023-07-19T14:02:40.000Z</time>
      </trkpt>
      <trkpt lat="42.5993" lon="1.82838">
        <ele>1844.1999511719</ele>
        <time>2023-07-19T14:02:45.000Z</time>
      </trkpt>
      <trkpt lat="42.59929" lon="1.82834">
        <ele>1843.1999511719</ele>
        <time>2023-07-19T14:02:51.000Z</time>
      </trkpt>
      <trkpt lat="42.59929" lon="1.82833">
        <ele>1842.4000244141</ele>
        <time>2023-07-19T14:02:54.000Z</time>
      </trkpt>
      <trkpt lat="42.5993" lon="1.82832">
        <ele>1842</ele>
        <time>2023-07-19T14:02:56.000Z</time>
      </trkpt>
      <trkpt lat="42.59931" lon="1.82825">
        <ele>1841.1999511719</ele>
        <time>2023-07-19T14:03:01.000Z</time>
      </trkpt>
      <trkpt lat="42.59931" lon="1.82824">
        <ele>1840.8000488281</ele>
        <time>2023-07-19T14:03:02.000Z</time>
      </trkpt>
      <trkpt lat="42.59932" lon="1.82818">
        <ele>1840.1999511719</ele>
        <time>2023-07-19T14:03:06.000Z</time>
      </trkpt>
      <trkpt lat="42.59934" lon="1.82816">
        <ele>1839.8000488281</ele>
        <time>2023-07-19T14:03:08.000Z</time>
      </trkpt>
      <trkpt lat="42.59937" lon="1.82813">
        <ele>1838.5999755859</ele>
        <time>2023-07-19T14:03:12.000Z</time>
      </trkpt>
      <trkpt lat="42.59939" lon="1.82812">
        <ele>1838</ele>
        <time>2023-07-19T14:03:15.000Z</time>
      </trkpt>
      <trkpt lat="42.5994" lon="1.82811">
        <ele>1837.5999755859</ele>
        <time>2023-07-19T14:03:17.000Z</time>
      </trkpt>
      <trkpt lat="42.59943" lon="1.82808">
        <ele>1836.4000244141</ele>
        <time>2023-07-19T14:03:21.000Z</time>
      </trkpt>
      <trkpt lat="42.59945" lon="1.82808">
        <ele>1836</ele>
        <time>2023-07-19T14:03:23.000Z</time>
      </trkpt>
      <trkpt lat="42.59948" lon="1.82805">
        <ele>1835.4000244141</ele>
        <time>2023-07-19T14:03:28.000Z</time>
      </trkpt>
      <trkpt lat="42.59949" lon="1.82804">
        <ele>1835.4000244141</ele>
        <time>2023-07-19T14:03:29.000Z</time>
      </trkpt>
      <trkpt lat="42.5995" lon="1.82795">
        <ele>1835</ele>
        <time>2023-07-19T14:03:35.000Z</time>
      </trkpt>
      <trkpt lat="42.59949" lon="1.82793">
        <ele>1834.8000488281</ele>
        <time>2023-07-19T14:03:36.000Z</time>
      </trkpt>
      <trkpt lat="42.59947" lon="1.8279">
        <ele>1834.8000488281</ele>
        <time>2023-07-19T14:03:38.000Z</time>
      </trkpt>
      <trkpt lat="42.59946" lon="1.82788">
        <ele>1834.8000488281</ele>
        <time>2023-07-19T14:03:40.000Z</time>
      </trkpt>
      <trkpt lat="42.59946" lon="1.82789">
        <ele>1834.4000244141</ele>
        <time>2023-07-19T14:03:42.000Z</time>
      </trkpt>
      <trkpt lat="42.59946" lon="1.82786">
        <ele>1834.1999511719</ele>
        <time>2023-07-19T14:03:43.000Z</time>
      </trkpt>
      <trkpt lat="42.59945" lon="1.82781">
        <ele>1834.1999511719</ele>
        <time>2023-07-19T14:03:45.000Z</time>
      </trkpt>
      <trkpt lat="42.59944" lon="1.82773">
        <ele>1833.4000244141</ele>
        <time>2023-07-19T14:03:51.000Z</time>
      </trkpt>
      <trkpt lat="42.59945" lon="1.8277">
        <ele>1833.4000244141</ele>
        <time>2023-07-19T14:03:53.000Z</time>
      </trkpt>
      <trkpt lat="42.59944" lon="1.82767">
        <ele>1833.1999511719</ele>
        <time>2023-07-19T14:03:55.000Z</time>
      </trkpt>
      <trkpt lat="42.59943" lon="1.82758">
        <ele>1832.4000244141</ele>
        <time>2023-07-19T14:04:02.000Z</time>
      </trkpt>
      <trkpt lat="42.59943" lon="1.82748">
        <ele>1832</ele>
        <time>2023-07-19T14:04:08.000Z</time>
      </trkpt>
      <trkpt lat="42.59942" lon="1.82738">
        <ele>1831.4000244141</ele>
        <time>2023-07-19T14:04:15.000Z</time>
      </trkpt>
      <trkpt lat="42.59944" lon="1.82731">
        <ele>1830.4000244141</ele>
        <time>2023-07-19T14:04:22.000Z</time>
      </trkpt>
      <trkpt lat="42.59944" lon="1.82732">
        <ele>1830.1999511719</ele>
        <time>2023-07-19T14:04:23.000Z</time>
      </trkpt>
      <trkpt lat="42.59944" lon="1.82726">
        <ele>1829.1999511719</ele>
        <time>2023-07-19T14:04:27.000Z</time>
      </trkpt>
      <trkpt lat="42.59942" lon="1.82724">
        <ele>1829</ele>
        <time>2023-07-19T14:04:28.000Z</time>
      </trkpt>
      <trkpt lat="42.59938" lon="1.82716">
        <ele>1828.4000244141</ele>
        <time>2023-07-19T14:04:31.000Z</time>
      </trkpt>
      <trkpt lat="42.59937" lon="1.82712">
        <ele>1827.8000488281</ele>
        <time>2023-07-19T14:04:34.000Z</time>
      </trkpt>
      <trkpt lat="42.59936" lon="1.82708">
        <ele>1827</ele>
        <time>2023-07-19T14:04:38.000Z</time>
      </trkpt>
      <trkpt lat="42.59937" lon="1.82705">
        <ele>1826.5999755859</ele>
        <time>2023-07-19T14:04:40.000Z</time>
      </trkpt>
      <trkpt lat="42.59938" lon="1.82697">
        <ele>1826</ele>
        <time>2023-07-19T14:04:44.000Z</time>
      </trkpt>
      <trkpt lat="42.59938" lon="1.82694">
        <ele>1825.5999755859</ele>
        <time>2023-07-19T14:04:46.000Z</time>
      </trkpt>
      <trkpt lat="42.59937" lon="1.82692">
        <ele>1825.4000244141</ele>
        <time>2023-07-19T14:04:47.000Z</time>
      </trkpt>
      <trkpt lat="42.59933" lon="1.82688">
        <ele>1825.4000244141</ele>
        <time>2023-07-19T14:04:49.000Z</time>
      </trkpt>
      <trkpt lat="42.59928" lon="1.82675">
        <ele>1826.1999511719</ele>
        <time>2023-07-19T14:04:57.000Z</time>
      </trkpt>
      <trkpt lat="42.59929" lon="1.82673">
        <ele>1826.5999755859</ele>
        <time>2023-07-19T14:04:59.000Z</time>
      </trkpt>
      <trkpt lat="42.59927" lon="1.82669">
        <ele>1827.1999511719</ele>
        <time>2023-07-19T14:05:03.000Z</time>
      </trkpt>
      <trkpt lat="42.59927" lon="1.82664">
        <ele>1827.8000488281</ele>
        <time>2023-07-19T14:05:06.000Z</time>
      </trkpt>
      <trkpt lat="42.59926" lon="1.82658">
        <ele>1827.8000488281</ele>
        <time>2023-07-19T14:05:10.000Z</time>
      </trkpt>
      <trkpt lat="42.59922" lon="1.82646">
        <ele>1828.4000244141</ele>
        <time>2023-07-19T14:05:20.000Z</time>
      </trkpt>
      <trkpt lat="42.5992" lon="1.82635">
        <ele>1828.1999511719</ele>
        <time>2023-07-19T14:05:27.000Z</time>
      </trkpt>
      <trkpt lat="42.59919" lon="1.82624">
        <ele>1827</ele>
        <time>2023-07-19T14:05:36.000Z</time>
      </trkpt>
      <trkpt lat="42.59919" lon="1.82622">
        <ele>1826.5999755859</ele>
        <time>2023-07-19T14:05:38.000Z</time>
      </trkpt>
      <trkpt lat="42.59918" lon="1.82619">
        <ele>1825.5999755859</ele>
        <time>2023-07-19T14:05:43.000Z</time>
      </trkpt>
      <trkpt lat="42.59918" lon="1.82618">
        <ele>1825.4000244141</ele>
        <time>2023-07-19T14:05:44.000Z</time>
      </trkpt>
      <trkpt lat="42.59916" lon="1.82614">
        <ele>1824.4000244141</ele>
        <time>2023-07-19T14:05:48.000Z</time>
      </trkpt>
      <trkpt lat="42.59915" lon="1.8261">
        <ele>1823.4000244141</ele>
        <time>2023-07-19T14:05:52.000Z</time>
      </trkpt>
      <trkpt lat="42.59914" lon="1.82606">
        <ele>1822</ele>
        <time>2023-07-19T14:05:56.000Z</time>
      </trkpt>
      <trkpt lat="42.59913" lon="1.82603">
        <ele>1821.4000244141</ele>
        <time>2023-07-19T14:05:59.000Z</time>
      </trkpt>
      <trkpt lat="42.59912" lon="1.82602">
        <ele>1820.5999755859</ele>
        <time>2023-07-19T14:06:01.000Z</time>
      </trkpt>
      <trkpt lat="42.5991" lon="1.82598">
        <ele>1819.5999755859</ele>
        <time>2023-07-19T14:06:04.000Z</time>
      </trkpt>
      <trkpt lat="42.59909" lon="1.82596">
        <ele>1818.5999755859</ele>
        <time>2023-07-19T14:06:07.000Z</time>
      </trkpt>
      <trkpt lat="42.59908" lon="1.82595">
        <ele>1818.4000244141</ele>
        <time>2023-07-19T14:06:08.000Z</time>
      </trkpt>
      <trkpt lat="42.59906" lon="1.82592">
        <ele>1817.1999511719</ele>
        <time>2023-07-19T14:06:12.000Z</time>
      </trkpt>
      <trkpt lat="42.59905" lon="1.82592">
        <ele>1816.5999755859</ele>
        <time>2023-07-19T14:06:14.000Z</time>
      </trkpt>
      <trkpt lat="42.59905" lon="1.82593">
        <ele>1816.1999511719</ele>
        <time>2023-07-19T14:06:16.000Z</time>
      </trkpt>
      <trkpt lat="42.59904" lon="1.82588">
        <ele>1815</ele>
        <time>2023-07-19T14:06:21.000Z</time>
      </trkpt>
      <trkpt lat="42.59904" lon="1.82587">
        <ele>1815</ele>
        <time>2023-07-19T14:06:22.000Z</time>
      </trkpt>
      <trkpt lat="42.59904" lon="1.82581">
        <ele>1814</ele>
        <time>2023-07-19T14:06:26.000Z</time>
      </trkpt>
      <trkpt lat="42.59905" lon="1.82577">
        <ele>1813.4000244141</ele>
        <time>2023-07-19T14:06:29.000Z</time>
      </trkpt>
      <trkpt lat="42.59906" lon="1.82576">
        <ele>1813</ele>
        <time>2023-07-19T14:06:31.000Z</time>
      </trkpt>
      <trkpt lat="42.59909" lon="1.8257">
        <ele>1812.5999755859</ele>
        <time>2023-07-19T14:06:36.000Z</time>
      </trkpt>
      <trkpt lat="42.5991" lon="1.82557">
        <ele>1812.1999511719</ele>
        <time>2023-07-19T14:06:43.000Z</time>
      </trkpt>
      <trkpt lat="42.59909" lon="1.82553">
        <ele>1811.8000488281</ele>
        <time>2023-07-19T14:06:45.000Z</time>
      </trkpt>
      <trkpt lat="42.59909" lon="1.82547">
        <ele>1811</ele>
        <time>2023-07-19T14:06:50.000Z</time>
      </trkpt>
      <trkpt lat="42.5991" lon="1.8254">
        <ele>1810.8000488281</ele>
        <time>2023-07-19T14:06:54.000Z</time>
      </trkpt>
      <trkpt lat="42.59911" lon="1.82535">
        <ele>1810.4000244141</ele>
        <time>2023-07-19T14:06:57.000Z</time>
      </trkpt>
      <trkpt lat="42.59913" lon="1.82528">
        <ele>1809.5999755859</ele>
        <time>2023-07-19T14:07:03.000Z</time>
      </trkpt>
      <trkpt lat="42.59914" lon="1.82523">
        <ele>1809</ele>
        <time>2023-07-19T14:07:07.000Z</time>
      </trkpt>
      <trkpt lat="42.59914" lon="1.82521">
        <ele>1808.5999755859</ele>
        <time>2023-07-19T14:07:09.000Z</time>
      </trkpt>
      <trkpt lat="42.59914" lon="1.82514">
        <ele>1807.5999755859</ele>
        <time>2023-07-19T14:07:14.000Z</time>
      </trkpt>
      <trkpt lat="42.59913" lon="1.82512">
        <ele>1807.1999511719</ele>
        <time>2023-07-19T14:07:16.000Z</time>
      </trkpt>
      <trkpt lat="42.59912" lon="1.82512">
        <ele>1806.8000488281</ele>
        <time>2023-07-19T14:07:18.000Z</time>
      </trkpt>
      <trkpt lat="42.59909" lon="1.82512">
        <ele>1806.4000244141</ele>
        <time>2023-07-19T14:07:21.000Z</time>
      </trkpt>
      <trkpt lat="42.59909" lon="1.82508">
        <ele>1805.5999755859</ele>
        <time>2023-07-19T14:07:24.000Z</time>
      </trkpt>
      <trkpt lat="42.59909" lon="1.82506">
        <ele>1805.4000244141</ele>
        <time>2023-07-19T14:07:25.000Z</time>
      </trkpt>
      <trkpt lat="42.59909" lon="1.82502">
        <ele>1804.8000488281</ele>
        <time>2023-07-19T14:07:28.000Z</time>
      </trkpt>
      <trkpt lat="42.59909" lon="1.82501">
        <ele>1804.4000244141</ele>
        <time>2023-07-19T14:07:30.000Z</time>
      </trkpt>
      <trkpt lat="42.59908" lon="1.82496">
        <ele>1803.4000244141</ele>
        <time>2023-07-19T14:07:35.000Z</time>
      </trkpt>
      <trkpt lat="42.59907" lon="1.82495">
        <ele>1803.1999511719</ele>
        <time>2023-07-19T14:07:36.000Z</time>
      </trkpt>
      <trkpt lat="42.59905" lon="1.82486">
        <ele>1802.1999511719</ele>
        <time>2023-07-19T14:07:42.000Z</time>
      </trkpt>
      <trkpt lat="42.59905" lon="1.82485">
        <ele>1802</ele>
        <time>2023-07-19T14:07:43.000Z</time>
      </trkpt>
      <trkpt lat="42.59906" lon="1.82478">
        <ele>1801.5999755859</ele>
        <time>2023-07-19T14:07:50.000Z</time>
      </trkpt>
      <trkpt lat="42.59907" lon="1.82475">
        <ele>1801</ele>
        <time>2023-07-19T14:07:52.000Z</time>
      </trkpt>
      <trkpt lat="42.59908" lon="1.82467">
        <ele>1799.8000488281</ele>
        <time>2023-07-19T14:07:59.000Z</time>
      </trkpt>
      <trkpt lat="42.59909" lon="1.82462">
        <ele>1798.8000488281</ele>
        <time>2023-07-19T14:08:04.000Z</time>
      </trkpt>
      <trkpt lat="42.5991" lon="1.82452">
        <ele>1797.5999755859</ele>
        <time>2023-07-19T14:08:10.000Z</time>
      </trkpt>
      <trkpt lat="42.59909" lon="1.82445">
        <ele>1796.1999511719</ele>
        <time>2023-07-19T14:08:16.000Z</time>
      </trkpt>
      <trkpt lat="42.5991" lon="1.82443">
        <ele>1795.8000488281</ele>
        <time>2023-07-19T14:08:18.000Z</time>
      </trkpt>
      <trkpt lat="42.59911" lon="1.82442">
        <ele>1795.1999511719</ele>
        <time>2023-07-19T14:08:21.000Z</time>
      </trkpt>
      <trkpt lat="42.59913" lon="1.82436">
        <ele>1794.1999511719</ele>
        <time>2023-07-19T14:08:26.000Z</time>
      </trkpt>
      <trkpt lat="42.59913" lon="1.82435">
        <ele>1794</ele>
        <time>2023-07-19T14:08:27.000Z</time>
      </trkpt>
      <trkpt lat="42.59915" lon="1.8243">
        <ele>1793</ele>
        <time>2023-07-19T14:08:34.000Z</time>
      </trkpt>
      <trkpt lat="42.59911" lon="1.82424">
        <ele>1792</ele>
        <time>2023-07-19T14:08:41.000Z</time>
      </trkpt>
      <trkpt lat="42.5991" lon="1.82423">
        <ele>1791.8000488281</ele>
        <time>2023-07-19T14:08:42.000Z</time>
      </trkpt>
      <trkpt lat="42.59906" lon="1.82423">
        <ele>1791.4000244141</ele>
        <time>2023-07-19T14:08:48.000Z</time>
      </trkpt>
      <trkpt lat="42.59907" lon="1.82419">
        <ele>1791.8000488281</ele>
        <time>2023-07-19T14:08:54.000Z</time>
      </trkpt>
      <trkpt lat="42.59913" lon="1.82409">
        <ele>1791.1999511719</ele>
        <time>2023-07-19T14:09:03.000Z</time>
      </trkpt>
      <trkpt lat="42.59913" lon="1.82402">
        <ele>1790.8000488281</ele>
        <time>2023-07-19T14:09:09.000Z</time>
      </trkpt>
      <trkpt lat="42.59913" lon="1.82402">
        <ele>1790.8000488281</ele>
        <time>2023-07-19T14:09:10.000Z</time>
      </trkpt>
      <trkpt lat="42.59913" lon="1.82389">
        <ele>1790.1999511719</ele>
        <time>2023-07-19T14:09:18.000Z</time>
      </trkpt>
      <trkpt lat="42.59912" lon="1.82381">
        <ele>1789.8000488281</ele>
        <time>2023-07-19T14:09:23.000Z</time>
      </trkpt>
      <trkpt lat="42.5991" lon="1.82374">
        <ele>1790</ele>
        <time>2023-07-19T14:09:28.000Z</time>
      </trkpt>
      <trkpt lat="42.59905" lon="1.8236">
        <ele>1790.4000244141</ele>
        <time>2023-07-19T14:09:36.000Z</time>
      </trkpt>
      <trkpt lat="42.59902" lon="1.82351">
        <ele>1790.1999511719</ele>
        <time>2023-07-19T14:09:42.000Z</time>
      </trkpt>
      <trkpt lat="42.59898" lon="1.82344">
        <ele>1789</ele>
        <time>2023-07-19T14:09:50.000Z</time>
      </trkpt>
      <trkpt lat="42.59893" lon="1.82335">
        <ele>1789.8000488281</ele>
        <time>2023-07-19T14:09:59.000Z</time>
      </trkpt>
      <trkpt lat="42.59889" lon="1.82324">
        <ele>1789.8000488281</ele>
        <time>2023-07-19T14:10:07.000Z</time>
      </trkpt>
      <trkpt lat="42.59885" lon="1.82314">
        <ele>1790.4000244141</ele>
        <time>2023-07-19T14:10:16.000Z</time>
      </trkpt>
      <trkpt lat="42.59886" lon="1.82309">
        <ele>1790.4000244141</ele>
        <time>2023-07-19T14:10:23.000Z</time>
      </trkpt>
      <trkpt lat="42.59885" lon="1.82296">
        <ele>1790.1999511719</ele>
        <time>2023-07-19T14:10:32.000Z</time>
      </trkpt>
      <trkpt lat="42.59883" lon="1.82288">
        <ele>1790.4000244141</ele>
        <time>2023-07-19T14:10:39.000Z</time>
      </trkpt>
      <trkpt lat="42.59881" lon="1.82282">
        <ele>1790.4000244141</ele>
        <time>2023-07-19T14:10:46.000Z</time>
      </trkpt>
      <trkpt lat="42.5988" lon="1.82274">
        <ele>1790.8000488281</ele>
        <time>2023-07-19T14:10:50.000Z</time>
      </trkpt>
      <trkpt lat="42.59879" lon="1.82268">
        <ele>1790.8000488281</ele>
        <time>2023-07-19T14:10:54.000Z</time>
      </trkpt>
      <trkpt lat="42.59878" lon="1.8225">
        <ele>1790</ele>
        <time>2023-07-19T14:11:04.000Z</time>
      </trkpt>
      <trkpt lat="42.59877" lon="1.82249">
        <ele>1789.8000488281</ele>
        <time>2023-07-19T14:11:05.000Z</time>
      </trkpt>
      <trkpt lat="42.59875" lon="1.82239">
        <ele>1789.1999511719</ele>
        <time>2023-07-19T14:11:12.000Z</time>
      </trkpt>
      <trkpt lat="42.59872" lon="1.82232">
        <ele>1788.8000488281</ele>
        <time>2023-07-19T14:11:17.000Z</time>
      </trkpt>
      <trkpt lat="42.59869" lon="1.82226">
        <ele>1787.8000488281</ele>
        <time>2023-07-19T14:11:23.000Z</time>
      </trkpt>
      <trkpt lat="42.59868" lon="1.8222">
        <ele>1786.5999755859</ele>
        <time>2023-07-19T14:11:29.000Z</time>
      </trkpt>
      <trkpt lat="42.59868" lon="1.82218">
        <ele>1786.4000244141</ele>
        <time>2023-07-19T14:11:31.000Z</time>
      </trkpt>
      <trkpt lat="42.59869" lon="1.82211">
        <ele>1785.4000244141</ele>
        <time>2023-07-19T14:11:37.000Z</time>
      </trkpt>
      <trkpt lat="42.59869" lon="1.82208">
        <ele>1785.1999511719</ele>
        <time>2023-07-19T14:11:39.000Z</time>
      </trkpt>
      <trkpt lat="42.59869" lon="1.82202">
        <ele>1784.4000244141</ele>
        <time>2023-07-19T14:11:43.000Z</time>
      </trkpt>
      <trkpt lat="42.59869" lon="1.82198">
        <ele>1784</ele>
        <time>2023-07-19T14:11:46.000Z</time>
      </trkpt>
      <trkpt lat="42.59869" lon="1.82194">
        <ele>1783.4000244141</ele>
        <time>2023-07-19T14:11:50.000Z</time>
      </trkpt>
      <trkpt lat="42.5987" lon="1.82189">
        <ele>1783.1999511719</ele>
        <time>2023-07-19T14:11:54.000Z</time>
      </trkpt>
      <trkpt lat="42.5987" lon="1.82177">
        <ele>1782.5999755859</ele>
        <time>2023-07-19T14:12:01.000Z</time>
      </trkpt>
      <trkpt lat="42.59868" lon="1.82166">
        <ele>1782.4000244141</ele>
        <time>2023-07-19T14:12:09.000Z</time>
      </trkpt>
      <trkpt lat="42.59868" lon="1.82165">
        <ele>1782.4000244141</ele>
        <time>2023-07-19T14:12:10.000Z</time>
      </trkpt>
      <trkpt lat="42.5987" lon="1.82153">
        <ele>1781.4000244141</ele>
        <time>2023-07-19T14:12:18.000Z</time>
      </trkpt>
      <trkpt lat="42.59873" lon="1.82142">
        <ele>1780.4000244141</ele>
        <time>2023-07-19T14:12:28.000Z</time>
      </trkpt>
      <trkpt lat="42.59873" lon="1.8214">
        <ele>1780.1999511719</ele>
        <time>2023-07-19T14:12:29.000Z</time>
      </trkpt>
      <trkpt lat="42.59874" lon="1.82136">
        <ele>1779.1999511719</ele>
        <time>2023-07-19T14:12:34.000Z</time>
      </trkpt>
      <trkpt lat="42.59875" lon="1.82131">
        <ele>1779</ele>
        <time>2023-07-19T14:12:38.000Z</time>
      </trkpt>
      <trkpt lat="42.59878" lon="1.82127">
        <ele>1779.1999511719</ele>
        <time>2023-07-19T14:12:45.000Z</time>
      </trkpt>
      <trkpt lat="42.5988" lon="1.82122">
        <ele>1778.5999755859</ele>
        <time>2023-07-19T14:12:50.000Z</time>
      </trkpt>
      <trkpt lat="42.5988" lon="1.82121">
        <ele>1778.1999511719</ele>
        <time>2023-07-19T14:12:51.000Z</time>
      </trkpt>
      <trkpt lat="42.5988" lon="1.82119">
        <ele>1777.4000244141</ele>
        <time>2023-07-19T14:12:53.000Z</time>
      </trkpt>
      <trkpt lat="42.59881" lon="1.82116">
        <ele>1777</ele>
        <time>2023-07-19T14:12:55.000Z</time>
      </trkpt>
      <trkpt lat="42.59881" lon="1.82108">
        <ele>1777.1999511719</ele>
        <time>2023-07-19T14:13:01.000Z</time>
      </trkpt>
      <trkpt lat="42.59888" lon="1.82095">
        <ele>1777</ele>
        <time>2023-07-19T14:13:11.000Z</time>
      </trkpt>
      <trkpt lat="42.59892" lon="1.82081">
        <ele>1776</ele>
        <time>2023-07-19T14:13:22.000Z</time>
      </trkpt>
      <trkpt lat="42.59898" lon="1.82076">
        <ele>1775</ele>
        <time>2023-07-19T14:13:28.000Z</time>
      </trkpt>
      <trkpt lat="42.59898" lon="1.82066">
        <ele>1775</ele>
        <time>2023-07-19T14:13:36.000Z</time>
      </trkpt>
      <trkpt lat="42.59901" lon="1.82047">
        <ele>1775.5999755859</ele>
        <time>2023-07-19T14:13:45.000Z</time>
      </trkpt>
      <trkpt lat="42.59903" lon="1.82039">
        <ele>1775.4000244141</ele>
        <time>2023-07-19T14:13:51.000Z</time>
      </trkpt>
      <trkpt lat="42.59907" lon="1.82028">
        <ele>1774.1999511719</ele>
        <time>2023-07-19T14:13:59.000Z</time>
      </trkpt>
      <trkpt lat="42.59908" lon="1.82025">
        <ele>1774</ele>
        <time>2023-07-19T14:14:01.000Z</time>
      </trkpt>
      <trkpt lat="42.5991" lon="1.8202">
        <ele>1773.5999755859</ele>
        <time>2023-07-19T14:14:06.000Z</time>
      </trkpt>
      <trkpt lat="42.59911" lon="1.82013">
        <ele>1774.4000244141</ele>
        <time>2023-07-19T14:14:14.000Z</time>
      </trkpt>
      <trkpt lat="42.59912" lon="1.82009">
        <ele>1775.1999511719</ele>
        <time>2023-07-19T14:14:18.000Z</time>
      </trkpt>
      <trkpt lat="42.59912" lon="1.82006">
        <ele>1775.5999755859</ele>
        <time>2023-07-19T14:14:23.000Z</time>
      </trkpt>
      <trkpt lat="42.59912" lon="1.81999">
        <ele>1776.1999511719</ele>
        <time>2023-07-19T14:14:29.000Z</time>
      </trkpt>
      <trkpt lat="42.59911" lon="1.81996">
        <ele>1776.4000244141</ele>
        <time>2023-07-19T14:14:32.000Z</time>
      </trkpt>
      <trkpt lat="42.5991" lon="1.81985">
        <ele>1777.4000244141</ele>
        <time>2023-07-19T14:14:42.000Z</time>
      </trkpt>
      <trkpt lat="42.59911" lon="1.81979">
        <ele>1778</ele>
        <time>2023-07-19T14:14:49.000Z</time>
      </trkpt>
      <trkpt lat="42.59911" lon="1.81979">
        <ele>1778.4000244141</ele>
        <time>2023-07-19T14:14:52.000Z</time>
      </trkpt>
      <trkpt lat="42.59911" lon="1.81975">
        <ele>1779.4000244141</ele>
        <time>2023-07-19T14:14:57.000Z</time>
      </trkpt>
      <trkpt lat="42.59911" lon="1.81973">
        <ele>1779.5999755859</ele>
        <time>2023-07-19T14:14:58.000Z</time>
      </trkpt>
      <trkpt lat="42.59912" lon="1.81968">
        <ele>1780.4000244141</ele>
        <time>2023-07-19T14:15:04.000Z</time>
      </trkpt>
      <trkpt lat="42.59912" lon="1.81966">
        <ele>1780.5999755859</ele>
        <time>2023-07-19T14:15:06.000Z</time>
      </trkpt>
      <trkpt lat="42.59911" lon="1.81961">
        <ele>1781.8000488281</ele>
        <time>2023-07-19T14:15:14.000Z</time>
      </trkpt>
      <trkpt lat="42.5991" lon="1.81954">
        <ele>1782.8000488281</ele>
        <time>2023-07-19T14:15:22.000Z</time>
      </trkpt>
      <trkpt lat="42.59911" lon="1.81948">
        <ele>1784</ele>
        <time>2023-07-19T14:15:29.000Z</time>
      </trkpt>
      <trkpt lat="42.5991" lon="1.81948">
        <ele>1784.1999511719</ele>
        <time>2023-07-19T14:15:31.000Z</time>
      </trkpt>
      <trkpt lat="42.59908" lon="1.81942">
        <ele>1785.1999511719</ele>
        <time>2023-07-19T14:15:38.000Z</time>
      </trkpt>
      <trkpt lat="42.59907" lon="1.81942">
        <ele>1785.4000244141</ele>
        <time>2023-07-19T14:15:39.000Z</time>
      </trkpt>
      <trkpt lat="42.59906" lon="1.81937">
        <ele>1786.1999511719</ele>
        <time>2023-07-19T14:15:47.000Z</time>
      </trkpt>
      <trkpt lat="42.59906" lon="1.81937">
        <ele>1786.4000244141</ele>
        <time>2023-07-19T14:15:48.000Z</time>
      </trkpt>
      <trkpt lat="42.59907" lon="1.8193">
        <ele>1787.1999511719</ele>
        <time>2023-07-19T14:15:56.000Z</time>
      </trkpt>
      <trkpt lat="42.59905" lon="1.81918">
        <ele>1788.1999511719</ele>
        <time>2023-07-19T14:16:06.000Z</time>
      </trkpt>
      <trkpt lat="42.59905" lon="1.81918">
        <ele>1788.4000244141</ele>
        <time>2023-07-19T14:16:07.000Z</time>
      </trkpt>
      <trkpt lat="42.59902" lon="1.81911">
        <ele>1789</ele>
        <time>2023-07-19T14:16:12.000Z</time>
      </trkpt>
      <trkpt lat="42.599" lon="1.8191">
        <ele>1789.4000244141</ele>
        <time>2023-07-19T14:16:17.000Z</time>
      </trkpt>
      <trkpt lat="42.59899" lon="1.8191">
        <ele>1790</ele>
        <time>2023-07-19T14:16:19.000Z</time>
      </trkpt>
      <trkpt lat="42.59898" lon="1.81911">
        <ele>1790.5999755859</ele>
        <time>2023-07-19T14:16:22.000Z</time>
      </trkpt>
      <trkpt lat="42.59896" lon="1.81909">
        <ele>1791</ele>
        <time>2023-07-19T14:16:25.000Z</time>
      </trkpt>
      <trkpt lat="42.59892" lon="1.81905">
        <ele>1791.5999755859</ele>
        <time>2023-07-19T14:16:31.000Z</time>
      </trkpt>
      <trkpt lat="42.59891" lon="1.81903">
        <ele>1791.5999755859</ele>
        <time>2023-07-19T14:16:33.000Z</time>
      </trkpt>
      <trkpt lat="42.59885" lon="1.81898">
        <ele>1792.5999755859</ele>
        <time>2023-07-19T14:16:42.000Z</time>
      </trkpt>
      <trkpt lat="42.59884" lon="1.81896">
        <ele>1793</ele>
        <time>2023-07-19T14:16:44.000Z</time>
      </trkpt>
      <trkpt lat="42.59881" lon="1.81893">
        <ele>1793.5999755859</ele>
        <time>2023-07-19T14:16:49.000Z</time>
      </trkpt>
      <trkpt lat="42.59879" lon="1.81891">
        <ele>1794.4000244141</ele>
        <time>2023-07-19T14:16:53.000Z</time>
      </trkpt>
      <trkpt lat="42.59878" lon="1.8189">
        <ele>1794.8000488281</ele>
        <time>2023-07-19T14:16:55.000Z</time>
      </trkpt>
      <trkpt lat="42.59876" lon="1.81889">
        <ele>1795.4000244141</ele>
        <time>2023-07-19T14:17:01.000Z</time>
      </trkpt>
      <trkpt lat="42.59874" lon="1.81887">
        <ele>1795.8000488281</ele>
        <time>2023-07-19T14:17:03.000Z</time>
      </trkpt>
      <trkpt lat="42.5987" lon="1.81887">
        <ele>1796.5999755859</ele>
        <time>2023-07-19T14:17:09.000Z</time>
      </trkpt>
      <trkpt lat="42.59868" lon="1.81885">
        <ele>1797</ele>
        <time>2023-07-19T14:17:11.000Z</time>
      </trkpt>
      <trkpt lat="42.59864" lon="1.81883">
        <ele>1797.5999755859</ele>
        <time>2023-07-19T14:17:16.000Z</time>
      </trkpt>
      <trkpt lat="42.5986" lon="1.81876">
        <ele>1797.1999511719</ele>
        <time>2023-07-19T14:17:24.000Z</time>
      </trkpt>
      <trkpt lat="42.59858" lon="1.81868">
        <ele>1795.8000488281</ele>
        <time>2023-07-19T14:17:33.000Z</time>
      </trkpt>
      <trkpt lat="42.59855" lon="1.81861">
        <ele>1794.5999755859</ele>
        <time>2023-07-19T14:17:39.000Z</time>
      </trkpt>
      <trkpt lat="42.59853" lon="1.81858">
        <ele>1794.4000244141</ele>
        <time>2023-07-19T14:17:41.000Z</time>
      </trkpt>
      <trkpt lat="42.59852" lon="1.81855">
        <ele>1793.4000244141</ele>
        <time>2023-07-19T14:17:45.000Z</time>
      </trkpt>
      <trkpt lat="42.59851" lon="1.81853">
        <ele>1793</ele>
        <time>2023-07-19T14:17:47.000Z</time>
      </trkpt>
      <trkpt lat="42.59849" lon="1.81852">
        <ele>1792.4000244141</ele>
        <time>2023-07-19T14:17:50.000Z</time>
      </trkpt>
      <trkpt lat="42.59846" lon="1.81849">
        <ele>1792</ele>
        <time>2023-07-19T14:17:54.000Z</time>
      </trkpt>
      <trkpt lat="42.59839" lon="1.81843">
        <ele>1791.1999511719</ele>
        <time>2023-07-19T14:18:03.000Z</time>
      </trkpt>
      <trkpt lat="42.59834" lon="1.8184">
        <ele>1790</ele>
        <time>2023-07-19T14:18:10.000Z</time>
      </trkpt>
      <trkpt lat="42.59834" lon="1.8184">
        <ele>1789.8000488281</ele>
        <time>2023-07-19T14:18:11.000Z</time>
      </trkpt>
      <trkpt lat="42.59833" lon="1.81838">
        <ele>1788.8000488281</ele>
        <time>2023-07-19T14:18:16.000Z</time>
      </trkpt>
      <trkpt lat="42.59831" lon="1.81836">
        <ele>1788</ele>
        <time>2023-07-19T14:18:18.000Z</time>
      </trkpt>
      <trkpt lat="42.59829" lon="1.81833">
        <ele>1787.4000244141</ele>
        <time>2023-07-19T14:18:20.000Z</time>
      </trkpt>
      <trkpt lat="42.59825" lon="1.81828">
        <ele>1786.1999511719</ele>
        <time>2023-07-19T14:18:24.000Z</time>
      </trkpt>
      <trkpt lat="42.59823" lon="1.81826">
        <ele>1785.8000488281</ele>
        <time>2023-07-19T14:18:27.000Z</time>
      </trkpt>
      <trkpt lat="42.59821" lon="1.81824">
        <ele>1785.1999511719</ele>
        <time>2023-07-19T14:18:30.000Z</time>
      </trkpt>
      <trkpt lat="42.59819" lon="1.81823">
        <ele>1784.1999511719</ele>
        <time>2023-07-19T14:18:35.000Z</time>
      </trkpt>
      <trkpt lat="42.59814" lon="1.81821">
        <ele>1783</ele>
        <time>2023-07-19T14:18:41.000Z</time>
      </trkpt>
      <trkpt lat="42.59812" lon="1.8182">
        <ele>1782.8000488281</ele>
        <time>2023-07-19T14:18:42.000Z</time>
      </trkpt>
      <trkpt lat="42.59806" lon="1.81816">
        <ele>1781.5999755859</ele>
        <time>2023-07-19T14:18:48.000Z</time>
      </trkpt>
      <trkpt lat="42.59805" lon="1.81816">
        <ele>1781.4000244141</ele>
        <time>2023-07-19T14:18:49.000Z</time>
      </trkpt>
      <trkpt lat="42.59802" lon="1.81818">
        <ele>1780.4000244141</ele>
        <time>2023-07-19T14:18:55.000Z</time>
      </trkpt>
      <trkpt lat="42.59801" lon="1.81818">
        <ele>1780.1999511719</ele>
        <time>2023-07-19T14:18:56.000Z</time>
      </trkpt>
      <trkpt lat="42.59798" lon="1.81816">
        <ele>1779.4000244141</ele>
        <time>2023-07-19T14:18:59.000Z</time>
      </trkpt>
      <trkpt lat="42.59794" lon="1.81814">
        <ele>1778.4000244141</ele>
        <time>2023-07-19T14:19:03.000Z</time>
      </trkpt>
      <trkpt lat="42.59794" lon="1.81814">
        <ele>1778.1999511719</ele>
        <time>2023-07-19T14:19:04.000Z</time>
      </trkpt>
      <trkpt lat="42.59792" lon="1.81813">
        <ele>1777.1999511719</ele>
        <time>2023-07-19T14:19:09.000Z</time>
      </trkpt>
      <trkpt lat="42.59791" lon="1.81813">
        <ele>1777.1999511719</ele>
        <time>2023-07-19T14:19:10.000Z</time>
      </trkpt>
      <trkpt lat="42.59783" lon="1.81812">
        <ele>1776.1999511719</ele>
        <time>2023-07-19T14:19:16.000Z</time>
      </trkpt>
      <trkpt lat="42.59782" lon="1.81813">
        <ele>1775.8000488281</ele>
        <time>2023-07-19T14:19:17.000Z</time>
      </trkpt>
      <trkpt lat="42.59778" lon="1.81817">
        <ele>1774.8000488281</ele>
        <time>2023-07-19T14:19:22.000Z</time>
      </trkpt>
      <trkpt lat="42.59776" lon="1.81816">
        <ele>1774.4000244141</ele>
        <time>2023-07-19T14:19:25.000Z</time>
      </trkpt>
      <trkpt lat="42.59775" lon="1.81812">
        <ele>1773.8000488281</ele>
        <time>2023-07-19T14:19:30.000Z</time>
      </trkpt>
      <trkpt lat="42.59774" lon="1.81812">
        <ele>1773.5999755859</ele>
        <time>2023-07-19T14:19:31.000Z</time>
      </trkpt>
      <trkpt lat="42.5977" lon="1.81807">
        <ele>1772.8000488281</ele>
        <time>2023-07-19T14:19:36.000Z</time>
      </trkpt>
      <trkpt lat="42.59767" lon="1.81807">
        <ele>1772.1999511719</ele>
        <time>2023-07-19T14:19:38.000Z</time>
      </trkpt>
      <trkpt lat="42.59763" lon="1.81806">
        <ele>1771.8000488281</ele>
        <time>2023-07-19T14:19:40.000Z</time>
      </trkpt>
      <trkpt lat="42.59762" lon="1.81806">
        <ele>1771.5999755859</ele>
        <time>2023-07-19T14:19:41.000Z</time>
      </trkpt>
      <trkpt lat="42.59758" lon="1.81804">
        <ele>1771.4000244141</ele>
        <time>2023-07-19T14:19:43.000Z</time>
      </trkpt>
      <trkpt lat="42.59754" lon="1.81801">
        <ele>1770.5999755859</ele>
        <time>2023-07-19T14:19:46.000Z</time>
      </trkpt>
      <trkpt lat="42.59749" lon="1.81796">
        <ele>1769.4000244141</ele>
        <time>2023-07-19T14:19:51.000Z</time>
      </trkpt>
      <trkpt lat="42.59747" lon="1.81793">
        <ele>1769</ele>
        <time>2023-07-19T14:19:53.000Z</time>
      </trkpt>
      <trkpt lat="42.59745" lon="1.8179">
        <ele>1768.4000244141</ele>
        <time>2023-07-19T14:19:56.000Z</time>
      </trkpt>
      <trkpt lat="42.59743" lon="1.81786">
        <ele>1767.8000488281</ele>
        <time>2023-07-19T14:19:59.000Z</time>
      </trkpt>
      <trkpt lat="42.59741" lon="1.81784">
        <ele>1767.1999511719</ele>
        <time>2023-07-19T14:20:01.000Z</time>
      </trkpt>
      <trkpt lat="42.59739" lon="1.81779">
        <ele>1766.1999511719</ele>
        <time>2023-07-19T14:20:06.000Z</time>
      </trkpt>
      <trkpt lat="42.59738" lon="1.81775">
        <ele>1765.5999755859</ele>
        <time>2023-07-19T14:20:09.000Z</time>
      </trkpt>
      <trkpt lat="42.59738" lon="1.81774">
        <ele>1765.1999511719</ele>
        <time>2023-07-19T14:20:11.000Z</time>
      </trkpt>
      <trkpt lat="42.59736" lon="1.81774">
        <ele>1765</ele>
        <time>2023-07-19T14:20:14.000Z</time>
      </trkpt>
      <trkpt lat="42.5973" lon="1.81768">
        <ele>1764.1999511719</ele>
        <time>2023-07-19T14:20:21.000Z</time>
      </trkpt>
      <trkpt lat="42.5973" lon="1.81767">
        <ele>1764</ele>
        <time>2023-07-19T14:20:22.000Z</time>
      </trkpt>
      <trkpt lat="42.59728" lon="1.81759">
        <ele>1763.1999511719</ele>
        <time>2023-07-19T14:20:28.000Z</time>
      </trkpt>
      <trkpt lat="42.59727" lon="1.81759">
        <ele>1762.8000488281</ele>
        <time>2023-07-19T14:20:29.000Z</time>
      </trkpt>
      <trkpt lat="42.59724" lon="1.81757">
        <ele>1762.4000244141</ele>
        <time>2023-07-19T14:20:34.000Z</time>
      </trkpt>
      <trkpt lat="42.59723" lon="1.81755">
        <ele>1761.5999755859</ele>
        <time>2023-07-19T14:20:37.000Z</time>
      </trkpt>
      <trkpt lat="42.59722" lon="1.8175">
        <ele>1760.8000488281</ele>
        <time>2023-07-19T14:20:40.000Z</time>
      </trkpt>
      <trkpt lat="42.59721" lon="1.81748">
        <ele>1760.4000244141</ele>
        <time>2023-07-19T14:20:42.000Z</time>
      </trkpt>
      <trkpt lat="42.59716" lon="1.81746">
        <ele>1759.4000244141</ele>
        <time>2023-07-19T14:20:47.000Z</time>
      </trkpt>
      <trkpt lat="42.59713" lon="1.81743">
        <ele>1758</ele>
        <time>2023-07-19T14:20:52.000Z</time>
      </trkpt>
      <trkpt lat="42.59712" lon="1.81737">
        <ele>1757</ele>
        <time>2023-07-19T14:20:55.000Z</time>
      </trkpt>
      <trkpt lat="42.59709" lon="1.81728">
        <ele>1756</ele>
        <time>2023-07-19T14:21:02.000Z</time>
      </trkpt>
      <trkpt lat="42.59708" lon="1.81727">
        <ele>1756</ele>
        <time>2023-07-19T14:21:03.000Z</time>
      </trkpt>
      <trkpt lat="42.59705" lon="1.81717">
        <ele>1754.8000488281</ele>
        <time>2023-07-19T14:21:09.000Z</time>
      </trkpt>
      <trkpt lat="42.59704" lon="1.81717">
        <ele>1754.5999755859</ele>
        <time>2023-07-19T14:21:10.000Z</time>
      </trkpt>
      <trkpt lat="42.59702" lon="1.81714">
        <ele>1754.1999511719</ele>
        <time>2023-07-19T14:21:20.000Z</time>
      </trkpt>
      <trkpt lat="42.597" lon="1.81713">
        <ele>1753.8000488281</ele>
        <time>2023-07-19T14:21:23.000Z</time>
      </trkpt>
      <trkpt lat="42.597" lon="1.81713">
        <ele>1753.5999755859</ele>
        <time>2023-07-19T14:21:24.000Z</time>
      </trkpt>
      <trkpt lat="42.59696" lon="1.81702">
        <ele>1753</ele>
        <time>2023-07-19T14:21:33.000Z</time>
      </trkpt>
      <trkpt lat="42.59695" lon="1.817">
        <ele>1752.5999755859</ele>
        <time>2023-07-19T14:21:35.000Z</time>
      </trkpt>
      <trkpt lat="42.59695" lon="1.81696">
        <ele>1752.4000244141</ele>
        <time>2023-07-19T14:21:39.000Z</time>
      </trkpt>
      <trkpt lat="42.59696" lon="1.81692">
        <ele>1752.1999511719</ele>
        <time>2023-07-19T14:21:44.000Z</time>
      </trkpt>
      <trkpt lat="42.59693" lon="1.81685">
        <ele>1751.4000244141</ele>
        <time>2023-07-19T14:21:49.000Z</time>
      </trkpt>
      <trkpt lat="42.59691" lon="1.8168">
        <ele>1751</ele>
        <time>2023-07-19T14:21:53.000Z</time>
      </trkpt>
      <trkpt lat="42.5969" lon="1.81673">
        <ele>1750.4000244141</ele>
        <time>2023-07-19T14:22:01.000Z</time>
      </trkpt>
      <trkpt lat="42.59686" lon="1.81674">
        <ele>1750.4000244141</ele>
        <time>2023-07-19T14:22:05.000Z</time>
      </trkpt>
      <trkpt lat="42.59685" lon="1.81673">
        <ele>1750.1999511719</ele>
        <time>2023-07-19T14:22:07.000Z</time>
      </trkpt>
      <trkpt lat="42.59682" lon="1.81668">
        <ele>1749.4000244141</ele>
        <time>2023-07-19T14:22:11.000Z</time>
      </trkpt>
      <trkpt lat="42.5968" lon="1.81667">
        <ele>1748.8000488281</ele>
        <time>2023-07-19T14:22:13.000Z</time>
      </trkpt>
      <trkpt lat="42.59677" lon="1.81663">
        <ele>1748.4000244141</ele>
        <time>2023-07-19T14:22:16.000Z</time>
      </trkpt>
      <trkpt lat="42.59673" lon="1.81657">
        <ele>1747.5999755859</ele>
        <time>2023-07-19T14:22:21.000Z</time>
      </trkpt>
      <trkpt lat="42.5967" lon="1.81654">
        <ele>1747.4000244141</ele>
        <time>2023-07-19T14:22:23.000Z</time>
      </trkpt>
      <trkpt lat="42.59666" lon="1.81648">
        <ele>1746.4000244141</ele>
        <time>2023-07-19T14:22:29.000Z</time>
      </trkpt>
      <trkpt lat="42.59666" lon="1.81647">
        <ele>1746.1999511719</ele>
        <time>2023-07-19T14:22:30.000Z</time>
      </trkpt>
      <trkpt lat="42.59662" lon="1.81641">
        <ele>1745.4000244141</ele>
        <time>2023-07-19T14:22:36.000Z</time>
      </trkpt>
      <trkpt lat="42.59661" lon="1.81638">
        <ele>1745.1999511719</ele>
        <time>2023-07-19T14:22:38.000Z</time>
      </trkpt>
      <trkpt lat="42.59658" lon="1.81631">
        <ele>1744.5999755859</ele>
        <time>2023-07-19T14:22:42.000Z</time>
      </trkpt>
      <trkpt lat="42.59656" lon="1.81626">
        <ele>1744.1999511719</ele>
        <time>2023-07-19T14:22:46.000Z</time>
      </trkpt>
      <trkpt lat="42.59654" lon="1.81623">
        <ele>1743.8000488281</ele>
        <time>2023-07-19T14:22:49.000Z</time>
      </trkpt>
      <trkpt lat="42.59652" lon="1.81618">
        <ele>1743.1999511719</ele>
        <time>2023-07-19T14:22:55.000Z</time>
      </trkpt>
      <trkpt lat="42.59652" lon="1.81617">
        <ele>1743.1999511719</ele>
        <time>2023-07-19T14:22:56.000Z</time>
      </trkpt>
      <trkpt lat="42.59649" lon="1.81613">
        <ele>1742.1999511719</ele>
        <time>2023-07-19T14:23:02.000Z</time>
      </trkpt>
      <trkpt lat="42.59647" lon="1.8161">
        <ele>1742.4000244141</ele>
        <time>2023-07-19T14:23:10.000Z</time>
      </trkpt>
      <trkpt lat="42.59642" lon="1.81608">
        <ele>1742</ele>
        <time>2023-07-19T14:23:18.000Z</time>
      </trkpt>
      <trkpt lat="42.59637" lon="1.81605">
        <ele>1741.1999511719</ele>
        <time>2023-07-19T14:23:23.000Z</time>
      </trkpt>
      <trkpt lat="42.59634" lon="1.81602">
        <ele>1740.8000488281</ele>
        <time>2023-07-19T14:23:26.000Z</time>
      </trkpt>
      <trkpt lat="42.59629" lon="1.81596">
        <ele>1740</ele>
        <time>2023-07-19T14:23:31.000Z</time>
      </trkpt>
      <trkpt lat="42.59627" lon="1.81594">
        <ele>1739.4000244141</ele>
        <time>2023-07-19T14:23:34.000Z</time>
      </trkpt>
      <trkpt lat="42.59625" lon="1.81592">
        <ele>1739</ele>
        <time>2023-07-19T14:23:38.000Z</time>
      </trkpt>
      <trkpt lat="42.59623" lon="1.8159">
        <ele>1738.5999755859</ele>
        <time>2023-07-19T14:23:40.000Z</time>
      </trkpt>
      <trkpt lat="42.59621" lon="1.81587">
        <ele>1738</ele>
        <time>2023-07-19T14:23:44.000Z</time>
      </trkpt>
      <trkpt lat="42.59621" lon="1.81585">
        <ele>1737.1999511719</ele>
        <time>2023-07-19T14:23:47.000Z</time>
      </trkpt>
      <trkpt lat="42.59622" lon="1.81583">
        <ele>1736.8000488281</ele>
        <time>2023-07-19T14:23:49.000Z</time>
      </trkpt>
      <trkpt lat="42.59625" lon="1.8158">
        <ele>1736</ele>
        <time>2023-07-19T14:23:53.000Z</time>
      </trkpt>
      <trkpt lat="42.59625" lon="1.8158">
        <ele>1735.5999755859</ele>
        <time>2023-07-19T14:23:54.000Z</time>
      </trkpt>
      <trkpt lat="42.59631" lon="1.81582">
        <ele>1734.5999755859</ele>
        <time>2023-07-19T14:24:00.000Z</time>
      </trkpt>
      <trkpt lat="42.59636" lon="1.81582">
        <ele>1733.4000244141</ele>
        <time>2023-07-19T14:24:04.000Z</time>
      </trkpt>
      <trkpt lat="42.59639" lon="1.8158">
        <ele>1732</ele>
        <time>2023-07-19T14:24:10.000Z</time>
      </trkpt>
      <trkpt lat="42.5964" lon="1.81577">
        <ele>1730.5999755859</ele>
        <time>2023-07-19T14:24:15.000Z</time>
      </trkpt>
      <trkpt lat="42.5964" lon="1.81576">
        <ele>1730</ele>
        <time>2023-07-19T14:24:18.000Z</time>
      </trkpt>
      <trkpt lat="42.5964" lon="1.81574">
        <ele>1729.4000244141</ele>
        <time>2023-07-19T14:24:20.000Z</time>
      </trkpt>
      <trkpt lat="42.5964" lon="1.81573">
        <ele>1729</ele>
        <time>2023-07-19T14:24:22.000Z</time>
      </trkpt>
      <trkpt lat="42.59639" lon="1.81569">
        <ele>1728.1999511719</ele>
        <time>2023-07-19T14:24:26.000Z</time>
      </trkpt>
      <trkpt lat="42.59639" lon="1.81568">
        <ele>1727.5999755859</ele>
        <time>2023-07-19T14:24:27.000Z</time>
      </trkpt>
      <trkpt lat="42.59637" lon="1.81567">
        <ele>1726.4000244141</ele>
        <time>2023-07-19T14:24:29.000Z</time>
      </trkpt>
      <trkpt lat="42.59636" lon="1.81564">
        <ele>1725.1999511719</ele>
        <time>2023-07-19T14:24:33.000Z</time>
      </trkpt>
      <trkpt lat="42.59635" lon="1.8156">
        <ele>1724.1999511719</ele>
        <time>2023-07-19T14:24:37.000Z</time>
      </trkpt>
      <trkpt lat="42.59634" lon="1.8156">
        <ele>1724</ele>
        <time>2023-07-19T14:24:38.000Z</time>
      </trkpt>
      <trkpt lat="42.59632" lon="1.81556">
        <ele>1722.8000488281</ele>
        <time>2023-07-19T14:24:42.000Z</time>
      </trkpt>
      <trkpt lat="42.59631" lon="1.81555">
        <ele>1722.4000244141</ele>
        <time>2023-07-19T14:24:44.000Z</time>
      </trkpt>
      <trkpt lat="42.59629" lon="1.81554">
        <ele>1721.5999755859</ele>
        <time>2023-07-19T14:24:47.000Z</time>
      </trkpt>
      <trkpt lat="42.59627" lon="1.81553">
        <ele>1720.5999755859</ele>
        <time>2023-07-19T14:24:51.000Z</time>
      </trkpt>
      <trkpt lat="42.59626" lon="1.81552">
        <ele>1720.5999755859</ele>
        <time>2023-07-19T14:24:52.000Z</time>
      </trkpt>
      <trkpt lat="42.59624" lon="1.81551">
        <ele>1719.4000244141</ele>
        <time>2023-07-19T14:24:57.000Z</time>
      </trkpt>
      <trkpt lat="42.59623" lon="1.81551">
        <ele>1718.5999755859</ele>
        <time>2023-07-19T14:25:00.000Z</time>
      </trkpt>
      <trkpt lat="42.59624" lon="1.8155">
        <ele>1718.4000244141</ele>
        <time>2023-07-19T14:25:01.000Z</time>
      </trkpt>
      <trkpt lat="42.59625" lon="1.81549">
        <ele>1717.4000244141</ele>
        <time>2023-07-19T14:25:06.000Z</time>
      </trkpt>
      <trkpt lat="42.59626" lon="1.81548">
        <ele>1716.8000488281</ele>
        <time>2023-07-19T14:25:08.000Z</time>
      </trkpt>
      <trkpt lat="42.59629" lon="1.81546">
        <ele>1716.1999511719</ele>
        <time>2023-07-19T14:25:11.000Z</time>
      </trkpt>
      <trkpt lat="42.59634" lon="1.81543">
        <ele>1715.1999511719</ele>
        <time>2023-07-19T14:25:15.000Z</time>
      </trkpt>
      <trkpt lat="42.59635" lon="1.81542">
        <ele>1714.8000488281</ele>
        <time>2023-07-19T14:25:16.000Z</time>
      </trkpt>
      <trkpt lat="42.59637" lon="1.8154">
        <ele>1714.1999511719</ele>
        <time>2023-07-19T14:25:21.000Z</time>
      </trkpt>
      <trkpt lat="42.59637" lon="1.81539">
        <ele>1713.8000488281</ele>
        <time>2023-07-19T14:25:23.000Z</time>
      </trkpt>
      <trkpt lat="42.59636" lon="1.81541">
        <ele>1712.5999755859</ele>
        <time>2023-07-19T14:25:28.000Z</time>
      </trkpt>
      <trkpt lat="42.59631" lon="1.81544">
        <ele>1710.4000244141</ele>
        <time>2023-07-19T14:25:45.000Z</time>
      </trkpt>
      <trkpt lat="42.59631" lon="1.81544">
        <ele>1710.4000244141</ele>
        <time>2023-07-19T14:25:46.000Z</time>
      </trkpt>
      <trkpt lat="42.59627" lon="1.81544">
        <ele>1709.4000244141</ele>
        <time>2023-07-19T14:25:51.000Z</time>
      </trkpt>
      <trkpt lat="42.59625" lon="1.81542">
        <ele>1708.5999755859</ele>
        <time>2023-07-19T14:25:54.000Z</time>
      </trkpt>
      <trkpt lat="42.59624" lon="1.81541">
        <ele>1708.4000244141</ele>
        <time>2023-07-19T14:25:55.000Z</time>
      </trkpt>
      <trkpt lat="42.59622" lon="1.81535">
        <ele>1707.1999511719</ele>
        <time>2023-07-19T14:26:00.000Z</time>
      </trkpt>
      <trkpt lat="42.59622" lon="1.81535">
        <ele>1707</ele>
        <time>2023-07-19T14:26:01.000Z</time>
      </trkpt>
      <trkpt lat="42.59622" lon="1.81531">
        <ele>1706.1999511719</ele>
        <time>2023-07-19T14:26:05.000Z</time>
      </trkpt>
      <trkpt lat="42.59623" lon="1.81531">
        <ele>1705.5999755859</ele>
        <time>2023-07-19T14:26:08.000Z</time>
      </trkpt>
      <trkpt lat="42.59624" lon="1.81531">
        <ele>1705.1999511719</ele>
        <time>2023-07-19T14:26:11.000Z</time>
      </trkpt>
      <trkpt lat="42.59624" lon="1.81529">
        <ele>1704.4000244141</ele>
        <time>2023-07-19T14:26:15.000Z</time>
      </trkpt>
      <trkpt lat="42.59624" lon="1.81526">
        <ele>1704</ele>
        <time>2023-07-19T14:26:17.000Z</time>
      </trkpt>
      <trkpt lat="42.59622" lon="1.81524">
        <ele>1703</ele>
        <time>2023-07-19T14:26:22.000Z</time>
      </trkpt>
      <trkpt lat="42.59621" lon="1.81523">
        <ele>1702.1999511719</ele>
        <time>2023-07-19T14:26:25.000Z</time>
      </trkpt>
      <trkpt lat="42.59621" lon="1.81524">
        <ele>1701.8000488281</ele>
        <time>2023-07-19T14:26:28.000Z</time>
      </trkpt>
      <trkpt lat="42.59619" lon="1.81527">
        <ele>1700.4000244141</ele>
        <time>2023-07-19T14:26:33.000Z</time>
      </trkpt>
      <trkpt lat="42.59616" lon="1.81525">
        <ele>1699.4000244141</ele>
        <time>2023-07-19T14:26:37.000Z</time>
      </trkpt>
      <trkpt lat="42.59617" lon="1.81524">
        <ele>1699.1999511719</ele>
        <time>2023-07-19T14:26:38.000Z</time>
      </trkpt>
      <trkpt lat="42.59618" lon="1.81522">
        <ele>1698.1999511719</ele>
        <time>2023-07-19T14:26:42.000Z</time>
      </trkpt>
      <trkpt lat="42.59618" lon="1.81521">
        <ele>1697.8000488281</ele>
        <time>2023-07-19T14:26:44.000Z</time>
      </trkpt>
      <trkpt lat="42.59618" lon="1.81519">
        <ele>1697.1999511719</ele>
        <time>2023-07-19T14:26:47.000Z</time>
      </trkpt>
      <trkpt lat="42.59619" lon="1.81518">
        <ele>1696.1999511719</ele>
        <time>2023-07-19T14:26:51.000Z</time>
      </trkpt>
      <trkpt lat="42.59619" lon="1.81518">
        <ele>1695.8000488281</ele>
        <time>2023-07-19T14:26:52.000Z</time>
      </trkpt>
      <trkpt lat="42.59619" lon="1.81515">
        <ele>1695.1999511719</ele>
        <time>2023-07-19T14:26:56.000Z</time>
      </trkpt>
      <trkpt lat="42.59619" lon="1.81513">
        <ele>1694.8000488281</ele>
        <time>2023-07-19T14:26:59.000Z</time>
      </trkpt>
      <trkpt lat="42.59618" lon="1.81508">
        <ele>1694</ele>
        <time>2023-07-19T14:27:08.000Z</time>
      </trkpt>
      <trkpt lat="42.59612" lon="1.81514">
        <ele>1692.8000488281</ele>
        <time>2023-07-19T14:27:14.000Z</time>
      </trkpt>
      <trkpt lat="42.59611" lon="1.81515">
        <ele>1692.5999755859</ele>
        <time>2023-07-19T14:27:15.000Z</time>
      </trkpt>
      <trkpt lat="42.59609" lon="1.81514">
        <ele>1691.8000488281</ele>
        <time>2023-07-19T14:27:19.000Z</time>
      </trkpt>
      <trkpt lat="42.59608" lon="1.81513">
        <ele>1691</ele>
        <time>2023-07-19T14:27:22.000Z</time>
      </trkpt>
      <trkpt lat="42.59607" lon="1.81513">
        <ele>1690.8000488281</ele>
        <time>2023-07-19T14:27:23.000Z</time>
      </trkpt>
      <trkpt lat="42.59606" lon="1.81519">
        <ele>1689.8000488281</ele>
        <time>2023-07-19T14:27:28.000Z</time>
      </trkpt>
      <trkpt lat="42.59602" lon="1.81527">
        <ele>1690.4000244141</ele>
        <time>2023-07-19T14:27:36.000Z</time>
      </trkpt>
      <trkpt lat="42.596" lon="1.81528">
        <ele>1690.5999755859</ele>
        <time>2023-07-19T14:27:38.000Z</time>
      </trkpt>
      <trkpt lat="42.59597" lon="1.81527">
        <ele>1690.8000488281</ele>
        <time>2023-07-19T14:27:41.000Z</time>
      </trkpt>
      <trkpt lat="42.5959" lon="1.81526">
        <ele>1691.1999511719</ele>
        <time>2023-07-19T14:27:46.000Z</time>
      </trkpt>
      <trkpt lat="42.59584" lon="1.81527">
        <ele>1691.8000488281</ele>
        <time>2023-07-19T14:27:51.000Z</time>
      </trkpt>
      <trkpt lat="42.59583" lon="1.81527">
        <ele>1692</ele>
        <time>2023-07-19T14:27:52.000Z</time>
      </trkpt>
      <trkpt lat="42.59576" lon="1.81524">
        <ele>1692.8000488281</ele>
        <time>2023-07-19T14:27:59.000Z</time>
      </trkpt>
      <trkpt lat="42.59575" lon="1.81524">
        <ele>1693</ele>
        <time>2023-07-19T14:28:00.000Z</time>
      </trkpt>
      <trkpt lat="42.59569" lon="1.81515">
        <ele>1693.4000244141</ele>
        <time>2023-07-19T14:28:07.000Z</time>
      </trkpt>
      <trkpt lat="42.59568" lon="1.81514">
        <ele>1694</ele>
        <time>2023-07-19T14:28:12.000Z</time>
      </trkpt>
      <trkpt lat="42.59566" lon="1.81514">
        <ele>1694.4000244141</ele>
        <time>2023-07-19T14:28:14.000Z</time>
      </trkpt>
      <trkpt lat="42.59563" lon="1.81513">
        <ele>1695</ele>
        <time>2023-07-19T14:28:17.000Z</time>
      </trkpt>
      <trkpt lat="42.5956" lon="1.81512">
        <ele>1696.1999511719</ele>
        <time>2023-07-19T14:28:22.000Z</time>
      </trkpt>
      <trkpt lat="42.59558" lon="1.81511">
        <ele>1696.5999755859</ele>
        <time>2023-07-19T14:28:27.000Z</time>
      </trkpt>
      <trkpt lat="42.59554" lon="1.81504">
        <ele>1696.4000244141</ele>
        <time>2023-07-19T14:28:33.000Z</time>
      </trkpt>
      <trkpt lat="42.59553" lon="1.81503">
        <ele>1696.4000244141</ele>
        <time>2023-07-19T14:28:34.000Z</time>
      </trkpt>
      <trkpt lat="42.59551" lon="1.81498">
        <ele>1696.1999511719</ele>
        <time>2023-07-19T14:28:37.000Z</time>
      </trkpt>
      <trkpt lat="42.59547" lon="1.81485">
        <ele>1695.8000488281</ele>
        <time>2023-07-19T14:28:44.000Z</time>
      </trkpt>
      <trkpt lat="42.59546" lon="1.81475">
        <ele>1697</ele>
        <time>2023-07-19T14:28:50.000Z</time>
      </trkpt>
      <trkpt lat="42.59541" lon="1.8146">
        <ele>1696.4000244141</ele>
        <time>2023-07-19T14:28:58.000Z</time>
      </trkpt>
      <trkpt lat="42.5954" lon="1.81454">
        <ele>1696</ele>
        <time>2023-07-19T14:29:04.000Z</time>
      </trkpt>
      <trkpt lat="42.59536" lon="1.81446">
        <ele>1696.5999755859</ele>
        <time>2023-07-19T14:29:09.000Z</time>
      </trkpt>
      <trkpt lat="42.59532" lon="1.81438">
        <ele>1697</ele>
        <time>2023-07-19T14:29:17.000Z</time>
      </trkpt>
      <trkpt lat="42.59526" lon="1.81429">
        <ele>1696.4000244141</ele>
        <time>2023-07-19T14:29:24.000Z</time>
      </trkpt>
      <trkpt lat="42.59522" lon="1.81424">
        <ele>1696</ele>
        <time>2023-07-19T14:29:30.000Z</time>
      </trkpt>
      <trkpt lat="42.59518" lon="1.81411">
        <ele>1695.4000244141</ele>
        <time>2023-07-19T14:29:39.000Z</time>
      </trkpt>
      <trkpt lat="42.59517" lon="1.81409">
        <ele>1694.8000488281</ele>
        <time>2023-07-19T14:29:41.000Z</time>
      </trkpt>
      <trkpt lat="42.59514" lon="1.81404">
        <ele>1694.8000488281</ele>
        <time>2023-07-19T14:29:47.000Z</time>
      </trkpt>
      <trkpt lat="42.5951" lon="1.81402">
        <ele>1694.5999755859</ele>
        <time>2023-07-19T14:29:49.000Z</time>
      </trkpt>
      <trkpt lat="42.59506" lon="1.81398">
        <ele>1694.1999511719</ele>
        <time>2023-07-19T14:29:52.000Z</time>
      </trkpt>
      <trkpt lat="42.59502" lon="1.81395">
        <ele>1693.8000488281</ele>
        <time>2023-07-19T14:29:55.000Z</time>
      </trkpt>
      <trkpt lat="42.59497" lon="1.81392">
        <ele>1693</ele>
        <time>2023-07-19T14:29:59.000Z</time>
      </trkpt>
      <trkpt lat="42.59496" lon="1.81391">
        <ele>1692.8000488281</ele>
        <time>2023-07-19T14:30:00.000Z</time>
      </trkpt>
      <trkpt lat="42.59493" lon="1.81387">
        <ele>1691.8000488281</ele>
        <time>2023-07-19T14:30:04.000Z</time>
      </trkpt>
      <trkpt lat="42.59492" lon="1.81385">
        <ele>1691</ele>
        <time>2023-07-19T14:30:07.000Z</time>
      </trkpt>
      <trkpt lat="42.5949" lon="1.81383">
        <ele>1690.5999755859</ele>
        <time>2023-07-19T14:30:09.000Z</time>
      </trkpt>
      <trkpt lat="42.59483" lon="1.81376">
        <ele>1689.8000488281</ele>
        <time>2023-07-19T14:30:14.000Z</time>
      </trkpt>
      <trkpt lat="42.59481" lon="1.81371">
        <ele>1689.4000244141</ele>
        <time>2023-07-19T14:30:17.000Z</time>
      </trkpt>
      <trkpt lat="42.59479" lon="1.81368">
        <ele>1689.1999511719</ele>
        <time>2023-07-19T14:30:19.000Z</time>
      </trkpt>
      <trkpt lat="42.59477" lon="1.81364">
        <ele>1688.4000244141</ele>
        <time>2023-07-19T14:30:23.000Z</time>
      </trkpt>
      <trkpt lat="42.59475" lon="1.8136">
        <ele>1687.5999755859</ele>
        <time>2023-07-19T14:30:27.000Z</time>
      </trkpt>
      <trkpt lat="42.59472" lon="1.81357">
        <ele>1687.4000244141</ele>
        <time>2023-07-19T14:30:30.000Z</time>
      </trkpt>
      <trkpt lat="42.59467" lon="1.8135">
        <ele>1686.5999755859</ele>
        <time>2023-07-19T14:30:35.000Z</time>
      </trkpt>
      <trkpt lat="42.59465" lon="1.81348">
        <ele>1686.4000244141</ele>
        <time>2023-07-19T14:30:37.000Z</time>
      </trkpt>
      <trkpt lat="42.59459" lon="1.81342">
        <ele>1685.4000244141</ele>
        <time>2023-07-19T14:30:43.000Z</time>
      </trkpt>
      <trkpt lat="42.59457" lon="1.8134">
        <ele>1685.1999511719</ele>
        <time>2023-07-19T14:30:45.000Z</time>
      </trkpt>
      <trkpt lat="42.59455" lon="1.81336">
        <ele>1685</ele>
        <time>2023-07-19T14:30:48.000Z</time>
      </trkpt>
      <trkpt lat="42.59448" lon="1.81333">
        <ele>1684.1999511719</ele>
        <time>2023-07-19T14:30:56.000Z</time>
      </trkpt>
      <trkpt lat="42.59444" lon="1.81333">
        <ele>1683.4000244141</ele>
        <time>2023-07-19T14:31:01.000Z</time>
      </trkpt>
      <trkpt lat="42.59439" lon="1.81326">
        <ele>1683</ele>
        <time>2023-07-19T14:31:07.000Z</time>
      </trkpt>
      <trkpt lat="42.59438" lon="1.81324">
        <ele>1683</ele>
        <time>2023-07-19T14:31:08.000Z</time>
      </trkpt>
      <trkpt lat="42.59437" lon="1.81322">
        <ele>1682.8000488281</ele>
        <time>2023-07-19T14:31:12.000Z</time>
      </trkpt>
      <trkpt lat="42.59433" lon="1.81319">
        <ele>1682.4000244141</ele>
        <time>2023-07-19T14:31:15.000Z</time>
      </trkpt>
      <trkpt lat="42.5943" lon="1.81316">
        <ele>1681.8000488281</ele>
        <time>2023-07-19T14:31:17.000Z</time>
      </trkpt>
      <trkpt lat="42.5942" lon="1.81304">
        <ele>1681.4000244141</ele>
        <time>2023-07-19T14:31:24.000Z</time>
      </trkpt>
      <trkpt lat="42.59417" lon="1.813">
        <ele>1680.8000488281</ele>
        <time>2023-07-19T14:31:29.000Z</time>
      </trkpt>
      <trkpt lat="42.59416" lon="1.813">
        <ele>1680.5999755859</ele>
        <time>2023-07-19T14:31:30.000Z</time>
      </trkpt>
      <trkpt lat="42.59411" lon="1.81293">
        <ele>1681.1999511719</ele>
        <time>2023-07-19T14:31:38.000Z</time>
      </trkpt>
      <trkpt lat="42.59409" lon="1.8129">
        <ele>1681.5999755859</ele>
        <time>2023-07-19T14:31:42.000Z</time>
      </trkpt>
      <trkpt lat="42.59407" lon="1.81288">
        <ele>1681.8000488281</ele>
        <time>2023-07-19T14:31:44.000Z</time>
      </trkpt>
      <trkpt lat="42.59404" lon="1.81285">
        <ele>1682</ele>
        <time>2023-07-19T14:31:49.000Z</time>
      </trkpt>
      <trkpt lat="42.59398" lon="1.81279">
        <ele>1682.8000488281</ele>
        <time>2023-07-19T14:31:57.000Z</time>
      </trkpt>
      <trkpt lat="42.59394" lon="1.81275">
        <ele>1683</ele>
        <time>2023-07-19T14:32:02.000Z</time>
      </trkpt>
      <trkpt lat="42.59388" lon="1.81271">
        <ele>1682.5999755859</ele>
        <time>2023-07-19T14:32:08.000Z</time>
      </trkpt>
      <trkpt lat="42.59383" lon="1.81267">
        <ele>1682.5999755859</ele>
        <time>2023-07-19T14:32:14.000Z</time>
      </trkpt>
      <trkpt lat="42.59375" lon="1.81261">
        <ele>1682.5999755859</ele>
        <time>2023-07-19T14:32:21.000Z</time>
      </trkpt>
      <trkpt lat="42.59368" lon="1.81249">
        <ele>1682.1999511719</ele>
        <time>2023-07-19T14:32:28.000Z</time>
      </trkpt>
      <trkpt lat="42.59361" lon="1.81241">
        <ele>1682.8000488281</ele>
        <time>2023-07-19T14:32:35.000Z</time>
      </trkpt>
      <trkpt lat="42.59357" lon="1.81237">
        <ele>1682.5999755859</ele>
        <time>2023-07-19T14:32:42.000Z</time>
      </trkpt>
      <trkpt lat="42.59354" lon="1.81236">
        <ele>1681.5999755859</ele>
        <time>2023-07-19T14:32:47.000Z</time>
      </trkpt>
      <trkpt lat="42.59353" lon="1.81236">
        <ele>1681.4000244141</ele>
        <time>2023-07-19T14:32:49.000Z</time>
      </trkpt>
      <trkpt lat="42.59348" lon="1.81234">
        <ele>1680.4000244141</ele>
        <time>2023-07-19T14:32:54.000Z</time>
      </trkpt>
      <trkpt lat="42.59347" lon="1.81235">
        <ele>1680</ele>
        <time>2023-07-19T14:32:57.000Z</time>
      </trkpt>
      <trkpt lat="42.59344" lon="1.81234">
        <ele>1679.4000244141</ele>
        <time>2023-07-19T14:33:02.000Z</time>
      </trkpt>
      <trkpt lat="42.59343" lon="1.81233">
        <ele>1679.1999511719</ele>
        <time>2023-07-19T14:33:03.000Z</time>
      </trkpt>
      <trkpt lat="42.59338" lon="1.81231">
        <ele>1678.5999755859</ele>
        <time>2023-07-19T14:33:09.000Z</time>
      </trkpt>
      <trkpt lat="42.59338" lon="1.8123">
        <ele>1678.4000244141</ele>
        <time>2023-07-19T14:33:11.000Z</time>
      </trkpt>
      <trkpt lat="42.59337" lon="1.8123">
        <ele>1676.5999755859</ele>
        <time>2023-07-19T14:33:18.000Z</time>
      </trkpt>
      <trkpt lat="42.59338" lon="1.81232">
        <ele>1676.1999511719</ele>
        <time>2023-07-19T14:33:21.000Z</time>
      </trkpt>
      <trkpt lat="42.5934" lon="1.81232">
        <ele>1675.5999755859</ele>
        <time>2023-07-19T14:33:25.000Z</time>
      </trkpt>
      <trkpt lat="42.59338" lon="1.8123">
        <ele>1675.1999511719</ele>
        <time>2023-07-19T14:33:27.000Z</time>
      </trkpt>
      <trkpt lat="42.59334" lon="1.81226">
        <ele>1674.8000488281</ele>
        <time>2023-07-19T14:33:31.000Z</time>
      </trkpt>
      <trkpt lat="42.5933" lon="1.81222">
        <ele>1674.1999511719</ele>
        <time>2023-07-19T14:33:36.000Z</time>
      </trkpt>
      <trkpt lat="42.59329" lon="1.81221">
        <ele>1674</ele>
        <time>2023-07-19T14:33:38.000Z</time>
      </trkpt>
      <trkpt lat="42.59326" lon="1.81216">
        <ele>1673</ele>
        <time>2023-07-19T14:33:42.000Z</time>
      </trkpt>
      <trkpt lat="42.59323" lon="1.81211">
        <ele>1672</ele>
        <time>2023-07-19T14:33:46.000Z</time>
      </trkpt>
      <trkpt lat="42.59322" lon="1.8121">
        <ele>1671.4000244141</ele>
        <time>2023-07-19T14:33:48.000Z</time>
      </trkpt>
      <trkpt lat="42.5932" lon="1.81207">
        <ele>1670.8000488281</ele>
        <time>2023-07-19T14:33:50.000Z</time>
      </trkpt>
      <trkpt lat="42.59315" lon="1.81201">
        <ele>1669.5999755859</ele>
        <time>2023-07-19T14:33:55.000Z</time>
      </trkpt>
      <trkpt lat="42.59311" lon="1.81197">
        <ele>1668.4000244141</ele>
        <time>2023-07-19T14:34:01.000Z</time>
      </trkpt>
      <trkpt lat="42.59311" lon="1.81196">
        <ele>1668.1999511719</ele>
        <time>2023-07-19T14:34:02.000Z</time>
      </trkpt>
      <trkpt lat="42.59308" lon="1.81194">
        <ele>1667.1999511719</ele>
        <time>2023-07-19T14:34:05.000Z</time>
      </trkpt>
      <trkpt lat="42.59303" lon="1.81191">
        <ele>1666.1999511719</ele>
        <time>2023-07-19T14:34:09.000Z</time>
      </trkpt>
      <trkpt lat="42.593" lon="1.81186">
        <ele>1665.1999511719</ele>
        <time>2023-07-19T14:34:15.000Z</time>
      </trkpt>
      <trkpt lat="42.59301" lon="1.81185">
        <ele>1665</ele>
        <time>2023-07-19T14:34:16.000Z</time>
      </trkpt>
      <trkpt lat="42.59305" lon="1.81185">
        <ele>1664</ele>
        <time>2023-07-19T14:34:20.000Z</time>
      </trkpt>
      <trkpt lat="42.59307" lon="1.81183">
        <ele>1663</ele>
        <time>2023-07-19T14:34:24.000Z</time>
      </trkpt>
      <trkpt lat="42.59308" lon="1.81183">
        <ele>1662.8000488281</ele>
        <time>2023-07-19T14:34:25.000Z</time>
      </trkpt>
      <trkpt lat="42.59312" lon="1.81184">
        <ele>1662</ele>
        <time>2023-07-19T14:34:28.000Z</time>
      </trkpt>
      <trkpt lat="42.59316" lon="1.81185">
        <ele>1661</ele>
        <time>2023-07-19T14:34:31.000Z</time>
      </trkpt>
      <trkpt lat="42.59318" lon="1.81185">
        <ele>1660.8000488281</ele>
        <time>2023-07-19T14:34:33.000Z</time>
      </trkpt>
      <trkpt lat="42.5932" lon="1.81185">
        <ele>1660.4000244141</ele>
        <time>2023-07-19T14:34:37.000Z</time>
      </trkpt>
      <trkpt lat="42.59323" lon="1.81186">
        <ele>1659.5999755859</ele>
        <time>2023-07-19T14:34:40.000Z</time>
      </trkpt>
      <trkpt lat="42.59328" lon="1.81189">
        <ele>1658.5999755859</ele>
        <time>2023-07-19T14:34:46.000Z</time>
      </trkpt>
      <trkpt lat="42.59331" lon="1.8119">
        <ele>1657.4000244141</ele>
        <time>2023-07-19T14:34:51.000Z</time>
      </trkpt>
      <trkpt lat="42.5933" lon="1.81188">
        <ele>1656.8000488281</ele>
        <time>2023-07-19T14:34:53.000Z</time>
      </trkpt>
      <trkpt lat="42.59329" lon="1.81185">
        <ele>1656.4000244141</ele>
        <time>2023-07-19T14:34:55.000Z</time>
      </trkpt>
      <trkpt lat="42.59326" lon="1.81178">
        <ele>1655.5999755859</ele>
        <time>2023-07-19T14:35:00.000Z</time>
      </trkpt>
      <trkpt lat="42.59325" lon="1.81177">
        <ele>1655.4000244141</ele>
        <time>2023-07-19T14:35:02.000Z</time>
      </trkpt>
      <trkpt lat="42.59322" lon="1.81174">
        <ele>1654.4000244141</ele>
        <time>2023-07-19T14:35:06.000Z</time>
      </trkpt>
      <trkpt lat="42.59321" lon="1.81174">
        <ele>1654.1999511719</ele>
        <time>2023-07-19T14:35:08.000Z</time>
      </trkpt>
      <trkpt lat="42.59319" lon="1.81171">
        <ele>1653.1999511719</ele>
        <time>2023-07-19T14:35:12.000Z</time>
      </trkpt>
      <trkpt lat="42.59319" lon="1.8117">
        <ele>1653</ele>
        <time>2023-07-19T14:35:13.000Z</time>
      </trkpt>
      <trkpt lat="42.59317" lon="1.81167">
        <ele>1652</ele>
        <time>2023-07-19T14:35:16.000Z</time>
      </trkpt>
      <trkpt lat="42.59315" lon="1.81164">
        <ele>1651.1999511719</ele>
        <time>2023-07-19T14:35:18.000Z</time>
      </trkpt>
      <trkpt lat="42.59315" lon="1.81164">
        <ele>1650.8000488281</ele>
        <time>2023-07-19T14:35:19.000Z</time>
      </trkpt>
      <trkpt lat="42.59313" lon="1.81162">
        <ele>1649.8000488281</ele>
        <time>2023-07-19T14:35:23.000Z</time>
      </trkpt>
      <trkpt lat="42.59313" lon="1.81161">
        <ele>1649.5999755859</ele>
        <time>2023-07-19T14:35:24.000Z</time>
      </trkpt>
      <trkpt lat="42.5931" lon="1.81157">
        <ele>1648.5999755859</ele>
        <time>2023-07-19T14:35:29.000Z</time>
      </trkpt>
      <trkpt lat="42.59308" lon="1.81157">
        <ele>1647.8000488281</ele>
        <time>2023-07-19T14:35:31.000Z</time>
      </trkpt>
      <trkpt lat="42.59308" lon="1.81156">
        <ele>1647.5999755859</ele>
        <time>2023-07-19T14:35:32.000Z</time>
      </trkpt>
      <trkpt lat="42.59304" lon="1.81152">
        <ele>1646.5999755859</ele>
        <time>2023-07-19T14:35:37.000Z</time>
      </trkpt>
      <trkpt lat="42.59302" lon="1.81153">
        <ele>1646.4000244141</ele>
        <time>2023-07-19T14:35:38.000Z</time>
      </trkpt>
      <trkpt lat="42.59297" lon="1.81156">
        <ele>1645.8000488281</ele>
        <time>2023-07-19T14:35:42.000Z</time>
      </trkpt>
      <trkpt lat="42.59285" lon="1.81151">
        <ele>1643.5999755859</ele>
        <time>2023-07-19T14:35:51.000Z</time>
      </trkpt>
      <trkpt lat="42.59284" lon="1.8115">
        <ele>1643.4000244141</ele>
        <time>2023-07-19T14:35:52.000Z</time>
      </trkpt>
      <trkpt lat="42.59279" lon="1.81145">
        <ele>1642.8000488281</ele>
        <time>2023-07-19T14:35:55.000Z</time>
      </trkpt>
      <trkpt lat="42.59276" lon="1.81144">
        <ele>1642.4000244141</ele>
        <time>2023-07-19T14:35:59.000Z</time>
      </trkpt>
      <trkpt lat="42.59274" lon="1.81143">
        <ele>1642</ele>
        <time>2023-07-19T14:36:05.000Z</time>
      </trkpt>
      <trkpt lat="42.59271" lon="1.81141">
        <ele>1641.8000488281</ele>
        <time>2023-07-19T14:36:13.000Z</time>
      </trkpt>
      <trkpt lat="42.5927" lon="1.81143">
        <ele>1641.8000488281</ele>
        <time>2023-07-19T14:36:14.000Z</time>
      </trkpt>
      <trkpt lat="42.59271" lon="1.81146">
        <ele>1641.4000244141</ele>
        <time>2023-07-19T14:36:19.000Z</time>
      </trkpt>
      <trkpt lat="42.59269" lon="1.81147">
        <ele>1640.5999755859</ele>
        <time>2023-07-19T14:36:24.000Z</time>
      </trkpt>
      <trkpt lat="42.59268" lon="1.81147">
        <ele>1640.1999511719</ele>
        <time>2023-07-19T14:36:25.000Z</time>
      </trkpt>
      <trkpt lat="42.59266" lon="1.81148">
        <ele>1639.5999755859</ele>
        <time>2023-07-19T14:36:29.000Z</time>
      </trkpt>
      <trkpt lat="42.59264" lon="1.81145">
        <ele>1639.4000244141</ele>
        <time>2023-07-19T14:36:32.000Z</time>
      </trkpt>
      <trkpt lat="42.59261" lon="1.81135">
        <ele>1640.1999511719</ele>
        <time>2023-07-19T14:36:39.000Z</time>
      </trkpt>
      <trkpt lat="42.5926" lon="1.81131">
        <ele>1640.5999755859</ele>
        <time>2023-07-19T14:36:43.000Z</time>
      </trkpt>
      <trkpt lat="42.5926" lon="1.81129">
        <ele>1641</ele>
        <time>2023-07-19T14:36:45.000Z</time>
      </trkpt>
      <trkpt lat="42.5926" lon="1.81126">
        <ele>1641.8000488281</ele>
        <time>2023-07-19T14:36:48.000Z</time>
      </trkpt>
      <trkpt lat="42.59261" lon="1.8112">
        <ele>1642.8000488281</ele>
        <time>2023-07-19T14:36:53.000Z</time>
      </trkpt>
      <trkpt lat="42.59256" lon="1.81115">
        <ele>1644</ele>
        <time>2023-07-19T14:36:57.000Z</time>
      </trkpt>
      <trkpt lat="42.59255" lon="1.81112">
        <ele>1644.4000244141</ele>
        <time>2023-07-19T14:36:59.000Z</time>
      </trkpt>
      <trkpt lat="42.5925" lon="1.81108">
        <ele>1645.1999511719</ele>
        <time>2023-07-19T14:37:08.000Z</time>
      </trkpt>
      <trkpt lat="42.59245" lon="1.81104">
        <ele>1646</ele>
        <time>2023-07-19T14:37:14.000Z</time>
      </trkpt>
      <trkpt lat="42.59244" lon="1.81102">
        <ele>1646.1999511719</ele>
        <time>2023-07-19T14:37:16.000Z</time>
      </trkpt>
      <trkpt lat="42.59243" lon="1.811">
        <ele>1647</ele>
        <time>2023-07-19T14:37:22.000Z</time>
      </trkpt>
      <trkpt lat="42.59238" lon="1.81103">
        <ele>1647.4000244141</ele>
        <time>2023-07-19T14:37:25.000Z</time>
      </trkpt>
      <trkpt lat="42.59237" lon="1.81103">
        <ele>1647.5999755859</ele>
        <time>2023-07-19T14:37:27.000Z</time>
      </trkpt>
      <trkpt lat="42.59232" lon="1.81101">
        <ele>1648.1999511719</ele>
        <time>2023-07-19T14:37:33.000Z</time>
      </trkpt>
      <trkpt lat="42.5923" lon="1.81099">
        <ele>1647.8000488281</ele>
        <time>2023-07-19T14:37:40.000Z</time>
      </trkpt>
      <trkpt lat="42.59223" lon="1.811">
        <ele>1646.4000244141</ele>
        <time>2023-07-19T14:37:48.000Z</time>
      </trkpt>
      <trkpt lat="42.59222" lon="1.81099">
        <ele>1646.1999511719</ele>
        <time>2023-07-19T14:37:49.000Z</time>
      </trkpt>
      <trkpt lat="42.59217" lon="1.81092">
        <ele>1645.4000244141</ele>
        <time>2023-07-19T14:37:55.000Z</time>
      </trkpt>
      <trkpt lat="42.59217" lon="1.81091">
        <ele>1645.1999511719</ele>
        <time>2023-07-19T14:37:56.000Z</time>
      </trkpt>
      <trkpt lat="42.59213" lon="1.8109">
        <ele>1644.5999755859</ele>
        <time>2023-07-19T14:38:01.000Z</time>
      </trkpt>
      <trkpt lat="42.59211" lon="1.81088">
        <ele>1644.1999511719</ele>
        <time>2023-07-19T14:38:03.000Z</time>
      </trkpt>
      <trkpt lat="42.59207" lon="1.81087">
        <ele>1643.4000244141</ele>
        <time>2023-07-19T14:38:07.000Z</time>
      </trkpt>
      <trkpt lat="42.59204" lon="1.81084">
        <ele>1643</ele>
        <time>2023-07-19T14:38:10.000Z</time>
      </trkpt>
      <trkpt lat="42.59202" lon="1.81081">
        <ele>1643</ele>
        <time>2023-07-19T14:38:13.000Z</time>
      </trkpt>
      <trkpt lat="42.592" lon="1.81072">
        <ele>1642.8000488281</ele>
        <time>2023-07-19T14:38:19.000Z</time>
      </trkpt>
      <trkpt lat="42.59197" lon="1.81069">
        <ele>1642</ele>
        <time>2023-07-19T14:38:23.000Z</time>
      </trkpt>
      <trkpt lat="42.59197" lon="1.81068">
        <ele>1641.8000488281</ele>
        <time>2023-07-19T14:38:24.000Z</time>
      </trkpt>
      <trkpt lat="42.59194" lon="1.81067">
        <ele>1640.8000488281</ele>
        <time>2023-07-19T14:38:27.000Z</time>
      </trkpt>
      <trkpt lat="42.59193" lon="1.81061">
        <ele>1639.8000488281</ele>
        <time>2023-07-19T14:38:31.000Z</time>
      </trkpt>
      <trkpt lat="42.59192" lon="1.8106">
        <ele>1639.5999755859</ele>
        <time>2023-07-19T14:38:32.000Z</time>
      </trkpt>
      <trkpt lat="42.59189" lon="1.81054">
        <ele>1638.8000488281</ele>
        <time>2023-07-19T14:38:37.000Z</time>
      </trkpt>
      <trkpt lat="42.59189" lon="1.81052">
        <ele>1638.5999755859</ele>
        <time>2023-07-19T14:38:38.000Z</time>
      </trkpt>
      <trkpt lat="42.59188" lon="1.81043">
        <ele>1637.4000244141</ele>
        <time>2023-07-19T14:38:43.000Z</time>
      </trkpt>
      <trkpt lat="42.59186" lon="1.81042">
        <ele>1637.4000244141</ele>
        <time>2023-07-19T14:38:44.000Z</time>
      </trkpt>
      <trkpt lat="42.59178" lon="1.81039">
        <ele>1636.5999755859</ele>
        <time>2023-07-19T14:38:49.000Z</time>
      </trkpt>
      <trkpt lat="42.59177" lon="1.81039">
        <ele>1636.5999755859</ele>
        <time>2023-07-19T14:38:50.000Z</time>
      </trkpt>
      <trkpt lat="42.59176" lon="1.81039">
        <ele>1636.1999511719</ele>
        <time>2023-07-19T14:38:51.000Z</time>
      </trkpt>
      <trkpt lat="42.59174" lon="1.81038">
        <ele>1636</ele>
        <time>2023-07-19T14:38:52.000Z</time>
      </trkpt>
      <trkpt lat="42.59172" lon="1.81033">
        <ele>1635.5999755859</ele>
        <time>2023-07-19T14:38:55.000Z</time>
      </trkpt>
      <trkpt lat="42.59172" lon="1.81029">
        <ele>1635.1999511719</ele>
        <time>2023-07-19T14:38:57.000Z</time>
      </trkpt>
      <trkpt lat="42.59169" lon="1.8102">
        <ele>1634.4000244141</ele>
        <time>2023-07-19T14:39:03.000Z</time>
      </trkpt>
      <trkpt lat="42.59168" lon="1.81017">
        <ele>1634.1999511719</ele>
        <time>2023-07-19T14:39:04.000Z</time>
      </trkpt>
      <trkpt lat="42.59166" lon="1.81013">
        <ele>1633.8000488281</ele>
        <time>2023-07-19T14:39:10.000Z</time>
      </trkpt>
      <trkpt lat="42.59164" lon="1.8101">
        <ele>1633</ele>
        <time>2023-07-19T14:39:14.000Z</time>
      </trkpt>
      <trkpt lat="42.59162" lon="1.81008">
        <ele>1632.4000244141</ele>
        <time>2023-07-19T14:39:17.000Z</time>
      </trkpt>
      <trkpt lat="42.59161" lon="1.81006">
        <ele>1632</ele>
        <time>2023-07-19T14:39:20.000Z</time>
      </trkpt>
      <trkpt lat="42.59159" lon="1.81006">
        <ele>1631.8000488281</ele>
        <time>2023-07-19T14:39:23.000Z</time>
      </trkpt>
      <trkpt lat="42.59158" lon="1.81006">
        <ele>1631.8000488281</ele>
        <time>2023-07-19T14:39:24.000Z</time>
      </trkpt>
      <trkpt lat="42.59141" lon="1.80987">
        <ele>1630</ele>
        <time>2023-07-19T14:39:46.000Z</time>
      </trkpt>
      <trkpt lat="42.5914" lon="1.80985">
        <ele>1629.8000488281</ele>
        <time>2023-07-19T14:39:48.000Z</time>
      </trkpt>
      <trkpt lat="42.59139" lon="1.80984">
        <ele>1629.1999511719</ele>
        <time>2023-07-19T14:39:53.000Z</time>
      </trkpt>
      <trkpt lat="42.59141" lon="1.8098">
        <ele>1629.1999511719</ele>
        <time>2023-07-19T14:40:00.000Z</time>
      </trkpt>
      <trkpt lat="42.59137" lon="1.80978">
        <ele>1629</ele>
        <time>2023-07-19T14:40:09.000Z</time>
      </trkpt>
      <trkpt lat="42.59135" lon="1.80974">
        <ele>1628.8000488281</ele>
        <time>2023-07-19T14:40:13.000Z</time>
      </trkpt>
      <trkpt lat="42.59134" lon="1.80971">
        <ele>1628.1999511719</ele>
        <time>2023-07-19T14:40:16.000Z</time>
      </trkpt>
      <trkpt lat="42.59132" lon="1.80969">
        <ele>1627.5999755859</ele>
        <time>2023-07-19T14:40:19.000Z</time>
      </trkpt>
      <trkpt lat="42.59131" lon="1.80968">
        <ele>1626.4000244141</ele>
        <time>2023-07-19T14:40:24.000Z</time>
      </trkpt>
      <trkpt lat="42.59127" lon="1.80961">
        <ele>1625.1999511719</ele>
        <time>2023-07-19T14:40:30.000Z</time>
      </trkpt>
      <trkpt lat="42.59127" lon="1.80959">
        <ele>1624.5999755859</ele>
        <time>2023-07-19T14:40:32.000Z</time>
      </trkpt>
      <trkpt lat="42.59127" lon="1.80956">
        <ele>1624.1999511719</ele>
        <time>2023-07-19T14:40:35.000Z</time>
      </trkpt>
      <trkpt lat="42.59126" lon="1.80954">
        <ele>1623.5999755859</ele>
        <time>2023-07-19T14:40:37.000Z</time>
      </trkpt>
      <trkpt lat="42.59125" lon="1.80951">
        <ele>1622.8000488281</ele>
        <time>2023-07-19T14:40:40.000Z</time>
      </trkpt>
      <trkpt lat="42.59122" lon="1.80947">
        <ele>1622</ele>
        <time>2023-07-19T14:40:44.000Z</time>
      </trkpt>
      <trkpt lat="42.59121" lon="1.80946">
        <ele>1621.8000488281</ele>
        <time>2023-07-19T14:40:45.000Z</time>
      </trkpt>
      <trkpt lat="42.5912" lon="1.80937">
        <ele>1620.8000488281</ele>
        <time>2023-07-19T14:40:53.000Z</time>
      </trkpt>
      <trkpt lat="42.59121" lon="1.80936">
        <ele>1620.5999755859</ele>
        <time>2023-07-19T14:40:54.000Z</time>
      </trkpt>
      <trkpt lat="42.59119" lon="1.80925">
        <ele>1620</ele>
        <time>2023-07-19T14:41:01.000Z</time>
      </trkpt>
      <trkpt lat="42.59118" lon="1.80921">
        <ele>1619.8000488281</ele>
        <time>2023-07-19T14:41:04.000Z</time>
      </trkpt>
      <trkpt lat="42.59113" lon="1.80912">
        <ele>1618.8000488281</ele>
        <time>2023-07-19T14:41:11.000Z</time>
      </trkpt>
      <trkpt lat="42.59112" lon="1.80911">
        <ele>1618.5999755859</ele>
        <time>2023-07-19T14:41:12.000Z</time>
      </trkpt>
      <trkpt lat="42.5911" lon="1.80907">
        <ele>1617.5999755859</ele>
        <time>2023-07-19T14:41:16.000Z</time>
      </trkpt>
      <trkpt lat="42.59108" lon="1.80904">
        <ele>1617.1999511719</ele>
        <time>2023-07-19T14:41:18.000Z</time>
      </trkpt>
      <trkpt lat="42.59106" lon="1.809">
        <ele>1616.4000244141</ele>
        <time>2023-07-19T14:41:21.000Z</time>
      </trkpt>
      <trkpt lat="42.59103" lon="1.80894">
        <ele>1615.4000244141</ele>
        <time>2023-07-19T14:41:25.000Z</time>
      </trkpt>
      <trkpt lat="42.59102" lon="1.80892">
        <ele>1615.4000244141</ele>
        <time>2023-07-19T14:41:26.000Z</time>
      </trkpt>
      <trkpt lat="42.59101" lon="1.80888">
        <ele>1614.4000244141</ele>
        <time>2023-07-19T14:41:31.000Z</time>
      </trkpt>
      <trkpt lat="42.59101" lon="1.80888">
        <ele>1614.1999511719</ele>
        <time>2023-07-19T14:41:32.000Z</time>
      </trkpt>
      <trkpt lat="42.59099" lon="1.80884">
        <ele>1613.1999511719</ele>
        <time>2023-07-19T14:41:39.000Z</time>
      </trkpt>
      <trkpt lat="42.59099" lon="1.80883">
        <ele>1612.5999755859</ele>
        <time>2023-07-19T14:41:41.000Z</time>
      </trkpt>
      <trkpt lat="42.59097" lon="1.80881">
        <ele>1612.1999511719</ele>
        <time>2023-07-19T14:41:43.000Z</time>
      </trkpt>
      <trkpt lat="42.59095" lon="1.8088">
        <ele>1611</ele>
        <time>2023-07-19T14:41:49.000Z</time>
      </trkpt>
      <trkpt lat="42.59093" lon="1.80879">
        <ele>1610</ele>
        <time>2023-07-19T14:41:53.000Z</time>
      </trkpt>
      <trkpt lat="42.59089" lon="1.80871">
        <ele>1609.4000244141</ele>
        <time>2023-07-19T14:41:57.000Z</time>
      </trkpt>
      <trkpt lat="42.59087" lon="1.80864">
        <ele>1609</ele>
        <time>2023-07-19T14:42:00.000Z</time>
      </trkpt>
      <trkpt lat="42.59084" lon="1.80857">
        <ele>1608.1999511719</ele>
        <time>2023-07-19T14:42:05.000Z</time>
      </trkpt>
      <trkpt lat="42.59083" lon="1.80856">
        <ele>1607.8000488281</ele>
        <time>2023-07-19T14:42:07.000Z</time>
      </trkpt>
      <trkpt lat="42.59077" lon="1.80854">
        <ele>1606.8000488281</ele>
        <time>2023-07-19T14:42:12.000Z</time>
      </trkpt>
      <trkpt lat="42.59075" lon="1.80853">
        <ele>1606.1999511719</ele>
        <time>2023-07-19T14:42:14.000Z</time>
      </trkpt>
      <trkpt lat="42.5907" lon="1.8085">
        <ele>1605.5999755859</ele>
        <time>2023-07-19T14:42:18.000Z</time>
      </trkpt>
      <trkpt lat="42.59067" lon="1.80847">
        <ele>1604.5999755859</ele>
        <time>2023-07-19T14:42:22.000Z</time>
      </trkpt>
      <trkpt lat="42.59067" lon="1.80847">
        <ele>1604.4000244141</ele>
        <time>2023-07-19T14:42:23.000Z</time>
      </trkpt>
      <trkpt lat="42.59065" lon="1.80842">
        <ele>1603.1999511719</ele>
        <time>2023-07-19T14:42:28.000Z</time>
      </trkpt>
      <trkpt lat="42.59062" lon="1.80833">
        <ele>1602</ele>
        <time>2023-07-19T14:42:34.000Z</time>
      </trkpt>
      <trkpt lat="42.5906" lon="1.80825">
        <ele>1600.8000488281</ele>
        <time>2023-07-19T14:42:40.000Z</time>
      </trkpt>
      <trkpt lat="42.59058" lon="1.80822">
        <ele>1600.1999511719</ele>
        <time>2023-07-19T14:42:43.000Z</time>
      </trkpt>
      <trkpt lat="42.59057" lon="1.8082">
        <ele>1599.8000488281</ele>
        <time>2023-07-19T14:42:45.000Z</time>
      </trkpt>
      <trkpt lat="42.59048" lon="1.80816">
        <ele>1598.5999755859</ele>
        <time>2023-07-19T14:42:51.000Z</time>
      </trkpt>
      <trkpt lat="42.59048" lon="1.80815">
        <ele>1598.4000244141</ele>
        <time>2023-07-19T14:42:52.000Z</time>
      </trkpt>
      <trkpt lat="42.59045" lon="1.80816">
        <ele>1597.5999755859</ele>
        <time>2023-07-19T14:42:56.000Z</time>
      </trkpt>
      <trkpt lat="42.59042" lon="1.80817">
        <ele>1597</ele>
        <time>2023-07-19T14:42:59.000Z</time>
      </trkpt>
      <trkpt lat="42.59036" lon="1.80816">
        <ele>1596.4000244141</ele>
        <time>2023-07-19T14:43:04.000Z</time>
      </trkpt>
      <trkpt lat="42.59035" lon="1.80813">
        <ele>1596</ele>
        <time>2023-07-19T14:43:07.000Z</time>
      </trkpt>
      <trkpt lat="42.59031" lon="1.8081">
        <ele>1595.1999511719</ele>
        <time>2023-07-19T14:43:12.000Z</time>
      </trkpt>
      <trkpt lat="42.5903" lon="1.80808">
        <ele>1595</ele>
        <time>2023-07-19T14:43:13.000Z</time>
      </trkpt>
      <trkpt lat="42.59029" lon="1.80807">
        <ele>1594.8000488281</ele>
        <time>2023-07-19T14:43:14.000Z</time>
      </trkpt>
      <trkpt lat="42.59026" lon="1.808">
        <ele>1594.1999511719</ele>
        <time>2023-07-19T14:43:18.000Z</time>
      </trkpt>
      <trkpt lat="42.59026" lon="1.80798">
        <ele>1594.1999511719</ele>
        <time>2023-07-19T14:43:19.000Z</time>
      </trkpt>
      <trkpt lat="42.59026" lon="1.80785">
        <ele>1593.1999511719</ele>
        <time>2023-07-19T14:43:24.000Z</time>
      </trkpt>
      <trkpt lat="42.59024" lon="1.80781">
        <ele>1592</ele>
        <time>2023-07-19T14:43:29.000Z</time>
      </trkpt>
      <trkpt lat="42.59023" lon="1.80774">
        <ele>1591</ele>
        <time>2023-07-19T14:43:35.000Z</time>
      </trkpt>
      <trkpt lat="42.59022" lon="1.80773">
        <ele>1590.5999755859</ele>
        <time>2023-07-19T14:43:36.000Z</time>
      </trkpt>
      <trkpt lat="42.59018" lon="1.80768">
        <ele>1589.8000488281</ele>
        <time>2023-07-19T14:43:41.000Z</time>
      </trkpt>
      <trkpt lat="42.59014" lon="1.80764">
        <ele>1588.8000488281</ele>
        <time>2023-07-19T14:43:45.000Z</time>
      </trkpt>
      <trkpt lat="42.5901" lon="1.80757">
        <ele>1587.8000488281</ele>
        <time>2023-07-19T14:43:51.000Z</time>
      </trkpt>
      <trkpt lat="42.59009" lon="1.80755">
        <ele>1587.4000244141</ele>
        <time>2023-07-19T14:43:53.000Z</time>
      </trkpt>
      <trkpt lat="42.59005" lon="1.80755">
        <ele>1586.5999755859</ele>
        <time>2023-07-19T14:43:57.000Z</time>
      </trkpt>
      <trkpt lat="42.59004" lon="1.80752">
        <ele>1586</ele>
        <time>2023-07-19T14:44:01.000Z</time>
      </trkpt>
      <trkpt lat="42.59002" lon="1.80746">
        <ele>1585.5999755859</ele>
        <time>2023-07-19T14:44:04.000Z</time>
      </trkpt>
      <trkpt lat="42.58998" lon="1.8074">
        <ele>1585</ele>
        <time>2023-07-19T14:44:08.000Z</time>
      </trkpt>
      <trkpt lat="42.58995" lon="1.80736">
        <ele>1584.4000244141</ele>
        <time>2023-07-19T14:44:11.000Z</time>
      </trkpt>
      <trkpt lat="42.58992" lon="1.8073">
        <ele>1584</ele>
        <time>2023-07-19T14:44:16.000Z</time>
      </trkpt>
      <trkpt lat="42.58989" lon="1.80725">
        <ele>1583.4000244141</ele>
        <time>2023-07-19T14:44:19.000Z</time>
      </trkpt>
      <trkpt lat="42.58986" lon="1.80715">
        <ele>1582.4000244141</ele>
        <time>2023-07-19T14:44:24.000Z</time>
      </trkpt>
      <trkpt lat="42.58986" lon="1.80715">
        <ele>1582.4000244141</ele>
        <time>2023-07-19T14:44:25.000Z</time>
      </trkpt>
      <trkpt lat="42.58982" lon="1.80706">
        <ele>1581.4000244141</ele>
        <time>2023-07-19T14:44:32.000Z</time>
      </trkpt>
      <trkpt lat="42.58982" lon="1.80704">
        <ele>1581.1999511719</ele>
        <time>2023-07-19T14:44:33.000Z</time>
      </trkpt>
      <trkpt lat="42.58976" lon="1.80695">
        <ele>1580.1999511719</ele>
        <time>2023-07-19T14:44:38.000Z</time>
      </trkpt>
      <trkpt lat="42.58974" lon="1.80692">
        <ele>1580</ele>
        <time>2023-07-19T14:44:40.000Z</time>
      </trkpt>
      <trkpt lat="42.58964" lon="1.80682">
        <ele>1579.5999755859</ele>
        <time>2023-07-19T14:44:49.000Z</time>
      </trkpt>
      <trkpt lat="42.5896" lon="1.80677">
        <ele>1579</ele>
        <time>2023-07-19T14:44:53.000Z</time>
      </trkpt>
      <trkpt lat="42.58956" lon="1.80674">
        <ele>1578.5999755859</ele>
        <time>2023-07-19T14:44:56.000Z</time>
      </trkpt>
      <trkpt lat="42.58952" lon="1.8067">
        <ele>1578</ele>
        <time>2023-07-19T14:45:00.000Z</time>
      </trkpt>
      <trkpt lat="42.58949" lon="1.80665">
        <ele>1577</ele>
        <time>2023-07-19T14:45:05.000Z</time>
      </trkpt>
      <trkpt lat="42.58948" lon="1.80665">
        <ele>1576.8000488281</ele>
        <time>2023-07-19T14:45:06.000Z</time>
      </trkpt>
      <trkpt lat="42.58942" lon="1.80656">
        <ele>1575.8000488281</ele>
        <time>2023-07-19T14:45:13.000Z</time>
      </trkpt>
      <trkpt lat="42.58941" lon="1.80655">
        <ele>1575.5999755859</ele>
        <time>2023-07-19T14:45:14.000Z</time>
      </trkpt>
      <trkpt lat="42.58936" lon="1.80647">
        <ele>1574.8000488281</ele>
        <time>2023-07-19T14:45:19.000Z</time>
      </trkpt>
      <trkpt lat="42.58933" lon="1.80642">
        <ele>1574.4000244141</ele>
        <time>2023-07-19T14:45:21.000Z</time>
      </trkpt>
      <trkpt lat="42.58927" lon="1.80634">
        <ele>1573.8000488281</ele>
        <time>2023-07-19T14:45:26.000Z</time>
      </trkpt>
      <trkpt lat="42.58926" lon="1.80632">
        <ele>1573.4000244141</ele>
        <time>2023-07-19T14:45:27.000Z</time>
      </trkpt>
      <trkpt lat="42.58919" lon="1.80627">
        <ele>1572.5999755859</ele>
        <time>2023-07-19T14:45:32.000Z</time>
      </trkpt>
      <trkpt lat="42.58918" lon="1.80626">
        <ele>1572.4000244141</ele>
        <time>2023-07-19T14:45:33.000Z</time>
      </trkpt>
      <trkpt lat="42.58914" lon="1.8062">
        <ele>1571.5999755859</ele>
        <time>2023-07-19T14:45:38.000Z</time>
      </trkpt>
      <trkpt lat="42.5891" lon="1.80615">
        <ele>1571</ele>
        <time>2023-07-19T14:45:42.000Z</time>
      </trkpt>
      <trkpt lat="42.58906" lon="1.8061">
        <ele>1570.4000244141</ele>
        <time>2023-07-19T14:45:46.000Z</time>
      </trkpt>
      <trkpt lat="42.58899" lon="1.80601">
        <ele>1569.5999755859</ele>
        <time>2023-07-19T14:45:52.000Z</time>
      </trkpt>
      <trkpt lat="42.58898" lon="1.806">
        <ele>1569.4000244141</ele>
        <time>2023-07-19T14:45:53.000Z</time>
      </trkpt>
      <trkpt lat="42.58894" lon="1.8059">
        <ele>1568.8000488281</ele>
        <time>2023-07-19T14:45:58.000Z</time>
      </trkpt>
      <trkpt lat="42.58892" lon="1.80581">
        <ele>1568.4000244141</ele>
        <time>2023-07-19T14:46:02.000Z</time>
      </trkpt>
      <trkpt lat="42.58891" lon="1.80573">
        <ele>1567.5999755859</ele>
        <time>2023-07-19T14:46:06.000Z</time>
      </trkpt>
      <trkpt lat="42.5889" lon="1.80568">
        <ele>1567.1999511719</ele>
        <time>2023-07-19T14:46:08.000Z</time>
      </trkpt>
      <trkpt lat="42.58887" lon="1.8056">
        <ele>1566.1999511719</ele>
        <time>2023-07-19T14:46:13.000Z</time>
      </trkpt>
      <trkpt lat="42.58883" lon="1.80551">
        <ele>1565.4000244141</ele>
        <time>2023-07-19T14:46:18.000Z</time>
      </trkpt>
      <trkpt lat="42.58878" lon="1.80544">
        <ele>1565</ele>
        <time>2023-07-19T14:46:22.000Z</time>
      </trkpt>
      <trkpt lat="42.58872" lon="1.80535">
        <ele>1564.8000488281</ele>
        <time>2023-07-19T14:46:27.000Z</time>
      </trkpt>
      <trkpt lat="42.58866" lon="1.80524">
        <ele>1564</ele>
        <time>2023-07-19T14:46:34.000Z</time>
      </trkpt>
      <trkpt lat="42.58859" lon="1.80518">
        <ele>1563</ele>
        <time>2023-07-19T14:46:40.000Z</time>
      </trkpt>
      <trkpt lat="42.58858" lon="1.80517">
        <ele>1562.8000488281</ele>
        <time>2023-07-19T14:46:41.000Z</time>
      </trkpt>
      <trkpt lat="42.58851" lon="1.80508">
        <ele>1561.8000488281</ele>
        <time>2023-07-19T14:46:48.000Z</time>
      </trkpt>
      <trkpt lat="42.58848" lon="1.80504">
        <ele>1561</ele>
        <time>2023-07-19T14:46:51.000Z</time>
      </trkpt>
      <trkpt lat="42.58844" lon="1.805">
        <ele>1560.5999755859</ele>
        <time>2023-07-19T14:46:54.000Z</time>
      </trkpt>
      <trkpt lat="42.58838" lon="1.80493">
        <ele>1559.5999755859</ele>
        <time>2023-07-19T14:46:59.000Z</time>
      </trkpt>
      <trkpt lat="42.58837" lon="1.80492">
        <ele>1559.4000244141</ele>
        <time>2023-07-19T14:47:00.000Z</time>
      </trkpt>
      <trkpt lat="42.58833" lon="1.80484">
        <ele>1558.1999511719</ele>
        <time>2023-07-19T14:47:06.000Z</time>
      </trkpt>
      <trkpt lat="42.58831" lon="1.8048">
        <ele>1557.8000488281</ele>
        <time>2023-07-19T14:47:09.000Z</time>
      </trkpt>
      <trkpt lat="42.58827" lon="1.80474">
        <ele>1557.1999511719</ele>
        <time>2023-07-19T14:47:13.000Z</time>
      </trkpt>
      <trkpt lat="42.58824" lon="1.80469">
        <ele>1556.5999755859</ele>
        <time>2023-07-19T14:47:16.000Z</time>
      </trkpt>
      <trkpt lat="42.58819" lon="1.80461">
        <ele>1556</ele>
        <time>2023-07-19T14:47:20.000Z</time>
      </trkpt>
      <trkpt lat="42.58814" lon="1.80453">
        <ele>1555.4000244141</ele>
        <time>2023-07-19T14:47:24.000Z</time>
      </trkpt>
      <trkpt lat="42.58813" lon="1.80451">
        <ele>1555</ele>
        <time>2023-07-19T14:47:25.000Z</time>
      </trkpt>
      <trkpt lat="42.58808" lon="1.80442">
        <ele>1554</ele>
        <time>2023-07-19T14:47:31.000Z</time>
      </trkpt>
      <trkpt lat="42.58807" lon="1.8044">
        <ele>1553.8000488281</ele>
        <time>2023-07-19T14:47:32.000Z</time>
      </trkpt>
      <trkpt lat="42.58805" lon="1.80431">
        <ele>1552.8000488281</ele>
        <time>2023-07-19T14:47:38.000Z</time>
      </trkpt>
      <trkpt lat="42.58804" lon="1.80429">
        <ele>1552.5999755859</ele>
        <time>2023-07-19T14:47:39.000Z</time>
      </trkpt>
      <trkpt lat="42.588" lon="1.80417">
        <ele>1551.8000488281</ele>
        <time>2023-07-19T14:47:45.000Z</time>
      </trkpt>
      <trkpt lat="42.58799" lon="1.80412">
        <ele>1551.4000244141</ele>
        <time>2023-07-19T14:47:47.000Z</time>
      </trkpt>
      <trkpt lat="42.58797" lon="1.80403">
        <ele>1550.5999755859</ele>
        <time>2023-07-19T14:47:51.000Z</time>
      </trkpt>
      <trkpt lat="42.58797" lon="1.80395">
        <ele>1549.8000488281</ele>
        <time>2023-07-19T14:47:55.000Z</time>
      </trkpt>
      <trkpt lat="42.58796" lon="1.80393">
        <ele>1549.5999755859</ele>
        <time>2023-07-19T14:47:56.000Z</time>
      </trkpt>
      <trkpt lat="42.58794" lon="1.80381">
        <ele>1548.5999755859</ele>
        <time>2023-07-19T14:48:02.000Z</time>
      </trkpt>
      <trkpt lat="42.58794" lon="1.8038">
        <ele>1548.4000244141</ele>
        <time>2023-07-19T14:48:03.000Z</time>
      </trkpt>
      <trkpt lat="42.58792" lon="1.80372">
        <ele>1547.5999755859</ele>
        <time>2023-07-19T14:48:08.000Z</time>
      </trkpt>
      <trkpt lat="42.58791" lon="1.80366">
        <ele>1547.4000244141</ele>
        <time>2023-07-19T14:48:10.000Z</time>
      </trkpt>
      <trkpt lat="42.58791" lon="1.80356">
        <ele>1546.4000244141</ele>
        <time>2023-07-19T14:48:16.000Z</time>
      </trkpt>
      <trkpt lat="42.58792" lon="1.80354">
        <ele>1546.1999511719</ele>
        <time>2023-07-19T14:48:18.000Z</time>
      </trkpt>
      <trkpt lat="42.58793" lon="1.80358">
        <ele>1545.8000488281</ele>
        <time>2023-07-19T14:48:21.000Z</time>
      </trkpt>
      <trkpt lat="42.58796" lon="1.80362">
        <ele>1545.4000244141</ele>
        <time>2023-07-19T14:48:24.000Z</time>
      </trkpt>
      <trkpt lat="42.58801" lon="1.80372">
        <ele>1544.1999511719</ele>
        <time>2023-07-19T14:48:31.000Z</time>
      </trkpt>
      <trkpt lat="42.58802" lon="1.80374">
        <ele>1544</ele>
        <time>2023-07-19T14:48:32.000Z</time>
      </trkpt>
      <trkpt lat="42.58806" lon="1.80381">
        <ele>1543.1999511719</ele>
        <time>2023-07-19T14:48:36.000Z</time>
      </trkpt>
      <trkpt lat="42.58809" lon="1.80386">
        <ele>1542.1999511719</ele>
        <time>2023-07-19T14:48:40.000Z</time>
      </trkpt>
      <trkpt lat="42.58816" lon="1.80395">
        <ele>1541</ele>
        <time>2023-07-19T14:48:47.000Z</time>
      </trkpt>
      <trkpt lat="42.58818" lon="1.80398">
        <ele>1540.8000488281</ele>
        <time>2023-07-19T14:48:49.000Z</time>
      </trkpt>
      <trkpt lat="42.58821" lon="1.80403">
        <ele>1540</ele>
        <time>2023-07-19T14:48:53.000Z</time>
      </trkpt>
      <trkpt lat="42.58824" lon="1.80407">
        <ele>1539.4000244141</ele>
        <time>2023-07-19T14:48:56.000Z</time>
      </trkpt>
      <trkpt lat="42.58826" lon="1.8041">
        <ele>1539</ele>
        <time>2023-07-19T14:48:58.000Z</time>
      </trkpt>
      <trkpt lat="42.58831" lon="1.80419">
        <ele>1538</ele>
        <time>2023-07-19T14:49:04.000Z</time>
      </trkpt>
      <trkpt lat="42.58832" lon="1.80421">
        <ele>1537.5999755859</ele>
        <time>2023-07-19T14:49:06.000Z</time>
      </trkpt>
      <trkpt lat="42.58838" lon="1.80427">
        <ele>1536.8000488281</ele>
        <time>2023-07-19T14:49:11.000Z</time>
      </trkpt>
      <trkpt lat="42.5884" lon="1.80429">
        <ele>1536.4000244141</ele>
        <time>2023-07-19T14:49:12.000Z</time>
      </trkpt>
      <trkpt lat="42.58848" lon="1.80436">
        <ele>1535.5999755859</ele>
        <time>2023-07-19T14:49:18.000Z</time>
      </trkpt>
      <trkpt lat="42.58849" lon="1.80436">
        <ele>1535.4000244141</ele>
        <time>2023-07-19T14:49:20.000Z</time>
      </trkpt>
      <trkpt lat="42.58852" lon="1.80438">
        <ele>1534.5999755859</ele>
        <time>2023-07-19T14:49:25.000Z</time>
      </trkpt>
      <trkpt lat="42.58853" lon="1.80439">
        <ele>1534.1999511719</ele>
        <time>2023-07-19T14:49:27.000Z</time>
      </trkpt>
      <trkpt lat="42.5886" lon="1.80443">
        <ele>1533.1999511719</ele>
        <time>2023-07-19T14:49:34.000Z</time>
      </trkpt>
      <trkpt lat="42.58867" lon="1.80449">
        <ele>1532.1999511719</ele>
        <time>2023-07-19T14:49:39.000Z</time>
      </trkpt>
      <trkpt lat="42.58875" lon="1.80452">
        <ele>1531</ele>
        <time>2023-07-19T14:49:44.000Z</time>
      </trkpt>
      <trkpt lat="42.58885" lon="1.80454">
        <ele>1530</ele>
        <time>2023-07-19T14:49:50.000Z</time>
      </trkpt>
      <trkpt lat="42.58887" lon="1.80454">
        <ele>1529.8000488281</ele>
        <time>2023-07-19T14:49:51.000Z</time>
      </trkpt>
      <trkpt lat="42.58893" lon="1.80456">
        <ele>1529</ele>
        <time>2023-07-19T14:49:56.000Z</time>
      </trkpt>
      <trkpt lat="42.58903" lon="1.80462">
        <ele>1527.5999755859</ele>
        <time>2023-07-19T14:50:03.000Z</time>
      </trkpt>
      <trkpt lat="42.58905" lon="1.80463">
        <ele>1527.4000244141</ele>
        <time>2023-07-19T14:50:04.000Z</time>
      </trkpt>
      <trkpt lat="42.5891" lon="1.80468">
        <ele>1526.5999755859</ele>
        <time>2023-07-19T14:50:08.000Z</time>
      </trkpt>
      <trkpt lat="42.58913" lon="1.80467">
        <ele>1525.8000488281</ele>
        <time>2023-07-19T14:50:12.000Z</time>
      </trkpt>
      <trkpt lat="42.58912" lon="1.80466">
        <ele>1525.4000244141</ele>
        <time>2023-07-19T14:50:14.000Z</time>
      </trkpt>
      <trkpt lat="42.58908" lon="1.80459">
        <ele>1524.5999755859</ele>
        <time>2023-07-19T14:50:19.000Z</time>
      </trkpt>
      <trkpt lat="42.58908" lon="1.80458">
        <ele>1524.4000244141</ele>
        <time>2023-07-19T14:50:20.000Z</time>
      </trkpt>
      <trkpt lat="42.58905" lon="1.80452">
        <ele>1523.1999511719</ele>
        <time>2023-07-19T14:50:25.000Z</time>
      </trkpt>
      <trkpt lat="42.58904" lon="1.80452">
        <ele>1523</ele>
        <time>2023-07-19T14:50:26.000Z</time>
      </trkpt>
      <trkpt lat="42.58901" lon="1.80449">
        <ele>1522</ele>
        <time>2023-07-19T14:50:30.000Z</time>
      </trkpt>
      <trkpt lat="42.58897" lon="1.80444">
        <ele>1521.1999511719</ele>
        <time>2023-07-19T14:50:34.000Z</time>
      </trkpt>
      <trkpt lat="42.58896" lon="1.80442">
        <ele>1521</ele>
        <time>2023-07-19T14:50:35.000Z</time>
      </trkpt>
      <trkpt lat="42.58892" lon="1.80436">
        <ele>1519.8000488281</ele>
        <time>2023-07-19T14:50:40.000Z</time>
      </trkpt>
      <trkpt lat="42.58891" lon="1.80434">
        <ele>1519.5999755859</ele>
        <time>2023-07-19T14:50:42.000Z</time>
      </trkpt>
      <trkpt lat="42.58888" lon="1.80426">
        <ele>1518.8000488281</ele>
        <time>2023-07-19T14:50:47.000Z</time>
      </trkpt>
      <trkpt lat="42.58888" lon="1.80424">
        <ele>1518.4000244141</ele>
        <time>2023-07-19T14:50:48.000Z</time>
      </trkpt>
      <trkpt lat="42.58885" lon="1.80416">
        <ele>1517.5999755859</ele>
        <time>2023-07-19T14:50:53.000Z</time>
      </trkpt>
      <trkpt lat="42.58884" lon="1.80413">
        <ele>1517.4000244141</ele>
        <time>2023-07-19T14:50:55.000Z</time>
      </trkpt>
      <trkpt lat="42.58882" lon="1.80408">
        <ele>1516.4000244141</ele>
        <time>2023-07-19T14:50:58.000Z</time>
      </trkpt>
      <trkpt lat="42.58879" lon="1.80401">
        <ele>1515.5999755859</ele>
        <time>2023-07-19T14:51:03.000Z</time>
      </trkpt>
      <trkpt lat="42.58878" lon="1.80399">
        <ele>1515.4000244141</ele>
        <time>2023-07-19T14:51:05.000Z</time>
      </trkpt>
      <trkpt lat="42.58875" lon="1.80391">
        <ele>1514.1999511719</ele>
        <time>2023-07-19T14:51:11.000Z</time>
      </trkpt>
      <trkpt lat="42.58872" lon="1.80382">
        <ele>1513</ele>
        <time>2023-07-19T14:51:17.000Z</time>
      </trkpt>
      <trkpt lat="42.5887" lon="1.80377">
        <ele>1512.4000244141</ele>
        <time>2023-07-19T14:51:22.000Z</time>
      </trkpt>
      <trkpt lat="42.58867" lon="1.80372">
        <ele>1512</ele>
        <time>2023-07-19T14:51:25.000Z</time>
      </trkpt>
      <trkpt lat="42.58865" lon="1.80364">
        <ele>1511.1999511719</ele>
        <time>2023-07-19T14:51:30.000Z</time>
      </trkpt>
      <trkpt lat="42.58864" lon="1.80361">
        <ele>1510.8000488281</ele>
        <time>2023-07-19T14:51:32.000Z</time>
      </trkpt>
      <trkpt lat="42.58864" lon="1.80352">
        <ele>1509.8000488281</ele>
        <time>2023-07-19T14:51:37.000Z</time>
      </trkpt>
      <trkpt lat="42.58864" lon="1.8035">
        <ele>1509.4000244141</ele>
        <time>2023-07-19T14:51:39.000Z</time>
      </trkpt>
      <trkpt lat="42.58864" lon="1.8035">
        <ele>1509</ele>
        <time>2023-07-19T14:51:45.000Z</time>
      </trkpt>
      <trkpt lat="42.58865" lon="1.80352">
        <ele>1509</ele>
        <time>2023-07-19T14:51:48.000Z</time>
      </trkpt>
      <trkpt lat="42.58864" lon="1.80355">
        <ele>1508.8000488281</ele>
        <time>2023-07-19T14:51:54.000Z</time>
      </trkpt>
      <trkpt lat="42.58864" lon="1.80355">
        <ele>1508.8000488281</ele>
        <time>2023-07-19T14:51:55.000Z</time>
      </trkpt>
      <trkpt lat="42.58863" lon="1.80349">
        <ele>1508.5999755859</ele>
        <time>2023-07-19T14:52:03.000Z</time>
      </trkpt>
      <trkpt lat="42.58858" lon="1.80333">
        <ele>1507.8000488281</ele>
        <time>2023-07-19T14:52:11.000Z</time>
      </trkpt>
      <trkpt lat="42.58852" lon="1.80322">
        <ele>1509</ele>
        <time>2023-07-19T14:52:20.000Z</time>
      </trkpt>
      <trkpt lat="42.5885" lon="1.80315">
        <ele>1509.8000488281</ele>
        <time>2023-07-19T14:52:25.000Z</time>
      </trkpt>
      <trkpt lat="42.58849" lon="1.80308">
        <ele>1510.8000488281</ele>
        <time>2023-07-19T14:52:29.000Z</time>
      </trkpt>
      <trkpt lat="42.58848" lon="1.80307">
        <ele>1511</ele>
        <time>2023-07-19T14:52:30.000Z</time>
      </trkpt>
      <trkpt lat="42.58844" lon="1.80295">
        <ele>1511</ele>
        <time>2023-07-19T14:52:39.000Z</time>
      </trkpt>
      <trkpt lat="42.58839" lon="1.80284">
        <ele>1509.5999755859</ele>
        <time>2023-07-19T14:52:48.000Z</time>
      </trkpt>
      <trkpt lat="42.58838" lon="1.8028">
        <ele>1508.4000244141</ele>
        <time>2023-07-19T14:52:52.000Z</time>
      </trkpt>
      <trkpt lat="42.58839" lon="1.8028">
        <ele>1508.1999511719</ele>
        <time>2023-07-19T14:52:53.000Z</time>
      </trkpt>
      <trkpt lat="42.58838" lon="1.80279">
        <ele>1507.8000488281</ele>
        <time>2023-07-19T14:52:55.000Z</time>
      </trkpt>
      <trkpt lat="42.58839" lon="1.80276">
        <ele>1507.4000244141</ele>
        <time>2023-07-19T14:52:57.000Z</time>
      </trkpt>
      <trkpt lat="42.5884" lon="1.80274">
        <ele>1507</ele>
        <time>2023-07-19T14:53:00.000Z</time>
      </trkpt>
      <trkpt lat="42.58842" lon="1.80273">
        <ele>1506.8000488281</ele>
        <time>2023-07-19T14:53:02.000Z</time>
      </trkpt>
      <trkpt lat="42.58848" lon="1.80264">
        <ele>1506.5999755859</ele>
        <time>2023-07-19T14:53:08.000Z</time>
      </trkpt>
      <trkpt lat="42.58848" lon="1.80261">
        <ele>1506</ele>
        <time>2023-07-19T14:53:10.000Z</time>
      </trkpt>
      <trkpt lat="42.58848" lon="1.80261">
        <ele>1505.8000488281</ele>
        <time>2023-07-19T14:53:11.000Z</time>
      </trkpt>
      <trkpt lat="42.58848" lon="1.80262">
        <ele>1505</ele>
        <time>2023-07-19T14:53:14.000Z</time>
      </trkpt>
      <trkpt lat="42.58848" lon="1.80263">
        <ele>1504.1999511719</ele>
        <time>2023-07-19T14:53:17.000Z</time>
      </trkpt>
      <trkpt lat="42.58848" lon="1.80262">
        <ele>1503.8000488281</ele>
        <time>2023-07-19T14:53:19.000Z</time>
      </trkpt>
      <trkpt lat="42.58847" lon="1.80259">
        <ele>1503</ele>
        <time>2023-07-19T14:53:22.000Z</time>
      </trkpt>
      <trkpt lat="42.58848" lon="1.8026">
        <ele>1502.8000488281</ele>
        <time>2023-07-19T14:53:23.000Z</time>
      </trkpt>
      <trkpt lat="42.58846" lon="1.80253">
        <ele>1502</ele>
        <time>2023-07-19T14:53:25.000Z</time>
      </trkpt>
      <trkpt lat="42.58846" lon="1.8025">
        <ele>1501.1999511719</ele>
        <time>2023-07-19T14:53:27.000Z</time>
      </trkpt>
      <trkpt lat="42.58846" lon="1.80246">
        <ele>1500.4000244141</ele>
        <time>2023-07-19T14:53:29.000Z</time>
      </trkpt>
      <trkpt lat="42.58845" lon="1.80243">
        <ele>1499.8000488281</ele>
        <time>2023-07-19T14:53:31.000Z</time>
      </trkpt>
      <trkpt lat="42.58844" lon="1.80235">
        <ele>1498.8000488281</ele>
        <time>2023-07-19T14:53:36.000Z</time>
      </trkpt>
      <trkpt lat="42.58844" lon="1.80233">
        <ele>1498.4000244141</ele>
        <time>2023-07-19T14:53:37.000Z</time>
      </trkpt>
      <trkpt lat="42.58842" lon="1.80226">
        <ele>1497.5999755859</ele>
        <time>2023-07-19T14:53:41.000Z</time>
      </trkpt>
      <trkpt lat="42.5884" lon="1.80223">
        <ele>1496.8000488281</ele>
        <time>2023-07-19T14:53:44.000Z</time>
      </trkpt>
      <trkpt lat="42.58839" lon="1.80222">
        <ele>1496.4000244141</ele>
        <time>2023-07-19T14:53:45.000Z</time>
      </trkpt>
      <trkpt lat="42.58838" lon="1.80212">
        <ele>1495.4000244141</ele>
        <time>2023-07-19T14:53:51.000Z</time>
      </trkpt>
      <trkpt lat="42.58838" lon="1.80206">
        <ele>1494.4000244141</ele>
        <time>2023-07-19T14:53:55.000Z</time>
      </trkpt>
      <trkpt lat="42.58838" lon="1.80204">
        <ele>1494.4000244141</ele>
        <time>2023-07-19T14:53:56.000Z</time>
      </trkpt>
      <trkpt lat="42.58839" lon="1.80195">
        <ele>1493.1999511719</ele>
        <time>2023-07-19T14:54:01.000Z</time>
      </trkpt>
      <trkpt lat="42.5884" lon="1.80192">
        <ele>1492.5999755859</ele>
        <time>2023-07-19T14:54:03.000Z</time>
      </trkpt>
      <trkpt lat="42.5884" lon="1.80189">
        <ele>1492.1999511719</ele>
        <time>2023-07-19T14:54:05.000Z</time>
      </trkpt>
      <trkpt lat="42.58838" lon="1.80183">
        <ele>1491.1999511719</ele>
        <time>2023-07-19T14:54:09.000Z</time>
      </trkpt>
      <trkpt lat="42.58837" lon="1.80179">
        <ele>1490</ele>
        <time>2023-07-19T14:54:12.000Z</time>
      </trkpt>
      <trkpt lat="42.58836" lon="1.80173">
        <ele>1489</ele>
        <time>2023-07-19T14:54:15.000Z</time>
      </trkpt>
      <trkpt lat="42.58833" lon="1.80163">
        <ele>1487.8000488281</ele>
        <time>2023-07-19T14:54:19.000Z</time>
      </trkpt>
      <trkpt lat="42.58833" lon="1.80157">
        <ele>1487</ele>
        <time>2023-07-19T14:54:22.000Z</time>
      </trkpt>
      <trkpt lat="42.58832" lon="1.80153">
        <ele>1486.5999755859</ele>
        <time>2023-07-19T14:54:24.000Z</time>
      </trkpt>
      <trkpt lat="42.58829" lon="1.80143">
        <ele>1485.4000244141</ele>
        <time>2023-07-19T14:54:30.000Z</time>
      </trkpt>
      <trkpt lat="42.58828" lon="1.8014">
        <ele>1485</ele>
        <time>2023-07-19T14:54:32.000Z</time>
      </trkpt>
      <trkpt lat="42.58828" lon="1.80134">
        <ele>1484.4000244141</ele>
        <time>2023-07-19T14:54:35.000Z</time>
      </trkpt>
      <trkpt lat="42.58828" lon="1.8012">
        <ele>1483.4000244141</ele>
        <time>2023-07-19T14:54:43.000Z</time>
      </trkpt>
      <trkpt lat="42.58828" lon="1.8012">
        <ele>1483.1999511719</ele>
        <time>2023-07-19T14:54:44.000Z</time>
      </trkpt>
      <trkpt lat="42.58828" lon="1.80112">
        <ele>1482.5999755859</ele>
        <time>2023-07-19T14:54:51.000Z</time>
      </trkpt>
      <trkpt lat="42.58828" lon="1.80104">
        <ele>1482.1999511719</ele>
        <time>2023-07-19T14:54:59.000Z</time>
      </trkpt>
      <trkpt lat="42.58826" lon="1.80092">
        <ele>1482.1999511719</ele>
        <time>2023-07-19T14:55:06.000Z</time>
      </trkpt>
      <trkpt lat="42.58824" lon="1.80086">
        <ele>1481.1999511719</ele>
        <time>2023-07-19T14:55:15.000Z</time>
      </trkpt>
      <trkpt lat="42.58824" lon="1.80085">
        <ele>1481.1999511719</ele>
        <time>2023-07-19T14:55:16.000Z</time>
      </trkpt>
      <trkpt lat="42.58822" lon="1.80082">
        <ele>1480.5999755859</ele>
        <time>2023-07-19T14:55:22.000Z</time>
      </trkpt>
      <trkpt lat="42.58821" lon="1.8008">
        <ele>1480</ele>
        <time>2023-07-19T14:55:25.000Z</time>
      </trkpt>
      <trkpt lat="42.5882" lon="1.80078">
        <ele>1479.8000488281</ele>
        <time>2023-07-19T14:55:28.000Z</time>
      </trkpt>
      <trkpt lat="42.58819" lon="1.80078">
        <ele>1479.5999755859</ele>
        <time>2023-07-19T14:55:33.000Z</time>
      </trkpt>
      <trkpt lat="42.58819" lon="1.80069">
        <ele>1479.4000244141</ele>
        <time>2023-07-19T14:55:41.000Z</time>
      </trkpt>
      <trkpt lat="42.5882" lon="1.80065">
        <ele>1479.1999511719</ele>
        <time>2023-07-19T14:55:46.000Z</time>
      </trkpt>
      <trkpt lat="42.58819" lon="1.80064">
        <ele>1479</ele>
        <time>2023-07-19T14:55:47.000Z</time>
      </trkpt>
      <trkpt lat="42.58818" lon="1.80059">
        <ele>1478.8000488281</ele>
        <time>2023-07-19T14:55:53.000Z</time>
      </trkpt>
      <trkpt lat="42.58816" lon="1.80049">
        <ele>1478.1999511719</ele>
        <time>2023-07-19T14:56:00.000Z</time>
      </trkpt>
      <trkpt lat="42.58817" lon="1.80043">
        <ele>1478</ele>
        <time>2023-07-19T14:56:06.000Z</time>
      </trkpt>
      <trkpt lat="42.58818" lon="1.80041">
        <ele>1477.8000488281</ele>
        <time>2023-07-19T14:56:08.000Z</time>
      </trkpt>
      <trkpt lat="42.58818" lon="1.80033">
        <ele>1477</ele>
        <time>2023-07-19T14:56:16.000Z</time>
      </trkpt>
      <trkpt lat="42.58817" lon="1.80025">
        <ele>1477</ele>
        <time>2023-07-19T14:56:21.000Z</time>
      </trkpt>
      <trkpt lat="42.58817" lon="1.80021">
        <ele>1477</ele>
        <time>2023-07-19T14:56:24.000Z</time>
      </trkpt>
      <trkpt lat="42.58817" lon="1.80015">
        <ele>1476.1999511719</ele>
        <time>2023-07-19T14:56:32.000Z</time>
      </trkpt>
      <trkpt lat="42.58817" lon="1.80011">
        <ele>1475.8000488281</ele>
        <time>2023-07-19T14:56:34.000Z</time>
      </trkpt>
      <trkpt lat="42.58817" lon="1.80005">
        <ele>1475.1999511719</ele>
        <time>2023-07-19T14:56:38.000Z</time>
      </trkpt>
      <trkpt lat="42.58816" lon="1.80003">
        <ele>1474.8000488281</ele>
        <time>2023-07-19T14:56:40.000Z</time>
      </trkpt>
      <trkpt lat="42.58817" lon="1.79993">
        <ele>1474.1999511719</ele>
        <time>2023-07-19T14:56:46.000Z</time>
      </trkpt>
      <trkpt lat="42.58815" lon="1.79989">
        <ele>1473.8000488281</ele>
        <time>2023-07-19T14:56:50.000Z</time>
      </trkpt>
      <trkpt lat="42.58815" lon="1.79986">
        <ele>1473.4000244141</ele>
        <time>2023-07-19T14:56:52.000Z</time>
      </trkpt>
      <trkpt lat="42.58813" lon="1.79978">
        <ele>1472.8000488281</ele>
        <time>2023-07-19T14:56:56.000Z</time>
      </trkpt>
      <trkpt lat="42.58813" lon="1.79973">
        <ele>1471.4000244141</ele>
        <time>2023-07-19T14:57:01.000Z</time>
      </trkpt>
      <trkpt lat="42.58812" lon="1.79971">
        <ele>1470.4000244141</ele>
        <time>2023-07-19T14:57:04.000Z</time>
      </trkpt>
      <trkpt lat="42.5881" lon="1.79969">
        <ele>1469.4000244141</ele>
        <time>2023-07-19T14:57:09.000Z</time>
      </trkpt>
      <trkpt lat="42.58809" lon="1.79957">
        <ele>1468</ele>
        <time>2023-07-19T14:57:14.000Z</time>
      </trkpt>
      <trkpt lat="42.58807" lon="1.79953">
        <ele>1466.8000488281</ele>
        <time>2023-07-19T14:57:19.000Z</time>
      </trkpt>
      <trkpt lat="42.58805" lon="1.79952">
        <ele>1466.5999755859</ele>
        <time>2023-07-19T14:57:21.000Z</time>
      </trkpt>
      <trkpt lat="42.58801" lon="1.79945">
        <ele>1465.8000488281</ele>
        <time>2023-07-19T14:57:26.000Z</time>
      </trkpt>
      <trkpt lat="42.58799" lon="1.79943">
        <ele>1464.8000488281</ele>
        <time>2023-07-19T14:57:30.000Z</time>
      </trkpt>
      <trkpt lat="42.58797" lon="1.79943">
        <ele>1464.4000244141</ele>
        <time>2023-07-19T14:57:31.000Z</time>
      </trkpt>
      <trkpt lat="42.58796" lon="1.79942">
        <ele>1463.5999755859</ele>
        <time>2023-07-19T14:57:33.000Z</time>
      </trkpt>
      <trkpt lat="42.58794" lon="1.7994">
        <ele>1462.5999755859</ele>
        <time>2023-07-19T14:57:36.000Z</time>
      </trkpt>
      <trkpt lat="42.58794" lon="1.79934">
        <ele>1461.4000244141</ele>
        <time>2023-07-19T14:57:39.000Z</time>
      </trkpt>
      <trkpt lat="42.58791" lon="1.79928">
        <ele>1460.4000244141</ele>
        <time>2023-07-19T14:57:42.000Z</time>
      </trkpt>
      <trkpt lat="42.5879" lon="1.79926">
        <ele>1459</ele>
        <time>2023-07-19T14:57:45.000Z</time>
      </trkpt>
      <trkpt lat="42.58789" lon="1.79924">
        <ele>1458.4000244141</ele>
        <time>2023-07-19T14:57:47.000Z</time>
      </trkpt>
      <trkpt lat="42.58788" lon="1.79922">
        <ele>1458</ele>
        <time>2023-07-19T14:57:49.000Z</time>
      </trkpt>
      <trkpt lat="42.58787" lon="1.79919">
        <ele>1457</ele>
        <time>2023-07-19T14:57:54.000Z</time>
      </trkpt>
      <trkpt lat="42.58786" lon="1.79916">
        <ele>1456.4000244141</ele>
        <time>2023-07-19T14:57:56.000Z</time>
      </trkpt>
      <trkpt lat="42.58785" lon="1.79914">
        <ele>1455.8000488281</ele>
        <time>2023-07-19T14:57:58.000Z</time>
      </trkpt>
      <trkpt lat="42.58783" lon="1.7991">
        <ele>1454.8000488281</ele>
        <time>2023-07-19T14:58:02.000Z</time>
      </trkpt>
      <trkpt lat="42.58781" lon="1.79906">
        <ele>1453.8000488281</ele>
        <time>2023-07-19T14:58:05.000Z</time>
      </trkpt>
      <trkpt lat="42.58778" lon="1.79901">
        <ele>1452.8000488281</ele>
        <time>2023-07-19T14:58:09.000Z</time>
      </trkpt>
      <trkpt lat="42.58771" lon="1.79896">
        <ele>1451.4000244141</ele>
        <time>2023-07-19T14:58:14.000Z</time>
      </trkpt>
      <trkpt lat="42.5877" lon="1.79895">
        <ele>1451.1999511719</ele>
        <time>2023-07-19T14:58:15.000Z</time>
      </trkpt>
      <trkpt lat="42.58768" lon="1.79892">
        <ele>1450.4000244141</ele>
        <time>2023-07-19T14:58:18.000Z</time>
      </trkpt>
      <trkpt lat="42.58765" lon="1.79889">
        <ele>1449</ele>
        <time>2023-07-19T14:58:22.000Z</time>
      </trkpt>
      <trkpt lat="42.58764" lon="1.79887">
        <ele>1448.4000244141</ele>
        <time>2023-07-19T14:58:24.000Z</time>
      </trkpt>
      <trkpt lat="42.58762" lon="1.79885">
        <ele>1447.8000488281</ele>
        <time>2023-07-19T14:58:26.000Z</time>
      </trkpt>
      <trkpt lat="42.58758" lon="1.7988">
        <ele>1446.5999755859</ele>
        <time>2023-07-19T14:58:30.000Z</time>
      </trkpt>
      <trkpt lat="42.58755" lon="1.79875">
        <ele>1446</ele>
        <time>2023-07-19T14:58:33.000Z</time>
      </trkpt>
      <trkpt lat="42.58752" lon="1.79871">
        <ele>1445.5999755859</ele>
        <time>2023-07-19T14:58:35.000Z</time>
      </trkpt>
      <trkpt lat="42.58749" lon="1.79865">
        <ele>1444.4000244141</ele>
        <time>2023-07-19T14:58:39.000Z</time>
      </trkpt>
      <trkpt lat="42.58748" lon="1.79864">
        <ele>1444.4000244141</ele>
        <time>2023-07-19T14:58:40.000Z</time>
      </trkpt>
      <trkpt lat="42.58742" lon="1.79857">
        <ele>1443.5999755859</ele>
        <time>2023-07-19T14:58:47.000Z</time>
      </trkpt>
      <trkpt lat="42.58734" lon="1.79848">
        <ele>1443.4000244141</ele>
        <time>2023-07-19T14:58:55.000Z</time>
      </trkpt>
      <trkpt lat="42.58734" lon="1.79845">
        <ele>1443.1999511719</ele>
        <time>2023-07-19T14:58:57.000Z</time>
      </trkpt>
      <trkpt lat="42.58733" lon="1.7984">
        <ele>1442.1999511719</ele>
        <time>2023-07-19T14:59:01.000Z</time>
      </trkpt>
      <trkpt lat="42.58732" lon="1.79836">
        <ele>1441.1999511719</ele>
        <time>2023-07-19T14:59:04.000Z</time>
      </trkpt>
      <trkpt lat="42.58733" lon="1.79832">
        <ele>1440</ele>
        <time>2023-07-19T14:59:08.000Z</time>
      </trkpt>
      <trkpt lat="42.58733" lon="1.79831">
        <ele>1439.5999755859</ele>
        <time>2023-07-19T14:59:09.000Z</time>
      </trkpt>
      <trkpt lat="42.58734" lon="1.79829">
        <ele>1439</ele>
        <time>2023-07-19T14:59:11.000Z</time>
      </trkpt>
      <trkpt lat="42.58734" lon="1.79828">
        <ele>1438.5999755859</ele>
        <time>2023-07-19T14:59:12.000Z</time>
      </trkpt>
      <trkpt lat="42.58734" lon="1.79822">
        <ele>1437.1999511719</ele>
        <time>2023-07-19T14:59:17.000Z</time>
      </trkpt>
      <trkpt lat="42.58736" lon="1.79818">
        <ele>1436.1999511719</ele>
        <time>2023-07-19T14:59:21.000Z</time>
      </trkpt>
      <trkpt lat="42.58738" lon="1.79813">
        <ele>1435.4000244141</ele>
        <time>2023-07-19T14:59:27.000Z</time>
      </trkpt>
      <trkpt lat="42.58738" lon="1.79809">
        <ele>1435.1999511719</ele>
        <time>2023-07-19T14:59:29.000Z</time>
      </trkpt>
      <trkpt lat="42.58739" lon="1.79802">
        <ele>1434.8000488281</ele>
        <time>2023-07-19T14:59:34.000Z</time>
      </trkpt>
      <trkpt lat="42.58736" lon="1.79787">
        <ele>1435.1999511719</ele>
        <time>2023-07-19T14:59:42.000Z</time>
      </trkpt>
      <trkpt lat="42.58733" lon="1.7977">
        <ele>1435.4000244141</ele>
        <time>2023-07-19T14:59:51.000Z</time>
      </trkpt>
      <trkpt lat="42.58728" lon="1.7975">
        <ele>1435.5999755859</ele>
        <time>2023-07-19T15:00:01.000Z</time>
      </trkpt>
      <trkpt lat="42.58719" lon="1.79742">
        <ele>1435.8000488281</ele>
        <time>2023-07-19T15:00:08.000Z</time>
      </trkpt>
      <trkpt lat="42.58716" lon="1.79741">
        <ele>1436.4000244141</ele>
        <time>2023-07-19T15:00:12.000Z</time>
      </trkpt>
      <trkpt lat="42.58715" lon="1.79738">
        <ele>1436.5999755859</ele>
        <time>2023-07-19T15:00:14.000Z</time>
      </trkpt>
      <trkpt lat="42.5871" lon="1.79733">
        <ele>1437</ele>
        <time>2023-07-19T15:00:19.000Z</time>
      </trkpt>
      <trkpt lat="42.5871" lon="1.79734">
        <ele>1437</ele>
        <time>2023-07-19T15:00:21.000Z</time>
      </trkpt>
      <trkpt lat="42.58711" lon="1.79742">
        <ele>1437</ele>
        <time>2023-07-19T15:00:25.000Z</time>
      </trkpt>
      <trkpt lat="42.58714" lon="1.79757">
        <ele>1436.5999755859</ele>
        <time>2023-07-19T15:00:33.000Z</time>
      </trkpt>
      <trkpt lat="42.58726" lon="1.79767">
        <ele>1436.1999511719</ele>
        <time>2023-07-19T15:00:41.000Z</time>
      </trkpt>
      <trkpt lat="42.58736" lon="1.79774">
        <ele>1435.8000488281</ele>
        <time>2023-07-19T15:00:50.000Z</time>
      </trkpt>
      <trkpt lat="42.58738" lon="1.79783">
        <ele>1435.5999755859</ele>
        <time>2023-07-19T15:00:57.000Z</time>
      </trkpt>
      <trkpt lat="42.58738" lon="1.7979">
        <ele>1435.5999755859</ele>
        <time>2023-07-19T15:01:02.000Z</time>
      </trkpt>
      <trkpt lat="42.58739" lon="1.79791">
        <ele>1433</ele>
        <time>2023-07-19T15:01:40.000Z</time>
      </trkpt>
      <trkpt lat="42.58762" lon="1.79824">
        <ele>1432.1</ele>
        <time>2023-07-19T15:02:10.000Z</time>
      </trkpt>
    </trkseg>
  </trk>
</gpx>